<?xml version="1.0" encoding="UTF-8" standalone="no" ?>
<gpx xmlns="http://www.topografix.com/GPX/1/1" xmlns:xsi="http://www.w3.org/2001/XMLSchema-instance" xsi:schemaLocation="http://www.topografix.com/GPX/1/1 http://www.topografix.com/GPX/1/1/gpx.xsd" version="1.1" creator="VisuGPX - https://www.visugpx.com">
  <metadata>
    <name>Arrivée Sanary</name>
    <desc><![CDATA[3ème étape]]></desc>
  </metadata>
  <trk>
    <name><![CDATA[Meounes Sanary-sur-Mer]]></name>
    <trkseg>
      <trkpt lat="43.31217" lon="5.97465">
        <ele>350.2</ele>
        <time>2024-06-12T07:26:50Z</time>
      </trkpt>
      <trkpt lat="43.31216" lon="5.97465">
        <ele>350.2</ele>
        <time>2024-06-12T07:26:51Z</time>
      </trkpt>
      <trkpt lat="43.31215" lon="5.97465">
        <ele>350.2</ele>
        <time>2024-06-12T07:26:52Z</time>
      </trkpt>
      <trkpt lat="43.31214" lon="5.97465">
        <ele>351</ele>
        <time>2024-06-12T07:27:00Z</time>
      </trkpt>
      <trkpt lat="43.31213" lon="5.97465">
        <ele>351.4</ele>
        <time>2024-06-12T07:27:01Z</time>
      </trkpt>
      <trkpt lat="43.31212" lon="5.97465">
        <ele>351.6</ele>
        <time>2024-06-12T07:27:02Z</time>
      </trkpt>
      <trkpt lat="43.31211" lon="5.97465">
        <ele>351.6</ele>
        <time>2024-06-12T07:27:03Z</time>
      </trkpt>
      <trkpt lat="43.31204" lon="5.97465">
        <ele>351.6</ele>
        <time>2024-06-12T07:27:04Z</time>
      </trkpt>
      <trkpt lat="43.312" lon="5.97466">
        <ele>351.6</ele>
        <time>2024-06-12T07:27:05Z</time>
      </trkpt>
      <trkpt lat="43.31196" lon="5.97466">
        <ele>352.2</ele>
        <time>2024-06-12T07:27:06Z</time>
      </trkpt>
      <trkpt lat="43.31191" lon="5.97467">
        <ele>352.2</ele>
        <time>2024-06-12T07:27:07Z</time>
      </trkpt>
      <trkpt lat="43.31187" lon="5.97467">
        <ele>352.2</ele>
        <time>2024-06-12T07:27:08Z</time>
      </trkpt>
      <trkpt lat="43.31182" lon="5.97468">
        <ele>353.6</ele>
        <time>2024-06-12T07:27:52Z</time>
      </trkpt>
      <trkpt lat="43.31178" lon="5.97468">
        <ele>353.6</ele>
        <time>2024-06-12T07:27:53Z</time>
      </trkpt>
      <trkpt lat="43.31173" lon="5.97469">
        <ele>353.6</ele>
        <time>2024-06-12T07:27:54Z</time>
      </trkpt>
      <trkpt lat="43.31171" lon="5.97469">
        <ele>353.6</ele>
        <time>2024-06-12T07:27:55Z</time>
      </trkpt>
      <trkpt lat="43.31168" lon="5.97468">
        <ele>353.6</ele>
        <time>2024-06-12T07:27:56Z</time>
      </trkpt>
      <trkpt lat="43.31165" lon="5.97469">
        <ele>353.8</ele>
        <time>2024-06-12T07:27:57Z</time>
      </trkpt>
      <trkpt lat="43.31163" lon="5.97469">
        <ele>353.8</ele>
        <time>2024-06-12T07:27:58Z</time>
      </trkpt>
      <trkpt lat="43.31161" lon="5.97469">
        <ele>353.8</ele>
        <time>2024-06-12T07:27:59Z</time>
      </trkpt>
      <trkpt lat="43.31158" lon="5.97469">
        <ele>353.8</ele>
        <time>2024-06-12T07:28:00Z</time>
      </trkpt>
      <trkpt lat="43.31154" lon="5.97469">
        <ele>353.8</ele>
        <time>2024-06-12T07:28:01Z</time>
      </trkpt>
      <trkpt lat="43.31151" lon="5.97468">
        <ele>354</ele>
        <time>2024-06-12T07:28:02Z</time>
      </trkpt>
      <trkpt lat="43.31148" lon="5.97468">
        <ele>354</ele>
        <time>2024-06-12T07:28:03Z</time>
      </trkpt>
      <trkpt lat="43.31145" lon="5.97468">
        <ele>354</ele>
        <time>2024-06-12T07:28:04Z</time>
      </trkpt>
      <trkpt lat="43.31142" lon="5.97468">
        <ele>354</ele>
        <time>2024-06-12T07:28:05Z</time>
      </trkpt>
      <trkpt lat="43.31139" lon="5.97467">
        <ele>354</ele>
        <time>2024-06-12T07:28:06Z</time>
      </trkpt>
      <trkpt lat="43.31136" lon="5.97467">
        <ele>354</ele>
        <time>2024-06-12T07:28:07Z</time>
      </trkpt>
      <trkpt lat="43.31132" lon="5.97468">
        <ele>354</ele>
        <time>2024-06-12T07:28:08Z</time>
      </trkpt>
      <trkpt lat="43.31129" lon="5.97468">
        <ele>354</ele>
        <time>2024-06-12T07:28:09Z</time>
      </trkpt>
      <trkpt lat="43.31126" lon="5.97468">
        <ele>354</ele>
        <time>2024-06-12T07:28:10Z</time>
      </trkpt>
      <trkpt lat="43.31123" lon="5.97467">
        <ele>354.4</ele>
        <time>2024-06-12T07:28:11Z</time>
      </trkpt>
      <trkpt lat="43.31119" lon="5.97467">
        <ele>354.4</ele>
        <time>2024-06-12T07:28:12Z</time>
      </trkpt>
      <trkpt lat="43.31116" lon="5.97467">
        <ele>354.4</ele>
        <time>2024-06-12T07:28:13Z</time>
      </trkpt>
      <trkpt lat="43.31111" lon="5.97467">
        <ele>354.4</ele>
        <time>2024-06-12T07:28:14Z</time>
      </trkpt>
      <trkpt lat="43.31109" lon="5.97467">
        <ele>354.6</ele>
        <time>2024-06-12T07:28:15Z</time>
      </trkpt>
      <trkpt lat="43.31104" lon="5.97467">
        <ele>354.6</ele>
        <time>2024-06-12T07:28:16Z</time>
      </trkpt>
      <trkpt lat="43.31102" lon="5.97467">
        <ele>354.6</ele>
        <time>2024-06-12T07:28:17Z</time>
      </trkpt>
      <trkpt lat="43.31098" lon="5.97467">
        <ele>354.6</ele>
        <time>2024-06-12T07:28:18Z</time>
      </trkpt>
      <trkpt lat="43.31095" lon="5.97467">
        <ele>354.6</ele>
        <time>2024-06-12T07:28:19Z</time>
      </trkpt>
      <trkpt lat="43.31091" lon="5.97467">
        <ele>354.6</ele>
        <time>2024-06-12T07:28:20Z</time>
      </trkpt>
      <trkpt lat="43.31085" lon="5.97467">
        <ele>354.6</ele>
        <time>2024-06-12T07:28:21Z</time>
      </trkpt>
      <trkpt lat="43.31084" lon="5.97467">
        <ele>354.6</ele>
        <time>2024-06-12T07:28:22Z</time>
      </trkpt>
      <trkpt lat="43.3108" lon="5.97467">
        <ele>354.6</ele>
        <time>2024-06-12T07:28:23Z</time>
      </trkpt>
      <trkpt lat="43.31074" lon="5.97467">
        <ele>355</ele>
        <time>2024-06-12T07:28:24Z</time>
      </trkpt>
      <trkpt lat="43.31073" lon="5.97466">
        <ele>355.2</ele>
        <time>2024-06-12T07:28:25Z</time>
      </trkpt>
      <trkpt lat="43.31067" lon="5.97466">
        <ele>355.2</ele>
        <time>2024-06-12T07:28:26Z</time>
      </trkpt>
      <trkpt lat="43.31065" lon="5.97466">
        <ele>355.2</ele>
        <time>2024-06-12T07:28:27Z</time>
      </trkpt>
      <trkpt lat="43.31062" lon="5.97466">
        <ele>355.2</ele>
        <time>2024-06-12T07:28:28Z</time>
      </trkpt>
      <trkpt lat="43.31056" lon="5.97466">
        <ele>355.2</ele>
        <time>2024-06-12T07:28:29Z</time>
      </trkpt>
      <trkpt lat="43.31055" lon="5.97466">
        <ele>355.4</ele>
        <time>2024-06-12T07:28:30Z</time>
      </trkpt>
      <trkpt lat="43.31049" lon="5.97466">
        <ele>355.4</ele>
        <time>2024-06-12T07:28:31Z</time>
      </trkpt>
      <trkpt lat="43.31048" lon="5.97466">
        <ele>355.4</ele>
        <time>2024-06-12T07:28:32Z</time>
      </trkpt>
      <trkpt lat="43.31043" lon="5.97466">
        <ele>355.4</ele>
        <time>2024-06-12T07:28:33Z</time>
      </trkpt>
      <trkpt lat="43.31041" lon="5.97466">
        <ele>355.6</ele>
        <time>2024-06-12T07:28:34Z</time>
      </trkpt>
      <trkpt lat="43.31036" lon="5.97466">
        <ele>355.6</ele>
        <time>2024-06-12T07:28:35Z</time>
      </trkpt>
      <trkpt lat="43.31035" lon="5.97467">
        <ele>355.6</ele>
        <time>2024-06-12T07:28:36Z</time>
      </trkpt>
      <trkpt lat="43.3103" lon="5.97468">
        <ele>355.8</ele>
        <time>2024-06-12T07:28:37Z</time>
      </trkpt>
      <trkpt lat="43.31029" lon="5.97468">
        <ele>355.8</ele>
        <time>2024-06-12T07:28:38Z</time>
      </trkpt>
      <trkpt lat="43.31026" lon="5.97469">
        <ele>355.8</ele>
        <time>2024-06-12T07:28:39Z</time>
      </trkpt>
      <trkpt lat="43.31023" lon="5.97471">
        <ele>355.8</ele>
        <time>2024-06-12T07:28:40Z</time>
      </trkpt>
      <trkpt lat="43.3102" lon="5.97472">
        <ele>356.2</ele>
        <time>2024-06-12T07:28:41Z</time>
      </trkpt>
      <trkpt lat="43.31017" lon="5.97472">
        <ele>356.2</ele>
        <time>2024-06-12T07:28:42Z</time>
      </trkpt>
      <trkpt lat="43.31014" lon="5.97472">
        <ele>356.4</ele>
        <time>2024-06-12T07:28:43Z</time>
      </trkpt>
      <trkpt lat="43.31011" lon="5.97472">
        <ele>356.4</ele>
        <time>2024-06-12T07:28:44Z</time>
      </trkpt>
      <trkpt lat="43.31007" lon="5.97471">
        <ele>356.6</ele>
        <time>2024-06-12T07:28:45Z</time>
      </trkpt>
      <trkpt lat="43.31005" lon="5.97471">
        <ele>356.8</ele>
        <time>2024-06-12T07:28:46Z</time>
      </trkpt>
      <trkpt lat="43.31001" lon="5.97471">
        <ele>356.8</ele>
        <time>2024-06-12T07:28:47Z</time>
      </trkpt>
      <trkpt lat="43.30999" lon="5.97471">
        <ele>356.8</ele>
        <time>2024-06-12T07:28:48Z</time>
      </trkpt>
      <trkpt lat="43.30994" lon="5.97471">
        <ele>356.8</ele>
        <time>2024-06-12T07:28:49Z</time>
      </trkpt>
      <trkpt lat="43.30993" lon="5.97471">
        <ele>357</ele>
        <time>2024-06-12T07:28:50Z</time>
      </trkpt>
      <trkpt lat="43.3099" lon="5.97472">
        <ele>357.2</ele>
        <time>2024-06-12T07:28:51Z</time>
      </trkpt>
      <trkpt lat="43.30987" lon="5.97472">
        <ele>357.2</ele>
        <time>2024-06-12T07:28:52Z</time>
      </trkpt>
      <trkpt lat="43.30984" lon="5.97474">
        <ele>357.2</ele>
        <time>2024-06-12T07:28:53Z</time>
      </trkpt>
      <trkpt lat="43.30982" lon="5.97475">
        <ele>357.6</ele>
        <time>2024-06-12T07:28:54Z</time>
      </trkpt>
      <trkpt lat="43.30978" lon="5.97476">
        <ele>357.6</ele>
        <time>2024-06-12T07:28:55Z</time>
      </trkpt>
      <trkpt lat="43.30975" lon="5.97477">
        <ele>357.6</ele>
        <time>2024-06-12T07:28:56Z</time>
      </trkpt>
      <trkpt lat="43.30972" lon="5.9748">
        <ele>357.6</ele>
        <time>2024-06-12T07:28:57Z</time>
      </trkpt>
      <trkpt lat="43.30968" lon="5.97482">
        <ele>357.6</ele>
        <time>2024-06-12T07:28:58Z</time>
      </trkpt>
      <trkpt lat="43.30966" lon="5.97483">
        <ele>357.8</ele>
        <time>2024-06-12T07:28:59Z</time>
      </trkpt>
      <trkpt lat="43.30963" lon="5.97485">
        <ele>357.8</ele>
        <time>2024-06-12T07:29:00Z</time>
      </trkpt>
      <trkpt lat="43.30959" lon="5.97488">
        <ele>357.8</ele>
        <time>2024-06-12T07:29:01Z</time>
      </trkpt>
      <trkpt lat="43.30957" lon="5.97489">
        <ele>357.8</ele>
        <time>2024-06-12T07:29:02Z</time>
      </trkpt>
      <trkpt lat="43.30953" lon="5.97493">
        <ele>357.8</ele>
        <time>2024-06-12T07:29:03Z</time>
      </trkpt>
      <trkpt lat="43.30951" lon="5.97494">
        <ele>358.2</ele>
        <time>2024-06-12T07:29:04Z</time>
      </trkpt>
      <trkpt lat="43.30946" lon="5.97498">
        <ele>358.2</ele>
        <time>2024-06-12T07:29:05Z</time>
      </trkpt>
      <trkpt lat="43.30945" lon="5.97499">
        <ele>358.2</ele>
        <time>2024-06-12T07:29:06Z</time>
      </trkpt>
      <trkpt lat="43.30942" lon="5.97502">
        <ele>358.2</ele>
        <time>2024-06-12T07:29:07Z</time>
      </trkpt>
      <trkpt lat="43.30938" lon="5.97506">
        <ele>358.6</ele>
        <time>2024-06-12T07:29:08Z</time>
      </trkpt>
      <trkpt lat="43.30937" lon="5.97508">
        <ele>358.8</ele>
        <time>2024-06-12T07:29:09Z</time>
      </trkpt>
      <trkpt lat="43.30934" lon="5.9751">
        <ele>358.8</ele>
        <time>2024-06-12T07:29:10Z</time>
      </trkpt>
      <trkpt lat="43.3093" lon="5.97514">
        <ele>358.8</ele>
        <time>2024-06-12T07:29:11Z</time>
      </trkpt>
      <trkpt lat="43.3093" lon="5.97515">
        <ele>358.8</ele>
        <time>2024-06-12T07:29:12Z</time>
      </trkpt>
      <trkpt lat="43.30926" lon="5.97518">
        <ele>358.8</ele>
        <time>2024-06-12T07:29:13Z</time>
      </trkpt>
      <trkpt lat="43.30925" lon="5.97519">
        <ele>359</ele>
        <time>2024-06-12T07:29:14Z</time>
      </trkpt>
      <trkpt lat="43.30921" lon="5.97522">
        <ele>359</ele>
        <time>2024-06-12T07:29:15Z</time>
      </trkpt>
      <trkpt lat="43.3092" lon="5.97523">
        <ele>359</ele>
        <time>2024-06-12T07:29:16Z</time>
      </trkpt>
      <trkpt lat="43.30918" lon="5.97526">
        <ele>359.4</ele>
        <time>2024-06-12T07:29:17Z</time>
      </trkpt>
      <trkpt lat="43.30915" lon="5.97529">
        <ele>359.4</ele>
        <time>2024-06-12T07:29:18Z</time>
      </trkpt>
      <trkpt lat="43.30912" lon="5.97531">
        <ele>359.4</ele>
        <time>2024-06-12T07:29:19Z</time>
      </trkpt>
      <trkpt lat="43.3091" lon="5.97533">
        <ele>359.4</ele>
        <time>2024-06-12T07:29:20Z</time>
      </trkpt>
      <trkpt lat="43.30907" lon="5.97535">
        <ele>359.4</ele>
        <time>2024-06-12T07:29:21Z</time>
      </trkpt>
      <trkpt lat="43.30904" lon="5.97537">
        <ele>359.4</ele>
        <time>2024-06-12T07:29:22Z</time>
      </trkpt>
      <trkpt lat="43.30901" lon="5.97539">
        <ele>359.4</ele>
        <time>2024-06-12T07:29:23Z</time>
      </trkpt>
      <trkpt lat="43.30898" lon="5.9754">
        <ele>359.4</ele>
        <time>2024-06-12T07:29:24Z</time>
      </trkpt>
      <trkpt lat="43.30895" lon="5.97542">
        <ele>359.4</ele>
        <time>2024-06-12T07:29:25Z</time>
      </trkpt>
      <trkpt lat="43.30892" lon="5.97542">
        <ele>359.6</ele>
        <time>2024-06-12T07:29:26Z</time>
      </trkpt>
      <trkpt lat="43.30888" lon="5.97544">
        <ele>359.6</ele>
        <time>2024-06-12T07:29:27Z</time>
      </trkpt>
      <trkpt lat="43.30882" lon="5.97546">
        <ele>359.6</ele>
        <time>2024-06-12T07:29:28Z</time>
      </trkpt>
      <trkpt lat="43.3088" lon="5.97547">
        <ele>359.6</ele>
        <time>2024-06-12T07:29:29Z</time>
      </trkpt>
      <trkpt lat="43.30876" lon="5.97548">
        <ele>359.8</ele>
        <time>2024-06-12T07:29:30Z</time>
      </trkpt>
      <trkpt lat="43.30873" lon="5.9755">
        <ele>359.8</ele>
        <time>2024-06-12T07:29:31Z</time>
      </trkpt>
      <trkpt lat="43.30868" lon="5.97554">
        <ele>359.8</ele>
        <time>2024-06-12T07:29:32Z</time>
      </trkpt>
      <trkpt lat="43.30866" lon="5.97555">
        <ele>359.8</ele>
        <time>2024-06-12T07:29:33Z</time>
      </trkpt>
      <trkpt lat="43.30862" lon="5.9756">
        <ele>360.4</ele>
        <time>2024-06-12T07:29:34Z</time>
      </trkpt>
      <trkpt lat="43.3086" lon="5.97562">
        <ele>360.2</ele>
        <time>2024-06-12T07:29:35Z</time>
      </trkpt>
      <trkpt lat="43.30857" lon="5.97565">
        <ele>360.2</ele>
        <time>2024-06-12T07:29:36Z</time>
      </trkpt>
      <trkpt lat="43.30854" lon="5.97568">
        <ele>360.2</ele>
        <time>2024-06-12T07:29:37Z</time>
      </trkpt>
      <trkpt lat="43.3085" lon="5.97571">
        <ele>360.2</ele>
        <time>2024-06-12T07:29:38Z</time>
      </trkpt>
      <trkpt lat="43.30846" lon="5.97574">
        <ele>360.8</ele>
        <time>2024-06-12T07:29:39Z</time>
      </trkpt>
      <trkpt lat="43.3084" lon="5.97578">
        <ele>360.8</ele>
        <time>2024-06-12T07:29:40Z</time>
      </trkpt>
      <trkpt lat="43.30839" lon="5.9758">
        <ele>360.8</ele>
        <time>2024-06-12T07:29:41Z</time>
      </trkpt>
      <trkpt lat="43.30833" lon="5.97583">
        <ele>360.8</ele>
        <time>2024-06-12T07:29:42Z</time>
      </trkpt>
      <trkpt lat="43.30831" lon="5.97585">
        <ele>361.2</ele>
        <time>2024-06-12T07:29:43Z</time>
      </trkpt>
      <trkpt lat="43.30824" lon="5.97589">
        <ele>361.2</ele>
        <time>2024-06-12T07:29:44Z</time>
      </trkpt>
      <trkpt lat="43.30822" lon="5.9759">
        <ele>361.2</ele>
        <time>2024-06-12T07:29:45Z</time>
      </trkpt>
      <trkpt lat="43.30815" lon="5.97593">
        <ele>361.2</ele>
        <time>2024-06-12T07:29:46Z</time>
      </trkpt>
      <trkpt lat="43.30813" lon="5.97595">
        <ele>361.2</ele>
        <time>2024-06-12T07:29:47Z</time>
      </trkpt>
      <trkpt lat="43.30808" lon="5.97597">
        <ele>360.8</ele>
        <time>2024-06-12T07:29:48Z</time>
      </trkpt>
      <trkpt lat="43.30801" lon="5.976">
        <ele>361</ele>
        <time>2024-06-12T07:29:49Z</time>
      </trkpt>
      <trkpt lat="43.30798" lon="5.97602">
        <ele>361</ele>
        <time>2024-06-12T07:29:50Z</time>
      </trkpt>
      <trkpt lat="43.30791" lon="5.97607">
        <ele>361</ele>
        <time>2024-06-12T07:29:51Z</time>
      </trkpt>
      <trkpt lat="43.30788" lon="5.97609">
        <ele>361</ele>
        <time>2024-06-12T07:29:52Z</time>
      </trkpt>
      <trkpt lat="43.30783" lon="5.97613">
        <ele>361</ele>
        <time>2024-06-12T07:29:53Z</time>
      </trkpt>
      <trkpt lat="43.30775" lon="5.97622">
        <ele>361</ele>
        <time>2024-06-12T07:29:54Z</time>
      </trkpt>
      <trkpt lat="43.30772" lon="5.97626">
        <ele>361</ele>
        <time>2024-06-12T07:29:55Z</time>
      </trkpt>
      <trkpt lat="43.30765" lon="5.97637">
        <ele>361</ele>
        <time>2024-06-12T07:29:56Z</time>
      </trkpt>
      <trkpt lat="43.30762" lon="5.9764">
        <ele>360.4</ele>
        <time>2024-06-12T07:29:57Z</time>
      </trkpt>
      <trkpt lat="43.30756" lon="5.97652">
        <ele>360.6</ele>
        <time>2024-06-12T07:29:58Z</time>
      </trkpt>
      <trkpt lat="43.30753" lon="5.97655">
        <ele>360.6</ele>
        <time>2024-06-12T07:29:59Z</time>
      </trkpt>
      <trkpt lat="43.30748" lon="5.97662">
        <ele>360.6</ele>
        <time>2024-06-12T07:30:00Z</time>
      </trkpt>
      <trkpt lat="43.30743" lon="5.97668">
        <ele>360.6</ele>
        <time>2024-06-12T07:30:01Z</time>
      </trkpt>
      <trkpt lat="43.30739" lon="5.97674">
        <ele>359.8</ele>
        <time>2024-06-12T07:30:02Z</time>
      </trkpt>
      <trkpt lat="43.30734" lon="5.9768">
        <ele>359.8</ele>
        <time>2024-06-12T07:30:03Z</time>
      </trkpt>
      <trkpt lat="43.3073" lon="5.97686">
        <ele>359.8</ele>
        <time>2024-06-12T07:30:04Z</time>
      </trkpt>
      <trkpt lat="43.30725" lon="5.97691">
        <ele>359</ele>
        <time>2024-06-12T07:30:05Z</time>
      </trkpt>
      <trkpt lat="43.3072" lon="5.97695">
        <ele>358.6</ele>
        <time>2024-06-12T07:30:06Z</time>
      </trkpt>
      <trkpt lat="43.30716" lon="5.977">
        <ele>358.6</ele>
        <time>2024-06-12T07:30:07Z</time>
      </trkpt>
      <trkpt lat="43.30712" lon="5.97706">
        <ele>358.6</ele>
        <time>2024-06-12T07:30:08Z</time>
      </trkpt>
      <trkpt lat="43.30707" lon="5.97713">
        <ele>358</ele>
        <time>2024-06-12T07:30:09Z</time>
      </trkpt>
      <trkpt lat="43.30703" lon="5.97719">
        <ele>357.6</ele>
        <time>2024-06-12T07:30:10Z</time>
      </trkpt>
      <trkpt lat="43.30699" lon="5.97726">
        <ele>357.6</ele>
        <time>2024-06-12T07:30:11Z</time>
      </trkpt>
      <trkpt lat="43.30696" lon="5.97734">
        <ele>357.6</ele>
        <time>2024-06-12T07:30:12Z</time>
      </trkpt>
      <trkpt lat="43.30693" lon="5.97741">
        <ele>357.6</ele>
        <time>2024-06-12T07:30:13Z</time>
      </trkpt>
      <trkpt lat="43.30689" lon="5.97747">
        <ele>357.6</ele>
        <time>2024-06-12T07:30:14Z</time>
      </trkpt>
      <trkpt lat="43.30685" lon="5.97753">
        <ele>357.6</ele>
        <time>2024-06-12T07:30:15Z</time>
      </trkpt>
      <trkpt lat="43.30681" lon="5.97761">
        <ele>357.6</ele>
        <time>2024-06-12T07:30:16Z</time>
      </trkpt>
      <trkpt lat="43.30678" lon="5.97768">
        <ele>357.6</ele>
        <time>2024-06-12T07:30:17Z</time>
      </trkpt>
      <trkpt lat="43.30675" lon="5.97774">
        <ele>356.6</ele>
        <time>2024-06-12T07:30:18Z</time>
      </trkpt>
      <trkpt lat="43.30672" lon="5.97781">
        <ele>356.6</ele>
        <time>2024-06-12T07:30:19Z</time>
      </trkpt>
      <trkpt lat="43.30669" lon="5.97786">
        <ele>355.4</ele>
        <time>2024-06-12T07:30:20Z</time>
      </trkpt>
      <trkpt lat="43.30666" lon="5.97792">
        <ele>355.4</ele>
        <time>2024-06-12T07:30:21Z</time>
      </trkpt>
      <trkpt lat="43.30663" lon="5.97797">
        <ele>355.4</ele>
        <time>2024-06-12T07:30:22Z</time>
      </trkpt>
      <trkpt lat="43.30661" lon="5.97803">
        <ele>355.4</ele>
        <time>2024-06-12T07:30:23Z</time>
      </trkpt>
      <trkpt lat="43.30657" lon="5.97809">
        <ele>354.4</ele>
        <time>2024-06-12T07:30:24Z</time>
      </trkpt>
      <trkpt lat="43.30652" lon="5.97814">
        <ele>354.4</ele>
        <time>2024-06-12T07:30:25Z</time>
      </trkpt>
      <trkpt lat="43.30648" lon="5.97818">
        <ele>354.4</ele>
        <time>2024-06-12T07:30:26Z</time>
      </trkpt>
      <trkpt lat="43.30641" lon="5.97826">
        <ele>354.4</ele>
        <time>2024-06-12T07:30:27Z</time>
      </trkpt>
      <trkpt lat="43.30638" lon="5.97829">
        <ele>354.4</ele>
        <time>2024-06-12T07:30:28Z</time>
      </trkpt>
      <trkpt lat="43.30631" lon="5.97837">
        <ele>354.2</ele>
        <time>2024-06-12T07:30:29Z</time>
      </trkpt>
      <trkpt lat="43.30629" lon="5.9784">
        <ele>354.2</ele>
        <time>2024-06-12T07:30:30Z</time>
      </trkpt>
      <trkpt lat="43.30621" lon="5.97848">
        <ele>354.2</ele>
        <time>2024-06-12T07:30:31Z</time>
      </trkpt>
      <trkpt lat="43.30619" lon="5.97851">
        <ele>353.2</ele>
        <time>2024-06-12T07:30:32Z</time>
      </trkpt>
      <trkpt lat="43.30614" lon="5.97856">
        <ele>352.2</ele>
        <time>2024-06-12T07:30:33Z</time>
      </trkpt>
      <trkpt lat="43.30608" lon="5.97863">
        <ele>352.2</ele>
        <time>2024-06-12T07:30:34Z</time>
      </trkpt>
      <trkpt lat="43.30606" lon="5.97866">
        <ele>352.2</ele>
        <time>2024-06-12T07:30:35Z</time>
      </trkpt>
      <trkpt lat="43.30602" lon="5.9787">
        <ele>352.2</ele>
        <time>2024-06-12T07:30:36Z</time>
      </trkpt>
      <trkpt lat="43.30598" lon="5.97876">
        <ele>352.2</ele>
        <time>2024-06-12T07:30:37Z</time>
      </trkpt>
      <trkpt lat="43.30596" lon="5.97879">
        <ele>350.8</ele>
        <time>2024-06-12T07:30:38Z</time>
      </trkpt>
      <trkpt lat="43.30591" lon="5.97886">
        <ele>350.8</ele>
        <time>2024-06-12T07:30:39Z</time>
      </trkpt>
      <trkpt lat="43.30589" lon="5.97888">
        <ele>350.8</ele>
        <time>2024-06-12T07:30:40Z</time>
      </trkpt>
      <trkpt lat="43.30584" lon="5.97894">
        <ele>350.8</ele>
        <time>2024-06-12T07:30:41Z</time>
      </trkpt>
      <trkpt lat="43.30582" lon="5.97896">
        <ele>350.2</ele>
        <time>2024-06-12T07:30:42Z</time>
      </trkpt>
      <trkpt lat="43.30575" lon="5.97901">
        <ele>350.2</ele>
        <time>2024-06-12T07:30:43Z</time>
      </trkpt>
      <trkpt lat="43.30573" lon="5.97903">
        <ele>350.2</ele>
        <time>2024-06-12T07:30:44Z</time>
      </trkpt>
      <trkpt lat="43.30568" lon="5.97907">
        <ele>349.2</ele>
        <time>2024-06-12T07:30:45Z</time>
      </trkpt>
      <trkpt lat="43.30563" lon="5.97911">
        <ele>349</ele>
        <time>2024-06-12T07:30:46Z</time>
      </trkpt>
      <trkpt lat="43.30558" lon="5.97914">
        <ele>349</ele>
        <time>2024-06-12T07:30:47Z</time>
      </trkpt>
      <trkpt lat="43.30553" lon="5.97917">
        <ele>349</ele>
        <time>2024-06-12T07:30:48Z</time>
      </trkpt>
      <trkpt lat="43.30547" lon="5.9792">
        <ele>349</ele>
        <time>2024-06-12T07:30:49Z</time>
      </trkpt>
      <trkpt lat="43.30542" lon="5.97924">
        <ele>347.8</ele>
        <time>2024-06-12T07:30:50Z</time>
      </trkpt>
      <trkpt lat="43.30536" lon="5.97927">
        <ele>347.8</ele>
        <time>2024-06-12T07:30:51Z</time>
      </trkpt>
      <trkpt lat="43.30526" lon="5.97933">
        <ele>347.8</ele>
        <time>2024-06-12T07:30:52Z</time>
      </trkpt>
      <trkpt lat="43.30523" lon="5.97935">
        <ele>347.8</ele>
        <time>2024-06-12T07:30:53Z</time>
      </trkpt>
      <trkpt lat="43.30517" lon="5.97939">
        <ele>347.8</ele>
        <time>2024-06-12T07:30:54Z</time>
      </trkpt>
      <trkpt lat="43.3051" lon="5.97943">
        <ele>346.8</ele>
        <time>2024-06-12T07:30:55Z</time>
      </trkpt>
      <trkpt lat="43.30503" lon="5.97947">
        <ele>346.8</ele>
        <time>2024-06-12T07:30:56Z</time>
      </trkpt>
      <trkpt lat="43.30497" lon="5.9795">
        <ele>346.8</ele>
        <time>2024-06-12T07:30:57Z</time>
      </trkpt>
      <trkpt lat="43.3049" lon="5.97954">
        <ele>346.8</ele>
        <time>2024-06-12T07:30:58Z</time>
      </trkpt>
      <trkpt lat="43.30484" lon="5.97959">
        <ele>345.8</ele>
        <time>2024-06-12T07:30:59Z</time>
      </trkpt>
      <trkpt lat="43.30477" lon="5.97963">
        <ele>345.8</ele>
        <time>2024-06-12T07:31:00Z</time>
      </trkpt>
      <trkpt lat="43.3047" lon="5.97967">
        <ele>345.8</ele>
        <time>2024-06-12T07:31:01Z</time>
      </trkpt>
      <trkpt lat="43.30463" lon="5.97971">
        <ele>345.8</ele>
        <time>2024-06-12T07:31:02Z</time>
      </trkpt>
      <trkpt lat="43.30456" lon="5.97975">
        <ele>344.8</ele>
        <time>2024-06-12T07:31:03Z</time>
      </trkpt>
      <trkpt lat="43.3045" lon="5.9798">
        <ele>344.8</ele>
        <time>2024-06-12T07:31:04Z</time>
      </trkpt>
      <trkpt lat="43.30443" lon="5.97984">
        <ele>344.8</ele>
        <time>2024-06-12T07:31:05Z</time>
      </trkpt>
      <trkpt lat="43.30436" lon="5.97989">
        <ele>344.8</ele>
        <time>2024-06-12T07:31:06Z</time>
      </trkpt>
      <trkpt lat="43.30429" lon="5.97993">
        <ele>343.8</ele>
        <time>2024-06-12T07:31:07Z</time>
      </trkpt>
      <trkpt lat="43.30419" lon="5.98">
        <ele>343.8</ele>
        <time>2024-06-12T07:31:08Z</time>
      </trkpt>
      <trkpt lat="43.30416" lon="5.98002">
        <ele>342.8</ele>
        <time>2024-06-12T07:31:09Z</time>
      </trkpt>
      <trkpt lat="43.30406" lon="5.98009">
        <ele>342.8</ele>
        <time>2024-06-12T07:31:10Z</time>
      </trkpt>
      <trkpt lat="43.30402" lon="5.98011">
        <ele>342.8</ele>
        <time>2024-06-12T07:31:11Z</time>
      </trkpt>
      <trkpt lat="43.30392" lon="5.98017">
        <ele>341.8</ele>
        <time>2024-06-12T07:31:12Z</time>
      </trkpt>
      <trkpt lat="43.30388" lon="5.9802">
        <ele>341.8</ele>
        <time>2024-06-12T07:31:13Z</time>
      </trkpt>
      <trkpt lat="43.30381" lon="5.98024">
        <ele>341.2</ele>
        <time>2024-06-12T07:31:14Z</time>
      </trkpt>
      <trkpt lat="43.30372" lon="5.98032">
        <ele>341.2</ele>
        <time>2024-06-12T07:31:15Z</time>
      </trkpt>
      <trkpt lat="43.30368" lon="5.98034">
        <ele>341.2</ele>
        <time>2024-06-12T07:31:16Z</time>
      </trkpt>
      <trkpt lat="43.30359" lon="5.98042">
        <ele>341.2</ele>
        <time>2024-06-12T07:31:17Z</time>
      </trkpt>
      <trkpt lat="43.30356" lon="5.98044">
        <ele>339.6</ele>
        <time>2024-06-12T07:31:18Z</time>
      </trkpt>
      <trkpt lat="43.3035" lon="5.98049">
        <ele>339.6</ele>
        <time>2024-06-12T07:31:19Z</time>
      </trkpt>
      <trkpt lat="43.30341" lon="5.98055">
        <ele>339.6</ele>
        <time>2024-06-12T07:31:20Z</time>
      </trkpt>
      <trkpt lat="43.30338" lon="5.98056">
        <ele>339.6</ele>
        <time>2024-06-12T07:31:21Z</time>
      </trkpt>
      <trkpt lat="43.30331" lon="5.9806">
        <ele>338.8</ele>
        <time>2024-06-12T07:31:22Z</time>
      </trkpt>
      <trkpt lat="43.30329" lon="5.98061">
        <ele>338.8</ele>
        <time>2024-06-12T07:31:23Z</time>
      </trkpt>
      <trkpt lat="43.30322" lon="5.98064">
        <ele>338.8</ele>
        <time>2024-06-12T07:31:24Z</time>
      </trkpt>
      <trkpt lat="43.30319" lon="5.98066">
        <ele>337.8</ele>
        <time>2024-06-12T07:31:25Z</time>
      </trkpt>
      <trkpt lat="43.30312" lon="5.9807">
        <ele>337.8</ele>
        <time>2024-06-12T07:31:26Z</time>
      </trkpt>
      <trkpt lat="43.30309" lon="5.98071">
        <ele>337.2</ele>
        <time>2024-06-12T07:31:27Z</time>
      </trkpt>
      <trkpt lat="43.30304" lon="5.98074">
        <ele>337.2</ele>
        <time>2024-06-12T07:31:28Z</time>
      </trkpt>
      <trkpt lat="43.30299" lon="5.98077">
        <ele>337.2</ele>
        <time>2024-06-12T07:31:29Z</time>
      </trkpt>
      <trkpt lat="43.30294" lon="5.9808">
        <ele>337.2</ele>
        <time>2024-06-12T07:31:30Z</time>
      </trkpt>
      <trkpt lat="43.30288" lon="5.98083">
        <ele>337.2</ele>
        <time>2024-06-12T07:31:31Z</time>
      </trkpt>
      <trkpt lat="43.30283" lon="5.98086">
        <ele>336</ele>
        <time>2024-06-12T07:31:32Z</time>
      </trkpt>
      <trkpt lat="43.30278" lon="5.9809">
        <ele>336</ele>
        <time>2024-06-12T07:31:33Z</time>
      </trkpt>
      <trkpt lat="43.30273" lon="5.98094">
        <ele>335.6</ele>
        <time>2024-06-12T07:31:34Z</time>
      </trkpt>
      <trkpt lat="43.30268" lon="5.98097">
        <ele>335</ele>
        <time>2024-06-12T07:31:35Z</time>
      </trkpt>
      <trkpt lat="43.30263" lon="5.98101">
        <ele>335</ele>
        <time>2024-06-12T07:31:36Z</time>
      </trkpt>
      <trkpt lat="43.30258" lon="5.98105">
        <ele>335</ele>
        <time>2024-06-12T07:31:37Z</time>
      </trkpt>
      <trkpt lat="43.30254" lon="5.98109">
        <ele>335</ele>
        <time>2024-06-12T07:31:38Z</time>
      </trkpt>
      <trkpt lat="43.30249" lon="5.98113">
        <ele>335</ele>
        <time>2024-06-12T07:31:39Z</time>
      </trkpt>
      <trkpt lat="43.30245" lon="5.98117">
        <ele>334.8</ele>
        <time>2024-06-12T07:31:40Z</time>
      </trkpt>
      <trkpt lat="43.3024" lon="5.98121">
        <ele>334.8</ele>
        <time>2024-06-12T07:31:41Z</time>
      </trkpt>
      <trkpt lat="43.30236" lon="5.98124">
        <ele>334.8</ele>
        <time>2024-06-12T07:31:42Z</time>
      </trkpt>
      <trkpt lat="43.30231" lon="5.98126">
        <ele>334.4</ele>
        <time>2024-06-12T07:31:43Z</time>
      </trkpt>
      <trkpt lat="43.30227" lon="5.98129">
        <ele>334.4</ele>
        <time>2024-06-12T07:31:44Z</time>
      </trkpt>
      <trkpt lat="43.30223" lon="5.98132">
        <ele>334.6</ele>
        <time>2024-06-12T07:31:45Z</time>
      </trkpt>
      <trkpt lat="43.30219" lon="5.98135">
        <ele>334.6</ele>
        <time>2024-06-12T07:31:46Z</time>
      </trkpt>
      <trkpt lat="43.30215" lon="5.98137">
        <ele>334.8</ele>
        <time>2024-06-12T07:31:47Z</time>
      </trkpt>
      <trkpt lat="43.3021" lon="5.98141">
        <ele>334.4</ele>
        <time>2024-06-12T07:31:48Z</time>
      </trkpt>
      <trkpt lat="43.30208" lon="5.98142">
        <ele>334.4</ele>
        <time>2024-06-12T07:31:49Z</time>
      </trkpt>
      <trkpt lat="43.30204" lon="5.98145">
        <ele>334.4</ele>
        <time>2024-06-12T07:31:50Z</time>
      </trkpt>
      <trkpt lat="43.30203" lon="5.98146">
        <ele>334.4</ele>
        <time>2024-06-12T07:31:51Z</time>
      </trkpt>
      <trkpt lat="43.30199" lon="5.98148">
        <ele>334.4</ele>
        <time>2024-06-12T07:31:52Z</time>
      </trkpt>
      <trkpt lat="43.30198" lon="5.98149">
        <ele>335</ele>
        <time>2024-06-12T07:31:53Z</time>
      </trkpt>
      <trkpt lat="43.30195" lon="5.98152">
        <ele>335.2</ele>
        <time>2024-06-12T07:31:54Z</time>
      </trkpt>
      <trkpt lat="43.30194" lon="5.98152">
        <ele>335.2</ele>
        <time>2024-06-12T07:31:55Z</time>
      </trkpt>
      <trkpt lat="43.30192" lon="5.98154">
        <ele>335.2</ele>
        <time>2024-06-12T07:31:56Z</time>
      </trkpt>
      <trkpt lat="43.30189" lon="5.98155">
        <ele>335.8</ele>
        <time>2024-06-12T07:31:57Z</time>
      </trkpt>
      <trkpt lat="43.30188" lon="5.98156">
        <ele>336.2</ele>
        <time>2024-06-12T07:31:58Z</time>
      </trkpt>
      <trkpt lat="43.30186" lon="5.98158">
        <ele>336.2</ele>
        <time>2024-06-12T07:31:59Z</time>
      </trkpt>
      <trkpt lat="43.30183" lon="5.9816">
        <ele>336.2</ele>
        <time>2024-06-12T07:32:00Z</time>
      </trkpt>
      <trkpt lat="43.30182" lon="5.98161">
        <ele>336.6</ele>
        <time>2024-06-12T07:32:01Z</time>
      </trkpt>
      <trkpt lat="43.3018" lon="5.98163">
        <ele>336.6</ele>
        <time>2024-06-12T07:32:02Z</time>
      </trkpt>
      <trkpt lat="43.30178" lon="5.98166">
        <ele>337</ele>
        <time>2024-06-12T07:32:03Z</time>
      </trkpt>
      <trkpt lat="43.30177" lon="5.98166">
        <ele>337</ele>
        <time>2024-06-12T07:32:04Z</time>
      </trkpt>
      <trkpt lat="43.30174" lon="5.98169">
        <ele>337</ele>
        <time>2024-06-12T07:32:05Z</time>
      </trkpt>
      <trkpt lat="43.30173" lon="5.9817">
        <ele>338</ele>
        <time>2024-06-12T07:32:06Z</time>
      </trkpt>
      <trkpt lat="43.3017" lon="5.98171">
        <ele>338</ele>
        <time>2024-06-12T07:32:07Z</time>
      </trkpt>
      <trkpt lat="43.30169" lon="5.98172">
        <ele>338.4</ele>
        <time>2024-06-12T07:32:08Z</time>
      </trkpt>
      <trkpt lat="43.30167" lon="5.98174">
        <ele>338.4</ele>
        <time>2024-06-12T07:32:09Z</time>
      </trkpt>
      <trkpt lat="43.30166" lon="5.98175">
        <ele>339.2</ele>
        <time>2024-06-12T07:32:10Z</time>
      </trkpt>
      <trkpt lat="43.30164" lon="5.98176">
        <ele>339.6</ele>
        <time>2024-06-12T07:32:11Z</time>
      </trkpt>
      <trkpt lat="43.30162" lon="5.98178">
        <ele>339.6</ele>
        <time>2024-06-12T07:32:12Z</time>
      </trkpt>
      <trkpt lat="43.30161" lon="5.9818">
        <ele>339.6</ele>
        <time>2024-06-12T07:32:13Z</time>
      </trkpt>
      <trkpt lat="43.30159" lon="5.98182">
        <ele>339.6</ele>
        <time>2024-06-12T07:32:14Z</time>
      </trkpt>
      <trkpt lat="43.30157" lon="5.98184">
        <ele>340.6</ele>
        <time>2024-06-12T07:32:15Z</time>
      </trkpt>
      <trkpt lat="43.30156" lon="5.98185">
        <ele>340.8</ele>
        <time>2024-06-12T07:32:16Z</time>
      </trkpt>
      <trkpt lat="43.30154" lon="5.98186">
        <ele>340.8</ele>
        <time>2024-06-12T07:32:17Z</time>
      </trkpt>
      <trkpt lat="43.30152" lon="5.98187">
        <ele>340.8</ele>
        <time>2024-06-12T07:32:18Z</time>
      </trkpt>
      <trkpt lat="43.30149" lon="5.98189">
        <ele>341.6</ele>
        <time>2024-06-12T07:32:19Z</time>
      </trkpt>
      <trkpt lat="43.30148" lon="5.9819">
        <ele>341.8</ele>
        <time>2024-06-12T07:32:20Z</time>
      </trkpt>
      <trkpt lat="43.30146" lon="5.9819">
        <ele>341.8</ele>
        <time>2024-06-12T07:32:21Z</time>
      </trkpt>
      <trkpt lat="43.30144" lon="5.98191">
        <ele>341.8</ele>
        <time>2024-06-12T07:32:22Z</time>
      </trkpt>
      <trkpt lat="43.30143" lon="5.98192">
        <ele>341.8</ele>
        <time>2024-06-12T07:32:23Z</time>
      </trkpt>
      <trkpt lat="43.30141" lon="5.98192">
        <ele>342.6</ele>
        <time>2024-06-12T07:32:24Z</time>
      </trkpt>
      <trkpt lat="43.30139" lon="5.98193">
        <ele>342.8</ele>
        <time>2024-06-12T07:32:25Z</time>
      </trkpt>
      <trkpt lat="43.30137" lon="5.98193">
        <ele>342.8</ele>
        <time>2024-06-12T07:32:26Z</time>
      </trkpt>
      <trkpt lat="43.30136" lon="5.98194">
        <ele>342.8</ele>
        <time>2024-06-12T07:32:27Z</time>
      </trkpt>
      <trkpt lat="43.30134" lon="5.98195">
        <ele>342.8</ele>
        <time>2024-06-12T07:32:28Z</time>
      </trkpt>
      <trkpt lat="43.30132" lon="5.98196">
        <ele>343.4</ele>
        <time>2024-06-12T07:32:29Z</time>
      </trkpt>
      <trkpt lat="43.3013" lon="5.98197">
        <ele>343.4</ele>
        <time>2024-06-12T07:32:30Z</time>
      </trkpt>
      <trkpt lat="43.30128" lon="5.98197">
        <ele>343.4</ele>
        <time>2024-06-12T07:32:31Z</time>
      </trkpt>
      <trkpt lat="43.30126" lon="5.98198">
        <ele>344</ele>
        <time>2024-06-12T07:32:32Z</time>
      </trkpt>
      <trkpt lat="43.30124" lon="5.98199">
        <ele>344</ele>
        <time>2024-06-12T07:32:33Z</time>
      </trkpt>
      <trkpt lat="43.30121" lon="5.98201">
        <ele>344</ele>
        <time>2024-06-12T07:32:34Z</time>
      </trkpt>
      <trkpt lat="43.3012" lon="5.98201">
        <ele>344</ele>
        <time>2024-06-12T07:32:35Z</time>
      </trkpt>
      <trkpt lat="43.30118" lon="5.98201">
        <ele>344</ele>
        <time>2024-06-12T07:32:36Z</time>
      </trkpt>
      <trkpt lat="43.30116" lon="5.98202">
        <ele>344</ele>
        <time>2024-06-12T07:32:37Z</time>
      </trkpt>
      <trkpt lat="43.30114" lon="5.98202">
        <ele>344.6</ele>
        <time>2024-06-12T07:32:38Z</time>
      </trkpt>
      <trkpt lat="43.30113" lon="5.98203">
        <ele>344.6</ele>
        <time>2024-06-12T07:32:39Z</time>
      </trkpt>
      <trkpt lat="43.30112" lon="5.98204">
        <ele>344.6</ele>
        <time>2024-06-12T07:32:40Z</time>
      </trkpt>
      <trkpt lat="43.30109" lon="5.98205">
        <ele>344.6</ele>
        <time>2024-06-12T07:32:41Z</time>
      </trkpt>
      <trkpt lat="43.30108" lon="5.98205">
        <ele>345</ele>
        <time>2024-06-12T07:32:42Z</time>
      </trkpt>
      <trkpt lat="43.30104" lon="5.98206">
        <ele>345.2</ele>
        <time>2024-06-12T07:32:43Z</time>
      </trkpt>
      <trkpt lat="43.30103" lon="5.98207">
        <ele>345.2</ele>
        <time>2024-06-12T07:32:44Z</time>
      </trkpt>
      <trkpt lat="43.30102" lon="5.98208">
        <ele>345.2</ele>
        <time>2024-06-12T07:32:45Z</time>
      </trkpt>
      <trkpt lat="43.301" lon="5.98209">
        <ele>345.2</ele>
        <time>2024-06-12T07:32:46Z</time>
      </trkpt>
      <trkpt lat="43.30099" lon="5.9821">
        <ele>345.6</ele>
        <time>2024-06-12T07:32:47Z</time>
      </trkpt>
      <trkpt lat="43.30096" lon="5.98211">
        <ele>345.6</ele>
        <time>2024-06-12T07:32:48Z</time>
      </trkpt>
      <trkpt lat="43.30095" lon="5.98212">
        <ele>345.6</ele>
        <time>2024-06-12T07:32:49Z</time>
      </trkpt>
      <trkpt lat="43.30092" lon="5.98212">
        <ele>345.6</ele>
        <time>2024-06-12T07:32:50Z</time>
      </trkpt>
      <trkpt lat="43.30091" lon="5.98213">
        <ele>346.2</ele>
        <time>2024-06-12T07:32:51Z</time>
      </trkpt>
      <trkpt lat="43.30089" lon="5.98213">
        <ele>346.2</ele>
        <time>2024-06-12T07:32:52Z</time>
      </trkpt>
      <trkpt lat="43.30087" lon="5.98214">
        <ele>346.2</ele>
        <time>2024-06-12T07:32:53Z</time>
      </trkpt>
      <trkpt lat="43.30085" lon="5.98215">
        <ele>346.2</ele>
        <time>2024-06-12T07:32:54Z</time>
      </trkpt>
      <trkpt lat="43.30083" lon="5.98216">
        <ele>346.2</ele>
        <time>2024-06-12T07:32:55Z</time>
      </trkpt>
      <trkpt lat="43.30081" lon="5.98217">
        <ele>346.6</ele>
        <time>2024-06-12T07:32:56Z</time>
      </trkpt>
      <trkpt lat="43.30079" lon="5.98217">
        <ele>346.6</ele>
        <time>2024-06-12T07:32:57Z</time>
      </trkpt>
      <trkpt lat="43.30077" lon="5.98218">
        <ele>346.6</ele>
        <time>2024-06-12T07:32:58Z</time>
      </trkpt>
      <trkpt lat="43.30075" lon="5.9822">
        <ele>346.6</ele>
        <time>2024-06-12T07:32:59Z</time>
      </trkpt>
      <trkpt lat="43.30073" lon="5.98221">
        <ele>346.6</ele>
        <time>2024-06-12T07:33:00Z</time>
      </trkpt>
      <trkpt lat="43.30071" lon="5.98222">
        <ele>346.8</ele>
        <time>2024-06-12T07:33:01Z</time>
      </trkpt>
      <trkpt lat="43.30069" lon="5.98223">
        <ele>346.8</ele>
        <time>2024-06-12T07:33:02Z</time>
      </trkpt>
      <trkpt lat="43.30066" lon="5.98226">
        <ele>346.8</ele>
        <time>2024-06-12T07:33:03Z</time>
      </trkpt>
      <trkpt lat="43.30065" lon="5.98226">
        <ele>347.2</ele>
        <time>2024-06-12T07:33:04Z</time>
      </trkpt>
      <trkpt lat="43.30062" lon="5.98228">
        <ele>347.2</ele>
        <time>2024-06-12T07:33:05Z</time>
      </trkpt>
      <trkpt lat="43.3006" lon="5.9823">
        <ele>346.8</ele>
        <time>2024-06-12T07:33:06Z</time>
      </trkpt>
      <trkpt lat="43.30057" lon="5.98232">
        <ele>346.8</ele>
        <time>2024-06-12T07:33:07Z</time>
      </trkpt>
      <trkpt lat="43.30055" lon="5.98236">
        <ele>346.8</ele>
        <time>2024-06-12T07:33:08Z</time>
      </trkpt>
      <trkpt lat="43.30052" lon="5.98239">
        <ele>346.8</ele>
        <time>2024-06-12T07:33:09Z</time>
      </trkpt>
      <trkpt lat="43.30048" lon="5.98243">
        <ele>346.8</ele>
        <time>2024-06-12T07:33:10Z</time>
      </trkpt>
      <trkpt lat="43.30045" lon="5.98248">
        <ele>346.8</ele>
        <time>2024-06-12T07:33:11Z</time>
      </trkpt>
      <trkpt lat="43.30042" lon="5.98253">
        <ele>346.8</ele>
        <time>2024-06-12T07:33:12Z</time>
      </trkpt>
      <trkpt lat="43.30038" lon="5.98257">
        <ele>346.2</ele>
        <time>2024-06-12T07:33:13Z</time>
      </trkpt>
      <trkpt lat="43.30034" lon="5.98261">
        <ele>345.4</ele>
        <time>2024-06-12T07:33:14Z</time>
      </trkpt>
      <trkpt lat="43.30029" lon="5.98267">
        <ele>345.4</ele>
        <time>2024-06-12T07:33:15Z</time>
      </trkpt>
      <trkpt lat="43.30028" lon="5.98269">
        <ele>345.4</ele>
        <time>2024-06-12T07:33:16Z</time>
      </trkpt>
      <trkpt lat="43.30023" lon="5.98277">
        <ele>345.4</ele>
        <time>2024-06-12T07:33:17Z</time>
      </trkpt>
      <trkpt lat="43.30022" lon="5.98279">
        <ele>345.4</ele>
        <time>2024-06-12T07:33:18Z</time>
      </trkpt>
      <trkpt lat="43.30019" lon="5.98283">
        <ele>345</ele>
        <time>2024-06-12T07:33:19Z</time>
      </trkpt>
      <trkpt lat="43.30014" lon="5.9829">
        <ele>345</ele>
        <time>2024-06-12T07:33:20Z</time>
      </trkpt>
      <trkpt lat="43.30012" lon="5.98292">
        <ele>345</ele>
        <time>2024-06-12T07:33:21Z</time>
      </trkpt>
      <trkpt lat="43.30006" lon="5.98298">
        <ele>344</ele>
        <time>2024-06-12T07:33:22Z</time>
      </trkpt>
      <trkpt lat="43.30004" lon="5.983">
        <ele>344</ele>
        <time>2024-06-12T07:33:23Z</time>
      </trkpt>
      <trkpt lat="43.29999" lon="5.98303">
        <ele>342.8</ele>
        <time>2024-06-12T07:33:24Z</time>
      </trkpt>
      <trkpt lat="43.29992" lon="5.98308">
        <ele>342.8</ele>
        <time>2024-06-12T07:33:25Z</time>
      </trkpt>
      <trkpt lat="43.29989" lon="5.9831">
        <ele>342.8</ele>
        <time>2024-06-12T07:33:26Z</time>
      </trkpt>
      <trkpt lat="43.29981" lon="5.98314">
        <ele>341.8</ele>
        <time>2024-06-12T07:33:27Z</time>
      </trkpt>
      <trkpt lat="43.29978" lon="5.98316">
        <ele>340.2</ele>
        <time>2024-06-12T07:33:28Z</time>
      </trkpt>
      <trkpt lat="43.29972" lon="5.9832">
        <ele>340.2</ele>
        <time>2024-06-12T07:33:29Z</time>
      </trkpt>
      <trkpt lat="43.29963" lon="5.98327">
        <ele>340.2</ele>
        <time>2024-06-12T07:33:30Z</time>
      </trkpt>
      <trkpt lat="43.29961" lon="5.9833">
        <ele>339.2</ele>
        <time>2024-06-12T07:33:31Z</time>
      </trkpt>
      <trkpt lat="43.29955" lon="5.98335">
        <ele>337.2</ele>
        <time>2024-06-12T07:33:32Z</time>
      </trkpt>
      <trkpt lat="43.2995" lon="5.9834">
        <ele>337.2</ele>
        <time>2024-06-12T07:33:33Z</time>
      </trkpt>
      <trkpt lat="43.29946" lon="5.98344">
        <ele>337.2</ele>
        <time>2024-06-12T07:33:34Z</time>
      </trkpt>
      <trkpt lat="43.29942" lon="5.98347">
        <ele>337.2</ele>
        <time>2024-06-12T07:33:35Z</time>
      </trkpt>
      <trkpt lat="43.29937" lon="5.9835">
        <ele>336.2</ele>
        <time>2024-06-12T07:33:36Z</time>
      </trkpt>
      <trkpt lat="43.29933" lon="5.98352">
        <ele>334</ele>
        <time>2024-06-12T07:33:37Z</time>
      </trkpt>
      <trkpt lat="43.29927" lon="5.98353">
        <ele>334</ele>
        <time>2024-06-12T07:33:38Z</time>
      </trkpt>
      <trkpt lat="43.2992" lon="5.98354">
        <ele>334</ele>
        <time>2024-06-12T07:33:39Z</time>
      </trkpt>
      <trkpt lat="43.29911" lon="5.98353">
        <ele>333</ele>
        <time>2024-06-12T07:33:40Z</time>
      </trkpt>
      <trkpt lat="43.29908" lon="5.98353">
        <ele>333</ele>
        <time>2024-06-12T07:33:41Z</time>
      </trkpt>
      <trkpt lat="43.299" lon="5.98352">
        <ele>331.8</ele>
        <time>2024-06-12T07:33:42Z</time>
      </trkpt>
      <trkpt lat="43.29897" lon="5.98351">
        <ele>331.8</ele>
        <time>2024-06-12T07:33:43Z</time>
      </trkpt>
      <trkpt lat="43.2989" lon="5.98349">
        <ele>331.8</ele>
        <time>2024-06-12T07:33:44Z</time>
      </trkpt>
      <trkpt lat="43.29888" lon="5.98348">
        <ele>330.8</ele>
        <time>2024-06-12T07:33:45Z</time>
      </trkpt>
      <trkpt lat="43.29884" lon="5.98347">
        <ele>328.4</ele>
        <time>2024-06-12T07:33:46Z</time>
      </trkpt>
      <trkpt lat="43.29879" lon="5.98346">
        <ele>328.4</ele>
        <time>2024-06-12T07:33:47Z</time>
      </trkpt>
      <trkpt lat="43.29876" lon="5.98348">
        <ele>328.4</ele>
        <time>2024-06-12T07:33:48Z</time>
      </trkpt>
      <trkpt lat="43.29874" lon="5.98352">
        <ele>327.4</ele>
        <time>2024-06-12T07:33:49Z</time>
      </trkpt>
      <trkpt lat="43.29873" lon="5.98355">
        <ele>326</ele>
        <time>2024-06-12T07:33:50Z</time>
      </trkpt>
      <trkpt lat="43.29871" lon="5.98359">
        <ele>326</ele>
        <time>2024-06-12T07:33:51Z</time>
      </trkpt>
      <trkpt lat="43.29869" lon="5.98363">
        <ele>326</ele>
        <time>2024-06-12T07:33:52Z</time>
      </trkpt>
      <trkpt lat="43.29866" lon="5.98367">
        <ele>325</ele>
        <time>2024-06-12T07:33:53Z</time>
      </trkpt>
      <trkpt lat="43.29862" lon="5.98371">
        <ele>325</ele>
        <time>2024-06-12T07:33:54Z</time>
      </trkpt>
      <trkpt lat="43.2986" lon="5.98373">
        <ele>323.8</ele>
        <time>2024-06-12T07:33:55Z</time>
      </trkpt>
      <trkpt lat="43.29858" lon="5.98376">
        <ele>323.8</ele>
        <time>2024-06-12T07:33:56Z</time>
      </trkpt>
      <trkpt lat="43.29855" lon="5.98379">
        <ele>323.8</ele>
        <time>2024-06-12T07:33:57Z</time>
      </trkpt>
      <trkpt lat="43.29852" lon="5.98383">
        <ele>323.8</ele>
        <time>2024-06-12T07:33:58Z</time>
      </trkpt>
      <trkpt lat="43.29852" lon="5.98384">
        <ele>322.8</ele>
        <time>2024-06-12T07:33:59Z</time>
      </trkpt>
      <trkpt lat="43.2985" lon="5.98385">
        <ele>322.4</ele>
        <time>2024-06-12T07:34:00Z</time>
      </trkpt>
      <trkpt lat="43.29849" lon="5.98386">
        <ele>322.4</ele>
        <time>2024-06-12T07:34:01Z</time>
      </trkpt>
      <trkpt lat="43.29849" lon="5.98385">
        <ele>322.4</ele>
        <time>2024-06-12T07:34:02Z</time>
      </trkpt>
      <trkpt lat="43.29849" lon="5.98385">
        <ele>322.4</ele>
        <time>2024-06-12T07:34:03Z</time>
      </trkpt>
      <trkpt lat="43.29843" lon="5.98383">
        <ele>315.6</ele>
        <time>2024-06-12T07:36:48Z</time>
      </trkpt>
      <trkpt lat="43.29841" lon="5.98382">
        <ele>315.6</ele>
        <time>2024-06-12T07:36:49Z</time>
      </trkpt>
      <trkpt lat="43.29837" lon="5.98381">
        <ele>315.6</ele>
        <time>2024-06-12T07:36:50Z</time>
      </trkpt>
      <trkpt lat="43.29835" lon="5.9838">
        <ele>315.6</ele>
        <time>2024-06-12T07:36:51Z</time>
      </trkpt>
      <trkpt lat="43.29831" lon="5.98379">
        <ele>315.6</ele>
        <time>2024-06-12T07:36:52Z</time>
      </trkpt>
      <trkpt lat="43.2983" lon="5.98379">
        <ele>315.6</ele>
        <time>2024-06-12T07:36:53Z</time>
      </trkpt>
      <trkpt lat="43.29827" lon="5.98377">
        <ele>315.4</ele>
        <time>2024-06-12T07:36:54Z</time>
      </trkpt>
      <trkpt lat="43.29822" lon="5.98375">
        <ele>315.4</ele>
        <time>2024-06-12T07:36:55Z</time>
      </trkpt>
      <trkpt lat="43.29821" lon="5.98375">
        <ele>315.4</ele>
        <time>2024-06-12T07:36:56Z</time>
      </trkpt>
      <trkpt lat="43.29818" lon="5.98374">
        <ele>315.4</ele>
        <time>2024-06-12T07:36:57Z</time>
      </trkpt>
      <trkpt lat="43.29815" lon="5.98373">
        <ele>315.2</ele>
        <time>2024-06-12T07:36:58Z</time>
      </trkpt>
      <trkpt lat="43.29812" lon="5.98372">
        <ele>315.2</ele>
        <time>2024-06-12T07:36:59Z</time>
      </trkpt>
      <trkpt lat="43.29809" lon="5.98371">
        <ele>315.2</ele>
        <time>2024-06-12T07:37:00Z</time>
      </trkpt>
      <trkpt lat="43.29806" lon="5.9837">
        <ele>315.2</ele>
        <time>2024-06-12T07:37:01Z</time>
      </trkpt>
      <trkpt lat="43.29803" lon="5.98368">
        <ele>315</ele>
        <time>2024-06-12T07:37:02Z</time>
      </trkpt>
      <trkpt lat="43.29799" lon="5.98367">
        <ele>315</ele>
        <time>2024-06-12T07:37:03Z</time>
      </trkpt>
      <trkpt lat="43.29796" lon="5.98366">
        <ele>315</ele>
        <time>2024-06-12T07:37:04Z</time>
      </trkpt>
      <trkpt lat="43.29792" lon="5.98364">
        <ele>315</ele>
        <time>2024-06-12T07:37:05Z</time>
      </trkpt>
      <trkpt lat="43.29788" lon="5.98363">
        <ele>315</ele>
        <time>2024-06-12T07:37:06Z</time>
      </trkpt>
      <trkpt lat="43.29784" lon="5.98361">
        <ele>314.8</ele>
        <time>2024-06-12T07:37:07Z</time>
      </trkpt>
      <trkpt lat="43.2978" lon="5.98359">
        <ele>314.8</ele>
        <time>2024-06-12T07:37:08Z</time>
      </trkpt>
      <trkpt lat="43.29776" lon="5.98357">
        <ele>314.8</ele>
        <time>2024-06-12T07:37:09Z</time>
      </trkpt>
      <trkpt lat="43.29772" lon="5.98356">
        <ele>314.8</ele>
        <time>2024-06-12T07:37:10Z</time>
      </trkpt>
      <trkpt lat="43.29767" lon="5.98354">
        <ele>314.8</ele>
        <time>2024-06-12T07:37:11Z</time>
      </trkpt>
      <trkpt lat="43.29763" lon="5.98352">
        <ele>314.4</ele>
        <time>2024-06-12T07:37:12Z</time>
      </trkpt>
      <trkpt lat="43.29758" lon="5.9835">
        <ele>314.4</ele>
        <time>2024-06-12T07:37:13Z</time>
      </trkpt>
      <trkpt lat="43.29753" lon="5.98348">
        <ele>314.4</ele>
        <time>2024-06-12T07:37:14Z</time>
      </trkpt>
      <trkpt lat="43.29749" lon="5.98346">
        <ele>314.6</ele>
        <time>2024-06-12T07:37:15Z</time>
      </trkpt>
      <trkpt lat="43.29744" lon="5.98344">
        <ele>314.6</ele>
        <time>2024-06-12T07:37:16Z</time>
      </trkpt>
      <trkpt lat="43.29739" lon="5.98342">
        <ele>314.6</ele>
        <time>2024-06-12T07:37:17Z</time>
      </trkpt>
      <trkpt lat="43.29734" lon="5.9834">
        <ele>314.6</ele>
        <time>2024-06-12T07:37:18Z</time>
      </trkpt>
      <trkpt lat="43.2973" lon="5.98338">
        <ele>314.6</ele>
        <time>2024-06-12T07:37:19Z</time>
      </trkpt>
      <trkpt lat="43.29725" lon="5.98336">
        <ele>314.6</ele>
        <time>2024-06-12T07:37:20Z</time>
      </trkpt>
      <trkpt lat="43.29717" lon="5.98333">
        <ele>314.6</ele>
        <time>2024-06-12T07:37:21Z</time>
      </trkpt>
      <trkpt lat="43.29715" lon="5.98332">
        <ele>314.6</ele>
        <time>2024-06-12T07:37:22Z</time>
      </trkpt>
      <trkpt lat="43.2971" lon="5.9833">
        <ele>314.6</ele>
        <time>2024-06-12T07:37:23Z</time>
      </trkpt>
      <trkpt lat="43.29705" lon="5.98328">
        <ele>314.6</ele>
        <time>2024-06-12T07:37:24Z</time>
      </trkpt>
      <trkpt lat="43.297" lon="5.98326">
        <ele>314.4</ele>
        <time>2024-06-12T07:37:25Z</time>
      </trkpt>
      <trkpt lat="43.29695" lon="5.98324">
        <ele>314.4</ele>
        <time>2024-06-12T07:37:26Z</time>
      </trkpt>
      <trkpt lat="43.29689" lon="5.98322">
        <ele>314.4</ele>
        <time>2024-06-12T07:37:27Z</time>
      </trkpt>
      <trkpt lat="43.29682" lon="5.98318">
        <ele>314.4</ele>
        <time>2024-06-12T07:37:28Z</time>
      </trkpt>
      <trkpt lat="43.29679" lon="5.98317">
        <ele>314.6</ele>
        <time>2024-06-12T07:37:29Z</time>
      </trkpt>
      <trkpt lat="43.29674" lon="5.98315">
        <ele>314.6</ele>
        <time>2024-06-12T07:37:30Z</time>
      </trkpt>
      <trkpt lat="43.29666" lon="5.98312">
        <ele>314.6</ele>
        <time>2024-06-12T07:37:31Z</time>
      </trkpt>
      <trkpt lat="43.29663" lon="5.98311">
        <ele>314.6</ele>
        <time>2024-06-12T07:37:32Z</time>
      </trkpt>
      <trkpt lat="43.29655" lon="5.98308">
        <ele>314.6</ele>
        <time>2024-06-12T07:37:33Z</time>
      </trkpt>
      <trkpt lat="43.29653" lon="5.98307">
        <ele>314.6</ele>
        <time>2024-06-12T07:37:34Z</time>
      </trkpt>
      <trkpt lat="43.29644" lon="5.98304">
        <ele>314.6</ele>
        <time>2024-06-12T07:37:35Z</time>
      </trkpt>
      <trkpt lat="43.29641" lon="5.98303">
        <ele>314.6</ele>
        <time>2024-06-12T07:37:36Z</time>
      </trkpt>
      <trkpt lat="43.29636" lon="5.98301">
        <ele>314.6</ele>
        <time>2024-06-12T07:37:37Z</time>
      </trkpt>
      <trkpt lat="43.29627" lon="5.98298">
        <ele>314.2</ele>
        <time>2024-06-12T07:37:38Z</time>
      </trkpt>
      <trkpt lat="43.29624" lon="5.98297">
        <ele>314.4</ele>
        <time>2024-06-12T07:37:39Z</time>
      </trkpt>
      <trkpt lat="43.29617" lon="5.98295">
        <ele>314.4</ele>
        <time>2024-06-12T07:37:40Z</time>
      </trkpt>
      <trkpt lat="43.29611" lon="5.98292">
        <ele>314.4</ele>
        <time>2024-06-12T07:37:41Z</time>
      </trkpt>
      <trkpt lat="43.29604" lon="5.9829">
        <ele>314.4</ele>
        <time>2024-06-12T07:37:42Z</time>
      </trkpt>
      <trkpt lat="43.29597" lon="5.98288">
        <ele>313.8</ele>
        <time>2024-06-12T07:37:43Z</time>
      </trkpt>
      <trkpt lat="43.2959" lon="5.98286">
        <ele>313.8</ele>
        <time>2024-06-12T07:37:44Z</time>
      </trkpt>
      <trkpt lat="43.2958" lon="5.98282">
        <ele>313.8</ele>
        <time>2024-06-12T07:37:45Z</time>
      </trkpt>
      <trkpt lat="43.29576" lon="5.98281">
        <ele>313.8</ele>
        <time>2024-06-12T07:37:46Z</time>
      </trkpt>
      <trkpt lat="43.29569" lon="5.98279">
        <ele>313</ele>
        <time>2024-06-12T07:37:47Z</time>
      </trkpt>
      <trkpt lat="43.29561" lon="5.98276">
        <ele>312.8</ele>
        <time>2024-06-12T07:37:48Z</time>
      </trkpt>
      <trkpt lat="43.29554" lon="5.98274">
        <ele>312.8</ele>
        <time>2024-06-12T07:37:49Z</time>
      </trkpt>
      <trkpt lat="43.29546" lon="5.98271">
        <ele>312.8</ele>
        <time>2024-06-12T07:37:50Z</time>
      </trkpt>
      <trkpt lat="43.29538" lon="5.98268">
        <ele>312.8</ele>
        <time>2024-06-12T07:37:51Z</time>
      </trkpt>
      <trkpt lat="43.29527" lon="5.98265">
        <ele>312.4</ele>
        <time>2024-06-12T07:37:52Z</time>
      </trkpt>
      <trkpt lat="43.29523" lon="5.98264">
        <ele>312.4</ele>
        <time>2024-06-12T07:37:53Z</time>
      </trkpt>
      <trkpt lat="43.29515" lon="5.98261">
        <ele>312.4</ele>
        <time>2024-06-12T07:37:54Z</time>
      </trkpt>
      <trkpt lat="43.29507" lon="5.98259">
        <ele>312</ele>
        <time>2024-06-12T07:37:55Z</time>
      </trkpt>
      <trkpt lat="43.295" lon="5.98256">
        <ele>312</ele>
        <time>2024-06-12T07:37:56Z</time>
      </trkpt>
      <trkpt lat="43.29492" lon="5.98254">
        <ele>312</ele>
        <time>2024-06-12T07:37:57Z</time>
      </trkpt>
      <trkpt lat="43.29484" lon="5.98251">
        <ele>312</ele>
        <time>2024-06-12T07:37:58Z</time>
      </trkpt>
      <trkpt lat="43.29476" lon="5.98249">
        <ele>312</ele>
        <time>2024-06-12T07:37:59Z</time>
      </trkpt>
      <trkpt lat="43.29468" lon="5.98246">
        <ele>312</ele>
        <time>2024-06-12T07:38:00Z</time>
      </trkpt>
      <trkpt lat="43.2946" lon="5.98244">
        <ele>311.2</ele>
        <time>2024-06-12T07:38:01Z</time>
      </trkpt>
      <trkpt lat="43.29451" lon="5.98242">
        <ele>311.2</ele>
        <time>2024-06-12T07:38:02Z</time>
      </trkpt>
      <trkpt lat="43.29443" lon="5.98241">
        <ele>311.2</ele>
        <time>2024-06-12T07:38:03Z</time>
      </trkpt>
      <trkpt lat="43.2943" lon="5.98239">
        <ele>311.2</ele>
        <time>2024-06-12T07:38:04Z</time>
      </trkpt>
      <trkpt lat="43.29426" lon="5.98238">
        <ele>311.2</ele>
        <time>2024-06-12T07:38:05Z</time>
      </trkpt>
      <trkpt lat="43.29413" lon="5.98237">
        <ele>310.8</ele>
        <time>2024-06-12T07:38:06Z</time>
      </trkpt>
      <trkpt lat="43.29409" lon="5.98236">
        <ele>310.8</ele>
        <time>2024-06-12T07:38:07Z</time>
      </trkpt>
      <trkpt lat="43.29401" lon="5.98236">
        <ele>310.8</ele>
        <time>2024-06-12T07:38:08Z</time>
      </trkpt>
      <trkpt lat="43.29393" lon="5.98236">
        <ele>310.8</ele>
        <time>2024-06-12T07:38:09Z</time>
      </trkpt>
      <trkpt lat="43.29384" lon="5.98236">
        <ele>310.4</ele>
        <time>2024-06-12T07:38:10Z</time>
      </trkpt>
      <trkpt lat="43.29371" lon="5.98238">
        <ele>310.2</ele>
        <time>2024-06-12T07:38:11Z</time>
      </trkpt>
      <trkpt lat="43.29367" lon="5.98239">
        <ele>310.2</ele>
        <time>2024-06-12T07:38:12Z</time>
      </trkpt>
      <trkpt lat="43.29357" lon="5.98241">
        <ele>310.2</ele>
        <time>2024-06-12T07:38:13Z</time>
      </trkpt>
      <trkpt lat="43.29343" lon="5.98244">
        <ele>310.2</ele>
        <time>2024-06-12T07:38:14Z</time>
      </trkpt>
      <trkpt lat="43.29338" lon="5.98244">
        <ele>308.8</ele>
        <time>2024-06-12T07:38:15Z</time>
      </trkpt>
      <trkpt lat="43.29324" lon="5.98246">
        <ele>308.8</ele>
        <time>2024-06-12T07:38:16Z</time>
      </trkpt>
      <trkpt lat="43.29319" lon="5.98246">
        <ele>308.8</ele>
        <time>2024-06-12T07:38:17Z</time>
      </trkpt>
      <trkpt lat="43.2931" lon="5.98247">
        <ele>308.8</ele>
        <time>2024-06-12T07:38:18Z</time>
      </trkpt>
      <trkpt lat="43.293" lon="5.98247">
        <ele>308.4</ele>
        <time>2024-06-12T07:38:19Z</time>
      </trkpt>
      <trkpt lat="43.29291" lon="5.98246">
        <ele>308.4</ele>
        <time>2024-06-12T07:38:20Z</time>
      </trkpt>
      <trkpt lat="43.29283" lon="5.98245">
        <ele>308.4</ele>
        <time>2024-06-12T07:38:21Z</time>
      </trkpt>
      <trkpt lat="43.29274" lon="5.98243">
        <ele>308.4</ele>
        <time>2024-06-12T07:38:22Z</time>
      </trkpt>
      <trkpt lat="43.29265" lon="5.98241">
        <ele>307.6</ele>
        <time>2024-06-12T07:38:23Z</time>
      </trkpt>
      <trkpt lat="43.29252" lon="5.98237">
        <ele>306.4</ele>
        <time>2024-06-12T07:38:24Z</time>
      </trkpt>
      <trkpt lat="43.29248" lon="5.98236">
        <ele>306.4</ele>
        <time>2024-06-12T07:38:25Z</time>
      </trkpt>
      <trkpt lat="43.29239" lon="5.98233">
        <ele>306.4</ele>
        <time>2024-06-12T07:38:26Z</time>
      </trkpt>
      <trkpt lat="43.29231" lon="5.98229">
        <ele>306</ele>
        <time>2024-06-12T07:38:27Z</time>
      </trkpt>
      <trkpt lat="43.29222" lon="5.98224">
        <ele>305.8</ele>
        <time>2024-06-12T07:38:28Z</time>
      </trkpt>
      <trkpt lat="43.29214" lon="5.98219">
        <ele>305.8</ele>
        <time>2024-06-12T07:38:29Z</time>
      </trkpt>
      <trkpt lat="43.29206" lon="5.98212">
        <ele>305.8</ele>
        <time>2024-06-12T07:38:30Z</time>
      </trkpt>
      <trkpt lat="43.29198" lon="5.98205">
        <ele>305</ele>
        <time>2024-06-12T07:38:31Z</time>
      </trkpt>
      <trkpt lat="43.2919" lon="5.98198">
        <ele>304.8</ele>
        <time>2024-06-12T07:38:32Z</time>
      </trkpt>
      <trkpt lat="43.29183" lon="5.98191">
        <ele>304.8</ele>
        <time>2024-06-12T07:38:33Z</time>
      </trkpt>
      <trkpt lat="43.29175" lon="5.98183">
        <ele>304.8</ele>
        <time>2024-06-12T07:38:34Z</time>
      </trkpt>
      <trkpt lat="43.29167" lon="5.98176">
        <ele>304.8</ele>
        <time>2024-06-12T07:38:35Z</time>
      </trkpt>
      <trkpt lat="43.29159" lon="5.98169">
        <ele>304.8</ele>
        <time>2024-06-12T07:38:36Z</time>
      </trkpt>
      <trkpt lat="43.29151" lon="5.98162">
        <ele>304.4</ele>
        <time>2024-06-12T07:38:37Z</time>
      </trkpt>
      <trkpt lat="43.29143" lon="5.98156">
        <ele>304.4</ele>
        <time>2024-06-12T07:38:38Z</time>
      </trkpt>
      <trkpt lat="43.29136" lon="5.98148">
        <ele>304.4</ele>
        <time>2024-06-12T07:38:39Z</time>
      </trkpt>
      <trkpt lat="43.29129" lon="5.9814">
        <ele>304.4</ele>
        <time>2024-06-12T07:38:40Z</time>
      </trkpt>
      <trkpt lat="43.29123" lon="5.98131">
        <ele>303.8</ele>
        <time>2024-06-12T07:38:41Z</time>
      </trkpt>
      <trkpt lat="43.29113" lon="5.98118">
        <ele>303.8</ele>
        <time>2024-06-12T07:38:42Z</time>
      </trkpt>
      <trkpt lat="43.2911" lon="5.98114">
        <ele>303.8</ele>
        <time>2024-06-12T07:38:43Z</time>
      </trkpt>
      <trkpt lat="43.29104" lon="5.98106">
        <ele>303.2</ele>
        <time>2024-06-12T07:38:44Z</time>
      </trkpt>
      <trkpt lat="43.29098" lon="5.98098">
        <ele>303</ele>
        <time>2024-06-12T07:38:45Z</time>
      </trkpt>
      <trkpt lat="43.29091" lon="5.9809">
        <ele>303</ele>
        <time>2024-06-12T07:38:46Z</time>
      </trkpt>
      <trkpt lat="43.29084" lon="5.98082">
        <ele>303</ele>
        <time>2024-06-12T07:38:47Z</time>
      </trkpt>
      <trkpt lat="43.29073" lon="5.9807">
        <ele>303</ele>
        <time>2024-06-12T07:38:48Z</time>
      </trkpt>
      <trkpt lat="43.2907" lon="5.98066">
        <ele>303</ele>
        <time>2024-06-12T07:38:49Z</time>
      </trkpt>
      <trkpt lat="43.29062" lon="5.98059">
        <ele>302.4</ele>
        <time>2024-06-12T07:38:50Z</time>
      </trkpt>
      <trkpt lat="43.29056" lon="5.98051">
        <ele>302.2</ele>
        <time>2024-06-12T07:38:51Z</time>
      </trkpt>
      <trkpt lat="43.29045" lon="5.98039">
        <ele>302.2</ele>
        <time>2024-06-12T07:38:52Z</time>
      </trkpt>
      <trkpt lat="43.29041" lon="5.98036">
        <ele>302.2</ele>
        <time>2024-06-12T07:38:53Z</time>
      </trkpt>
      <trkpt lat="43.29031" lon="5.98025">
        <ele>301.6</ele>
        <time>2024-06-12T07:38:54Z</time>
      </trkpt>
      <trkpt lat="43.29027" lon="5.98021">
        <ele>301.6</ele>
        <time>2024-06-12T07:38:55Z</time>
      </trkpt>
      <trkpt lat="43.2902" lon="5.98014">
        <ele>301.6</ele>
        <time>2024-06-12T07:38:56Z</time>
      </trkpt>
      <trkpt lat="43.29009" lon="5.98004">
        <ele>301.6</ele>
        <time>2024-06-12T07:38:57Z</time>
      </trkpt>
      <trkpt lat="43.29006" lon="5.98001">
        <ele>301.2</ele>
        <time>2024-06-12T07:38:58Z</time>
      </trkpt>
      <trkpt lat="43.28995" lon="5.97991">
        <ele>301</ele>
        <time>2024-06-12T07:38:59Z</time>
      </trkpt>
      <trkpt lat="43.28992" lon="5.97988">
        <ele>301</ele>
        <time>2024-06-12T07:39:00Z</time>
      </trkpt>
      <trkpt lat="43.28981" lon="5.9798">
        <ele>301</ele>
        <time>2024-06-12T07:39:01Z</time>
      </trkpt>
      <trkpt lat="43.28977" lon="5.97977">
        <ele>300.6</ele>
        <time>2024-06-12T07:39:02Z</time>
      </trkpt>
      <trkpt lat="43.28969" lon="5.97972">
        <ele>300.6</ele>
        <time>2024-06-12T07:39:03Z</time>
      </trkpt>
      <trkpt lat="43.28962" lon="5.97967">
        <ele>300.8</ele>
        <time>2024-06-12T07:39:04Z</time>
      </trkpt>
      <trkpt lat="43.28954" lon="5.97962">
        <ele>300.8</ele>
        <time>2024-06-12T07:39:05Z</time>
      </trkpt>
      <trkpt lat="43.28947" lon="5.97956">
        <ele>300.8</ele>
        <time>2024-06-12T07:39:06Z</time>
      </trkpt>
      <trkpt lat="43.28939" lon="5.97951">
        <ele>300.8</ele>
        <time>2024-06-12T07:39:07Z</time>
      </trkpt>
      <trkpt lat="43.28932" lon="5.97945">
        <ele>300</ele>
        <time>2024-06-12T07:39:08Z</time>
      </trkpt>
      <trkpt lat="43.28924" lon="5.97939">
        <ele>300</ele>
        <time>2024-06-12T07:39:09Z</time>
      </trkpt>
      <trkpt lat="43.28917" lon="5.97933">
        <ele>300</ele>
        <time>2024-06-12T07:39:10Z</time>
      </trkpt>
      <trkpt lat="43.28909" lon="5.97928">
        <ele>300</ele>
        <time>2024-06-12T07:39:11Z</time>
      </trkpt>
      <trkpt lat="43.28901" lon="5.97922">
        <ele>299.2</ele>
        <time>2024-06-12T07:39:12Z</time>
      </trkpt>
      <trkpt lat="43.28893" lon="5.97917">
        <ele>299.2</ele>
        <time>2024-06-12T07:39:13Z</time>
      </trkpt>
      <trkpt lat="43.28885" lon="5.97911">
        <ele>299.2</ele>
        <time>2024-06-12T07:39:14Z</time>
      </trkpt>
      <trkpt lat="43.28877" lon="5.97905">
        <ele>299.2</ele>
        <time>2024-06-12T07:39:15Z</time>
      </trkpt>
      <trkpt lat="43.2887" lon="5.97899">
        <ele>298.2</ele>
        <time>2024-06-12T07:39:16Z</time>
      </trkpt>
      <trkpt lat="43.28858" lon="5.97889">
        <ele>298</ele>
        <time>2024-06-12T07:39:17Z</time>
      </trkpt>
      <trkpt lat="43.28854" lon="5.97885">
        <ele>298</ele>
        <time>2024-06-12T07:39:18Z</time>
      </trkpt>
      <trkpt lat="43.28847" lon="5.97878">
        <ele>298</ele>
        <time>2024-06-12T07:39:19Z</time>
      </trkpt>
      <trkpt lat="43.2884" lon="5.9787">
        <ele>297</ele>
        <time>2024-06-12T07:39:20Z</time>
      </trkpt>
      <trkpt lat="43.28832" lon="5.97862">
        <ele>296.4</ele>
        <time>2024-06-12T07:39:21Z</time>
      </trkpt>
      <trkpt lat="43.28826" lon="5.97853">
        <ele>296.4</ele>
        <time>2024-06-12T07:39:22Z</time>
      </trkpt>
      <trkpt lat="43.28819" lon="5.97843">
        <ele>296.4</ele>
        <time>2024-06-12T07:39:23Z</time>
      </trkpt>
      <trkpt lat="43.2881" lon="5.97828">
        <ele>295.4</ele>
        <time>2024-06-12T07:39:24Z</time>
      </trkpt>
      <trkpt lat="43.28806" lon="5.97823">
        <ele>295.4</ele>
        <time>2024-06-12T07:39:25Z</time>
      </trkpt>
      <trkpt lat="43.288" lon="5.97812">
        <ele>295.4</ele>
        <time>2024-06-12T07:39:26Z</time>
      </trkpt>
      <trkpt lat="43.28794" lon="5.97802">
        <ele>295.4</ele>
        <time>2024-06-12T07:39:27Z</time>
      </trkpt>
      <trkpt lat="43.28785" lon="5.97787">
        <ele>295.4</ele>
        <time>2024-06-12T07:39:28Z</time>
      </trkpt>
      <trkpt lat="43.28782" lon="5.97781">
        <ele>295.4</ele>
        <time>2024-06-12T07:39:29Z</time>
      </trkpt>
      <trkpt lat="43.28773" lon="5.97765">
        <ele>294.4</ele>
        <time>2024-06-12T07:39:30Z</time>
      </trkpt>
      <trkpt lat="43.2877" lon="5.9776">
        <ele>293.6</ele>
        <time>2024-06-12T07:39:31Z</time>
      </trkpt>
      <trkpt lat="43.28761" lon="5.97744">
        <ele>293.6</ele>
        <time>2024-06-12T07:39:32Z</time>
      </trkpt>
      <trkpt lat="43.28758" lon="5.97738">
        <ele>293.6</ele>
        <time>2024-06-12T07:39:33Z</time>
      </trkpt>
      <trkpt lat="43.28752" lon="5.97727">
        <ele>292.6</ele>
        <time>2024-06-12T07:39:34Z</time>
      </trkpt>
      <trkpt lat="43.28743" lon="5.97712">
        <ele>292.6</ele>
        <time>2024-06-12T07:39:35Z</time>
      </trkpt>
      <trkpt lat="43.2874" lon="5.97707">
        <ele>291.6</ele>
        <time>2024-06-12T07:39:36Z</time>
      </trkpt>
      <trkpt lat="43.28731" lon="5.97692">
        <ele>291.6</ele>
        <time>2024-06-12T07:39:37Z</time>
      </trkpt>
      <trkpt lat="43.28728" lon="5.97687">
        <ele>290.6</ele>
        <time>2024-06-12T07:39:38Z</time>
      </trkpt>
      <trkpt lat="43.28718" lon="5.97673">
        <ele>289.8</ele>
        <time>2024-06-12T07:39:39Z</time>
      </trkpt>
      <trkpt lat="43.28715" lon="5.97669">
        <ele>289.8</ele>
        <time>2024-06-12T07:39:40Z</time>
      </trkpt>
      <trkpt lat="43.28708" lon="5.9766">
        <ele>289.8</ele>
        <time>2024-06-12T07:39:41Z</time>
      </trkpt>
      <trkpt lat="43.28701" lon="5.97653">
        <ele>289.8</ele>
        <time>2024-06-12T07:39:42Z</time>
      </trkpt>
      <trkpt lat="43.28694" lon="5.97646">
        <ele>289</ele>
        <time>2024-06-12T07:39:43Z</time>
      </trkpt>
      <trkpt lat="43.28687" lon="5.97638">
        <ele>288.2</ele>
        <time>2024-06-12T07:39:44Z</time>
      </trkpt>
      <trkpt lat="43.2868" lon="5.97631">
        <ele>288.2</ele>
        <time>2024-06-12T07:39:45Z</time>
      </trkpt>
      <trkpt lat="43.28673" lon="5.97624">
        <ele>288.2</ele>
        <time>2024-06-12T07:39:46Z</time>
      </trkpt>
      <trkpt lat="43.28665" lon="5.97617">
        <ele>288.2</ele>
        <time>2024-06-12T07:39:47Z</time>
      </trkpt>
      <trkpt lat="43.28658" lon="5.9761">
        <ele>287.2</ele>
        <time>2024-06-12T07:39:48Z</time>
      </trkpt>
      <trkpt lat="43.28651" lon="5.97603">
        <ele>287.2</ele>
        <time>2024-06-12T07:39:49Z</time>
      </trkpt>
      <trkpt lat="43.28644" lon="5.97596">
        <ele>287.2</ele>
        <time>2024-06-12T07:39:50Z</time>
      </trkpt>
      <trkpt lat="43.28638" lon="5.9759">
        <ele>286.4</ele>
        <time>2024-06-12T07:39:51Z</time>
      </trkpt>
      <trkpt lat="43.28631" lon="5.97583">
        <ele>286.4</ele>
        <time>2024-06-12T07:39:52Z</time>
      </trkpt>
      <trkpt lat="43.28625" lon="5.97576">
        <ele>286.2</ele>
        <time>2024-06-12T07:39:53Z</time>
      </trkpt>
      <trkpt lat="43.2862" lon="5.97568">
        <ele>286.2</ele>
        <time>2024-06-12T07:39:54Z</time>
      </trkpt>
      <trkpt lat="43.28614" lon="5.97559">
        <ele>286.2</ele>
        <time>2024-06-12T07:39:55Z</time>
      </trkpt>
      <trkpt lat="43.28609" lon="5.97551">
        <ele>285.8</ele>
        <time>2024-06-12T07:39:56Z</time>
      </trkpt>
      <trkpt lat="43.28604" lon="5.97542">
        <ele>285.4</ele>
        <time>2024-06-12T07:39:57Z</time>
      </trkpt>
      <trkpt lat="43.28599" lon="5.97534">
        <ele>285.4</ele>
        <time>2024-06-12T07:39:58Z</time>
      </trkpt>
      <trkpt lat="43.28591" lon="5.97521">
        <ele>285.4</ele>
        <time>2024-06-12T07:39:59Z</time>
      </trkpt>
      <trkpt lat="43.28588" lon="5.97516">
        <ele>285</ele>
        <time>2024-06-12T07:40:00Z</time>
      </trkpt>
      <trkpt lat="43.28583" lon="5.97508">
        <ele>285</ele>
        <time>2024-06-12T07:40:01Z</time>
      </trkpt>
      <trkpt lat="43.28578" lon="5.97499">
        <ele>284.2</ele>
        <time>2024-06-12T07:40:02Z</time>
      </trkpt>
      <trkpt lat="43.28573" lon="5.9749">
        <ele>284.2</ele>
        <time>2024-06-12T07:40:03Z</time>
      </trkpt>
      <trkpt lat="43.28567" lon="5.97481">
        <ele>284.2</ele>
        <time>2024-06-12T07:40:04Z</time>
      </trkpt>
      <trkpt lat="43.28562" lon="5.97472">
        <ele>284.2</ele>
        <time>2024-06-12T07:40:05Z</time>
      </trkpt>
      <trkpt lat="43.28556" lon="5.97463">
        <ele>283.8</ele>
        <time>2024-06-12T07:40:06Z</time>
      </trkpt>
      <trkpt lat="43.28551" lon="5.97453">
        <ele>283.8</ele>
        <time>2024-06-12T07:40:07Z</time>
      </trkpt>
      <trkpt lat="43.28546" lon="5.97444">
        <ele>283.8</ele>
        <time>2024-06-12T07:40:08Z</time>
      </trkpt>
      <trkpt lat="43.28541" lon="5.97435">
        <ele>283.8</ele>
        <time>2024-06-12T07:40:09Z</time>
      </trkpt>
      <trkpt lat="43.28536" lon="5.97425">
        <ele>283.2</ele>
        <time>2024-06-12T07:40:10Z</time>
      </trkpt>
      <trkpt lat="43.28532" lon="5.97416">
        <ele>283.2</ele>
        <time>2024-06-12T07:40:11Z</time>
      </trkpt>
      <trkpt lat="43.28526" lon="5.97407">
        <ele>283.2</ele>
        <time>2024-06-12T07:40:12Z</time>
      </trkpt>
      <trkpt lat="43.28521" lon="5.97398">
        <ele>283.2</ele>
        <time>2024-06-12T07:40:13Z</time>
      </trkpt>
      <trkpt lat="43.28514" lon="5.97385">
        <ele>282.8</ele>
        <time>2024-06-12T07:40:14Z</time>
      </trkpt>
      <trkpt lat="43.28511" lon="5.97381">
        <ele>282.8</ele>
        <time>2024-06-12T07:40:15Z</time>
      </trkpt>
      <trkpt lat="43.28506" lon="5.97372">
        <ele>282.8</ele>
        <time>2024-06-12T07:40:16Z</time>
      </trkpt>
      <trkpt lat="43.28501" lon="5.97364">
        <ele>282.8</ele>
        <time>2024-06-12T07:40:17Z</time>
      </trkpt>
      <trkpt lat="43.28496" lon="5.97356">
        <ele>282.8</ele>
        <time>2024-06-12T07:40:18Z</time>
      </trkpt>
      <trkpt lat="43.28491" lon="5.97349">
        <ele>282</ele>
        <time>2024-06-12T07:40:19Z</time>
      </trkpt>
      <trkpt lat="43.28484" lon="5.97337">
        <ele>282</ele>
        <time>2024-06-12T07:40:20Z</time>
      </trkpt>
      <trkpt lat="43.28482" lon="5.97334">
        <ele>282</ele>
        <time>2024-06-12T07:40:21Z</time>
      </trkpt>
      <trkpt lat="43.28477" lon="5.97327">
        <ele>282</ele>
        <time>2024-06-12T07:40:22Z</time>
      </trkpt>
      <trkpt lat="43.2847" lon="5.97316">
        <ele>281.6</ele>
        <time>2024-06-12T07:40:23Z</time>
      </trkpt>
      <trkpt lat="43.28467" lon="5.97312">
        <ele>281.4</ele>
        <time>2024-06-12T07:40:24Z</time>
      </trkpt>
      <trkpt lat="43.2846" lon="5.97301">
        <ele>281.4</ele>
        <time>2024-06-12T07:40:25Z</time>
      </trkpt>
      <trkpt lat="43.28458" lon="5.97297">
        <ele>281.4</ele>
        <time>2024-06-12T07:40:26Z</time>
      </trkpt>
      <trkpt lat="43.28453" lon="5.97288">
        <ele>281</ele>
        <time>2024-06-12T07:40:27Z</time>
      </trkpt>
      <trkpt lat="43.28446" lon="5.97275">
        <ele>280.8</ele>
        <time>2024-06-12T07:40:28Z</time>
      </trkpt>
      <trkpt lat="43.28444" lon="5.97271">
        <ele>280.8</ele>
        <time>2024-06-12T07:40:29Z</time>
      </trkpt>
      <trkpt lat="43.28439" lon="5.97262">
        <ele>280.8</ele>
        <time>2024-06-12T07:40:30Z</time>
      </trkpt>
      <trkpt lat="43.28432" lon="5.97251">
        <ele>280.8</ele>
        <time>2024-06-12T07:40:31Z</time>
      </trkpt>
      <trkpt lat="43.2843" lon="5.97247">
        <ele>280.2</ele>
        <time>2024-06-12T07:40:32Z</time>
      </trkpt>
      <trkpt lat="43.28425" lon="5.97241">
        <ele>280</ele>
        <time>2024-06-12T07:40:33Z</time>
      </trkpt>
      <trkpt lat="43.2842" lon="5.97233">
        <ele>280</ele>
        <time>2024-06-12T07:40:34Z</time>
      </trkpt>
      <trkpt lat="43.28416" lon="5.97226">
        <ele>280</ele>
        <time>2024-06-12T07:40:35Z</time>
      </trkpt>
      <trkpt lat="43.28411" lon="5.97218">
        <ele>280</ele>
        <time>2024-06-12T07:40:36Z</time>
      </trkpt>
      <trkpt lat="43.28407" lon="5.97211">
        <ele>279.2</ele>
        <time>2024-06-12T07:40:37Z</time>
      </trkpt>
      <trkpt lat="43.28403" lon="5.97203">
        <ele>279.2</ele>
        <time>2024-06-12T07:40:38Z</time>
      </trkpt>
      <trkpt lat="43.28399" lon="5.97196">
        <ele>279.2</ele>
        <time>2024-06-12T07:40:39Z</time>
      </trkpt>
      <trkpt lat="43.28394" lon="5.97189">
        <ele>279</ele>
        <time>2024-06-12T07:40:40Z</time>
      </trkpt>
      <trkpt lat="43.2839" lon="5.97182">
        <ele>278.6</ele>
        <time>2024-06-12T07:40:41Z</time>
      </trkpt>
      <trkpt lat="43.28386" lon="5.97176">
        <ele>278.6</ele>
        <time>2024-06-12T07:40:42Z</time>
      </trkpt>
      <trkpt lat="43.28381" lon="5.97169">
        <ele>278.6</ele>
        <time>2024-06-12T07:40:43Z</time>
      </trkpt>
      <trkpt lat="43.28376" lon="5.97163">
        <ele>278.6</ele>
        <time>2024-06-12T07:40:44Z</time>
      </trkpt>
      <trkpt lat="43.28371" lon="5.97157">
        <ele>278.6</ele>
        <time>2024-06-12T07:40:45Z</time>
      </trkpt>
      <trkpt lat="43.28367" lon="5.97151">
        <ele>278.2</ele>
        <time>2024-06-12T07:40:46Z</time>
      </trkpt>
      <trkpt lat="43.28362" lon="5.97145">
        <ele>278.2</ele>
        <time>2024-06-12T07:40:47Z</time>
      </trkpt>
      <trkpt lat="43.28358" lon="5.97139">
        <ele>278.2</ele>
        <time>2024-06-12T07:40:48Z</time>
      </trkpt>
      <trkpt lat="43.28353" lon="5.97133">
        <ele>277.8</ele>
        <time>2024-06-12T07:40:49Z</time>
      </trkpt>
      <trkpt lat="43.28349" lon="5.97127">
        <ele>277.6</ele>
        <time>2024-06-12T07:40:50Z</time>
      </trkpt>
      <trkpt lat="43.28344" lon="5.97122">
        <ele>277.6</ele>
        <time>2024-06-12T07:40:51Z</time>
      </trkpt>
      <trkpt lat="43.28337" lon="5.97114">
        <ele>277.6</ele>
        <time>2024-06-12T07:40:52Z</time>
      </trkpt>
      <trkpt lat="43.28335" lon="5.97111">
        <ele>277.2</ele>
        <time>2024-06-12T07:40:53Z</time>
      </trkpt>
      <trkpt lat="43.28328" lon="5.97104">
        <ele>277.2</ele>
        <time>2024-06-12T07:40:54Z</time>
      </trkpt>
      <trkpt lat="43.28325" lon="5.97101">
        <ele>277.2</ele>
        <time>2024-06-12T07:40:55Z</time>
      </trkpt>
      <trkpt lat="43.28317" lon="5.97094">
        <ele>277</ele>
        <time>2024-06-12T07:40:56Z</time>
      </trkpt>
      <trkpt lat="43.28314" lon="5.97092">
        <ele>277</ele>
        <time>2024-06-12T07:40:57Z</time>
      </trkpt>
      <trkpt lat="43.28306" lon="5.97085">
        <ele>277</ele>
        <time>2024-06-12T07:40:58Z</time>
      </trkpt>
      <trkpt lat="43.28303" lon="5.97083">
        <ele>276.8</ele>
        <time>2024-06-12T07:40:59Z</time>
      </trkpt>
      <trkpt lat="43.28295" lon="5.97076">
        <ele>276.2</ele>
        <time>2024-06-12T07:41:00Z</time>
      </trkpt>
      <trkpt lat="43.28292" lon="5.97073">
        <ele>276.2</ele>
        <time>2024-06-12T07:41:01Z</time>
      </trkpt>
      <trkpt lat="43.28284" lon="5.97066">
        <ele>276.2</ele>
        <time>2024-06-12T07:41:02Z</time>
      </trkpt>
      <trkpt lat="43.28281" lon="5.97063">
        <ele>276.2</ele>
        <time>2024-06-12T07:41:03Z</time>
      </trkpt>
      <trkpt lat="43.28272" lon="5.97056">
        <ele>275.8</ele>
        <time>2024-06-12T07:41:04Z</time>
      </trkpt>
      <trkpt lat="43.28269" lon="5.97053">
        <ele>275.8</ele>
        <time>2024-06-12T07:41:05Z</time>
      </trkpt>
      <trkpt lat="43.28264" lon="5.97048">
        <ele>275.8</ele>
        <time>2024-06-12T07:41:06Z</time>
      </trkpt>
      <trkpt lat="43.28255" lon="5.9704">
        <ele>275.8</ele>
        <time>2024-06-12T07:41:07Z</time>
      </trkpt>
      <trkpt lat="43.28252" lon="5.97037">
        <ele>275.4</ele>
        <time>2024-06-12T07:41:08Z</time>
      </trkpt>
      <trkpt lat="43.28244" lon="5.9703">
        <ele>275</ele>
        <time>2024-06-12T07:41:09Z</time>
      </trkpt>
      <trkpt lat="43.28241" lon="5.97027">
        <ele>275</ele>
        <time>2024-06-12T07:41:10Z</time>
      </trkpt>
      <trkpt lat="43.28236" lon="5.97022">
        <ele>275</ele>
        <time>2024-06-12T07:41:11Z</time>
      </trkpt>
      <trkpt lat="43.28228" lon="5.97015">
        <ele>275</ele>
        <time>2024-06-12T07:41:12Z</time>
      </trkpt>
      <trkpt lat="43.28225" lon="5.97013">
        <ele>274.8</ele>
        <time>2024-06-12T07:41:13Z</time>
      </trkpt>
      <trkpt lat="43.2822" lon="5.97008">
        <ele>274.8</ele>
        <time>2024-06-12T07:41:14Z</time>
      </trkpt>
      <trkpt lat="43.28215" lon="5.97003">
        <ele>274.8</ele>
        <time>2024-06-12T07:41:15Z</time>
      </trkpt>
      <trkpt lat="43.28209" lon="5.96999">
        <ele>274.8</ele>
        <time>2024-06-12T07:41:16Z</time>
      </trkpt>
      <trkpt lat="43.28204" lon="5.96996">
        <ele>274.6</ele>
        <time>2024-06-12T07:41:17Z</time>
      </trkpt>
      <trkpt lat="43.28199" lon="5.96992">
        <ele>274.6</ele>
        <time>2024-06-12T07:41:18Z</time>
      </trkpt>
      <trkpt lat="43.28195" lon="5.96988">
        <ele>274.6</ele>
        <time>2024-06-12T07:41:19Z</time>
      </trkpt>
      <trkpt lat="43.28192" lon="5.96984">
        <ele>274.6</ele>
        <time>2024-06-12T07:41:20Z</time>
      </trkpt>
      <trkpt lat="43.28189" lon="5.96981">
        <ele>274.6</ele>
        <time>2024-06-12T07:41:21Z</time>
      </trkpt>
      <trkpt lat="43.28185" lon="5.96979">
        <ele>274.4</ele>
        <time>2024-06-12T07:41:22Z</time>
      </trkpt>
      <trkpt lat="43.2818" lon="5.96974">
        <ele>274.4</ele>
        <time>2024-06-12T07:41:23Z</time>
      </trkpt>
      <trkpt lat="43.28178" lon="5.96972">
        <ele>274.4</ele>
        <time>2024-06-12T07:41:24Z</time>
      </trkpt>
      <trkpt lat="43.28175" lon="5.96968">
        <ele>274.4</ele>
        <time>2024-06-12T07:41:25Z</time>
      </trkpt>
      <trkpt lat="43.28172" lon="5.96965">
        <ele>274</ele>
        <time>2024-06-12T07:41:26Z</time>
      </trkpt>
      <trkpt lat="43.28168" lon="5.96962">
        <ele>274</ele>
        <time>2024-06-12T07:41:27Z</time>
      </trkpt>
      <trkpt lat="43.28164" lon="5.96959">
        <ele>274</ele>
        <time>2024-06-12T07:41:28Z</time>
      </trkpt>
      <trkpt lat="43.2816" lon="5.96956">
        <ele>274</ele>
        <time>2024-06-12T07:41:29Z</time>
      </trkpt>
      <trkpt lat="43.28155" lon="5.96955">
        <ele>273.4</ele>
        <time>2024-06-12T07:41:30Z</time>
      </trkpt>
      <trkpt lat="43.2815" lon="5.96953">
        <ele>273.4</ele>
        <time>2024-06-12T07:41:31Z</time>
      </trkpt>
      <trkpt lat="43.28146" lon="5.96951">
        <ele>273.4</ele>
        <time>2024-06-12T07:41:32Z</time>
      </trkpt>
      <trkpt lat="43.28144" lon="5.96946">
        <ele>273.4</ele>
        <time>2024-06-12T07:41:33Z</time>
      </trkpt>
      <trkpt lat="43.28142" lon="5.96937">
        <ele>272.8</ele>
        <time>2024-06-12T07:41:34Z</time>
      </trkpt>
      <trkpt lat="43.28142" lon="5.96934">
        <ele>272.4</ele>
        <time>2024-06-12T07:41:35Z</time>
      </trkpt>
      <trkpt lat="43.28142" lon="5.96927">
        <ele>272.4</ele>
        <time>2024-06-12T07:41:36Z</time>
      </trkpt>
      <trkpt lat="43.28141" lon="5.9692">
        <ele>272.4</ele>
        <time>2024-06-12T07:41:37Z</time>
      </trkpt>
      <trkpt lat="43.2814" lon="5.96913">
        <ele>272.4</ele>
        <time>2024-06-12T07:41:38Z</time>
      </trkpt>
      <trkpt lat="43.28139" lon="5.96906">
        <ele>272.4</ele>
        <time>2024-06-12T07:41:39Z</time>
      </trkpt>
      <trkpt lat="43.28136" lon="5.96895">
        <ele>271.8</ele>
        <time>2024-06-12T07:41:40Z</time>
      </trkpt>
      <trkpt lat="43.28135" lon="5.96892">
        <ele>271.8</ele>
        <time>2024-06-12T07:41:41Z</time>
      </trkpt>
      <trkpt lat="43.28133" lon="5.96885">
        <ele>271.8</ele>
        <time>2024-06-12T07:41:42Z</time>
      </trkpt>
      <trkpt lat="43.2813" lon="5.96877">
        <ele>271.8</ele>
        <time>2024-06-12T07:41:43Z</time>
      </trkpt>
      <trkpt lat="43.28129" lon="5.96874">
        <ele>271.2</ele>
        <time>2024-06-12T07:41:44Z</time>
      </trkpt>
      <trkpt lat="43.28126" lon="5.96866">
        <ele>271.4</ele>
        <time>2024-06-12T07:41:45Z</time>
      </trkpt>
      <trkpt lat="43.28125" lon="5.96863">
        <ele>271.4</ele>
        <time>2024-06-12T07:41:46Z</time>
      </trkpt>
      <trkpt lat="43.28122" lon="5.96858">
        <ele>271.4</ele>
        <time>2024-06-12T07:41:47Z</time>
      </trkpt>
      <trkpt lat="43.28119" lon="5.9685">
        <ele>271.2</ele>
        <time>2024-06-12T07:41:48Z</time>
      </trkpt>
      <trkpt lat="43.28118" lon="5.96847">
        <ele>270.2</ele>
        <time>2024-06-12T07:41:49Z</time>
      </trkpt>
      <trkpt lat="43.28117" lon="5.96839">
        <ele>270.2</ele>
        <time>2024-06-12T07:41:50Z</time>
      </trkpt>
      <trkpt lat="43.28116" lon="5.96837">
        <ele>270.2</ele>
        <time>2024-06-12T07:41:51Z</time>
      </trkpt>
      <trkpt lat="43.28115" lon="5.96832">
        <ele>270.2</ele>
        <time>2024-06-12T07:41:52Z</time>
      </trkpt>
      <trkpt lat="43.28113" lon="5.96824">
        <ele>271</ele>
        <time>2024-06-12T07:41:53Z</time>
      </trkpt>
      <trkpt lat="43.28113" lon="5.96821">
        <ele>271</ele>
        <time>2024-06-12T07:41:54Z</time>
      </trkpt>
      <trkpt lat="43.28112" lon="5.96816">
        <ele>271</ele>
        <time>2024-06-12T07:41:55Z</time>
      </trkpt>
      <trkpt lat="43.28111" lon="5.96808">
        <ele>271</ele>
        <time>2024-06-12T07:41:56Z</time>
      </trkpt>
      <trkpt lat="43.28111" lon="5.96805">
        <ele>271.8</ele>
        <time>2024-06-12T07:41:57Z</time>
      </trkpt>
      <trkpt lat="43.2811" lon="5.96799">
        <ele>271.8</ele>
        <time>2024-06-12T07:41:58Z</time>
      </trkpt>
      <trkpt lat="43.28109" lon="5.96794">
        <ele>271.8</ele>
        <time>2024-06-12T07:41:59Z</time>
      </trkpt>
      <trkpt lat="43.28108" lon="5.96788">
        <ele>271.8</ele>
        <time>2024-06-12T07:42:00Z</time>
      </trkpt>
      <trkpt lat="43.28107" lon="5.96782">
        <ele>271.2</ele>
        <time>2024-06-12T07:42:01Z</time>
      </trkpt>
      <trkpt lat="43.28105" lon="5.96777">
        <ele>271.2</ele>
        <time>2024-06-12T07:42:02Z</time>
      </trkpt>
      <trkpt lat="43.28103" lon="5.96771">
        <ele>271.2</ele>
        <time>2024-06-12T07:42:03Z</time>
      </trkpt>
      <trkpt lat="43.281" lon="5.96762">
        <ele>271.2</ele>
        <time>2024-06-12T07:42:04Z</time>
      </trkpt>
      <trkpt lat="43.28099" lon="5.96759">
        <ele>271.2</ele>
        <time>2024-06-12T07:42:05Z</time>
      </trkpt>
      <trkpt lat="43.28097" lon="5.96753">
        <ele>271.4</ele>
        <time>2024-06-12T07:42:06Z</time>
      </trkpt>
      <trkpt lat="43.28095" lon="5.96747">
        <ele>271.4</ele>
        <time>2024-06-12T07:42:07Z</time>
      </trkpt>
      <trkpt lat="43.28093" lon="5.96741">
        <ele>271.4</ele>
        <time>2024-06-12T07:42:08Z</time>
      </trkpt>
      <trkpt lat="43.28091" lon="5.96735">
        <ele>271.4</ele>
        <time>2024-06-12T07:42:09Z</time>
      </trkpt>
      <trkpt lat="43.28089" lon="5.96729">
        <ele>271.2</ele>
        <time>2024-06-12T07:42:10Z</time>
      </trkpt>
      <trkpt lat="43.28087" lon="5.96723">
        <ele>271</ele>
        <time>2024-06-12T07:42:11Z</time>
      </trkpt>
      <trkpt lat="43.28085" lon="5.96718">
        <ele>271</ele>
        <time>2024-06-12T07:42:12Z</time>
      </trkpt>
      <trkpt lat="43.28084" lon="5.96712">
        <ele>271</ele>
        <time>2024-06-12T07:42:13Z</time>
      </trkpt>
      <trkpt lat="43.28082" lon="5.96706">
        <ele>271.4</ele>
        <time>2024-06-12T07:42:14Z</time>
      </trkpt>
      <trkpt lat="43.2808" lon="5.967">
        <ele>271.4</ele>
        <time>2024-06-12T07:42:15Z</time>
      </trkpt>
      <trkpt lat="43.28078" lon="5.96695">
        <ele>271.4</ele>
        <time>2024-06-12T07:42:16Z</time>
      </trkpt>
      <trkpt lat="43.28076" lon="5.96689">
        <ele>271.4</ele>
        <time>2024-06-12T07:42:17Z</time>
      </trkpt>
      <trkpt lat="43.28075" lon="5.96684">
        <ele>271.4</ele>
        <time>2024-06-12T07:42:18Z</time>
      </trkpt>
      <trkpt lat="43.28074" lon="5.96678">
        <ele>271.8</ele>
        <time>2024-06-12T07:42:19Z</time>
      </trkpt>
      <trkpt lat="43.28072" lon="5.96672">
        <ele>272</ele>
        <time>2024-06-12T07:42:20Z</time>
      </trkpt>
      <trkpt lat="43.2807" lon="5.96667">
        <ele>272</ele>
        <time>2024-06-12T07:42:21Z</time>
      </trkpt>
      <trkpt lat="43.28069" lon="5.96661">
        <ele>272</ele>
        <time>2024-06-12T07:42:22Z</time>
      </trkpt>
      <trkpt lat="43.28067" lon="5.96653">
        <ele>272</ele>
        <time>2024-06-12T07:42:23Z</time>
      </trkpt>
      <trkpt lat="43.28066" lon="5.9665">
        <ele>271.8</ele>
        <time>2024-06-12T07:42:24Z</time>
      </trkpt>
      <trkpt lat="43.28063" lon="5.96641">
        <ele>272</ele>
        <time>2024-06-12T07:42:25Z</time>
      </trkpt>
      <trkpt lat="43.28062" lon="5.96638">
        <ele>272</ele>
        <time>2024-06-12T07:42:26Z</time>
      </trkpt>
      <trkpt lat="43.2806" lon="5.96629">
        <ele>272</ele>
        <time>2024-06-12T07:42:27Z</time>
      </trkpt>
      <trkpt lat="43.28059" lon="5.96626">
        <ele>272.4</ele>
        <time>2024-06-12T07:42:28Z</time>
      </trkpt>
      <trkpt lat="43.28055" lon="5.96617">
        <ele>272.4</ele>
        <time>2024-06-12T07:42:29Z</time>
      </trkpt>
      <trkpt lat="43.28054" lon="5.96614">
        <ele>272.4</ele>
        <time>2024-06-12T07:42:30Z</time>
      </trkpt>
      <trkpt lat="43.28052" lon="5.96608">
        <ele>272.4</ele>
        <time>2024-06-12T07:42:31Z</time>
      </trkpt>
      <trkpt lat="43.28049" lon="5.96599">
        <ele>272.4</ele>
        <time>2024-06-12T07:42:32Z</time>
      </trkpt>
      <trkpt lat="43.28048" lon="5.96596">
        <ele>272.6</ele>
        <time>2024-06-12T07:42:33Z</time>
      </trkpt>
      <trkpt lat="43.28045" lon="5.96587">
        <ele>272.4</ele>
        <time>2024-06-12T07:42:34Z</time>
      </trkpt>
      <trkpt lat="43.28044" lon="5.96584">
        <ele>272.4</ele>
        <time>2024-06-12T07:42:35Z</time>
      </trkpt>
      <trkpt lat="43.28042" lon="5.96574">
        <ele>272.4</ele>
        <time>2024-06-12T07:42:36Z</time>
      </trkpt>
      <trkpt lat="43.28041" lon="5.96571">
        <ele>272.4</ele>
        <time>2024-06-12T07:42:37Z</time>
      </trkpt>
      <trkpt lat="43.28039" lon="5.96564">
        <ele>272.8</ele>
        <time>2024-06-12T07:42:38Z</time>
      </trkpt>
      <trkpt lat="43.28038" lon="5.96554">
        <ele>272.8</ele>
        <time>2024-06-12T07:42:39Z</time>
      </trkpt>
      <trkpt lat="43.28038" lon="5.96551">
        <ele>272.8</ele>
        <time>2024-06-12T07:42:40Z</time>
      </trkpt>
      <trkpt lat="43.28037" lon="5.96544">
        <ele>272.8</ele>
        <time>2024-06-12T07:42:41Z</time>
      </trkpt>
      <trkpt lat="43.28037" lon="5.96538">
        <ele>272.8</ele>
        <time>2024-06-12T07:42:42Z</time>
      </trkpt>
      <trkpt lat="43.28036" lon="5.96532">
        <ele>273</ele>
        <time>2024-06-12T07:42:43Z</time>
      </trkpt>
      <trkpt lat="43.28036" lon="5.96526">
        <ele>273</ele>
        <time>2024-06-12T07:42:44Z</time>
      </trkpt>
      <trkpt lat="43.28036" lon="5.9652">
        <ele>273</ele>
        <time>2024-06-12T07:42:45Z</time>
      </trkpt>
      <trkpt lat="43.28035" lon="5.96514">
        <ele>273.6</ele>
        <time>2024-06-12T07:42:46Z</time>
      </trkpt>
      <trkpt lat="43.28035" lon="5.96508">
        <ele>273.2</ele>
        <time>2024-06-12T07:42:47Z</time>
      </trkpt>
      <trkpt lat="43.28034" lon="5.96502">
        <ele>273.2</ele>
        <time>2024-06-12T07:42:48Z</time>
      </trkpt>
      <trkpt lat="43.28034" lon="5.96496">
        <ele>273.2</ele>
        <time>2024-06-12T07:42:49Z</time>
      </trkpt>
      <trkpt lat="43.28033" lon="5.9649">
        <ele>274</ele>
        <time>2024-06-12T07:42:50Z</time>
      </trkpt>
      <trkpt lat="43.28033" lon="5.96484">
        <ele>274</ele>
        <time>2024-06-12T07:42:51Z</time>
      </trkpt>
      <trkpt lat="43.28033" lon="5.96478">
        <ele>273.8</ele>
        <time>2024-06-12T07:42:52Z</time>
      </trkpt>
      <trkpt lat="43.28032" lon="5.96472">
        <ele>273.8</ele>
        <time>2024-06-12T07:42:53Z</time>
      </trkpt>
      <trkpt lat="43.28032" lon="5.96466">
        <ele>273.8</ele>
        <time>2024-06-12T07:42:54Z</time>
      </trkpt>
      <trkpt lat="43.28031" lon="5.96461">
        <ele>274.8</ele>
        <time>2024-06-12T07:42:55Z</time>
      </trkpt>
      <trkpt lat="43.2803" lon="5.96455">
        <ele>274.8</ele>
        <time>2024-06-12T07:42:56Z</time>
      </trkpt>
      <trkpt lat="43.28029" lon="5.96449">
        <ele>274.8</ele>
        <time>2024-06-12T07:42:57Z</time>
      </trkpt>
      <trkpt lat="43.28028" lon="5.96444">
        <ele>274.8</ele>
        <time>2024-06-12T07:42:58Z</time>
      </trkpt>
      <trkpt lat="43.28027" lon="5.96438">
        <ele>275</ele>
        <time>2024-06-12T07:42:59Z</time>
      </trkpt>
      <trkpt lat="43.28027" lon="5.96433">
        <ele>275.2</ele>
        <time>2024-06-12T07:43:00Z</time>
      </trkpt>
      <trkpt lat="43.28026" lon="5.96428">
        <ele>275.2</ele>
        <time>2024-06-12T07:43:01Z</time>
      </trkpt>
      <trkpt lat="43.28024" lon="5.96423">
        <ele>275.2</ele>
        <time>2024-06-12T07:43:02Z</time>
      </trkpt>
      <trkpt lat="43.28023" lon="5.96418">
        <ele>275.2</ele>
        <time>2024-06-12T07:43:03Z</time>
      </trkpt>
      <trkpt lat="43.28021" lon="5.96411">
        <ele>275.2</ele>
        <time>2024-06-12T07:43:04Z</time>
      </trkpt>
      <trkpt lat="43.2802" lon="5.96408">
        <ele>276</ele>
        <time>2024-06-12T07:43:05Z</time>
      </trkpt>
      <trkpt lat="43.28018" lon="5.96401">
        <ele>276</ele>
        <time>2024-06-12T07:43:06Z</time>
      </trkpt>
      <trkpt lat="43.28017" lon="5.96399">
        <ele>276</ele>
        <time>2024-06-12T07:43:07Z</time>
      </trkpt>
      <trkpt lat="43.28015" lon="5.96392">
        <ele>276</ele>
        <time>2024-06-12T07:43:08Z</time>
      </trkpt>
      <trkpt lat="43.28014" lon="5.9639">
        <ele>276</ele>
        <time>2024-06-12T07:43:09Z</time>
      </trkpt>
      <trkpt lat="43.28013" lon="5.96385">
        <ele>276.2</ele>
        <time>2024-06-12T07:43:10Z</time>
      </trkpt>
      <trkpt lat="43.2801" lon="5.96378">
        <ele>276.2</ele>
        <time>2024-06-12T07:43:11Z</time>
      </trkpt>
      <trkpt lat="43.2801" lon="5.96375">
        <ele>276.2</ele>
        <time>2024-06-12T07:43:12Z</time>
      </trkpt>
      <trkpt lat="43.28008" lon="5.9637">
        <ele>276.2</ele>
        <time>2024-06-12T07:43:13Z</time>
      </trkpt>
      <trkpt lat="43.28006" lon="5.96363">
        <ele>276.8</ele>
        <time>2024-06-12T07:43:14Z</time>
      </trkpt>
      <trkpt lat="43.28005" lon="5.9636">
        <ele>276.8</ele>
        <time>2024-06-12T07:43:15Z</time>
      </trkpt>
      <trkpt lat="43.28003" lon="5.96352">
        <ele>276.8</ele>
        <time>2024-06-12T07:43:16Z</time>
      </trkpt>
      <trkpt lat="43.28002" lon="5.96349">
        <ele>277</ele>
        <time>2024-06-12T07:43:17Z</time>
      </trkpt>
      <trkpt lat="43.28" lon="5.96342">
        <ele>277</ele>
        <time>2024-06-12T07:43:18Z</time>
      </trkpt>
      <trkpt lat="43.28" lon="5.96339">
        <ele>277</ele>
        <time>2024-06-12T07:43:19Z</time>
      </trkpt>
      <trkpt lat="43.27998" lon="5.96334">
        <ele>277</ele>
        <time>2024-06-12T07:43:20Z</time>
      </trkpt>
      <trkpt lat="43.27996" lon="5.96329">
        <ele>277</ele>
        <time>2024-06-12T07:43:21Z</time>
      </trkpt>
      <trkpt lat="43.27994" lon="5.96324">
        <ele>277</ele>
        <time>2024-06-12T07:43:22Z</time>
      </trkpt>
      <trkpt lat="43.27992" lon="5.96319">
        <ele>277</ele>
        <time>2024-06-12T07:43:23Z</time>
      </trkpt>
      <trkpt lat="43.27991" lon="5.96313">
        <ele>277</ele>
        <time>2024-06-12T07:43:24Z</time>
      </trkpt>
      <trkpt lat="43.27989" lon="5.96308">
        <ele>277</ele>
        <time>2024-06-12T07:43:25Z</time>
      </trkpt>
      <trkpt lat="43.27987" lon="5.96303">
        <ele>277</ele>
        <time>2024-06-12T07:43:26Z</time>
      </trkpt>
      <trkpt lat="43.27986" lon="5.96297">
        <ele>277.2</ele>
        <time>2024-06-12T07:43:27Z</time>
      </trkpt>
      <trkpt lat="43.27985" lon="5.96292">
        <ele>277.2</ele>
        <time>2024-06-12T07:43:28Z</time>
      </trkpt>
      <trkpt lat="43.27983" lon="5.96283">
        <ele>277.2</ele>
        <time>2024-06-12T07:43:29Z</time>
      </trkpt>
      <trkpt lat="43.27982" lon="5.96281">
        <ele>277.4</ele>
        <time>2024-06-12T07:43:30Z</time>
      </trkpt>
      <trkpt lat="43.27981" lon="5.96275">
        <ele>277.8</ele>
        <time>2024-06-12T07:43:31Z</time>
      </trkpt>
      <trkpt lat="43.2798" lon="5.9627">
        <ele>277.8</ele>
        <time>2024-06-12T07:43:32Z</time>
      </trkpt>
      <trkpt lat="43.27978" lon="5.96265">
        <ele>277.8</ele>
        <time>2024-06-12T07:43:33Z</time>
      </trkpt>
      <trkpt lat="43.27977" lon="5.9626">
        <ele>277.8</ele>
        <time>2024-06-12T07:43:34Z</time>
      </trkpt>
      <trkpt lat="43.27975" lon="5.96254">
        <ele>277.4</ele>
        <time>2024-06-12T07:43:35Z</time>
      </trkpt>
      <trkpt lat="43.27974" lon="5.96249">
        <ele>277.6</ele>
        <time>2024-06-12T07:43:36Z</time>
      </trkpt>
      <trkpt lat="43.27972" lon="5.96244">
        <ele>277.6</ele>
        <time>2024-06-12T07:43:37Z</time>
      </trkpt>
      <trkpt lat="43.2797" lon="5.96239">
        <ele>277.6</ele>
        <time>2024-06-12T07:43:38Z</time>
      </trkpt>
      <trkpt lat="43.27969" lon="5.96235">
        <ele>277.6</ele>
        <time>2024-06-12T07:43:39Z</time>
      </trkpt>
      <trkpt lat="43.27967" lon="5.9623">
        <ele>277.8</ele>
        <time>2024-06-12T07:43:40Z</time>
      </trkpt>
      <trkpt lat="43.27966" lon="5.96225">
        <ele>277.8</ele>
        <time>2024-06-12T07:43:41Z</time>
      </trkpt>
      <trkpt lat="43.27964" lon="5.9622">
        <ele>277.8</ele>
        <time>2024-06-12T07:43:42Z</time>
      </trkpt>
      <trkpt lat="43.27963" lon="5.96214">
        <ele>277.8</ele>
        <time>2024-06-12T07:43:43Z</time>
      </trkpt>
      <trkpt lat="43.27962" lon="5.96209">
        <ele>278.2</ele>
        <time>2024-06-12T07:43:44Z</time>
      </trkpt>
      <trkpt lat="43.27961" lon="5.96204">
        <ele>278.2</ele>
        <time>2024-06-12T07:43:45Z</time>
      </trkpt>
      <trkpt lat="43.2796" lon="5.96199">
        <ele>278.2</ele>
        <time>2024-06-12T07:43:46Z</time>
      </trkpt>
      <trkpt lat="43.27958" lon="5.96191">
        <ele>278.2</ele>
        <time>2024-06-12T07:43:47Z</time>
      </trkpt>
      <trkpt lat="43.27957" lon="5.96188">
        <ele>278.2</ele>
        <time>2024-06-12T07:43:48Z</time>
      </trkpt>
      <trkpt lat="43.27956" lon="5.96183">
        <ele>278.4</ele>
        <time>2024-06-12T07:43:49Z</time>
      </trkpt>
      <trkpt lat="43.27955" lon="5.96177">
        <ele>278.6</ele>
        <time>2024-06-12T07:43:50Z</time>
      </trkpt>
      <trkpt lat="43.27952" lon="5.96169">
        <ele>278.6</ele>
        <time>2024-06-12T07:43:51Z</time>
      </trkpt>
      <trkpt lat="43.27952" lon="5.96167">
        <ele>278.6</ele>
        <time>2024-06-12T07:43:52Z</time>
      </trkpt>
      <trkpt lat="43.27949" lon="5.96158">
        <ele>278.6</ele>
        <time>2024-06-12T07:43:53Z</time>
      </trkpt>
      <trkpt lat="43.27949" lon="5.96155">
        <ele>278.8</ele>
        <time>2024-06-12T07:43:54Z</time>
      </trkpt>
      <trkpt lat="43.27947" lon="5.96146">
        <ele>278.8</ele>
        <time>2024-06-12T07:43:55Z</time>
      </trkpt>
      <trkpt lat="43.27946" lon="5.96143">
        <ele>278.8</ele>
        <time>2024-06-12T07:43:56Z</time>
      </trkpt>
      <trkpt lat="43.27945" lon="5.96137">
        <ele>279.4</ele>
        <time>2024-06-12T07:43:57Z</time>
      </trkpt>
      <trkpt lat="43.27943" lon="5.96127">
        <ele>279.4</ele>
        <time>2024-06-12T07:43:58Z</time>
      </trkpt>
      <trkpt lat="43.27942" lon="5.96124">
        <ele>279.4</ele>
        <time>2024-06-12T07:43:59Z</time>
      </trkpt>
      <trkpt lat="43.2794" lon="5.96114">
        <ele>279.4</ele>
        <time>2024-06-12T07:44:00Z</time>
      </trkpt>
      <trkpt lat="43.27939" lon="5.96111">
        <ele>279.4</ele>
        <time>2024-06-12T07:44:01Z</time>
      </trkpt>
      <trkpt lat="43.27938" lon="5.96101">
        <ele>279.4</ele>
        <time>2024-06-12T07:44:02Z</time>
      </trkpt>
      <trkpt lat="43.27938" lon="5.96098">
        <ele>279.2</ele>
        <time>2024-06-12T07:44:03Z</time>
      </trkpt>
      <trkpt lat="43.27937" lon="5.96092">
        <ele>279.2</ele>
        <time>2024-06-12T07:44:04Z</time>
      </trkpt>
      <trkpt lat="43.27937" lon="5.96082">
        <ele>279.2</ele>
        <time>2024-06-12T07:44:05Z</time>
      </trkpt>
      <trkpt lat="43.27937" lon="5.96079">
        <ele>279.8</ele>
        <time>2024-06-12T07:44:06Z</time>
      </trkpt>
      <trkpt lat="43.27936" lon="5.96073">
        <ele>280.6</ele>
        <time>2024-06-12T07:44:07Z</time>
      </trkpt>
      <trkpt lat="43.27937" lon="5.96068">
        <ele>280.6</ele>
        <time>2024-06-12T07:44:08Z</time>
      </trkpt>
      <trkpt lat="43.27938" lon="5.96063">
        <ele>280.6</ele>
        <time>2024-06-12T07:44:09Z</time>
      </trkpt>
      <trkpt lat="43.27938" lon="5.96058">
        <ele>280.2</ele>
        <time>2024-06-12T07:44:10Z</time>
      </trkpt>
      <trkpt lat="43.27939" lon="5.96052">
        <ele>280.2</ele>
        <time>2024-06-12T07:44:11Z</time>
      </trkpt>
      <trkpt lat="43.2794" lon="5.96047">
        <ele>280.6</ele>
        <time>2024-06-12T07:44:12Z</time>
      </trkpt>
      <trkpt lat="43.2794" lon="5.96042">
        <ele>280.6</ele>
        <time>2024-06-12T07:44:13Z</time>
      </trkpt>
      <trkpt lat="43.27941" lon="5.96036">
        <ele>280.6</ele>
        <time>2024-06-12T07:44:14Z</time>
      </trkpt>
      <trkpt lat="43.27942" lon="5.9603">
        <ele>281.2</ele>
        <time>2024-06-12T07:44:15Z</time>
      </trkpt>
      <trkpt lat="43.27944" lon="5.96021">
        <ele>281.2</ele>
        <time>2024-06-12T07:44:16Z</time>
      </trkpt>
      <trkpt lat="43.27944" lon="5.96018">
        <ele>281.2</ele>
        <time>2024-06-12T07:44:17Z</time>
      </trkpt>
      <trkpt lat="43.27945" lon="5.9601">
        <ele>281.2</ele>
        <time>2024-06-12T07:44:18Z</time>
      </trkpt>
      <trkpt lat="43.27945" lon="5.96008">
        <ele>281.8</ele>
        <time>2024-06-12T07:44:19Z</time>
      </trkpt>
      <trkpt lat="43.27946" lon="5.96003">
        <ele>281.8</ele>
        <time>2024-06-12T07:44:20Z</time>
      </trkpt>
      <trkpt lat="43.27947" lon="5.95998">
        <ele>281.8</ele>
        <time>2024-06-12T07:44:21Z</time>
      </trkpt>
      <trkpt lat="43.27948" lon="5.95993">
        <ele>281.8</ele>
        <time>2024-06-12T07:44:22Z</time>
      </trkpt>
      <trkpt lat="43.27949" lon="5.95989">
        <ele>281.8</ele>
        <time>2024-06-12T07:44:23Z</time>
      </trkpt>
      <trkpt lat="43.27949" lon="5.95984">
        <ele>282.8</ele>
        <time>2024-06-12T07:44:24Z</time>
      </trkpt>
      <trkpt lat="43.27949" lon="5.9598">
        <ele>282.8</ele>
        <time>2024-06-12T07:44:25Z</time>
      </trkpt>
      <trkpt lat="43.27949" lon="5.95975">
        <ele>282.8</ele>
        <time>2024-06-12T07:44:26Z</time>
      </trkpt>
      <trkpt lat="43.27949" lon="5.95968">
        <ele>282.8</ele>
        <time>2024-06-12T07:44:27Z</time>
      </trkpt>
      <trkpt lat="43.27949" lon="5.95966">
        <ele>283.2</ele>
        <time>2024-06-12T07:44:28Z</time>
      </trkpt>
      <trkpt lat="43.27948" lon="5.95961">
        <ele>283.6</ele>
        <time>2024-06-12T07:44:29Z</time>
      </trkpt>
      <trkpt lat="43.27948" lon="5.95957">
        <ele>283.6</ele>
        <time>2024-06-12T07:44:30Z</time>
      </trkpt>
      <trkpt lat="43.27947" lon="5.95953">
        <ele>283.6</ele>
        <time>2024-06-12T07:44:31Z</time>
      </trkpt>
      <trkpt lat="43.27947" lon="5.95949">
        <ele>283.6</ele>
        <time>2024-06-12T07:44:32Z</time>
      </trkpt>
      <trkpt lat="43.27945" lon="5.95943">
        <ele>283.6</ele>
        <time>2024-06-12T07:44:33Z</time>
      </trkpt>
      <trkpt lat="43.27944" lon="5.95941">
        <ele>284</ele>
        <time>2024-06-12T07:44:34Z</time>
      </trkpt>
      <trkpt lat="43.27943" lon="5.95935">
        <ele>284</ele>
        <time>2024-06-12T07:44:35Z</time>
      </trkpt>
      <trkpt lat="43.27943" lon="5.95933">
        <ele>284</ele>
        <time>2024-06-12T07:44:36Z</time>
      </trkpt>
      <trkpt lat="43.27941" lon="5.95927">
        <ele>284</ele>
        <time>2024-06-12T07:44:37Z</time>
      </trkpt>
      <trkpt lat="43.2794" lon="5.95925">
        <ele>284.6</ele>
        <time>2024-06-12T07:44:38Z</time>
      </trkpt>
      <trkpt lat="43.27938" lon="5.95919">
        <ele>284.6</ele>
        <time>2024-06-12T07:44:39Z</time>
      </trkpt>
      <trkpt lat="43.27938" lon="5.95917">
        <ele>284.6</ele>
        <time>2024-06-12T07:44:40Z</time>
      </trkpt>
      <trkpt lat="43.27936" lon="5.95912">
        <ele>284.6</ele>
        <time>2024-06-12T07:44:41Z</time>
      </trkpt>
      <trkpt lat="43.27934" lon="5.95906">
        <ele>284.6</ele>
        <time>2024-06-12T07:44:42Z</time>
      </trkpt>
      <trkpt lat="43.27933" lon="5.95904">
        <ele>284.6</ele>
        <time>2024-06-12T07:44:43Z</time>
      </trkpt>
      <trkpt lat="43.2793" lon="5.95897">
        <ele>284.6</ele>
        <time>2024-06-12T07:44:44Z</time>
      </trkpt>
      <trkpt lat="43.27929" lon="5.95894">
        <ele>284.6</ele>
        <time>2024-06-12T07:44:45Z</time>
      </trkpt>
      <trkpt lat="43.27926" lon="5.95888">
        <ele>284.8</ele>
        <time>2024-06-12T07:44:46Z</time>
      </trkpt>
      <trkpt lat="43.27925" lon="5.95886">
        <ele>284.8</ele>
        <time>2024-06-12T07:44:47Z</time>
      </trkpt>
      <trkpt lat="43.27923" lon="5.95882">
        <ele>284.8</ele>
        <time>2024-06-12T07:44:48Z</time>
      </trkpt>
      <trkpt lat="43.27919" lon="5.95875">
        <ele>284.8</ele>
        <time>2024-06-12T07:44:49Z</time>
      </trkpt>
      <trkpt lat="43.27918" lon="5.95872">
        <ele>284.8</ele>
        <time>2024-06-12T07:44:50Z</time>
      </trkpt>
      <trkpt lat="43.27915" lon="5.95867">
        <ele>285.2</ele>
        <time>2024-06-12T07:44:51Z</time>
      </trkpt>
      <trkpt lat="43.27914" lon="5.95862">
        <ele>285.2</ele>
        <time>2024-06-12T07:44:52Z</time>
      </trkpt>
      <trkpt lat="43.27912" lon="5.95856">
        <ele>285.2</ele>
        <time>2024-06-12T07:44:53Z</time>
      </trkpt>
      <trkpt lat="43.27911" lon="5.95851">
        <ele>285.2</ele>
        <time>2024-06-12T07:44:54Z</time>
      </trkpt>
      <trkpt lat="43.27911" lon="5.95843">
        <ele>285</ele>
        <time>2024-06-12T07:44:55Z</time>
      </trkpt>
      <trkpt lat="43.27911" lon="5.95841">
        <ele>285.4</ele>
        <time>2024-06-12T07:44:56Z</time>
      </trkpt>
      <trkpt lat="43.27911" lon="5.95836">
        <ele>285.4</ele>
        <time>2024-06-12T07:44:57Z</time>
      </trkpt>
      <trkpt lat="43.27912" lon="5.95831">
        <ele>285.4</ele>
        <time>2024-06-12T07:44:58Z</time>
      </trkpt>
      <trkpt lat="43.27913" lon="5.95826">
        <ele>285.4</ele>
        <time>2024-06-12T07:44:59Z</time>
      </trkpt>
      <trkpt lat="43.27914" lon="5.95821">
        <ele>285.6</ele>
        <time>2024-06-12T07:45:00Z</time>
      </trkpt>
      <trkpt lat="43.27916" lon="5.95817">
        <ele>285.6</ele>
        <time>2024-06-12T07:45:01Z</time>
      </trkpt>
      <trkpt lat="43.27917" lon="5.95812">
        <ele>285.6</ele>
        <time>2024-06-12T07:45:02Z</time>
      </trkpt>
      <trkpt lat="43.27919" lon="5.95808">
        <ele>286</ele>
        <time>2024-06-12T07:45:03Z</time>
      </trkpt>
      <trkpt lat="43.2792" lon="5.95803">
        <ele>286</ele>
        <time>2024-06-12T07:45:04Z</time>
      </trkpt>
      <trkpt lat="43.27921" lon="5.95798">
        <ele>286.2</ele>
        <time>2024-06-12T07:45:05Z</time>
      </trkpt>
      <trkpt lat="43.27922" lon="5.95794">
        <ele>286.2</ele>
        <time>2024-06-12T07:45:06Z</time>
      </trkpt>
      <trkpt lat="43.27923" lon="5.95789">
        <ele>286.2</ele>
        <time>2024-06-12T07:45:07Z</time>
      </trkpt>
      <trkpt lat="43.27924" lon="5.95785">
        <ele>286.6</ele>
        <time>2024-06-12T07:45:08Z</time>
      </trkpt>
      <trkpt lat="43.27925" lon="5.9578">
        <ele>286.8</ele>
        <time>2024-06-12T07:45:09Z</time>
      </trkpt>
      <trkpt lat="43.27926" lon="5.95776">
        <ele>286.8</ele>
        <time>2024-06-12T07:45:10Z</time>
      </trkpt>
      <trkpt lat="43.27926" lon="5.95771">
        <ele>286.8</ele>
        <time>2024-06-12T07:45:11Z</time>
      </trkpt>
      <trkpt lat="43.27927" lon="5.95766">
        <ele>287.4</ele>
        <time>2024-06-12T07:45:12Z</time>
      </trkpt>
      <trkpt lat="43.27927" lon="5.95762">
        <ele>287.4</ele>
        <time>2024-06-12T07:45:13Z</time>
      </trkpt>
      <trkpt lat="43.27928" lon="5.95757">
        <ele>287.4</ele>
        <time>2024-06-12T07:45:14Z</time>
      </trkpt>
      <trkpt lat="43.27929" lon="5.95753">
        <ele>287.4</ele>
        <time>2024-06-12T07:45:15Z</time>
      </trkpt>
      <trkpt lat="43.2793" lon="5.95746">
        <ele>287.4</ele>
        <time>2024-06-12T07:45:16Z</time>
      </trkpt>
      <trkpt lat="43.2793" lon="5.95743">
        <ele>288</ele>
        <time>2024-06-12T07:45:17Z</time>
      </trkpt>
      <trkpt lat="43.27932" lon="5.95736">
        <ele>288</ele>
        <time>2024-06-12T07:45:18Z</time>
      </trkpt>
      <trkpt lat="43.27933" lon="5.95733">
        <ele>288</ele>
        <time>2024-06-12T07:45:19Z</time>
      </trkpt>
      <trkpt lat="43.27934" lon="5.95729">
        <ele>288</ele>
        <time>2024-06-12T07:45:20Z</time>
      </trkpt>
      <trkpt lat="43.27935" lon="5.95721">
        <ele>288</ele>
        <time>2024-06-12T07:45:21Z</time>
      </trkpt>
      <trkpt lat="43.27936" lon="5.95719">
        <ele>289</ele>
        <time>2024-06-12T07:45:22Z</time>
      </trkpt>
      <trkpt lat="43.27937" lon="5.95712">
        <ele>289</ele>
        <time>2024-06-12T07:45:23Z</time>
      </trkpt>
      <trkpt lat="43.27938" lon="5.95709">
        <ele>289</ele>
        <time>2024-06-12T07:45:24Z</time>
      </trkpt>
      <trkpt lat="43.27939" lon="5.95701">
        <ele>289</ele>
        <time>2024-06-12T07:45:25Z</time>
      </trkpt>
      <trkpt lat="43.2794" lon="5.95699">
        <ele>289.4</ele>
        <time>2024-06-12T07:45:26Z</time>
      </trkpt>
      <trkpt lat="43.27942" lon="5.95691">
        <ele>289.4</ele>
        <time>2024-06-12T07:45:27Z</time>
      </trkpt>
      <trkpt lat="43.27942" lon="5.95689">
        <ele>289.4</ele>
        <time>2024-06-12T07:45:28Z</time>
      </trkpt>
      <trkpt lat="43.27944" lon="5.95682">
        <ele>289.4</ele>
        <time>2024-06-12T07:45:29Z</time>
      </trkpt>
      <trkpt lat="43.27944" lon="5.95679">
        <ele>289.4</ele>
        <time>2024-06-12T07:45:30Z</time>
      </trkpt>
      <trkpt lat="43.27946" lon="5.95675">
        <ele>290</ele>
        <time>2024-06-12T07:45:31Z</time>
      </trkpt>
      <trkpt lat="43.27947" lon="5.95668">
        <ele>290.2</ele>
        <time>2024-06-12T07:45:32Z</time>
      </trkpt>
      <trkpt lat="43.27948" lon="5.95665">
        <ele>290.2</ele>
        <time>2024-06-12T07:45:33Z</time>
      </trkpt>
      <trkpt lat="43.27948" lon="5.95661">
        <ele>290.2</ele>
        <time>2024-06-12T07:45:34Z</time>
      </trkpt>
      <trkpt lat="43.27949" lon="5.95656">
        <ele>290.2</ele>
        <time>2024-06-12T07:45:35Z</time>
      </trkpt>
      <trkpt lat="43.2795" lon="5.95652">
        <ele>290.6</ele>
        <time>2024-06-12T07:45:36Z</time>
      </trkpt>
      <trkpt lat="43.2795" lon="5.95647">
        <ele>290.6</ele>
        <time>2024-06-12T07:45:37Z</time>
      </trkpt>
      <trkpt lat="43.27951" lon="5.95643">
        <ele>290.6</ele>
        <time>2024-06-12T07:45:38Z</time>
      </trkpt>
      <trkpt lat="43.27951" lon="5.95638">
        <ele>291</ele>
        <time>2024-06-12T07:45:39Z</time>
      </trkpt>
      <trkpt lat="43.27952" lon="5.95634">
        <ele>291</ele>
        <time>2024-06-12T07:45:40Z</time>
      </trkpt>
      <trkpt lat="43.27952" lon="5.95627">
        <ele>291</ele>
        <time>2024-06-12T07:45:41Z</time>
      </trkpt>
      <trkpt lat="43.27952" lon="5.95625">
        <ele>291</ele>
        <time>2024-06-12T07:45:42Z</time>
      </trkpt>
      <trkpt lat="43.27952" lon="5.95621">
        <ele>291</ele>
        <time>2024-06-12T07:45:43Z</time>
      </trkpt>
      <trkpt lat="43.27953" lon="5.95616">
        <ele>291.6</ele>
        <time>2024-06-12T07:45:44Z</time>
      </trkpt>
      <trkpt lat="43.27953" lon="5.95612">
        <ele>291.6</ele>
        <time>2024-06-12T07:45:45Z</time>
      </trkpt>
      <trkpt lat="43.27953" lon="5.95607">
        <ele>291.6</ele>
        <time>2024-06-12T07:45:46Z</time>
      </trkpt>
      <trkpt lat="43.27953" lon="5.95601">
        <ele>291.6</ele>
        <time>2024-06-12T07:45:47Z</time>
      </trkpt>
      <trkpt lat="43.27953" lon="5.95596">
        <ele>292</ele>
        <time>2024-06-12T07:45:48Z</time>
      </trkpt>
      <trkpt lat="43.27952" lon="5.95591">
        <ele>292</ele>
        <time>2024-06-12T07:45:49Z</time>
      </trkpt>
      <trkpt lat="43.27953" lon="5.95586">
        <ele>292.2</ele>
        <time>2024-06-12T07:45:50Z</time>
      </trkpt>
      <trkpt lat="43.27953" lon="5.95579">
        <ele>292.2</ele>
        <time>2024-06-12T07:45:51Z</time>
      </trkpt>
      <trkpt lat="43.27953" lon="5.95576">
        <ele>292.4</ele>
        <time>2024-06-12T07:45:52Z</time>
      </trkpt>
      <trkpt lat="43.27953" lon="5.95571">
        <ele>292.4</ele>
        <time>2024-06-12T07:45:53Z</time>
      </trkpt>
      <trkpt lat="43.27953" lon="5.95566">
        <ele>292.6</ele>
        <time>2024-06-12T07:45:54Z</time>
      </trkpt>
      <trkpt lat="43.27953" lon="5.95559">
        <ele>292.6</ele>
        <time>2024-06-12T07:45:55Z</time>
      </trkpt>
      <trkpt lat="43.27953" lon="5.95557">
        <ele>292.6</ele>
        <time>2024-06-12T07:45:56Z</time>
      </trkpt>
      <trkpt lat="43.27952" lon="5.95552">
        <ele>292.6</ele>
        <time>2024-06-12T07:45:57Z</time>
      </trkpt>
      <trkpt lat="43.27952" lon="5.95547">
        <ele>293</ele>
        <time>2024-06-12T07:45:58Z</time>
      </trkpt>
      <trkpt lat="43.27952" lon="5.9554">
        <ele>293.2</ele>
        <time>2024-06-12T07:45:59Z</time>
      </trkpt>
      <trkpt lat="43.27952" lon="5.95538">
        <ele>293.2</ele>
        <time>2024-06-12T07:46:00Z</time>
      </trkpt>
      <trkpt lat="43.27952" lon="5.95532">
        <ele>293.2</ele>
        <time>2024-06-12T07:46:01Z</time>
      </trkpt>
      <trkpt lat="43.27952" lon="5.9553">
        <ele>293.6</ele>
        <time>2024-06-12T07:46:02Z</time>
      </trkpt>
      <trkpt lat="43.27952" lon="5.95524">
        <ele>293.6</ele>
        <time>2024-06-12T07:46:03Z</time>
      </trkpt>
      <trkpt lat="43.27953" lon="5.95522">
        <ele>293.8</ele>
        <time>2024-06-12T07:46:04Z</time>
      </trkpt>
      <trkpt lat="43.27953" lon="5.95515">
        <ele>293.8</ele>
        <time>2024-06-12T07:46:05Z</time>
      </trkpt>
      <trkpt lat="43.27954" lon="5.95513">
        <ele>293.8</ele>
        <time>2024-06-12T07:46:06Z</time>
      </trkpt>
      <trkpt lat="43.27955" lon="5.95509">
        <ele>294.4</ele>
        <time>2024-06-12T07:46:07Z</time>
      </trkpt>
      <trkpt lat="43.27956" lon="5.95502">
        <ele>294.6</ele>
        <time>2024-06-12T07:46:08Z</time>
      </trkpt>
      <trkpt lat="43.27957" lon="5.95499">
        <ele>294.6</ele>
        <time>2024-06-12T07:46:09Z</time>
      </trkpt>
      <trkpt lat="43.27958" lon="5.95492">
        <ele>294.6</ele>
        <time>2024-06-12T07:46:10Z</time>
      </trkpt>
      <trkpt lat="43.27958" lon="5.95489">
        <ele>294.6</ele>
        <time>2024-06-12T07:46:11Z</time>
      </trkpt>
      <trkpt lat="43.27959" lon="5.95482">
        <ele>294.6</ele>
        <time>2024-06-12T07:46:12Z</time>
      </trkpt>
      <trkpt lat="43.2796" lon="5.95479">
        <ele>295</ele>
        <time>2024-06-12T07:46:13Z</time>
      </trkpt>
      <trkpt lat="43.27961" lon="5.95472">
        <ele>295</ele>
        <time>2024-06-12T07:46:14Z</time>
      </trkpt>
      <trkpt lat="43.27961" lon="5.95469">
        <ele>295.6</ele>
        <time>2024-06-12T07:46:15Z</time>
      </trkpt>
      <trkpt lat="43.27962" lon="5.95464">
        <ele>295.8</ele>
        <time>2024-06-12T07:46:16Z</time>
      </trkpt>
      <trkpt lat="43.27964" lon="5.95457">
        <ele>295.8</ele>
        <time>2024-06-12T07:46:17Z</time>
      </trkpt>
      <trkpt lat="43.27965" lon="5.95455">
        <ele>295.8</ele>
        <time>2024-06-12T07:46:18Z</time>
      </trkpt>
      <trkpt lat="43.27966" lon="5.95452">
        <ele>295.8</ele>
        <time>2024-06-12T07:46:19Z</time>
      </trkpt>
      <trkpt lat="43.27967" lon="5.95448">
        <ele>296</ele>
        <time>2024-06-12T07:46:20Z</time>
      </trkpt>
      <trkpt lat="43.27968" lon="5.95444">
        <ele>295.8</ele>
        <time>2024-06-12T07:46:21Z</time>
      </trkpt>
      <trkpt lat="43.2797" lon="5.9544">
        <ele>295.8</ele>
        <time>2024-06-12T07:46:22Z</time>
      </trkpt>
      <trkpt lat="43.27971" lon="5.95435">
        <ele>295.8</ele>
        <time>2024-06-12T07:46:23Z</time>
      </trkpt>
      <trkpt lat="43.27972" lon="5.9543">
        <ele>296</ele>
        <time>2024-06-12T07:46:24Z</time>
      </trkpt>
      <trkpt lat="43.27973" lon="5.95425">
        <ele>296</ele>
        <time>2024-06-12T07:46:25Z</time>
      </trkpt>
      <trkpt lat="43.27974" lon="5.9542">
        <ele>296</ele>
        <time>2024-06-12T07:46:26Z</time>
      </trkpt>
      <trkpt lat="43.27974" lon="5.95415">
        <ele>296</ele>
        <time>2024-06-12T07:46:27Z</time>
      </trkpt>
      <trkpt lat="43.27974" lon="5.9541">
        <ele>296.2</ele>
        <time>2024-06-12T07:46:28Z</time>
      </trkpt>
      <trkpt lat="43.27973" lon="5.95404">
        <ele>296.4</ele>
        <time>2024-06-12T07:46:29Z</time>
      </trkpt>
      <trkpt lat="43.27972" lon="5.95399">
        <ele>296.4</ele>
        <time>2024-06-12T07:46:30Z</time>
      </trkpt>
      <trkpt lat="43.27971" lon="5.95394">
        <ele>296.4</ele>
        <time>2024-06-12T07:46:31Z</time>
      </trkpt>
      <trkpt lat="43.27969" lon="5.95388">
        <ele>296.8</ele>
        <time>2024-06-12T07:46:32Z</time>
      </trkpt>
      <trkpt lat="43.27968" lon="5.95383">
        <ele>296.8</ele>
        <time>2024-06-12T07:46:33Z</time>
      </trkpt>
      <trkpt lat="43.27966" lon="5.95378">
        <ele>297</ele>
        <time>2024-06-12T07:46:34Z</time>
      </trkpt>
      <trkpt lat="43.27964" lon="5.95373">
        <ele>297</ele>
        <time>2024-06-12T07:46:35Z</time>
      </trkpt>
      <trkpt lat="43.27962" lon="5.95366">
        <ele>297</ele>
        <time>2024-06-12T07:46:36Z</time>
      </trkpt>
      <trkpt lat="43.27961" lon="5.95363">
        <ele>297.4</ele>
        <time>2024-06-12T07:46:37Z</time>
      </trkpt>
      <trkpt lat="43.27958" lon="5.95355">
        <ele>297.4</ele>
        <time>2024-06-12T07:46:38Z</time>
      </trkpt>
      <trkpt lat="43.27958" lon="5.95353">
        <ele>297.8</ele>
        <time>2024-06-12T07:46:39Z</time>
      </trkpt>
      <trkpt lat="43.27955" lon="5.95346">
        <ele>297.8</ele>
        <time>2024-06-12T07:46:40Z</time>
      </trkpt>
      <trkpt lat="43.27954" lon="5.95343">
        <ele>297.8</ele>
        <time>2024-06-12T07:46:41Z</time>
      </trkpt>
      <trkpt lat="43.27952" lon="5.95336">
        <ele>298.4</ele>
        <time>2024-06-12T07:46:42Z</time>
      </trkpt>
      <trkpt lat="43.27951" lon="5.95334">
        <ele>298.4</ele>
        <time>2024-06-12T07:46:43Z</time>
      </trkpt>
      <trkpt lat="43.27949" lon="5.95327">
        <ele>298.6</ele>
        <time>2024-06-12T07:46:44Z</time>
      </trkpt>
      <trkpt lat="43.27948" lon="5.95324">
        <ele>298.6</ele>
        <time>2024-06-12T07:46:45Z</time>
      </trkpt>
      <trkpt lat="43.27947" lon="5.9532">
        <ele>298.6</ele>
        <time>2024-06-12T07:46:46Z</time>
      </trkpt>
      <trkpt lat="43.27946" lon="5.95313">
        <ele>299</ele>
        <time>2024-06-12T07:46:47Z</time>
      </trkpt>
      <trkpt lat="43.27946" lon="5.95311">
        <ele>299.4</ele>
        <time>2024-06-12T07:46:48Z</time>
      </trkpt>
      <trkpt lat="43.27945" lon="5.95305">
        <ele>299.4</ele>
        <time>2024-06-12T07:46:49Z</time>
      </trkpt>
      <trkpt lat="43.27944" lon="5.95303">
        <ele>299.4</ele>
        <time>2024-06-12T07:46:50Z</time>
      </trkpt>
      <trkpt lat="43.27943" lon="5.95298">
        <ele>299.4</ele>
        <time>2024-06-12T07:46:51Z</time>
      </trkpt>
      <trkpt lat="43.27943" lon="5.95296">
        <ele>300</ele>
        <time>2024-06-12T07:46:52Z</time>
      </trkpt>
      <trkpt lat="43.27943" lon="5.9529">
        <ele>300</ele>
        <time>2024-06-12T07:46:53Z</time>
      </trkpt>
      <trkpt lat="43.27943" lon="5.95288">
        <ele>300</ele>
        <time>2024-06-12T07:46:54Z</time>
      </trkpt>
      <trkpt lat="43.27943" lon="5.95283">
        <ele>300</ele>
        <time>2024-06-12T07:46:55Z</time>
      </trkpt>
      <trkpt lat="43.27943" lon="5.95281">
        <ele>300.8</ele>
        <time>2024-06-12T07:46:56Z</time>
      </trkpt>
      <trkpt lat="43.27943" lon="5.95278">
        <ele>300.8</ele>
        <time>2024-06-12T07:46:57Z</time>
      </trkpt>
      <trkpt lat="43.27944" lon="5.95273">
        <ele>300.8</ele>
        <time>2024-06-12T07:46:58Z</time>
      </trkpt>
      <trkpt lat="43.27944" lon="5.95272">
        <ele>300.8</ele>
        <time>2024-06-12T07:46:59Z</time>
      </trkpt>
      <trkpt lat="43.27944" lon="5.95268">
        <ele>301.4</ele>
        <time>2024-06-12T07:47:00Z</time>
      </trkpt>
      <trkpt lat="43.27944" lon="5.95265">
        <ele>301.6</ele>
        <time>2024-06-12T07:47:01Z</time>
      </trkpt>
      <trkpt lat="43.27944" lon="5.95262">
        <ele>301.6</ele>
        <time>2024-06-12T07:47:02Z</time>
      </trkpt>
      <trkpt lat="43.27944" lon="5.95258">
        <ele>301.6</ele>
        <time>2024-06-12T07:47:03Z</time>
      </trkpt>
      <trkpt lat="43.27945" lon="5.95254">
        <ele>301.6</ele>
        <time>2024-06-12T07:47:04Z</time>
      </trkpt>
      <trkpt lat="43.27945" lon="5.9525">
        <ele>302.4</ele>
        <time>2024-06-12T07:47:05Z</time>
      </trkpt>
      <trkpt lat="43.27946" lon="5.95247">
        <ele>302.4</ele>
        <time>2024-06-12T07:47:06Z</time>
      </trkpt>
      <trkpt lat="43.27946" lon="5.95243">
        <ele>302.4</ele>
        <time>2024-06-12T07:47:07Z</time>
      </trkpt>
      <trkpt lat="43.27946" lon="5.9524">
        <ele>302.4</ele>
        <time>2024-06-12T07:47:08Z</time>
      </trkpt>
      <trkpt lat="43.27946" lon="5.95236">
        <ele>303</ele>
        <time>2024-06-12T07:47:09Z</time>
      </trkpt>
      <trkpt lat="43.27946" lon="5.95232">
        <ele>303</ele>
        <time>2024-06-12T07:47:10Z</time>
      </trkpt>
      <trkpt lat="43.27946" lon="5.95228">
        <ele>303</ele>
        <time>2024-06-12T07:47:11Z</time>
      </trkpt>
      <trkpt lat="43.27946" lon="5.95225">
        <ele>303</ele>
        <time>2024-06-12T07:47:12Z</time>
      </trkpt>
      <trkpt lat="43.27946" lon="5.95221">
        <ele>303.6</ele>
        <time>2024-06-12T07:47:13Z</time>
      </trkpt>
      <trkpt lat="43.27946" lon="5.95217">
        <ele>303.8</ele>
        <time>2024-06-12T07:47:14Z</time>
      </trkpt>
      <trkpt lat="43.27946" lon="5.95213">
        <ele>303.8</ele>
        <time>2024-06-12T07:47:15Z</time>
      </trkpt>
      <trkpt lat="43.27947" lon="5.95209">
        <ele>303.8</ele>
        <time>2024-06-12T07:47:16Z</time>
      </trkpt>
      <trkpt lat="43.27946" lon="5.95206">
        <ele>303.8</ele>
        <time>2024-06-12T07:47:17Z</time>
      </trkpt>
      <trkpt lat="43.27945" lon="5.95202">
        <ele>304.4</ele>
        <time>2024-06-12T07:47:18Z</time>
      </trkpt>
      <trkpt lat="43.27944" lon="5.95198">
        <ele>304.4</ele>
        <time>2024-06-12T07:47:19Z</time>
      </trkpt>
      <trkpt lat="43.27943" lon="5.95194">
        <ele>304.4</ele>
        <time>2024-06-12T07:47:20Z</time>
      </trkpt>
      <trkpt lat="43.27942" lon="5.9519">
        <ele>304.4</ele>
        <time>2024-06-12T07:47:21Z</time>
      </trkpt>
      <trkpt lat="43.27941" lon="5.95187">
        <ele>304.4</ele>
        <time>2024-06-12T07:47:22Z</time>
      </trkpt>
      <trkpt lat="43.2794" lon="5.95183">
        <ele>304.8</ele>
        <time>2024-06-12T07:47:23Z</time>
      </trkpt>
      <trkpt lat="43.27939" lon="5.95179">
        <ele>304.8</ele>
        <time>2024-06-12T07:47:24Z</time>
      </trkpt>
      <trkpt lat="43.27938" lon="5.95175">
        <ele>304.8</ele>
        <time>2024-06-12T07:47:25Z</time>
      </trkpt>
      <trkpt lat="43.27937" lon="5.9517">
        <ele>304.8</ele>
        <time>2024-06-12T07:47:26Z</time>
      </trkpt>
      <trkpt lat="43.27935" lon="5.95164">
        <ele>305.4</ele>
        <time>2024-06-12T07:47:27Z</time>
      </trkpt>
      <trkpt lat="43.27934" lon="5.95162">
        <ele>305.4</ele>
        <time>2024-06-12T07:47:28Z</time>
      </trkpt>
      <trkpt lat="43.27931" lon="5.95156">
        <ele>305.4</ele>
        <time>2024-06-12T07:47:29Z</time>
      </trkpt>
      <trkpt lat="43.2793" lon="5.95154">
        <ele>305.4</ele>
        <time>2024-06-12T07:47:30Z</time>
      </trkpt>
      <trkpt lat="43.27927" lon="5.95148">
        <ele>306</ele>
        <time>2024-06-12T07:47:31Z</time>
      </trkpt>
      <trkpt lat="43.27926" lon="5.95146">
        <ele>306</ele>
        <time>2024-06-12T07:47:32Z</time>
      </trkpt>
      <trkpt lat="43.27925" lon="5.95142">
        <ele>306</ele>
        <time>2024-06-12T07:47:33Z</time>
      </trkpt>
      <trkpt lat="43.27922" lon="5.95136">
        <ele>306</ele>
        <time>2024-06-12T07:47:34Z</time>
      </trkpt>
      <trkpt lat="43.27921" lon="5.95134">
        <ele>306</ele>
        <time>2024-06-12T07:47:35Z</time>
      </trkpt>
      <trkpt lat="43.27919" lon="5.95129">
        <ele>306.4</ele>
        <time>2024-06-12T07:47:36Z</time>
      </trkpt>
      <trkpt lat="43.27918" lon="5.95127">
        <ele>306.4</ele>
        <time>2024-06-12T07:47:37Z</time>
      </trkpt>
      <trkpt lat="43.27916" lon="5.95121">
        <ele>306.4</ele>
        <time>2024-06-12T07:47:38Z</time>
      </trkpt>
      <trkpt lat="43.27915" lon="5.95119">
        <ele>306.4</ele>
        <time>2024-06-12T07:47:39Z</time>
      </trkpt>
      <trkpt lat="43.27914" lon="5.95115">
        <ele>306.8</ele>
        <time>2024-06-12T07:47:40Z</time>
      </trkpt>
      <trkpt lat="43.27912" lon="5.95108">
        <ele>306.8</ele>
        <time>2024-06-12T07:47:41Z</time>
      </trkpt>
      <trkpt lat="43.27911" lon="5.95106">
        <ele>306.8</ele>
        <time>2024-06-12T07:47:42Z</time>
      </trkpt>
      <trkpt lat="43.2791" lon="5.95102">
        <ele>306.8</ele>
        <time>2024-06-12T07:47:43Z</time>
      </trkpt>
      <trkpt lat="43.27909" lon="5.95098">
        <ele>306.8</ele>
        <time>2024-06-12T07:47:44Z</time>
      </trkpt>
      <trkpt lat="43.27908" lon="5.95093">
        <ele>307.2</ele>
        <time>2024-06-12T07:47:45Z</time>
      </trkpt>
      <trkpt lat="43.27908" lon="5.95088">
        <ele>307.2</ele>
        <time>2024-06-12T07:47:46Z</time>
      </trkpt>
      <trkpt lat="43.27907" lon="5.95081">
        <ele>307.2</ele>
        <time>2024-06-12T07:47:47Z</time>
      </trkpt>
      <trkpt lat="43.27907" lon="5.95079">
        <ele>307.2</ele>
        <time>2024-06-12T07:47:48Z</time>
      </trkpt>
      <trkpt lat="43.27907" lon="5.95074">
        <ele>307.6</ele>
        <time>2024-06-12T07:47:49Z</time>
      </trkpt>
      <trkpt lat="43.27906" lon="5.9507">
        <ele>307.6</ele>
        <time>2024-06-12T07:47:50Z</time>
      </trkpt>
      <trkpt lat="43.27906" lon="5.95065">
        <ele>307.6</ele>
        <time>2024-06-12T07:47:51Z</time>
      </trkpt>
      <trkpt lat="43.27906" lon="5.95061">
        <ele>307.6</ele>
        <time>2024-06-12T07:47:52Z</time>
      </trkpt>
      <trkpt lat="43.27905" lon="5.95056">
        <ele>307.6</ele>
        <time>2024-06-12T07:47:53Z</time>
      </trkpt>
      <trkpt lat="43.27905" lon="5.95052">
        <ele>307.8</ele>
        <time>2024-06-12T07:47:54Z</time>
      </trkpt>
      <trkpt lat="43.27905" lon="5.95048">
        <ele>307.8</ele>
        <time>2024-06-12T07:47:55Z</time>
      </trkpt>
      <trkpt lat="43.27904" lon="5.95044">
        <ele>307.8</ele>
        <time>2024-06-12T07:47:56Z</time>
      </trkpt>
      <trkpt lat="43.27904" lon="5.95039">
        <ele>307.8</ele>
        <time>2024-06-12T07:47:57Z</time>
      </trkpt>
      <trkpt lat="43.27904" lon="5.95035">
        <ele>308</ele>
        <time>2024-06-12T07:47:58Z</time>
      </trkpt>
      <trkpt lat="43.27903" lon="5.95031">
        <ele>308.4</ele>
        <time>2024-06-12T07:47:59Z</time>
      </trkpt>
      <trkpt lat="43.27903" lon="5.95027">
        <ele>308.4</ele>
        <time>2024-06-12T07:48:00Z</time>
      </trkpt>
      <trkpt lat="43.27903" lon="5.95023">
        <ele>308.4</ele>
        <time>2024-06-12T07:48:01Z</time>
      </trkpt>
      <trkpt lat="43.27902" lon="5.95019">
        <ele>308.4</ele>
        <time>2024-06-12T07:48:02Z</time>
      </trkpt>
      <trkpt lat="43.27902" lon="5.95015">
        <ele>308.4</ele>
        <time>2024-06-12T07:48:03Z</time>
      </trkpt>
      <trkpt lat="43.27901" lon="5.95009">
        <ele>308.4</ele>
        <time>2024-06-12T07:48:04Z</time>
      </trkpt>
      <trkpt lat="43.27901" lon="5.95007">
        <ele>308.4</ele>
        <time>2024-06-12T07:48:05Z</time>
      </trkpt>
      <trkpt lat="43.279" lon="5.95002">
        <ele>308.4</ele>
        <time>2024-06-12T07:48:06Z</time>
      </trkpt>
      <trkpt lat="43.279" lon="5.95">
        <ele>308.6</ele>
        <time>2024-06-12T07:48:07Z</time>
      </trkpt>
      <trkpt lat="43.27899" lon="5.94993">
        <ele>308.8</ele>
        <time>2024-06-12T07:48:08Z</time>
      </trkpt>
      <trkpt lat="43.27899" lon="5.94991">
        <ele>308.8</ele>
        <time>2024-06-12T07:48:09Z</time>
      </trkpt>
      <trkpt lat="43.27898" lon="5.94987">
        <ele>308.8</ele>
        <time>2024-06-12T07:48:10Z</time>
      </trkpt>
      <trkpt lat="43.27897" lon="5.94981">
        <ele>308.8</ele>
        <time>2024-06-12T07:48:11Z</time>
      </trkpt>
      <trkpt lat="43.27897" lon="5.94979">
        <ele>309.2</ele>
        <time>2024-06-12T07:48:12Z</time>
      </trkpt>
      <trkpt lat="43.27896" lon="5.94973">
        <ele>309.4</ele>
        <time>2024-06-12T07:48:13Z</time>
      </trkpt>
      <trkpt lat="43.27895" lon="5.94971">
        <ele>309.4</ele>
        <time>2024-06-12T07:48:14Z</time>
      </trkpt>
      <trkpt lat="43.27895" lon="5.94967">
        <ele>309.4</ele>
        <time>2024-06-12T07:48:15Z</time>
      </trkpt>
      <trkpt lat="43.27894" lon="5.9496">
        <ele>309.4</ele>
        <time>2024-06-12T07:48:16Z</time>
      </trkpt>
      <trkpt lat="43.27894" lon="5.94958">
        <ele>310.2</ele>
        <time>2024-06-12T07:48:17Z</time>
      </trkpt>
      <trkpt lat="43.27894" lon="5.94951">
        <ele>310.2</ele>
        <time>2024-06-12T07:48:18Z</time>
      </trkpt>
      <trkpt lat="43.27893" lon="5.94949">
        <ele>310.2</ele>
        <time>2024-06-12T07:48:19Z</time>
      </trkpt>
      <trkpt lat="43.27893" lon="5.94945">
        <ele>310.2</ele>
        <time>2024-06-12T07:48:20Z</time>
      </trkpt>
      <trkpt lat="43.27893" lon="5.94941">
        <ele>310.8</ele>
        <time>2024-06-12T07:48:21Z</time>
      </trkpt>
      <trkpt lat="43.27892" lon="5.94938">
        <ele>311</ele>
        <time>2024-06-12T07:48:22Z</time>
      </trkpt>
      <trkpt lat="43.27892" lon="5.94934">
        <ele>311</ele>
        <time>2024-06-12T07:48:23Z</time>
      </trkpt>
      <trkpt lat="43.27891" lon="5.9493">
        <ele>311</ele>
        <time>2024-06-12T07:48:24Z</time>
      </trkpt>
      <trkpt lat="43.27891" lon="5.94924">
        <ele>311.4</ele>
        <time>2024-06-12T07:48:25Z</time>
      </trkpt>
      <trkpt lat="43.27891" lon="5.94922">
        <ele>311.6</ele>
        <time>2024-06-12T07:48:26Z</time>
      </trkpt>
      <trkpt lat="43.27891" lon="5.94918">
        <ele>311.6</ele>
        <time>2024-06-12T07:48:27Z</time>
      </trkpt>
      <trkpt lat="43.27891" lon="5.94914">
        <ele>311.6</ele>
        <time>2024-06-12T07:48:28Z</time>
      </trkpt>
      <trkpt lat="43.2789" lon="5.9491">
        <ele>312.2</ele>
        <time>2024-06-12T07:48:29Z</time>
      </trkpt>
      <trkpt lat="43.2789" lon="5.94906">
        <ele>312.2</ele>
        <time>2024-06-12T07:48:30Z</time>
      </trkpt>
      <trkpt lat="43.27889" lon="5.94903">
        <ele>312.6</ele>
        <time>2024-06-12T07:48:31Z</time>
      </trkpt>
      <trkpt lat="43.27889" lon="5.94899">
        <ele>312.6</ele>
        <time>2024-06-12T07:48:32Z</time>
      </trkpt>
      <trkpt lat="43.27889" lon="5.94895">
        <ele>312.6</ele>
        <time>2024-06-12T07:48:33Z</time>
      </trkpt>
      <trkpt lat="43.27888" lon="5.94892">
        <ele>313.2</ele>
        <time>2024-06-12T07:48:34Z</time>
      </trkpt>
      <trkpt lat="43.27888" lon="5.94888">
        <ele>313.4</ele>
        <time>2024-06-12T07:48:35Z</time>
      </trkpt>
      <trkpt lat="43.27887" lon="5.94885">
        <ele>313.4</ele>
        <time>2024-06-12T07:48:36Z</time>
      </trkpt>
      <trkpt lat="43.27887" lon="5.94882">
        <ele>313.4</ele>
        <time>2024-06-12T07:48:37Z</time>
      </trkpt>
      <trkpt lat="43.27886" lon="5.94879">
        <ele>313.4</ele>
        <time>2024-06-12T07:48:38Z</time>
      </trkpt>
      <trkpt lat="43.27885" lon="5.94876">
        <ele>313.8</ele>
        <time>2024-06-12T07:48:39Z</time>
      </trkpt>
      <trkpt lat="43.27885" lon="5.94873">
        <ele>313.8</ele>
        <time>2024-06-12T07:48:40Z</time>
      </trkpt>
      <trkpt lat="43.27885" lon="5.94869">
        <ele>313.8</ele>
        <time>2024-06-12T07:48:41Z</time>
      </trkpt>
      <trkpt lat="43.27884" lon="5.94866">
        <ele>313.8</ele>
        <time>2024-06-12T07:48:42Z</time>
      </trkpt>
      <trkpt lat="43.27884" lon="5.94863">
        <ele>314.2</ele>
        <time>2024-06-12T07:48:43Z</time>
      </trkpt>
      <trkpt lat="43.27884" lon="5.9486">
        <ele>314.2</ele>
        <time>2024-06-12T07:48:44Z</time>
      </trkpt>
      <trkpt lat="43.27883" lon="5.94856">
        <ele>314.2</ele>
        <time>2024-06-12T07:48:45Z</time>
      </trkpt>
      <trkpt lat="43.27883" lon="5.94853">
        <ele>314.2</ele>
        <time>2024-06-12T07:48:46Z</time>
      </trkpt>
      <trkpt lat="43.27882" lon="5.9485">
        <ele>314.6</ele>
        <time>2024-06-12T07:48:47Z</time>
      </trkpt>
      <trkpt lat="43.27882" lon="5.94846">
        <ele>314.6</ele>
        <time>2024-06-12T07:48:48Z</time>
      </trkpt>
      <trkpt lat="43.27882" lon="5.94843">
        <ele>315</ele>
        <time>2024-06-12T07:48:49Z</time>
      </trkpt>
      <trkpt lat="43.27882" lon="5.94838">
        <ele>315</ele>
        <time>2024-06-12T07:48:50Z</time>
      </trkpt>
      <trkpt lat="43.27882" lon="5.94837">
        <ele>315</ele>
        <time>2024-06-12T07:48:51Z</time>
      </trkpt>
      <trkpt lat="43.27882" lon="5.94832">
        <ele>315</ele>
        <time>2024-06-12T07:48:52Z</time>
      </trkpt>
      <trkpt lat="43.27883" lon="5.94831">
        <ele>314.8</ele>
        <time>2024-06-12T07:48:53Z</time>
      </trkpt>
      <trkpt lat="43.27883" lon="5.94826">
        <ele>315</ele>
        <time>2024-06-12T07:48:54Z</time>
      </trkpt>
      <trkpt lat="43.27883" lon="5.94825">
        <ele>315</ele>
        <time>2024-06-12T07:48:55Z</time>
      </trkpt>
      <trkpt lat="43.27884" lon="5.9482">
        <ele>315</ele>
        <time>2024-06-12T07:48:56Z</time>
      </trkpt>
      <trkpt lat="43.27884" lon="5.94818">
        <ele>315.2</ele>
        <time>2024-06-12T07:48:57Z</time>
      </trkpt>
      <trkpt lat="43.27885" lon="5.94813">
        <ele>315.2</ele>
        <time>2024-06-12T07:48:58Z</time>
      </trkpt>
      <trkpt lat="43.27886" lon="5.94811">
        <ele>315.2</ele>
        <time>2024-06-12T07:48:59Z</time>
      </trkpt>
      <trkpt lat="43.27887" lon="5.94806">
        <ele>315.2</ele>
        <time>2024-06-12T07:49:00Z</time>
      </trkpt>
      <trkpt lat="43.27888" lon="5.94805">
        <ele>315.4</ele>
        <time>2024-06-12T07:49:01Z</time>
      </trkpt>
      <trkpt lat="43.27889" lon="5.948">
        <ele>315.6</ele>
        <time>2024-06-12T07:49:02Z</time>
      </trkpt>
      <trkpt lat="43.2789" lon="5.94799">
        <ele>315.6</ele>
        <time>2024-06-12T07:49:03Z</time>
      </trkpt>
      <trkpt lat="43.27892" lon="5.94794">
        <ele>315.6</ele>
        <time>2024-06-12T07:49:04Z</time>
      </trkpt>
      <trkpt lat="43.27893" lon="5.94793">
        <ele>315.6</ele>
        <time>2024-06-12T07:49:05Z</time>
      </trkpt>
      <trkpt lat="43.27894" lon="5.9479">
        <ele>316</ele>
        <time>2024-06-12T07:49:06Z</time>
      </trkpt>
      <trkpt lat="43.27896" lon="5.94787">
        <ele>316</ele>
        <time>2024-06-12T07:49:07Z</time>
      </trkpt>
      <trkpt lat="43.27896" lon="5.94786">
        <ele>316</ele>
        <time>2024-06-12T07:49:08Z</time>
      </trkpt>
      <trkpt lat="43.27897" lon="5.94783">
        <ele>316</ele>
        <time>2024-06-12T07:49:09Z</time>
      </trkpt>
      <trkpt lat="43.27898" lon="5.94778">
        <ele>316.4</ele>
        <time>2024-06-12T07:49:10Z</time>
      </trkpt>
      <trkpt lat="43.27899" lon="5.94777">
        <ele>316.4</ele>
        <time>2024-06-12T07:49:11Z</time>
      </trkpt>
      <trkpt lat="43.279" lon="5.94774">
        <ele>316.2</ele>
        <time>2024-06-12T07:49:12Z</time>
      </trkpt>
      <trkpt lat="43.27901" lon="5.94772">
        <ele>316.2</ele>
        <time>2024-06-12T07:49:13Z</time>
      </trkpt>
      <trkpt lat="43.27902" lon="5.94769">
        <ele>316.8</ele>
        <time>2024-06-12T07:49:14Z</time>
      </trkpt>
      <trkpt lat="43.27903" lon="5.94767">
        <ele>316.8</ele>
        <time>2024-06-12T07:49:15Z</time>
      </trkpt>
      <trkpt lat="43.27905" lon="5.94764">
        <ele>316.8</ele>
        <time>2024-06-12T07:49:16Z</time>
      </trkpt>
      <trkpt lat="43.27906" lon="5.94761">
        <ele>316.8</ele>
        <time>2024-06-12T07:49:17Z</time>
      </trkpt>
      <trkpt lat="43.27907" lon="5.94757">
        <ele>316.8</ele>
        <time>2024-06-12T07:49:18Z</time>
      </trkpt>
      <trkpt lat="43.27908" lon="5.94755">
        <ele>317.2</ele>
        <time>2024-06-12T07:49:19Z</time>
      </trkpt>
      <trkpt lat="43.27909" lon="5.94752">
        <ele>317.2</ele>
        <time>2024-06-12T07:49:20Z</time>
      </trkpt>
      <trkpt lat="43.2791" lon="5.9475">
        <ele>317.2</ele>
        <time>2024-06-12T07:49:21Z</time>
      </trkpt>
      <trkpt lat="43.27911" lon="5.94748">
        <ele>317.2</ele>
        <time>2024-06-12T07:49:22Z</time>
      </trkpt>
      <trkpt lat="43.27912" lon="5.94746">
        <ele>317.2</ele>
        <time>2024-06-12T07:49:23Z</time>
      </trkpt>
      <trkpt lat="43.27913" lon="5.94743">
        <ele>317.2</ele>
        <time>2024-06-12T07:49:24Z</time>
      </trkpt>
      <trkpt lat="43.27914" lon="5.9474">
        <ele>318</ele>
        <time>2024-06-12T07:49:25Z</time>
      </trkpt>
      <trkpt lat="43.27916" lon="5.94737">
        <ele>318</ele>
        <time>2024-06-12T07:49:26Z</time>
      </trkpt>
      <trkpt lat="43.27917" lon="5.94733">
        <ele>318</ele>
        <time>2024-06-12T07:49:27Z</time>
      </trkpt>
      <trkpt lat="43.27918" lon="5.94731">
        <ele>318.2</ele>
        <time>2024-06-12T07:49:28Z</time>
      </trkpt>
      <trkpt lat="43.2792" lon="5.94727">
        <ele>318.4</ele>
        <time>2024-06-12T07:49:29Z</time>
      </trkpt>
      <trkpt lat="43.2792" lon="5.94726">
        <ele>318.4</ele>
        <time>2024-06-12T07:49:30Z</time>
      </trkpt>
      <trkpt lat="43.27922" lon="5.94722">
        <ele>318.4</ele>
        <time>2024-06-12T07:49:31Z</time>
      </trkpt>
      <trkpt lat="43.27923" lon="5.94721">
        <ele>318.4</ele>
        <time>2024-06-12T07:49:32Z</time>
      </trkpt>
      <trkpt lat="43.27925" lon="5.94716">
        <ele>318.8</ele>
        <time>2024-06-12T07:49:33Z</time>
      </trkpt>
      <trkpt lat="43.27926" lon="5.94715">
        <ele>319</ele>
        <time>2024-06-12T07:49:34Z</time>
      </trkpt>
      <trkpt lat="43.27927" lon="5.94711">
        <ele>319</ele>
        <time>2024-06-12T07:49:35Z</time>
      </trkpt>
      <trkpt lat="43.27928" lon="5.94709">
        <ele>319</ele>
        <time>2024-06-12T07:49:36Z</time>
      </trkpt>
      <trkpt lat="43.2793" lon="5.94705">
        <ele>319</ele>
        <time>2024-06-12T07:49:37Z</time>
      </trkpt>
      <trkpt lat="43.2793" lon="5.94704">
        <ele>319.4</ele>
        <time>2024-06-12T07:49:38Z</time>
      </trkpt>
      <trkpt lat="43.27932" lon="5.94701">
        <ele>319.4</ele>
        <time>2024-06-12T07:49:39Z</time>
      </trkpt>
      <trkpt lat="43.27932" lon="5.947">
        <ele>319.4</ele>
        <time>2024-06-12T07:49:40Z</time>
      </trkpt>
      <trkpt lat="43.27934" lon="5.94696">
        <ele>319.4</ele>
        <time>2024-06-12T07:49:41Z</time>
      </trkpt>
      <trkpt lat="43.27935" lon="5.94695">
        <ele>320.2</ele>
        <time>2024-06-12T07:49:42Z</time>
      </trkpt>
      <trkpt lat="43.27935" lon="5.94693">
        <ele>320.2</ele>
        <time>2024-06-12T07:49:43Z</time>
      </trkpt>
      <trkpt lat="43.27937" lon="5.94689">
        <ele>320.2</ele>
        <time>2024-06-12T07:49:44Z</time>
      </trkpt>
      <trkpt lat="43.27937" lon="5.94688">
        <ele>320.2</ele>
        <time>2024-06-12T07:49:45Z</time>
      </trkpt>
      <trkpt lat="43.27938" lon="5.94684">
        <ele>320.2</ele>
        <time>2024-06-12T07:49:46Z</time>
      </trkpt>
      <trkpt lat="43.27939" lon="5.94682">
        <ele>321</ele>
        <time>2024-06-12T07:49:47Z</time>
      </trkpt>
      <trkpt lat="43.2794" lon="5.9468">
        <ele>321</ele>
        <time>2024-06-12T07:49:48Z</time>
      </trkpt>
      <trkpt lat="43.27941" lon="5.94676">
        <ele>321</ele>
        <time>2024-06-12T07:49:49Z</time>
      </trkpt>
      <trkpt lat="43.27942" lon="5.94675">
        <ele>321</ele>
        <time>2024-06-12T07:49:50Z</time>
      </trkpt>
      <trkpt lat="43.27943" lon="5.94672">
        <ele>321.6</ele>
        <time>2024-06-12T07:49:51Z</time>
      </trkpt>
      <trkpt lat="43.27944" lon="5.94669">
        <ele>321.8</ele>
        <time>2024-06-12T07:49:52Z</time>
      </trkpt>
      <trkpt lat="43.27945" lon="5.94665">
        <ele>321.8</ele>
        <time>2024-06-12T07:49:53Z</time>
      </trkpt>
      <trkpt lat="43.27946" lon="5.94663">
        <ele>321.8</ele>
        <time>2024-06-12T07:49:54Z</time>
      </trkpt>
      <trkpt lat="43.27947" lon="5.9466">
        <ele>322.4</ele>
        <time>2024-06-12T07:49:55Z</time>
      </trkpt>
      <trkpt lat="43.27948" lon="5.94657">
        <ele>322.4</ele>
        <time>2024-06-12T07:49:56Z</time>
      </trkpt>
      <trkpt lat="43.27949" lon="5.94653">
        <ele>322.4</ele>
        <time>2024-06-12T07:49:57Z</time>
      </trkpt>
      <trkpt lat="43.27949" lon="5.94652">
        <ele>322.4</ele>
        <time>2024-06-12T07:49:58Z</time>
      </trkpt>
      <trkpt lat="43.2795" lon="5.94647">
        <ele>323</ele>
        <time>2024-06-12T07:49:59Z</time>
      </trkpt>
      <trkpt lat="43.27951" lon="5.94646">
        <ele>323</ele>
        <time>2024-06-12T07:50:00Z</time>
      </trkpt>
      <trkpt lat="43.27952" lon="5.94641">
        <ele>323</ele>
        <time>2024-06-12T07:50:01Z</time>
      </trkpt>
      <trkpt lat="43.27953" lon="5.9464">
        <ele>323</ele>
        <time>2024-06-12T07:50:02Z</time>
      </trkpt>
      <trkpt lat="43.27955" lon="5.94636">
        <ele>323</ele>
        <time>2024-06-12T07:50:03Z</time>
      </trkpt>
      <trkpt lat="43.27955" lon="5.94635">
        <ele>323.4</ele>
        <time>2024-06-12T07:50:04Z</time>
      </trkpt>
      <trkpt lat="43.27957" lon="5.94631">
        <ele>323.6</ele>
        <time>2024-06-12T07:50:05Z</time>
      </trkpt>
      <trkpt lat="43.27958" lon="5.9463">
        <ele>323.6</ele>
        <time>2024-06-12T07:50:06Z</time>
      </trkpt>
      <trkpt lat="43.27959" lon="5.94627">
        <ele>323.6</ele>
        <time>2024-06-12T07:50:07Z</time>
      </trkpt>
      <trkpt lat="43.2796" lon="5.94626">
        <ele>323.6</ele>
        <time>2024-06-12T07:50:08Z</time>
      </trkpt>
      <trkpt lat="43.27961" lon="5.94624">
        <ele>323.6</ele>
        <time>2024-06-12T07:50:09Z</time>
      </trkpt>
      <trkpt lat="43.27962" lon="5.94622">
        <ele>324</ele>
        <time>2024-06-12T07:50:10Z</time>
      </trkpt>
      <trkpt lat="43.27963" lon="5.9462">
        <ele>324</ele>
        <time>2024-06-12T07:50:11Z</time>
      </trkpt>
      <trkpt lat="43.27964" lon="5.94618">
        <ele>324</ele>
        <time>2024-06-12T07:50:12Z</time>
      </trkpt>
      <trkpt lat="43.27965" lon="5.94616">
        <ele>324.4</ele>
        <time>2024-06-12T07:50:13Z</time>
      </trkpt>
      <trkpt lat="43.27966" lon="5.94614">
        <ele>324.4</ele>
        <time>2024-06-12T07:50:14Z</time>
      </trkpt>
      <trkpt lat="43.27967" lon="5.94612">
        <ele>324.6</ele>
        <time>2024-06-12T07:50:15Z</time>
      </trkpt>
      <trkpt lat="43.27968" lon="5.9461">
        <ele>324.6</ele>
        <time>2024-06-12T07:50:16Z</time>
      </trkpt>
      <trkpt lat="43.27969" lon="5.94609">
        <ele>324.6</ele>
        <time>2024-06-12T07:50:17Z</time>
      </trkpt>
      <trkpt lat="43.2797" lon="5.94607">
        <ele>325.2</ele>
        <time>2024-06-12T07:50:18Z</time>
      </trkpt>
      <trkpt lat="43.27971" lon="5.94605">
        <ele>325.2</ele>
        <time>2024-06-12T07:50:19Z</time>
      </trkpt>
      <trkpt lat="43.27972" lon="5.94603">
        <ele>325.2</ele>
        <time>2024-06-12T07:50:20Z</time>
      </trkpt>
      <trkpt lat="43.27974" lon="5.94601">
        <ele>325.2</ele>
        <time>2024-06-12T07:50:21Z</time>
      </trkpt>
      <trkpt lat="43.27975" lon="5.94599">
        <ele>325.2</ele>
        <time>2024-06-12T07:50:22Z</time>
      </trkpt>
      <trkpt lat="43.27976" lon="5.94596">
        <ele>325.8</ele>
        <time>2024-06-12T07:50:23Z</time>
      </trkpt>
      <trkpt lat="43.27977" lon="5.94595">
        <ele>325.8</ele>
        <time>2024-06-12T07:50:24Z</time>
      </trkpt>
      <trkpt lat="43.27978" lon="5.94593">
        <ele>325.8</ele>
        <time>2024-06-12T07:50:25Z</time>
      </trkpt>
      <trkpt lat="43.27978" lon="5.94591">
        <ele>325.8</ele>
        <time>2024-06-12T07:50:26Z</time>
      </trkpt>
      <trkpt lat="43.2798" lon="5.94589">
        <ele>326.4</ele>
        <time>2024-06-12T07:50:27Z</time>
      </trkpt>
      <trkpt lat="43.27981" lon="5.94587">
        <ele>326.6</ele>
        <time>2024-06-12T07:50:28Z</time>
      </trkpt>
      <trkpt lat="43.27982" lon="5.94585">
        <ele>326.6</ele>
        <time>2024-06-12T07:50:29Z</time>
      </trkpt>
      <trkpt lat="43.27983" lon="5.94583">
        <ele>326.6</ele>
        <time>2024-06-12T07:50:30Z</time>
      </trkpt>
      <trkpt lat="43.27984" lon="5.94581">
        <ele>327.2</ele>
        <time>2024-06-12T07:50:31Z</time>
      </trkpt>
      <trkpt lat="43.27985" lon="5.94579">
        <ele>327.4</ele>
        <time>2024-06-12T07:50:32Z</time>
      </trkpt>
      <trkpt lat="43.27986" lon="5.94578">
        <ele>327.4</ele>
        <time>2024-06-12T07:50:33Z</time>
      </trkpt>
      <trkpt lat="43.27987" lon="5.94576">
        <ele>327.4</ele>
        <time>2024-06-12T07:50:34Z</time>
      </trkpt>
      <trkpt lat="43.27988" lon="5.94574">
        <ele>328</ele>
        <time>2024-06-12T07:50:35Z</time>
      </trkpt>
      <trkpt lat="43.27989" lon="5.94572">
        <ele>328</ele>
        <time>2024-06-12T07:50:36Z</time>
      </trkpt>
      <trkpt lat="43.2799" lon="5.9457">
        <ele>328.2</ele>
        <time>2024-06-12T07:50:37Z</time>
      </trkpt>
      <trkpt lat="43.27991" lon="5.94568">
        <ele>328.2</ele>
        <time>2024-06-12T07:50:38Z</time>
      </trkpt>
      <trkpt lat="43.27992" lon="5.94566">
        <ele>328.2</ele>
        <time>2024-06-12T07:50:39Z</time>
      </trkpt>
      <trkpt lat="43.27993" lon="5.94564">
        <ele>329</ele>
        <time>2024-06-12T07:50:40Z</time>
      </trkpt>
      <trkpt lat="43.27994" lon="5.94562">
        <ele>329.2</ele>
        <time>2024-06-12T07:50:41Z</time>
      </trkpt>
      <trkpt lat="43.27996" lon="5.9456">
        <ele>329.2</ele>
        <time>2024-06-12T07:50:42Z</time>
      </trkpt>
      <trkpt lat="43.27997" lon="5.94559">
        <ele>329.2</ele>
        <time>2024-06-12T07:50:43Z</time>
      </trkpt>
      <trkpt lat="43.27998" lon="5.94557">
        <ele>329.8</ele>
        <time>2024-06-12T07:50:44Z</time>
      </trkpt>
      <trkpt lat="43.27999" lon="5.94555">
        <ele>329.8</ele>
        <time>2024-06-12T07:50:45Z</time>
      </trkpt>
      <trkpt lat="43.28" lon="5.94554">
        <ele>329.8</ele>
        <time>2024-06-12T07:50:46Z</time>
      </trkpt>
      <trkpt lat="43.28001" lon="5.94553">
        <ele>329.8</ele>
        <time>2024-06-12T07:50:47Z</time>
      </trkpt>
      <trkpt lat="43.28002" lon="5.94552">
        <ele>329.8</ele>
        <time>2024-06-12T07:50:48Z</time>
      </trkpt>
      <trkpt lat="43.28004" lon="5.9455">
        <ele>330.4</ele>
        <time>2024-06-12T07:50:49Z</time>
      </trkpt>
      <trkpt lat="43.28004" lon="5.9455">
        <ele>330.8</ele>
        <time>2024-06-12T07:50:50Z</time>
      </trkpt>
      <trkpt lat="43.28004" lon="5.94549">
        <ele>330.8</ele>
        <time>2024-06-12T07:50:51Z</time>
      </trkpt>
      <trkpt lat="43.28004" lon="5.94549">
        <ele>330.8</ele>
        <time>2024-06-12T07:50:52Z</time>
      </trkpt>
      <trkpt lat="43.28" lon="5.94544">
        <ele>332.6</ele>
        <time>2024-06-12T07:57:53Z</time>
      </trkpt>
      <trkpt lat="43.28001" lon="5.94543">
        <ele>332.6</ele>
        <time>2024-06-12T07:57:54Z</time>
      </trkpt>
      <trkpt lat="43.28001" lon="5.94543">
        <ele>332.6</ele>
        <time>2024-06-12T07:57:55Z</time>
      </trkpt>
      <trkpt lat="43.28001" lon="5.94543">
        <ele>332.6</ele>
        <time>2024-06-12T07:57:56Z</time>
      </trkpt>
      <trkpt lat="43.28001" lon="5.94543">
        <ele>332.6</ele>
        <time>2024-06-12T07:57:57Z</time>
      </trkpt>
      <trkpt lat="43.28003" lon="5.94538">
        <ele>333.8</ele>
        <time>2024-06-12T07:58:15Z</time>
      </trkpt>
      <trkpt lat="43.28004" lon="5.94536">
        <ele>333.8</ele>
        <time>2024-06-12T07:58:16Z</time>
      </trkpt>
      <trkpt lat="43.28005" lon="5.94535">
        <ele>333.8</ele>
        <time>2024-06-12T07:58:17Z</time>
      </trkpt>
      <trkpt lat="43.28006" lon="5.94533">
        <ele>333.8</ele>
        <time>2024-06-12T07:58:18Z</time>
      </trkpt>
      <trkpt lat="43.28008" lon="5.94531">
        <ele>334</ele>
        <time>2024-06-12T07:58:19Z</time>
      </trkpt>
      <trkpt lat="43.28008" lon="5.9453">
        <ele>334.2</ele>
        <time>2024-06-12T07:58:20Z</time>
      </trkpt>
      <trkpt lat="43.2801" lon="5.94529">
        <ele>334.2</ele>
        <time>2024-06-12T07:58:21Z</time>
      </trkpt>
      <trkpt lat="43.28012" lon="5.94526">
        <ele>334.2</ele>
        <time>2024-06-12T07:58:22Z</time>
      </trkpt>
      <trkpt lat="43.28013" lon="5.94526">
        <ele>334.6</ele>
        <time>2024-06-12T07:58:23Z</time>
      </trkpt>
      <trkpt lat="43.28014" lon="5.94524">
        <ele>334.4</ele>
        <time>2024-06-12T07:58:24Z</time>
      </trkpt>
      <trkpt lat="43.28015" lon="5.94522">
        <ele>334.4</ele>
        <time>2024-06-12T07:58:25Z</time>
      </trkpt>
      <trkpt lat="43.28017" lon="5.9452">
        <ele>334.4</ele>
        <time>2024-06-12T07:58:26Z</time>
      </trkpt>
      <trkpt lat="43.28018" lon="5.94519">
        <ele>334.4</ele>
        <time>2024-06-12T07:58:27Z</time>
      </trkpt>
      <trkpt lat="43.28019" lon="5.94517">
        <ele>334.6</ele>
        <time>2024-06-12T07:58:28Z</time>
      </trkpt>
      <trkpt lat="43.28021" lon="5.94514">
        <ele>334.8</ele>
        <time>2024-06-12T07:58:29Z</time>
      </trkpt>
      <trkpt lat="43.28022" lon="5.94513">
        <ele>334.8</ele>
        <time>2024-06-12T07:58:30Z</time>
      </trkpt>
      <trkpt lat="43.28022" lon="5.94511">
        <ele>334.8</ele>
        <time>2024-06-12T07:58:31Z</time>
      </trkpt>
      <trkpt lat="43.28024" lon="5.9451">
        <ele>334.8</ele>
        <time>2024-06-12T07:58:32Z</time>
      </trkpt>
      <trkpt lat="43.28025" lon="5.94508">
        <ele>335</ele>
        <time>2024-06-12T07:58:33Z</time>
      </trkpt>
      <trkpt lat="43.28026" lon="5.94507">
        <ele>335</ele>
        <time>2024-06-12T07:58:34Z</time>
      </trkpt>
      <trkpt lat="43.28028" lon="5.94504">
        <ele>335</ele>
        <time>2024-06-12T07:58:35Z</time>
      </trkpt>
      <trkpt lat="43.28029" lon="5.94502">
        <ele>335</ele>
        <time>2024-06-12T07:58:36Z</time>
      </trkpt>
      <trkpt lat="43.28031" lon="5.945">
        <ele>335</ele>
        <time>2024-06-12T07:58:37Z</time>
      </trkpt>
      <trkpt lat="43.28031" lon="5.94499">
        <ele>335</ele>
        <time>2024-06-12T07:58:38Z</time>
      </trkpt>
      <trkpt lat="43.28032" lon="5.94496">
        <ele>335</ele>
        <time>2024-06-12T07:58:39Z</time>
      </trkpt>
      <trkpt lat="43.28034" lon="5.94494">
        <ele>335</ele>
        <time>2024-06-12T07:58:40Z</time>
      </trkpt>
      <trkpt lat="43.28036" lon="5.94491">
        <ele>335</ele>
        <time>2024-06-12T07:58:41Z</time>
      </trkpt>
      <trkpt lat="43.28036" lon="5.9449">
        <ele>335.4</ele>
        <time>2024-06-12T07:58:42Z</time>
      </trkpt>
      <trkpt lat="43.28037" lon="5.94488">
        <ele>335.4</ele>
        <time>2024-06-12T07:58:43Z</time>
      </trkpt>
      <trkpt lat="43.28038" lon="5.94486">
        <ele>335.4</ele>
        <time>2024-06-12T07:58:44Z</time>
      </trkpt>
      <trkpt lat="43.28039" lon="5.94484">
        <ele>335.4</ele>
        <time>2024-06-12T07:58:45Z</time>
      </trkpt>
      <trkpt lat="43.28041" lon="5.94482">
        <ele>335.4</ele>
        <time>2024-06-12T07:58:46Z</time>
      </trkpt>
      <trkpt lat="43.28041" lon="5.9448">
        <ele>335.6</ele>
        <time>2024-06-12T07:58:47Z</time>
      </trkpt>
      <trkpt lat="43.28042" lon="5.94478">
        <ele>335.6</ele>
        <time>2024-06-12T07:58:48Z</time>
      </trkpt>
      <trkpt lat="43.28043" lon="5.94475">
        <ele>335.6</ele>
        <time>2024-06-12T07:58:49Z</time>
      </trkpt>
      <trkpt lat="43.28044" lon="5.94472">
        <ele>335.8</ele>
        <time>2024-06-12T07:58:50Z</time>
      </trkpt>
      <trkpt lat="43.28045" lon="5.9447">
        <ele>335.8</ele>
        <time>2024-06-12T07:58:51Z</time>
      </trkpt>
      <trkpt lat="43.28046" lon="5.94468">
        <ele>336</ele>
        <time>2024-06-12T07:58:52Z</time>
      </trkpt>
      <trkpt lat="43.28047" lon="5.94466">
        <ele>336</ele>
        <time>2024-06-12T07:58:53Z</time>
      </trkpt>
      <trkpt lat="43.28047" lon="5.94464">
        <ele>336</ele>
        <time>2024-06-12T07:58:54Z</time>
      </trkpt>
      <trkpt lat="43.28048" lon="5.94462">
        <ele>336.4</ele>
        <time>2024-06-12T07:58:55Z</time>
      </trkpt>
      <trkpt lat="43.28049" lon="5.9446">
        <ele>336.4</ele>
        <time>2024-06-12T07:58:56Z</time>
      </trkpt>
      <trkpt lat="43.2805" lon="5.94456">
        <ele>336.4</ele>
        <time>2024-06-12T07:58:57Z</time>
      </trkpt>
      <trkpt lat="43.2805" lon="5.94455">
        <ele>336.4</ele>
        <time>2024-06-12T07:58:58Z</time>
      </trkpt>
      <trkpt lat="43.28051" lon="5.94454">
        <ele>337</ele>
        <time>2024-06-12T07:58:59Z</time>
      </trkpt>
      <trkpt lat="43.28051" lon="5.94449">
        <ele>337</ele>
        <time>2024-06-12T07:59:00Z</time>
      </trkpt>
      <trkpt lat="43.28052" lon="5.94448">
        <ele>337.2</ele>
        <time>2024-06-12T07:59:01Z</time>
      </trkpt>
      <trkpt lat="43.28052" lon="5.94445">
        <ele>337.2</ele>
        <time>2024-06-12T07:59:02Z</time>
      </trkpt>
      <trkpt lat="43.28052" lon="5.94443">
        <ele>337.2</ele>
        <time>2024-06-12T07:59:03Z</time>
      </trkpt>
      <trkpt lat="43.28051" lon="5.9444">
        <ele>337.8</ele>
        <time>2024-06-12T07:59:04Z</time>
      </trkpt>
      <trkpt lat="43.28051" lon="5.94436">
        <ele>337.8</ele>
        <time>2024-06-12T07:59:05Z</time>
      </trkpt>
      <trkpt lat="43.28051" lon="5.94434">
        <ele>337.8</ele>
        <time>2024-06-12T07:59:06Z</time>
      </trkpt>
      <trkpt lat="43.2805" lon="5.94431">
        <ele>337.8</ele>
        <time>2024-06-12T07:59:07Z</time>
      </trkpt>
      <trkpt lat="43.2805" lon="5.94428">
        <ele>338.2</ele>
        <time>2024-06-12T07:59:08Z</time>
      </trkpt>
      <trkpt lat="43.2805" lon="5.94426">
        <ele>338.2</ele>
        <time>2024-06-12T07:59:09Z</time>
      </trkpt>
      <trkpt lat="43.28049" lon="5.94423">
        <ele>338.4</ele>
        <time>2024-06-12T07:59:10Z</time>
      </trkpt>
      <trkpt lat="43.28049" lon="5.9442">
        <ele>338.4</ele>
        <time>2024-06-12T07:59:11Z</time>
      </trkpt>
      <trkpt lat="43.28049" lon="5.94417">
        <ele>338.4</ele>
        <time>2024-06-12T07:59:12Z</time>
      </trkpt>
      <trkpt lat="43.28049" lon="5.94415">
        <ele>338.8</ele>
        <time>2024-06-12T07:59:13Z</time>
      </trkpt>
      <trkpt lat="43.28049" lon="5.94411">
        <ele>338.8</ele>
        <time>2024-06-12T07:59:14Z</time>
      </trkpt>
      <trkpt lat="43.28049" lon="5.9441">
        <ele>338.8</ele>
        <time>2024-06-12T07:59:15Z</time>
      </trkpt>
      <trkpt lat="43.28049" lon="5.94406">
        <ele>338.8</ele>
        <time>2024-06-12T07:59:16Z</time>
      </trkpt>
      <trkpt lat="43.2805" lon="5.94405">
        <ele>339.2</ele>
        <time>2024-06-12T07:59:17Z</time>
      </trkpt>
      <trkpt lat="43.2805" lon="5.94402">
        <ele>339.2</ele>
        <time>2024-06-12T07:59:18Z</time>
      </trkpt>
      <trkpt lat="43.2805" lon="5.94398">
        <ele>339.2</ele>
        <time>2024-06-12T07:59:19Z</time>
      </trkpt>
      <trkpt lat="43.2805" lon="5.94397">
        <ele>339.2</ele>
        <time>2024-06-12T07:59:20Z</time>
      </trkpt>
      <trkpt lat="43.2805" lon="5.94393">
        <ele>339.6</ele>
        <time>2024-06-12T07:59:21Z</time>
      </trkpt>
      <trkpt lat="43.2805" lon="5.94392">
        <ele>339.8</ele>
        <time>2024-06-12T07:59:22Z</time>
      </trkpt>
      <trkpt lat="43.28049" lon="5.94389">
        <ele>339.8</ele>
        <time>2024-06-12T07:59:23Z</time>
      </trkpt>
      <trkpt lat="43.28049" lon="5.94386">
        <ele>339.8</ele>
        <time>2024-06-12T07:59:24Z</time>
      </trkpt>
      <trkpt lat="43.28049" lon="5.94383">
        <ele>339.8</ele>
        <time>2024-06-12T07:59:25Z</time>
      </trkpt>
      <trkpt lat="43.28049" lon="5.94381">
        <ele>339.8</ele>
        <time>2024-06-12T07:59:26Z</time>
      </trkpt>
      <trkpt lat="43.28048" lon="5.94378">
        <ele>340.4</ele>
        <time>2024-06-12T07:59:27Z</time>
      </trkpt>
      <trkpt lat="43.28048" lon="5.94376">
        <ele>340.4</ele>
        <time>2024-06-12T07:59:28Z</time>
      </trkpt>
      <trkpt lat="43.28047" lon="5.94373">
        <ele>340.4</ele>
        <time>2024-06-12T07:59:29Z</time>
      </trkpt>
      <trkpt lat="43.28047" lon="5.94371">
        <ele>340.4</ele>
        <time>2024-06-12T07:59:30Z</time>
      </trkpt>
      <trkpt lat="43.28048" lon="5.94368">
        <ele>340.8</ele>
        <time>2024-06-12T07:59:31Z</time>
      </trkpt>
      <trkpt lat="43.28048" lon="5.94366">
        <ele>340.8</ele>
        <time>2024-06-12T07:59:32Z</time>
      </trkpt>
      <trkpt lat="43.28048" lon="5.94362">
        <ele>341.2</ele>
        <time>2024-06-12T07:59:33Z</time>
      </trkpt>
      <trkpt lat="43.28048" lon="5.94361">
        <ele>341.2</ele>
        <time>2024-06-12T07:59:34Z</time>
      </trkpt>
      <trkpt lat="43.28048" lon="5.94358">
        <ele>341.8</ele>
        <time>2024-06-12T07:59:35Z</time>
      </trkpt>
      <trkpt lat="43.28047" lon="5.94354">
        <ele>341.8</ele>
        <time>2024-06-12T07:59:36Z</time>
      </trkpt>
      <trkpt lat="43.28047" lon="5.94353">
        <ele>342.2</ele>
        <time>2024-06-12T07:59:37Z</time>
      </trkpt>
      <trkpt lat="43.28047" lon="5.94349">
        <ele>342.2</ele>
        <time>2024-06-12T07:59:38Z</time>
      </trkpt>
      <trkpt lat="43.28047" lon="5.94347">
        <ele>342.8</ele>
        <time>2024-06-12T07:59:39Z</time>
      </trkpt>
      <trkpt lat="43.28047" lon="5.94344">
        <ele>342.8</ele>
        <time>2024-06-12T07:59:40Z</time>
      </trkpt>
      <trkpt lat="43.28046" lon="5.9434">
        <ele>343.2</ele>
        <time>2024-06-12T07:59:41Z</time>
      </trkpt>
      <trkpt lat="43.28046" lon="5.94339">
        <ele>343.2</ele>
        <time>2024-06-12T07:59:42Z</time>
      </trkpt>
      <trkpt lat="43.28046" lon="5.94335">
        <ele>343.2</ele>
        <time>2024-06-12T07:59:43Z</time>
      </trkpt>
      <trkpt lat="43.28046" lon="5.94333">
        <ele>344</ele>
        <time>2024-06-12T07:59:44Z</time>
      </trkpt>
      <trkpt lat="43.28046" lon="5.94329">
        <ele>344</ele>
        <time>2024-06-12T07:59:45Z</time>
      </trkpt>
      <trkpt lat="43.28046" lon="5.94328">
        <ele>344</ele>
        <time>2024-06-12T07:59:46Z</time>
      </trkpt>
      <trkpt lat="43.28046" lon="5.94325">
        <ele>344</ele>
        <time>2024-06-12T07:59:47Z</time>
      </trkpt>
      <trkpt lat="43.28046" lon="5.94321">
        <ele>344.6</ele>
        <time>2024-06-12T07:59:48Z</time>
      </trkpt>
      <trkpt lat="43.28045" lon="5.9432">
        <ele>344.8</ele>
        <time>2024-06-12T07:59:49Z</time>
      </trkpt>
      <trkpt lat="43.28045" lon="5.94317">
        <ele>344.8</ele>
        <time>2024-06-12T07:59:50Z</time>
      </trkpt>
      <trkpt lat="43.28044" lon="5.94313">
        <ele>344.8</ele>
        <time>2024-06-12T07:59:51Z</time>
      </trkpt>
      <trkpt lat="43.28044" lon="5.94312">
        <ele>344.8</ele>
        <time>2024-06-12T07:59:52Z</time>
      </trkpt>
      <trkpt lat="43.28045" lon="5.94308">
        <ele>345.4</ele>
        <time>2024-06-12T07:59:53Z</time>
      </trkpt>
      <trkpt lat="43.28045" lon="5.94307">
        <ele>345.6</ele>
        <time>2024-06-12T07:59:54Z</time>
      </trkpt>
      <trkpt lat="43.28044" lon="5.94304">
        <ele>345.6</ele>
        <time>2024-06-12T07:59:55Z</time>
      </trkpt>
      <trkpt lat="43.28044" lon="5.94301">
        <ele>345.6</ele>
        <time>2024-06-12T07:59:56Z</time>
      </trkpt>
      <trkpt lat="43.28044" lon="5.94299">
        <ele>345.6</ele>
        <time>2024-06-12T07:59:57Z</time>
      </trkpt>
      <trkpt lat="43.28044" lon="5.94296">
        <ele>346.2</ele>
        <time>2024-06-12T07:59:58Z</time>
      </trkpt>
      <trkpt lat="43.28044" lon="5.94294">
        <ele>346.2</ele>
        <time>2024-06-12T07:59:59Z</time>
      </trkpt>
      <trkpt lat="43.28043" lon="5.94291">
        <ele>346.2</ele>
        <time>2024-06-12T08:00:00Z</time>
      </trkpt>
      <trkpt lat="43.28043" lon="5.94289">
        <ele>346.2</ele>
        <time>2024-06-12T08:00:01Z</time>
      </trkpt>
      <trkpt lat="43.28042" lon="5.94286">
        <ele>346.6</ele>
        <time>2024-06-12T08:00:02Z</time>
      </trkpt>
      <trkpt lat="43.28042" lon="5.94284">
        <ele>346.6</ele>
        <time>2024-06-12T08:00:03Z</time>
      </trkpt>
      <trkpt lat="43.28041" lon="5.94281">
        <ele>346.6</ele>
        <time>2024-06-12T08:00:04Z</time>
      </trkpt>
      <trkpt lat="43.2804" lon="5.94278">
        <ele>346.6</ele>
        <time>2024-06-12T08:00:05Z</time>
      </trkpt>
      <trkpt lat="43.2804" lon="5.94275">
        <ele>346.6</ele>
        <time>2024-06-12T08:00:06Z</time>
      </trkpt>
      <trkpt lat="43.28039" lon="5.9427">
        <ele>346.8</ele>
        <time>2024-06-12T08:00:07Z</time>
      </trkpt>
      <trkpt lat="43.28038" lon="5.94269">
        <ele>346.8</ele>
        <time>2024-06-12T08:00:08Z</time>
      </trkpt>
      <trkpt lat="43.28037" lon="5.94265">
        <ele>346.8</ele>
        <time>2024-06-12T08:00:09Z</time>
      </trkpt>
      <trkpt lat="43.28037" lon="5.94263">
        <ele>347.4</ele>
        <time>2024-06-12T08:00:10Z</time>
      </trkpt>
      <trkpt lat="43.28036" lon="5.94259">
        <ele>347.4</ele>
        <time>2024-06-12T08:00:11Z</time>
      </trkpt>
      <trkpt lat="43.28035" lon="5.94258">
        <ele>347.4</ele>
        <time>2024-06-12T08:00:12Z</time>
      </trkpt>
      <trkpt lat="43.28034" lon="5.94254">
        <ele>347.4</ele>
        <time>2024-06-12T08:00:13Z</time>
      </trkpt>
      <trkpt lat="43.28034" lon="5.94253">
        <ele>347.4</ele>
        <time>2024-06-12T08:00:14Z</time>
      </trkpt>
      <trkpt lat="43.28033" lon="5.9425">
        <ele>347.4</ele>
        <time>2024-06-12T08:00:15Z</time>
      </trkpt>
      <trkpt lat="43.28032" lon="5.94247">
        <ele>347.8</ele>
        <time>2024-06-12T08:00:16Z</time>
      </trkpt>
      <trkpt lat="43.28031" lon="5.94243">
        <ele>347.8</ele>
        <time>2024-06-12T08:00:17Z</time>
      </trkpt>
      <trkpt lat="43.2803" lon="5.94242">
        <ele>347.8</ele>
        <time>2024-06-12T08:00:18Z</time>
      </trkpt>
      <trkpt lat="43.28029" lon="5.94238">
        <ele>347.8</ele>
        <time>2024-06-12T08:00:19Z</time>
      </trkpt>
      <trkpt lat="43.28028" lon="5.94237">
        <ele>348.2</ele>
        <time>2024-06-12T08:00:20Z</time>
      </trkpt>
      <trkpt lat="43.28027" lon="5.94233">
        <ele>348.4</ele>
        <time>2024-06-12T08:00:21Z</time>
      </trkpt>
      <trkpt lat="43.28026" lon="5.94232">
        <ele>348.4</ele>
        <time>2024-06-12T08:00:22Z</time>
      </trkpt>
      <trkpt lat="43.28026" lon="5.94229">
        <ele>348.4</ele>
        <time>2024-06-12T08:00:23Z</time>
      </trkpt>
      <trkpt lat="43.28024" lon="5.94226">
        <ele>348.4</ele>
        <time>2024-06-12T08:00:24Z</time>
      </trkpt>
      <trkpt lat="43.28024" lon="5.94224">
        <ele>348.4</ele>
        <time>2024-06-12T08:00:25Z</time>
      </trkpt>
      <trkpt lat="43.28022" lon="5.94221">
        <ele>348.4</ele>
        <time>2024-06-12T08:00:26Z</time>
      </trkpt>
      <trkpt lat="43.28021" lon="5.94219">
        <ele>348.4</ele>
        <time>2024-06-12T08:00:27Z</time>
      </trkpt>
      <trkpt lat="43.2802" lon="5.94216">
        <ele>348.4</ele>
        <time>2024-06-12T08:00:28Z</time>
      </trkpt>
      <trkpt lat="43.2802" lon="5.94214">
        <ele>348.8</ele>
        <time>2024-06-12T08:00:29Z</time>
      </trkpt>
      <trkpt lat="43.28019" lon="5.94212">
        <ele>348.8</ele>
        <time>2024-06-12T08:00:30Z</time>
      </trkpt>
      <trkpt lat="43.28018" lon="5.94208">
        <ele>348.8</ele>
        <time>2024-06-12T08:00:31Z</time>
      </trkpt>
      <trkpt lat="43.28017" lon="5.94207">
        <ele>348.8</ele>
        <time>2024-06-12T08:00:32Z</time>
      </trkpt>
      <trkpt lat="43.28016" lon="5.94204">
        <ele>349</ele>
        <time>2024-06-12T08:00:33Z</time>
      </trkpt>
      <trkpt lat="43.28015" lon="5.942">
        <ele>349</ele>
        <time>2024-06-12T08:00:34Z</time>
      </trkpt>
      <trkpt lat="43.28015" lon="5.94198">
        <ele>349</ele>
        <time>2024-06-12T08:00:35Z</time>
      </trkpt>
      <trkpt lat="43.28013" lon="5.94195">
        <ele>349</ele>
        <time>2024-06-12T08:00:36Z</time>
      </trkpt>
      <trkpt lat="43.28013" lon="5.94194">
        <ele>349</ele>
        <time>2024-06-12T08:00:37Z</time>
      </trkpt>
      <trkpt lat="43.28012" lon="5.94189">
        <ele>349.2</ele>
        <time>2024-06-12T08:00:38Z</time>
      </trkpt>
      <trkpt lat="43.28011" lon="5.94188">
        <ele>349.6</ele>
        <time>2024-06-12T08:00:39Z</time>
      </trkpt>
      <trkpt lat="43.2801" lon="5.94184">
        <ele>349.6</ele>
        <time>2024-06-12T08:00:40Z</time>
      </trkpt>
      <trkpt lat="43.2801" lon="5.94182">
        <ele>349.6</ele>
        <time>2024-06-12T08:00:41Z</time>
      </trkpt>
      <trkpt lat="43.28009" lon="5.9418">
        <ele>349.6</ele>
        <time>2024-06-12T08:00:42Z</time>
      </trkpt>
      <trkpt lat="43.28008" lon="5.94177">
        <ele>349.8</ele>
        <time>2024-06-12T08:00:43Z</time>
      </trkpt>
      <trkpt lat="43.28007" lon="5.94173">
        <ele>349.8</ele>
        <time>2024-06-12T08:00:44Z</time>
      </trkpt>
      <trkpt lat="43.28007" lon="5.94172">
        <ele>349.8</ele>
        <time>2024-06-12T08:00:45Z</time>
      </trkpt>
      <trkpt lat="43.28006" lon="5.94169">
        <ele>350.2</ele>
        <time>2024-06-12T08:00:46Z</time>
      </trkpt>
      <trkpt lat="43.28005" lon="5.94166">
        <ele>350.2</ele>
        <time>2024-06-12T08:00:47Z</time>
      </trkpt>
      <trkpt lat="43.28003" lon="5.94162">
        <ele>350.2</ele>
        <time>2024-06-12T08:00:48Z</time>
      </trkpt>
      <trkpt lat="43.28003" lon="5.94161">
        <ele>350.2</ele>
        <time>2024-06-12T08:00:49Z</time>
      </trkpt>
      <trkpt lat="43.28002" lon="5.94157">
        <ele>350.2</ele>
        <time>2024-06-12T08:00:50Z</time>
      </trkpt>
      <trkpt lat="43.28001" lon="5.94156">
        <ele>350.2</ele>
        <time>2024-06-12T08:00:51Z</time>
      </trkpt>
      <trkpt lat="43.28" lon="5.94153">
        <ele>350.2</ele>
        <time>2024-06-12T08:00:52Z</time>
      </trkpt>
      <trkpt lat="43.28" lon="5.94151">
        <ele>350.4</ele>
        <time>2024-06-12T08:00:53Z</time>
      </trkpt>
      <trkpt lat="43.27998" lon="5.94148">
        <ele>350.4</ele>
        <time>2024-06-12T08:00:54Z</time>
      </trkpt>
      <trkpt lat="43.27997" lon="5.94146">
        <ele>350.4</ele>
        <time>2024-06-12T08:00:55Z</time>
      </trkpt>
      <trkpt lat="43.27996" lon="5.94143">
        <ele>350.4</ele>
        <time>2024-06-12T08:00:56Z</time>
      </trkpt>
      <trkpt lat="43.27995" lon="5.94141">
        <ele>351</ele>
        <time>2024-06-12T08:00:57Z</time>
      </trkpt>
      <trkpt lat="43.27994" lon="5.94138">
        <ele>351</ele>
        <time>2024-06-12T08:00:58Z</time>
      </trkpt>
      <trkpt lat="43.27993" lon="5.94135">
        <ele>351</ele>
        <time>2024-06-12T08:00:59Z</time>
      </trkpt>
      <trkpt lat="43.27992" lon="5.94133">
        <ele>351</ele>
        <time>2024-06-12T08:01:00Z</time>
      </trkpt>
      <trkpt lat="43.27991" lon="5.94131">
        <ele>351.2</ele>
        <time>2024-06-12T08:01:01Z</time>
      </trkpt>
      <trkpt lat="43.27989" lon="5.94128">
        <ele>351.2</ele>
        <time>2024-06-12T08:01:02Z</time>
      </trkpt>
      <trkpt lat="43.27989" lon="5.94127">
        <ele>351.2</ele>
        <time>2024-06-12T08:01:03Z</time>
      </trkpt>
      <trkpt lat="43.27987" lon="5.94123">
        <ele>351.2</ele>
        <time>2024-06-12T08:01:04Z</time>
      </trkpt>
      <trkpt lat="43.27987" lon="5.94122">
        <ele>351.6</ele>
        <time>2024-06-12T08:01:05Z</time>
      </trkpt>
      <trkpt lat="43.27986" lon="5.94119">
        <ele>351.6</ele>
        <time>2024-06-12T08:01:06Z</time>
      </trkpt>
      <trkpt lat="43.27984" lon="5.94116">
        <ele>351.6</ele>
        <time>2024-06-12T08:01:07Z</time>
      </trkpt>
      <trkpt lat="43.27984" lon="5.94115">
        <ele>351.6</ele>
        <time>2024-06-12T08:01:08Z</time>
      </trkpt>
      <trkpt lat="43.27982" lon="5.94111">
        <ele>352.4</ele>
        <time>2024-06-12T08:01:09Z</time>
      </trkpt>
      <trkpt lat="43.27981" lon="5.9411">
        <ele>352.6</ele>
        <time>2024-06-12T08:01:10Z</time>
      </trkpt>
      <trkpt lat="43.2798" lon="5.94106">
        <ele>352.6</ele>
        <time>2024-06-12T08:01:11Z</time>
      </trkpt>
      <trkpt lat="43.27979" lon="5.94104">
        <ele>352.6</ele>
        <time>2024-06-12T08:01:12Z</time>
      </trkpt>
      <trkpt lat="43.27978" lon="5.94101">
        <ele>352.6</ele>
        <time>2024-06-12T08:01:13Z</time>
      </trkpt>
      <trkpt lat="43.27977" lon="5.94097">
        <ele>353.2</ele>
        <time>2024-06-12T08:01:14Z</time>
      </trkpt>
      <trkpt lat="43.27976" lon="5.94096">
        <ele>353.4</ele>
        <time>2024-06-12T08:01:15Z</time>
      </trkpt>
      <trkpt lat="43.27975" lon="5.94093">
        <ele>353.4</ele>
        <time>2024-06-12T08:01:16Z</time>
      </trkpt>
      <trkpt lat="43.27974" lon="5.94089">
        <ele>353.4</ele>
        <time>2024-06-12T08:01:17Z</time>
      </trkpt>
      <trkpt lat="43.27973" lon="5.94088">
        <ele>353.4</ele>
        <time>2024-06-12T08:01:18Z</time>
      </trkpt>
      <trkpt lat="43.27972" lon="5.94084">
        <ele>354.2</ele>
        <time>2024-06-12T08:01:19Z</time>
      </trkpt>
      <trkpt lat="43.27972" lon="5.94082">
        <ele>354.2</ele>
        <time>2024-06-12T08:01:20Z</time>
      </trkpt>
      <trkpt lat="43.27971" lon="5.94078">
        <ele>354.2</ele>
        <time>2024-06-12T08:01:21Z</time>
      </trkpt>
      <trkpt lat="43.2797" lon="5.94077">
        <ele>354.2</ele>
        <time>2024-06-12T08:01:22Z</time>
      </trkpt>
      <trkpt lat="43.27969" lon="5.94073">
        <ele>354.8</ele>
        <time>2024-06-12T08:01:23Z</time>
      </trkpt>
      <trkpt lat="43.27969" lon="5.94072">
        <ele>354.8</ele>
        <time>2024-06-12T08:01:24Z</time>
      </trkpt>
      <trkpt lat="43.27968" lon="5.94069">
        <ele>354.8</ele>
        <time>2024-06-12T08:01:25Z</time>
      </trkpt>
      <trkpt lat="43.27967" lon="5.94065">
        <ele>354.8</ele>
        <time>2024-06-12T08:01:26Z</time>
      </trkpt>
      <trkpt lat="43.27967" lon="5.94064">
        <ele>355.8</ele>
        <time>2024-06-12T08:01:27Z</time>
      </trkpt>
      <trkpt lat="43.27966" lon="5.9406">
        <ele>356</ele>
        <time>2024-06-12T08:01:28Z</time>
      </trkpt>
      <trkpt lat="43.27966" lon="5.94058">
        <ele>356</ele>
        <time>2024-06-12T08:01:29Z</time>
      </trkpt>
      <trkpt lat="43.27966" lon="5.94056">
        <ele>356</ele>
        <time>2024-06-12T08:01:30Z</time>
      </trkpt>
      <trkpt lat="43.27965" lon="5.94053">
        <ele>357</ele>
        <time>2024-06-12T08:01:31Z</time>
      </trkpt>
      <trkpt lat="43.27965" lon="5.94049">
        <ele>357</ele>
        <time>2024-06-12T08:01:32Z</time>
      </trkpt>
      <trkpt lat="43.27964" lon="5.94047">
        <ele>357.2</ele>
        <time>2024-06-12T08:01:33Z</time>
      </trkpt>
      <trkpt lat="43.27964" lon="5.94044">
        <ele>357.2</ele>
        <time>2024-06-12T08:01:34Z</time>
      </trkpt>
      <trkpt lat="43.27963" lon="5.94041">
        <ele>357.2</ele>
        <time>2024-06-12T08:01:35Z</time>
      </trkpt>
      <trkpt lat="43.27963" lon="5.94038">
        <ele>357.2</ele>
        <time>2024-06-12T08:01:36Z</time>
      </trkpt>
      <trkpt lat="43.27963" lon="5.94035">
        <ele>358</ele>
        <time>2024-06-12T08:01:37Z</time>
      </trkpt>
      <trkpt lat="43.27963" lon="5.94032">
        <ele>358.2</ele>
        <time>2024-06-12T08:01:38Z</time>
      </trkpt>
      <trkpt lat="43.27962" lon="5.94029">
        <ele>358.2</ele>
        <time>2024-06-12T08:01:39Z</time>
      </trkpt>
      <trkpt lat="43.27962" lon="5.94027">
        <ele>358.2</ele>
        <time>2024-06-12T08:01:40Z</time>
      </trkpt>
      <trkpt lat="43.27962" lon="5.94024">
        <ele>359</ele>
        <time>2024-06-12T08:01:41Z</time>
      </trkpt>
      <trkpt lat="43.27962" lon="5.94021">
        <ele>359.4</ele>
        <time>2024-06-12T08:01:42Z</time>
      </trkpt>
      <trkpt lat="43.27961" lon="5.94018">
        <ele>359.4</ele>
        <time>2024-06-12T08:01:43Z</time>
      </trkpt>
      <trkpt lat="43.27961" lon="5.94014">
        <ele>359.4</ele>
        <time>2024-06-12T08:01:44Z</time>
      </trkpt>
      <trkpt lat="43.27961" lon="5.94013">
        <ele>360</ele>
        <time>2024-06-12T08:01:45Z</time>
      </trkpt>
      <trkpt lat="43.2796" lon="5.94009">
        <ele>360.2</ele>
        <time>2024-06-12T08:01:46Z</time>
      </trkpt>
      <trkpt lat="43.2796" lon="5.94007">
        <ele>360.2</ele>
        <time>2024-06-12T08:01:47Z</time>
      </trkpt>
      <trkpt lat="43.2796" lon="5.94005">
        <ele>360.2</ele>
        <time>2024-06-12T08:01:48Z</time>
      </trkpt>
      <trkpt lat="43.27959" lon="5.94001">
        <ele>360.2</ele>
        <time>2024-06-12T08:01:49Z</time>
      </trkpt>
      <trkpt lat="43.27959" lon="5.93999">
        <ele>360.8</ele>
        <time>2024-06-12T08:01:50Z</time>
      </trkpt>
      <trkpt lat="43.27959" lon="5.93995">
        <ele>361</ele>
        <time>2024-06-12T08:01:51Z</time>
      </trkpt>
      <trkpt lat="43.27959" lon="5.93994">
        <ele>361</ele>
        <time>2024-06-12T08:01:52Z</time>
      </trkpt>
      <trkpt lat="43.27958" lon="5.9399">
        <ele>361</ele>
        <time>2024-06-12T08:01:53Z</time>
      </trkpt>
      <trkpt lat="43.27958" lon="5.93988">
        <ele>361.8</ele>
        <time>2024-06-12T08:01:54Z</time>
      </trkpt>
      <trkpt lat="43.27958" lon="5.93985">
        <ele>362.2</ele>
        <time>2024-06-12T08:01:55Z</time>
      </trkpt>
      <trkpt lat="43.27958" lon="5.93981">
        <ele>362.2</ele>
        <time>2024-06-12T08:01:56Z</time>
      </trkpt>
      <trkpt lat="43.27958" lon="5.93979">
        <ele>362.2</ele>
        <time>2024-06-12T08:01:57Z</time>
      </trkpt>
      <trkpt lat="43.27958" lon="5.93976">
        <ele>362.8</ele>
        <time>2024-06-12T08:01:58Z</time>
      </trkpt>
      <trkpt lat="43.27958" lon="5.93972">
        <ele>363</ele>
        <time>2024-06-12T08:01:59Z</time>
      </trkpt>
      <trkpt lat="43.27958" lon="5.9397">
        <ele>363</ele>
        <time>2024-06-12T08:02:00Z</time>
      </trkpt>
      <trkpt lat="43.27957" lon="5.93966">
        <ele>363</ele>
        <time>2024-06-12T08:02:01Z</time>
      </trkpt>
      <trkpt lat="43.27957" lon="5.93965">
        <ele>363</ele>
        <time>2024-06-12T08:02:02Z</time>
      </trkpt>
      <trkpt lat="43.27957" lon="5.93961">
        <ele>363.8</ele>
        <time>2024-06-12T08:02:03Z</time>
      </trkpt>
      <trkpt lat="43.27957" lon="5.9396">
        <ele>364</ele>
        <time>2024-06-12T08:02:04Z</time>
      </trkpt>
      <trkpt lat="43.27957" lon="5.93955">
        <ele>364</ele>
        <time>2024-06-12T08:02:05Z</time>
      </trkpt>
      <trkpt lat="43.27957" lon="5.93954">
        <ele>364</ele>
        <time>2024-06-12T08:02:06Z</time>
      </trkpt>
      <trkpt lat="43.27956" lon="5.93949">
        <ele>364.8</ele>
        <time>2024-06-12T08:02:07Z</time>
      </trkpt>
      <trkpt lat="43.27956" lon="5.93948">
        <ele>365</ele>
        <time>2024-06-12T08:02:08Z</time>
      </trkpt>
      <trkpt lat="43.27956" lon="5.93944">
        <ele>365</ele>
        <time>2024-06-12T08:02:09Z</time>
      </trkpt>
      <trkpt lat="43.27956" lon="5.93942">
        <ele>365</ele>
        <time>2024-06-12T08:02:10Z</time>
      </trkpt>
      <trkpt lat="43.27955" lon="5.9394">
        <ele>365.6</ele>
        <time>2024-06-12T08:02:11Z</time>
      </trkpt>
      <trkpt lat="43.27955" lon="5.93936">
        <ele>365.6</ele>
        <time>2024-06-12T08:02:12Z</time>
      </trkpt>
      <trkpt lat="43.27955" lon="5.93934">
        <ele>365.6</ele>
        <time>2024-06-12T08:02:13Z</time>
      </trkpt>
      <trkpt lat="43.27955" lon="5.9393">
        <ele>365.6</ele>
        <time>2024-06-12T08:02:14Z</time>
      </trkpt>
      <trkpt lat="43.27955" lon="5.93929">
        <ele>365.6</ele>
        <time>2024-06-12T08:02:15Z</time>
      </trkpt>
      <trkpt lat="43.27954" lon="5.93924">
        <ele>365.6</ele>
        <time>2024-06-12T08:02:16Z</time>
      </trkpt>
      <trkpt lat="43.27954" lon="5.93923">
        <ele>366.2</ele>
        <time>2024-06-12T08:02:17Z</time>
      </trkpt>
      <trkpt lat="43.27954" lon="5.9392">
        <ele>366.4</ele>
        <time>2024-06-12T08:02:18Z</time>
      </trkpt>
      <trkpt lat="43.27954" lon="5.93918">
        <ele>366.4</ele>
        <time>2024-06-12T08:02:19Z</time>
      </trkpt>
      <trkpt lat="43.27954" lon="5.93915">
        <ele>366.4</ele>
        <time>2024-06-12T08:02:20Z</time>
      </trkpt>
      <trkpt lat="43.27954" lon="5.93912">
        <ele>367</ele>
        <time>2024-06-12T08:02:21Z</time>
      </trkpt>
      <trkpt lat="43.27953" lon="5.9391">
        <ele>367</ele>
        <time>2024-06-12T08:02:22Z</time>
      </trkpt>
      <trkpt lat="43.27953" lon="5.93906">
        <ele>367.2</ele>
        <time>2024-06-12T08:02:23Z</time>
      </trkpt>
      <trkpt lat="43.27953" lon="5.93904">
        <ele>367.2</ele>
        <time>2024-06-12T08:02:24Z</time>
      </trkpt>
      <trkpt lat="43.27952" lon="5.939">
        <ele>367.2</ele>
        <time>2024-06-12T08:02:25Z</time>
      </trkpt>
      <trkpt lat="43.27952" lon="5.93899">
        <ele>367.8</ele>
        <time>2024-06-12T08:02:26Z</time>
      </trkpt>
      <trkpt lat="43.27952" lon="5.93894">
        <ele>367.8</ele>
        <time>2024-06-12T08:02:27Z</time>
      </trkpt>
      <trkpt lat="43.27952" lon="5.93893">
        <ele>367.8</ele>
        <time>2024-06-12T08:02:28Z</time>
      </trkpt>
      <trkpt lat="43.27952" lon="5.93889">
        <ele>367.8</ele>
        <time>2024-06-12T08:02:29Z</time>
      </trkpt>
      <trkpt lat="43.27952" lon="5.93888">
        <ele>368.4</ele>
        <time>2024-06-12T08:02:30Z</time>
      </trkpt>
      <trkpt lat="43.27952" lon="5.93883">
        <ele>368.4</ele>
        <time>2024-06-12T08:02:31Z</time>
      </trkpt>
      <trkpt lat="43.27952" lon="5.93882">
        <ele>368.4</ele>
        <time>2024-06-12T08:02:32Z</time>
      </trkpt>
      <trkpt lat="43.27952" lon="5.93877">
        <ele>368.4</ele>
        <time>2024-06-12T08:02:33Z</time>
      </trkpt>
      <trkpt lat="43.27952" lon="5.93876">
        <ele>369.2</ele>
        <time>2024-06-12T08:02:34Z</time>
      </trkpt>
      <trkpt lat="43.27951" lon="5.93872">
        <ele>369.2</ele>
        <time>2024-06-12T08:02:35Z</time>
      </trkpt>
      <trkpt lat="43.27951" lon="5.93871">
        <ele>369.4</ele>
        <time>2024-06-12T08:02:36Z</time>
      </trkpt>
      <trkpt lat="43.27951" lon="5.93868">
        <ele>369.4</ele>
        <time>2024-06-12T08:02:37Z</time>
      </trkpt>
      <trkpt lat="43.27951" lon="5.93864">
        <ele>369.4</ele>
        <time>2024-06-12T08:02:38Z</time>
      </trkpt>
      <trkpt lat="43.27951" lon="5.93863">
        <ele>369.8</ele>
        <time>2024-06-12T08:02:39Z</time>
      </trkpt>
      <trkpt lat="43.2795" lon="5.9386">
        <ele>370</ele>
        <time>2024-06-12T08:02:40Z</time>
      </trkpt>
      <trkpt lat="43.2795" lon="5.93856">
        <ele>370</ele>
        <time>2024-06-12T08:02:41Z</time>
      </trkpt>
      <trkpt lat="43.2795" lon="5.93855">
        <ele>370</ele>
        <time>2024-06-12T08:02:42Z</time>
      </trkpt>
      <trkpt lat="43.2795" lon="5.93851">
        <ele>370.6</ele>
        <time>2024-06-12T08:02:43Z</time>
      </trkpt>
      <trkpt lat="43.27949" lon="5.93849">
        <ele>370.6</ele>
        <time>2024-06-12T08:02:44Z</time>
      </trkpt>
      <trkpt lat="43.27949" lon="5.93845">
        <ele>370.8</ele>
        <time>2024-06-12T08:02:45Z</time>
      </trkpt>
      <trkpt lat="43.27949" lon="5.93844">
        <ele>370.8</ele>
        <time>2024-06-12T08:02:46Z</time>
      </trkpt>
      <trkpt lat="43.27949" lon="5.9384">
        <ele>370.8</ele>
        <time>2024-06-12T08:02:47Z</time>
      </trkpt>
      <trkpt lat="43.27949" lon="5.93838">
        <ele>371.4</ele>
        <time>2024-06-12T08:02:48Z</time>
      </trkpt>
      <trkpt lat="43.27949" lon="5.93834">
        <ele>371.6</ele>
        <time>2024-06-12T08:02:49Z</time>
      </trkpt>
      <trkpt lat="43.27949" lon="5.93833">
        <ele>371.6</ele>
        <time>2024-06-12T08:02:50Z</time>
      </trkpt>
      <trkpt lat="43.27949" lon="5.93829">
        <ele>371.6</ele>
        <time>2024-06-12T08:02:51Z</time>
      </trkpt>
      <trkpt lat="43.27949" lon="5.93827">
        <ele>371.6</ele>
        <time>2024-06-12T08:02:52Z</time>
      </trkpt>
      <trkpt lat="43.27949" lon="5.93824">
        <ele>372.4</ele>
        <time>2024-06-12T08:02:53Z</time>
      </trkpt>
      <trkpt lat="43.27948" lon="5.93822">
        <ele>372.4</ele>
        <time>2024-06-12T08:02:54Z</time>
      </trkpt>
      <trkpt lat="43.27948" lon="5.93817">
        <ele>372.4</ele>
        <time>2024-06-12T08:02:55Z</time>
      </trkpt>
      <trkpt lat="43.27948" lon="5.93816">
        <ele>373</ele>
        <time>2024-06-12T08:02:56Z</time>
      </trkpt>
      <trkpt lat="43.27947" lon="5.93812">
        <ele>373</ele>
        <time>2024-06-12T08:02:57Z</time>
      </trkpt>
      <trkpt lat="43.27947" lon="5.93811">
        <ele>373</ele>
        <time>2024-06-12T08:02:58Z</time>
      </trkpt>
      <trkpt lat="43.27946" lon="5.93806">
        <ele>373</ele>
        <time>2024-06-12T08:02:59Z</time>
      </trkpt>
      <trkpt lat="43.27946" lon="5.93805">
        <ele>373</ele>
        <time>2024-06-12T08:03:00Z</time>
      </trkpt>
      <trkpt lat="43.27946" lon="5.93802">
        <ele>373</ele>
        <time>2024-06-12T08:03:01Z</time>
      </trkpt>
      <trkpt lat="43.27945" lon="5.938">
        <ele>373.4</ele>
        <time>2024-06-12T08:03:02Z</time>
      </trkpt>
      <trkpt lat="43.27945" lon="5.93797">
        <ele>373.8</ele>
        <time>2024-06-12T08:03:03Z</time>
      </trkpt>
      <trkpt lat="43.27944" lon="5.93794">
        <ele>373.8</ele>
        <time>2024-06-12T08:03:04Z</time>
      </trkpt>
      <trkpt lat="43.27944" lon="5.93791">
        <ele>373.8</ele>
        <time>2024-06-12T08:03:05Z</time>
      </trkpt>
      <trkpt lat="43.27943" lon="5.93787">
        <ele>374</ele>
        <time>2024-06-12T08:03:06Z</time>
      </trkpt>
      <trkpt lat="43.27943" lon="5.93786">
        <ele>374</ele>
        <time>2024-06-12T08:03:07Z</time>
      </trkpt>
      <trkpt lat="43.27941" lon="5.93782">
        <ele>374</ele>
        <time>2024-06-12T08:03:08Z</time>
      </trkpt>
      <trkpt lat="43.27941" lon="5.93781">
        <ele>374</ele>
        <time>2024-06-12T08:03:09Z</time>
      </trkpt>
      <trkpt lat="43.2794" lon="5.93778">
        <ele>374</ele>
        <time>2024-06-12T08:03:10Z</time>
      </trkpt>
      <trkpt lat="43.27939" lon="5.93773">
        <ele>374.6</ele>
        <time>2024-06-12T08:03:11Z</time>
      </trkpt>
      <trkpt lat="43.27939" lon="5.93772">
        <ele>374.8</ele>
        <time>2024-06-12T08:03:12Z</time>
      </trkpt>
      <trkpt lat="43.27938" lon="5.93769">
        <ele>374.8</ele>
        <time>2024-06-12T08:03:13Z</time>
      </trkpt>
      <trkpt lat="43.27937" lon="5.93765">
        <ele>374.8</ele>
        <time>2024-06-12T08:03:14Z</time>
      </trkpt>
      <trkpt lat="43.27936" lon="5.93764">
        <ele>374.8</ele>
        <time>2024-06-12T08:03:15Z</time>
      </trkpt>
      <trkpt lat="43.27934" lon="5.9376">
        <ele>375</ele>
        <time>2024-06-12T08:03:16Z</time>
      </trkpt>
      <trkpt lat="43.27934" lon="5.93759">
        <ele>375</ele>
        <time>2024-06-12T08:03:17Z</time>
      </trkpt>
      <trkpt lat="43.27932" lon="5.93755">
        <ele>375</ele>
        <time>2024-06-12T08:03:18Z</time>
      </trkpt>
      <trkpt lat="43.27931" lon="5.93754">
        <ele>375</ele>
        <time>2024-06-12T08:03:19Z</time>
      </trkpt>
      <trkpt lat="43.2793" lon="5.93751">
        <ele>375.4</ele>
        <time>2024-06-12T08:03:20Z</time>
      </trkpt>
      <trkpt lat="43.27928" lon="5.93748">
        <ele>375.2</ele>
        <time>2024-06-12T08:03:21Z</time>
      </trkpt>
      <trkpt lat="43.27927" lon="5.93747">
        <ele>375.2</ele>
        <time>2024-06-12T08:03:22Z</time>
      </trkpt>
      <trkpt lat="43.27925" lon="5.93745">
        <ele>375.2</ele>
        <time>2024-06-12T08:03:23Z</time>
      </trkpt>
      <trkpt lat="43.27923" lon="5.93742">
        <ele>375.2</ele>
        <time>2024-06-12T08:03:24Z</time>
      </trkpt>
      <trkpt lat="43.27922" lon="5.93741">
        <ele>375.2</ele>
        <time>2024-06-12T08:03:25Z</time>
      </trkpt>
      <trkpt lat="43.2792" lon="5.93739">
        <ele>375.2</ele>
        <time>2024-06-12T08:03:26Z</time>
      </trkpt>
      <trkpt lat="43.27918" lon="5.93736">
        <ele>375.2</ele>
        <time>2024-06-12T08:03:27Z</time>
      </trkpt>
      <trkpt lat="43.27917" lon="5.93735">
        <ele>375.2</ele>
        <time>2024-06-12T08:03:28Z</time>
      </trkpt>
      <trkpt lat="43.27915" lon="5.93734">
        <ele>375.2</ele>
        <time>2024-06-12T08:03:29Z</time>
      </trkpt>
      <trkpt lat="43.27913" lon="5.93732">
        <ele>375.2</ele>
        <time>2024-06-12T08:03:30Z</time>
      </trkpt>
      <trkpt lat="43.2791" lon="5.9373">
        <ele>375.2</ele>
        <time>2024-06-12T08:03:31Z</time>
      </trkpt>
      <trkpt lat="43.27909" lon="5.93729">
        <ele>375.2</ele>
        <time>2024-06-12T08:03:32Z</time>
      </trkpt>
      <trkpt lat="43.27907" lon="5.93727">
        <ele>375.2</ele>
        <time>2024-06-12T08:03:33Z</time>
      </trkpt>
      <trkpt lat="43.27906" lon="5.93726">
        <ele>375.2</ele>
        <time>2024-06-12T08:03:34Z</time>
      </trkpt>
      <trkpt lat="43.27903" lon="5.93724">
        <ele>375.2</ele>
        <time>2024-06-12T08:03:35Z</time>
      </trkpt>
      <trkpt lat="43.27902" lon="5.93723">
        <ele>375.2</ele>
        <time>2024-06-12T08:03:36Z</time>
      </trkpt>
      <trkpt lat="43.279" lon="5.93721">
        <ele>375.2</ele>
        <time>2024-06-12T08:03:37Z</time>
      </trkpt>
      <trkpt lat="43.27897" lon="5.9372">
        <ele>375.4</ele>
        <time>2024-06-12T08:03:38Z</time>
      </trkpt>
      <trkpt lat="43.27894" lon="5.93718">
        <ele>375.4</ele>
        <time>2024-06-12T08:03:39Z</time>
      </trkpt>
      <trkpt lat="43.27893" lon="5.93717">
        <ele>375.4</ele>
        <time>2024-06-12T08:03:40Z</time>
      </trkpt>
      <trkpt lat="43.27889" lon="5.93715">
        <ele>375.4</ele>
        <time>2024-06-12T08:03:41Z</time>
      </trkpt>
      <trkpt lat="43.27887" lon="5.93714">
        <ele>375.4</ele>
        <time>2024-06-12T08:03:42Z</time>
      </trkpt>
      <trkpt lat="43.27883" lon="5.93711">
        <ele>375.4</ele>
        <time>2024-06-12T08:03:43Z</time>
      </trkpt>
      <trkpt lat="43.27881" lon="5.9371">
        <ele>375.2</ele>
        <time>2024-06-12T08:03:44Z</time>
      </trkpt>
      <trkpt lat="43.27876" lon="5.93707">
        <ele>375.2</ele>
        <time>2024-06-12T08:03:45Z</time>
      </trkpt>
      <trkpt lat="43.27875" lon="5.93706">
        <ele>375.2</ele>
        <time>2024-06-12T08:03:46Z</time>
      </trkpt>
      <trkpt lat="43.27872" lon="5.93704">
        <ele>375.2</ele>
        <time>2024-06-12T08:03:47Z</time>
      </trkpt>
      <trkpt lat="43.27867" lon="5.937">
        <ele>375</ele>
        <time>2024-06-12T08:03:48Z</time>
      </trkpt>
      <trkpt lat="43.27865" lon="5.93699">
        <ele>375</ele>
        <time>2024-06-12T08:03:49Z</time>
      </trkpt>
      <trkpt lat="43.27859" lon="5.93694">
        <ele>375</ele>
        <time>2024-06-12T08:03:50Z</time>
      </trkpt>
      <trkpt lat="43.27857" lon="5.93693">
        <ele>375</ele>
        <time>2024-06-12T08:03:51Z</time>
      </trkpt>
      <trkpt lat="43.27851" lon="5.93688">
        <ele>374.8</ele>
        <time>2024-06-12T08:03:52Z</time>
      </trkpt>
      <trkpt lat="43.27849" lon="5.93686">
        <ele>374.6</ele>
        <time>2024-06-12T08:03:53Z</time>
      </trkpt>
      <trkpt lat="43.27843" lon="5.9368">
        <ele>374.6</ele>
        <time>2024-06-12T08:03:54Z</time>
      </trkpt>
      <trkpt lat="43.27841" lon="5.93678">
        <ele>374.6</ele>
        <time>2024-06-12T08:03:55Z</time>
      </trkpt>
      <trkpt lat="43.27834" lon="5.93671">
        <ele>374.6</ele>
        <time>2024-06-12T08:03:56Z</time>
      </trkpt>
      <trkpt lat="43.27832" lon="5.93669">
        <ele>374.4</ele>
        <time>2024-06-12T08:03:57Z</time>
      </trkpt>
      <trkpt lat="43.27829" lon="5.93663">
        <ele>374.4</ele>
        <time>2024-06-12T08:03:58Z</time>
      </trkpt>
      <trkpt lat="43.27824" lon="5.93653">
        <ele>374.4</ele>
        <time>2024-06-12T08:03:59Z</time>
      </trkpt>
      <trkpt lat="43.27823" lon="5.93649">
        <ele>374.4</ele>
        <time>2024-06-12T08:04:00Z</time>
      </trkpt>
      <trkpt lat="43.27821" lon="5.93637">
        <ele>374.4</ele>
        <time>2024-06-12T08:04:01Z</time>
      </trkpt>
      <trkpt lat="43.27822" lon="5.93633">
        <ele>374.2</ele>
        <time>2024-06-12T08:04:02Z</time>
      </trkpt>
      <trkpt lat="43.27822" lon="5.93625">
        <ele>374.2</ele>
        <time>2024-06-12T08:04:03Z</time>
      </trkpt>
      <trkpt lat="43.27824" lon="5.93616">
        <ele>374.2</ele>
        <time>2024-06-12T08:04:04Z</time>
      </trkpt>
      <trkpt lat="43.27826" lon="5.93609">
        <ele>374.2</ele>
        <time>2024-06-12T08:04:05Z</time>
      </trkpt>
      <trkpt lat="43.2783" lon="5.93597">
        <ele>374.6</ele>
        <time>2024-06-12T08:04:06Z</time>
      </trkpt>
      <trkpt lat="43.27832" lon="5.93594">
        <ele>374.6</ele>
        <time>2024-06-12T08:04:07Z</time>
      </trkpt>
      <trkpt lat="43.27835" lon="5.93586">
        <ele>374.6</ele>
        <time>2024-06-12T08:04:08Z</time>
      </trkpt>
      <trkpt lat="43.27839" lon="5.93578">
        <ele>374.6</ele>
        <time>2024-06-12T08:04:09Z</time>
      </trkpt>
      <trkpt lat="43.27843" lon="5.93571">
        <ele>374</ele>
        <time>2024-06-12T08:04:10Z</time>
      </trkpt>
      <trkpt lat="43.27848" lon="5.93563">
        <ele>374</ele>
        <time>2024-06-12T08:04:11Z</time>
      </trkpt>
      <trkpt lat="43.27855" lon="5.93552">
        <ele>374</ele>
        <time>2024-06-12T08:04:12Z</time>
      </trkpt>
      <trkpt lat="43.27857" lon="5.93548">
        <ele>373.8</ele>
        <time>2024-06-12T08:04:13Z</time>
      </trkpt>
      <trkpt lat="43.27862" lon="5.93541">
        <ele>373.6</ele>
        <time>2024-06-12T08:04:14Z</time>
      </trkpt>
      <trkpt lat="43.27871" lon="5.9353">
        <ele>373.6</ele>
        <time>2024-06-12T08:04:15Z</time>
      </trkpt>
      <trkpt lat="43.27874" lon="5.93527">
        <ele>373.6</ele>
        <time>2024-06-12T08:04:16Z</time>
      </trkpt>
      <trkpt lat="43.2788" lon="5.93521">
        <ele>373.6</ele>
        <time>2024-06-12T08:04:17Z</time>
      </trkpt>
      <trkpt lat="43.27886" lon="5.93515">
        <ele>373.6</ele>
        <time>2024-06-12T08:04:18Z</time>
      </trkpt>
      <trkpt lat="43.27892" lon="5.93508">
        <ele>373.4</ele>
        <time>2024-06-12T08:04:19Z</time>
      </trkpt>
      <trkpt lat="43.27897" lon="5.93501">
        <ele>373.4</ele>
        <time>2024-06-12T08:04:20Z</time>
      </trkpt>
      <trkpt lat="43.27902" lon="5.93493">
        <ele>373.4</ele>
        <time>2024-06-12T08:04:21Z</time>
      </trkpt>
      <trkpt lat="43.27906" lon="5.9348">
        <ele>373.4</ele>
        <time>2024-06-12T08:04:22Z</time>
      </trkpt>
      <trkpt lat="43.27907" lon="5.93475">
        <ele>373.4</ele>
        <time>2024-06-12T08:04:23Z</time>
      </trkpt>
      <trkpt lat="43.2791" lon="5.93461">
        <ele>373.4</ele>
        <time>2024-06-12T08:04:24Z</time>
      </trkpt>
      <trkpt lat="43.27911" lon="5.93456">
        <ele>373.4</ele>
        <time>2024-06-12T08:04:25Z</time>
      </trkpt>
      <trkpt lat="43.27913" lon="5.93442">
        <ele>373.4</ele>
        <time>2024-06-12T08:04:26Z</time>
      </trkpt>
      <trkpt lat="43.27914" lon="5.93437">
        <ele>373.4</ele>
        <time>2024-06-12T08:04:27Z</time>
      </trkpt>
      <trkpt lat="43.27915" lon="5.93423">
        <ele>373.4</ele>
        <time>2024-06-12T08:04:28Z</time>
      </trkpt>
      <trkpt lat="43.27916" lon="5.93418">
        <ele>373</ele>
        <time>2024-06-12T08:04:29Z</time>
      </trkpt>
      <trkpt lat="43.27918" lon="5.93408">
        <ele>373</ele>
        <time>2024-06-12T08:04:30Z</time>
      </trkpt>
      <trkpt lat="43.2792" lon="5.93394">
        <ele>373</ele>
        <time>2024-06-12T08:04:31Z</time>
      </trkpt>
      <trkpt lat="43.27922" lon="5.93389">
        <ele>373</ele>
        <time>2024-06-12T08:04:32Z</time>
      </trkpt>
      <trkpt lat="43.27924" lon="5.93379">
        <ele>372.2</ele>
        <time>2024-06-12T08:04:33Z</time>
      </trkpt>
      <trkpt lat="43.27927" lon="5.93363">
        <ele>372.2</ele>
        <time>2024-06-12T08:04:34Z</time>
      </trkpt>
      <trkpt lat="43.27928" lon="5.93358">
        <ele>372.2</ele>
        <time>2024-06-12T08:04:35Z</time>
      </trkpt>
      <trkpt lat="43.27931" lon="5.93342">
        <ele>372.2</ele>
        <time>2024-06-12T08:04:36Z</time>
      </trkpt>
      <trkpt lat="43.27932" lon="5.93337">
        <ele>371.6</ele>
        <time>2024-06-12T08:04:37Z</time>
      </trkpt>
      <trkpt lat="43.27933" lon="5.9332">
        <ele>371.6</ele>
        <time>2024-06-12T08:04:38Z</time>
      </trkpt>
      <trkpt lat="43.27933" lon="5.93315">
        <ele>371.6</ele>
        <time>2024-06-12T08:04:39Z</time>
      </trkpt>
      <trkpt lat="43.27934" lon="5.93304">
        <ele>371.6</ele>
        <time>2024-06-12T08:04:40Z</time>
      </trkpt>
      <trkpt lat="43.27935" lon="5.93287">
        <ele>370.6</ele>
        <time>2024-06-12T08:04:41Z</time>
      </trkpt>
      <trkpt lat="43.27936" lon="5.93282">
        <ele>370.6</ele>
        <time>2024-06-12T08:04:42Z</time>
      </trkpt>
      <trkpt lat="43.27938" lon="5.93265">
        <ele>370.6</ele>
        <time>2024-06-12T08:04:43Z</time>
      </trkpt>
      <trkpt lat="43.27938" lon="5.9326">
        <ele>370.6</ele>
        <time>2024-06-12T08:04:44Z</time>
      </trkpt>
      <trkpt lat="43.2794" lon="5.93249">
        <ele>369.8</ele>
        <time>2024-06-12T08:04:45Z</time>
      </trkpt>
      <trkpt lat="43.27941" lon="5.93237">
        <ele>369.6</ele>
        <time>2024-06-12T08:04:46Z</time>
      </trkpt>
      <trkpt lat="43.27941" lon="5.93226">
        <ele>369.6</ele>
        <time>2024-06-12T08:04:47Z</time>
      </trkpt>
      <trkpt lat="43.27941" lon="5.93215">
        <ele>369.6</ele>
        <time>2024-06-12T08:04:48Z</time>
      </trkpt>
      <trkpt lat="43.27941" lon="5.93203">
        <ele>368.6</ele>
        <time>2024-06-12T08:04:49Z</time>
      </trkpt>
      <trkpt lat="43.27941" lon="5.93192">
        <ele>368.2</ele>
        <time>2024-06-12T08:04:50Z</time>
      </trkpt>
      <trkpt lat="43.27942" lon="5.9318">
        <ele>368.2</ele>
        <time>2024-06-12T08:04:51Z</time>
      </trkpt>
      <trkpt lat="43.27944" lon="5.93168">
        <ele>368.2</ele>
        <time>2024-06-12T08:04:52Z</time>
      </trkpt>
      <trkpt lat="43.27944" lon="5.93156">
        <ele>368.2</ele>
        <time>2024-06-12T08:04:53Z</time>
      </trkpt>
      <trkpt lat="43.27947" lon="5.93138">
        <ele>366.8</ele>
        <time>2024-06-12T08:04:54Z</time>
      </trkpt>
      <trkpt lat="43.27948" lon="5.93132">
        <ele>366.8</ele>
        <time>2024-06-12T08:04:55Z</time>
      </trkpt>
      <trkpt lat="43.2795" lon="5.9312">
        <ele>366.8</ele>
        <time>2024-06-12T08:04:56Z</time>
      </trkpt>
      <trkpt lat="43.27953" lon="5.93108">
        <ele>366.8</ele>
        <time>2024-06-12T08:04:57Z</time>
      </trkpt>
      <trkpt lat="43.27955" lon="5.93091">
        <ele>366</ele>
        <time>2024-06-12T08:04:58Z</time>
      </trkpt>
      <trkpt lat="43.27956" lon="5.93085">
        <ele>365.6</ele>
        <time>2024-06-12T08:04:59Z</time>
      </trkpt>
      <trkpt lat="43.27957" lon="5.93073">
        <ele>365.6</ele>
        <time>2024-06-12T08:05:00Z</time>
      </trkpt>
      <trkpt lat="43.27955" lon="5.93061">
        <ele>365.6</ele>
        <time>2024-06-12T08:05:01Z</time>
      </trkpt>
      <trkpt lat="43.27951" lon="5.93045">
        <ele>364.6</ele>
        <time>2024-06-12T08:05:02Z</time>
      </trkpt>
      <trkpt lat="43.27949" lon="5.9304">
        <ele>363.8</ele>
        <time>2024-06-12T08:05:03Z</time>
      </trkpt>
      <trkpt lat="43.27945" lon="5.93024">
        <ele>363.8</ele>
        <time>2024-06-12T08:05:04Z</time>
      </trkpt>
      <trkpt lat="43.27944" lon="5.93018">
        <ele>363.8</ele>
        <time>2024-06-12T08:05:05Z</time>
      </trkpt>
      <trkpt lat="43.27941" lon="5.93001">
        <ele>363.8</ele>
        <time>2024-06-12T08:05:06Z</time>
      </trkpt>
      <trkpt lat="43.27941" lon="5.92995">
        <ele>363.8</ele>
        <time>2024-06-12T08:05:07Z</time>
      </trkpt>
      <trkpt lat="43.2794" lon="5.92978">
        <ele>363</ele>
        <time>2024-06-12T08:05:08Z</time>
      </trkpt>
      <trkpt lat="43.27939" lon="5.92973">
        <ele>363</ele>
        <time>2024-06-12T08:05:09Z</time>
      </trkpt>
      <trkpt lat="43.27937" lon="5.92956">
        <ele>363</ele>
        <time>2024-06-12T08:05:10Z</time>
      </trkpt>
      <trkpt lat="43.27935" lon="5.9295">
        <ele>363</ele>
        <time>2024-06-12T08:05:11Z</time>
      </trkpt>
      <trkpt lat="43.27933" lon="5.92939">
        <ele>362.2</ele>
        <time>2024-06-12T08:05:12Z</time>
      </trkpt>
      <trkpt lat="43.27929" lon="5.92922">
        <ele>361.6</ele>
        <time>2024-06-12T08:05:13Z</time>
      </trkpt>
      <trkpt lat="43.27928" lon="5.92916">
        <ele>361.6</ele>
        <time>2024-06-12T08:05:14Z</time>
      </trkpt>
      <trkpt lat="43.27925" lon="5.92904">
        <ele>361.6</ele>
        <time>2024-06-12T08:05:15Z</time>
      </trkpt>
      <trkpt lat="43.27923" lon="5.92892">
        <ele>360.8</ele>
        <time>2024-06-12T08:05:16Z</time>
      </trkpt>
      <trkpt lat="43.27921" lon="5.9288">
        <ele>360.8</ele>
        <time>2024-06-12T08:05:17Z</time>
      </trkpt>
      <trkpt lat="43.27919" lon="5.92868">
        <ele>360.4</ele>
        <time>2024-06-12T08:05:18Z</time>
      </trkpt>
      <trkpt lat="43.27918" lon="5.92849">
        <ele>360.4</ele>
        <time>2024-06-12T08:05:19Z</time>
      </trkpt>
      <trkpt lat="43.27917" lon="5.92842">
        <ele>359.4</ele>
        <time>2024-06-12T08:05:20Z</time>
      </trkpt>
      <trkpt lat="43.27918" lon="5.92823">
        <ele>358.8</ele>
        <time>2024-06-12T08:05:21Z</time>
      </trkpt>
      <trkpt lat="43.27918" lon="5.92816">
        <ele>358.8</ele>
        <time>2024-06-12T08:05:22Z</time>
      </trkpt>
      <trkpt lat="43.27919" lon="5.92797">
        <ele>358.8</ele>
        <time>2024-06-12T08:05:23Z</time>
      </trkpt>
      <trkpt lat="43.27919" lon="5.9279">
        <ele>358.8</ele>
        <time>2024-06-12T08:05:24Z</time>
      </trkpt>
      <trkpt lat="43.27919" lon="5.9277">
        <ele>357.8</ele>
        <time>2024-06-12T08:05:25Z</time>
      </trkpt>
      <trkpt lat="43.27919" lon="5.92764">
        <ele>356.8</ele>
        <time>2024-06-12T08:05:26Z</time>
      </trkpt>
      <trkpt lat="43.2792" lon="5.92744">
        <ele>356.8</ele>
        <time>2024-06-12T08:05:27Z</time>
      </trkpt>
      <trkpt lat="43.2792" lon="5.92737">
        <ele>356.8</ele>
        <time>2024-06-12T08:05:28Z</time>
      </trkpt>
      <trkpt lat="43.27919" lon="5.92718">
        <ele>356.8</ele>
        <time>2024-06-12T08:05:29Z</time>
      </trkpt>
      <trkpt lat="43.27918" lon="5.92711">
        <ele>355</ele>
        <time>2024-06-12T08:05:30Z</time>
      </trkpt>
      <trkpt lat="43.27916" lon="5.92698">
        <ele>355</ele>
        <time>2024-06-12T08:05:31Z</time>
      </trkpt>
      <trkpt lat="43.27909" lon="5.92682">
        <ele>355</ele>
        <time>2024-06-12T08:05:32Z</time>
      </trkpt>
      <trkpt lat="43.27906" lon="5.92677">
        <ele>355</ele>
        <time>2024-06-12T08:05:33Z</time>
      </trkpt>
      <trkpt lat="43.27897" lon="5.92663">
        <ele>354</ele>
        <time>2024-06-12T08:05:34Z</time>
      </trkpt>
      <trkpt lat="43.27894" lon="5.92658">
        <ele>353</ele>
        <time>2024-06-12T08:05:35Z</time>
      </trkpt>
      <trkpt lat="43.27888" lon="5.92649">
        <ele>353</ele>
        <time>2024-06-12T08:05:36Z</time>
      </trkpt>
      <trkpt lat="43.27881" lon="5.92634">
        <ele>353</ele>
        <time>2024-06-12T08:05:37Z</time>
      </trkpt>
      <trkpt lat="43.27879" lon="5.92629">
        <ele>352</ele>
        <time>2024-06-12T08:05:38Z</time>
      </trkpt>
      <trkpt lat="43.27872" lon="5.92613">
        <ele>351.2</ele>
        <time>2024-06-12T08:05:39Z</time>
      </trkpt>
      <trkpt lat="43.2787" lon="5.92608">
        <ele>351.2</ele>
        <time>2024-06-12T08:05:40Z</time>
      </trkpt>
      <trkpt lat="43.27864" lon="5.92593">
        <ele>351.2</ele>
        <time>2024-06-12T08:05:41Z</time>
      </trkpt>
      <trkpt lat="43.27863" lon="5.92588">
        <ele>351.2</ele>
        <time>2024-06-12T08:05:42Z</time>
      </trkpt>
      <trkpt lat="43.27857" lon="5.92572">
        <ele>350.2</ele>
        <time>2024-06-12T08:05:43Z</time>
      </trkpt>
      <trkpt lat="43.27855" lon="5.92567">
        <ele>349</ele>
        <time>2024-06-12T08:05:44Z</time>
      </trkpt>
      <trkpt lat="43.27852" lon="5.92557">
        <ele>349</ele>
        <time>2024-06-12T08:05:45Z</time>
      </trkpt>
      <trkpt lat="43.27849" lon="5.92547">
        <ele>349</ele>
        <time>2024-06-12T08:05:46Z</time>
      </trkpt>
      <trkpt lat="43.27846" lon="5.92537">
        <ele>348</ele>
        <time>2024-06-12T08:05:47Z</time>
      </trkpt>
      <trkpt lat="43.27843" lon="5.92527">
        <ele>347.4</ele>
        <time>2024-06-12T08:05:48Z</time>
      </trkpt>
      <trkpt lat="43.27839" lon="5.92511">
        <ele>347.4</ele>
        <time>2024-06-12T08:05:49Z</time>
      </trkpt>
      <trkpt lat="43.27837" lon="5.92506">
        <ele>347.4</ele>
        <time>2024-06-12T08:05:50Z</time>
      </trkpt>
      <trkpt lat="43.27834" lon="5.9249">
        <ele>347.4</ele>
        <time>2024-06-12T08:05:51Z</time>
      </trkpt>
      <trkpt lat="43.27833" lon="5.92485">
        <ele>346.4</ele>
        <time>2024-06-12T08:05:52Z</time>
      </trkpt>
      <trkpt lat="43.27831" lon="5.9247">
        <ele>346</ele>
        <time>2024-06-12T08:05:53Z</time>
      </trkpt>
      <trkpt lat="43.27831" lon="5.92466">
        <ele>346</ele>
        <time>2024-06-12T08:05:54Z</time>
      </trkpt>
      <trkpt lat="43.2783" lon="5.92456">
        <ele>346</ele>
        <time>2024-06-12T08:05:55Z</time>
      </trkpt>
      <trkpt lat="43.27829" lon="5.92448">
        <ele>346</ele>
        <time>2024-06-12T08:05:56Z</time>
      </trkpt>
      <trkpt lat="43.27828" lon="5.92439">
        <ele>345.6</ele>
        <time>2024-06-12T08:05:57Z</time>
      </trkpt>
      <trkpt lat="43.27826" lon="5.92428">
        <ele>345.4</ele>
        <time>2024-06-12T08:05:58Z</time>
      </trkpt>
      <trkpt lat="43.27826" lon="5.92424">
        <ele>345.4</ele>
        <time>2024-06-12T08:05:59Z</time>
      </trkpt>
      <trkpt lat="43.27825" lon="5.92417">
        <ele>345.4</ele>
        <time>2024-06-12T08:06:00Z</time>
      </trkpt>
      <trkpt lat="43.27824" lon="5.92407">
        <ele>345.4</ele>
        <time>2024-06-12T08:06:01Z</time>
      </trkpt>
      <trkpt lat="43.27824" lon="5.92404">
        <ele>345.2</ele>
        <time>2024-06-12T08:06:02Z</time>
      </trkpt>
      <trkpt lat="43.27823" lon="5.92395">
        <ele>345.2</ele>
        <time>2024-06-12T08:06:03Z</time>
      </trkpt>
      <trkpt lat="43.27822" lon="5.92392">
        <ele>345.2</ele>
        <time>2024-06-12T08:06:04Z</time>
      </trkpt>
      <trkpt lat="43.27821" lon="5.92387">
        <ele>345.2</ele>
        <time>2024-06-12T08:06:05Z</time>
      </trkpt>
      <trkpt lat="43.27821" lon="5.92379">
        <ele>345.2</ele>
        <time>2024-06-12T08:06:06Z</time>
      </trkpt>
      <trkpt lat="43.2782" lon="5.92376">
        <ele>345.2</ele>
        <time>2024-06-12T08:06:07Z</time>
      </trkpt>
      <trkpt lat="43.27819" lon="5.92368">
        <ele>345.2</ele>
        <time>2024-06-12T08:06:08Z</time>
      </trkpt>
      <trkpt lat="43.27819" lon="5.92366">
        <ele>345.2</ele>
        <time>2024-06-12T08:06:09Z</time>
      </trkpt>
      <trkpt lat="43.27818" lon="5.92359">
        <ele>345.6</ele>
        <time>2024-06-12T08:06:10Z</time>
      </trkpt>
      <trkpt lat="43.27818" lon="5.92357">
        <ele>345.6</ele>
        <time>2024-06-12T08:06:11Z</time>
      </trkpt>
      <trkpt lat="43.27818" lon="5.92352">
        <ele>345.6</ele>
        <time>2024-06-12T08:06:12Z</time>
      </trkpt>
      <trkpt lat="43.27817" lon="5.92345">
        <ele>345.6</ele>
        <time>2024-06-12T08:06:13Z</time>
      </trkpt>
      <trkpt lat="43.27817" lon="5.92343">
        <ele>345.6</ele>
        <time>2024-06-12T08:06:14Z</time>
      </trkpt>
      <trkpt lat="43.27816" lon="5.92336">
        <ele>346.2</ele>
        <time>2024-06-12T08:06:15Z</time>
      </trkpt>
      <trkpt lat="43.27816" lon="5.92334">
        <ele>346.2</ele>
        <time>2024-06-12T08:06:16Z</time>
      </trkpt>
      <trkpt lat="43.27815" lon="5.9233">
        <ele>346.2</ele>
        <time>2024-06-12T08:06:17Z</time>
      </trkpt>
      <trkpt lat="43.27815" lon="5.92323">
        <ele>346.2</ele>
        <time>2024-06-12T08:06:18Z</time>
      </trkpt>
      <trkpt lat="43.27815" lon="5.92321">
        <ele>346.4</ele>
        <time>2024-06-12T08:06:19Z</time>
      </trkpt>
      <trkpt lat="43.27815" lon="5.92317">
        <ele>346.8</ele>
        <time>2024-06-12T08:06:20Z</time>
      </trkpt>
      <trkpt lat="43.27814" lon="5.92313">
        <ele>346.8</ele>
        <time>2024-06-12T08:06:21Z</time>
      </trkpt>
      <trkpt lat="43.27813" lon="5.92309">
        <ele>346.8</ele>
        <time>2024-06-12T08:06:22Z</time>
      </trkpt>
      <trkpt lat="43.27812" lon="5.92302">
        <ele>346.8</ele>
        <time>2024-06-12T08:06:23Z</time>
      </trkpt>
      <trkpt lat="43.27812" lon="5.923">
        <ele>346.8</ele>
        <time>2024-06-12T08:06:24Z</time>
      </trkpt>
      <trkpt lat="43.27811" lon="5.92296">
        <ele>347.2</ele>
        <time>2024-06-12T08:06:25Z</time>
      </trkpt>
      <trkpt lat="43.27811" lon="5.92292">
        <ele>347.2</ele>
        <time>2024-06-12T08:06:26Z</time>
      </trkpt>
      <trkpt lat="43.27811" lon="5.92287">
        <ele>347.6</ele>
        <time>2024-06-12T08:06:27Z</time>
      </trkpt>
      <trkpt lat="43.27811" lon="5.92283">
        <ele>347.6</ele>
        <time>2024-06-12T08:06:28Z</time>
      </trkpt>
      <trkpt lat="43.27811" lon="5.92278">
        <ele>347.8</ele>
        <time>2024-06-12T08:06:29Z</time>
      </trkpt>
      <trkpt lat="43.2781" lon="5.92272">
        <ele>347.8</ele>
        <time>2024-06-12T08:06:30Z</time>
      </trkpt>
      <trkpt lat="43.2781" lon="5.92267">
        <ele>347.8</ele>
        <time>2024-06-12T08:06:31Z</time>
      </trkpt>
      <trkpt lat="43.27809" lon="5.92261">
        <ele>348</ele>
        <time>2024-06-12T08:06:32Z</time>
      </trkpt>
      <trkpt lat="43.27809" lon="5.92255">
        <ele>348</ele>
        <time>2024-06-12T08:06:33Z</time>
      </trkpt>
      <trkpt lat="43.27808" lon="5.92246">
        <ele>348.2</ele>
        <time>2024-06-12T08:06:34Z</time>
      </trkpt>
      <trkpt lat="43.27808" lon="5.92242">
        <ele>348.2</ele>
        <time>2024-06-12T08:06:35Z</time>
      </trkpt>
      <trkpt lat="43.27807" lon="5.92236">
        <ele>348.2</ele>
        <time>2024-06-12T08:06:36Z</time>
      </trkpt>
      <trkpt lat="43.27806" lon="5.92229">
        <ele>348.2</ele>
        <time>2024-06-12T08:06:37Z</time>
      </trkpt>
      <trkpt lat="43.27804" lon="5.92222">
        <ele>348.2</ele>
        <time>2024-06-12T08:06:38Z</time>
      </trkpt>
      <trkpt lat="43.27802" lon="5.92211">
        <ele>348.4</ele>
        <time>2024-06-12T08:06:39Z</time>
      </trkpt>
      <trkpt lat="43.27801" lon="5.92208">
        <ele>348.4</ele>
        <time>2024-06-12T08:06:40Z</time>
      </trkpt>
      <trkpt lat="43.27799" lon="5.92197">
        <ele>348.4</ele>
        <time>2024-06-12T08:06:41Z</time>
      </trkpt>
      <trkpt lat="43.27799" lon="5.92193">
        <ele>348.4</ele>
        <time>2024-06-12T08:06:42Z</time>
      </trkpt>
      <trkpt lat="43.27797" lon="5.92182">
        <ele>348.4</ele>
        <time>2024-06-12T08:06:43Z</time>
      </trkpt>
      <trkpt lat="43.27796" lon="5.92179">
        <ele>348.4</ele>
        <time>2024-06-12T08:06:44Z</time>
      </trkpt>
      <trkpt lat="43.27794" lon="5.92168">
        <ele>348.4</ele>
        <time>2024-06-12T08:06:45Z</time>
      </trkpt>
      <trkpt lat="43.27793" lon="5.92165">
        <ele>348.4</ele>
        <time>2024-06-12T08:06:46Z</time>
      </trkpt>
      <trkpt lat="43.27791" lon="5.92154">
        <ele>348.4</ele>
        <time>2024-06-12T08:06:47Z</time>
      </trkpt>
      <trkpt lat="43.2779" lon="5.92151">
        <ele>348.2</ele>
        <time>2024-06-12T08:06:48Z</time>
      </trkpt>
      <trkpt lat="43.27788" lon="5.9214">
        <ele>348.2</ele>
        <time>2024-06-12T08:06:49Z</time>
      </trkpt>
      <trkpt lat="43.27787" lon="5.92137">
        <ele>348.2</ele>
        <time>2024-06-12T08:06:50Z</time>
      </trkpt>
      <trkpt lat="43.27783" lon="5.92126">
        <ele>347.6</ele>
        <time>2024-06-12T08:06:51Z</time>
      </trkpt>
      <trkpt lat="43.27782" lon="5.92123">
        <ele>347.4</ele>
        <time>2024-06-12T08:06:52Z</time>
      </trkpt>
      <trkpt lat="43.27779" lon="5.92112">
        <ele>347.4</ele>
        <time>2024-06-12T08:06:53Z</time>
      </trkpt>
      <trkpt lat="43.27778" lon="5.92108">
        <ele>347.4</ele>
        <time>2024-06-12T08:06:54Z</time>
      </trkpt>
      <trkpt lat="43.27776" lon="5.92101">
        <ele>347</ele>
        <time>2024-06-12T08:06:55Z</time>
      </trkpt>
      <trkpt lat="43.27772" lon="5.9209">
        <ele>346.6</ele>
        <time>2024-06-12T08:06:56Z</time>
      </trkpt>
      <trkpt lat="43.27771" lon="5.92086">
        <ele>346.6</ele>
        <time>2024-06-12T08:06:57Z</time>
      </trkpt>
      <trkpt lat="43.27768" lon="5.92078">
        <ele>346.6</ele>
        <time>2024-06-12T08:06:58Z</time>
      </trkpt>
      <trkpt lat="43.27765" lon="5.9207">
        <ele>346.6</ele>
        <time>2024-06-12T08:06:59Z</time>
      </trkpt>
      <trkpt lat="43.27761" lon="5.92058">
        <ele>345.4</ele>
        <time>2024-06-12T08:07:00Z</time>
      </trkpt>
      <trkpt lat="43.2776" lon="5.92053">
        <ele>345.4</ele>
        <time>2024-06-12T08:07:01Z</time>
      </trkpt>
      <trkpt lat="43.27757" lon="5.92045">
        <ele>345.4</ele>
        <time>2024-06-12T08:07:02Z</time>
      </trkpt>
      <trkpt lat="43.27755" lon="5.92036">
        <ele>345.4</ele>
        <time>2024-06-12T08:07:03Z</time>
      </trkpt>
      <trkpt lat="43.27752" lon="5.92028">
        <ele>344.6</ele>
        <time>2024-06-12T08:07:04Z</time>
      </trkpt>
      <trkpt lat="43.27748" lon="5.92015">
        <ele>344.2</ele>
        <time>2024-06-12T08:07:05Z</time>
      </trkpt>
      <trkpt lat="43.27747" lon="5.92011">
        <ele>344.2</ele>
        <time>2024-06-12T08:07:06Z</time>
      </trkpt>
      <trkpt lat="43.27744" lon="5.92002">
        <ele>344.2</ele>
        <time>2024-06-12T08:07:07Z</time>
      </trkpt>
      <trkpt lat="43.2774" lon="5.9199">
        <ele>343.4</ele>
        <time>2024-06-12T08:07:08Z</time>
      </trkpt>
      <trkpt lat="43.27739" lon="5.91986">
        <ele>343.4</ele>
        <time>2024-06-12T08:07:09Z</time>
      </trkpt>
      <trkpt lat="43.27736" lon="5.91978">
        <ele>343.2</ele>
        <time>2024-06-12T08:07:10Z</time>
      </trkpt>
      <trkpt lat="43.27733" lon="5.91966">
        <ele>343.2</ele>
        <time>2024-06-12T08:07:11Z</time>
      </trkpt>
      <trkpt lat="43.27731" lon="5.91962">
        <ele>343.2</ele>
        <time>2024-06-12T08:07:12Z</time>
      </trkpt>
      <trkpt lat="43.27728" lon="5.9195">
        <ele>342.6</ele>
        <time>2024-06-12T08:07:13Z</time>
      </trkpt>
      <trkpt lat="43.27727" lon="5.91946">
        <ele>342.2</ele>
        <time>2024-06-12T08:07:14Z</time>
      </trkpt>
      <trkpt lat="43.27724" lon="5.91934">
        <ele>342.2</ele>
        <time>2024-06-12T08:07:15Z</time>
      </trkpt>
      <trkpt lat="43.27723" lon="5.9193">
        <ele>342.2</ele>
        <time>2024-06-12T08:07:16Z</time>
      </trkpt>
      <trkpt lat="43.27721" lon="5.91916">
        <ele>342.2</ele>
        <time>2024-06-12T08:07:17Z</time>
      </trkpt>
      <trkpt lat="43.27721" lon="5.91912">
        <ele>341.6</ele>
        <time>2024-06-12T08:07:18Z</time>
      </trkpt>
      <trkpt lat="43.2772" lon="5.91903">
        <ele>341.6</ele>
        <time>2024-06-12T08:07:19Z</time>
      </trkpt>
      <trkpt lat="43.2772" lon="5.91893">
        <ele>341.6</ele>
        <time>2024-06-12T08:07:20Z</time>
      </trkpt>
      <trkpt lat="43.2772" lon="5.91883">
        <ele>341.6</ele>
        <time>2024-06-12T08:07:21Z</time>
      </trkpt>
      <trkpt lat="43.27721" lon="5.91873">
        <ele>340.6</ele>
        <time>2024-06-12T08:07:22Z</time>
      </trkpt>
      <trkpt lat="43.27722" lon="5.91862">
        <ele>340.2</ele>
        <time>2024-06-12T08:07:23Z</time>
      </trkpt>
      <trkpt lat="43.27723" lon="5.91852">
        <ele>340.2</ele>
        <time>2024-06-12T08:07:24Z</time>
      </trkpt>
      <trkpt lat="43.27725" lon="5.91841">
        <ele>340.2</ele>
        <time>2024-06-12T08:07:25Z</time>
      </trkpt>
      <trkpt lat="43.27728" lon="5.9183">
        <ele>340.2</ele>
        <time>2024-06-12T08:07:26Z</time>
      </trkpt>
      <trkpt lat="43.27732" lon="5.91814">
        <ele>339</ele>
        <time>2024-06-12T08:07:27Z</time>
      </trkpt>
      <trkpt lat="43.27734" lon="5.91809">
        <ele>339</ele>
        <time>2024-06-12T08:07:28Z</time>
      </trkpt>
      <trkpt lat="43.27738" lon="5.91793">
        <ele>339</ele>
        <time>2024-06-12T08:07:29Z</time>
      </trkpt>
      <trkpt lat="43.27739" lon="5.91788">
        <ele>339</ele>
        <time>2024-06-12T08:07:30Z</time>
      </trkpt>
      <trkpt lat="43.27742" lon="5.91777">
        <ele>338.6</ele>
        <time>2024-06-12T08:07:31Z</time>
      </trkpt>
      <trkpt lat="43.27741" lon="5.91759">
        <ele>338.6</ele>
        <time>2024-06-12T08:07:32Z</time>
      </trkpt>
      <trkpt lat="43.2774" lon="5.91754">
        <ele>338.6</ele>
        <time>2024-06-12T08:07:33Z</time>
      </trkpt>
      <trkpt lat="43.27738" lon="5.91736">
        <ele>338.6</ele>
        <time>2024-06-12T08:07:34Z</time>
      </trkpt>
      <trkpt lat="43.27737" lon="5.91731">
        <ele>337.6</ele>
        <time>2024-06-12T08:07:35Z</time>
      </trkpt>
      <trkpt lat="43.27736" lon="5.91719">
        <ele>337.4</ele>
        <time>2024-06-12T08:07:36Z</time>
      </trkpt>
      <trkpt lat="43.27733" lon="5.91701">
        <ele>337.4</ele>
        <time>2024-06-12T08:07:37Z</time>
      </trkpt>
      <trkpt lat="43.27733" lon="5.91695">
        <ele>337.4</ele>
        <time>2024-06-12T08:07:38Z</time>
      </trkpt>
      <trkpt lat="43.27732" lon="5.91683">
        <ele>336.4</ele>
        <time>2024-06-12T08:07:39Z</time>
      </trkpt>
      <trkpt lat="43.27734" lon="5.91665">
        <ele>336.2</ele>
        <time>2024-06-12T08:07:40Z</time>
      </trkpt>
      <trkpt lat="43.27736" lon="5.91659">
        <ele>336.2</ele>
        <time>2024-06-12T08:07:41Z</time>
      </trkpt>
      <trkpt lat="43.27741" lon="5.91642">
        <ele>336.2</ele>
        <time>2024-06-12T08:07:42Z</time>
      </trkpt>
      <trkpt lat="43.27743" lon="5.91637">
        <ele>335.2</ele>
        <time>2024-06-12T08:07:43Z</time>
      </trkpt>
      <trkpt lat="43.27748" lon="5.91627">
        <ele>335.2</ele>
        <time>2024-06-12T08:07:44Z</time>
      </trkpt>
      <trkpt lat="43.27757" lon="5.91619">
        <ele>334.4</ele>
        <time>2024-06-12T08:07:45Z</time>
      </trkpt>
      <trkpt lat="43.27761" lon="5.91618">
        <ele>334.4</ele>
        <time>2024-06-12T08:07:46Z</time>
      </trkpt>
      <trkpt lat="43.27768" lon="5.91617">
        <ele>334.4</ele>
        <time>2024-06-12T08:07:47Z</time>
      </trkpt>
      <trkpt lat="43.27776" lon="5.91629">
        <ele>333.4</ele>
        <time>2024-06-12T08:07:48Z</time>
      </trkpt>
      <trkpt lat="43.27778" lon="5.91633">
        <ele>332.6</ele>
        <time>2024-06-12T08:07:49Z</time>
      </trkpt>
      <trkpt lat="43.27784" lon="5.91647">
        <ele>332.6</ele>
        <time>2024-06-12T08:07:50Z</time>
      </trkpt>
      <trkpt lat="43.27787" lon="5.91651">
        <ele>332.6</ele>
        <time>2024-06-12T08:07:51Z</time>
      </trkpt>
      <trkpt lat="43.27791" lon="5.9166">
        <ele>331.6</ele>
        <time>2024-06-12T08:07:52Z</time>
      </trkpt>
      <trkpt lat="43.27802" lon="5.91664">
        <ele>330.6</ele>
        <time>2024-06-12T08:07:53Z</time>
      </trkpt>
      <trkpt lat="43.27806" lon="5.91664">
        <ele>330.6</ele>
        <time>2024-06-12T08:07:54Z</time>
      </trkpt>
      <trkpt lat="43.27816" lon="5.91661">
        <ele>330.6</ele>
        <time>2024-06-12T08:07:55Z</time>
      </trkpt>
      <trkpt lat="43.27818" lon="5.91658">
        <ele>330</ele>
        <time>2024-06-12T08:07:56Z</time>
      </trkpt>
      <trkpt lat="43.27822" lon="5.91652">
        <ele>330</ele>
        <time>2024-06-12T08:07:57Z</time>
      </trkpt>
      <trkpt lat="43.27825" lon="5.91638">
        <ele>330</ele>
        <time>2024-06-12T08:07:58Z</time>
      </trkpt>
      <trkpt lat="43.27826" lon="5.91634">
        <ele>329.6</ele>
        <time>2024-06-12T08:07:59Z</time>
      </trkpt>
      <trkpt lat="43.27828" lon="5.91619">
        <ele>329.6</ele>
        <time>2024-06-12T08:08:00Z</time>
      </trkpt>
      <trkpt lat="43.27829" lon="5.91614">
        <ele>329.6</ele>
        <time>2024-06-12T08:08:01Z</time>
      </trkpt>
      <trkpt lat="43.2783" lon="5.91599">
        <ele>328.6</ele>
        <time>2024-06-12T08:08:02Z</time>
      </trkpt>
      <trkpt lat="43.27831" lon="5.91594">
        <ele>328.6</ele>
        <time>2024-06-12T08:08:03Z</time>
      </trkpt>
      <trkpt lat="43.27832" lon="5.91579">
        <ele>328.2</ele>
        <time>2024-06-12T08:08:04Z</time>
      </trkpt>
      <trkpt lat="43.27833" lon="5.91573">
        <ele>328.2</ele>
        <time>2024-06-12T08:08:05Z</time>
      </trkpt>
      <trkpt lat="43.27836" lon="5.91558">
        <ele>327.2</ele>
        <time>2024-06-12T08:08:06Z</time>
      </trkpt>
      <trkpt lat="43.27837" lon="5.91553">
        <ele>327.2</ele>
        <time>2024-06-12T08:08:07Z</time>
      </trkpt>
      <trkpt lat="43.2784" lon="5.91544">
        <ele>326.8</ele>
        <time>2024-06-12T08:08:08Z</time>
      </trkpt>
      <trkpt lat="43.27846" lon="5.91529">
        <ele>326.8</ele>
        <time>2024-06-12T08:08:09Z</time>
      </trkpt>
      <trkpt lat="43.27849" lon="5.91525">
        <ele>326.8</ele>
        <time>2024-06-12T08:08:10Z</time>
      </trkpt>
      <trkpt lat="43.27856" lon="5.91511">
        <ele>325.8</ele>
        <time>2024-06-12T08:08:11Z</time>
      </trkpt>
      <trkpt lat="43.27858" lon="5.91506">
        <ele>325.4</ele>
        <time>2024-06-12T08:08:12Z</time>
      </trkpt>
      <trkpt lat="43.27864" lon="5.91497">
        <ele>325.4</ele>
        <time>2024-06-12T08:08:13Z</time>
      </trkpt>
      <trkpt lat="43.27872" lon="5.91483">
        <ele>325.4</ele>
        <time>2024-06-12T08:08:14Z</time>
      </trkpt>
      <trkpt lat="43.27875" lon="5.91478">
        <ele>324.4</ele>
        <time>2024-06-12T08:08:15Z</time>
      </trkpt>
      <trkpt lat="43.27882" lon="5.91469">
        <ele>323.8</ele>
        <time>2024-06-12T08:08:16Z</time>
      </trkpt>
      <trkpt lat="43.27889" lon="5.91462">
        <ele>323.8</ele>
        <time>2024-06-12T08:08:17Z</time>
      </trkpt>
      <trkpt lat="43.279" lon="5.91452">
        <ele>323.8</ele>
        <time>2024-06-12T08:08:18Z</time>
      </trkpt>
      <trkpt lat="43.27904" lon="5.91448">
        <ele>323.8</ele>
        <time>2024-06-12T08:08:19Z</time>
      </trkpt>
      <trkpt lat="43.2791" lon="5.91441">
        <ele>322.8</ele>
        <time>2024-06-12T08:08:20Z</time>
      </trkpt>
      <trkpt lat="43.27917" lon="5.91427">
        <ele>322.4</ele>
        <time>2024-06-12T08:08:21Z</time>
      </trkpt>
      <trkpt lat="43.27918" lon="5.91423">
        <ele>322.4</ele>
        <time>2024-06-12T08:08:22Z</time>
      </trkpt>
      <trkpt lat="43.27921" lon="5.91413">
        <ele>322.4</ele>
        <time>2024-06-12T08:08:23Z</time>
      </trkpt>
      <trkpt lat="43.27922" lon="5.91403">
        <ele>322</ele>
        <time>2024-06-12T08:08:24Z</time>
      </trkpt>
      <trkpt lat="43.2792" lon="5.91389">
        <ele>321.8</ele>
        <time>2024-06-12T08:08:25Z</time>
      </trkpt>
      <trkpt lat="43.27919" lon="5.91384">
        <ele>321.8</ele>
        <time>2024-06-12T08:08:26Z</time>
      </trkpt>
      <trkpt lat="43.27914" lon="5.91372">
        <ele>321.8</ele>
        <time>2024-06-12T08:08:27Z</time>
      </trkpt>
      <trkpt lat="43.27912" lon="5.91369">
        <ele>321.8</ele>
        <time>2024-06-12T08:08:28Z</time>
      </trkpt>
      <trkpt lat="43.27905" lon="5.9136">
        <ele>321.4</ele>
        <time>2024-06-12T08:08:29Z</time>
      </trkpt>
      <trkpt lat="43.27903" lon="5.91358">
        <ele>321.4</ele>
        <time>2024-06-12T08:08:30Z</time>
      </trkpt>
      <trkpt lat="43.27896" lon="5.91353">
        <ele>321.4</ele>
        <time>2024-06-12T08:08:31Z</time>
      </trkpt>
      <trkpt lat="43.27893" lon="5.91351">
        <ele>321.4</ele>
        <time>2024-06-12T08:08:32Z</time>
      </trkpt>
      <trkpt lat="43.27889" lon="5.91349">
        <ele>321</ele>
        <time>2024-06-12T08:08:33Z</time>
      </trkpt>
      <trkpt lat="43.27884" lon="5.91347">
        <ele>320.8</ele>
        <time>2024-06-12T08:08:34Z</time>
      </trkpt>
      <trkpt lat="43.2788" lon="5.91345">
        <ele>320.8</ele>
        <time>2024-06-12T08:08:35Z</time>
      </trkpt>
      <trkpt lat="43.27875" lon="5.91344">
        <ele>320.8</ele>
        <time>2024-06-12T08:08:36Z</time>
      </trkpt>
      <trkpt lat="43.27869" lon="5.91342">
        <ele>320.6</ele>
        <time>2024-06-12T08:08:37Z</time>
      </trkpt>
      <trkpt lat="43.27868" lon="5.91342">
        <ele>320.4</ele>
        <time>2024-06-12T08:08:38Z</time>
      </trkpt>
      <trkpt lat="43.27862" lon="5.9134">
        <ele>320.4</ele>
        <time>2024-06-12T08:08:39Z</time>
      </trkpt>
      <trkpt lat="43.2786" lon="5.91339">
        <ele>320.4</ele>
        <time>2024-06-12T08:08:40Z</time>
      </trkpt>
      <trkpt lat="43.27856" lon="5.91338">
        <ele>320.2</ele>
        <time>2024-06-12T08:08:41Z</time>
      </trkpt>
      <trkpt lat="43.27851" lon="5.91336">
        <ele>320.2</ele>
        <time>2024-06-12T08:08:42Z</time>
      </trkpt>
      <trkpt lat="43.27849" lon="5.91335">
        <ele>320.2</ele>
        <time>2024-06-12T08:08:43Z</time>
      </trkpt>
      <trkpt lat="43.27845" lon="5.91332">
        <ele>320</ele>
        <time>2024-06-12T08:08:44Z</time>
      </trkpt>
      <trkpt lat="43.27843" lon="5.91331">
        <ele>320</ele>
        <time>2024-06-12T08:08:45Z</time>
      </trkpt>
      <trkpt lat="43.27841" lon="5.91329">
        <ele>320</ele>
        <time>2024-06-12T08:08:46Z</time>
      </trkpt>
      <trkpt lat="43.27837" lon="5.91326">
        <ele>320</ele>
        <time>2024-06-12T08:08:47Z</time>
      </trkpt>
      <trkpt lat="43.27837" lon="5.91324">
        <ele>320</ele>
        <time>2024-06-12T08:08:48Z</time>
      </trkpt>
      <trkpt lat="43.27834" lon="5.9132">
        <ele>320</ele>
        <time>2024-06-12T08:08:49Z</time>
      </trkpt>
      <trkpt lat="43.27833" lon="5.91318">
        <ele>320</ele>
        <time>2024-06-12T08:08:50Z</time>
      </trkpt>
      <trkpt lat="43.27831" lon="5.91314">
        <ele>320</ele>
        <time>2024-06-12T08:08:51Z</time>
      </trkpt>
      <trkpt lat="43.2783" lon="5.91312">
        <ele>320.4</ele>
        <time>2024-06-12T08:08:52Z</time>
      </trkpt>
      <trkpt lat="43.27829" lon="5.91308">
        <ele>320.4</ele>
        <time>2024-06-12T08:08:53Z</time>
      </trkpt>
      <trkpt lat="43.27828" lon="5.91306">
        <ele>320.4</ele>
        <time>2024-06-12T08:08:54Z</time>
      </trkpt>
      <trkpt lat="43.27827" lon="5.91303">
        <ele>320.4</ele>
        <time>2024-06-12T08:08:55Z</time>
      </trkpt>
      <trkpt lat="43.27825" lon="5.91298">
        <ele>320.8</ele>
        <time>2024-06-12T08:08:56Z</time>
      </trkpt>
      <trkpt lat="43.27824" lon="5.91296">
        <ele>321</ele>
        <time>2024-06-12T08:08:57Z</time>
      </trkpt>
      <trkpt lat="43.27822" lon="5.91291">
        <ele>321</ele>
        <time>2024-06-12T08:08:58Z</time>
      </trkpt>
      <trkpt lat="43.27822" lon="5.91289">
        <ele>321</ele>
        <time>2024-06-12T08:08:59Z</time>
      </trkpt>
      <trkpt lat="43.2782" lon="5.91283">
        <ele>321</ele>
        <time>2024-06-12T08:09:00Z</time>
      </trkpt>
      <trkpt lat="43.2782" lon="5.91282">
        <ele>321.6</ele>
        <time>2024-06-12T08:09:01Z</time>
      </trkpt>
      <trkpt lat="43.27819" lon="5.91276">
        <ele>321.6</ele>
        <time>2024-06-12T08:09:02Z</time>
      </trkpt>
      <trkpt lat="43.27819" lon="5.91274">
        <ele>321.6</ele>
        <time>2024-06-12T08:09:03Z</time>
      </trkpt>
      <trkpt lat="43.27818" lon="5.9127">
        <ele>322.4</ele>
        <time>2024-06-12T08:09:04Z</time>
      </trkpt>
      <trkpt lat="43.27818" lon="5.91264">
        <ele>322.4</ele>
        <time>2024-06-12T08:09:05Z</time>
      </trkpt>
      <trkpt lat="43.27818" lon="5.91262">
        <ele>322.2</ele>
        <time>2024-06-12T08:09:06Z</time>
      </trkpt>
      <trkpt lat="43.27818" lon="5.91256">
        <ele>322.2</ele>
        <time>2024-06-12T08:09:07Z</time>
      </trkpt>
      <trkpt lat="43.27819" lon="5.91255">
        <ele>322.2</ele>
        <time>2024-06-12T08:09:08Z</time>
      </trkpt>
      <trkpt lat="43.27819" lon="5.91251">
        <ele>323</ele>
        <time>2024-06-12T08:09:09Z</time>
      </trkpt>
      <trkpt lat="43.27819" lon="5.91245">
        <ele>323.4</ele>
        <time>2024-06-12T08:09:10Z</time>
      </trkpt>
      <trkpt lat="43.2782" lon="5.91243">
        <ele>323.4</ele>
        <time>2024-06-12T08:09:11Z</time>
      </trkpt>
      <trkpt lat="43.27821" lon="5.91237">
        <ele>323.4</ele>
        <time>2024-06-12T08:09:12Z</time>
      </trkpt>
      <trkpt lat="43.27821" lon="5.91235">
        <ele>323.4</ele>
        <time>2024-06-12T08:09:13Z</time>
      </trkpt>
      <trkpt lat="43.27822" lon="5.91228">
        <ele>324.2</ele>
        <time>2024-06-12T08:09:14Z</time>
      </trkpt>
      <trkpt lat="43.27823" lon="5.91225">
        <ele>324.2</ele>
        <time>2024-06-12T08:09:15Z</time>
      </trkpt>
      <trkpt lat="43.27824" lon="5.9122">
        <ele>324.2</ele>
        <time>2024-06-12T08:09:16Z</time>
      </trkpt>
      <trkpt lat="43.27826" lon="5.91211">
        <ele>324.2</ele>
        <time>2024-06-12T08:09:17Z</time>
      </trkpt>
      <trkpt lat="43.27827" lon="5.91209">
        <ele>324.2</ele>
        <time>2024-06-12T08:09:18Z</time>
      </trkpt>
      <trkpt lat="43.2783" lon="5.91199">
        <ele>324.8</ele>
        <time>2024-06-12T08:09:19Z</time>
      </trkpt>
      <trkpt lat="43.27831" lon="5.91196">
        <ele>324.8</ele>
        <time>2024-06-12T08:09:20Z</time>
      </trkpt>
      <trkpt lat="43.27835" lon="5.91186">
        <ele>324.8</ele>
        <time>2024-06-12T08:09:21Z</time>
      </trkpt>
      <trkpt lat="43.27836" lon="5.91182">
        <ele>324.2</ele>
        <time>2024-06-12T08:09:22Z</time>
      </trkpt>
      <trkpt lat="43.27839" lon="5.91175">
        <ele>324.2</ele>
        <time>2024-06-12T08:09:23Z</time>
      </trkpt>
      <trkpt lat="43.27844" lon="5.91164">
        <ele>324.2</ele>
        <time>2024-06-12T08:09:24Z</time>
      </trkpt>
      <trkpt lat="43.27845" lon="5.9116">
        <ele>324.2</ele>
        <time>2024-06-12T08:09:25Z</time>
      </trkpt>
      <trkpt lat="43.2785" lon="5.91153">
        <ele>324.2</ele>
        <time>2024-06-12T08:09:26Z</time>
      </trkpt>
      <trkpt lat="43.27855" lon="5.91147">
        <ele>324.2</ele>
        <time>2024-06-12T08:09:27Z</time>
      </trkpt>
      <trkpt lat="43.27861" lon="5.91141">
        <ele>324.2</ele>
        <time>2024-06-12T08:09:28Z</time>
      </trkpt>
      <trkpt lat="43.27871" lon="5.91135">
        <ele>323.6</ele>
        <time>2024-06-12T08:09:29Z</time>
      </trkpt>
      <trkpt lat="43.27875" lon="5.91133">
        <ele>323.6</ele>
        <time>2024-06-12T08:09:30Z</time>
      </trkpt>
      <trkpt lat="43.27885" lon="5.91126">
        <ele>323.6</ele>
        <time>2024-06-12T08:09:31Z</time>
      </trkpt>
      <trkpt lat="43.27888" lon="5.91124">
        <ele>323</ele>
        <time>2024-06-12T08:09:32Z</time>
      </trkpt>
      <trkpt lat="43.27897" lon="5.91114">
        <ele>323</ele>
        <time>2024-06-12T08:09:33Z</time>
      </trkpt>
      <trkpt lat="43.27899" lon="5.9111">
        <ele>323</ele>
        <time>2024-06-12T08:09:34Z</time>
      </trkpt>
      <trkpt lat="43.27904" lon="5.91096">
        <ele>323</ele>
        <time>2024-06-12T08:09:35Z</time>
      </trkpt>
      <trkpt lat="43.27905" lon="5.91091">
        <ele>322.4</ele>
        <time>2024-06-12T08:09:36Z</time>
      </trkpt>
      <trkpt lat="43.27907" lon="5.9108">
        <ele>321.8</ele>
        <time>2024-06-12T08:09:37Z</time>
      </trkpt>
      <trkpt lat="43.27904" lon="5.91064">
        <ele>321.8</ele>
        <time>2024-06-12T08:09:38Z</time>
      </trkpt>
      <trkpt lat="43.27903" lon="5.91059">
        <ele>321.8</ele>
        <time>2024-06-12T08:09:39Z</time>
      </trkpt>
      <trkpt lat="43.279" lon="5.91049">
        <ele>321.8</ele>
        <time>2024-06-12T08:09:40Z</time>
      </trkpt>
      <trkpt lat="43.27896" lon="5.91039">
        <ele>321</ele>
        <time>2024-06-12T08:09:41Z</time>
      </trkpt>
      <trkpt lat="43.27892" lon="5.91029">
        <ele>321</ele>
        <time>2024-06-12T08:09:42Z</time>
      </trkpt>
      <trkpt lat="43.27888" lon="5.9102">
        <ele>321</ele>
        <time>2024-06-12T08:09:43Z</time>
      </trkpt>
      <trkpt lat="43.27885" lon="5.9101">
        <ele>320</ele>
        <time>2024-06-12T08:09:44Z</time>
      </trkpt>
      <trkpt lat="43.27881" lon="5.91">
        <ele>319.2</ele>
        <time>2024-06-12T08:09:45Z</time>
      </trkpt>
      <trkpt lat="43.27879" lon="5.9099">
        <ele>319.2</ele>
        <time>2024-06-12T08:09:46Z</time>
      </trkpt>
      <trkpt lat="43.27877" lon="5.90974">
        <ele>319.2</ele>
        <time>2024-06-12T08:09:47Z</time>
      </trkpt>
      <trkpt lat="43.27877" lon="5.90968">
        <ele>319.2</ele>
        <time>2024-06-12T08:09:48Z</time>
      </trkpt>
      <trkpt lat="43.27878" lon="5.90957">
        <ele>317.8</ele>
        <time>2024-06-12T08:09:49Z</time>
      </trkpt>
      <trkpt lat="43.27882" lon="5.90948">
        <ele>317.8</ele>
        <time>2024-06-12T08:09:50Z</time>
      </trkpt>
      <trkpt lat="43.27887" lon="5.9094">
        <ele>317.8</ele>
        <time>2024-06-12T08:09:51Z</time>
      </trkpt>
      <trkpt lat="43.27892" lon="5.90932">
        <ele>317.8</ele>
        <time>2024-06-12T08:09:52Z</time>
      </trkpt>
      <trkpt lat="43.27897" lon="5.90926">
        <ele>317.2</ele>
        <time>2024-06-12T08:09:53Z</time>
      </trkpt>
      <trkpt lat="43.27904" lon="5.90917">
        <ele>316.8</ele>
        <time>2024-06-12T08:09:54Z</time>
      </trkpt>
      <trkpt lat="43.27907" lon="5.90914">
        <ele>316.8</ele>
        <time>2024-06-12T08:09:55Z</time>
      </trkpt>
      <trkpt lat="43.27914" lon="5.90905">
        <ele>316.8</ele>
        <time>2024-06-12T08:09:56Z</time>
      </trkpt>
      <trkpt lat="43.27916" lon="5.90903">
        <ele>316.8</ele>
        <time>2024-06-12T08:09:57Z</time>
      </trkpt>
      <trkpt lat="43.27921" lon="5.90897">
        <ele>316</ele>
        <time>2024-06-12T08:09:58Z</time>
      </trkpt>
      <trkpt lat="43.27927" lon="5.90887">
        <ele>316</ele>
        <time>2024-06-12T08:09:59Z</time>
      </trkpt>
      <trkpt lat="43.27928" lon="5.90884">
        <ele>316</ele>
        <time>2024-06-12T08:10:00Z</time>
      </trkpt>
      <trkpt lat="43.27932" lon="5.90873">
        <ele>316</ele>
        <time>2024-06-12T08:10:01Z</time>
      </trkpt>
      <trkpt lat="43.27934" lon="5.90869">
        <ele>316</ele>
        <time>2024-06-12T08:10:02Z</time>
      </trkpt>
      <trkpt lat="43.27936" lon="5.90862">
        <ele>315.8</ele>
        <time>2024-06-12T08:10:03Z</time>
      </trkpt>
      <trkpt lat="43.27939" lon="5.90855">
        <ele>315.8</ele>
        <time>2024-06-12T08:10:04Z</time>
      </trkpt>
      <trkpt lat="43.27942" lon="5.90848">
        <ele>315.8</ele>
        <time>2024-06-12T08:10:05Z</time>
      </trkpt>
      <trkpt lat="43.27945" lon="5.90837">
        <ele>315.8</ele>
        <time>2024-06-12T08:10:06Z</time>
      </trkpt>
      <trkpt lat="43.27946" lon="5.90834">
        <ele>315.8</ele>
        <time>2024-06-12T08:10:07Z</time>
      </trkpt>
      <trkpt lat="43.2795" lon="5.90823">
        <ele>315</ele>
        <time>2024-06-12T08:10:08Z</time>
      </trkpt>
      <trkpt lat="43.27951" lon="5.90819">
        <ele>315</ele>
        <time>2024-06-12T08:10:09Z</time>
      </trkpt>
      <trkpt lat="43.27954" lon="5.90808">
        <ele>315</ele>
        <time>2024-06-12T08:10:10Z</time>
      </trkpt>
      <trkpt lat="43.27955" lon="5.90804">
        <ele>315.2</ele>
        <time>2024-06-12T08:10:11Z</time>
      </trkpt>
      <trkpt lat="43.27957" lon="5.90797">
        <ele>315.2</ele>
        <time>2024-06-12T08:10:12Z</time>
      </trkpt>
      <trkpt lat="43.2796" lon="5.90785">
        <ele>315</ele>
        <time>2024-06-12T08:10:13Z</time>
      </trkpt>
      <trkpt lat="43.27961" lon="5.90781">
        <ele>315</ele>
        <time>2024-06-12T08:10:14Z</time>
      </trkpt>
      <trkpt lat="43.27963" lon="5.90774">
        <ele>315</ele>
        <time>2024-06-12T08:10:15Z</time>
      </trkpt>
      <trkpt lat="43.27964" lon="5.90766">
        <ele>315</ele>
        <time>2024-06-12T08:10:16Z</time>
      </trkpt>
      <trkpt lat="43.27966" lon="5.90758">
        <ele>315.4</ele>
        <time>2024-06-12T08:10:17Z</time>
      </trkpt>
      <trkpt lat="43.27967" lon="5.90747">
        <ele>315.4</ele>
        <time>2024-06-12T08:10:18Z</time>
      </trkpt>
      <trkpt lat="43.27968" lon="5.90743">
        <ele>315.4</ele>
        <time>2024-06-12T08:10:19Z</time>
      </trkpt>
      <trkpt lat="43.27969" lon="5.90736">
        <ele>315.2</ele>
        <time>2024-06-12T08:10:20Z</time>
      </trkpt>
      <trkpt lat="43.2797" lon="5.90726">
        <ele>315.2</ele>
        <time>2024-06-12T08:10:21Z</time>
      </trkpt>
      <trkpt lat="43.2797" lon="5.90722">
        <ele>315.2</ele>
        <time>2024-06-12T08:10:22Z</time>
      </trkpt>
      <trkpt lat="43.27971" lon="5.90715">
        <ele>315.2</ele>
        <time>2024-06-12T08:10:23Z</time>
      </trkpt>
      <trkpt lat="43.27972" lon="5.90714">
        <ele>315</ele>
        <time>2024-06-12T08:10:24Z</time>
      </trkpt>
      <trkpt lat="43.27972" lon="5.90709">
        <ele>315</ele>
        <time>2024-06-12T08:10:25Z</time>
      </trkpt>
      <trkpt lat="43.27973" lon="5.90706">
        <ele>315</ele>
        <time>2024-06-12T08:10:26Z</time>
      </trkpt>
      <trkpt lat="43.27973" lon="5.90703">
        <ele>315</ele>
        <time>2024-06-12T08:10:27Z</time>
      </trkpt>
      <trkpt lat="43.27974" lon="5.907">
        <ele>315</ele>
        <time>2024-06-12T08:10:28Z</time>
      </trkpt>
      <trkpt lat="43.27974" lon="5.90697">
        <ele>313.8</ele>
        <time>2024-06-12T08:11:33Z</time>
      </trkpt>
      <trkpt lat="43.27974" lon="5.90694">
        <ele>313.8</ele>
        <time>2024-06-12T08:11:34Z</time>
      </trkpt>
      <trkpt lat="43.27975" lon="5.90691">
        <ele>313.8</ele>
        <time>2024-06-12T08:11:35Z</time>
      </trkpt>
      <trkpt lat="43.27976" lon="5.90683">
        <ele>313.8</ele>
        <time>2024-06-12T08:11:36Z</time>
      </trkpt>
      <trkpt lat="43.27977" lon="5.9068">
        <ele>313.4</ele>
        <time>2024-06-12T08:11:37Z</time>
      </trkpt>
      <trkpt lat="43.2798" lon="5.9067">
        <ele>313.4</ele>
        <time>2024-06-12T08:11:38Z</time>
      </trkpt>
      <trkpt lat="43.2798" lon="5.90666">
        <ele>313.4</ele>
        <time>2024-06-12T08:11:39Z</time>
      </trkpt>
      <trkpt lat="43.27983" lon="5.90655">
        <ele>313.4</ele>
        <time>2024-06-12T08:11:40Z</time>
      </trkpt>
      <trkpt lat="43.27985" lon="5.90652">
        <ele>313.4</ele>
        <time>2024-06-12T08:11:41Z</time>
      </trkpt>
      <trkpt lat="43.27987" lon="5.90644">
        <ele>313</ele>
        <time>2024-06-12T08:11:42Z</time>
      </trkpt>
      <trkpt lat="43.27989" lon="5.90636">
        <ele>313</ele>
        <time>2024-06-12T08:11:43Z</time>
      </trkpt>
      <trkpt lat="43.27993" lon="5.90623">
        <ele>313</ele>
        <time>2024-06-12T08:11:44Z</time>
      </trkpt>
      <trkpt lat="43.27994" lon="5.90618">
        <ele>313</ele>
        <time>2024-06-12T08:11:45Z</time>
      </trkpt>
      <trkpt lat="43.27996" lon="5.9061">
        <ele>312.8</ele>
        <time>2024-06-12T08:11:46Z</time>
      </trkpt>
      <trkpt lat="43.27999" lon="5.90596">
        <ele>312.8</ele>
        <time>2024-06-12T08:11:47Z</time>
      </trkpt>
      <trkpt lat="43.28" lon="5.90591">
        <ele>312.8</ele>
        <time>2024-06-12T08:11:48Z</time>
      </trkpt>
      <trkpt lat="43.28003" lon="5.90576">
        <ele>312.8</ele>
        <time>2024-06-12T08:11:49Z</time>
      </trkpt>
      <trkpt lat="43.28004" lon="5.90571">
        <ele>312.8</ele>
        <time>2024-06-12T08:11:50Z</time>
      </trkpt>
      <trkpt lat="43.28005" lon="5.90556">
        <ele>312.8</ele>
        <time>2024-06-12T08:11:51Z</time>
      </trkpt>
      <trkpt lat="43.28006" lon="5.90551">
        <ele>312.2</ele>
        <time>2024-06-12T08:11:52Z</time>
      </trkpt>
      <trkpt lat="43.28007" lon="5.90541">
        <ele>312.2</ele>
        <time>2024-06-12T08:11:53Z</time>
      </trkpt>
      <trkpt lat="43.28007" lon="5.90531">
        <ele>312.2</ele>
        <time>2024-06-12T08:11:54Z</time>
      </trkpt>
      <trkpt lat="43.28008" lon="5.90516">
        <ele>312.2</ele>
        <time>2024-06-12T08:11:55Z</time>
      </trkpt>
      <trkpt lat="43.28009" lon="5.90511">
        <ele>312.2</ele>
        <time>2024-06-12T08:11:56Z</time>
      </trkpt>
      <trkpt lat="43.28009" lon="5.90501">
        <ele>312.2</ele>
        <time>2024-06-12T08:11:57Z</time>
      </trkpt>
      <trkpt lat="43.28011" lon="5.90486">
        <ele>312.2</ele>
        <time>2024-06-12T08:11:58Z</time>
      </trkpt>
      <trkpt lat="43.28011" lon="5.90481">
        <ele>311.8</ele>
        <time>2024-06-12T08:11:59Z</time>
      </trkpt>
      <trkpt lat="43.28013" lon="5.90466">
        <ele>311.8</ele>
        <time>2024-06-12T08:12:00Z</time>
      </trkpt>
      <trkpt lat="43.28014" lon="5.90461">
        <ele>312</ele>
        <time>2024-06-12T08:12:01Z</time>
      </trkpt>
      <trkpt lat="43.28018" lon="5.90448">
        <ele>312</ele>
        <time>2024-06-12T08:12:02Z</time>
      </trkpt>
      <trkpt lat="43.28019" lon="5.90444">
        <ele>312</ele>
        <time>2024-06-12T08:12:03Z</time>
      </trkpt>
      <trkpt lat="43.28021" lon="5.90436">
        <ele>311.2</ele>
        <time>2024-06-12T08:12:04Z</time>
      </trkpt>
      <trkpt lat="43.28025" lon="5.90424">
        <ele>311.2</ele>
        <time>2024-06-12T08:12:05Z</time>
      </trkpt>
      <trkpt lat="43.28026" lon="5.9042">
        <ele>311.2</ele>
        <time>2024-06-12T08:12:06Z</time>
      </trkpt>
      <trkpt lat="43.2803" lon="5.90408">
        <ele>311.2</ele>
        <time>2024-06-12T08:12:07Z</time>
      </trkpt>
      <trkpt lat="43.28031" lon="5.90404">
        <ele>311</ele>
        <time>2024-06-12T08:12:08Z</time>
      </trkpt>
      <trkpt lat="43.28034" lon="5.90396">
        <ele>311.2</ele>
        <time>2024-06-12T08:12:09Z</time>
      </trkpt>
      <trkpt lat="43.28037" lon="5.90385">
        <ele>311.2</ele>
        <time>2024-06-12T08:12:10Z</time>
      </trkpt>
      <trkpt lat="43.28039" lon="5.90381">
        <ele>311.2</ele>
        <time>2024-06-12T08:12:11Z</time>
      </trkpt>
      <trkpt lat="43.28041" lon="5.90373">
        <ele>310.8</ele>
        <time>2024-06-12T08:12:12Z</time>
      </trkpt>
      <trkpt lat="43.28044" lon="5.90366">
        <ele>310.6</ele>
        <time>2024-06-12T08:12:13Z</time>
      </trkpt>
      <trkpt lat="43.28046" lon="5.90358">
        <ele>310.6</ele>
        <time>2024-06-12T08:12:14Z</time>
      </trkpt>
      <trkpt lat="43.28048" lon="5.9035">
        <ele>310.6</ele>
        <time>2024-06-12T08:12:15Z</time>
      </trkpt>
      <trkpt lat="43.28052" lon="5.90339">
        <ele>310.6</ele>
        <time>2024-06-12T08:12:16Z</time>
      </trkpt>
      <trkpt lat="43.28053" lon="5.90335">
        <ele>310.6</ele>
        <time>2024-06-12T08:12:17Z</time>
      </trkpt>
      <trkpt lat="43.28057" lon="5.90325">
        <ele>310.6</ele>
        <time>2024-06-12T08:12:18Z</time>
      </trkpt>
      <trkpt lat="43.28058" lon="5.90321">
        <ele>310.6</ele>
        <time>2024-06-12T08:12:19Z</time>
      </trkpt>
      <trkpt lat="43.2806" lon="5.90314">
        <ele>310.6</ele>
        <time>2024-06-12T08:12:20Z</time>
      </trkpt>
      <trkpt lat="43.28062" lon="5.90306">
        <ele>310.4</ele>
        <time>2024-06-12T08:12:21Z</time>
      </trkpt>
      <trkpt lat="43.28065" lon="5.90299">
        <ele>310.2</ele>
        <time>2024-06-12T08:12:22Z</time>
      </trkpt>
      <trkpt lat="43.28068" lon="5.90288">
        <ele>310.2</ele>
        <time>2024-06-12T08:12:23Z</time>
      </trkpt>
      <trkpt lat="43.28069" lon="5.90285">
        <ele>310.2</ele>
        <time>2024-06-12T08:12:24Z</time>
      </trkpt>
      <trkpt lat="43.28072" lon="5.90274">
        <ele>310.2</ele>
        <time>2024-06-12T08:12:25Z</time>
      </trkpt>
      <trkpt lat="43.28073" lon="5.90271">
        <ele>310.2</ele>
        <time>2024-06-12T08:12:26Z</time>
      </trkpt>
      <trkpt lat="43.28075" lon="5.90264">
        <ele>310.4</ele>
        <time>2024-06-12T08:12:27Z</time>
      </trkpt>
      <trkpt lat="43.28077" lon="5.90254">
        <ele>310.4</ele>
        <time>2024-06-12T08:12:28Z</time>
      </trkpt>
      <trkpt lat="43.28078" lon="5.90251">
        <ele>310.4</ele>
        <time>2024-06-12T08:12:29Z</time>
      </trkpt>
      <trkpt lat="43.28081" lon="5.90241">
        <ele>310.4</ele>
        <time>2024-06-12T08:12:30Z</time>
      </trkpt>
      <trkpt lat="43.28082" lon="5.90238">
        <ele>310.4</ele>
        <time>2024-06-12T08:12:31Z</time>
      </trkpt>
      <trkpt lat="43.28085" lon="5.90228">
        <ele>310.6</ele>
        <time>2024-06-12T08:12:32Z</time>
      </trkpt>
      <trkpt lat="43.28086" lon="5.90225">
        <ele>310.6</ele>
        <time>2024-06-12T08:12:33Z</time>
      </trkpt>
      <trkpt lat="43.2809" lon="5.90215">
        <ele>310.6</ele>
        <time>2024-06-12T08:12:34Z</time>
      </trkpt>
      <trkpt lat="43.28091" lon="5.90212">
        <ele>310.6</ele>
        <time>2024-06-12T08:12:35Z</time>
      </trkpt>
      <trkpt lat="43.28094" lon="5.90202">
        <ele>311</ele>
        <time>2024-06-12T08:12:36Z</time>
      </trkpt>
      <trkpt lat="43.28095" lon="5.90199">
        <ele>311</ele>
        <time>2024-06-12T08:12:37Z</time>
      </trkpt>
      <trkpt lat="43.28098" lon="5.90193">
        <ele>311</ele>
        <time>2024-06-12T08:12:38Z</time>
      </trkpt>
      <trkpt lat="43.281" lon="5.90187">
        <ele>311</ele>
        <time>2024-06-12T08:12:39Z</time>
      </trkpt>
      <trkpt lat="43.28104" lon="5.90178">
        <ele>311</ele>
        <time>2024-06-12T08:12:40Z</time>
      </trkpt>
      <trkpt lat="43.28106" lon="5.90175">
        <ele>311</ele>
        <time>2024-06-12T08:12:41Z</time>
      </trkpt>
      <trkpt lat="43.28109" lon="5.90169">
        <ele>311</ele>
        <time>2024-06-12T08:12:42Z</time>
      </trkpt>
      <trkpt lat="43.28112" lon="5.90163">
        <ele>311</ele>
        <time>2024-06-12T08:12:43Z</time>
      </trkpt>
      <trkpt lat="43.28117" lon="5.90156">
        <ele>311</ele>
        <time>2024-06-12T08:12:44Z</time>
      </trkpt>
      <trkpt lat="43.28119" lon="5.90154">
        <ele>311</ele>
        <time>2024-06-12T08:12:45Z</time>
      </trkpt>
      <trkpt lat="43.28124" lon="5.90147">
        <ele>311</ele>
        <time>2024-06-12T08:12:46Z</time>
      </trkpt>
      <trkpt lat="43.28126" lon="5.90145">
        <ele>311</ele>
        <time>2024-06-12T08:12:47Z</time>
      </trkpt>
      <trkpt lat="43.28131" lon="5.90139">
        <ele>311</ele>
        <time>2024-06-12T08:12:48Z</time>
      </trkpt>
      <trkpt lat="43.28133" lon="5.90137">
        <ele>311</ele>
        <time>2024-06-12T08:12:49Z</time>
      </trkpt>
      <trkpt lat="43.28137" lon="5.9013">
        <ele>311</ele>
        <time>2024-06-12T08:12:50Z</time>
      </trkpt>
      <trkpt lat="43.28139" lon="5.90128">
        <ele>311</ele>
        <time>2024-06-12T08:12:51Z</time>
      </trkpt>
      <trkpt lat="43.28142" lon="5.90124">
        <ele>311</ele>
        <time>2024-06-12T08:12:52Z</time>
      </trkpt>
      <trkpt lat="43.28147" lon="5.90117">
        <ele>311.2</ele>
        <time>2024-06-12T08:12:53Z</time>
      </trkpt>
      <trkpt lat="43.28148" lon="5.90115">
        <ele>310.8</ele>
        <time>2024-06-12T08:12:54Z</time>
      </trkpt>
      <trkpt lat="43.28151" lon="5.90111">
        <ele>310.8</ele>
        <time>2024-06-12T08:12:55Z</time>
      </trkpt>
      <trkpt lat="43.28156" lon="5.90105">
        <ele>310.8</ele>
        <time>2024-06-12T08:12:56Z</time>
      </trkpt>
      <trkpt lat="43.28157" lon="5.90102">
        <ele>310.8</ele>
        <time>2024-06-12T08:12:57Z</time>
      </trkpt>
      <trkpt lat="43.2816" lon="5.90095">
        <ele>311.2</ele>
        <time>2024-06-12T08:12:58Z</time>
      </trkpt>
      <trkpt lat="43.28162" lon="5.90092">
        <ele>311.2</ele>
        <time>2024-06-12T08:12:59Z</time>
      </trkpt>
      <trkpt lat="43.28164" lon="5.90087">
        <ele>311.2</ele>
        <time>2024-06-12T08:13:00Z</time>
      </trkpt>
      <trkpt lat="43.28166" lon="5.90078">
        <ele>311.2</ele>
        <time>2024-06-12T08:13:01Z</time>
      </trkpt>
      <trkpt lat="43.28167" lon="5.90075">
        <ele>311.8</ele>
        <time>2024-06-12T08:13:02Z</time>
      </trkpt>
      <trkpt lat="43.28169" lon="5.9007">
        <ele>311.4</ele>
        <time>2024-06-12T08:13:03Z</time>
      </trkpt>
      <trkpt lat="43.28172" lon="5.90061">
        <ele>311.4</ele>
        <time>2024-06-12T08:13:04Z</time>
      </trkpt>
      <trkpt lat="43.28172" lon="5.90058">
        <ele>311.4</ele>
        <time>2024-06-12T08:13:05Z</time>
      </trkpt>
      <trkpt lat="43.28175" lon="5.90049">
        <ele>311.6</ele>
        <time>2024-06-12T08:13:06Z</time>
      </trkpt>
      <trkpt lat="43.28175" lon="5.90045">
        <ele>311.6</ele>
        <time>2024-06-12T08:13:07Z</time>
      </trkpt>
      <trkpt lat="43.28177" lon="5.90039">
        <ele>311.6</ele>
        <time>2024-06-12T08:13:08Z</time>
      </trkpt>
      <trkpt lat="43.2818" lon="5.9003">
        <ele>311.6</ele>
        <time>2024-06-12T08:13:09Z</time>
      </trkpt>
      <trkpt lat="43.28181" lon="5.90027">
        <ele>311.6</ele>
        <time>2024-06-12T08:13:10Z</time>
      </trkpt>
      <trkpt lat="43.28184" lon="5.90018">
        <ele>311.6</ele>
        <time>2024-06-12T08:13:11Z</time>
      </trkpt>
      <trkpt lat="43.28185" lon="5.90015">
        <ele>311.8</ele>
        <time>2024-06-12T08:13:12Z</time>
      </trkpt>
      <trkpt lat="43.28188" lon="5.90007">
        <ele>311.8</ele>
        <time>2024-06-12T08:13:13Z</time>
      </trkpt>
      <trkpt lat="43.28189" lon="5.90004">
        <ele>311.8</ele>
        <time>2024-06-12T08:13:14Z</time>
      </trkpt>
      <trkpt lat="43.28194" lon="5.89996">
        <ele>311.8</ele>
        <time>2024-06-12T08:13:15Z</time>
      </trkpt>
      <trkpt lat="43.28195" lon="5.89994">
        <ele>312</ele>
        <time>2024-06-12T08:13:16Z</time>
      </trkpt>
      <trkpt lat="43.282" lon="5.89986">
        <ele>312.2</ele>
        <time>2024-06-12T08:13:17Z</time>
      </trkpt>
      <trkpt lat="43.28202" lon="5.89984">
        <ele>312.2</ele>
        <time>2024-06-12T08:13:18Z</time>
      </trkpt>
      <trkpt lat="43.28207" lon="5.89976">
        <ele>312.2</ele>
        <time>2024-06-12T08:13:19Z</time>
      </trkpt>
      <trkpt lat="43.28209" lon="5.89974">
        <ele>312.2</ele>
        <time>2024-06-12T08:13:20Z</time>
      </trkpt>
      <trkpt lat="43.28214" lon="5.89967">
        <ele>312.2</ele>
        <time>2024-06-12T08:13:21Z</time>
      </trkpt>
      <trkpt lat="43.28216" lon="5.89964">
        <ele>312.2</ele>
        <time>2024-06-12T08:13:22Z</time>
      </trkpt>
      <trkpt lat="43.28219" lon="5.89959">
        <ele>312.2</ele>
        <time>2024-06-12T08:13:23Z</time>
      </trkpt>
      <trkpt lat="43.28225" lon="5.89952">
        <ele>312.2</ele>
        <time>2024-06-12T08:13:24Z</time>
      </trkpt>
      <trkpt lat="43.28227" lon="5.89949">
        <ele>312.2</ele>
        <time>2024-06-12T08:13:25Z</time>
      </trkpt>
      <trkpt lat="43.28232" lon="5.89941">
        <ele>312.4</ele>
        <time>2024-06-12T08:13:26Z</time>
      </trkpt>
      <trkpt lat="43.28234" lon="5.89938">
        <ele>312.4</ele>
        <time>2024-06-12T08:13:27Z</time>
      </trkpt>
      <trkpt lat="43.28238" lon="5.89932">
        <ele>312.4</ele>
        <time>2024-06-12T08:13:28Z</time>
      </trkpt>
      <trkpt lat="43.28244" lon="5.89924">
        <ele>312.4</ele>
        <time>2024-06-12T08:13:29Z</time>
      </trkpt>
      <trkpt lat="43.28246" lon="5.89921">
        <ele>312</ele>
        <time>2024-06-12T08:13:30Z</time>
      </trkpt>
      <trkpt lat="43.28252" lon="5.89913">
        <ele>312</ele>
        <time>2024-06-12T08:13:31Z</time>
      </trkpt>
      <trkpt lat="43.28254" lon="5.89911">
        <ele>312</ele>
        <time>2024-06-12T08:13:32Z</time>
      </trkpt>
      <trkpt lat="43.28259" lon="5.89902">
        <ele>312</ele>
        <time>2024-06-12T08:13:33Z</time>
      </trkpt>
      <trkpt lat="43.28261" lon="5.89899">
        <ele>312</ele>
        <time>2024-06-12T08:13:34Z</time>
      </trkpt>
      <trkpt lat="43.28265" lon="5.89893">
        <ele>311.8</ele>
        <time>2024-06-12T08:13:35Z</time>
      </trkpt>
      <trkpt lat="43.2827" lon="5.89886">
        <ele>311.8</ele>
        <time>2024-06-12T08:13:36Z</time>
      </trkpt>
      <trkpt lat="43.28272" lon="5.89883">
        <ele>311.8</ele>
        <time>2024-06-12T08:13:37Z</time>
      </trkpt>
      <trkpt lat="43.28278" lon="5.89876">
        <ele>312</ele>
        <time>2024-06-12T08:13:38Z</time>
      </trkpt>
      <trkpt lat="43.2828" lon="5.89874">
        <ele>311.8</ele>
        <time>2024-06-12T08:13:39Z</time>
      </trkpt>
      <trkpt lat="43.28285" lon="5.89866">
        <ele>311.8</ele>
        <time>2024-06-12T08:13:40Z</time>
      </trkpt>
      <trkpt lat="43.28287" lon="5.89863">
        <ele>311.8</ele>
        <time>2024-06-12T08:13:41Z</time>
      </trkpt>
      <trkpt lat="43.28292" lon="5.89855">
        <ele>312</ele>
        <time>2024-06-12T08:13:42Z</time>
      </trkpt>
      <trkpt lat="43.28293" lon="5.89852">
        <ele>312</ele>
        <time>2024-06-12T08:13:43Z</time>
      </trkpt>
      <trkpt lat="43.28296" lon="5.89843">
        <ele>312</ele>
        <time>2024-06-12T08:13:44Z</time>
      </trkpt>
      <trkpt lat="43.28298" lon="5.8984">
        <ele>312</ele>
        <time>2024-06-12T08:13:45Z</time>
      </trkpt>
      <trkpt lat="43.283" lon="5.89831">
        <ele>312</ele>
        <time>2024-06-12T08:13:46Z</time>
      </trkpt>
      <trkpt lat="43.28301" lon="5.89828">
        <ele>312.2</ele>
        <time>2024-06-12T08:13:47Z</time>
      </trkpt>
      <trkpt lat="43.28303" lon="5.89818">
        <ele>312.2</ele>
        <time>2024-06-12T08:13:48Z</time>
      </trkpt>
      <trkpt lat="43.28304" lon="5.89815">
        <ele>312.2</ele>
        <time>2024-06-12T08:13:49Z</time>
      </trkpt>
      <trkpt lat="43.28305" lon="5.89809">
        <ele>312.2</ele>
        <time>2024-06-12T08:13:50Z</time>
      </trkpt>
      <trkpt lat="43.28307" lon="5.89799">
        <ele>312.2</ele>
        <time>2024-06-12T08:13:51Z</time>
      </trkpt>
      <trkpt lat="43.28308" lon="5.89796">
        <ele>312.2</ele>
        <time>2024-06-12T08:13:52Z</time>
      </trkpt>
      <trkpt lat="43.28309" lon="5.8979">
        <ele>312.2</ele>
        <time>2024-06-12T08:13:53Z</time>
      </trkpt>
      <trkpt lat="43.28311" lon="5.8978">
        <ele>312.2</ele>
        <time>2024-06-12T08:13:54Z</time>
      </trkpt>
      <trkpt lat="43.28312" lon="5.89777">
        <ele>312.2</ele>
        <time>2024-06-12T08:13:55Z</time>
      </trkpt>
      <trkpt lat="43.28314" lon="5.89768">
        <ele>312.6</ele>
        <time>2024-06-12T08:13:56Z</time>
      </trkpt>
      <trkpt lat="43.28315" lon="5.89766">
        <ele>312.6</ele>
        <time>2024-06-12T08:13:57Z</time>
      </trkpt>
      <trkpt lat="43.28318" lon="5.89757">
        <ele>312.6</ele>
        <time>2024-06-12T08:13:58Z</time>
      </trkpt>
      <trkpt lat="43.28319" lon="5.89754">
        <ele>312.6</ele>
        <time>2024-06-12T08:13:59Z</time>
      </trkpt>
      <trkpt lat="43.28321" lon="5.89748">
        <ele>312.6</ele>
        <time>2024-06-12T08:14:00Z</time>
      </trkpt>
      <trkpt lat="43.28324" lon="5.89742">
        <ele>312.6</ele>
        <time>2024-06-12T08:14:01Z</time>
      </trkpt>
      <trkpt lat="43.28326" lon="5.89737">
        <ele>312.6</ele>
        <time>2024-06-12T08:14:02Z</time>
      </trkpt>
      <trkpt lat="43.28328" lon="5.89731">
        <ele>312.6</ele>
        <time>2024-06-12T08:14:03Z</time>
      </trkpt>
      <trkpt lat="43.28332" lon="5.89723">
        <ele>312.6</ele>
        <time>2024-06-12T08:14:04Z</time>
      </trkpt>
      <trkpt lat="43.28333" lon="5.8972">
        <ele>313</ele>
        <time>2024-06-12T08:14:05Z</time>
      </trkpt>
      <trkpt lat="43.28337" lon="5.89713">
        <ele>313</ele>
        <time>2024-06-12T08:14:06Z</time>
      </trkpt>
      <trkpt lat="43.28338" lon="5.8971">
        <ele>313</ele>
        <time>2024-06-12T08:14:07Z</time>
      </trkpt>
      <trkpt lat="43.28341" lon="5.89701">
        <ele>313</ele>
        <time>2024-06-12T08:14:08Z</time>
      </trkpt>
      <trkpt lat="43.28342" lon="5.89698">
        <ele>313</ele>
        <time>2024-06-12T08:14:09Z</time>
      </trkpt>
      <trkpt lat="43.28345" lon="5.89689">
        <ele>313.2</ele>
        <time>2024-06-12T08:14:10Z</time>
      </trkpt>
      <trkpt lat="43.28346" lon="5.89686">
        <ele>313.2</ele>
        <time>2024-06-12T08:14:11Z</time>
      </trkpt>
      <trkpt lat="43.28348" lon="5.8968">
        <ele>313.2</ele>
        <time>2024-06-12T08:14:12Z</time>
      </trkpt>
      <trkpt lat="43.28351" lon="5.8967">
        <ele>313.2</ele>
        <time>2024-06-12T08:14:13Z</time>
      </trkpt>
      <trkpt lat="43.28352" lon="5.89667">
        <ele>313.2</ele>
        <time>2024-06-12T08:14:14Z</time>
      </trkpt>
      <trkpt lat="43.28355" lon="5.89657">
        <ele>313.2</ele>
        <time>2024-06-12T08:14:15Z</time>
      </trkpt>
      <trkpt lat="43.28356" lon="5.89654">
        <ele>313.2</ele>
        <time>2024-06-12T08:14:16Z</time>
      </trkpt>
      <trkpt lat="43.28358" lon="5.89644">
        <ele>313.2</ele>
        <time>2024-06-12T08:14:17Z</time>
      </trkpt>
      <trkpt lat="43.28359" lon="5.8964">
        <ele>313.2</ele>
        <time>2024-06-12T08:14:18Z</time>
      </trkpt>
      <trkpt lat="43.28361" lon="5.89633">
        <ele>313.2</ele>
        <time>2024-06-12T08:14:19Z</time>
      </trkpt>
      <trkpt lat="43.28362" lon="5.89626">
        <ele>313.2</ele>
        <time>2024-06-12T08:14:20Z</time>
      </trkpt>
      <trkpt lat="43.28364" lon="5.8962">
        <ele>313.2</ele>
        <time>2024-06-12T08:14:21Z</time>
      </trkpt>
      <trkpt lat="43.28366" lon="5.89613">
        <ele>313.2</ele>
        <time>2024-06-12T08:14:22Z</time>
      </trkpt>
      <trkpt lat="43.28368" lon="5.89605">
        <ele>313</ele>
        <time>2024-06-12T08:14:23Z</time>
      </trkpt>
      <trkpt lat="43.2837" lon="5.89595">
        <ele>312.8</ele>
        <time>2024-06-12T08:14:24Z</time>
      </trkpt>
      <trkpt lat="43.28371" lon="5.89591">
        <ele>312.8</ele>
        <time>2024-06-12T08:14:25Z</time>
      </trkpt>
      <trkpt lat="43.28373" lon="5.89584">
        <ele>312.8</ele>
        <time>2024-06-12T08:14:26Z</time>
      </trkpt>
      <trkpt lat="43.28376" lon="5.89573">
        <ele>313</ele>
        <time>2024-06-12T08:14:27Z</time>
      </trkpt>
      <trkpt lat="43.28377" lon="5.8957">
        <ele>313</ele>
        <time>2024-06-12T08:14:28Z</time>
      </trkpt>
      <trkpt lat="43.2838" lon="5.89559">
        <ele>313</ele>
        <time>2024-06-12T08:14:29Z</time>
      </trkpt>
      <trkpt lat="43.28381" lon="5.89556">
        <ele>313</ele>
        <time>2024-06-12T08:14:30Z</time>
      </trkpt>
      <trkpt lat="43.28384" lon="5.89545">
        <ele>313</ele>
        <time>2024-06-12T08:14:31Z</time>
      </trkpt>
      <trkpt lat="43.28385" lon="5.89541">
        <ele>313</ele>
        <time>2024-06-12T08:14:32Z</time>
      </trkpt>
      <trkpt lat="43.28388" lon="5.89534">
        <ele>313</ele>
        <time>2024-06-12T08:14:33Z</time>
      </trkpt>
      <trkpt lat="43.28392" lon="5.89524">
        <ele>313</ele>
        <time>2024-06-12T08:14:34Z</time>
      </trkpt>
      <trkpt lat="43.28393" lon="5.89521">
        <ele>313</ele>
        <time>2024-06-12T08:14:35Z</time>
      </trkpt>
      <trkpt lat="43.28396" lon="5.89514">
        <ele>313</ele>
        <time>2024-06-12T08:14:36Z</time>
      </trkpt>
      <trkpt lat="43.28401" lon="5.89504">
        <ele>312.8</ele>
        <time>2024-06-12T08:14:37Z</time>
      </trkpt>
      <trkpt lat="43.28403" lon="5.89501">
        <ele>312.8</ele>
        <time>2024-06-12T08:14:38Z</time>
      </trkpt>
      <trkpt lat="43.28406" lon="5.89494">
        <ele>312.8</ele>
        <time>2024-06-12T08:14:39Z</time>
      </trkpt>
      <trkpt lat="43.2841" lon="5.89488">
        <ele>312.8</ele>
        <time>2024-06-12T08:14:40Z</time>
      </trkpt>
      <trkpt lat="43.28416" lon="5.89479">
        <ele>312.8</ele>
        <time>2024-06-12T08:14:41Z</time>
      </trkpt>
      <trkpt lat="43.28418" lon="5.89476">
        <ele>312.2</ele>
        <time>2024-06-12T08:14:42Z</time>
      </trkpt>
      <trkpt lat="43.28422" lon="5.8947">
        <ele>312.2</ele>
        <time>2024-06-12T08:14:43Z</time>
      </trkpt>
      <trkpt lat="43.28428" lon="5.8946">
        <ele>312.2</ele>
        <time>2024-06-12T08:14:44Z</time>
      </trkpt>
      <trkpt lat="43.28431" lon="5.89457">
        <ele>312.2</ele>
        <time>2024-06-12T08:14:45Z</time>
      </trkpt>
      <trkpt lat="43.28438" lon="5.89449">
        <ele>311.6</ele>
        <time>2024-06-12T08:14:46Z</time>
      </trkpt>
      <trkpt lat="43.2844" lon="5.89446">
        <ele>311.6</ele>
        <time>2024-06-12T08:14:47Z</time>
      </trkpt>
      <trkpt lat="43.28445" lon="5.89441">
        <ele>311.6</ele>
        <time>2024-06-12T08:14:48Z</time>
      </trkpt>
      <trkpt lat="43.28453" lon="5.89432">
        <ele>311.6</ele>
        <time>2024-06-12T08:14:49Z</time>
      </trkpt>
      <trkpt lat="43.28456" lon="5.89429">
        <ele>311.6</ele>
        <time>2024-06-12T08:14:50Z</time>
      </trkpt>
      <trkpt lat="43.28461" lon="5.89424">
        <ele>311.6</ele>
        <time>2024-06-12T08:14:51Z</time>
      </trkpt>
      <trkpt lat="43.28467" lon="5.89419">
        <ele>311.6</ele>
        <time>2024-06-12T08:14:52Z</time>
      </trkpt>
      <trkpt lat="43.28474" lon="5.89412">
        <ele>311.6</ele>
        <time>2024-06-12T08:14:53Z</time>
      </trkpt>
      <trkpt lat="43.28477" lon="5.89409">
        <ele>311.6</ele>
        <time>2024-06-12T08:14:54Z</time>
      </trkpt>
      <trkpt lat="43.28482" lon="5.89405">
        <ele>311</ele>
        <time>2024-06-12T08:14:55Z</time>
      </trkpt>
      <trkpt lat="43.28489" lon="5.89397">
        <ele>311</ele>
        <time>2024-06-12T08:14:56Z</time>
      </trkpt>
      <trkpt lat="43.28491" lon="5.89394">
        <ele>311</ele>
        <time>2024-06-12T08:14:57Z</time>
      </trkpt>
      <trkpt lat="43.28496" lon="5.89388">
        <ele>311.2</ele>
        <time>2024-06-12T08:14:58Z</time>
      </trkpt>
      <trkpt lat="43.28502" lon="5.89379">
        <ele>311.8</ele>
        <time>2024-06-12T08:14:59Z</time>
      </trkpt>
      <trkpt lat="43.28504" lon="5.89375">
        <ele>311.8</ele>
        <time>2024-06-12T08:15:00Z</time>
      </trkpt>
      <trkpt lat="43.28511" lon="5.89366">
        <ele>311.8</ele>
        <time>2024-06-12T08:15:01Z</time>
      </trkpt>
      <trkpt lat="43.28513" lon="5.89363">
        <ele>311.8</ele>
        <time>2024-06-12T08:15:02Z</time>
      </trkpt>
      <trkpt lat="43.28517" lon="5.89357">
        <ele>311.8</ele>
        <time>2024-06-12T08:15:03Z</time>
      </trkpt>
      <trkpt lat="43.28522" lon="5.89348">
        <ele>311.4</ele>
        <time>2024-06-12T08:15:04Z</time>
      </trkpt>
      <trkpt lat="43.28523" lon="5.89345">
        <ele>311.4</ele>
        <time>2024-06-12T08:15:05Z</time>
      </trkpt>
      <trkpt lat="43.28528" lon="5.89336">
        <ele>311.4</ele>
        <time>2024-06-12T08:15:06Z</time>
      </trkpt>
      <trkpt lat="43.28529" lon="5.89333">
        <ele>311.4</ele>
        <time>2024-06-12T08:15:07Z</time>
      </trkpt>
      <trkpt lat="43.28532" lon="5.89327">
        <ele>311.2</ele>
        <time>2024-06-12T08:15:08Z</time>
      </trkpt>
      <trkpt lat="43.28535" lon="5.8932">
        <ele>311.2</ele>
        <time>2024-06-12T08:15:09Z</time>
      </trkpt>
      <trkpt lat="43.28537" lon="5.89313">
        <ele>311.2</ele>
        <time>2024-06-12T08:15:10Z</time>
      </trkpt>
      <trkpt lat="43.28539" lon="5.89307">
        <ele>311.2</ele>
        <time>2024-06-12T08:15:11Z</time>
      </trkpt>
      <trkpt lat="43.28542" lon="5.89296">
        <ele>311.2</ele>
        <time>2024-06-12T08:15:12Z</time>
      </trkpt>
      <trkpt lat="43.28543" lon="5.89293">
        <ele>311.2</ele>
        <time>2024-06-12T08:15:13Z</time>
      </trkpt>
      <trkpt lat="43.28545" lon="5.89282">
        <ele>311.2</ele>
        <time>2024-06-12T08:15:14Z</time>
      </trkpt>
      <trkpt lat="43.28546" lon="5.89278">
        <ele>311.2</ele>
        <time>2024-06-12T08:15:15Z</time>
      </trkpt>
      <trkpt lat="43.28548" lon="5.89271">
        <ele>311.4</ele>
        <time>2024-06-12T08:15:16Z</time>
      </trkpt>
      <trkpt lat="43.28552" lon="5.89261">
        <ele>311.4</ele>
        <time>2024-06-12T08:15:17Z</time>
      </trkpt>
      <trkpt lat="43.28553" lon="5.89257">
        <ele>311.4</ele>
        <time>2024-06-12T08:15:18Z</time>
      </trkpt>
      <trkpt lat="43.28555" lon="5.89251">
        <ele>311.4</ele>
        <time>2024-06-12T08:15:19Z</time>
      </trkpt>
      <trkpt lat="43.28561" lon="5.89242">
        <ele>311.6</ele>
        <time>2024-06-12T08:15:20Z</time>
      </trkpt>
      <trkpt lat="43.28563" lon="5.89239">
        <ele>311.6</ele>
        <time>2024-06-12T08:15:21Z</time>
      </trkpt>
      <trkpt lat="43.28569" lon="5.8923">
        <ele>311.6</ele>
        <time>2024-06-12T08:15:22Z</time>
      </trkpt>
      <trkpt lat="43.28571" lon="5.89227">
        <ele>311.6</ele>
        <time>2024-06-12T08:15:23Z</time>
      </trkpt>
      <trkpt lat="43.28575" lon="5.89222">
        <ele>311.6</ele>
        <time>2024-06-12T08:15:24Z</time>
      </trkpt>
      <trkpt lat="43.28581" lon="5.89214">
        <ele>311.6</ele>
        <time>2024-06-12T08:15:25Z</time>
      </trkpt>
      <trkpt lat="43.28584" lon="5.89211">
        <ele>311.4</ele>
        <time>2024-06-12T08:15:26Z</time>
      </trkpt>
      <trkpt lat="43.2859" lon="5.89204">
        <ele>311.4</ele>
        <time>2024-06-12T08:15:27Z</time>
      </trkpt>
      <trkpt lat="43.28593" lon="5.89201">
        <ele>311.4</ele>
        <time>2024-06-12T08:15:28Z</time>
      </trkpt>
      <trkpt lat="43.28597" lon="5.89196">
        <ele>311.4</ele>
        <time>2024-06-12T08:15:29Z</time>
      </trkpt>
      <trkpt lat="43.28604" lon="5.89188">
        <ele>311.4</ele>
        <time>2024-06-12T08:15:30Z</time>
      </trkpt>
      <trkpt lat="43.28606" lon="5.89185">
        <ele>311.4</ele>
        <time>2024-06-12T08:15:31Z</time>
      </trkpt>
      <trkpt lat="43.2861" lon="5.8918">
        <ele>311.4</ele>
        <time>2024-06-12T08:15:32Z</time>
      </trkpt>
      <trkpt lat="43.28617" lon="5.89172">
        <ele>311.4</ele>
        <time>2024-06-12T08:15:33Z</time>
      </trkpt>
      <trkpt lat="43.28619" lon="5.8917">
        <ele>311.4</ele>
        <time>2024-06-12T08:15:34Z</time>
      </trkpt>
      <trkpt lat="43.28625" lon="5.89162">
        <ele>311.4</ele>
        <time>2024-06-12T08:15:35Z</time>
      </trkpt>
      <trkpt lat="43.28628" lon="5.89159">
        <ele>311.4</ele>
        <time>2024-06-12T08:15:36Z</time>
      </trkpt>
      <trkpt lat="43.28634" lon="5.89152">
        <ele>311.4</ele>
        <time>2024-06-12T08:15:37Z</time>
      </trkpt>
      <trkpt lat="43.28636" lon="5.89149">
        <ele>311.4</ele>
        <time>2024-06-12T08:15:38Z</time>
      </trkpt>
      <trkpt lat="43.2864" lon="5.89144">
        <ele>311.4</ele>
        <time>2024-06-12T08:15:39Z</time>
      </trkpt>
      <trkpt lat="43.28646" lon="5.89136">
        <ele>311.4</ele>
        <time>2024-06-12T08:15:40Z</time>
      </trkpt>
      <trkpt lat="43.28648" lon="5.89133">
        <ele>311.4</ele>
        <time>2024-06-12T08:15:41Z</time>
      </trkpt>
      <trkpt lat="43.28654" lon="5.89124">
        <ele>311.4</ele>
        <time>2024-06-12T08:15:42Z</time>
      </trkpt>
      <trkpt lat="43.28656" lon="5.89121">
        <ele>311.2</ele>
        <time>2024-06-12T08:15:43Z</time>
      </trkpt>
      <trkpt lat="43.28661" lon="5.89111">
        <ele>311.2</ele>
        <time>2024-06-12T08:15:44Z</time>
      </trkpt>
      <trkpt lat="43.28663" lon="5.89108">
        <ele>311</ele>
        <time>2024-06-12T08:15:45Z</time>
      </trkpt>
      <trkpt lat="43.28667" lon="5.89099">
        <ele>311</ele>
        <time>2024-06-12T08:15:46Z</time>
      </trkpt>
      <trkpt lat="43.28669" lon="5.89096">
        <ele>311</ele>
        <time>2024-06-12T08:15:47Z</time>
      </trkpt>
      <trkpt lat="43.28673" lon="5.89087">
        <ele>311.2</ele>
        <time>2024-06-12T08:15:48Z</time>
      </trkpt>
      <trkpt lat="43.28675" lon="5.89084">
        <ele>311.2</ele>
        <time>2024-06-12T08:15:49Z</time>
      </trkpt>
      <trkpt lat="43.28678" lon="5.89073">
        <ele>311.2</ele>
        <time>2024-06-12T08:15:50Z</time>
      </trkpt>
      <trkpt lat="43.28679" lon="5.8907">
        <ele>311.2</ele>
        <time>2024-06-12T08:15:51Z</time>
      </trkpt>
      <trkpt lat="43.28683" lon="5.89059">
        <ele>311.2</ele>
        <time>2024-06-12T08:15:52Z</time>
      </trkpt>
      <trkpt lat="43.28684" lon="5.89056">
        <ele>311.4</ele>
        <time>2024-06-12T08:15:53Z</time>
      </trkpt>
      <trkpt lat="43.28686" lon="5.89045">
        <ele>311.4</ele>
        <time>2024-06-12T08:15:54Z</time>
      </trkpt>
      <trkpt lat="43.28688" lon="5.89041">
        <ele>311.4</ele>
        <time>2024-06-12T08:15:55Z</time>
      </trkpt>
      <trkpt lat="43.28691" lon="5.8903">
        <ele>311.4</ele>
        <time>2024-06-12T08:15:56Z</time>
      </trkpt>
      <trkpt lat="43.28692" lon="5.89026">
        <ele>311.4</ele>
        <time>2024-06-12T08:15:57Z</time>
      </trkpt>
      <trkpt lat="43.28694" lon="5.89018">
        <ele>311.6</ele>
        <time>2024-06-12T08:15:58Z</time>
      </trkpt>
      <trkpt lat="43.28697" lon="5.89007">
        <ele>311.6</ele>
        <time>2024-06-12T08:15:59Z</time>
      </trkpt>
      <trkpt lat="43.28697" lon="5.89003">
        <ele>311.6</ele>
        <time>2024-06-12T08:16:00Z</time>
      </trkpt>
      <trkpt lat="43.287" lon="5.88993">
        <ele>311.6</ele>
        <time>2024-06-12T08:16:01Z</time>
      </trkpt>
      <trkpt lat="43.28701" lon="5.88989">
        <ele>311.6</ele>
        <time>2024-06-12T08:16:02Z</time>
      </trkpt>
      <trkpt lat="43.28702" lon="5.88982">
        <ele>311.6</ele>
        <time>2024-06-12T08:16:03Z</time>
      </trkpt>
      <trkpt lat="43.28705" lon="5.88971">
        <ele>311.6</ele>
        <time>2024-06-12T08:16:04Z</time>
      </trkpt>
      <trkpt lat="43.28706" lon="5.88968">
        <ele>311.4</ele>
        <time>2024-06-12T08:16:05Z</time>
      </trkpt>
      <trkpt lat="43.28708" lon="5.88957">
        <ele>311.4</ele>
        <time>2024-06-12T08:16:06Z</time>
      </trkpt>
      <trkpt lat="43.28709" lon="5.88953">
        <ele>311.4</ele>
        <time>2024-06-12T08:16:07Z</time>
      </trkpt>
      <trkpt lat="43.28712" lon="5.88942">
        <ele>311.4</ele>
        <time>2024-06-12T08:16:08Z</time>
      </trkpt>
      <trkpt lat="43.28713" lon="5.88938">
        <ele>311.4</ele>
        <time>2024-06-12T08:16:09Z</time>
      </trkpt>
      <trkpt lat="43.28716" lon="5.88928">
        <ele>311.4</ele>
        <time>2024-06-12T08:16:10Z</time>
      </trkpt>
      <trkpt lat="43.28717" lon="5.88924">
        <ele>311.4</ele>
        <time>2024-06-12T08:16:11Z</time>
      </trkpt>
      <trkpt lat="43.28718" lon="5.88917">
        <ele>311.4</ele>
        <time>2024-06-12T08:16:12Z</time>
      </trkpt>
      <trkpt lat="43.28721" lon="5.88906">
        <ele>311.4</ele>
        <time>2024-06-12T08:16:13Z</time>
      </trkpt>
      <trkpt lat="43.28722" lon="5.88903">
        <ele>311.4</ele>
        <time>2024-06-12T08:16:14Z</time>
      </trkpt>
      <trkpt lat="43.28724" lon="5.88896">
        <ele>311.4</ele>
        <time>2024-06-12T08:16:15Z</time>
      </trkpt>
      <trkpt lat="43.28726" lon="5.88885">
        <ele>311.4</ele>
        <time>2024-06-12T08:16:16Z</time>
      </trkpt>
      <trkpt lat="43.28727" lon="5.88882">
        <ele>311.4</ele>
        <time>2024-06-12T08:16:17Z</time>
      </trkpt>
      <trkpt lat="43.28729" lon="5.88871">
        <ele>311.4</ele>
        <time>2024-06-12T08:16:18Z</time>
      </trkpt>
      <trkpt lat="43.2873" lon="5.88868">
        <ele>311.6</ele>
        <time>2024-06-12T08:16:19Z</time>
      </trkpt>
      <trkpt lat="43.28732" lon="5.88861">
        <ele>312</ele>
        <time>2024-06-12T08:16:20Z</time>
      </trkpt>
      <trkpt lat="43.28733" lon="5.88854">
        <ele>312</ele>
        <time>2024-06-12T08:16:21Z</time>
      </trkpt>
      <trkpt lat="43.28735" lon="5.88847">
        <ele>312</ele>
        <time>2024-06-12T08:16:22Z</time>
      </trkpt>
      <trkpt lat="43.28736" lon="5.8884">
        <ele>312</ele>
        <time>2024-06-12T08:16:23Z</time>
      </trkpt>
      <trkpt lat="43.28737" lon="5.88833">
        <ele>311.2</ele>
        <time>2024-06-12T08:16:24Z</time>
      </trkpt>
      <trkpt lat="43.28738" lon="5.88825">
        <ele>311.2</ele>
        <time>2024-06-12T08:16:25Z</time>
      </trkpt>
      <trkpt lat="43.28739" lon="5.88818">
        <ele>311.2</ele>
        <time>2024-06-12T08:16:26Z</time>
      </trkpt>
      <trkpt lat="43.2874" lon="5.88806">
        <ele>311.2</ele>
        <time>2024-06-12T08:16:27Z</time>
      </trkpt>
      <trkpt lat="43.2874" lon="5.88802">
        <ele>310.8</ele>
        <time>2024-06-12T08:16:28Z</time>
      </trkpt>
      <trkpt lat="43.28741" lon="5.88795">
        <ele>310.6</ele>
        <time>2024-06-12T08:16:29Z</time>
      </trkpt>
      <trkpt lat="43.28741" lon="5.88783">
        <ele>310.6</ele>
        <time>2024-06-12T08:16:30Z</time>
      </trkpt>
      <trkpt lat="43.28741" lon="5.88779">
        <ele>310.6</ele>
        <time>2024-06-12T08:16:31Z</time>
      </trkpt>
      <trkpt lat="43.28741" lon="5.88772">
        <ele>310.6</ele>
        <time>2024-06-12T08:16:32Z</time>
      </trkpt>
      <trkpt lat="43.28741" lon="5.8876">
        <ele>310.4</ele>
        <time>2024-06-12T08:16:33Z</time>
      </trkpt>
      <trkpt lat="43.28741" lon="5.88756">
        <ele>310.4</ele>
        <time>2024-06-12T08:16:34Z</time>
      </trkpt>
      <trkpt lat="43.2874" lon="5.88749">
        <ele>310.4</ele>
        <time>2024-06-12T08:16:35Z</time>
      </trkpt>
      <trkpt lat="43.2874" lon="5.88738">
        <ele>310</ele>
        <time>2024-06-12T08:16:36Z</time>
      </trkpt>
      <trkpt lat="43.28739" lon="5.88734">
        <ele>310</ele>
        <time>2024-06-12T08:16:37Z</time>
      </trkpt>
      <trkpt lat="43.28739" lon="5.88723">
        <ele>310.2</ele>
        <time>2024-06-12T08:16:38Z</time>
      </trkpt>
      <trkpt lat="43.28739" lon="5.88719">
        <ele>310.2</ele>
        <time>2024-06-12T08:16:39Z</time>
      </trkpt>
      <trkpt lat="43.28738" lon="5.88712">
        <ele>310.2</ele>
        <time>2024-06-12T08:16:40Z</time>
      </trkpt>
      <trkpt lat="43.28738" lon="5.88701">
        <ele>310.4</ele>
        <time>2024-06-12T08:16:41Z</time>
      </trkpt>
      <trkpt lat="43.28738" lon="5.88698">
        <ele>310.6</ele>
        <time>2024-06-12T08:16:42Z</time>
      </trkpt>
      <trkpt lat="43.28737" lon="5.88691">
        <ele>310.6</ele>
        <time>2024-06-12T08:16:43Z</time>
      </trkpt>
      <trkpt lat="43.28737" lon="5.8868">
        <ele>310.6</ele>
        <time>2024-06-12T08:16:44Z</time>
      </trkpt>
      <trkpt lat="43.28737" lon="5.88676">
        <ele>310.6</ele>
        <time>2024-06-12T08:16:45Z</time>
      </trkpt>
      <trkpt lat="43.28736" lon="5.88666">
        <ele>310.6</ele>
        <time>2024-06-12T08:16:46Z</time>
      </trkpt>
      <trkpt lat="43.28736" lon="5.88662">
        <ele>310.8</ele>
        <time>2024-06-12T08:16:47Z</time>
      </trkpt>
      <trkpt lat="43.28736" lon="5.88651">
        <ele>310.8</ele>
        <time>2024-06-12T08:16:48Z</time>
      </trkpt>
      <trkpt lat="43.28735" lon="5.88648">
        <ele>310.8</ele>
        <time>2024-06-12T08:16:49Z</time>
      </trkpt>
      <trkpt lat="43.28735" lon="5.88641">
        <ele>310.8</ele>
        <time>2024-06-12T08:16:50Z</time>
      </trkpt>
      <trkpt lat="43.28734" lon="5.8863">
        <ele>310.6</ele>
        <time>2024-06-12T08:16:51Z</time>
      </trkpt>
      <trkpt lat="43.28734" lon="5.88627">
        <ele>310.6</ele>
        <time>2024-06-12T08:16:52Z</time>
      </trkpt>
      <trkpt lat="43.28734" lon="5.88619">
        <ele>310.6</ele>
        <time>2024-06-12T08:16:53Z</time>
      </trkpt>
      <trkpt lat="43.28733" lon="5.88609">
        <ele>310.6</ele>
        <time>2024-06-12T08:16:54Z</time>
      </trkpt>
      <trkpt lat="43.28732" lon="5.88605">
        <ele>310.6</ele>
        <time>2024-06-12T08:16:55Z</time>
      </trkpt>
      <trkpt lat="43.28731" lon="5.88594">
        <ele>310.6</ele>
        <time>2024-06-12T08:16:56Z</time>
      </trkpt>
      <trkpt lat="43.28731" lon="5.88591">
        <ele>310.6</ele>
        <time>2024-06-12T08:16:57Z</time>
      </trkpt>
      <trkpt lat="43.28729" lon="5.8858">
        <ele>310.6</ele>
        <time>2024-06-12T08:16:58Z</time>
      </trkpt>
      <trkpt lat="43.28729" lon="5.88576">
        <ele>310.6</ele>
        <time>2024-06-12T08:16:59Z</time>
      </trkpt>
      <trkpt lat="43.28728" lon="5.88569">
        <ele>310.8</ele>
        <time>2024-06-12T08:17:00Z</time>
      </trkpt>
      <trkpt lat="43.28726" lon="5.88558">
        <ele>310.8</ele>
        <time>2024-06-12T08:17:01Z</time>
      </trkpt>
      <trkpt lat="43.28726" lon="5.88555">
        <ele>310.8</ele>
        <time>2024-06-12T08:17:02Z</time>
      </trkpt>
      <trkpt lat="43.28725" lon="5.88547">
        <ele>310.4</ele>
        <time>2024-06-12T08:17:03Z</time>
      </trkpt>
      <trkpt lat="43.28724" lon="5.88536">
        <ele>310.4</ele>
        <time>2024-06-12T08:17:04Z</time>
      </trkpt>
      <trkpt lat="43.28724" lon="5.88532">
        <ele>310.6</ele>
        <time>2024-06-12T08:17:05Z</time>
      </trkpt>
      <trkpt lat="43.28723" lon="5.88521">
        <ele>310.6</ele>
        <time>2024-06-12T08:17:06Z</time>
      </trkpt>
      <trkpt lat="43.28723" lon="5.88517">
        <ele>310.6</ele>
        <time>2024-06-12T08:17:07Z</time>
      </trkpt>
      <trkpt lat="43.28722" lon="5.88506">
        <ele>310.6</ele>
        <time>2024-06-12T08:17:08Z</time>
      </trkpt>
      <trkpt lat="43.28722" lon="5.88502">
        <ele>310.6</ele>
        <time>2024-06-12T08:17:09Z</time>
      </trkpt>
      <trkpt lat="43.28722" lon="5.88495">
        <ele>310.6</ele>
        <time>2024-06-12T08:17:10Z</time>
      </trkpt>
      <trkpt lat="43.28722" lon="5.88488">
        <ele>310.6</ele>
        <time>2024-06-12T08:17:11Z</time>
      </trkpt>
      <trkpt lat="43.28722" lon="5.8848">
        <ele>310.6</ele>
        <time>2024-06-12T08:17:12Z</time>
      </trkpt>
      <trkpt lat="43.28722" lon="5.88469">
        <ele>310.6</ele>
        <time>2024-06-12T08:17:13Z</time>
      </trkpt>
      <trkpt lat="43.28722" lon="5.88466">
        <ele>310.6</ele>
        <time>2024-06-12T08:17:14Z</time>
      </trkpt>
      <trkpt lat="43.28722" lon="5.88458">
        <ele>310.6</ele>
        <time>2024-06-12T08:17:15Z</time>
      </trkpt>
      <trkpt lat="43.28723" lon="5.88448">
        <ele>310.6</ele>
        <time>2024-06-12T08:17:16Z</time>
      </trkpt>
      <trkpt lat="43.28723" lon="5.88444">
        <ele>310.6</ele>
        <time>2024-06-12T08:17:17Z</time>
      </trkpt>
      <trkpt lat="43.28724" lon="5.88434">
        <ele>311</ele>
        <time>2024-06-12T08:17:18Z</time>
      </trkpt>
      <trkpt lat="43.28724" lon="5.88431">
        <ele>311</ele>
        <time>2024-06-12T08:17:19Z</time>
      </trkpt>
      <trkpt lat="43.28726" lon="5.8842">
        <ele>311</ele>
        <time>2024-06-12T08:17:20Z</time>
      </trkpt>
      <trkpt lat="43.28726" lon="5.88417">
        <ele>311</ele>
        <time>2024-06-12T08:17:21Z</time>
      </trkpt>
      <trkpt lat="43.28727" lon="5.8841">
        <ele>311.2</ele>
        <time>2024-06-12T08:17:22Z</time>
      </trkpt>
      <trkpt lat="43.28728" lon="5.88404">
        <ele>311.2</ele>
        <time>2024-06-12T08:17:23Z</time>
      </trkpt>
      <trkpt lat="43.28729" lon="5.88397">
        <ele>311.2</ele>
        <time>2024-06-12T08:17:24Z</time>
      </trkpt>
      <trkpt lat="43.28731" lon="5.88387">
        <ele>311.2</ele>
        <time>2024-06-12T08:17:25Z</time>
      </trkpt>
      <trkpt lat="43.28732" lon="5.88384">
        <ele>311.6</ele>
        <time>2024-06-12T08:17:26Z</time>
      </trkpt>
      <trkpt lat="43.28732" lon="5.88378">
        <ele>311.8</ele>
        <time>2024-06-12T08:17:27Z</time>
      </trkpt>
      <trkpt lat="43.28734" lon="5.88368">
        <ele>311.8</ele>
        <time>2024-06-12T08:17:28Z</time>
      </trkpt>
      <trkpt lat="43.28734" lon="5.88364">
        <ele>311.8</ele>
        <time>2024-06-12T08:17:29Z</time>
      </trkpt>
      <trkpt lat="43.28736" lon="5.88354">
        <ele>311.8</ele>
        <time>2024-06-12T08:17:30Z</time>
      </trkpt>
      <trkpt lat="43.28736" lon="5.88351">
        <ele>312</ele>
        <time>2024-06-12T08:17:31Z</time>
      </trkpt>
      <trkpt lat="43.28738" lon="5.88341">
        <ele>312</ele>
        <time>2024-06-12T08:17:32Z</time>
      </trkpt>
      <trkpt lat="43.28738" lon="5.88338">
        <ele>312</ele>
        <time>2024-06-12T08:17:33Z</time>
      </trkpt>
      <trkpt lat="43.28739" lon="5.88332">
        <ele>312</ele>
        <time>2024-06-12T08:17:34Z</time>
      </trkpt>
      <trkpt lat="43.28741" lon="5.88322">
        <ele>312</ele>
        <time>2024-06-12T08:17:35Z</time>
      </trkpt>
      <trkpt lat="43.28742" lon="5.88318">
        <ele>312.4</ele>
        <time>2024-06-12T08:17:36Z</time>
      </trkpt>
      <trkpt lat="43.28743" lon="5.88312">
        <ele>312.4</ele>
        <time>2024-06-12T08:17:37Z</time>
      </trkpt>
      <trkpt lat="43.28745" lon="5.88302">
        <ele>312.4</ele>
        <time>2024-06-12T08:17:38Z</time>
      </trkpt>
      <trkpt lat="43.28746" lon="5.88298">
        <ele>312.4</ele>
        <time>2024-06-12T08:17:39Z</time>
      </trkpt>
      <trkpt lat="43.28747" lon="5.88288">
        <ele>312.4</ele>
        <time>2024-06-12T08:17:40Z</time>
      </trkpt>
      <trkpt lat="43.28748" lon="5.88284">
        <ele>312.4</ele>
        <time>2024-06-12T08:17:41Z</time>
      </trkpt>
      <trkpt lat="43.2875" lon="5.88274">
        <ele>312.4</ele>
        <time>2024-06-12T08:17:42Z</time>
      </trkpt>
      <trkpt lat="43.2875" lon="5.88271">
        <ele>312.4</ele>
        <time>2024-06-12T08:17:43Z</time>
      </trkpt>
      <trkpt lat="43.28752" lon="5.8826">
        <ele>312.4</ele>
        <time>2024-06-12T08:17:44Z</time>
      </trkpt>
      <trkpt lat="43.28752" lon="5.88257">
        <ele>312.4</ele>
        <time>2024-06-12T08:17:45Z</time>
      </trkpt>
      <trkpt lat="43.28754" lon="5.88247">
        <ele>312.4</ele>
        <time>2024-06-12T08:17:46Z</time>
      </trkpt>
      <trkpt lat="43.28754" lon="5.88243">
        <ele>312.4</ele>
        <time>2024-06-12T08:17:47Z</time>
      </trkpt>
      <trkpt lat="43.28756" lon="5.88233">
        <ele>312.4</ele>
        <time>2024-06-12T08:17:48Z</time>
      </trkpt>
      <trkpt lat="43.28756" lon="5.8823">
        <ele>312.4</ele>
        <time>2024-06-12T08:17:49Z</time>
      </trkpt>
      <trkpt lat="43.28758" lon="5.88219">
        <ele>312.4</ele>
        <time>2024-06-12T08:17:50Z</time>
      </trkpt>
      <trkpt lat="43.28758" lon="5.88216">
        <ele>312.4</ele>
        <time>2024-06-12T08:17:51Z</time>
      </trkpt>
      <trkpt lat="43.2876" lon="5.88206">
        <ele>312.4</ele>
        <time>2024-06-12T08:17:52Z</time>
      </trkpt>
      <trkpt lat="43.2876" lon="5.88202">
        <ele>312.2</ele>
        <time>2024-06-12T08:17:53Z</time>
      </trkpt>
      <trkpt lat="43.28761" lon="5.88195">
        <ele>312.4</ele>
        <time>2024-06-12T08:17:54Z</time>
      </trkpt>
      <trkpt lat="43.28763" lon="5.88185">
        <ele>312.4</ele>
        <time>2024-06-12T08:17:55Z</time>
      </trkpt>
      <trkpt lat="43.28763" lon="5.88181">
        <ele>312.4</ele>
        <time>2024-06-12T08:17:56Z</time>
      </trkpt>
      <trkpt lat="43.28765" lon="5.8817">
        <ele>312</ele>
        <time>2024-06-12T08:17:57Z</time>
      </trkpt>
      <trkpt lat="43.28765" lon="5.88167">
        <ele>312.8</ele>
        <time>2024-06-12T08:17:58Z</time>
      </trkpt>
      <trkpt lat="43.28767" lon="5.88156">
        <ele>312.8</ele>
        <time>2024-06-12T08:17:59Z</time>
      </trkpt>
      <trkpt lat="43.28768" lon="5.88153">
        <ele>312.8</ele>
        <time>2024-06-12T08:18:00Z</time>
      </trkpt>
      <trkpt lat="43.2877" lon="5.88142">
        <ele>312.4</ele>
        <time>2024-06-12T08:18:01Z</time>
      </trkpt>
      <trkpt lat="43.2877" lon="5.88139">
        <ele>312.2</ele>
        <time>2024-06-12T08:18:02Z</time>
      </trkpt>
      <trkpt lat="43.28772" lon="5.88128">
        <ele>312.2</ele>
        <time>2024-06-12T08:18:03Z</time>
      </trkpt>
      <trkpt lat="43.28773" lon="5.88125">
        <ele>312.2</ele>
        <time>2024-06-12T08:18:04Z</time>
      </trkpt>
      <trkpt lat="43.28775" lon="5.88114">
        <ele>312.2</ele>
        <time>2024-06-12T08:18:05Z</time>
      </trkpt>
      <trkpt lat="43.28776" lon="5.88111">
        <ele>312.2</ele>
        <time>2024-06-12T08:18:06Z</time>
      </trkpt>
      <trkpt lat="43.28777" lon="5.88104">
        <ele>312.2</ele>
        <time>2024-06-12T08:18:07Z</time>
      </trkpt>
      <trkpt lat="43.28779" lon="5.88093">
        <ele>312.2</ele>
        <time>2024-06-12T08:18:08Z</time>
      </trkpt>
      <trkpt lat="43.2878" lon="5.88089">
        <ele>312.2</ele>
        <time>2024-06-12T08:18:09Z</time>
      </trkpt>
      <trkpt lat="43.28781" lon="5.88082">
        <ele>312</ele>
        <time>2024-06-12T08:18:10Z</time>
      </trkpt>
      <trkpt lat="43.28783" lon="5.8807">
        <ele>312</ele>
        <time>2024-06-12T08:18:11Z</time>
      </trkpt>
      <trkpt lat="43.28784" lon="5.88067">
        <ele>311.8</ele>
        <time>2024-06-12T08:18:12Z</time>
      </trkpt>
      <trkpt lat="43.28786" lon="5.88055">
        <ele>311.8</ele>
        <time>2024-06-12T08:18:13Z</time>
      </trkpt>
      <trkpt lat="43.28786" lon="5.88052">
        <ele>311.8</ele>
        <time>2024-06-12T08:18:14Z</time>
      </trkpt>
      <trkpt lat="43.28788" lon="5.88041">
        <ele>311.8</ele>
        <time>2024-06-12T08:18:15Z</time>
      </trkpt>
      <trkpt lat="43.28788" lon="5.88037">
        <ele>311.8</ele>
        <time>2024-06-12T08:18:16Z</time>
      </trkpt>
      <trkpt lat="43.2879" lon="5.88026">
        <ele>311.8</ele>
        <time>2024-06-12T08:18:17Z</time>
      </trkpt>
      <trkpt lat="43.28791" lon="5.88022">
        <ele>311.8</ele>
        <time>2024-06-12T08:18:18Z</time>
      </trkpt>
      <trkpt lat="43.28793" lon="5.88011">
        <ele>311.8</ele>
        <time>2024-06-12T08:18:19Z</time>
      </trkpt>
      <trkpt lat="43.28794" lon="5.88008">
        <ele>311.8</ele>
        <time>2024-06-12T08:18:20Z</time>
      </trkpt>
      <trkpt lat="43.28795" lon="5.88001">
        <ele>311.8</ele>
        <time>2024-06-12T08:18:21Z</time>
      </trkpt>
      <trkpt lat="43.28797" lon="5.87991">
        <ele>311.4</ele>
        <time>2024-06-12T08:18:22Z</time>
      </trkpt>
      <trkpt lat="43.28797" lon="5.87987">
        <ele>311.4</ele>
        <time>2024-06-12T08:18:23Z</time>
      </trkpt>
      <trkpt lat="43.28799" lon="5.8798">
        <ele>311.6</ele>
        <time>2024-06-12T08:18:24Z</time>
      </trkpt>
      <trkpt lat="43.288" lon="5.8797">
        <ele>311.6</ele>
        <time>2024-06-12T08:18:25Z</time>
      </trkpt>
      <trkpt lat="43.28801" lon="5.87967">
        <ele>311.8</ele>
        <time>2024-06-12T08:18:26Z</time>
      </trkpt>
      <trkpt lat="43.28803" lon="5.87956">
        <ele>311.8</ele>
        <time>2024-06-12T08:18:27Z</time>
      </trkpt>
      <trkpt lat="43.28803" lon="5.87953">
        <ele>311.8</ele>
        <time>2024-06-12T08:18:28Z</time>
      </trkpt>
      <trkpt lat="43.28805" lon="5.87946">
        <ele>311.8</ele>
        <time>2024-06-12T08:18:29Z</time>
      </trkpt>
      <trkpt lat="43.28807" lon="5.87936">
        <ele>311.8</ele>
        <time>2024-06-12T08:18:30Z</time>
      </trkpt>
      <trkpt lat="43.28808" lon="5.87933">
        <ele>312</ele>
        <time>2024-06-12T08:18:31Z</time>
      </trkpt>
      <trkpt lat="43.2881" lon="5.87923">
        <ele>312</ele>
        <time>2024-06-12T08:18:32Z</time>
      </trkpt>
      <trkpt lat="43.2881" lon="5.8792">
        <ele>312.2</ele>
        <time>2024-06-12T08:18:33Z</time>
      </trkpt>
      <trkpt lat="43.28812" lon="5.8791">
        <ele>312.2</ele>
        <time>2024-06-12T08:18:34Z</time>
      </trkpt>
      <trkpt lat="43.28813" lon="5.87906">
        <ele>312</ele>
        <time>2024-06-12T08:18:35Z</time>
      </trkpt>
      <trkpt lat="43.28815" lon="5.87896">
        <ele>312</ele>
        <time>2024-06-12T08:18:36Z</time>
      </trkpt>
      <trkpt lat="43.28815" lon="5.87893">
        <ele>312</ele>
        <time>2024-06-12T08:18:37Z</time>
      </trkpt>
      <trkpt lat="43.28817" lon="5.87886">
        <ele>312</ele>
        <time>2024-06-12T08:18:38Z</time>
      </trkpt>
      <trkpt lat="43.28818" lon="5.87876">
        <ele>312</ele>
        <time>2024-06-12T08:18:39Z</time>
      </trkpt>
      <trkpt lat="43.28819" lon="5.87873">
        <ele>312</ele>
        <time>2024-06-12T08:18:40Z</time>
      </trkpt>
      <trkpt lat="43.2882" lon="5.87866">
        <ele>312</ele>
        <time>2024-06-12T08:18:41Z</time>
      </trkpt>
      <trkpt lat="43.28822" lon="5.87856">
        <ele>312.2</ele>
        <time>2024-06-12T08:18:42Z</time>
      </trkpt>
      <trkpt lat="43.28822" lon="5.87853">
        <ele>312.2</ele>
        <time>2024-06-12T08:18:43Z</time>
      </trkpt>
      <trkpt lat="43.28824" lon="5.87843">
        <ele>312.2</ele>
        <time>2024-06-12T08:18:44Z</time>
      </trkpt>
      <trkpt lat="43.28824" lon="5.87839">
        <ele>312.2</ele>
        <time>2024-06-12T08:18:45Z</time>
      </trkpt>
      <trkpt lat="43.28826" lon="5.87829">
        <ele>312.4</ele>
        <time>2024-06-12T08:18:46Z</time>
      </trkpt>
      <trkpt lat="43.28826" lon="5.87826">
        <ele>312.4</ele>
        <time>2024-06-12T08:18:47Z</time>
      </trkpt>
      <trkpt lat="43.28828" lon="5.87816">
        <ele>312.6</ele>
        <time>2024-06-12T08:18:48Z</time>
      </trkpt>
      <trkpt lat="43.28828" lon="5.87813">
        <ele>312.6</ele>
        <time>2024-06-12T08:18:49Z</time>
      </trkpt>
      <trkpt lat="43.28829" lon="5.87806">
        <ele>312.6</ele>
        <time>2024-06-12T08:18:50Z</time>
      </trkpt>
      <trkpt lat="43.2883" lon="5.87796">
        <ele>312.6</ele>
        <time>2024-06-12T08:18:51Z</time>
      </trkpt>
      <trkpt lat="43.28831" lon="5.87793">
        <ele>312.8</ele>
        <time>2024-06-12T08:18:52Z</time>
      </trkpt>
      <trkpt lat="43.28832" lon="5.87786">
        <ele>312.8</ele>
        <time>2024-06-12T08:18:53Z</time>
      </trkpt>
      <trkpt lat="43.28833" lon="5.87776">
        <ele>312.8</ele>
        <time>2024-06-12T08:18:54Z</time>
      </trkpt>
      <trkpt lat="43.28834" lon="5.87772">
        <ele>312.8</ele>
        <time>2024-06-12T08:18:55Z</time>
      </trkpt>
      <trkpt lat="43.28835" lon="5.87762">
        <ele>312.8</ele>
        <time>2024-06-12T08:18:56Z</time>
      </trkpt>
      <trkpt lat="43.28836" lon="5.87758">
        <ele>312.8</ele>
        <time>2024-06-12T08:18:57Z</time>
      </trkpt>
      <trkpt lat="43.28837" lon="5.87748">
        <ele>312.8</ele>
        <time>2024-06-12T08:18:58Z</time>
      </trkpt>
      <trkpt lat="43.28837" lon="5.87745">
        <ele>312.8</ele>
        <time>2024-06-12T08:18:59Z</time>
      </trkpt>
      <trkpt lat="43.28838" lon="5.87738">
        <ele>312.8</ele>
        <time>2024-06-12T08:19:00Z</time>
      </trkpt>
      <trkpt lat="43.2884" lon="5.87728">
        <ele>312.8</ele>
        <time>2024-06-12T08:19:01Z</time>
      </trkpt>
      <trkpt lat="43.2884" lon="5.87724">
        <ele>312.6</ele>
        <time>2024-06-12T08:19:02Z</time>
      </trkpt>
      <trkpt lat="43.28841" lon="5.87717">
        <ele>312.6</ele>
        <time>2024-06-12T08:19:03Z</time>
      </trkpt>
      <trkpt lat="43.28843" lon="5.87707">
        <ele>312.6</ele>
        <time>2024-06-12T08:19:04Z</time>
      </trkpt>
      <trkpt lat="43.28844" lon="5.87704">
        <ele>312.6</ele>
        <time>2024-06-12T08:19:05Z</time>
      </trkpt>
      <trkpt lat="43.28845" lon="5.87693">
        <ele>312.6</ele>
        <time>2024-06-12T08:19:06Z</time>
      </trkpt>
      <trkpt lat="43.28846" lon="5.8769">
        <ele>312.6</ele>
        <time>2024-06-12T08:19:07Z</time>
      </trkpt>
      <trkpt lat="43.28847" lon="5.8768">
        <ele>312.6</ele>
        <time>2024-06-12T08:19:08Z</time>
      </trkpt>
      <trkpt lat="43.28847" lon="5.87676">
        <ele>312.6</ele>
        <time>2024-06-12T08:19:09Z</time>
      </trkpt>
      <trkpt lat="43.28849" lon="5.87666">
        <ele>312.6</ele>
        <time>2024-06-12T08:19:10Z</time>
      </trkpt>
      <trkpt lat="43.28849" lon="5.87662">
        <ele>312.6</ele>
        <time>2024-06-12T08:19:11Z</time>
      </trkpt>
      <trkpt lat="43.2885" lon="5.87655">
        <ele>312.6</ele>
        <time>2024-06-12T08:19:12Z</time>
      </trkpt>
      <trkpt lat="43.28852" lon="5.87645">
        <ele>312.6</ele>
        <time>2024-06-12T08:19:13Z</time>
      </trkpt>
      <trkpt lat="43.28852" lon="5.87642">
        <ele>312.6</ele>
        <time>2024-06-12T08:19:14Z</time>
      </trkpt>
      <trkpt lat="43.28854" lon="5.87632">
        <ele>312.6</ele>
        <time>2024-06-12T08:19:15Z</time>
      </trkpt>
      <trkpt lat="43.28854" lon="5.87628">
        <ele>312.6</ele>
        <time>2024-06-12T08:19:16Z</time>
      </trkpt>
      <trkpt lat="43.28855" lon="5.87618">
        <ele>312.6</ele>
        <time>2024-06-12T08:19:17Z</time>
      </trkpt>
      <trkpt lat="43.28856" lon="5.87615">
        <ele>312.8</ele>
        <time>2024-06-12T08:19:18Z</time>
      </trkpt>
      <trkpt lat="43.28857" lon="5.87609">
        <ele>313</ele>
        <time>2024-06-12T08:19:19Z</time>
      </trkpt>
      <trkpt lat="43.28858" lon="5.87599">
        <ele>313</ele>
        <time>2024-06-12T08:19:20Z</time>
      </trkpt>
      <trkpt lat="43.28859" lon="5.87595">
        <ele>313</ele>
        <time>2024-06-12T08:19:21Z</time>
      </trkpt>
      <trkpt lat="43.2886" lon="5.87589">
        <ele>313</ele>
        <time>2024-06-12T08:19:22Z</time>
      </trkpt>
      <trkpt lat="43.28861" lon="5.87579">
        <ele>313.2</ele>
        <time>2024-06-12T08:19:23Z</time>
      </trkpt>
      <trkpt lat="43.28862" lon="5.87576">
        <ele>313.2</ele>
        <time>2024-06-12T08:19:24Z</time>
      </trkpt>
      <trkpt lat="43.28862" lon="5.87569">
        <ele>313.2</ele>
        <time>2024-06-12T08:19:25Z</time>
      </trkpt>
      <trkpt lat="43.28863" lon="5.87559">
        <ele>313.2</ele>
        <time>2024-06-12T08:19:26Z</time>
      </trkpt>
      <trkpt lat="43.28864" lon="5.87556">
        <ele>313.4</ele>
        <time>2024-06-12T08:19:27Z</time>
      </trkpt>
      <trkpt lat="43.28865" lon="5.87546">
        <ele>313.2</ele>
        <time>2024-06-12T08:19:28Z</time>
      </trkpt>
      <trkpt lat="43.28866" lon="5.87543">
        <ele>313.2</ele>
        <time>2024-06-12T08:19:29Z</time>
      </trkpt>
      <trkpt lat="43.28868" lon="5.87534">
        <ele>313.2</ele>
        <time>2024-06-12T08:19:30Z</time>
      </trkpt>
      <trkpt lat="43.28868" lon="5.87531">
        <ele>313.2</ele>
        <time>2024-06-12T08:19:31Z</time>
      </trkpt>
      <trkpt lat="43.28869" lon="5.87524">
        <ele>313.4</ele>
        <time>2024-06-12T08:19:32Z</time>
      </trkpt>
      <trkpt lat="43.28871" lon="5.87515">
        <ele>313.4</ele>
        <time>2024-06-12T08:19:33Z</time>
      </trkpt>
      <trkpt lat="43.28872" lon="5.87512">
        <ele>313.4</ele>
        <time>2024-06-12T08:19:34Z</time>
      </trkpt>
      <trkpt lat="43.28873" lon="5.87505">
        <ele>313.4</ele>
        <time>2024-06-12T08:19:35Z</time>
      </trkpt>
      <trkpt lat="43.28875" lon="5.87496">
        <ele>313.6</ele>
        <time>2024-06-12T08:19:36Z</time>
      </trkpt>
      <trkpt lat="43.28876" lon="5.87493">
        <ele>313.8</ele>
        <time>2024-06-12T08:19:37Z</time>
      </trkpt>
      <trkpt lat="43.28877" lon="5.87484">
        <ele>313.8</ele>
        <time>2024-06-12T08:19:38Z</time>
      </trkpt>
      <trkpt lat="43.28878" lon="5.87481">
        <ele>313.8</ele>
        <time>2024-06-12T08:19:39Z</time>
      </trkpt>
      <trkpt lat="43.2888" lon="5.87472">
        <ele>313.8</ele>
        <time>2024-06-12T08:19:40Z</time>
      </trkpt>
      <trkpt lat="43.2888" lon="5.87469">
        <ele>313.8</ele>
        <time>2024-06-12T08:19:41Z</time>
      </trkpt>
      <trkpt lat="43.28881" lon="5.87464">
        <ele>313.8</ele>
        <time>2024-06-12T08:19:42Z</time>
      </trkpt>
      <trkpt lat="43.28883" lon="5.87455">
        <ele>313.8</ele>
        <time>2024-06-12T08:19:43Z</time>
      </trkpt>
      <trkpt lat="43.28883" lon="5.87452">
        <ele>313.8</ele>
        <time>2024-06-12T08:19:44Z</time>
      </trkpt>
      <trkpt lat="43.28885" lon="5.87444">
        <ele>313.8</ele>
        <time>2024-06-12T08:19:45Z</time>
      </trkpt>
      <trkpt lat="43.28886" lon="5.87441">
        <ele>314</ele>
        <time>2024-06-12T08:19:46Z</time>
      </trkpt>
      <trkpt lat="43.28887" lon="5.87433">
        <ele>314</ele>
        <time>2024-06-12T08:19:47Z</time>
      </trkpt>
      <trkpt lat="43.28888" lon="5.8743">
        <ele>314</ele>
        <time>2024-06-12T08:19:48Z</time>
      </trkpt>
      <trkpt lat="43.2889" lon="5.87422">
        <ele>314</ele>
        <time>2024-06-12T08:19:49Z</time>
      </trkpt>
      <trkpt lat="43.2889" lon="5.8742">
        <ele>314.4</ele>
        <time>2024-06-12T08:19:50Z</time>
      </trkpt>
      <trkpt lat="43.28892" lon="5.87412">
        <ele>314.4</ele>
        <time>2024-06-12T08:19:51Z</time>
      </trkpt>
      <trkpt lat="43.28892" lon="5.87409">
        <ele>314.4</ele>
        <time>2024-06-12T08:19:52Z</time>
      </trkpt>
      <trkpt lat="43.28894" lon="5.87401">
        <ele>314.4</ele>
        <time>2024-06-12T08:19:53Z</time>
      </trkpt>
      <trkpt lat="43.28894" lon="5.87399">
        <ele>315</ele>
        <time>2024-06-12T08:19:54Z</time>
      </trkpt>
      <trkpt lat="43.28895" lon="5.87394">
        <ele>315</ele>
        <time>2024-06-12T08:19:55Z</time>
      </trkpt>
      <trkpt lat="43.28897" lon="5.87386">
        <ele>315</ele>
        <time>2024-06-12T08:19:56Z</time>
      </trkpt>
      <trkpt lat="43.28897" lon="5.87383">
        <ele>315</ele>
        <time>2024-06-12T08:19:57Z</time>
      </trkpt>
      <trkpt lat="43.28899" lon="5.87375">
        <ele>315</ele>
        <time>2024-06-12T08:19:58Z</time>
      </trkpt>
      <trkpt lat="43.28899" lon="5.87373">
        <ele>315.4</ele>
        <time>2024-06-12T08:19:59Z</time>
      </trkpt>
      <trkpt lat="43.28901" lon="5.87365">
        <ele>315.4</ele>
        <time>2024-06-12T08:20:00Z</time>
      </trkpt>
      <trkpt lat="43.28901" lon="5.87363">
        <ele>315.4</ele>
        <time>2024-06-12T08:20:01Z</time>
      </trkpt>
      <trkpt lat="43.28902" lon="5.87358">
        <ele>315.4</ele>
        <time>2024-06-12T08:20:02Z</time>
      </trkpt>
      <trkpt lat="43.28904" lon="5.8735">
        <ele>316</ele>
        <time>2024-06-12T08:20:03Z</time>
      </trkpt>
      <trkpt lat="43.28905" lon="5.87348">
        <ele>316.2</ele>
        <time>2024-06-12T08:20:04Z</time>
      </trkpt>
      <trkpt lat="43.28906" lon="5.8734">
        <ele>316.2</ele>
        <time>2024-06-12T08:20:05Z</time>
      </trkpt>
      <trkpt lat="43.28906" lon="5.87337">
        <ele>316.2</ele>
        <time>2024-06-12T08:20:06Z</time>
      </trkpt>
      <trkpt lat="43.28908" lon="5.87329">
        <ele>316.2</ele>
        <time>2024-06-12T08:20:07Z</time>
      </trkpt>
      <trkpt lat="43.28908" lon="5.87326">
        <ele>316.8</ele>
        <time>2024-06-12T08:20:08Z</time>
      </trkpt>
      <trkpt lat="43.28909" lon="5.87321">
        <ele>316.8</ele>
        <time>2024-06-12T08:20:09Z</time>
      </trkpt>
      <trkpt lat="43.28911" lon="5.87314">
        <ele>316.8</ele>
        <time>2024-06-12T08:20:10Z</time>
      </trkpt>
      <trkpt lat="43.28911" lon="5.87311">
        <ele>316.8</ele>
        <time>2024-06-12T08:20:11Z</time>
      </trkpt>
      <trkpt lat="43.28913" lon="5.87303">
        <ele>317.4</ele>
        <time>2024-06-12T08:20:12Z</time>
      </trkpt>
      <trkpt lat="43.28913" lon="5.873">
        <ele>317.6</ele>
        <time>2024-06-12T08:20:13Z</time>
      </trkpt>
      <trkpt lat="43.28914" lon="5.87295">
        <ele>317.6</ele>
        <time>2024-06-12T08:20:14Z</time>
      </trkpt>
      <trkpt lat="43.28916" lon="5.87288">
        <ele>317.6</ele>
        <time>2024-06-12T08:20:15Z</time>
      </trkpt>
      <trkpt lat="43.28916" lon="5.87285">
        <ele>317.6</ele>
        <time>2024-06-12T08:20:16Z</time>
      </trkpt>
      <trkpt lat="43.28917" lon="5.8728">
        <ele>318.4</ele>
        <time>2024-06-12T08:20:17Z</time>
      </trkpt>
      <trkpt lat="43.28919" lon="5.87273">
        <ele>318.4</ele>
        <time>2024-06-12T08:20:18Z</time>
      </trkpt>
      <trkpt lat="43.28919" lon="5.87271">
        <ele>318.4</ele>
        <time>2024-06-12T08:20:19Z</time>
      </trkpt>
      <trkpt lat="43.28921" lon="5.87264">
        <ele>318.4</ele>
        <time>2024-06-12T08:20:20Z</time>
      </trkpt>
      <trkpt lat="43.28921" lon="5.87262">
        <ele>318.4</ele>
        <time>2024-06-12T08:20:21Z</time>
      </trkpt>
      <trkpt lat="43.28923" lon="5.87255">
        <ele>318.6</ele>
        <time>2024-06-12T08:20:22Z</time>
      </trkpt>
      <trkpt lat="43.28923" lon="5.87252">
        <ele>318.6</ele>
        <time>2024-06-12T08:20:23Z</time>
      </trkpt>
      <trkpt lat="43.28924" lon="5.87248">
        <ele>318.6</ele>
        <time>2024-06-12T08:20:24Z</time>
      </trkpt>
      <trkpt lat="43.28926" lon="5.8724">
        <ele>318.6</ele>
        <time>2024-06-12T08:20:25Z</time>
      </trkpt>
      <trkpt lat="43.28926" lon="5.87238">
        <ele>319</ele>
        <time>2024-06-12T08:20:26Z</time>
      </trkpt>
      <trkpt lat="43.28928" lon="5.87231">
        <ele>319</ele>
        <time>2024-06-12T08:20:27Z</time>
      </trkpt>
      <trkpt lat="43.28928" lon="5.87229">
        <ele>319</ele>
        <time>2024-06-12T08:20:28Z</time>
      </trkpt>
      <trkpt lat="43.28929" lon="5.87224">
        <ele>319</ele>
        <time>2024-06-12T08:20:29Z</time>
      </trkpt>
      <trkpt lat="43.28931" lon="5.87217">
        <ele>319.4</ele>
        <time>2024-06-12T08:20:30Z</time>
      </trkpt>
      <trkpt lat="43.28931" lon="5.87215">
        <ele>319.4</ele>
        <time>2024-06-12T08:20:31Z</time>
      </trkpt>
      <trkpt lat="43.28932" lon="5.8721">
        <ele>319.4</ele>
        <time>2024-06-12T08:20:32Z</time>
      </trkpt>
      <trkpt lat="43.28934" lon="5.87204">
        <ele>319.4</ele>
        <time>2024-06-12T08:20:33Z</time>
      </trkpt>
      <trkpt lat="43.28935" lon="5.87202">
        <ele>319.4</ele>
        <time>2024-06-12T08:20:34Z</time>
      </trkpt>
      <trkpt lat="43.28936" lon="5.87195">
        <ele>319.8</ele>
        <time>2024-06-12T08:20:35Z</time>
      </trkpt>
      <trkpt lat="43.28936" lon="5.87192">
        <ele>320</ele>
        <time>2024-06-12T08:20:36Z</time>
      </trkpt>
      <trkpt lat="43.28937" lon="5.87188">
        <ele>320</ele>
        <time>2024-06-12T08:20:37Z</time>
      </trkpt>
      <trkpt lat="43.28938" lon="5.87181">
        <ele>320</ele>
        <time>2024-06-12T08:20:38Z</time>
      </trkpt>
      <trkpt lat="43.28939" lon="5.87179">
        <ele>320.2</ele>
        <time>2024-06-12T08:20:39Z</time>
      </trkpt>
      <trkpt lat="43.28941" lon="5.87172">
        <ele>320.2</ele>
        <time>2024-06-12T08:20:40Z</time>
      </trkpt>
      <trkpt lat="43.28941" lon="5.8717">
        <ele>320.4</ele>
        <time>2024-06-12T08:20:41Z</time>
      </trkpt>
      <trkpt lat="43.28943" lon="5.87163">
        <ele>320.4</ele>
        <time>2024-06-12T08:20:42Z</time>
      </trkpt>
      <trkpt lat="43.28943" lon="5.87161">
        <ele>320.4</ele>
        <time>2024-06-12T08:20:43Z</time>
      </trkpt>
      <trkpt lat="43.28945" lon="5.87157">
        <ele>320.8</ele>
        <time>2024-06-12T08:20:44Z</time>
      </trkpt>
      <trkpt lat="43.28946" lon="5.8715">
        <ele>320.8</ele>
        <time>2024-06-12T08:20:45Z</time>
      </trkpt>
      <trkpt lat="43.28947" lon="5.87148">
        <ele>320.8</ele>
        <time>2024-06-12T08:20:46Z</time>
      </trkpt>
      <trkpt lat="43.28948" lon="5.87144">
        <ele>320.8</ele>
        <time>2024-06-12T08:20:47Z</time>
      </trkpt>
      <trkpt lat="43.2895" lon="5.87141">
        <ele>321.2</ele>
        <time>2024-06-12T08:20:48Z</time>
      </trkpt>
      <trkpt lat="43.28952" lon="5.87137">
        <ele>321.2</ele>
        <time>2024-06-12T08:20:49Z</time>
      </trkpt>
      <trkpt lat="43.28953" lon="5.87134">
        <ele>321.2</ele>
        <time>2024-06-12T08:20:50Z</time>
      </trkpt>
      <trkpt lat="43.28956" lon="5.87129">
        <ele>321.2</ele>
        <time>2024-06-12T08:20:51Z</time>
      </trkpt>
      <trkpt lat="43.28957" lon="5.87127">
        <ele>321.2</ele>
        <time>2024-06-12T08:20:52Z</time>
      </trkpt>
      <trkpt lat="43.2896" lon="5.87122">
        <ele>321.4</ele>
        <time>2024-06-12T08:20:53Z</time>
      </trkpt>
      <trkpt lat="43.28961" lon="5.8712">
        <ele>321.8</ele>
        <time>2024-06-12T08:20:54Z</time>
      </trkpt>
      <trkpt lat="43.28962" lon="5.87114">
        <ele>321.8</ele>
        <time>2024-06-12T08:20:55Z</time>
      </trkpt>
      <trkpt lat="43.28963" lon="5.87112">
        <ele>321.8</ele>
        <time>2024-06-12T08:20:56Z</time>
      </trkpt>
      <trkpt lat="43.28964" lon="5.87108">
        <ele>322.2</ele>
        <time>2024-06-12T08:20:57Z</time>
      </trkpt>
      <trkpt lat="43.28965" lon="5.87102">
        <ele>322.2</ele>
        <time>2024-06-12T08:20:58Z</time>
      </trkpt>
      <trkpt lat="43.28965" lon="5.871">
        <ele>322.2</ele>
        <time>2024-06-12T08:20:59Z</time>
      </trkpt>
      <trkpt lat="43.28966" lon="5.87097">
        <ele>322.2</ele>
        <time>2024-06-12T08:21:00Z</time>
      </trkpt>
      <trkpt lat="43.28968" lon="5.87092">
        <ele>322.2</ele>
        <time>2024-06-12T08:21:01Z</time>
      </trkpt>
      <trkpt lat="43.28968" lon="5.87091">
        <ele>322.8</ele>
        <time>2024-06-12T08:21:02Z</time>
      </trkpt>
      <trkpt lat="43.2897" lon="5.87086">
        <ele>323</ele>
        <time>2024-06-12T08:21:03Z</time>
      </trkpt>
      <trkpt lat="43.28971" lon="5.87084">
        <ele>323</ele>
        <time>2024-06-12T08:21:04Z</time>
      </trkpt>
      <trkpt lat="43.28974" lon="5.87079">
        <ele>323</ele>
        <time>2024-06-12T08:21:05Z</time>
      </trkpt>
      <trkpt lat="43.28975" lon="5.87078">
        <ele>323</ele>
        <time>2024-06-12T08:21:06Z</time>
      </trkpt>
      <trkpt lat="43.28976" lon="5.87075">
        <ele>323.4</ele>
        <time>2024-06-12T08:21:07Z</time>
      </trkpt>
      <trkpt lat="43.28979" lon="5.8707">
        <ele>323.2</ele>
        <time>2024-06-12T08:21:08Z</time>
      </trkpt>
      <trkpt lat="43.2898" lon="5.87068">
        <ele>323.2</ele>
        <time>2024-06-12T08:21:09Z</time>
      </trkpt>
      <trkpt lat="43.28983" lon="5.87063">
        <ele>323.2</ele>
        <time>2024-06-12T08:21:10Z</time>
      </trkpt>
      <trkpt lat="43.28984" lon="5.87061">
        <ele>323.8</ele>
        <time>2024-06-12T08:21:11Z</time>
      </trkpt>
      <trkpt lat="43.28986" lon="5.87058">
        <ele>323.8</ele>
        <time>2024-06-12T08:21:12Z</time>
      </trkpt>
      <trkpt lat="43.28988" lon="5.87053">
        <ele>323.8</ele>
        <time>2024-06-12T08:21:13Z</time>
      </trkpt>
      <trkpt lat="43.28989" lon="5.87052">
        <ele>323.8</ele>
        <time>2024-06-12T08:21:14Z</time>
      </trkpt>
      <trkpt lat="43.28991" lon="5.87049">
        <ele>323.8</ele>
        <time>2024-06-12T08:21:15Z</time>
      </trkpt>
      <trkpt lat="43.28994" lon="5.87044">
        <ele>324</ele>
        <time>2024-06-12T08:21:16Z</time>
      </trkpt>
      <trkpt lat="43.28995" lon="5.87042">
        <ele>324.2</ele>
        <time>2024-06-12T08:21:17Z</time>
      </trkpt>
      <trkpt lat="43.28998" lon="5.87037">
        <ele>324.2</ele>
        <time>2024-06-12T08:21:18Z</time>
      </trkpt>
      <trkpt lat="43.28999" lon="5.87036">
        <ele>324.2</ele>
        <time>2024-06-12T08:21:19Z</time>
      </trkpt>
      <trkpt lat="43.29001" lon="5.87033">
        <ele>324.6</ele>
        <time>2024-06-12T08:21:20Z</time>
      </trkpt>
      <trkpt lat="43.29003" lon="5.87027">
        <ele>324.6</ele>
        <time>2024-06-12T08:21:21Z</time>
      </trkpt>
      <trkpt lat="43.29004" lon="5.87026">
        <ele>324.6</ele>
        <time>2024-06-12T08:21:22Z</time>
      </trkpt>
      <trkpt lat="43.29006" lon="5.8702">
        <ele>324.6</ele>
        <time>2024-06-12T08:21:23Z</time>
      </trkpt>
      <trkpt lat="43.29007" lon="5.87018">
        <ele>325</ele>
        <time>2024-06-12T08:21:24Z</time>
      </trkpt>
      <trkpt lat="43.2901" lon="5.87013">
        <ele>325</ele>
        <time>2024-06-12T08:21:25Z</time>
      </trkpt>
      <trkpt lat="43.29011" lon="5.87011">
        <ele>325</ele>
        <time>2024-06-12T08:21:26Z</time>
      </trkpt>
      <trkpt lat="43.29012" lon="5.87007">
        <ele>325</ele>
        <time>2024-06-12T08:21:27Z</time>
      </trkpt>
      <trkpt lat="43.29014" lon="5.87004">
        <ele>325</ele>
        <time>2024-06-12T08:21:28Z</time>
      </trkpt>
      <trkpt lat="43.29015" lon="5.87">
        <ele>325.2</ele>
        <time>2024-06-12T08:21:29Z</time>
      </trkpt>
      <trkpt lat="43.29016" lon="5.86996">
        <ele>325.6</ele>
        <time>2024-06-12T08:21:30Z</time>
      </trkpt>
      <trkpt lat="43.29018" lon="5.86992">
        <ele>325.6</ele>
        <time>2024-06-12T08:21:31Z</time>
      </trkpt>
      <trkpt lat="43.29019" lon="5.86988">
        <ele>325.6</ele>
        <time>2024-06-12T08:21:32Z</time>
      </trkpt>
      <trkpt lat="43.2902" lon="5.86984">
        <ele>326</ele>
        <time>2024-06-12T08:21:33Z</time>
      </trkpt>
      <trkpt lat="43.29021" lon="5.86979">
        <ele>326</ele>
        <time>2024-06-12T08:21:34Z</time>
      </trkpt>
      <trkpt lat="43.29022" lon="5.86975">
        <ele>326</ele>
        <time>2024-06-12T08:21:35Z</time>
      </trkpt>
      <trkpt lat="43.29023" lon="5.86968">
        <ele>326</ele>
        <time>2024-06-12T08:21:36Z</time>
      </trkpt>
      <trkpt lat="43.29023" lon="5.86966">
        <ele>326</ele>
        <time>2024-06-12T08:21:37Z</time>
      </trkpt>
      <trkpt lat="43.29024" lon="5.86959">
        <ele>326.4</ele>
        <time>2024-06-12T08:21:38Z</time>
      </trkpt>
      <trkpt lat="43.29025" lon="5.86957">
        <ele>326.6</ele>
        <time>2024-06-12T08:21:39Z</time>
      </trkpt>
      <trkpt lat="43.29026" lon="5.86952">
        <ele>326.6</ele>
        <time>2024-06-12T08:21:40Z</time>
      </trkpt>
      <trkpt lat="43.29026" lon="5.86944">
        <ele>326.6</ele>
        <time>2024-06-12T08:21:41Z</time>
      </trkpt>
      <trkpt lat="43.29027" lon="5.86942">
        <ele>326.6</ele>
        <time>2024-06-12T08:21:42Z</time>
      </trkpt>
      <trkpt lat="43.29027" lon="5.86937">
        <ele>327.2</ele>
        <time>2024-06-12T08:21:43Z</time>
      </trkpt>
      <trkpt lat="43.29028" lon="5.8693">
        <ele>327.2</ele>
        <time>2024-06-12T08:21:44Z</time>
      </trkpt>
      <trkpt lat="43.29029" lon="5.86927">
        <ele>327.2</ele>
        <time>2024-06-12T08:21:45Z</time>
      </trkpt>
      <trkpt lat="43.2903" lon="5.8692">
        <ele>327.2</ele>
        <time>2024-06-12T08:21:46Z</time>
      </trkpt>
      <trkpt lat="43.2903" lon="5.86917">
        <ele>327.4</ele>
        <time>2024-06-12T08:21:47Z</time>
      </trkpt>
      <trkpt lat="43.29032" lon="5.8691">
        <ele>327.6</ele>
        <time>2024-06-12T08:21:48Z</time>
      </trkpt>
      <trkpt lat="43.29032" lon="5.86907">
        <ele>327.6</ele>
        <time>2024-06-12T08:21:49Z</time>
      </trkpt>
      <trkpt lat="43.29033" lon="5.86902">
        <ele>327.6</ele>
        <time>2024-06-12T08:21:50Z</time>
      </trkpt>
      <trkpt lat="43.29034" lon="5.86895">
        <ele>327.6</ele>
        <time>2024-06-12T08:21:51Z</time>
      </trkpt>
      <trkpt lat="43.29034" lon="5.86892">
        <ele>328</ele>
        <time>2024-06-12T08:21:52Z</time>
      </trkpt>
      <trkpt lat="43.29035" lon="5.86885">
        <ele>328</ele>
        <time>2024-06-12T08:21:53Z</time>
      </trkpt>
      <trkpt lat="43.29035" lon="5.86882">
        <ele>328</ele>
        <time>2024-06-12T08:21:54Z</time>
      </trkpt>
      <trkpt lat="43.29036" lon="5.86877">
        <ele>328</ele>
        <time>2024-06-12T08:21:55Z</time>
      </trkpt>
      <trkpt lat="43.29037" lon="5.8687">
        <ele>328.4</ele>
        <time>2024-06-12T08:21:56Z</time>
      </trkpt>
      <trkpt lat="43.29037" lon="5.86867">
        <ele>328.4</ele>
        <time>2024-06-12T08:21:57Z</time>
      </trkpt>
      <trkpt lat="43.29038" lon="5.86862">
        <ele>328.4</ele>
        <time>2024-06-12T08:21:58Z</time>
      </trkpt>
      <trkpt lat="43.29039" lon="5.86855">
        <ele>328.4</ele>
        <time>2024-06-12T08:21:59Z</time>
      </trkpt>
      <trkpt lat="43.29039" lon="5.86853">
        <ele>328.4</ele>
        <time>2024-06-12T08:22:00Z</time>
      </trkpt>
      <trkpt lat="43.2904" lon="5.86845">
        <ele>329</ele>
        <time>2024-06-12T08:22:01Z</time>
      </trkpt>
      <trkpt lat="43.29041" lon="5.86843">
        <ele>329.2</ele>
        <time>2024-06-12T08:22:02Z</time>
      </trkpt>
      <trkpt lat="43.29041" lon="5.86838">
        <ele>329.2</ele>
        <time>2024-06-12T08:22:03Z</time>
      </trkpt>
      <trkpt lat="43.29043" lon="5.86831">
        <ele>329.2</ele>
        <time>2024-06-12T08:22:04Z</time>
      </trkpt>
      <trkpt lat="43.29044" lon="5.86829">
        <ele>329.4</ele>
        <time>2024-06-12T08:22:05Z</time>
      </trkpt>
      <trkpt lat="43.29045" lon="5.86822">
        <ele>329.4</ele>
        <time>2024-06-12T08:22:06Z</time>
      </trkpt>
      <trkpt lat="43.29045" lon="5.86819">
        <ele>329.6</ele>
        <time>2024-06-12T08:22:07Z</time>
      </trkpt>
      <trkpt lat="43.29045" lon="5.86812">
        <ele>329.6</ele>
        <time>2024-06-12T08:22:08Z</time>
      </trkpt>
      <trkpt lat="43.29046" lon="5.8681">
        <ele>329.6</ele>
        <time>2024-06-12T08:22:09Z</time>
      </trkpt>
      <trkpt lat="43.29046" lon="5.86805">
        <ele>330.2</ele>
        <time>2024-06-12T08:22:10Z</time>
      </trkpt>
      <trkpt lat="43.29047" lon="5.868">
        <ele>330.4</ele>
        <time>2024-06-12T08:22:11Z</time>
      </trkpt>
      <trkpt lat="43.29047" lon="5.86796">
        <ele>330.4</ele>
        <time>2024-06-12T08:22:12Z</time>
      </trkpt>
      <trkpt lat="43.29047" lon="5.86791">
        <ele>330.4</ele>
        <time>2024-06-12T08:22:13Z</time>
      </trkpt>
      <trkpt lat="43.29048" lon="5.86786">
        <ele>330.6</ele>
        <time>2024-06-12T08:22:14Z</time>
      </trkpt>
      <trkpt lat="43.29048" lon="5.86782">
        <ele>330.6</ele>
        <time>2024-06-12T08:22:15Z</time>
      </trkpt>
      <trkpt lat="43.29049" lon="5.86777">
        <ele>331.2</ele>
        <time>2024-06-12T08:22:16Z</time>
      </trkpt>
      <trkpt lat="43.29049" lon="5.86772">
        <ele>331.2</ele>
        <time>2024-06-12T08:22:17Z</time>
      </trkpt>
      <trkpt lat="43.2905" lon="5.86767">
        <ele>331.2</ele>
        <time>2024-06-12T08:22:18Z</time>
      </trkpt>
      <trkpt lat="43.2905" lon="5.8676">
        <ele>331.2</ele>
        <time>2024-06-12T08:22:19Z</time>
      </trkpt>
      <trkpt lat="43.29051" lon="5.86758">
        <ele>331</ele>
        <time>2024-06-12T08:22:20Z</time>
      </trkpt>
      <trkpt lat="43.29051" lon="5.86751">
        <ele>331</ele>
        <time>2024-06-12T08:22:21Z</time>
      </trkpt>
      <trkpt lat="43.29052" lon="5.86749">
        <ele>331</ele>
        <time>2024-06-12T08:22:22Z</time>
      </trkpt>
      <trkpt lat="43.29052" lon="5.86744">
        <ele>332</ele>
        <time>2024-06-12T08:22:23Z</time>
      </trkpt>
      <trkpt lat="43.29052" lon="5.86737">
        <ele>332.2</ele>
        <time>2024-06-12T08:22:24Z</time>
      </trkpt>
      <trkpt lat="43.29053" lon="5.86734">
        <ele>332.2</ele>
        <time>2024-06-12T08:22:25Z</time>
      </trkpt>
      <trkpt lat="43.29053" lon="5.8673">
        <ele>332.2</ele>
        <time>2024-06-12T08:22:26Z</time>
      </trkpt>
      <trkpt lat="43.29053" lon="5.86722">
        <ele>332.2</ele>
        <time>2024-06-12T08:22:27Z</time>
      </trkpt>
      <trkpt lat="43.29054" lon="5.8672">
        <ele>332.6</ele>
        <time>2024-06-12T08:22:28Z</time>
      </trkpt>
      <trkpt lat="43.29054" lon="5.86713">
        <ele>332.6</ele>
        <time>2024-06-12T08:22:29Z</time>
      </trkpt>
      <trkpt lat="43.29054" lon="5.8671">
        <ele>332.6</ele>
        <time>2024-06-12T08:22:30Z</time>
      </trkpt>
      <trkpt lat="43.29054" lon="5.86703">
        <ele>332.6</ele>
        <time>2024-06-12T08:22:31Z</time>
      </trkpt>
      <trkpt lat="43.29055" lon="5.86701">
        <ele>332.6</ele>
        <time>2024-06-12T08:22:32Z</time>
      </trkpt>
      <trkpt lat="43.29055" lon="5.86696">
        <ele>333.2</ele>
        <time>2024-06-12T08:22:33Z</time>
      </trkpt>
      <trkpt lat="43.29055" lon="5.86689">
        <ele>333.2</ele>
        <time>2024-06-12T08:22:34Z</time>
      </trkpt>
      <trkpt lat="43.29056" lon="5.86687">
        <ele>333.2</ele>
        <time>2024-06-12T08:22:35Z</time>
      </trkpt>
      <trkpt lat="43.29056" lon="5.86679">
        <ele>333.2</ele>
        <time>2024-06-12T08:22:36Z</time>
      </trkpt>
      <trkpt lat="43.29056" lon="5.86677">
        <ele>333.2</ele>
        <time>2024-06-12T08:22:37Z</time>
      </trkpt>
      <trkpt lat="43.29057" lon="5.86672">
        <ele>333.4</ele>
        <time>2024-06-12T08:22:38Z</time>
      </trkpt>
      <trkpt lat="43.29057" lon="5.86665">
        <ele>333.4</ele>
        <time>2024-06-12T08:22:39Z</time>
      </trkpt>
      <trkpt lat="43.29058" lon="5.86662">
        <ele>333.4</ele>
        <time>2024-06-12T08:22:40Z</time>
      </trkpt>
      <trkpt lat="43.29058" lon="5.86657">
        <ele>333.4</ele>
        <time>2024-06-12T08:22:41Z</time>
      </trkpt>
      <trkpt lat="43.29058" lon="5.86652">
        <ele>333.4</ele>
        <time>2024-06-12T08:22:42Z</time>
      </trkpt>
      <trkpt lat="43.29059" lon="5.86646">
        <ele>333.4</ele>
        <time>2024-06-12T08:22:43Z</time>
      </trkpt>
      <trkpt lat="43.2906" lon="5.86641">
        <ele>333.4</ele>
        <time>2024-06-12T08:22:44Z</time>
      </trkpt>
      <trkpt lat="43.2906" lon="5.86636">
        <ele>333.4</ele>
        <time>2024-06-12T08:22:45Z</time>
      </trkpt>
      <trkpt lat="43.2906" lon="5.8663">
        <ele>333.2</ele>
        <time>2024-06-12T08:22:46Z</time>
      </trkpt>
      <trkpt lat="43.29061" lon="5.86622">
        <ele>333.2</ele>
        <time>2024-06-12T08:22:47Z</time>
      </trkpt>
      <trkpt lat="43.29061" lon="5.86619">
        <ele>333.2</ele>
        <time>2024-06-12T08:22:48Z</time>
      </trkpt>
      <trkpt lat="43.29062" lon="5.86611">
        <ele>333.2</ele>
        <time>2024-06-12T08:22:49Z</time>
      </trkpt>
      <trkpt lat="43.29063" lon="5.86608">
        <ele>333.8</ele>
        <time>2024-06-12T08:22:50Z</time>
      </trkpt>
      <trkpt lat="43.29063" lon="5.86599">
        <ele>334</ele>
        <time>2024-06-12T08:22:51Z</time>
      </trkpt>
      <trkpt lat="43.29064" lon="5.86596">
        <ele>334</ele>
        <time>2024-06-12T08:22:52Z</time>
      </trkpt>
      <trkpt lat="43.29065" lon="5.8659">
        <ele>334</ele>
        <time>2024-06-12T08:22:53Z</time>
      </trkpt>
      <trkpt lat="43.29065" lon="5.86584">
        <ele>334.4</ele>
        <time>2024-06-12T08:22:54Z</time>
      </trkpt>
      <trkpt lat="43.29065" lon="5.86578">
        <ele>334.6</ele>
        <time>2024-06-12T08:22:55Z</time>
      </trkpt>
      <trkpt lat="43.29066" lon="5.86569">
        <ele>334.6</ele>
        <time>2024-06-12T08:22:56Z</time>
      </trkpt>
      <trkpt lat="43.29066" lon="5.86566">
        <ele>334.6</ele>
        <time>2024-06-12T08:22:57Z</time>
      </trkpt>
      <trkpt lat="43.29066" lon="5.8656">
        <ele>334.6</ele>
        <time>2024-06-12T08:22:58Z</time>
      </trkpt>
      <trkpt lat="43.29066" lon="5.8655">
        <ele>335.2</ele>
        <time>2024-06-12T08:22:59Z</time>
      </trkpt>
      <trkpt lat="43.29066" lon="5.86547">
        <ele>335.2</ele>
        <time>2024-06-12T08:23:00Z</time>
      </trkpt>
      <trkpt lat="43.29065" lon="5.86537">
        <ele>335.2</ele>
        <time>2024-06-12T08:23:01Z</time>
      </trkpt>
      <trkpt lat="43.29065" lon="5.86533">
        <ele>335.2</ele>
        <time>2024-06-12T08:23:02Z</time>
      </trkpt>
      <trkpt lat="43.29064" lon="5.86523">
        <ele>335.4</ele>
        <time>2024-06-12T08:23:03Z</time>
      </trkpt>
      <trkpt lat="43.29064" lon="5.86519">
        <ele>335.4</ele>
        <time>2024-06-12T08:23:04Z</time>
      </trkpt>
      <trkpt lat="43.29063" lon="5.86512">
        <ele>335.4</ele>
        <time>2024-06-12T08:23:05Z</time>
      </trkpt>
      <trkpt lat="43.2906" lon="5.86502">
        <ele>335.4</ele>
        <time>2024-06-12T08:23:06Z</time>
      </trkpt>
      <trkpt lat="43.29059" lon="5.86499">
        <ele>335.4</ele>
        <time>2024-06-12T08:23:07Z</time>
      </trkpt>
      <trkpt lat="43.29058" lon="5.86493">
        <ele>335.4</ele>
        <time>2024-06-12T08:23:08Z</time>
      </trkpt>
      <trkpt lat="43.29056" lon="5.86483">
        <ele>335.4</ele>
        <time>2024-06-12T08:23:09Z</time>
      </trkpt>
      <trkpt lat="43.29055" lon="5.8648">
        <ele>335.4</ele>
        <time>2024-06-12T08:23:10Z</time>
      </trkpt>
      <trkpt lat="43.29054" lon="5.8647">
        <ele>335.4</ele>
        <time>2024-06-12T08:23:11Z</time>
      </trkpt>
      <trkpt lat="43.29054" lon="5.86467">
        <ele>335.4</ele>
        <time>2024-06-12T08:23:12Z</time>
      </trkpt>
      <trkpt lat="43.29052" lon="5.86458">
        <ele>335.6</ele>
        <time>2024-06-12T08:23:13Z</time>
      </trkpt>
      <trkpt lat="43.29051" lon="5.86455">
        <ele>335.6</ele>
        <time>2024-06-12T08:23:14Z</time>
      </trkpt>
      <trkpt lat="43.29049" lon="5.86446">
        <ele>335.6</ele>
        <time>2024-06-12T08:23:15Z</time>
      </trkpt>
      <trkpt lat="43.29049" lon="5.86443">
        <ele>335.6</ele>
        <time>2024-06-12T08:23:16Z</time>
      </trkpt>
      <trkpt lat="43.29048" lon="5.86436">
        <ele>335.4</ele>
        <time>2024-06-12T08:23:17Z</time>
      </trkpt>
      <trkpt lat="43.29047" lon="5.8643">
        <ele>335.4</ele>
        <time>2024-06-12T08:23:18Z</time>
      </trkpt>
      <trkpt lat="43.29045" lon="5.8642">
        <ele>335.4</ele>
        <time>2024-06-12T08:23:19Z</time>
      </trkpt>
      <trkpt lat="43.29045" lon="5.86416">
        <ele>335.4</ele>
        <time>2024-06-12T08:23:20Z</time>
      </trkpt>
      <trkpt lat="43.29043" lon="5.8641">
        <ele>335.4</ele>
        <time>2024-06-12T08:23:21Z</time>
      </trkpt>
      <trkpt lat="43.29042" lon="5.86403">
        <ele>335.4</ele>
        <time>2024-06-12T08:23:22Z</time>
      </trkpt>
      <trkpt lat="43.29041" lon="5.86393">
        <ele>335.4</ele>
        <time>2024-06-12T08:23:23Z</time>
      </trkpt>
      <trkpt lat="43.2904" lon="5.86389">
        <ele>335.4</ele>
        <time>2024-06-12T08:23:24Z</time>
      </trkpt>
      <trkpt lat="43.29039" lon="5.86379">
        <ele>335.4</ele>
        <time>2024-06-12T08:23:25Z</time>
      </trkpt>
      <trkpt lat="43.29039" lon="5.86375">
        <ele>335.4</ele>
        <time>2024-06-12T08:23:26Z</time>
      </trkpt>
      <trkpt lat="43.29038" lon="5.86365">
        <ele>335.4</ele>
        <time>2024-06-12T08:23:27Z</time>
      </trkpt>
      <trkpt lat="43.29038" lon="5.86362">
        <ele>335.4</ele>
        <time>2024-06-12T08:23:28Z</time>
      </trkpt>
      <trkpt lat="43.29036" lon="5.86352">
        <ele>335.4</ele>
        <time>2024-06-12T08:23:29Z</time>
      </trkpt>
      <trkpt lat="43.29036" lon="5.86348">
        <ele>335.6</ele>
        <time>2024-06-12T08:23:30Z</time>
      </trkpt>
      <trkpt lat="43.29034" lon="5.86338">
        <ele>335.4</ele>
        <time>2024-06-12T08:23:31Z</time>
      </trkpt>
      <trkpt lat="43.29034" lon="5.86334">
        <ele>335.4</ele>
        <time>2024-06-12T08:23:32Z</time>
      </trkpt>
      <trkpt lat="43.29032" lon="5.86327">
        <ele>335.4</ele>
        <time>2024-06-12T08:23:33Z</time>
      </trkpt>
      <trkpt lat="43.29032" lon="5.8632">
        <ele>335.4</ele>
        <time>2024-06-12T08:23:34Z</time>
      </trkpt>
      <trkpt lat="43.29031" lon="5.86312">
        <ele>335.4</ele>
        <time>2024-06-12T08:23:35Z</time>
      </trkpt>
      <trkpt lat="43.2903" lon="5.86304">
        <ele>335</ele>
        <time>2024-06-12T08:23:36Z</time>
      </trkpt>
      <trkpt lat="43.29029" lon="5.86297">
        <ele>335</ele>
        <time>2024-06-12T08:23:37Z</time>
      </trkpt>
      <trkpt lat="43.29028" lon="5.86289">
        <ele>335</ele>
        <time>2024-06-12T08:23:38Z</time>
      </trkpt>
      <trkpt lat="43.29028" lon="5.86281">
        <ele>334.8</ele>
        <time>2024-06-12T08:23:39Z</time>
      </trkpt>
      <trkpt lat="43.29027" lon="5.8627">
        <ele>334.8</ele>
        <time>2024-06-12T08:23:40Z</time>
      </trkpt>
      <trkpt lat="43.29026" lon="5.86266">
        <ele>334.8</ele>
        <time>2024-06-12T08:23:41Z</time>
      </trkpt>
      <trkpt lat="43.29025" lon="5.86254">
        <ele>334.8</ele>
        <time>2024-06-12T08:23:42Z</time>
      </trkpt>
      <trkpt lat="43.29025" lon="5.8625">
        <ele>334.4</ele>
        <time>2024-06-12T08:23:43Z</time>
      </trkpt>
      <trkpt lat="43.29024" lon="5.86243">
        <ele>334.4</ele>
        <time>2024-06-12T08:23:44Z</time>
      </trkpt>
      <trkpt lat="43.29024" lon="5.86231">
        <ele>334.4</ele>
        <time>2024-06-12T08:23:45Z</time>
      </trkpt>
      <trkpt lat="43.29024" lon="5.86228">
        <ele>334.4</ele>
        <time>2024-06-12T08:23:46Z</time>
      </trkpt>
      <trkpt lat="43.29024" lon="5.86218">
        <ele>334</ele>
        <time>2024-06-12T08:23:47Z</time>
      </trkpt>
      <trkpt lat="43.29024" lon="5.86215">
        <ele>334</ele>
        <time>2024-06-12T08:23:48Z</time>
      </trkpt>
      <trkpt lat="43.29025" lon="5.86209">
        <ele>334</ele>
        <time>2024-06-12T08:23:49Z</time>
      </trkpt>
      <trkpt lat="43.2903" lon="5.86204">
        <ele>334</ele>
        <time>2024-06-12T08:23:50Z</time>
      </trkpt>
      <trkpt lat="43.29031" lon="5.86203">
        <ele>334</ele>
        <time>2024-06-12T08:23:51Z</time>
      </trkpt>
      <trkpt lat="43.29035" lon="5.86202">
        <ele>333.6</ele>
        <time>2024-06-12T08:23:52Z</time>
      </trkpt>
      <trkpt lat="43.29038" lon="5.86203">
        <ele>333.4</ele>
        <time>2024-06-12T08:23:53Z</time>
      </trkpt>
      <trkpt lat="43.2904" lon="5.86204">
        <ele>333.4</ele>
        <time>2024-06-12T08:23:54Z</time>
      </trkpt>
      <trkpt lat="43.29041" lon="5.86208">
        <ele>333.4</ele>
        <time>2024-06-12T08:23:55Z</time>
      </trkpt>
      <trkpt lat="43.29042" lon="5.8621">
        <ele>332.4</ele>
        <time>2024-06-12T08:23:56Z</time>
      </trkpt>
      <trkpt lat="43.29042" lon="5.86215">
        <ele>332.4</ele>
        <time>2024-06-12T08:23:57Z</time>
      </trkpt>
      <trkpt lat="43.29042" lon="5.86217">
        <ele>332.6</ele>
        <time>2024-06-12T08:23:58Z</time>
      </trkpt>
      <trkpt lat="43.29042" lon="5.8622">
        <ele>332.6</ele>
        <time>2024-06-12T08:23:59Z</time>
      </trkpt>
      <trkpt lat="43.29043" lon="5.86222">
        <ele>332.6</ele>
        <time>2024-06-12T08:24:00Z</time>
      </trkpt>
      <trkpt lat="43.29043" lon="5.86224">
        <ele>332.4</ele>
        <time>2024-06-12T08:24:01Z</time>
      </trkpt>
      <trkpt lat="43.29045" lon="5.86226">
        <ele>332.4</ele>
        <time>2024-06-12T08:24:02Z</time>
      </trkpt>
      <trkpt lat="43.29046" lon="5.86229">
        <ele>332.2</ele>
        <time>2024-06-12T08:24:03Z</time>
      </trkpt>
      <trkpt lat="43.29047" lon="5.8623">
        <ele>332.2</ele>
        <time>2024-06-12T08:24:04Z</time>
      </trkpt>
      <trkpt lat="43.29049" lon="5.86232">
        <ele>332.2</ele>
        <time>2024-06-12T08:24:05Z</time>
      </trkpt>
      <trkpt lat="43.2905" lon="5.86234">
        <ele>331.6</ele>
        <time>2024-06-12T08:24:06Z</time>
      </trkpt>
      <trkpt lat="43.29052" lon="5.86237">
        <ele>331.6</ele>
        <time>2024-06-12T08:24:07Z</time>
      </trkpt>
      <trkpt lat="43.29053" lon="5.86237">
        <ele>331.6</ele>
        <time>2024-06-12T08:24:08Z</time>
      </trkpt>
      <trkpt lat="43.29055" lon="5.8624">
        <ele>331.6</ele>
        <time>2024-06-12T08:24:09Z</time>
      </trkpt>
      <trkpt lat="43.29056" lon="5.86241">
        <ele>331.2</ele>
        <time>2024-06-12T08:24:10Z</time>
      </trkpt>
      <trkpt lat="43.29059" lon="5.86243">
        <ele>331.2</ele>
        <time>2024-06-12T08:24:11Z</time>
      </trkpt>
      <trkpt lat="43.29059" lon="5.86244">
        <ele>331.2</ele>
        <time>2024-06-12T08:24:12Z</time>
      </trkpt>
      <trkpt lat="43.29061" lon="5.86245">
        <ele>331.2</ele>
        <time>2024-06-12T08:24:13Z</time>
      </trkpt>
      <trkpt lat="43.29065" lon="5.86246">
        <ele>330.8</ele>
        <time>2024-06-12T08:24:14Z</time>
      </trkpt>
      <trkpt lat="43.29066" lon="5.86247">
        <ele>331</ele>
        <time>2024-06-12T08:24:15Z</time>
      </trkpt>
      <trkpt lat="43.29069" lon="5.86249">
        <ele>331</ele>
        <time>2024-06-12T08:24:16Z</time>
      </trkpt>
      <trkpt lat="43.2907" lon="5.8625">
        <ele>331</ele>
        <time>2024-06-12T08:24:17Z</time>
      </trkpt>
      <trkpt lat="43.29072" lon="5.86251">
        <ele>331</ele>
        <time>2024-06-12T08:24:18Z</time>
      </trkpt>
      <trkpt lat="43.29074" lon="5.86252">
        <ele>331</ele>
        <time>2024-06-12T08:24:19Z</time>
      </trkpt>
      <trkpt lat="43.29077" lon="5.86252">
        <ele>331</ele>
        <time>2024-06-12T08:24:20Z</time>
      </trkpt>
      <trkpt lat="43.29079" lon="5.86253">
        <ele>331</ele>
        <time>2024-06-12T08:24:21Z</time>
      </trkpt>
      <trkpt lat="43.29082" lon="5.86254">
        <ele>331</ele>
        <time>2024-06-12T08:24:22Z</time>
      </trkpt>
      <trkpt lat="43.29084" lon="5.86255">
        <ele>331</ele>
        <time>2024-06-12T08:24:23Z</time>
      </trkpt>
      <trkpt lat="43.29086" lon="5.86255">
        <ele>331.2</ele>
        <time>2024-06-12T08:24:24Z</time>
      </trkpt>
      <trkpt lat="43.29089" lon="5.86255">
        <ele>331.2</ele>
        <time>2024-06-12T08:24:25Z</time>
      </trkpt>
      <trkpt lat="43.2909" lon="5.86255">
        <ele>331.2</ele>
        <time>2024-06-12T08:24:26Z</time>
      </trkpt>
      <trkpt lat="43.29093" lon="5.86255">
        <ele>331.6</ele>
        <time>2024-06-12T08:24:27Z</time>
      </trkpt>
      <trkpt lat="43.29094" lon="5.86255">
        <ele>331.6</ele>
        <time>2024-06-12T08:24:28Z</time>
      </trkpt>
      <trkpt lat="43.29096" lon="5.86254">
        <ele>331.6</ele>
        <time>2024-06-12T08:24:29Z</time>
      </trkpt>
      <trkpt lat="43.29097" lon="5.86255">
        <ele>331.6</ele>
        <time>2024-06-12T08:24:30Z</time>
      </trkpt>
      <trkpt lat="43.29099" lon="5.86254">
        <ele>332.2</ele>
        <time>2024-06-12T08:24:31Z</time>
      </trkpt>
      <trkpt lat="43.29101" lon="5.86253">
        <ele>332.2</ele>
        <time>2024-06-12T08:24:32Z</time>
      </trkpt>
      <trkpt lat="43.29103" lon="5.86254">
        <ele>332.2</ele>
        <time>2024-06-12T08:24:33Z</time>
      </trkpt>
      <trkpt lat="43.29104" lon="5.86254">
        <ele>332.2</ele>
        <time>2024-06-12T08:24:34Z</time>
      </trkpt>
      <trkpt lat="43.29105" lon="5.86254">
        <ele>332.2</ele>
        <time>2024-06-12T08:24:35Z</time>
      </trkpt>
      <trkpt lat="43.29105" lon="5.86254">
        <ele>333</ele>
        <time>2024-06-12T08:24:36Z</time>
      </trkpt>
      <trkpt lat="43.29106" lon="5.86254">
        <ele>333</ele>
        <time>2024-06-12T08:24:37Z</time>
      </trkpt>
      <trkpt lat="43.29107" lon="5.86254">
        <ele>333.2</ele>
        <time>2024-06-12T08:24:38Z</time>
      </trkpt>
      <trkpt lat="43.29108" lon="5.86253">
        <ele>333.2</ele>
        <time>2024-06-12T08:24:39Z</time>
      </trkpt>
      <trkpt lat="43.29108" lon="5.86251">
        <ele>333.2</ele>
        <time>2024-06-12T08:24:40Z</time>
      </trkpt>
      <trkpt lat="43.29108" lon="5.86249">
        <ele>333.8</ele>
        <time>2024-06-12T08:24:41Z</time>
      </trkpt>
      <trkpt lat="43.29108" lon="5.86247">
        <ele>334</ele>
        <time>2024-06-12T08:24:42Z</time>
      </trkpt>
      <trkpt lat="43.29108" lon="5.86246">
        <ele>334</ele>
        <time>2024-06-12T08:24:43Z</time>
      </trkpt>
      <trkpt lat="43.29108" lon="5.86243">
        <ele>334</ele>
        <time>2024-06-12T08:24:44Z</time>
      </trkpt>
      <trkpt lat="43.29108" lon="5.86242">
        <ele>334</ele>
        <time>2024-06-12T08:24:45Z</time>
      </trkpt>
      <trkpt lat="43.29108" lon="5.8624">
        <ele>334.4</ele>
        <time>2024-06-12T08:24:46Z</time>
      </trkpt>
      <trkpt lat="43.29108" lon="5.86239">
        <ele>334.6</ele>
        <time>2024-06-12T08:24:47Z</time>
      </trkpt>
      <trkpt lat="43.29108" lon="5.86238">
        <ele>334.6</ele>
        <time>2024-06-12T08:24:48Z</time>
      </trkpt>
      <trkpt lat="43.29108" lon="5.86237">
        <ele>334.6</ele>
        <time>2024-06-12T08:24:49Z</time>
      </trkpt>
      <trkpt lat="43.29107" lon="5.86237">
        <ele>334.6</ele>
        <time>2024-06-12T08:24:50Z</time>
      </trkpt>
      <trkpt lat="43.29107" lon="5.86237">
        <ele>335</ele>
        <time>2024-06-12T08:24:51Z</time>
      </trkpt>
      <trkpt lat="43.29109" lon="5.86236">
        <ele>335.6</ele>
        <time>2024-06-12T08:25:02Z</time>
      </trkpt>
      <trkpt lat="43.2911" lon="5.86238">
        <ele>335.6</ele>
        <time>2024-06-12T08:25:03Z</time>
      </trkpt>
      <trkpt lat="43.2911" lon="5.8624">
        <ele>335.6</ele>
        <time>2024-06-12T08:25:04Z</time>
      </trkpt>
      <trkpt lat="43.29111" lon="5.86241">
        <ele>335.6</ele>
        <time>2024-06-12T08:25:05Z</time>
      </trkpt>
      <trkpt lat="43.2911" lon="5.86243">
        <ele>335.6</ele>
        <time>2024-06-12T08:25:06Z</time>
      </trkpt>
      <trkpt lat="43.29111" lon="5.86245">
        <ele>335.6</ele>
        <time>2024-06-12T08:25:07Z</time>
      </trkpt>
      <trkpt lat="43.29111" lon="5.86248">
        <ele>335.4</ele>
        <time>2024-06-12T08:25:08Z</time>
      </trkpt>
      <trkpt lat="43.29111" lon="5.8625">
        <ele>335.4</ele>
        <time>2024-06-12T08:25:09Z</time>
      </trkpt>
      <trkpt lat="43.29111" lon="5.86253">
        <ele>335.4</ele>
        <time>2024-06-12T08:25:10Z</time>
      </trkpt>
      <trkpt lat="43.29111" lon="5.86256">
        <ele>335.4</ele>
        <time>2024-06-12T08:25:11Z</time>
      </trkpt>
      <trkpt lat="43.29112" lon="5.86259">
        <ele>335.6</ele>
        <time>2024-06-12T08:25:12Z</time>
      </trkpt>
      <trkpt lat="43.29114" lon="5.86262">
        <ele>335.8</ele>
        <time>2024-06-12T08:25:13Z</time>
      </trkpt>
      <trkpt lat="43.29115" lon="5.86263">
        <ele>335.8</ele>
        <time>2024-06-12T08:25:14Z</time>
      </trkpt>
      <trkpt lat="43.29117" lon="5.86267">
        <ele>335.8</ele>
        <time>2024-06-12T08:25:15Z</time>
      </trkpt>
      <trkpt lat="43.29118" lon="5.86269">
        <ele>336</ele>
        <time>2024-06-12T08:25:16Z</time>
      </trkpt>
      <trkpt lat="43.2912" lon="5.86272">
        <ele>336.2</ele>
        <time>2024-06-12T08:25:17Z</time>
      </trkpt>
      <trkpt lat="43.29121" lon="5.86273">
        <ele>336.2</ele>
        <time>2024-06-12T08:25:18Z</time>
      </trkpt>
      <trkpt lat="43.29123" lon="5.86277">
        <ele>336.2</ele>
        <time>2024-06-12T08:25:19Z</time>
      </trkpt>
      <trkpt lat="43.29124" lon="5.86278">
        <ele>336.2</ele>
        <time>2024-06-12T08:25:20Z</time>
      </trkpt>
      <trkpt lat="43.29125" lon="5.86281">
        <ele>336</ele>
        <time>2024-06-12T08:25:21Z</time>
      </trkpt>
      <trkpt lat="43.29125" lon="5.86284">
        <ele>336</ele>
        <time>2024-06-12T08:25:22Z</time>
      </trkpt>
      <trkpt lat="43.29125" lon="5.86287">
        <ele>336</ele>
        <time>2024-06-12T08:25:23Z</time>
      </trkpt>
      <trkpt lat="43.29126" lon="5.86288">
        <ele>336</ele>
        <time>2024-06-12T08:25:24Z</time>
      </trkpt>
      <trkpt lat="43.29125" lon="5.8629">
        <ele>336</ele>
        <time>2024-06-12T08:25:25Z</time>
      </trkpt>
      <trkpt lat="43.29125" lon="5.86291">
        <ele>336</ele>
        <time>2024-06-12T08:25:26Z</time>
      </trkpt>
      <trkpt lat="43.29125" lon="5.86291">
        <ele>335.8</ele>
        <time>2024-06-12T08:25:27Z</time>
      </trkpt>
      <trkpt lat="43.29125" lon="5.86291">
        <ele>335.8</ele>
        <time>2024-06-12T08:25:28Z</time>
      </trkpt>
      <trkpt lat="43.29123" lon="5.86301">
        <ele>333</ele>
        <time>2024-06-12T08:27:50Z</time>
      </trkpt>
      <trkpt lat="43.29123" lon="5.86302">
        <ele>333</ele>
        <time>2024-06-12T08:27:51Z</time>
      </trkpt>
      <trkpt lat="43.29123" lon="5.86303">
        <ele>333</ele>
        <time>2024-06-12T08:27:52Z</time>
      </trkpt>
      <trkpt lat="43.29123" lon="5.86304">
        <ele>333.4</ele>
        <time>2024-06-12T08:27:53Z</time>
      </trkpt>
      <trkpt lat="43.29123" lon="5.86304">
        <ele>333.4</ele>
        <time>2024-06-12T08:27:54Z</time>
      </trkpt>
      <trkpt lat="43.29122" lon="5.86304">
        <ele>333.4</ele>
        <time>2024-06-12T08:27:55Z</time>
      </trkpt>
      <trkpt lat="43.29122" lon="5.86305">
        <ele>333.4</ele>
        <time>2024-06-12T08:27:56Z</time>
      </trkpt>
      <trkpt lat="43.29122" lon="5.86306">
        <ele>333.4</ele>
        <time>2024-06-12T08:27:57Z</time>
      </trkpt>
      <trkpt lat="43.29122" lon="5.86307">
        <ele>333.6</ele>
        <time>2024-06-12T08:27:58Z</time>
      </trkpt>
      <trkpt lat="43.29123" lon="5.86307">
        <ele>333.6</ele>
        <time>2024-06-12T08:27:59Z</time>
      </trkpt>
      <trkpt lat="43.29125" lon="5.86309">
        <ele>333.6</ele>
        <time>2024-06-12T08:28:00Z</time>
      </trkpt>
      <trkpt lat="43.29126" lon="5.86311">
        <ele>333.6</ele>
        <time>2024-06-12T08:28:01Z</time>
      </trkpt>
      <trkpt lat="43.29127" lon="5.86312">
        <ele>333.6</ele>
        <time>2024-06-12T08:28:02Z</time>
      </trkpt>
      <trkpt lat="43.29127" lon="5.86314">
        <ele>333.8</ele>
        <time>2024-06-12T08:28:03Z</time>
      </trkpt>
      <trkpt lat="43.29128" lon="5.86316">
        <ele>333.8</ele>
        <time>2024-06-12T08:28:04Z</time>
      </trkpt>
      <trkpt lat="43.29129" lon="5.86317">
        <ele>333.8</ele>
        <time>2024-06-12T08:28:05Z</time>
      </trkpt>
      <trkpt lat="43.29129" lon="5.86318">
        <ele>334</ele>
        <time>2024-06-12T08:28:06Z</time>
      </trkpt>
      <trkpt lat="43.2913" lon="5.8632">
        <ele>334.4</ele>
        <time>2024-06-12T08:28:07Z</time>
      </trkpt>
      <trkpt lat="43.2913" lon="5.86321">
        <ele>334.4</ele>
        <time>2024-06-12T08:28:08Z</time>
      </trkpt>
      <trkpt lat="43.2913" lon="5.86323">
        <ele>334.4</ele>
        <time>2024-06-12T08:28:09Z</time>
      </trkpt>
      <trkpt lat="43.29129" lon="5.86325">
        <ele>334.8</ele>
        <time>2024-06-12T08:28:10Z</time>
      </trkpt>
      <trkpt lat="43.2913" lon="5.86325">
        <ele>334.8</ele>
        <time>2024-06-12T08:28:11Z</time>
      </trkpt>
      <trkpt lat="43.2913" lon="5.86326">
        <ele>334.8</ele>
        <time>2024-06-12T08:28:12Z</time>
      </trkpt>
      <trkpt lat="43.2913" lon="5.86328">
        <ele>334.8</ele>
        <time>2024-06-12T08:28:13Z</time>
      </trkpt>
      <trkpt lat="43.2913" lon="5.8633">
        <ele>334.8</ele>
        <time>2024-06-12T08:28:14Z</time>
      </trkpt>
      <trkpt lat="43.2913" lon="5.86331">
        <ele>335.2</ele>
        <time>2024-06-12T08:28:15Z</time>
      </trkpt>
      <trkpt lat="43.2913" lon="5.86333">
        <ele>335.2</ele>
        <time>2024-06-12T08:28:16Z</time>
      </trkpt>
      <trkpt lat="43.2913" lon="5.86335">
        <ele>335.2</ele>
        <time>2024-06-12T08:28:17Z</time>
      </trkpt>
      <trkpt lat="43.2913" lon="5.86336">
        <ele>335.2</ele>
        <time>2024-06-12T08:28:18Z</time>
      </trkpt>
      <trkpt lat="43.29131" lon="5.86337">
        <ele>335.2</ele>
        <time>2024-06-12T08:28:19Z</time>
      </trkpt>
      <trkpt lat="43.29131" lon="5.86339">
        <ele>335.2</ele>
        <time>2024-06-12T08:28:20Z</time>
      </trkpt>
      <trkpt lat="43.29132" lon="5.8634">
        <ele>335.2</ele>
        <time>2024-06-12T08:28:21Z</time>
      </trkpt>
      <trkpt lat="43.29132" lon="5.86342">
        <ele>335.2</ele>
        <time>2024-06-12T08:28:22Z</time>
      </trkpt>
      <trkpt lat="43.29133" lon="5.86343">
        <ele>335.2</ele>
        <time>2024-06-12T08:28:23Z</time>
      </trkpt>
      <trkpt lat="43.29134" lon="5.86344">
        <ele>334.8</ele>
        <time>2024-06-12T08:28:24Z</time>
      </trkpt>
      <trkpt lat="43.29134" lon="5.86345">
        <ele>335</ele>
        <time>2024-06-12T08:28:25Z</time>
      </trkpt>
      <trkpt lat="43.29135" lon="5.86345">
        <ele>335</ele>
        <time>2024-06-12T08:28:26Z</time>
      </trkpt>
      <trkpt lat="43.29136" lon="5.86346">
        <ele>335</ele>
        <time>2024-06-12T08:28:27Z</time>
      </trkpt>
      <trkpt lat="43.29137" lon="5.86345">
        <ele>335</ele>
        <time>2024-06-12T08:28:28Z</time>
      </trkpt>
      <trkpt lat="43.29137" lon="5.86345">
        <ele>334.8</ele>
        <time>2024-06-12T08:28:29Z</time>
      </trkpt>
      <trkpt lat="43.29137" lon="5.86345">
        <ele>334.8</ele>
        <time>2024-06-12T08:28:30Z</time>
      </trkpt>
      <trkpt lat="43.29128" lon="5.86334">
        <ele>337.8</ele>
        <time>2024-06-12T09:02:05Z</time>
      </trkpt>
      <trkpt lat="43.29128" lon="5.86336">
        <ele>337.6</ele>
        <time>2024-06-12T09:02:06Z</time>
      </trkpt>
      <trkpt lat="43.29128" lon="5.86337">
        <ele>337.6</ele>
        <time>2024-06-12T09:02:07Z</time>
      </trkpt>
      <trkpt lat="43.29127" lon="5.86338">
        <ele>337.6</ele>
        <time>2024-06-12T09:02:08Z</time>
      </trkpt>
      <trkpt lat="43.29127" lon="5.8634">
        <ele>337.4</ele>
        <time>2024-06-12T09:02:09Z</time>
      </trkpt>
      <trkpt lat="43.29127" lon="5.86341">
        <ele>337.4</ele>
        <time>2024-06-12T09:02:10Z</time>
      </trkpt>
      <trkpt lat="43.29127" lon="5.86343">
        <ele>337.4</ele>
        <time>2024-06-12T09:02:11Z</time>
      </trkpt>
      <trkpt lat="43.29127" lon="5.86344">
        <ele>337.4</ele>
        <time>2024-06-12T09:02:12Z</time>
      </trkpt>
      <trkpt lat="43.29127" lon="5.86346">
        <ele>337.4</ele>
        <time>2024-06-12T09:02:13Z</time>
      </trkpt>
      <trkpt lat="43.29127" lon="5.86348">
        <ele>337</ele>
        <time>2024-06-12T09:02:14Z</time>
      </trkpt>
      <trkpt lat="43.29126" lon="5.86349">
        <ele>336.8</ele>
        <time>2024-06-12T09:02:15Z</time>
      </trkpt>
      <trkpt lat="43.29126" lon="5.86351">
        <ele>336.8</ele>
        <time>2024-06-12T09:02:16Z</time>
      </trkpt>
      <trkpt lat="43.29126" lon="5.86353">
        <ele>336.8</ele>
        <time>2024-06-12T09:02:17Z</time>
      </trkpt>
      <trkpt lat="43.29127" lon="5.86353">
        <ele>336.2</ele>
        <time>2024-06-12T09:02:18Z</time>
      </trkpt>
      <trkpt lat="43.29127" lon="5.86353">
        <ele>336</ele>
        <time>2024-06-12T09:02:19Z</time>
      </trkpt>
      <trkpt lat="43.29127" lon="5.86353">
        <ele>336</ele>
        <time>2024-06-12T09:02:20Z</time>
      </trkpt>
      <trkpt lat="43.29122" lon="5.86354">
        <ele>332.8</ele>
        <time>2024-06-12T09:02:37Z</time>
      </trkpt>
      <trkpt lat="43.29122" lon="5.86351">
        <ele>332.8</ele>
        <time>2024-06-12T09:02:38Z</time>
      </trkpt>
      <trkpt lat="43.29121" lon="5.86349">
        <ele>332.8</ele>
        <time>2024-06-12T09:02:39Z</time>
      </trkpt>
      <trkpt lat="43.29121" lon="5.86347">
        <ele>332.6</ele>
        <time>2024-06-12T09:02:40Z</time>
      </trkpt>
      <trkpt lat="43.2912" lon="5.86346">
        <ele>332.6</ele>
        <time>2024-06-12T09:02:41Z</time>
      </trkpt>
      <trkpt lat="43.29116" lon="5.86341">
        <ele>332.6</ele>
        <time>2024-06-12T09:02:42Z</time>
      </trkpt>
      <trkpt lat="43.29115" lon="5.86339">
        <ele>332.6</ele>
        <time>2024-06-12T09:02:43Z</time>
      </trkpt>
      <trkpt lat="43.29113" lon="5.86337">
        <ele>332.4</ele>
        <time>2024-06-12T09:02:44Z</time>
      </trkpt>
      <trkpt lat="43.29112" lon="5.86336">
        <ele>332.4</ele>
        <time>2024-06-12T09:02:45Z</time>
      </trkpt>
      <trkpt lat="43.2911" lon="5.86336">
        <ele>332.4</ele>
        <time>2024-06-12T09:02:46Z</time>
      </trkpt>
      <trkpt lat="43.2911" lon="5.86337">
        <ele>332.4</ele>
        <time>2024-06-12T09:02:47Z</time>
      </trkpt>
      <trkpt lat="43.29109" lon="5.86341">
        <ele>332.4</ele>
        <time>2024-06-12T09:02:48Z</time>
      </trkpt>
      <trkpt lat="43.29108" lon="5.86343">
        <ele>332.6</ele>
        <time>2024-06-12T09:02:49Z</time>
      </trkpt>
      <trkpt lat="43.29105" lon="5.86346">
        <ele>332.6</ele>
        <time>2024-06-12T09:02:50Z</time>
      </trkpt>
      <trkpt lat="43.29104" lon="5.86347">
        <ele>332.6</ele>
        <time>2024-06-12T09:02:51Z</time>
      </trkpt>
      <trkpt lat="43.291" lon="5.86351">
        <ele>332.6</ele>
        <time>2024-06-12T09:02:52Z</time>
      </trkpt>
      <trkpt lat="43.29099" lon="5.86353">
        <ele>332.6</ele>
        <time>2024-06-12T09:02:53Z</time>
      </trkpt>
      <trkpt lat="43.29097" lon="5.86358">
        <ele>332.8</ele>
        <time>2024-06-12T09:02:54Z</time>
      </trkpt>
      <trkpt lat="43.29096" lon="5.8636">
        <ele>332.8</ele>
        <time>2024-06-12T09:02:55Z</time>
      </trkpt>
      <trkpt lat="43.29096" lon="5.86364">
        <ele>332.8</ele>
        <time>2024-06-12T09:02:56Z</time>
      </trkpt>
      <trkpt lat="43.29094" lon="5.86369">
        <ele>332.8</ele>
        <time>2024-06-12T09:02:57Z</time>
      </trkpt>
      <trkpt lat="43.29094" lon="5.8637">
        <ele>332.8</ele>
        <time>2024-06-12T09:02:58Z</time>
      </trkpt>
      <trkpt lat="43.29092" lon="5.86374">
        <ele>332.6</ele>
        <time>2024-06-12T09:02:59Z</time>
      </trkpt>
      <trkpt lat="43.29091" lon="5.86375">
        <ele>332.6</ele>
        <time>2024-06-12T09:03:00Z</time>
      </trkpt>
      <trkpt lat="43.2909" lon="5.86376">
        <ele>332.6</ele>
        <time>2024-06-12T09:03:01Z</time>
      </trkpt>
      <trkpt lat="43.29089" lon="5.86377">
        <ele>332.6</ele>
        <time>2024-06-12T09:03:02Z</time>
      </trkpt>
      <trkpt lat="43.29086" lon="5.86377">
        <ele>332.6</ele>
        <time>2024-06-12T09:03:03Z</time>
      </trkpt>
      <trkpt lat="43.29085" lon="5.86377">
        <ele>332.6</ele>
        <time>2024-06-12T09:03:04Z</time>
      </trkpt>
      <trkpt lat="43.29083" lon="5.86377">
        <ele>332.6</ele>
        <time>2024-06-12T09:03:05Z</time>
      </trkpt>
      <trkpt lat="43.29078" lon="5.86376">
        <ele>332.6</ele>
        <time>2024-06-12T09:03:06Z</time>
      </trkpt>
      <trkpt lat="43.29077" lon="5.86375">
        <ele>332.6</ele>
        <time>2024-06-12T09:03:07Z</time>
      </trkpt>
      <trkpt lat="43.29072" lon="5.86373">
        <ele>332.8</ele>
        <time>2024-06-12T09:03:08Z</time>
      </trkpt>
      <trkpt lat="43.29071" lon="5.86372">
        <ele>332.8</ele>
        <time>2024-06-12T09:03:09Z</time>
      </trkpt>
      <trkpt lat="43.29066" lon="5.86369">
        <ele>332.8</ele>
        <time>2024-06-12T09:03:10Z</time>
      </trkpt>
      <trkpt lat="43.29065" lon="5.86368">
        <ele>332.8</ele>
        <time>2024-06-12T09:03:11Z</time>
      </trkpt>
      <trkpt lat="43.29062" lon="5.86366">
        <ele>333.2</ele>
        <time>2024-06-12T09:03:12Z</time>
      </trkpt>
      <trkpt lat="43.29057" lon="5.86366">
        <ele>333.2</ele>
        <time>2024-06-12T09:03:13Z</time>
      </trkpt>
      <trkpt lat="43.29055" lon="5.86366">
        <ele>333.2</ele>
        <time>2024-06-12T09:03:14Z</time>
      </trkpt>
      <trkpt lat="43.29052" lon="5.86365">
        <ele>333.2</ele>
        <time>2024-06-12T09:03:15Z</time>
      </trkpt>
      <trkpt lat="43.29046" lon="5.86363">
        <ele>332.8</ele>
        <time>2024-06-12T09:03:16Z</time>
      </trkpt>
      <trkpt lat="43.29045" lon="5.86363">
        <ele>332.4</ele>
        <time>2024-06-12T09:03:17Z</time>
      </trkpt>
      <trkpt lat="43.29041" lon="5.8636">
        <ele>332.4</ele>
        <time>2024-06-12T09:03:18Z</time>
      </trkpt>
      <trkpt lat="43.2904" lon="5.86359">
        <ele>332.4</ele>
        <time>2024-06-12T09:03:19Z</time>
      </trkpt>
      <trkpt lat="43.29039" lon="5.86358">
        <ele>332</ele>
        <time>2024-06-12T09:03:20Z</time>
      </trkpt>
      <trkpt lat="43.29037" lon="5.86356">
        <ele>331.8</ele>
        <time>2024-06-12T09:03:21Z</time>
      </trkpt>
      <trkpt lat="43.29035" lon="5.86354">
        <ele>331.8</ele>
        <time>2024-06-12T09:03:22Z</time>
      </trkpt>
      <trkpt lat="43.29034" lon="5.86352">
        <ele>331.8</ele>
        <time>2024-06-12T09:03:23Z</time>
      </trkpt>
      <trkpt lat="43.29033" lon="5.86348">
        <ele>331.8</ele>
        <time>2024-06-12T09:03:24Z</time>
      </trkpt>
      <trkpt lat="43.29031" lon="5.86342">
        <ele>331.8</ele>
        <time>2024-06-12T09:03:25Z</time>
      </trkpt>
      <trkpt lat="43.29031" lon="5.8634">
        <ele>331.6</ele>
        <time>2024-06-12T09:03:26Z</time>
      </trkpt>
      <trkpt lat="43.2903" lon="5.86332">
        <ele>331.6</ele>
        <time>2024-06-12T09:03:27Z</time>
      </trkpt>
      <trkpt lat="43.2903" lon="5.8633">
        <ele>331.6</ele>
        <time>2024-06-12T09:03:28Z</time>
      </trkpt>
      <trkpt lat="43.29029" lon="5.8632">
        <ele>331.4</ele>
        <time>2024-06-12T09:03:29Z</time>
      </trkpt>
      <trkpt lat="43.29029" lon="5.86317">
        <ele>331.2</ele>
        <time>2024-06-12T09:03:30Z</time>
      </trkpt>
      <trkpt lat="43.29028" lon="5.86307">
        <ele>331.2</ele>
        <time>2024-06-12T09:03:31Z</time>
      </trkpt>
      <trkpt lat="43.29028" lon="5.86303">
        <ele>331.2</ele>
        <time>2024-06-12T09:03:32Z</time>
      </trkpt>
      <trkpt lat="43.29027" lon="5.86292">
        <ele>331.2</ele>
        <time>2024-06-12T09:03:33Z</time>
      </trkpt>
      <trkpt lat="43.29026" lon="5.86289">
        <ele>331.4</ele>
        <time>2024-06-12T09:03:34Z</time>
      </trkpt>
      <trkpt lat="43.29026" lon="5.86281">
        <ele>331.4</ele>
        <time>2024-06-12T09:03:35Z</time>
      </trkpt>
      <trkpt lat="43.29025" lon="5.86274">
        <ele>331.4</ele>
        <time>2024-06-12T09:03:36Z</time>
      </trkpt>
      <trkpt lat="43.29024" lon="5.86264">
        <ele>331.4</ele>
        <time>2024-06-12T09:03:37Z</time>
      </trkpt>
      <trkpt lat="43.29024" lon="5.8626">
        <ele>331.4</ele>
        <time>2024-06-12T09:03:38Z</time>
      </trkpt>
      <trkpt lat="43.29023" lon="5.8625">
        <ele>331.2</ele>
        <time>2024-06-12T09:03:39Z</time>
      </trkpt>
      <trkpt lat="43.29023" lon="5.86247">
        <ele>331.2</ele>
        <time>2024-06-12T09:03:40Z</time>
      </trkpt>
      <trkpt lat="43.29022" lon="5.86237">
        <ele>331.2</ele>
        <time>2024-06-12T09:03:41Z</time>
      </trkpt>
      <trkpt lat="43.29022" lon="5.86234">
        <ele>331.2</ele>
        <time>2024-06-12T09:03:42Z</time>
      </trkpt>
      <trkpt lat="43.29022" lon="5.86224">
        <ele>331.4</ele>
        <time>2024-06-12T09:03:43Z</time>
      </trkpt>
      <trkpt lat="43.29022" lon="5.8622">
        <ele>331.2</ele>
        <time>2024-06-12T09:03:44Z</time>
      </trkpt>
      <trkpt lat="43.29022" lon="5.86211">
        <ele>331.2</ele>
        <time>2024-06-12T09:03:45Z</time>
      </trkpt>
      <trkpt lat="43.29022" lon="5.86208">
        <ele>331.2</ele>
        <time>2024-06-12T09:03:46Z</time>
      </trkpt>
      <trkpt lat="43.29021" lon="5.86198">
        <ele>331.4</ele>
        <time>2024-06-12T09:03:47Z</time>
      </trkpt>
      <trkpt lat="43.29021" lon="5.86195">
        <ele>331.8</ele>
        <time>2024-06-12T09:03:48Z</time>
      </trkpt>
      <trkpt lat="43.29021" lon="5.86189">
        <ele>331.8</ele>
        <time>2024-06-12T09:03:49Z</time>
      </trkpt>
      <trkpt lat="43.29021" lon="5.86179">
        <ele>331.8</ele>
        <time>2024-06-12T09:03:50Z</time>
      </trkpt>
      <trkpt lat="43.29021" lon="5.86176">
        <ele>331.8</ele>
        <time>2024-06-12T09:03:51Z</time>
      </trkpt>
      <trkpt lat="43.29021" lon="5.86167">
        <ele>331.8</ele>
        <time>2024-06-12T09:03:52Z</time>
      </trkpt>
      <trkpt lat="43.29021" lon="5.86164">
        <ele>332</ele>
        <time>2024-06-12T09:03:53Z</time>
      </trkpt>
      <trkpt lat="43.29021" lon="5.86157">
        <ele>332</ele>
        <time>2024-06-12T09:03:54Z</time>
      </trkpt>
      <trkpt lat="43.29021" lon="5.86149">
        <ele>332</ele>
        <time>2024-06-12T09:03:55Z</time>
      </trkpt>
      <trkpt lat="43.29021" lon="5.86146">
        <ele>332.2</ele>
        <time>2024-06-12T09:03:56Z</time>
      </trkpt>
      <trkpt lat="43.29021" lon="5.8614">
        <ele>332.2</ele>
        <time>2024-06-12T09:03:57Z</time>
      </trkpt>
      <trkpt lat="43.29021" lon="5.86132">
        <ele>332.2</ele>
        <time>2024-06-12T09:03:58Z</time>
      </trkpt>
      <trkpt lat="43.29021" lon="5.8613">
        <ele>332.2</ele>
        <time>2024-06-12T09:03:59Z</time>
      </trkpt>
      <trkpt lat="43.29021" lon="5.86122">
        <ele>332.4</ele>
        <time>2024-06-12T09:04:00Z</time>
      </trkpt>
      <trkpt lat="43.29021" lon="5.8612">
        <ele>332.4</ele>
        <time>2024-06-12T09:04:01Z</time>
      </trkpt>
      <trkpt lat="43.29021" lon="5.86115">
        <ele>332.4</ele>
        <time>2024-06-12T09:04:02Z</time>
      </trkpt>
      <trkpt lat="43.29022" lon="5.86109">
        <ele>332.4</ele>
        <time>2024-06-12T09:04:03Z</time>
      </trkpt>
      <trkpt lat="43.29022" lon="5.86107">
        <ele>332.4</ele>
        <time>2024-06-12T09:04:04Z</time>
      </trkpt>
      <trkpt lat="43.29022" lon="5.86104">
        <ele>332.4</ele>
        <time>2024-06-12T09:04:05Z</time>
      </trkpt>
      <trkpt lat="43.29022" lon="5.86101">
        <ele>332.4</ele>
        <time>2024-06-12T09:04:06Z</time>
      </trkpt>
      <trkpt lat="43.29022" lon="5.86098">
        <ele>332.4</ele>
        <time>2024-06-12T09:04:07Z</time>
      </trkpt>
      <trkpt lat="43.29021" lon="5.86093">
        <ele>332.4</ele>
        <time>2024-06-12T09:04:08Z</time>
      </trkpt>
      <trkpt lat="43.29022" lon="5.86091">
        <ele>332.4</ele>
        <time>2024-06-12T09:04:09Z</time>
      </trkpt>
      <trkpt lat="43.29021" lon="5.86087">
        <ele>332.4</ele>
        <time>2024-06-12T09:04:10Z</time>
      </trkpt>
      <trkpt lat="43.29021" lon="5.86086">
        <ele>332.4</ele>
        <time>2024-06-12T09:04:11Z</time>
      </trkpt>
      <trkpt lat="43.29022" lon="5.86083">
        <ele>332.4</ele>
        <time>2024-06-12T09:04:12Z</time>
      </trkpt>
      <trkpt lat="43.29022" lon="5.86079">
        <ele>332.8</ele>
        <time>2024-06-12T09:04:13Z</time>
      </trkpt>
      <trkpt lat="43.29023" lon="5.86075">
        <ele>333</ele>
        <time>2024-06-12T09:04:14Z</time>
      </trkpt>
      <trkpt lat="43.29023" lon="5.86071">
        <ele>333</ele>
        <time>2024-06-12T09:04:15Z</time>
      </trkpt>
      <trkpt lat="43.29023" lon="5.86064">
        <ele>333</ele>
        <time>2024-06-12T09:04:16Z</time>
      </trkpt>
      <trkpt lat="43.29024" lon="5.86062">
        <ele>333.6</ele>
        <time>2024-06-12T09:04:17Z</time>
      </trkpt>
      <trkpt lat="43.29024" lon="5.86057">
        <ele>333.6</ele>
        <time>2024-06-12T09:04:18Z</time>
      </trkpt>
      <trkpt lat="43.29024" lon="5.86055">
        <ele>333.6</ele>
        <time>2024-06-12T09:04:19Z</time>
      </trkpt>
      <trkpt lat="43.29024" lon="5.86049">
        <ele>333.6</ele>
        <time>2024-06-12T09:04:20Z</time>
      </trkpt>
      <trkpt lat="43.29025" lon="5.86048">
        <ele>333.6</ele>
        <time>2024-06-12T09:04:21Z</time>
      </trkpt>
      <trkpt lat="43.29025" lon="5.86044">
        <ele>333.6</ele>
        <time>2024-06-12T09:04:22Z</time>
      </trkpt>
      <trkpt lat="43.29025" lon="5.86038">
        <ele>334.2</ele>
        <time>2024-06-12T09:04:23Z</time>
      </trkpt>
      <trkpt lat="43.29026" lon="5.86036">
        <ele>334.4</ele>
        <time>2024-06-12T09:04:24Z</time>
      </trkpt>
      <trkpt lat="43.29025" lon="5.86031">
        <ele>334.4</ele>
        <time>2024-06-12T09:04:25Z</time>
      </trkpt>
      <trkpt lat="43.29026" lon="5.86029">
        <ele>334.4</ele>
        <time>2024-06-12T09:04:26Z</time>
      </trkpt>
      <trkpt lat="43.29026" lon="5.86024">
        <ele>335</ele>
        <time>2024-06-12T09:04:27Z</time>
      </trkpt>
      <trkpt lat="43.29026" lon="5.86022">
        <ele>335</ele>
        <time>2024-06-12T09:04:28Z</time>
      </trkpt>
      <trkpt lat="43.29026" lon="5.86017">
        <ele>335</ele>
        <time>2024-06-12T09:04:29Z</time>
      </trkpt>
      <trkpt lat="43.29027" lon="5.86015">
        <ele>335</ele>
        <time>2024-06-12T09:04:30Z</time>
      </trkpt>
      <trkpt lat="43.29027" lon="5.86012">
        <ele>335.4</ele>
        <time>2024-06-12T09:04:31Z</time>
      </trkpt>
      <trkpt lat="43.29028" lon="5.86007">
        <ele>335.4</ele>
        <time>2024-06-12T09:04:32Z</time>
      </trkpt>
      <trkpt lat="43.29029" lon="5.86005">
        <ele>335.4</ele>
        <time>2024-06-12T09:04:33Z</time>
      </trkpt>
      <trkpt lat="43.2903" lon="5.86001">
        <ele>335.4</ele>
        <time>2024-06-12T09:04:34Z</time>
      </trkpt>
      <trkpt lat="43.2903" lon="5.85999">
        <ele>335.4</ele>
        <time>2024-06-12T09:04:35Z</time>
      </trkpt>
      <trkpt lat="43.29032" lon="5.85994">
        <ele>336.2</ele>
        <time>2024-06-12T09:04:36Z</time>
      </trkpt>
      <trkpt lat="43.29032" lon="5.85993">
        <ele>336.4</ele>
        <time>2024-06-12T09:04:37Z</time>
      </trkpt>
      <trkpt lat="43.29033" lon="5.8599">
        <ele>336.4</ele>
        <time>2024-06-12T09:04:38Z</time>
      </trkpt>
      <trkpt lat="43.29034" lon="5.85986">
        <ele>336.4</ele>
        <time>2024-06-12T09:04:39Z</time>
      </trkpt>
      <trkpt lat="43.29034" lon="5.85985">
        <ele>336.8</ele>
        <time>2024-06-12T09:04:40Z</time>
      </trkpt>
      <trkpt lat="43.29035" lon="5.85981">
        <ele>337</ele>
        <time>2024-06-12T09:04:41Z</time>
      </trkpt>
      <trkpt lat="43.29036" lon="5.85976">
        <ele>337</ele>
        <time>2024-06-12T09:04:42Z</time>
      </trkpt>
      <trkpt lat="43.29036" lon="5.85975">
        <ele>337</ele>
        <time>2024-06-12T09:04:43Z</time>
      </trkpt>
      <trkpt lat="43.29037" lon="5.8597">
        <ele>337.4</ele>
        <time>2024-06-12T09:04:44Z</time>
      </trkpt>
      <trkpt lat="43.29037" lon="5.85969">
        <ele>337.4</ele>
        <time>2024-06-12T09:04:45Z</time>
      </trkpt>
      <trkpt lat="43.29036" lon="5.85966">
        <ele>337.4</ele>
        <time>2024-06-12T09:04:46Z</time>
      </trkpt>
      <trkpt lat="43.29035" lon="5.85962">
        <ele>337.4</ele>
        <time>2024-06-12T09:04:47Z</time>
      </trkpt>
      <trkpt lat="43.29033" lon="5.85956">
        <ele>337.4</ele>
        <time>2024-06-12T09:04:48Z</time>
      </trkpt>
      <trkpt lat="43.29032" lon="5.85955">
        <ele>337</ele>
        <time>2024-06-12T09:04:49Z</time>
      </trkpt>
      <trkpt lat="43.29031" lon="5.85952">
        <ele>337</ele>
        <time>2024-06-12T09:04:50Z</time>
      </trkpt>
      <trkpt lat="43.2903" lon="5.85948">
        <ele>337</ele>
        <time>2024-06-12T09:04:51Z</time>
      </trkpt>
      <trkpt lat="43.2903" lon="5.85944">
        <ele>337</ele>
        <time>2024-06-12T09:04:52Z</time>
      </trkpt>
      <trkpt lat="43.29029" lon="5.8594">
        <ele>337.2</ele>
        <time>2024-06-12T09:04:53Z</time>
      </trkpt>
      <trkpt lat="43.29028" lon="5.85937">
        <ele>337.2</ele>
        <time>2024-06-12T09:04:54Z</time>
      </trkpt>
      <trkpt lat="43.29028" lon="5.85933">
        <ele>337.4</ele>
        <time>2024-06-12T09:04:55Z</time>
      </trkpt>
      <trkpt lat="43.29027" lon="5.85927">
        <ele>337.4</ele>
        <time>2024-06-12T09:04:56Z</time>
      </trkpt>
      <trkpt lat="43.29027" lon="5.85926">
        <ele>337.4</ele>
        <time>2024-06-12T09:04:57Z</time>
      </trkpt>
      <trkpt lat="43.29026" lon="5.85922">
        <ele>337.4</ele>
        <time>2024-06-12T09:04:58Z</time>
      </trkpt>
      <trkpt lat="43.29025" lon="5.85917">
        <ele>337.4</ele>
        <time>2024-06-12T09:04:59Z</time>
      </trkpt>
      <trkpt lat="43.29024" lon="5.85916">
        <ele>337.4</ele>
        <time>2024-06-12T09:05:00Z</time>
      </trkpt>
      <trkpt lat="43.29023" lon="5.85911">
        <ele>337.4</ele>
        <time>2024-06-12T09:05:01Z</time>
      </trkpt>
      <trkpt lat="43.29023" lon="5.8591">
        <ele>337.4</ele>
        <time>2024-06-12T09:05:02Z</time>
      </trkpt>
      <trkpt lat="43.29022" lon="5.85905">
        <ele>337.4</ele>
        <time>2024-06-12T09:05:03Z</time>
      </trkpt>
      <trkpt lat="43.29021" lon="5.85903">
        <ele>337.6</ele>
        <time>2024-06-12T09:05:04Z</time>
      </trkpt>
      <trkpt lat="43.2902" lon="5.85899">
        <ele>337.6</ele>
        <time>2024-06-12T09:05:05Z</time>
      </trkpt>
      <trkpt lat="43.2902" lon="5.85897">
        <ele>337.6</ele>
        <time>2024-06-12T09:05:06Z</time>
      </trkpt>
      <trkpt lat="43.29019" lon="5.85892">
        <ele>337.6</ele>
        <time>2024-06-12T09:05:07Z</time>
      </trkpt>
      <trkpt lat="43.29018" lon="5.8589">
        <ele>338</ele>
        <time>2024-06-12T09:05:08Z</time>
      </trkpt>
      <trkpt lat="43.29018" lon="5.85886">
        <ele>338</ele>
        <time>2024-06-12T09:05:09Z</time>
      </trkpt>
      <trkpt lat="43.29017" lon="5.85884">
        <ele>338</ele>
        <time>2024-06-12T09:05:10Z</time>
      </trkpt>
      <trkpt lat="43.29016" lon="5.8588">
        <ele>338</ele>
        <time>2024-06-12T09:05:11Z</time>
      </trkpt>
      <trkpt lat="43.29016" lon="5.85879">
        <ele>338</ele>
        <time>2024-06-12T09:05:12Z</time>
      </trkpt>
      <trkpt lat="43.29015" lon="5.85875">
        <ele>338</ele>
        <time>2024-06-12T09:05:13Z</time>
      </trkpt>
      <trkpt lat="43.29013" lon="5.8587">
        <ele>338</ele>
        <time>2024-06-12T09:05:14Z</time>
      </trkpt>
      <trkpt lat="43.29013" lon="5.85869">
        <ele>338</ele>
        <time>2024-06-12T09:05:15Z</time>
      </trkpt>
      <trkpt lat="43.29012" lon="5.85864">
        <ele>338.2</ele>
        <time>2024-06-12T09:05:16Z</time>
      </trkpt>
      <trkpt lat="43.29011" lon="5.85863">
        <ele>338.4</ele>
        <time>2024-06-12T09:05:17Z</time>
      </trkpt>
      <trkpt lat="43.29011" lon="5.8586">
        <ele>338.4</ele>
        <time>2024-06-12T09:05:18Z</time>
      </trkpt>
      <trkpt lat="43.2901" lon="5.85856">
        <ele>338.4</ele>
        <time>2024-06-12T09:05:19Z</time>
      </trkpt>
      <trkpt lat="43.2901" lon="5.85854">
        <ele>338.4</ele>
        <time>2024-06-12T09:05:20Z</time>
      </trkpt>
      <trkpt lat="43.29009" lon="5.85852">
        <ele>338.8</ele>
        <time>2024-06-12T09:05:21Z</time>
      </trkpt>
      <trkpt lat="43.29009" lon="5.85849">
        <ele>338.8</ele>
        <time>2024-06-12T09:05:22Z</time>
      </trkpt>
      <trkpt lat="43.29008" lon="5.85846">
        <ele>338.8</ele>
        <time>2024-06-12T09:05:23Z</time>
      </trkpt>
      <trkpt lat="43.29007" lon="5.85841">
        <ele>338.8</ele>
        <time>2024-06-12T09:05:24Z</time>
      </trkpt>
      <trkpt lat="43.29006" lon="5.8584">
        <ele>339.4</ele>
        <time>2024-06-12T09:05:25Z</time>
      </trkpt>
      <trkpt lat="43.29005" lon="5.85836">
        <ele>339.6</ele>
        <time>2024-06-12T09:05:26Z</time>
      </trkpt>
      <trkpt lat="43.29005" lon="5.85834">
        <ele>339.6</ele>
        <time>2024-06-12T09:05:27Z</time>
      </trkpt>
      <trkpt lat="43.29004" lon="5.85829">
        <ele>339.6</ele>
        <time>2024-06-12T09:05:28Z</time>
      </trkpt>
      <trkpt lat="43.29004" lon="5.85828">
        <ele>340</ele>
        <time>2024-06-12T09:05:29Z</time>
      </trkpt>
      <trkpt lat="43.29003" lon="5.85823">
        <ele>340.2</ele>
        <time>2024-06-12T09:05:30Z</time>
      </trkpt>
      <trkpt lat="43.29003" lon="5.85821">
        <ele>340.2</ele>
        <time>2024-06-12T09:05:31Z</time>
      </trkpt>
      <trkpt lat="43.29002" lon="5.85818">
        <ele>340.2</ele>
        <time>2024-06-12T09:05:32Z</time>
      </trkpt>
      <trkpt lat="43.29001" lon="5.85813">
        <ele>340.2</ele>
        <time>2024-06-12T09:05:33Z</time>
      </trkpt>
      <trkpt lat="43.29001" lon="5.85812">
        <ele>340.2</ele>
        <time>2024-06-12T09:05:34Z</time>
      </trkpt>
      <trkpt lat="43.29001" lon="5.85809">
        <ele>340.8</ele>
        <time>2024-06-12T09:05:35Z</time>
      </trkpt>
      <trkpt lat="43.29" lon="5.85806">
        <ele>340.8</ele>
        <time>2024-06-12T09:05:36Z</time>
      </trkpt>
      <trkpt lat="43.29" lon="5.85803">
        <ele>340.8</ele>
        <time>2024-06-12T09:05:37Z</time>
      </trkpt>
      <trkpt lat="43.29" lon="5.85799">
        <ele>341.2</ele>
        <time>2024-06-12T09:05:38Z</time>
      </trkpt>
      <trkpt lat="43.28999" lon="5.85795">
        <ele>341.6</ele>
        <time>2024-06-12T09:05:39Z</time>
      </trkpt>
      <trkpt lat="43.28999" lon="5.85793">
        <ele>341.6</ele>
        <time>2024-06-12T09:05:40Z</time>
      </trkpt>
      <trkpt lat="43.28998" lon="5.85788">
        <ele>341.6</ele>
        <time>2024-06-12T09:05:41Z</time>
      </trkpt>
      <trkpt lat="43.28998" lon="5.85787">
        <ele>341.6</ele>
        <time>2024-06-12T09:05:42Z</time>
      </trkpt>
      <trkpt lat="43.28997" lon="5.85782">
        <ele>341.6</ele>
        <time>2024-06-12T09:05:43Z</time>
      </trkpt>
      <trkpt lat="43.28997" lon="5.85781">
        <ele>341.6</ele>
        <time>2024-06-12T09:05:44Z</time>
      </trkpt>
      <trkpt lat="43.28996" lon="5.85778">
        <ele>342</ele>
        <time>2024-06-12T09:05:45Z</time>
      </trkpt>
      <trkpt lat="43.28995" lon="5.85773">
        <ele>342</ele>
        <time>2024-06-12T09:05:46Z</time>
      </trkpt>
      <trkpt lat="43.28995" lon="5.85772">
        <ele>342</ele>
        <time>2024-06-12T09:05:47Z</time>
      </trkpt>
      <trkpt lat="43.28994" lon="5.85768">
        <ele>342.4</ele>
        <time>2024-06-12T09:05:48Z</time>
      </trkpt>
      <trkpt lat="43.28994" lon="5.85765">
        <ele>342.6</ele>
        <time>2024-06-12T09:05:49Z</time>
      </trkpt>
      <trkpt lat="43.28993" lon="5.85761">
        <ele>342.6</ele>
        <time>2024-06-12T09:05:50Z</time>
      </trkpt>
      <trkpt lat="43.28993" lon="5.85759">
        <ele>342.6</ele>
        <time>2024-06-12T09:05:51Z</time>
      </trkpt>
      <trkpt lat="43.28992" lon="5.85754">
        <ele>343.2</ele>
        <time>2024-06-12T09:05:52Z</time>
      </trkpt>
      <trkpt lat="43.28992" lon="5.85753">
        <ele>343.4</ele>
        <time>2024-06-12T09:05:53Z</time>
      </trkpt>
      <trkpt lat="43.28992" lon="5.85748">
        <ele>343.4</ele>
        <time>2024-06-12T09:05:54Z</time>
      </trkpt>
      <trkpt lat="43.28992" lon="5.85746">
        <ele>343.4</ele>
        <time>2024-06-12T09:05:55Z</time>
      </trkpt>
      <trkpt lat="43.28991" lon="5.85743">
        <ele>343.8</ele>
        <time>2024-06-12T09:05:56Z</time>
      </trkpt>
      <trkpt lat="43.28991" lon="5.85738">
        <ele>343.8</ele>
        <time>2024-06-12T09:05:57Z</time>
      </trkpt>
      <trkpt lat="43.28991" lon="5.85736">
        <ele>344.2</ele>
        <time>2024-06-12T09:05:58Z</time>
      </trkpt>
      <trkpt lat="43.28991" lon="5.85731">
        <ele>344.2</ele>
        <time>2024-06-12T09:05:59Z</time>
      </trkpt>
      <trkpt lat="43.28991" lon="5.8573">
        <ele>344.2</ele>
        <time>2024-06-12T09:06:00Z</time>
      </trkpt>
      <trkpt lat="43.2899" lon="5.85725">
        <ele>344.8</ele>
        <time>2024-06-12T09:06:01Z</time>
      </trkpt>
      <trkpt lat="43.2899" lon="5.85723">
        <ele>345</ele>
        <time>2024-06-12T09:06:02Z</time>
      </trkpt>
      <trkpt lat="43.2899" lon="5.8572">
        <ele>345</ele>
        <time>2024-06-12T09:06:03Z</time>
      </trkpt>
      <trkpt lat="43.2899" lon="5.85715">
        <ele>345</ele>
        <time>2024-06-12T09:06:04Z</time>
      </trkpt>
      <trkpt lat="43.2899" lon="5.85713">
        <ele>345</ele>
        <time>2024-06-12T09:06:05Z</time>
      </trkpt>
      <trkpt lat="43.2899" lon="5.8571">
        <ele>345.4</ele>
        <time>2024-06-12T09:06:06Z</time>
      </trkpt>
      <trkpt lat="43.2899" lon="5.85705">
        <ele>345.4</ele>
        <time>2024-06-12T09:06:07Z</time>
      </trkpt>
      <trkpt lat="43.2899" lon="5.85704">
        <ele>345.4</ele>
        <time>2024-06-12T09:06:08Z</time>
      </trkpt>
      <trkpt lat="43.2899" lon="5.85699">
        <ele>345.4</ele>
        <time>2024-06-12T09:06:09Z</time>
      </trkpt>
      <trkpt lat="43.2899" lon="5.85697">
        <ele>346</ele>
        <time>2024-06-12T09:06:10Z</time>
      </trkpt>
      <trkpt lat="43.2899" lon="5.85694">
        <ele>346.2</ele>
        <time>2024-06-12T09:06:11Z</time>
      </trkpt>
      <trkpt lat="43.2899" lon="5.85691">
        <ele>346.2</ele>
        <time>2024-06-12T09:06:12Z</time>
      </trkpt>
      <trkpt lat="43.2899" lon="5.85688">
        <ele>346.2</ele>
        <time>2024-06-12T09:06:13Z</time>
      </trkpt>
      <trkpt lat="43.2899" lon="5.85685">
        <ele>346.4</ele>
        <time>2024-06-12T09:06:14Z</time>
      </trkpt>
      <trkpt lat="43.2899" lon="5.85683">
        <ele>346.6</ele>
        <time>2024-06-12T09:06:15Z</time>
      </trkpt>
      <trkpt lat="43.2899" lon="5.8568">
        <ele>346.6</ele>
        <time>2024-06-12T09:06:16Z</time>
      </trkpt>
      <trkpt lat="43.28991" lon="5.85677">
        <ele>346.6</ele>
        <time>2024-06-12T09:06:17Z</time>
      </trkpt>
      <trkpt lat="43.28991" lon="5.85672">
        <ele>346.6</ele>
        <time>2024-06-12T09:06:18Z</time>
      </trkpt>
      <trkpt lat="43.28991" lon="5.85671">
        <ele>347.2</ele>
        <time>2024-06-12T09:06:19Z</time>
      </trkpt>
      <trkpt lat="43.28991" lon="5.85666">
        <ele>347.4</ele>
        <time>2024-06-12T09:06:20Z</time>
      </trkpt>
      <trkpt lat="43.28991" lon="5.85665">
        <ele>347.4</ele>
        <time>2024-06-12T09:06:21Z</time>
      </trkpt>
      <trkpt lat="43.2899" lon="5.85661">
        <ele>347.4</ele>
        <time>2024-06-12T09:06:22Z</time>
      </trkpt>
      <trkpt lat="43.2899" lon="5.85659">
        <ele>347.4</ele>
        <time>2024-06-12T09:06:23Z</time>
      </trkpt>
      <trkpt lat="43.28989" lon="5.85654">
        <ele>347.2</ele>
        <time>2024-06-12T09:06:24Z</time>
      </trkpt>
      <trkpt lat="43.28988" lon="5.85653">
        <ele>347.2</ele>
        <time>2024-06-12T09:06:25Z</time>
      </trkpt>
      <trkpt lat="43.28987" lon="5.85649">
        <ele>347.2</ele>
        <time>2024-06-12T09:06:26Z</time>
      </trkpt>
      <trkpt lat="43.28986" lon="5.85647">
        <ele>347.2</ele>
        <time>2024-06-12T09:06:27Z</time>
      </trkpt>
      <trkpt lat="43.28984" lon="5.85643">
        <ele>347.2</ele>
        <time>2024-06-12T09:06:28Z</time>
      </trkpt>
      <trkpt lat="43.28983" lon="5.85642">
        <ele>346.8</ele>
        <time>2024-06-12T09:06:29Z</time>
      </trkpt>
      <trkpt lat="43.28981" lon="5.85638">
        <ele>346.8</ele>
        <time>2024-06-12T09:06:30Z</time>
      </trkpt>
      <trkpt lat="43.28981" lon="5.85636">
        <ele>346.8</ele>
        <time>2024-06-12T09:06:31Z</time>
      </trkpt>
      <trkpt lat="43.28979" lon="5.85634">
        <ele>346.8</ele>
        <time>2024-06-12T09:06:32Z</time>
      </trkpt>
      <trkpt lat="43.28978" lon="5.85631">
        <ele>346.4</ele>
        <time>2024-06-12T09:06:33Z</time>
      </trkpt>
      <trkpt lat="43.28977" lon="5.85628">
        <ele>346.4</ele>
        <time>2024-06-12T09:06:34Z</time>
      </trkpt>
      <trkpt lat="43.28975" lon="5.85624">
        <ele>346.4</ele>
        <time>2024-06-12T09:06:35Z</time>
      </trkpt>
      <trkpt lat="43.28974" lon="5.85622">
        <ele>346.4</ele>
        <time>2024-06-12T09:06:36Z</time>
      </trkpt>
      <trkpt lat="43.28973" lon="5.8562">
        <ele>345.8</ele>
        <time>2024-06-12T09:06:37Z</time>
      </trkpt>
      <trkpt lat="43.28972" lon="5.85616">
        <ele>345.6</ele>
        <time>2024-06-12T09:06:38Z</time>
      </trkpt>
      <trkpt lat="43.28971" lon="5.85616">
        <ele>345.6</ele>
        <time>2024-06-12T09:06:39Z</time>
      </trkpt>
      <trkpt lat="43.2897" lon="5.85613">
        <ele>345.6</ele>
        <time>2024-06-12T09:06:40Z</time>
      </trkpt>
      <trkpt lat="43.28969" lon="5.85611">
        <ele>345</ele>
        <time>2024-06-12T09:06:41Z</time>
      </trkpt>
      <trkpt lat="43.28966" lon="5.85608">
        <ele>345</ele>
        <time>2024-06-12T09:06:42Z</time>
      </trkpt>
      <trkpt lat="43.28965" lon="5.85607">
        <ele>345</ele>
        <time>2024-06-12T09:06:43Z</time>
      </trkpt>
      <trkpt lat="43.28964" lon="5.85604">
        <ele>345</ele>
        <time>2024-06-12T09:06:44Z</time>
      </trkpt>
      <trkpt lat="43.28962" lon="5.856">
        <ele>345</ele>
        <time>2024-06-12T09:06:45Z</time>
      </trkpt>
      <trkpt lat="43.28961" lon="5.85599">
        <ele>345</ele>
        <time>2024-06-12T09:06:46Z</time>
      </trkpt>
      <trkpt lat="43.2896" lon="5.85596">
        <ele>344.6</ele>
        <time>2024-06-12T09:06:47Z</time>
      </trkpt>
      <trkpt lat="43.28958" lon="5.85592">
        <ele>344.6</ele>
        <time>2024-06-12T09:06:48Z</time>
      </trkpt>
      <trkpt lat="43.28957" lon="5.85591">
        <ele>344.6</ele>
        <time>2024-06-12T09:06:49Z</time>
      </trkpt>
      <trkpt lat="43.28955" lon="5.85587">
        <ele>344.6</ele>
        <time>2024-06-12T09:06:50Z</time>
      </trkpt>
      <trkpt lat="43.28955" lon="5.85586">
        <ele>344.4</ele>
        <time>2024-06-12T09:06:51Z</time>
      </trkpt>
      <trkpt lat="43.28953" lon="5.85581">
        <ele>344.4</ele>
        <time>2024-06-12T09:06:52Z</time>
      </trkpt>
      <trkpt lat="43.28953" lon="5.8558">
        <ele>344.4</ele>
        <time>2024-06-12T09:06:53Z</time>
      </trkpt>
      <trkpt lat="43.28951" lon="5.85577">
        <ele>344.4</ele>
        <time>2024-06-12T09:06:54Z</time>
      </trkpt>
      <trkpt lat="43.2895" lon="5.85575">
        <ele>344.4</ele>
        <time>2024-06-12T09:06:55Z</time>
      </trkpt>
      <trkpt lat="43.28949" lon="5.85572">
        <ele>344.6</ele>
        <time>2024-06-12T09:06:56Z</time>
      </trkpt>
      <trkpt lat="43.28948" lon="5.85569">
        <ele>344.6</ele>
        <time>2024-06-12T09:06:57Z</time>
      </trkpt>
      <trkpt lat="43.28947" lon="5.85567">
        <ele>344.6</ele>
        <time>2024-06-12T09:06:58Z</time>
      </trkpt>
      <trkpt lat="43.28945" lon="5.85563">
        <ele>344.8</ele>
        <time>2024-06-12T09:06:59Z</time>
      </trkpt>
      <trkpt lat="43.28945" lon="5.85562">
        <ele>344.8</ele>
        <time>2024-06-12T09:07:00Z</time>
      </trkpt>
      <trkpt lat="43.28943" lon="5.85559">
        <ele>344.8</ele>
        <time>2024-06-12T09:07:01Z</time>
      </trkpt>
      <trkpt lat="43.28942" lon="5.85558">
        <ele>344.8</ele>
        <time>2024-06-12T09:07:02Z</time>
      </trkpt>
      <trkpt lat="43.2894" lon="5.85554">
        <ele>344.6</ele>
        <time>2024-06-12T09:07:03Z</time>
      </trkpt>
      <trkpt lat="43.2894" lon="5.85552">
        <ele>344.6</ele>
        <time>2024-06-12T09:07:04Z</time>
      </trkpt>
      <trkpt lat="43.28937" lon="5.85548">
        <ele>344.8</ele>
        <time>2024-06-12T09:07:05Z</time>
      </trkpt>
      <trkpt lat="43.28937" lon="5.85547">
        <ele>344.8</ele>
        <time>2024-06-12T09:07:06Z</time>
      </trkpt>
      <trkpt lat="43.28934" lon="5.85544">
        <ele>344.8</ele>
        <time>2024-06-12T09:07:07Z</time>
      </trkpt>
      <trkpt lat="43.28934" lon="5.85542">
        <ele>344.8</ele>
        <time>2024-06-12T09:07:08Z</time>
      </trkpt>
      <trkpt lat="43.28932" lon="5.85539">
        <ele>345</ele>
        <time>2024-06-12T09:07:09Z</time>
      </trkpt>
      <trkpt lat="43.28931" lon="5.85538">
        <ele>345</ele>
        <time>2024-06-12T09:07:10Z</time>
      </trkpt>
      <trkpt lat="43.28928" lon="5.85534">
        <ele>345</ele>
        <time>2024-06-12T09:07:11Z</time>
      </trkpt>
      <trkpt lat="43.28928" lon="5.85533">
        <ele>345</ele>
        <time>2024-06-12T09:07:12Z</time>
      </trkpt>
      <trkpt lat="43.28926" lon="5.85531">
        <ele>345</ele>
        <time>2024-06-12T09:07:13Z</time>
      </trkpt>
      <trkpt lat="43.28925" lon="5.85528">
        <ele>345</ele>
        <time>2024-06-12T09:07:14Z</time>
      </trkpt>
      <trkpt lat="43.28923" lon="5.85526">
        <ele>345</ele>
        <time>2024-06-12T09:07:15Z</time>
      </trkpt>
      <trkpt lat="43.2892" lon="5.85522">
        <ele>345</ele>
        <time>2024-06-12T09:07:16Z</time>
      </trkpt>
      <trkpt lat="43.2892" lon="5.85521">
        <ele>345</ele>
        <time>2024-06-12T09:07:17Z</time>
      </trkpt>
      <trkpt lat="43.28917" lon="5.85518">
        <ele>345.2</ele>
        <time>2024-06-12T09:07:18Z</time>
      </trkpt>
      <trkpt lat="43.28916" lon="5.85517">
        <ele>345.4</ele>
        <time>2024-06-12T09:07:19Z</time>
      </trkpt>
      <trkpt lat="43.28915" lon="5.85515">
        <ele>345.4</ele>
        <time>2024-06-12T09:07:20Z</time>
      </trkpt>
      <trkpt lat="43.28913" lon="5.8551">
        <ele>345.4</ele>
        <time>2024-06-12T09:07:21Z</time>
      </trkpt>
      <trkpt lat="43.28912" lon="5.85509">
        <ele>345.6</ele>
        <time>2024-06-12T09:07:22Z</time>
      </trkpt>
      <trkpt lat="43.28909" lon="5.85505">
        <ele>345.6</ele>
        <time>2024-06-12T09:07:23Z</time>
      </trkpt>
      <trkpt lat="43.28908" lon="5.85505">
        <ele>345.6</ele>
        <time>2024-06-12T09:07:24Z</time>
      </trkpt>
      <trkpt lat="43.28906" lon="5.85502">
        <ele>345.6</ele>
        <time>2024-06-12T09:07:25Z</time>
      </trkpt>
      <trkpt lat="43.28905" lon="5.85501">
        <ele>346.2</ele>
        <time>2024-06-12T09:07:26Z</time>
      </trkpt>
      <trkpt lat="43.28904" lon="5.85498">
        <ele>346.4</ele>
        <time>2024-06-12T09:07:27Z</time>
      </trkpt>
      <trkpt lat="43.28902" lon="5.85495">
        <ele>346.4</ele>
        <time>2024-06-12T09:07:28Z</time>
      </trkpt>
      <trkpt lat="43.28901" lon="5.85494">
        <ele>346.4</ele>
        <time>2024-06-12T09:07:29Z</time>
      </trkpt>
      <trkpt lat="43.289" lon="5.85492">
        <ele>346.4</ele>
        <time>2024-06-12T09:07:30Z</time>
      </trkpt>
      <trkpt lat="43.28898" lon="5.85489">
        <ele>346.8</ele>
        <time>2024-06-12T09:07:31Z</time>
      </trkpt>
      <trkpt lat="43.28897" lon="5.85488">
        <ele>347</ele>
        <time>2024-06-12T09:07:32Z</time>
      </trkpt>
      <trkpt lat="43.28895" lon="5.85485">
        <ele>347</ele>
        <time>2024-06-12T09:07:33Z</time>
      </trkpt>
      <trkpt lat="43.28895" lon="5.85484">
        <ele>347</ele>
        <time>2024-06-12T09:07:34Z</time>
      </trkpt>
      <trkpt lat="43.28893" lon="5.85482">
        <ele>347.4</ele>
        <time>2024-06-12T09:07:35Z</time>
      </trkpt>
      <trkpt lat="43.28892" lon="5.8548">
        <ele>347.6</ele>
        <time>2024-06-12T09:07:36Z</time>
      </trkpt>
      <trkpt lat="43.2889" lon="5.85477">
        <ele>347.6</ele>
        <time>2024-06-12T09:07:37Z</time>
      </trkpt>
      <trkpt lat="43.28889" lon="5.85475">
        <ele>347.6</ele>
        <time>2024-06-12T09:07:38Z</time>
      </trkpt>
      <trkpt lat="43.28887" lon="5.85473">
        <ele>348.2</ele>
        <time>2024-06-12T09:07:39Z</time>
      </trkpt>
      <trkpt lat="43.28885" lon="5.85469">
        <ele>348.2</ele>
        <time>2024-06-12T09:07:40Z</time>
      </trkpt>
      <trkpt lat="43.28884" lon="5.85468">
        <ele>348.2</ele>
        <time>2024-06-12T09:07:41Z</time>
      </trkpt>
      <trkpt lat="43.28882" lon="5.85464">
        <ele>348.2</ele>
        <time>2024-06-12T09:07:42Z</time>
      </trkpt>
      <trkpt lat="43.28881" lon="5.85463">
        <ele>348.2</ele>
        <time>2024-06-12T09:07:43Z</time>
      </trkpt>
      <trkpt lat="43.28879" lon="5.8546">
        <ele>348.8</ele>
        <time>2024-06-12T09:07:44Z</time>
      </trkpt>
      <trkpt lat="43.28878" lon="5.85459">
        <ele>349.2</ele>
        <time>2024-06-12T09:07:45Z</time>
      </trkpt>
      <trkpt lat="43.28876" lon="5.85456">
        <ele>349.2</ele>
        <time>2024-06-12T09:07:46Z</time>
      </trkpt>
      <trkpt lat="43.28875" lon="5.85454">
        <ele>349.2</ele>
        <time>2024-06-12T09:07:47Z</time>
      </trkpt>
      <trkpt lat="43.28873" lon="5.85451">
        <ele>350</ele>
        <time>2024-06-12T09:07:48Z</time>
      </trkpt>
      <trkpt lat="43.28872" lon="5.8545">
        <ele>350.2</ele>
        <time>2024-06-12T09:07:49Z</time>
      </trkpt>
      <trkpt lat="43.28871" lon="5.85446">
        <ele>350.2</ele>
        <time>2024-06-12T09:07:50Z</time>
      </trkpt>
      <trkpt lat="43.2887" lon="5.85445">
        <ele>350.2</ele>
        <time>2024-06-12T09:07:51Z</time>
      </trkpt>
      <trkpt lat="43.28869" lon="5.8544">
        <ele>350.2</ele>
        <time>2024-06-12T09:07:52Z</time>
      </trkpt>
      <trkpt lat="43.28868" lon="5.85439">
        <ele>350.2</ele>
        <time>2024-06-12T09:07:53Z</time>
      </trkpt>
      <trkpt lat="43.28867" lon="5.85434">
        <ele>351.4</ele>
        <time>2024-06-12T09:07:54Z</time>
      </trkpt>
      <trkpt lat="43.28867" lon="5.85433">
        <ele>351.4</ele>
        <time>2024-06-12T09:07:55Z</time>
      </trkpt>
      <trkpt lat="43.28865" lon="5.85428">
        <ele>351.4</ele>
        <time>2024-06-12T09:07:56Z</time>
      </trkpt>
      <trkpt lat="43.28865" lon="5.85427">
        <ele>351.4</ele>
        <time>2024-06-12T09:07:57Z</time>
      </trkpt>
      <trkpt lat="43.28864" lon="5.85424">
        <ele>352.2</ele>
        <time>2024-06-12T09:07:58Z</time>
      </trkpt>
      <trkpt lat="43.28863" lon="5.85421">
        <ele>352.6</ele>
        <time>2024-06-12T09:07:59Z</time>
      </trkpt>
      <trkpt lat="43.28862" lon="5.85418">
        <ele>352.6</ele>
        <time>2024-06-12T09:08:00Z</time>
      </trkpt>
      <trkpt lat="43.28862" lon="5.85415">
        <ele>352.6</ele>
        <time>2024-06-12T09:08:01Z</time>
      </trkpt>
      <trkpt lat="43.28861" lon="5.85412">
        <ele>353.6</ele>
        <time>2024-06-12T09:08:02Z</time>
      </trkpt>
      <trkpt lat="43.28861" lon="5.85408">
        <ele>354</ele>
        <time>2024-06-12T09:08:03Z</time>
      </trkpt>
      <trkpt lat="43.2886" lon="5.85407">
        <ele>354</ele>
        <time>2024-06-12T09:08:04Z</time>
      </trkpt>
      <trkpt lat="43.2886" lon="5.85404">
        <ele>354</ele>
        <time>2024-06-12T09:08:05Z</time>
      </trkpt>
      <trkpt lat="43.28859" lon="5.854">
        <ele>354</ele>
        <time>2024-06-12T09:08:06Z</time>
      </trkpt>
      <trkpt lat="43.28859" lon="5.85398">
        <ele>355</ele>
        <time>2024-06-12T09:08:07Z</time>
      </trkpt>
      <trkpt lat="43.28858" lon="5.85394">
        <ele>355.4</ele>
        <time>2024-06-12T09:08:08Z</time>
      </trkpt>
      <trkpt lat="43.28857" lon="5.85393">
        <ele>355.4</ele>
        <time>2024-06-12T09:08:09Z</time>
      </trkpt>
      <trkpt lat="43.28856" lon="5.85388">
        <ele>355.4</ele>
        <time>2024-06-12T09:08:10Z</time>
      </trkpt>
      <trkpt lat="43.28856" lon="5.85387">
        <ele>356.4</ele>
        <time>2024-06-12T09:08:11Z</time>
      </trkpt>
      <trkpt lat="43.28856" lon="5.85384">
        <ele>357.2</ele>
        <time>2024-06-12T09:08:12Z</time>
      </trkpt>
      <trkpt lat="43.28855" lon="5.85381">
        <ele>357.2</ele>
        <time>2024-06-12T09:08:13Z</time>
      </trkpt>
      <trkpt lat="43.28855" lon="5.85378">
        <ele>357.2</ele>
        <time>2024-06-12T09:08:14Z</time>
      </trkpt>
      <trkpt lat="43.28854" lon="5.85374">
        <ele>358.2</ele>
        <time>2024-06-12T09:08:15Z</time>
      </trkpt>
      <trkpt lat="43.28854" lon="5.85373">
        <ele>359.2</ele>
        <time>2024-06-12T09:08:16Z</time>
      </trkpt>
      <trkpt lat="43.28854" lon="5.8537">
        <ele>359.2</ele>
        <time>2024-06-12T09:08:17Z</time>
      </trkpt>
      <trkpt lat="43.28854" lon="5.85366">
        <ele>359.2</ele>
        <time>2024-06-12T09:08:18Z</time>
      </trkpt>
      <trkpt lat="43.28854" lon="5.85363">
        <ele>359.2</ele>
        <time>2024-06-12T09:08:19Z</time>
      </trkpt>
      <trkpt lat="43.28854" lon="5.8536">
        <ele>360.2</ele>
        <time>2024-06-12T09:08:20Z</time>
      </trkpt>
      <trkpt lat="43.28854" lon="5.85357">
        <ele>360.8</ele>
        <time>2024-06-12T09:08:21Z</time>
      </trkpt>
      <trkpt lat="43.28853" lon="5.85352">
        <ele>360.8</ele>
        <time>2024-06-12T09:08:22Z</time>
      </trkpt>
      <trkpt lat="43.28853" lon="5.85351">
        <ele>360.8</ele>
        <time>2024-06-12T09:08:23Z</time>
      </trkpt>
      <trkpt lat="43.28853" lon="5.85346">
        <ele>361.8</ele>
        <time>2024-06-12T09:08:24Z</time>
      </trkpt>
      <trkpt lat="43.28853" lon="5.85344">
        <ele>362.4</ele>
        <time>2024-06-12T09:08:25Z</time>
      </trkpt>
      <trkpt lat="43.28853" lon="5.8534">
        <ele>362.4</ele>
        <time>2024-06-12T09:08:26Z</time>
      </trkpt>
      <trkpt lat="43.28854" lon="5.85339">
        <ele>362.4</ele>
        <time>2024-06-12T09:08:27Z</time>
      </trkpt>
      <trkpt lat="43.28854" lon="5.85334">
        <ele>362.4</ele>
        <time>2024-06-12T09:08:28Z</time>
      </trkpt>
      <trkpt lat="43.28854" lon="5.85333">
        <ele>363.4</ele>
        <time>2024-06-12T09:08:29Z</time>
      </trkpt>
      <trkpt lat="43.28855" lon="5.85329">
        <ele>363.8</ele>
        <time>2024-06-12T09:08:30Z</time>
      </trkpt>
      <trkpt lat="43.28855" lon="5.85328">
        <ele>363.8</ele>
        <time>2024-06-12T09:08:31Z</time>
      </trkpt>
      <trkpt lat="43.28856" lon="5.85323">
        <ele>363.8</ele>
        <time>2024-06-12T09:08:32Z</time>
      </trkpt>
      <trkpt lat="43.28856" lon="5.85322">
        <ele>363.8</ele>
        <time>2024-06-12T09:08:33Z</time>
      </trkpt>
      <trkpt lat="43.28857" lon="5.85318">
        <ele>365.4</ele>
        <time>2024-06-12T09:08:34Z</time>
      </trkpt>
      <trkpt lat="43.28857" lon="5.85316">
        <ele>365.4</ele>
        <time>2024-06-12T09:08:35Z</time>
      </trkpt>
      <trkpt lat="43.28858" lon="5.85312">
        <ele>365.4</ele>
        <time>2024-06-12T09:08:36Z</time>
      </trkpt>
      <trkpt lat="43.28858" lon="5.8531">
        <ele>365.4</ele>
        <time>2024-06-12T09:08:37Z</time>
      </trkpt>
      <trkpt lat="43.28858" lon="5.85308">
        <ele>366.4</ele>
        <time>2024-06-12T09:08:38Z</time>
      </trkpt>
      <trkpt lat="43.28858" lon="5.85306">
        <ele>366.8</ele>
        <time>2024-06-12T09:08:39Z</time>
      </trkpt>
      <trkpt lat="43.28858" lon="5.85303">
        <ele>366.8</ele>
        <time>2024-06-12T09:08:40Z</time>
      </trkpt>
      <trkpt lat="43.28857" lon="5.85301">
        <ele>366.8</ele>
        <time>2024-06-12T09:08:41Z</time>
      </trkpt>
      <trkpt lat="43.28857" lon="5.85299">
        <ele>366.8</ele>
        <time>2024-06-12T09:08:42Z</time>
      </trkpt>
      <trkpt lat="43.28857" lon="5.85297">
        <ele>367.4</ele>
        <time>2024-06-12T09:08:43Z</time>
      </trkpt>
      <trkpt lat="43.28856" lon="5.85295">
        <ele>367.4</ele>
        <time>2024-06-12T09:08:44Z</time>
      </trkpt>
      <trkpt lat="43.28856" lon="5.85293">
        <ele>367.4</ele>
        <time>2024-06-12T09:08:45Z</time>
      </trkpt>
      <trkpt lat="43.28855" lon="5.85291">
        <ele>367.4</ele>
        <time>2024-06-12T09:08:46Z</time>
      </trkpt>
      <trkpt lat="43.28855" lon="5.85289">
        <ele>367.8</ele>
        <time>2024-06-12T09:08:47Z</time>
      </trkpt>
      <trkpt lat="43.28854" lon="5.85287">
        <ele>368</ele>
        <time>2024-06-12T09:08:48Z</time>
      </trkpt>
      <trkpt lat="43.28853" lon="5.85284">
        <ele>368</ele>
        <time>2024-06-12T09:08:49Z</time>
      </trkpt>
      <trkpt lat="43.28853" lon="5.85282">
        <ele>368</ele>
        <time>2024-06-12T09:08:50Z</time>
      </trkpt>
      <trkpt lat="43.28852" lon="5.85281">
        <ele>368.4</ele>
        <time>2024-06-12T09:08:51Z</time>
      </trkpt>
      <trkpt lat="43.28851" lon="5.85279">
        <ele>368.4</ele>
        <time>2024-06-12T09:08:52Z</time>
      </trkpt>
      <trkpt lat="43.2885" lon="5.85277">
        <ele>368.4</ele>
        <time>2024-06-12T09:08:53Z</time>
      </trkpt>
      <trkpt lat="43.28849" lon="5.85276">
        <ele>368.4</ele>
        <time>2024-06-12T09:08:54Z</time>
      </trkpt>
      <trkpt lat="43.28847" lon="5.85274">
        <ele>368.4</ele>
        <time>2024-06-12T09:08:55Z</time>
      </trkpt>
      <trkpt lat="43.28846" lon="5.85273">
        <ele>368.8</ele>
        <time>2024-06-12T09:08:56Z</time>
      </trkpt>
      <trkpt lat="43.28845" lon="5.85271">
        <ele>369</ele>
        <time>2024-06-12T09:08:57Z</time>
      </trkpt>
      <trkpt lat="43.28844" lon="5.8527">
        <ele>369</ele>
        <time>2024-06-12T09:08:58Z</time>
      </trkpt>
      <trkpt lat="43.28842" lon="5.85269">
        <ele>369</ele>
        <time>2024-06-12T09:08:59Z</time>
      </trkpt>
      <trkpt lat="43.28841" lon="5.85267">
        <ele>369</ele>
        <time>2024-06-12T09:09:00Z</time>
      </trkpt>
      <trkpt lat="43.2884" lon="5.85266">
        <ele>369.2</ele>
        <time>2024-06-12T09:09:01Z</time>
      </trkpt>
      <trkpt lat="43.28839" lon="5.85265">
        <ele>369.2</ele>
        <time>2024-06-12T09:09:02Z</time>
      </trkpt>
      <trkpt lat="43.28837" lon="5.85263">
        <ele>369.2</ele>
        <time>2024-06-12T09:09:03Z</time>
      </trkpt>
      <trkpt lat="43.28836" lon="5.85263">
        <ele>369.2</ele>
        <time>2024-06-12T09:09:04Z</time>
      </trkpt>
      <trkpt lat="43.28834" lon="5.85262">
        <ele>369.2</ele>
        <time>2024-06-12T09:09:05Z</time>
      </trkpt>
      <trkpt lat="43.28833" lon="5.85261">
        <ele>369.2</ele>
        <time>2024-06-12T09:09:06Z</time>
      </trkpt>
      <trkpt lat="43.28831" lon="5.8526">
        <ele>369.2</ele>
        <time>2024-06-12T09:09:07Z</time>
      </trkpt>
      <trkpt lat="43.2883" lon="5.85259">
        <ele>369.2</ele>
        <time>2024-06-12T09:09:08Z</time>
      </trkpt>
      <trkpt lat="43.28828" lon="5.85258">
        <ele>369</ele>
        <time>2024-06-12T09:09:09Z</time>
      </trkpt>
      <trkpt lat="43.28826" lon="5.85258">
        <ele>369</ele>
        <time>2024-06-12T09:09:10Z</time>
      </trkpt>
      <trkpt lat="43.28824" lon="5.85257">
        <ele>369</ele>
        <time>2024-06-12T09:09:11Z</time>
      </trkpt>
      <trkpt lat="43.28823" lon="5.85256">
        <ele>369</ele>
        <time>2024-06-12T09:09:12Z</time>
      </trkpt>
      <trkpt lat="43.2882" lon="5.85255">
        <ele>369</ele>
        <time>2024-06-12T09:09:13Z</time>
      </trkpt>
      <trkpt lat="43.28819" lon="5.85254">
        <ele>369</ele>
        <time>2024-06-12T09:09:14Z</time>
      </trkpt>
      <trkpt lat="43.28818" lon="5.85254">
        <ele>369</ele>
        <time>2024-06-12T09:09:15Z</time>
      </trkpt>
      <trkpt lat="43.28815" lon="5.85253">
        <ele>369</ele>
        <time>2024-06-12T09:09:16Z</time>
      </trkpt>
      <trkpt lat="43.28814" lon="5.85253">
        <ele>369</ele>
        <time>2024-06-12T09:09:17Z</time>
      </trkpt>
      <trkpt lat="43.28811" lon="5.85252">
        <ele>369</ele>
        <time>2024-06-12T09:09:18Z</time>
      </trkpt>
      <trkpt lat="43.2881" lon="5.85251">
        <ele>368.6</ele>
        <time>2024-06-12T09:09:19Z</time>
      </trkpt>
      <trkpt lat="43.28808" lon="5.8525">
        <ele>368.8</ele>
        <time>2024-06-12T09:09:20Z</time>
      </trkpt>
      <trkpt lat="43.28807" lon="5.85249">
        <ele>368.8</ele>
        <time>2024-06-12T09:09:21Z</time>
      </trkpt>
      <trkpt lat="43.28805" lon="5.85248">
        <ele>368.8</ele>
        <time>2024-06-12T09:09:22Z</time>
      </trkpt>
      <trkpt lat="43.28804" lon="5.85247">
        <ele>368.4</ele>
        <time>2024-06-12T09:09:23Z</time>
      </trkpt>
      <trkpt lat="43.28803" lon="5.85245">
        <ele>368.4</ele>
        <time>2024-06-12T09:09:24Z</time>
      </trkpt>
      <trkpt lat="43.28802" lon="5.85243">
        <ele>368.4</ele>
        <time>2024-06-12T09:09:25Z</time>
      </trkpt>
      <trkpt lat="43.28801" lon="5.85242">
        <ele>368.4</ele>
        <time>2024-06-12T09:09:26Z</time>
      </trkpt>
      <trkpt lat="43.288" lon="5.8524">
        <ele>368.2</ele>
        <time>2024-06-12T09:09:27Z</time>
      </trkpt>
      <trkpt lat="43.28799" lon="5.85238">
        <ele>368.2</ele>
        <time>2024-06-12T09:09:28Z</time>
      </trkpt>
      <trkpt lat="43.28799" lon="5.85236">
        <ele>368</ele>
        <time>2024-06-12T09:09:29Z</time>
      </trkpt>
      <trkpt lat="43.28799" lon="5.85234">
        <ele>368</ele>
        <time>2024-06-12T09:09:30Z</time>
      </trkpt>
      <trkpt lat="43.28799" lon="5.85231">
        <ele>368</ele>
        <time>2024-06-12T09:09:31Z</time>
      </trkpt>
      <trkpt lat="43.28799" lon="5.85229">
        <ele>369</ele>
        <time>2024-06-12T09:09:32Z</time>
      </trkpt>
      <trkpt lat="43.28799" lon="5.85226">
        <ele>369</ele>
        <time>2024-06-12T09:09:33Z</time>
      </trkpt>
      <trkpt lat="43.28799" lon="5.85224">
        <ele>369</ele>
        <time>2024-06-12T09:09:34Z</time>
      </trkpt>
      <trkpt lat="43.28799" lon="5.8522">
        <ele>369</ele>
        <time>2024-06-12T09:09:35Z</time>
      </trkpt>
      <trkpt lat="43.28799" lon="5.85218">
        <ele>369.8</ele>
        <time>2024-06-12T09:09:36Z</time>
      </trkpt>
      <trkpt lat="43.28799" lon="5.85215">
        <ele>370.2</ele>
        <time>2024-06-12T09:09:37Z</time>
      </trkpt>
      <trkpt lat="43.28799" lon="5.85211">
        <ele>370.2</ele>
        <time>2024-06-12T09:09:38Z</time>
      </trkpt>
      <trkpt lat="43.288" lon="5.8521">
        <ele>370.2</ele>
        <time>2024-06-12T09:09:39Z</time>
      </trkpt>
      <trkpt lat="43.288" lon="5.85207">
        <ele>370.2</ele>
        <time>2024-06-12T09:09:40Z</time>
      </trkpt>
      <trkpt lat="43.288" lon="5.85204">
        <ele>371</ele>
        <time>2024-06-12T09:09:41Z</time>
      </trkpt>
      <trkpt lat="43.288" lon="5.85202">
        <ele>371.2</ele>
        <time>2024-06-12T09:09:42Z</time>
      </trkpt>
      <trkpt lat="43.288" lon="5.85199">
        <ele>371.2</ele>
        <time>2024-06-12T09:09:43Z</time>
      </trkpt>
      <trkpt lat="43.288" lon="5.85196">
        <ele>371.2</ele>
        <time>2024-06-12T09:09:44Z</time>
      </trkpt>
      <trkpt lat="43.288" lon="5.85193">
        <ele>372.2</ele>
        <time>2024-06-12T09:09:45Z</time>
      </trkpt>
      <trkpt lat="43.288" lon="5.8519">
        <ele>372.6</ele>
        <time>2024-06-12T09:09:46Z</time>
      </trkpt>
      <trkpt lat="43.28801" lon="5.85188">
        <ele>372.6</ele>
        <time>2024-06-12T09:09:47Z</time>
      </trkpt>
      <trkpt lat="43.28801" lon="5.85185">
        <ele>372.6</ele>
        <time>2024-06-12T09:09:48Z</time>
      </trkpt>
      <trkpt lat="43.28801" lon="5.8518">
        <ele>373.6</ele>
        <time>2024-06-12T09:09:49Z</time>
      </trkpt>
      <trkpt lat="43.28801" lon="5.85179">
        <ele>373.6</ele>
        <time>2024-06-12T09:09:50Z</time>
      </trkpt>
      <trkpt lat="43.28801" lon="5.85176">
        <ele>374</ele>
        <time>2024-06-12T09:09:51Z</time>
      </trkpt>
      <trkpt lat="43.28802" lon="5.85173">
        <ele>374</ele>
        <time>2024-06-12T09:09:52Z</time>
      </trkpt>
      <trkpt lat="43.28802" lon="5.8517">
        <ele>374</ele>
        <time>2024-06-12T09:09:53Z</time>
      </trkpt>
      <trkpt lat="43.28802" lon="5.85168">
        <ele>375</ele>
        <time>2024-06-12T09:09:54Z</time>
      </trkpt>
      <trkpt lat="43.28802" lon="5.85163">
        <ele>375.4</ele>
        <time>2024-06-12T09:09:55Z</time>
      </trkpt>
      <trkpt lat="43.28802" lon="5.85162">
        <ele>375.4</ele>
        <time>2024-06-12T09:09:56Z</time>
      </trkpt>
      <trkpt lat="43.28802" lon="5.85157">
        <ele>375.4</ele>
        <time>2024-06-12T09:09:57Z</time>
      </trkpt>
      <trkpt lat="43.28802" lon="5.85156">
        <ele>375.4</ele>
        <time>2024-06-12T09:09:58Z</time>
      </trkpt>
      <trkpt lat="43.28802" lon="5.85151">
        <ele>376.4</ele>
        <time>2024-06-12T09:09:59Z</time>
      </trkpt>
      <trkpt lat="43.28802" lon="5.8515">
        <ele>376.6</ele>
        <time>2024-06-12T09:10:00Z</time>
      </trkpt>
      <trkpt lat="43.28802" lon="5.85145">
        <ele>376.6</ele>
        <time>2024-06-12T09:10:01Z</time>
      </trkpt>
      <trkpt lat="43.28803" lon="5.85144">
        <ele>376.6</ele>
        <time>2024-06-12T09:10:02Z</time>
      </trkpt>
      <trkpt lat="43.28803" lon="5.85141">
        <ele>377.4</ele>
        <time>2024-06-12T09:10:03Z</time>
      </trkpt>
      <trkpt lat="43.28803" lon="5.85138">
        <ele>377.4</ele>
        <time>2024-06-12T09:10:04Z</time>
      </trkpt>
      <trkpt lat="43.28803" lon="5.85135">
        <ele>377.6</ele>
        <time>2024-06-12T09:10:05Z</time>
      </trkpt>
      <trkpt lat="43.28803" lon="5.85133">
        <ele>377.6</ele>
        <time>2024-06-12T09:10:06Z</time>
      </trkpt>
      <trkpt lat="43.28803" lon="5.8513">
        <ele>377.6</ele>
        <time>2024-06-12T09:10:07Z</time>
      </trkpt>
      <trkpt lat="43.28804" lon="5.85127">
        <ele>378.4</ele>
        <time>2024-06-12T09:10:08Z</time>
      </trkpt>
      <trkpt lat="43.28804" lon="5.85123">
        <ele>378.8</ele>
        <time>2024-06-12T09:10:09Z</time>
      </trkpt>
      <trkpt lat="43.28804" lon="5.85121">
        <ele>378.8</ele>
        <time>2024-06-12T09:10:10Z</time>
      </trkpt>
      <trkpt lat="43.28803" lon="5.85117">
        <ele>378.8</ele>
        <time>2024-06-12T09:10:11Z</time>
      </trkpt>
      <trkpt lat="43.28803" lon="5.85116">
        <ele>379.4</ele>
        <time>2024-06-12T09:10:12Z</time>
      </trkpt>
      <trkpt lat="43.28802" lon="5.85114">
        <ele>379.6</ele>
        <time>2024-06-12T09:10:13Z</time>
      </trkpt>
      <trkpt lat="43.28802" lon="5.85111">
        <ele>379.6</ele>
        <time>2024-06-12T09:10:14Z</time>
      </trkpt>
      <trkpt lat="43.28802" lon="5.85109">
        <ele>379.6</ele>
        <time>2024-06-12T09:10:15Z</time>
      </trkpt>
      <trkpt lat="43.28801" lon="5.85107">
        <ele>379.6</ele>
        <time>2024-06-12T09:10:16Z</time>
      </trkpt>
      <trkpt lat="43.288" lon="5.85103">
        <ele>379.6</ele>
        <time>2024-06-12T09:10:17Z</time>
      </trkpt>
      <trkpt lat="43.28799" lon="5.85098">
        <ele>379.8</ele>
        <time>2024-06-12T09:10:18Z</time>
      </trkpt>
      <trkpt lat="43.28799" lon="5.85097">
        <ele>379.8</ele>
        <time>2024-06-12T09:10:19Z</time>
      </trkpt>
      <trkpt lat="43.28798" lon="5.85094">
        <ele>379.8</ele>
        <time>2024-06-12T09:10:20Z</time>
      </trkpt>
      <trkpt lat="43.28797" lon="5.85091">
        <ele>379.6</ele>
        <time>2024-06-12T09:10:21Z</time>
      </trkpt>
      <trkpt lat="43.28796" lon="5.85086">
        <ele>379.6</ele>
        <time>2024-06-12T09:10:22Z</time>
      </trkpt>
      <trkpt lat="43.28796" lon="5.85084">
        <ele>379.6</ele>
        <time>2024-06-12T09:10:23Z</time>
      </trkpt>
      <trkpt lat="43.28795" lon="5.85079">
        <ele>379.6</ele>
        <time>2024-06-12T09:10:24Z</time>
      </trkpt>
      <trkpt lat="43.28795" lon="5.85078">
        <ele>379.6</ele>
        <time>2024-06-12T09:10:25Z</time>
      </trkpt>
      <trkpt lat="43.28794" lon="5.85075">
        <ele>379.6</ele>
        <time>2024-06-12T09:10:26Z</time>
      </trkpt>
      <trkpt lat="43.28792" lon="5.85073">
        <ele>379.6</ele>
        <time>2024-06-12T09:10:27Z</time>
      </trkpt>
      <trkpt lat="43.28792" lon="5.8507">
        <ele>379.6</ele>
        <time>2024-06-12T09:10:28Z</time>
      </trkpt>
      <trkpt lat="43.28791" lon="5.85067">
        <ele>379.6</ele>
        <time>2024-06-12T09:10:29Z</time>
      </trkpt>
      <trkpt lat="43.28791" lon="5.85064">
        <ele>379.6</ele>
        <time>2024-06-12T09:10:30Z</time>
      </trkpt>
      <trkpt lat="43.28789" lon="5.8506">
        <ele>379.6</ele>
        <time>2024-06-12T09:10:31Z</time>
      </trkpt>
      <trkpt lat="43.28788" lon="5.85059">
        <ele>379.6</ele>
        <time>2024-06-12T09:10:32Z</time>
      </trkpt>
      <trkpt lat="43.28788" lon="5.85056">
        <ele>379.6</ele>
        <time>2024-06-12T09:10:33Z</time>
      </trkpt>
      <trkpt lat="43.28787" lon="5.85053">
        <ele>379.8</ele>
        <time>2024-06-12T09:10:34Z</time>
      </trkpt>
      <trkpt lat="43.28786" lon="5.8505">
        <ele>380</ele>
        <time>2024-06-12T09:10:35Z</time>
      </trkpt>
      <trkpt lat="43.28784" lon="5.85045">
        <ele>380</ele>
        <time>2024-06-12T09:10:36Z</time>
      </trkpt>
      <trkpt lat="43.28783" lon="5.85043">
        <ele>380</ele>
        <time>2024-06-12T09:10:37Z</time>
      </trkpt>
      <trkpt lat="43.28782" lon="5.85039">
        <ele>380</ele>
        <time>2024-06-12T09:10:38Z</time>
      </trkpt>
      <trkpt lat="43.28781" lon="5.85038">
        <ele>380</ele>
        <time>2024-06-12T09:10:39Z</time>
      </trkpt>
      <trkpt lat="43.2878" lon="5.85033">
        <ele>380</ele>
        <time>2024-06-12T09:10:40Z</time>
      </trkpt>
      <trkpt lat="43.2878" lon="5.85032">
        <ele>380</ele>
        <time>2024-06-12T09:10:41Z</time>
      </trkpt>
      <trkpt lat="43.28778" lon="5.85027">
        <ele>380</ele>
        <time>2024-06-12T09:10:42Z</time>
      </trkpt>
      <trkpt lat="43.28778" lon="5.85026">
        <ele>380</ele>
        <time>2024-06-12T09:10:43Z</time>
      </trkpt>
      <trkpt lat="43.28776" lon="5.85021">
        <ele>380</ele>
        <time>2024-06-12T09:10:44Z</time>
      </trkpt>
      <trkpt lat="43.28775" lon="5.8502">
        <ele>380</ele>
        <time>2024-06-12T09:10:45Z</time>
      </trkpt>
      <trkpt lat="43.28773" lon="5.85016">
        <ele>380</ele>
        <time>2024-06-12T09:10:46Z</time>
      </trkpt>
      <trkpt lat="43.28773" lon="5.85014">
        <ele>380</ele>
        <time>2024-06-12T09:10:47Z</time>
      </trkpt>
      <trkpt lat="43.28771" lon="5.8501">
        <ele>380.6</ele>
        <time>2024-06-12T09:10:48Z</time>
      </trkpt>
      <trkpt lat="43.28771" lon="5.85009">
        <ele>380.6</ele>
        <time>2024-06-12T09:10:49Z</time>
      </trkpt>
      <trkpt lat="43.2877" lon="5.85006">
        <ele>380.6</ele>
        <time>2024-06-12T09:10:50Z</time>
      </trkpt>
      <trkpt lat="43.28768" lon="5.85002">
        <ele>380.6</ele>
        <time>2024-06-12T09:10:51Z</time>
      </trkpt>
      <trkpt lat="43.28767" lon="5.85">
        <ele>381.2</ele>
        <time>2024-06-12T09:10:52Z</time>
      </trkpt>
      <trkpt lat="43.28766" lon="5.84998">
        <ele>381.2</ele>
        <time>2024-06-12T09:10:53Z</time>
      </trkpt>
      <trkpt lat="43.28764" lon="5.84993">
        <ele>381.2</ele>
        <time>2024-06-12T09:10:54Z</time>
      </trkpt>
      <trkpt lat="43.28764" lon="5.84992">
        <ele>381.2</ele>
        <time>2024-06-12T09:10:55Z</time>
      </trkpt>
      <trkpt lat="43.28762" lon="5.84988">
        <ele>381.2</ele>
        <time>2024-06-12T09:10:56Z</time>
      </trkpt>
      <trkpt lat="43.28761" lon="5.84987">
        <ele>381.8</ele>
        <time>2024-06-12T09:10:57Z</time>
      </trkpt>
      <trkpt lat="43.28759" lon="5.84984">
        <ele>381.8</ele>
        <time>2024-06-12T09:10:58Z</time>
      </trkpt>
      <trkpt lat="43.28757" lon="5.8498">
        <ele>381.8</ele>
        <time>2024-06-12T09:10:59Z</time>
      </trkpt>
      <trkpt lat="43.28757" lon="5.84979">
        <ele>381.8</ele>
        <time>2024-06-12T09:11:00Z</time>
      </trkpt>
      <trkpt lat="43.28755" lon="5.84977">
        <ele>382</ele>
        <time>2024-06-12T09:11:01Z</time>
      </trkpt>
      <trkpt lat="43.28753" lon="5.84973">
        <ele>382.4</ele>
        <time>2024-06-12T09:11:02Z</time>
      </trkpt>
      <trkpt lat="43.28752" lon="5.84971">
        <ele>382.4</ele>
        <time>2024-06-12T09:11:03Z</time>
      </trkpt>
      <trkpt lat="43.28749" lon="5.84966">
        <ele>382.4</ele>
        <time>2024-06-12T09:11:04Z</time>
      </trkpt>
      <trkpt lat="43.28749" lon="5.84965">
        <ele>382.4</ele>
        <time>2024-06-12T09:11:05Z</time>
      </trkpt>
      <trkpt lat="43.28747" lon="5.8496">
        <ele>382.4</ele>
        <time>2024-06-12T09:11:06Z</time>
      </trkpt>
      <trkpt lat="43.28746" lon="5.84959">
        <ele>382.8</ele>
        <time>2024-06-12T09:11:07Z</time>
      </trkpt>
      <trkpt lat="43.28744" lon="5.84953">
        <ele>382.8</ele>
        <time>2024-06-12T09:11:08Z</time>
      </trkpt>
      <trkpt lat="43.28743" lon="5.84952">
        <ele>382.8</ele>
        <time>2024-06-12T09:11:09Z</time>
      </trkpt>
      <trkpt lat="43.28742" lon="5.84948">
        <ele>383.2</ele>
        <time>2024-06-12T09:11:10Z</time>
      </trkpt>
      <trkpt lat="43.28741" lon="5.84945">
        <ele>383.6</ele>
        <time>2024-06-12T09:11:11Z</time>
      </trkpt>
      <trkpt lat="43.2874" lon="5.84941">
        <ele>383.6</ele>
        <time>2024-06-12T09:11:12Z</time>
      </trkpt>
      <trkpt lat="43.28739" lon="5.84935">
        <ele>383.6</ele>
        <time>2024-06-12T09:11:13Z</time>
      </trkpt>
      <trkpt lat="43.28739" lon="5.84933">
        <ele>384.4</ele>
        <time>2024-06-12T09:11:14Z</time>
      </trkpt>
      <trkpt lat="43.28738" lon="5.84926">
        <ele>384.6</ele>
        <time>2024-06-12T09:11:15Z</time>
      </trkpt>
      <trkpt lat="43.28737" lon="5.84924">
        <ele>384.6</ele>
        <time>2024-06-12T09:11:16Z</time>
      </trkpt>
      <trkpt lat="43.28736" lon="5.84919">
        <ele>384.6</ele>
        <time>2024-06-12T09:11:17Z</time>
      </trkpt>
      <trkpt lat="43.28736" lon="5.84915">
        <ele>384.6</ele>
        <time>2024-06-12T09:11:18Z</time>
      </trkpt>
      <trkpt lat="43.28735" lon="5.8491">
        <ele>385.4</ele>
        <time>2024-06-12T09:11:19Z</time>
      </trkpt>
      <trkpt lat="43.28734" lon="5.84904">
        <ele>385.4</ele>
        <time>2024-06-12T09:11:20Z</time>
      </trkpt>
      <trkpt lat="43.28733" lon="5.84899">
        <ele>385.4</ele>
        <time>2024-06-12T09:11:21Z</time>
      </trkpt>
      <trkpt lat="43.28732" lon="5.84894">
        <ele>385.4</ele>
        <time>2024-06-12T09:11:22Z</time>
      </trkpt>
      <trkpt lat="43.2873" lon="5.84886">
        <ele>385.4</ele>
        <time>2024-06-12T09:11:23Z</time>
      </trkpt>
      <trkpt lat="43.28729" lon="5.84883">
        <ele>386</ele>
        <time>2024-06-12T09:11:24Z</time>
      </trkpt>
      <trkpt lat="43.28727" lon="5.84875">
        <ele>386</ele>
        <time>2024-06-12T09:11:25Z</time>
      </trkpt>
      <trkpt lat="43.28727" lon="5.84873">
        <ele>386</ele>
        <time>2024-06-12T09:11:26Z</time>
      </trkpt>
      <trkpt lat="43.28724" lon="5.84865">
        <ele>386</ele>
        <time>2024-06-12T09:11:27Z</time>
      </trkpt>
      <trkpt lat="43.28723" lon="5.84863">
        <ele>386.8</ele>
        <time>2024-06-12T09:11:28Z</time>
      </trkpt>
      <trkpt lat="43.28721" lon="5.84854">
        <ele>387.2</ele>
        <time>2024-06-12T09:11:29Z</time>
      </trkpt>
      <trkpt lat="43.28721" lon="5.84851">
        <ele>387.2</ele>
        <time>2024-06-12T09:11:30Z</time>
      </trkpt>
      <trkpt lat="43.2872" lon="5.84843">
        <ele>387.2</ele>
        <time>2024-06-12T09:11:31Z</time>
      </trkpt>
      <trkpt lat="43.28719" lon="5.84841">
        <ele>387.2</ele>
        <time>2024-06-12T09:11:32Z</time>
      </trkpt>
      <trkpt lat="43.28718" lon="5.84835">
        <ele>387.6</ele>
        <time>2024-06-12T09:11:33Z</time>
      </trkpt>
      <trkpt lat="43.28716" lon="5.8483">
        <ele>387.8</ele>
        <time>2024-06-12T09:11:34Z</time>
      </trkpt>
      <trkpt lat="43.28715" lon="5.84825">
        <ele>387.8</ele>
        <time>2024-06-12T09:11:35Z</time>
      </trkpt>
      <trkpt lat="43.28712" lon="5.84818">
        <ele>387.8</ele>
        <time>2024-06-12T09:11:36Z</time>
      </trkpt>
      <trkpt lat="43.28711" lon="5.84816">
        <ele>387.8</ele>
        <time>2024-06-12T09:11:37Z</time>
      </trkpt>
      <trkpt lat="43.28708" lon="5.84809">
        <ele>388.2</ele>
        <time>2024-06-12T09:11:38Z</time>
      </trkpt>
      <trkpt lat="43.28706" lon="5.84807">
        <ele>388.2</ele>
        <time>2024-06-12T09:11:39Z</time>
      </trkpt>
      <trkpt lat="43.28702" lon="5.84801">
        <ele>388.2</ele>
        <time>2024-06-12T09:11:40Z</time>
      </trkpt>
      <trkpt lat="43.28701" lon="5.84799">
        <ele>388.2</ele>
        <time>2024-06-12T09:11:41Z</time>
      </trkpt>
      <trkpt lat="43.28698" lon="5.84796">
        <ele>388</ele>
        <time>2024-06-12T09:11:42Z</time>
      </trkpt>
      <trkpt lat="43.28693" lon="5.84791">
        <ele>388</ele>
        <time>2024-06-12T09:11:43Z</time>
      </trkpt>
      <trkpt lat="43.28691" lon="5.8479">
        <ele>388</ele>
        <time>2024-06-12T09:11:44Z</time>
      </trkpt>
      <trkpt lat="43.28687" lon="5.84787">
        <ele>388</ele>
        <time>2024-06-12T09:11:45Z</time>
      </trkpt>
      <trkpt lat="43.28682" lon="5.84783">
        <ele>388.4</ele>
        <time>2024-06-12T09:11:46Z</time>
      </trkpt>
      <trkpt lat="43.2868" lon="5.84782">
        <ele>388.2</ele>
        <time>2024-06-12T09:11:47Z</time>
      </trkpt>
      <trkpt lat="43.28675" lon="5.84778">
        <ele>388.2</ele>
        <time>2024-06-12T09:11:48Z</time>
      </trkpt>
      <trkpt lat="43.28673" lon="5.84777">
        <ele>388.2</ele>
        <time>2024-06-12T09:11:49Z</time>
      </trkpt>
      <trkpt lat="43.2867" lon="5.84774">
        <ele>388.2</ele>
        <time>2024-06-12T09:11:50Z</time>
      </trkpt>
      <trkpt lat="43.28667" lon="5.84772">
        <ele>388</ele>
        <time>2024-06-12T09:11:51Z</time>
      </trkpt>
      <trkpt lat="43.28663" lon="5.84769">
        <ele>388</ele>
        <time>2024-06-12T09:11:52Z</time>
      </trkpt>
      <trkpt lat="43.28659" lon="5.84765">
        <ele>388</ele>
        <time>2024-06-12T09:11:53Z</time>
      </trkpt>
      <trkpt lat="43.28657" lon="5.84764">
        <ele>388</ele>
        <time>2024-06-12T09:11:54Z</time>
      </trkpt>
      <trkpt lat="43.28652" lon="5.84761">
        <ele>388</ele>
        <time>2024-06-12T09:11:55Z</time>
      </trkpt>
      <trkpt lat="43.28651" lon="5.8476">
        <ele>387.8</ele>
        <time>2024-06-12T09:11:56Z</time>
      </trkpt>
      <trkpt lat="43.28646" lon="5.84757">
        <ele>387.8</ele>
        <time>2024-06-12T09:11:57Z</time>
      </trkpt>
      <trkpt lat="43.28644" lon="5.84756">
        <ele>387.8</ele>
        <time>2024-06-12T09:11:58Z</time>
      </trkpt>
      <trkpt lat="43.2864" lon="5.84755">
        <ele>387.8</ele>
        <time>2024-06-12T09:11:59Z</time>
      </trkpt>
      <trkpt lat="43.28637" lon="5.84754">
        <ele>388</ele>
        <time>2024-06-12T09:12:00Z</time>
      </trkpt>
      <trkpt lat="43.28634" lon="5.84754">
        <ele>388</ele>
        <time>2024-06-12T09:12:01Z</time>
      </trkpt>
      <trkpt lat="43.28631" lon="5.84753">
        <ele>388</ele>
        <time>2024-06-12T09:12:02Z</time>
      </trkpt>
      <trkpt lat="43.28627" lon="5.84753">
        <ele>388</ele>
        <time>2024-06-12T09:12:03Z</time>
      </trkpt>
      <trkpt lat="43.28624" lon="5.84753">
        <ele>388.6</ele>
        <time>2024-06-12T09:12:04Z</time>
      </trkpt>
      <trkpt lat="43.2862" lon="5.84752">
        <ele>388.6</ele>
        <time>2024-06-12T09:12:05Z</time>
      </trkpt>
      <trkpt lat="43.28616" lon="5.84752">
        <ele>388.6</ele>
        <time>2024-06-12T09:12:06Z</time>
      </trkpt>
      <trkpt lat="43.2861" lon="5.84752">
        <ele>388.6</ele>
        <time>2024-06-12T09:12:07Z</time>
      </trkpt>
      <trkpt lat="43.28608" lon="5.84752">
        <ele>388.6</ele>
        <time>2024-06-12T09:12:08Z</time>
      </trkpt>
      <trkpt lat="43.28602" lon="5.84752">
        <ele>389</ele>
        <time>2024-06-12T09:12:09Z</time>
      </trkpt>
      <trkpt lat="43.28601" lon="5.84751">
        <ele>388.8</ele>
        <time>2024-06-12T09:12:10Z</time>
      </trkpt>
      <trkpt lat="43.28595" lon="5.8475">
        <ele>388.8</ele>
        <time>2024-06-12T09:12:11Z</time>
      </trkpt>
      <trkpt lat="43.28593" lon="5.8475">
        <ele>388.8</ele>
        <time>2024-06-12T09:12:12Z</time>
      </trkpt>
      <trkpt lat="43.28588" lon="5.84747">
        <ele>389</ele>
        <time>2024-06-12T09:12:13Z</time>
      </trkpt>
      <trkpt lat="43.28587" lon="5.84746">
        <ele>389.2</ele>
        <time>2024-06-12T09:12:14Z</time>
      </trkpt>
      <trkpt lat="43.28582" lon="5.84741">
        <ele>389.2</ele>
        <time>2024-06-12T09:12:15Z</time>
      </trkpt>
      <trkpt lat="43.28581" lon="5.8474">
        <ele>389.2</ele>
        <time>2024-06-12T09:12:16Z</time>
      </trkpt>
      <trkpt lat="43.28579" lon="5.84737">
        <ele>389.2</ele>
        <time>2024-06-12T09:12:17Z</time>
      </trkpt>
      <trkpt lat="43.28575" lon="5.84732">
        <ele>389</ele>
        <time>2024-06-12T09:12:18Z</time>
      </trkpt>
      <trkpt lat="43.28574" lon="5.8473">
        <ele>389</ele>
        <time>2024-06-12T09:12:19Z</time>
      </trkpt>
      <trkpt lat="43.28572" lon="5.84725">
        <ele>389</ele>
        <time>2024-06-12T09:12:20Z</time>
      </trkpt>
      <trkpt lat="43.28571" lon="5.84723">
        <ele>389</ele>
        <time>2024-06-12T09:12:21Z</time>
      </trkpt>
      <trkpt lat="43.28568" lon="5.84718">
        <ele>389.2</ele>
        <time>2024-06-12T09:12:22Z</time>
      </trkpt>
      <trkpt lat="43.28567" lon="5.84716">
        <ele>389.2</ele>
        <time>2024-06-12T09:12:23Z</time>
      </trkpt>
      <trkpt lat="43.28565" lon="5.84712">
        <ele>389.2</ele>
        <time>2024-06-12T09:12:24Z</time>
      </trkpt>
      <trkpt lat="43.28562" lon="5.84707">
        <ele>389.2</ele>
        <time>2024-06-12T09:12:25Z</time>
      </trkpt>
      <trkpt lat="43.28561" lon="5.84705">
        <ele>390.2</ele>
        <time>2024-06-12T09:12:26Z</time>
      </trkpt>
      <trkpt lat="43.2856" lon="5.84701">
        <ele>390.6</ele>
        <time>2024-06-12T09:12:27Z</time>
      </trkpt>
      <trkpt lat="43.28558" lon="5.84695">
        <ele>390.6</ele>
        <time>2024-06-12T09:12:28Z</time>
      </trkpt>
      <trkpt lat="43.28557" lon="5.84693">
        <ele>390.6</ele>
        <time>2024-06-12T09:12:29Z</time>
      </trkpt>
      <trkpt lat="43.28555" lon="5.84687">
        <ele>390.6</ele>
        <time>2024-06-12T09:12:30Z</time>
      </trkpt>
      <trkpt lat="43.28554" lon="5.84684">
        <ele>391.6</ele>
        <time>2024-06-12T09:12:31Z</time>
      </trkpt>
      <trkpt lat="43.28553" lon="5.8468">
        <ele>392</ele>
        <time>2024-06-12T09:12:32Z</time>
      </trkpt>
      <trkpt lat="43.28553" lon="5.84675">
        <ele>392</ele>
        <time>2024-06-12T09:12:33Z</time>
      </trkpt>
      <trkpt lat="43.28551" lon="5.84667">
        <ele>392</ele>
        <time>2024-06-12T09:12:34Z</time>
      </trkpt>
      <trkpt lat="43.28551" lon="5.84665">
        <ele>393</ele>
        <time>2024-06-12T09:12:35Z</time>
      </trkpt>
      <trkpt lat="43.2855" lon="5.84661">
        <ele>393.4</ele>
        <time>2024-06-12T09:12:36Z</time>
      </trkpt>
      <trkpt lat="43.28549" lon="5.84654">
        <ele>393.4</ele>
        <time>2024-06-12T09:12:37Z</time>
      </trkpt>
      <trkpt lat="43.28549" lon="5.84652">
        <ele>393.4</ele>
        <time>2024-06-12T09:12:38Z</time>
      </trkpt>
      <trkpt lat="43.28548" lon="5.84648">
        <ele>393.4</ele>
        <time>2024-06-12T09:12:39Z</time>
      </trkpt>
      <trkpt lat="43.28548" lon="5.84644">
        <ele>394.4</ele>
        <time>2024-06-12T09:12:40Z</time>
      </trkpt>
      <trkpt lat="43.28547" lon="5.8464">
        <ele>394.8</ele>
        <time>2024-06-12T09:12:41Z</time>
      </trkpt>
      <trkpt lat="43.28546" lon="5.84636">
        <ele>394.8</ele>
        <time>2024-06-12T09:12:42Z</time>
      </trkpt>
      <trkpt lat="43.28545" lon="5.8463">
        <ele>394.8</ele>
        <time>2024-06-12T09:12:43Z</time>
      </trkpt>
      <trkpt lat="43.28545" lon="5.84628">
        <ele>395.6</ele>
        <time>2024-06-12T09:12:44Z</time>
      </trkpt>
      <trkpt lat="43.28544" lon="5.84623">
        <ele>396</ele>
        <time>2024-06-12T09:12:45Z</time>
      </trkpt>
      <trkpt lat="43.28543" lon="5.84622">
        <ele>396</ele>
        <time>2024-06-12T09:12:46Z</time>
      </trkpt>
      <trkpt lat="43.28542" lon="5.84616">
        <ele>396</ele>
        <time>2024-06-12T09:12:47Z</time>
      </trkpt>
      <trkpt lat="43.28542" lon="5.84615">
        <ele>396.8</ele>
        <time>2024-06-12T09:12:48Z</time>
      </trkpt>
      <trkpt lat="43.28541" lon="5.84609">
        <ele>396.8</ele>
        <time>2024-06-12T09:12:49Z</time>
      </trkpt>
      <trkpt lat="43.28541" lon="5.84608">
        <ele>397</ele>
        <time>2024-06-12T09:12:50Z</time>
      </trkpt>
      <trkpt lat="43.2854" lon="5.84602">
        <ele>397</ele>
        <time>2024-06-12T09:12:51Z</time>
      </trkpt>
      <trkpt lat="43.2854" lon="5.84601">
        <ele>397</ele>
        <time>2024-06-12T09:12:52Z</time>
      </trkpt>
      <trkpt lat="43.28539" lon="5.84595">
        <ele>397</ele>
        <time>2024-06-12T09:12:53Z</time>
      </trkpt>
      <trkpt lat="43.28538" lon="5.84593">
        <ele>397.8</ele>
        <time>2024-06-12T09:12:54Z</time>
      </trkpt>
      <trkpt lat="43.28537" lon="5.8459">
        <ele>397.8</ele>
        <time>2024-06-12T09:12:55Z</time>
      </trkpt>
      <trkpt lat="43.28537" lon="5.84587">
        <ele>397.8</ele>
        <time>2024-06-12T09:12:56Z</time>
      </trkpt>
      <trkpt lat="43.28536" lon="5.84583">
        <ele>397.8</ele>
        <time>2024-06-12T09:12:57Z</time>
      </trkpt>
      <trkpt lat="43.28535" lon="5.8458">
        <ele>398.2</ele>
        <time>2024-06-12T09:12:58Z</time>
      </trkpt>
      <trkpt lat="43.28534" lon="5.84576">
        <ele>398.4</ele>
        <time>2024-06-12T09:12:59Z</time>
      </trkpt>
      <trkpt lat="43.28534" lon="5.84572">
        <ele>398.4</ele>
        <time>2024-06-12T09:13:00Z</time>
      </trkpt>
      <trkpt lat="43.28533" lon="5.84569">
        <ele>398.4</ele>
        <time>2024-06-12T09:13:01Z</time>
      </trkpt>
      <trkpt lat="43.28532" lon="5.84563">
        <ele>398.8</ele>
        <time>2024-06-12T09:13:02Z</time>
      </trkpt>
      <trkpt lat="43.28532" lon="5.84562">
        <ele>399</ele>
        <time>2024-06-12T09:13:03Z</time>
      </trkpt>
      <trkpt lat="43.2853" lon="5.84556">
        <ele>399</ele>
        <time>2024-06-12T09:13:04Z</time>
      </trkpt>
      <trkpt lat="43.2853" lon="5.84554">
        <ele>399</ele>
        <time>2024-06-12T09:13:05Z</time>
      </trkpt>
      <trkpt lat="43.28529" lon="5.84548">
        <ele>399.8</ele>
        <time>2024-06-12T09:13:06Z</time>
      </trkpt>
      <trkpt lat="43.28529" lon="5.84546">
        <ele>399.8</ele>
        <time>2024-06-12T09:13:07Z</time>
      </trkpt>
      <trkpt lat="43.28528" lon="5.84542">
        <ele>399.8</ele>
        <time>2024-06-12T09:13:08Z</time>
      </trkpt>
      <trkpt lat="43.28527" lon="5.84536">
        <ele>399.8</ele>
        <time>2024-06-12T09:13:09Z</time>
      </trkpt>
      <trkpt lat="43.28527" lon="5.84534">
        <ele>399.8</ele>
        <time>2024-06-12T09:13:10Z</time>
      </trkpt>
      <trkpt lat="43.28526" lon="5.84527">
        <ele>400.6</ele>
        <time>2024-06-12T09:13:11Z</time>
      </trkpt>
      <trkpt lat="43.28526" lon="5.84525">
        <ele>401</ele>
        <time>2024-06-12T09:13:12Z</time>
      </trkpt>
      <trkpt lat="43.28526" lon="5.84519">
        <ele>401</ele>
        <time>2024-06-12T09:13:13Z</time>
      </trkpt>
      <trkpt lat="43.28526" lon="5.84516">
        <ele>401</ele>
        <time>2024-06-12T09:13:14Z</time>
      </trkpt>
      <trkpt lat="43.28526" lon="5.84512">
        <ele>401.8</ele>
        <time>2024-06-12T09:13:15Z</time>
      </trkpt>
      <trkpt lat="43.28526" lon="5.84507">
        <ele>402</ele>
        <time>2024-06-12T09:13:16Z</time>
      </trkpt>
      <trkpt lat="43.28526" lon="5.84502">
        <ele>402</ele>
        <time>2024-06-12T09:13:17Z</time>
      </trkpt>
      <trkpt lat="43.28526" lon="5.84496">
        <ele>402</ele>
        <time>2024-06-12T09:13:18Z</time>
      </trkpt>
      <trkpt lat="43.28526" lon="5.84493">
        <ele>402</ele>
        <time>2024-06-12T09:13:19Z</time>
      </trkpt>
      <trkpt lat="43.28526" lon="5.84487">
        <ele>403</ele>
        <time>2024-06-12T09:13:20Z</time>
      </trkpt>
      <trkpt lat="43.28526" lon="5.84484">
        <ele>403</ele>
        <time>2024-06-12T09:13:21Z</time>
      </trkpt>
      <trkpt lat="43.28526" lon="5.8448">
        <ele>403</ele>
        <time>2024-06-12T09:13:22Z</time>
      </trkpt>
      <trkpt lat="43.28526" lon="5.84475">
        <ele>403</ele>
        <time>2024-06-12T09:13:23Z</time>
      </trkpt>
      <trkpt lat="43.28526" lon="5.84471">
        <ele>403</ele>
        <time>2024-06-12T09:13:24Z</time>
      </trkpt>
      <trkpt lat="43.28526" lon="5.84466">
        <ele>403.4</ele>
        <time>2024-06-12T09:13:25Z</time>
      </trkpt>
      <trkpt lat="43.28526" lon="5.84462">
        <ele>403.4</ele>
        <time>2024-06-12T09:13:26Z</time>
      </trkpt>
      <trkpt lat="43.28526" lon="5.84457">
        <ele>403.4</ele>
        <time>2024-06-12T09:13:27Z</time>
      </trkpt>
      <trkpt lat="43.28526" lon="5.84452">
        <ele>403.4</ele>
        <time>2024-06-12T09:13:28Z</time>
      </trkpt>
      <trkpt lat="43.28525" lon="5.84447">
        <ele>403.4</ele>
        <time>2024-06-12T09:13:29Z</time>
      </trkpt>
      <trkpt lat="43.28525" lon="5.84442">
        <ele>403.4</ele>
        <time>2024-06-12T09:13:30Z</time>
      </trkpt>
      <trkpt lat="43.28524" lon="5.84434">
        <ele>403.4</ele>
        <time>2024-06-12T09:13:31Z</time>
      </trkpt>
      <trkpt lat="43.28524" lon="5.84431">
        <ele>403.4</ele>
        <time>2024-06-12T09:13:32Z</time>
      </trkpt>
      <trkpt lat="43.28523" lon="5.84423">
        <ele>403.6</ele>
        <time>2024-06-12T09:13:33Z</time>
      </trkpt>
      <trkpt lat="43.28523" lon="5.8442">
        <ele>403.6</ele>
        <time>2024-06-12T09:13:34Z</time>
      </trkpt>
      <trkpt lat="43.28522" lon="5.84414">
        <ele>403.6</ele>
        <time>2024-06-12T09:13:35Z</time>
      </trkpt>
      <trkpt lat="43.28521" lon="5.84404">
        <ele>403.6</ele>
        <time>2024-06-12T09:13:36Z</time>
      </trkpt>
      <trkpt lat="43.28521" lon="5.84401">
        <ele>404</ele>
        <time>2024-06-12T09:13:37Z</time>
      </trkpt>
      <trkpt lat="43.2852" lon="5.84391">
        <ele>403.8</ele>
        <time>2024-06-12T09:13:38Z</time>
      </trkpt>
      <trkpt lat="43.2852" lon="5.84388">
        <ele>403.8</ele>
        <time>2024-06-12T09:13:39Z</time>
      </trkpt>
      <trkpt lat="43.28519" lon="5.84377">
        <ele>403.8</ele>
        <time>2024-06-12T09:13:40Z</time>
      </trkpt>
      <trkpt lat="43.28518" lon="5.84374">
        <ele>403.8</ele>
        <time>2024-06-12T09:13:41Z</time>
      </trkpt>
      <trkpt lat="43.28517" lon="5.84366">
        <ele>403.8</ele>
        <time>2024-06-12T09:13:42Z</time>
      </trkpt>
      <trkpt lat="43.28516" lon="5.84355">
        <ele>403.8</ele>
        <time>2024-06-12T09:13:43Z</time>
      </trkpt>
      <trkpt lat="43.28516" lon="5.84352">
        <ele>403.8</ele>
        <time>2024-06-12T09:13:44Z</time>
      </trkpt>
      <trkpt lat="43.28514" lon="5.84341">
        <ele>403.8</ele>
        <time>2024-06-12T09:13:45Z</time>
      </trkpt>
      <trkpt lat="43.28514" lon="5.84337">
        <ele>403.8</ele>
        <time>2024-06-12T09:13:46Z</time>
      </trkpt>
      <trkpt lat="43.28513" lon="5.84326">
        <ele>403.8</ele>
        <time>2024-06-12T09:13:47Z</time>
      </trkpt>
      <trkpt lat="43.28512" lon="5.84322">
        <ele>403.8</ele>
        <time>2024-06-12T09:13:48Z</time>
      </trkpt>
      <trkpt lat="43.28511" lon="5.84315">
        <ele>403.8</ele>
        <time>2024-06-12T09:13:49Z</time>
      </trkpt>
      <trkpt lat="43.2851" lon="5.84305">
        <ele>403.8</ele>
        <time>2024-06-12T09:13:50Z</time>
      </trkpt>
      <trkpt lat="43.28509" lon="5.84301">
        <ele>403.8</ele>
        <time>2024-06-12T09:13:51Z</time>
      </trkpt>
      <trkpt lat="43.28508" lon="5.84291">
        <ele>403.8</ele>
        <time>2024-06-12T09:13:52Z</time>
      </trkpt>
      <trkpt lat="43.28508" lon="5.84287">
        <ele>403.8</ele>
        <time>2024-06-12T09:13:53Z</time>
      </trkpt>
      <trkpt lat="43.28507" lon="5.84281">
        <ele>403.8</ele>
        <time>2024-06-12T09:13:54Z</time>
      </trkpt>
      <trkpt lat="43.28506" lon="5.8427">
        <ele>403.6</ele>
        <time>2024-06-12T09:13:55Z</time>
      </trkpt>
      <trkpt lat="43.28506" lon="5.84267">
        <ele>403.6</ele>
        <time>2024-06-12T09:13:56Z</time>
      </trkpt>
      <trkpt lat="43.28505" lon="5.8426">
        <ele>403.6</ele>
        <time>2024-06-12T09:13:57Z</time>
      </trkpt>
      <trkpt lat="43.28504" lon="5.84249">
        <ele>403.6</ele>
        <time>2024-06-12T09:13:58Z</time>
      </trkpt>
      <trkpt lat="43.28503" lon="5.84245">
        <ele>403.6</ele>
        <time>2024-06-12T09:13:59Z</time>
      </trkpt>
      <trkpt lat="43.28502" lon="5.84234">
        <ele>403.4</ele>
        <time>2024-06-12T09:14:00Z</time>
      </trkpt>
      <trkpt lat="43.28501" lon="5.84231">
        <ele>403.4</ele>
        <time>2024-06-12T09:14:01Z</time>
      </trkpt>
      <trkpt lat="43.285" lon="5.8422">
        <ele>403.4</ele>
        <time>2024-06-12T09:14:02Z</time>
      </trkpt>
      <trkpt lat="43.285" lon="5.84216">
        <ele>403.4</ele>
        <time>2024-06-12T09:14:03Z</time>
      </trkpt>
      <trkpt lat="43.28499" lon="5.84205">
        <ele>403.4</ele>
        <time>2024-06-12T09:14:04Z</time>
      </trkpt>
      <trkpt lat="43.28498" lon="5.84202">
        <ele>403.2</ele>
        <time>2024-06-12T09:14:05Z</time>
      </trkpt>
      <trkpt lat="43.28497" lon="5.84195">
        <ele>403.2</ele>
        <time>2024-06-12T09:14:06Z</time>
      </trkpt>
      <trkpt lat="43.28496" lon="5.84188">
        <ele>403.2</ele>
        <time>2024-06-12T09:14:07Z</time>
      </trkpt>
      <trkpt lat="43.28495" lon="5.84179">
        <ele>403.2</ele>
        <time>2024-06-12T09:14:08Z</time>
      </trkpt>
      <trkpt lat="43.28495" lon="5.84175">
        <ele>402.8</ele>
        <time>2024-06-12T09:14:09Z</time>
      </trkpt>
      <trkpt lat="43.28494" lon="5.84166">
        <ele>402.8</ele>
        <time>2024-06-12T09:14:10Z</time>
      </trkpt>
      <trkpt lat="43.28494" lon="5.84163">
        <ele>402.8</ele>
        <time>2024-06-12T09:14:11Z</time>
      </trkpt>
      <trkpt lat="43.28493" lon="5.84157">
        <ele>402.8</ele>
        <time>2024-06-12T09:14:12Z</time>
      </trkpt>
      <trkpt lat="43.28493" lon="5.84151">
        <ele>403</ele>
        <time>2024-06-12T09:14:13Z</time>
      </trkpt>
      <trkpt lat="43.28492" lon="5.84142">
        <ele>403</ele>
        <time>2024-06-12T09:14:14Z</time>
      </trkpt>
      <trkpt lat="43.28491" lon="5.8414">
        <ele>403</ele>
        <time>2024-06-12T09:14:15Z</time>
      </trkpt>
      <trkpt lat="43.2849" lon="5.84131">
        <ele>403</ele>
        <time>2024-06-12T09:14:16Z</time>
      </trkpt>
      <trkpt lat="43.2849" lon="5.84128">
        <ele>403</ele>
        <time>2024-06-12T09:14:17Z</time>
      </trkpt>
      <trkpt lat="43.28489" lon="5.84123">
        <ele>403</ele>
        <time>2024-06-12T09:14:18Z</time>
      </trkpt>
      <trkpt lat="43.28489" lon="5.84117">
        <ele>403.2</ele>
        <time>2024-06-12T09:14:19Z</time>
      </trkpt>
      <trkpt lat="43.28488" lon="5.84112">
        <ele>403.2</ele>
        <time>2024-06-12T09:14:20Z</time>
      </trkpt>
      <trkpt lat="43.28487" lon="5.84104">
        <ele>403.2</ele>
        <time>2024-06-12T09:14:21Z</time>
      </trkpt>
      <trkpt lat="43.28487" lon="5.84102">
        <ele>403</ele>
        <time>2024-06-12T09:14:22Z</time>
      </trkpt>
      <trkpt lat="43.28487" lon="5.84096">
        <ele>403</ele>
        <time>2024-06-12T09:14:23Z</time>
      </trkpt>
      <trkpt lat="43.28486" lon="5.84089">
        <ele>403</ele>
        <time>2024-06-12T09:14:24Z</time>
      </trkpt>
      <trkpt lat="43.28485" lon="5.84086">
        <ele>403</ele>
        <time>2024-06-12T09:14:25Z</time>
      </trkpt>
      <trkpt lat="43.28485" lon="5.84079">
        <ele>403</ele>
        <time>2024-06-12T09:14:26Z</time>
      </trkpt>
      <trkpt lat="43.28485" lon="5.84077">
        <ele>403.2</ele>
        <time>2024-06-12T09:14:27Z</time>
      </trkpt>
      <trkpt lat="43.28484" lon="5.84069">
        <ele>403.2</ele>
        <time>2024-06-12T09:14:28Z</time>
      </trkpt>
      <trkpt lat="43.28483" lon="5.84066">
        <ele>403.2</ele>
        <time>2024-06-12T09:14:29Z</time>
      </trkpt>
      <trkpt lat="43.28483" lon="5.84061">
        <ele>403.2</ele>
        <time>2024-06-12T09:14:30Z</time>
      </trkpt>
      <trkpt lat="43.28482" lon="5.84053">
        <ele>403.2</ele>
        <time>2024-06-12T09:14:31Z</time>
      </trkpt>
      <trkpt lat="43.28482" lon="5.8405">
        <ele>403.4</ele>
        <time>2024-06-12T09:14:32Z</time>
      </trkpt>
      <trkpt lat="43.28481" lon="5.84044">
        <ele>403.4</ele>
        <time>2024-06-12T09:14:33Z</time>
      </trkpt>
      <trkpt lat="43.2848" lon="5.84035">
        <ele>403.4</ele>
        <time>2024-06-12T09:14:34Z</time>
      </trkpt>
      <trkpt lat="43.2848" lon="5.84033">
        <ele>403.4</ele>
        <time>2024-06-12T09:14:35Z</time>
      </trkpt>
      <trkpt lat="43.28479" lon="5.84024">
        <ele>403.4</ele>
        <time>2024-06-12T09:14:36Z</time>
      </trkpt>
      <trkpt lat="43.28479" lon="5.84021">
        <ele>403.2</ele>
        <time>2024-06-12T09:14:37Z</time>
      </trkpt>
      <trkpt lat="43.28478" lon="5.84012">
        <ele>403.2</ele>
        <time>2024-06-12T09:14:38Z</time>
      </trkpt>
      <trkpt lat="43.28478" lon="5.84009">
        <ele>403.2</ele>
        <time>2024-06-12T09:14:39Z</time>
      </trkpt>
      <trkpt lat="43.28477" lon="5.84002">
        <ele>403.6</ele>
        <time>2024-06-12T09:14:40Z</time>
      </trkpt>
      <trkpt lat="43.28477" lon="5.83996">
        <ele>403.6</ele>
        <time>2024-06-12T09:14:41Z</time>
      </trkpt>
      <trkpt lat="43.28476" lon="5.8399">
        <ele>403.6</ele>
        <time>2024-06-12T09:14:42Z</time>
      </trkpt>
      <trkpt lat="43.28475" lon="5.8398">
        <ele>403.6</ele>
        <time>2024-06-12T09:14:43Z</time>
      </trkpt>
      <trkpt lat="43.28475" lon="5.83977">
        <ele>403.6</ele>
        <time>2024-06-12T09:14:44Z</time>
      </trkpt>
      <trkpt lat="43.28474" lon="5.83968">
        <ele>403.6</ele>
        <time>2024-06-12T09:14:45Z</time>
      </trkpt>
      <trkpt lat="43.28474" lon="5.83965">
        <ele>403.8</ele>
        <time>2024-06-12T09:14:46Z</time>
      </trkpt>
      <trkpt lat="43.28472" lon="5.83955">
        <ele>403.8</ele>
        <time>2024-06-12T09:14:47Z</time>
      </trkpt>
      <trkpt lat="43.28472" lon="5.83952">
        <ele>403.8</ele>
        <time>2024-06-12T09:14:48Z</time>
      </trkpt>
      <trkpt lat="43.28472" lon="5.83945">
        <ele>403.8</ele>
        <time>2024-06-12T09:14:49Z</time>
      </trkpt>
      <trkpt lat="43.28471" lon="5.83936">
        <ele>404</ele>
        <time>2024-06-12T09:14:50Z</time>
      </trkpt>
      <trkpt lat="43.2847" lon="5.83933">
        <ele>404</ele>
        <time>2024-06-12T09:14:51Z</time>
      </trkpt>
      <trkpt lat="43.28469" lon="5.83924">
        <ele>404</ele>
        <time>2024-06-12T09:14:52Z</time>
      </trkpt>
      <trkpt lat="43.28469" lon="5.83921">
        <ele>403.8</ele>
        <time>2024-06-12T09:14:53Z</time>
      </trkpt>
      <trkpt lat="43.28468" lon="5.83911">
        <ele>403.8</ele>
        <time>2024-06-12T09:14:54Z</time>
      </trkpt>
      <trkpt lat="43.28468" lon="5.83908">
        <ele>403.8</ele>
        <time>2024-06-12T09:14:55Z</time>
      </trkpt>
      <trkpt lat="43.28466" lon="5.83899">
        <ele>403.8</ele>
        <time>2024-06-12T09:14:56Z</time>
      </trkpt>
      <trkpt lat="43.28466" lon="5.83896">
        <ele>403.8</ele>
        <time>2024-06-12T09:14:57Z</time>
      </trkpt>
      <trkpt lat="43.28465" lon="5.83887">
        <ele>403.8</ele>
        <time>2024-06-12T09:14:58Z</time>
      </trkpt>
      <trkpt lat="43.28465" lon="5.83884">
        <ele>403.8</ele>
        <time>2024-06-12T09:14:59Z</time>
      </trkpt>
      <trkpt lat="43.28464" lon="5.83875">
        <ele>403.6</ele>
        <time>2024-06-12T09:15:00Z</time>
      </trkpt>
      <trkpt lat="43.28464" lon="5.83872">
        <ele>403.6</ele>
        <time>2024-06-12T09:15:01Z</time>
      </trkpt>
      <trkpt lat="43.28463" lon="5.83866">
        <ele>403.6</ele>
        <time>2024-06-12T09:15:02Z</time>
      </trkpt>
      <trkpt lat="43.28462" lon="5.83861">
        <ele>403.6</ele>
        <time>2024-06-12T09:15:03Z</time>
      </trkpt>
      <trkpt lat="43.28461" lon="5.83852">
        <ele>403.8</ele>
        <time>2024-06-12T09:15:04Z</time>
      </trkpt>
      <trkpt lat="43.2846" lon="5.83849">
        <ele>403.8</ele>
        <time>2024-06-12T09:15:05Z</time>
      </trkpt>
      <trkpt lat="43.28459" lon="5.83843">
        <ele>403.8</ele>
        <time>2024-06-12T09:15:06Z</time>
      </trkpt>
      <trkpt lat="43.28458" lon="5.83833">
        <ele>403.8</ele>
        <time>2024-06-12T09:15:07Z</time>
      </trkpt>
      <trkpt lat="43.28458" lon="5.8383">
        <ele>403.6</ele>
        <time>2024-06-12T09:15:08Z</time>
      </trkpt>
      <trkpt lat="43.28456" lon="5.83821">
        <ele>403.6</ele>
        <time>2024-06-12T09:15:09Z</time>
      </trkpt>
      <trkpt lat="43.28456" lon="5.83818">
        <ele>403.6</ele>
        <time>2024-06-12T09:15:10Z</time>
      </trkpt>
      <trkpt lat="43.28455" lon="5.83811">
        <ele>403.6</ele>
        <time>2024-06-12T09:15:11Z</time>
      </trkpt>
      <trkpt lat="43.28454" lon="5.83802">
        <ele>403.6</ele>
        <time>2024-06-12T09:15:12Z</time>
      </trkpt>
      <trkpt lat="43.28453" lon="5.83799">
        <ele>403.6</ele>
        <time>2024-06-12T09:15:13Z</time>
      </trkpt>
      <trkpt lat="43.28452" lon="5.83793">
        <ele>403.6</ele>
        <time>2024-06-12T09:15:14Z</time>
      </trkpt>
      <trkpt lat="43.28452" lon="5.83786">
        <ele>403.6</ele>
        <time>2024-06-12T09:15:15Z</time>
      </trkpt>
      <trkpt lat="43.2845" lon="5.83777">
        <ele>403.6</ele>
        <time>2024-06-12T09:15:16Z</time>
      </trkpt>
      <trkpt lat="43.2845" lon="5.83774">
        <ele>403.8</ele>
        <time>2024-06-12T09:15:17Z</time>
      </trkpt>
      <trkpt lat="43.28449" lon="5.83764">
        <ele>403.8</ele>
        <time>2024-06-12T09:15:18Z</time>
      </trkpt>
      <trkpt lat="43.28449" lon="5.83761">
        <ele>403.8</ele>
        <time>2024-06-12T09:15:19Z</time>
      </trkpt>
      <trkpt lat="43.28448" lon="5.83751">
        <ele>404</ele>
        <time>2024-06-12T09:15:20Z</time>
      </trkpt>
      <trkpt lat="43.28448" lon="5.83748">
        <ele>404</ele>
        <time>2024-06-12T09:15:21Z</time>
      </trkpt>
      <trkpt lat="43.28447" lon="5.83739">
        <ele>404</ele>
        <time>2024-06-12T09:15:22Z</time>
      </trkpt>
      <trkpt lat="43.28446" lon="5.83736">
        <ele>404</ele>
        <time>2024-06-12T09:15:23Z</time>
      </trkpt>
      <trkpt lat="43.28445" lon="5.83727">
        <ele>403.8</ele>
        <time>2024-06-12T09:15:24Z</time>
      </trkpt>
      <trkpt lat="43.28445" lon="5.83724">
        <ele>403.8</ele>
        <time>2024-06-12T09:15:25Z</time>
      </trkpt>
      <trkpt lat="43.28443" lon="5.83714">
        <ele>403.6</ele>
        <time>2024-06-12T09:15:26Z</time>
      </trkpt>
      <trkpt lat="43.28443" lon="5.83711">
        <ele>403.6</ele>
        <time>2024-06-12T09:15:27Z</time>
      </trkpt>
      <trkpt lat="43.28442" lon="5.83701">
        <ele>403.6</ele>
        <time>2024-06-12T09:15:28Z</time>
      </trkpt>
      <trkpt lat="43.28442" lon="5.83698">
        <ele>403.6</ele>
        <time>2024-06-12T09:15:29Z</time>
      </trkpt>
      <trkpt lat="43.28441" lon="5.83692">
        <ele>403.4</ele>
        <time>2024-06-12T09:15:30Z</time>
      </trkpt>
      <trkpt lat="43.2844" lon="5.83686">
        <ele>403.4</ele>
        <time>2024-06-12T09:15:31Z</time>
      </trkpt>
      <trkpt lat="43.28439" lon="5.8368">
        <ele>403.4</ele>
        <time>2024-06-12T09:15:32Z</time>
      </trkpt>
      <trkpt lat="43.28438" lon="5.83674">
        <ele>403.2</ele>
        <time>2024-06-12T09:15:33Z</time>
      </trkpt>
      <trkpt lat="43.28437" lon="5.83668">
        <ele>403.2</ele>
        <time>2024-06-12T09:15:34Z</time>
      </trkpt>
      <trkpt lat="43.28435" lon="5.83659">
        <ele>403.2</ele>
        <time>2024-06-12T09:15:35Z</time>
      </trkpt>
      <trkpt lat="43.28434" lon="5.83656">
        <ele>403.2</ele>
        <time>2024-06-12T09:15:36Z</time>
      </trkpt>
      <trkpt lat="43.28433" lon="5.83651">
        <ele>403.2</ele>
        <time>2024-06-12T09:15:37Z</time>
      </trkpt>
      <trkpt lat="43.28431" lon="5.83641">
        <ele>403.2</ele>
        <time>2024-06-12T09:15:38Z</time>
      </trkpt>
      <trkpt lat="43.28431" lon="5.83638">
        <ele>403.2</ele>
        <time>2024-06-12T09:15:39Z</time>
      </trkpt>
      <trkpt lat="43.28429" lon="5.83629">
        <ele>402.8</ele>
        <time>2024-06-12T09:15:40Z</time>
      </trkpt>
      <trkpt lat="43.28428" lon="5.83626">
        <ele>402.8</ele>
        <time>2024-06-12T09:15:41Z</time>
      </trkpt>
      <trkpt lat="43.28427" lon="5.8362">
        <ele>402.8</ele>
        <time>2024-06-12T09:15:42Z</time>
      </trkpt>
      <trkpt lat="43.28425" lon="5.83611">
        <ele>402.6</ele>
        <time>2024-06-12T09:15:43Z</time>
      </trkpt>
      <trkpt lat="43.28424" lon="5.83608">
        <ele>402.4</ele>
        <time>2024-06-12T09:15:44Z</time>
      </trkpt>
      <trkpt lat="43.28422" lon="5.83599">
        <ele>402.4</ele>
        <time>2024-06-12T09:15:45Z</time>
      </trkpt>
      <trkpt lat="43.28421" lon="5.83596">
        <ele>402.4</ele>
        <time>2024-06-12T09:15:46Z</time>
      </trkpt>
      <trkpt lat="43.2842" lon="5.83589">
        <ele>402</ele>
        <time>2024-06-12T09:15:47Z</time>
      </trkpt>
      <trkpt lat="43.28418" lon="5.8358">
        <ele>401.8</ele>
        <time>2024-06-12T09:15:48Z</time>
      </trkpt>
      <trkpt lat="43.28417" lon="5.83577">
        <ele>401.8</ele>
        <time>2024-06-12T09:15:49Z</time>
      </trkpt>
      <trkpt lat="43.28415" lon="5.83568">
        <ele>401.8</ele>
        <time>2024-06-12T09:15:50Z</time>
      </trkpt>
      <trkpt lat="43.28414" lon="5.83565">
        <ele>401.8</ele>
        <time>2024-06-12T09:15:51Z</time>
      </trkpt>
      <trkpt lat="43.28413" lon="5.83558">
        <ele>401.2</ele>
        <time>2024-06-12T09:15:52Z</time>
      </trkpt>
      <trkpt lat="43.28411" lon="5.83552">
        <ele>401.2</ele>
        <time>2024-06-12T09:15:53Z</time>
      </trkpt>
      <trkpt lat="43.28409" lon="5.83543">
        <ele>401.2</ele>
        <time>2024-06-12T09:15:54Z</time>
      </trkpt>
      <trkpt lat="43.28408" lon="5.8354">
        <ele>401.2</ele>
        <time>2024-06-12T09:15:55Z</time>
      </trkpt>
      <trkpt lat="43.28407" lon="5.83534">
        <ele>401</ele>
        <time>2024-06-12T09:15:56Z</time>
      </trkpt>
      <trkpt lat="43.28405" lon="5.83524">
        <ele>400.8</ele>
        <time>2024-06-12T09:15:57Z</time>
      </trkpt>
      <trkpt lat="43.28404" lon="5.83521">
        <ele>400.8</ele>
        <time>2024-06-12T09:15:58Z</time>
      </trkpt>
      <trkpt lat="43.28402" lon="5.83511">
        <ele>400.8</ele>
        <time>2024-06-12T09:15:59Z</time>
      </trkpt>
      <trkpt lat="43.28402" lon="5.83508">
        <ele>400.6</ele>
        <time>2024-06-12T09:16:00Z</time>
      </trkpt>
      <trkpt lat="43.284" lon="5.83498">
        <ele>400.6</ele>
        <time>2024-06-12T09:16:01Z</time>
      </trkpt>
      <trkpt lat="43.28399" lon="5.83495">
        <ele>400.6</ele>
        <time>2024-06-12T09:16:02Z</time>
      </trkpt>
      <trkpt lat="43.28398" lon="5.83489">
        <ele>400.6</ele>
        <time>2024-06-12T09:16:03Z</time>
      </trkpt>
      <trkpt lat="43.28396" lon="5.83479">
        <ele>400.6</ele>
        <time>2024-06-12T09:16:04Z</time>
      </trkpt>
      <trkpt lat="43.28395" lon="5.83475">
        <ele>400.6</ele>
        <time>2024-06-12T09:16:05Z</time>
      </trkpt>
      <trkpt lat="43.28393" lon="5.83465">
        <ele>400.6</ele>
        <time>2024-06-12T09:16:06Z</time>
      </trkpt>
      <trkpt lat="43.28393" lon="5.83462">
        <ele>400.6</ele>
        <time>2024-06-12T09:16:07Z</time>
      </trkpt>
      <trkpt lat="43.28392" lon="5.83455">
        <ele>400.6</ele>
        <time>2024-06-12T09:16:08Z</time>
      </trkpt>
      <trkpt lat="43.28391" lon="5.83449">
        <ele>400.8</ele>
        <time>2024-06-12T09:16:09Z</time>
      </trkpt>
      <trkpt lat="43.2839" lon="5.83442">
        <ele>400.8</ele>
        <time>2024-06-12T09:16:10Z</time>
      </trkpt>
      <trkpt lat="43.28388" lon="5.83432">
        <ele>400.8</ele>
        <time>2024-06-12T09:16:11Z</time>
      </trkpt>
      <trkpt lat="43.28387" lon="5.83429">
        <ele>400.8</ele>
        <time>2024-06-12T09:16:12Z</time>
      </trkpt>
      <trkpt lat="43.28386" lon="5.83422">
        <ele>401.2</ele>
        <time>2024-06-12T09:16:13Z</time>
      </trkpt>
      <trkpt lat="43.28385" lon="5.83415">
        <ele>401.2</ele>
        <time>2024-06-12T09:16:14Z</time>
      </trkpt>
      <trkpt lat="43.28384" lon="5.83409">
        <ele>401.2</ele>
        <time>2024-06-12T09:16:15Z</time>
      </trkpt>
      <trkpt lat="43.28383" lon="5.83399">
        <ele>401.2</ele>
        <time>2024-06-12T09:16:16Z</time>
      </trkpt>
      <trkpt lat="43.28382" lon="5.83395">
        <ele>401.2</ele>
        <time>2024-06-12T09:16:17Z</time>
      </trkpt>
      <trkpt lat="43.28381" lon="5.83385">
        <ele>401.6</ele>
        <time>2024-06-12T09:16:18Z</time>
      </trkpt>
      <trkpt lat="43.2838" lon="5.83382">
        <ele>401.6</ele>
        <time>2024-06-12T09:16:19Z</time>
      </trkpt>
      <trkpt lat="43.2838" lon="5.83375">
        <ele>401.8</ele>
        <time>2024-06-12T09:16:20Z</time>
      </trkpt>
      <trkpt lat="43.28379" lon="5.83369">
        <ele>401.8</ele>
        <time>2024-06-12T09:16:21Z</time>
      </trkpt>
      <trkpt lat="43.28379" lon="5.83359">
        <ele>401.8</ele>
        <time>2024-06-12T09:16:22Z</time>
      </trkpt>
      <trkpt lat="43.28378" lon="5.83355">
        <ele>402.4</ele>
        <time>2024-06-12T09:16:23Z</time>
      </trkpt>
      <trkpt lat="43.28378" lon="5.83345">
        <ele>402.4</ele>
        <time>2024-06-12T09:16:24Z</time>
      </trkpt>
      <trkpt lat="43.28378" lon="5.83342">
        <ele>402.4</ele>
        <time>2024-06-12T09:16:25Z</time>
      </trkpt>
      <trkpt lat="43.28378" lon="5.83336">
        <ele>402.4</ele>
        <time>2024-06-12T09:16:26Z</time>
      </trkpt>
      <trkpt lat="43.28377" lon="5.83326">
        <ele>402.4</ele>
        <time>2024-06-12T09:16:27Z</time>
      </trkpt>
      <trkpt lat="43.28377" lon="5.83323">
        <ele>403</ele>
        <time>2024-06-12T09:16:28Z</time>
      </trkpt>
      <trkpt lat="43.28377" lon="5.83313">
        <ele>403.4</ele>
        <time>2024-06-12T09:16:29Z</time>
      </trkpt>
      <trkpt lat="43.28376" lon="5.8331">
        <ele>403.4</ele>
        <time>2024-06-12T09:16:30Z</time>
      </trkpt>
      <trkpt lat="43.28376" lon="5.83303">
        <ele>403.4</ele>
        <time>2024-06-12T09:16:31Z</time>
      </trkpt>
      <trkpt lat="43.28375" lon="5.83293">
        <ele>403.8</ele>
        <time>2024-06-12T09:16:32Z</time>
      </trkpt>
      <trkpt lat="43.28375" lon="5.8329">
        <ele>404</ele>
        <time>2024-06-12T09:16:33Z</time>
      </trkpt>
      <trkpt lat="43.28375" lon="5.8328">
        <ele>404</ele>
        <time>2024-06-12T09:16:34Z</time>
      </trkpt>
      <trkpt lat="43.28375" lon="5.83277">
        <ele>404</ele>
        <time>2024-06-12T09:16:35Z</time>
      </trkpt>
      <trkpt lat="43.28374" lon="5.83267">
        <ele>404.4</ele>
        <time>2024-06-12T09:16:36Z</time>
      </trkpt>
      <trkpt lat="43.28374" lon="5.83264">
        <ele>404.6</ele>
        <time>2024-06-12T09:16:37Z</time>
      </trkpt>
      <trkpt lat="43.28374" lon="5.83258">
        <ele>404.6</ele>
        <time>2024-06-12T09:16:38Z</time>
      </trkpt>
      <trkpt lat="43.28373" lon="5.83248">
        <ele>404.6</ele>
        <time>2024-06-12T09:16:39Z</time>
      </trkpt>
      <trkpt lat="43.28373" lon="5.83244">
        <ele>404.6</ele>
        <time>2024-06-12T09:16:40Z</time>
      </trkpt>
      <trkpt lat="43.28372" lon="5.83234">
        <ele>404.6</ele>
        <time>2024-06-12T09:16:41Z</time>
      </trkpt>
      <trkpt lat="43.28372" lon="5.83231">
        <ele>405</ele>
        <time>2024-06-12T09:16:42Z</time>
      </trkpt>
      <trkpt lat="43.28372" lon="5.83224">
        <ele>405</ele>
        <time>2024-06-12T09:16:43Z</time>
      </trkpt>
      <trkpt lat="43.28371" lon="5.83215">
        <ele>405</ele>
        <time>2024-06-12T09:16:44Z</time>
      </trkpt>
      <trkpt lat="43.28371" lon="5.83211">
        <ele>405</ele>
        <time>2024-06-12T09:16:45Z</time>
      </trkpt>
      <trkpt lat="43.2837" lon="5.83205">
        <ele>405.2</ele>
        <time>2024-06-12T09:16:46Z</time>
      </trkpt>
      <trkpt lat="43.2837" lon="5.83198">
        <ele>405.2</ele>
        <time>2024-06-12T09:16:47Z</time>
      </trkpt>
      <trkpt lat="43.2837" lon="5.83191">
        <ele>405.2</ele>
        <time>2024-06-12T09:16:48Z</time>
      </trkpt>
      <trkpt lat="43.28369" lon="5.83184">
        <ele>405.2</ele>
        <time>2024-06-12T09:16:49Z</time>
      </trkpt>
      <trkpt lat="43.28369" lon="5.83178">
        <ele>405.4</ele>
        <time>2024-06-12T09:16:50Z</time>
      </trkpt>
      <trkpt lat="43.28368" lon="5.83168">
        <ele>405.4</ele>
        <time>2024-06-12T09:16:51Z</time>
      </trkpt>
      <trkpt lat="43.28368" lon="5.83164">
        <ele>405.4</ele>
        <time>2024-06-12T09:16:52Z</time>
      </trkpt>
      <trkpt lat="43.28368" lon="5.83154">
        <ele>405.4</ele>
        <time>2024-06-12T09:16:53Z</time>
      </trkpt>
      <trkpt lat="43.28367" lon="5.8315">
        <ele>405.4</ele>
        <time>2024-06-12T09:16:54Z</time>
      </trkpt>
      <trkpt lat="43.28367" lon="5.8314">
        <ele>405.6</ele>
        <time>2024-06-12T09:16:55Z</time>
      </trkpt>
      <trkpt lat="43.28367" lon="5.83136">
        <ele>405.6</ele>
        <time>2024-06-12T09:16:56Z</time>
      </trkpt>
      <trkpt lat="43.28366" lon="5.83125">
        <ele>405.6</ele>
        <time>2024-06-12T09:16:57Z</time>
      </trkpt>
      <trkpt lat="43.28366" lon="5.83121">
        <ele>405.6</ele>
        <time>2024-06-12T09:16:58Z</time>
      </trkpt>
      <trkpt lat="43.28365" lon="5.83111">
        <ele>405.6</ele>
        <time>2024-06-12T09:16:59Z</time>
      </trkpt>
      <trkpt lat="43.28365" lon="5.83107">
        <ele>405.6</ele>
        <time>2024-06-12T09:17:00Z</time>
      </trkpt>
      <trkpt lat="43.28365" lon="5.83099">
        <ele>405.6</ele>
        <time>2024-06-12T09:17:01Z</time>
      </trkpt>
      <trkpt lat="43.28365" lon="5.83088">
        <ele>405.6</ele>
        <time>2024-06-12T09:17:02Z</time>
      </trkpt>
      <trkpt lat="43.28365" lon="5.83084">
        <ele>405.6</ele>
        <time>2024-06-12T09:17:03Z</time>
      </trkpt>
      <trkpt lat="43.28364" lon="5.83077">
        <ele>406</ele>
        <time>2024-06-12T09:17:04Z</time>
      </trkpt>
      <trkpt lat="43.28364" lon="5.83066">
        <ele>405.8</ele>
        <time>2024-06-12T09:17:05Z</time>
      </trkpt>
      <trkpt lat="43.28364" lon="5.83062">
        <ele>405.8</ele>
        <time>2024-06-12T09:17:06Z</time>
      </trkpt>
      <trkpt lat="43.28363" lon="5.83051">
        <ele>405.8</ele>
        <time>2024-06-12T09:17:07Z</time>
      </trkpt>
      <trkpt lat="43.28363" lon="5.83047">
        <ele>406</ele>
        <time>2024-06-12T09:17:08Z</time>
      </trkpt>
      <trkpt lat="43.28363" lon="5.83036">
        <ele>405.8</ele>
        <time>2024-06-12T09:17:09Z</time>
      </trkpt>
      <trkpt lat="43.28362" lon="5.83032">
        <ele>405.8</ele>
        <time>2024-06-12T09:17:10Z</time>
      </trkpt>
      <trkpt lat="43.28362" lon="5.83021">
        <ele>405.8</ele>
        <time>2024-06-12T09:17:11Z</time>
      </trkpt>
      <trkpt lat="43.28362" lon="5.83018">
        <ele>406.2</ele>
        <time>2024-06-12T09:17:12Z</time>
      </trkpt>
      <trkpt lat="43.28361" lon="5.83007">
        <ele>406</ele>
        <time>2024-06-12T09:17:13Z</time>
      </trkpt>
      <trkpt lat="43.28361" lon="5.83003">
        <ele>406</ele>
        <time>2024-06-12T09:17:14Z</time>
      </trkpt>
      <trkpt lat="43.2836" lon="5.82993">
        <ele>406</ele>
        <time>2024-06-12T09:17:15Z</time>
      </trkpt>
      <trkpt lat="43.2836" lon="5.82989">
        <ele>406.4</ele>
        <time>2024-06-12T09:17:16Z</time>
      </trkpt>
      <trkpt lat="43.28359" lon="5.82979">
        <ele>406.2</ele>
        <time>2024-06-12T09:17:17Z</time>
      </trkpt>
      <trkpt lat="43.28359" lon="5.82975">
        <ele>406.2</ele>
        <time>2024-06-12T09:17:18Z</time>
      </trkpt>
      <trkpt lat="43.28358" lon="5.82965">
        <ele>406.2</ele>
        <time>2024-06-12T09:17:19Z</time>
      </trkpt>
      <trkpt lat="43.28358" lon="5.82961">
        <ele>406.2</ele>
        <time>2024-06-12T09:17:20Z</time>
      </trkpt>
      <trkpt lat="43.28357" lon="5.82955">
        <ele>406.2</ele>
        <time>2024-06-12T09:17:21Z</time>
      </trkpt>
      <trkpt lat="43.28356" lon="5.82944">
        <ele>406.4</ele>
        <time>2024-06-12T09:17:22Z</time>
      </trkpt>
      <trkpt lat="43.28356" lon="5.82941">
        <ele>406.4</ele>
        <time>2024-06-12T09:17:23Z</time>
      </trkpt>
      <trkpt lat="43.28355" lon="5.82934">
        <ele>406.4</ele>
        <time>2024-06-12T09:17:24Z</time>
      </trkpt>
      <trkpt lat="43.28353" lon="5.82924">
        <ele>406</ele>
        <time>2024-06-12T09:17:25Z</time>
      </trkpt>
      <trkpt lat="43.28352" lon="5.8292">
        <ele>405.8</ele>
        <time>2024-06-12T09:17:26Z</time>
      </trkpt>
      <trkpt lat="43.28349" lon="5.8291">
        <ele>405.8</ele>
        <time>2024-06-12T09:17:27Z</time>
      </trkpt>
      <trkpt lat="43.28348" lon="5.82907">
        <ele>405.8</ele>
        <time>2024-06-12T09:17:28Z</time>
      </trkpt>
      <trkpt lat="43.28345" lon="5.82897">
        <ele>405.4</ele>
        <time>2024-06-12T09:17:29Z</time>
      </trkpt>
      <trkpt lat="43.28344" lon="5.82894">
        <ele>405.4</ele>
        <time>2024-06-12T09:17:30Z</time>
      </trkpt>
      <trkpt lat="43.28341" lon="5.82888">
        <ele>405.4</ele>
        <time>2024-06-12T09:17:31Z</time>
      </trkpt>
      <trkpt lat="43.28339" lon="5.82882">
        <ele>405.4</ele>
        <time>2024-06-12T09:17:32Z</time>
      </trkpt>
      <trkpt lat="43.28334" lon="5.82872">
        <ele>405.4</ele>
        <time>2024-06-12T09:17:33Z</time>
      </trkpt>
      <trkpt lat="43.28333" lon="5.82869">
        <ele>404.8</ele>
        <time>2024-06-12T09:17:34Z</time>
      </trkpt>
      <trkpt lat="43.2833" lon="5.82863">
        <ele>404.6</ele>
        <time>2024-06-12T09:17:35Z</time>
      </trkpt>
      <trkpt lat="43.28325" lon="5.82854">
        <ele>404.6</ele>
        <time>2024-06-12T09:17:36Z</time>
      </trkpt>
      <trkpt lat="43.28324" lon="5.82852">
        <ele>404.6</ele>
        <time>2024-06-12T09:17:37Z</time>
      </trkpt>
      <trkpt lat="43.28321" lon="5.82846">
        <ele>404</ele>
        <time>2024-06-12T09:17:38Z</time>
      </trkpt>
      <trkpt lat="43.28317" lon="5.8284">
        <ele>403.8</ele>
        <time>2024-06-12T09:17:39Z</time>
      </trkpt>
      <trkpt lat="43.28314" lon="5.82834">
        <ele>403.8</ele>
        <time>2024-06-12T09:17:40Z</time>
      </trkpt>
      <trkpt lat="43.28311" lon="5.82829">
        <ele>403.8</ele>
        <time>2024-06-12T09:17:41Z</time>
      </trkpt>
      <trkpt lat="43.28308" lon="5.82823">
        <ele>403.8</ele>
        <time>2024-06-12T09:17:42Z</time>
      </trkpt>
      <trkpt lat="43.28305" lon="5.82818">
        <ele>403.4</ele>
        <time>2024-06-12T09:17:43Z</time>
      </trkpt>
      <trkpt lat="43.28301" lon="5.82812">
        <ele>403.4</ele>
        <time>2024-06-12T09:17:44Z</time>
      </trkpt>
      <trkpt lat="43.28298" lon="5.82807">
        <ele>403.2</ele>
        <time>2024-06-12T09:17:45Z</time>
      </trkpt>
      <trkpt lat="43.28295" lon="5.82801">
        <ele>403.2</ele>
        <time>2024-06-12T09:17:46Z</time>
      </trkpt>
      <trkpt lat="43.28292" lon="5.82796">
        <ele>403.2</ele>
        <time>2024-06-12T09:17:47Z</time>
      </trkpt>
      <trkpt lat="43.28287" lon="5.82788">
        <ele>402.6</ele>
        <time>2024-06-12T09:17:48Z</time>
      </trkpt>
      <trkpt lat="43.28286" lon="5.82785">
        <ele>402.4</ele>
        <time>2024-06-12T09:17:49Z</time>
      </trkpt>
      <trkpt lat="43.28281" lon="5.82777">
        <ele>402.4</ele>
        <time>2024-06-12T09:17:50Z</time>
      </trkpt>
      <trkpt lat="43.2828" lon="5.82774">
        <ele>402.4</ele>
        <time>2024-06-12T09:17:51Z</time>
      </trkpt>
      <trkpt lat="43.28275" lon="5.82766">
        <ele>402.4</ele>
        <time>2024-06-12T09:17:52Z</time>
      </trkpt>
      <trkpt lat="43.28274" lon="5.82764">
        <ele>402.4</ele>
        <time>2024-06-12T09:17:53Z</time>
      </trkpt>
      <trkpt lat="43.28269" lon="5.82756">
        <ele>401.6</ele>
        <time>2024-06-12T09:17:54Z</time>
      </trkpt>
      <trkpt lat="43.28268" lon="5.82754">
        <ele>401.6</ele>
        <time>2024-06-12T09:17:55Z</time>
      </trkpt>
      <trkpt lat="43.28265" lon="5.82749">
        <ele>401.6</ele>
        <time>2024-06-12T09:17:56Z</time>
      </trkpt>
      <trkpt lat="43.2826" lon="5.82741">
        <ele>401.4</ele>
        <time>2024-06-12T09:17:57Z</time>
      </trkpt>
      <trkpt lat="43.28259" lon="5.82738">
        <ele>401.4</ele>
        <time>2024-06-12T09:17:58Z</time>
      </trkpt>
      <trkpt lat="43.28255" lon="5.82731">
        <ele>401.4</ele>
        <time>2024-06-12T09:17:59Z</time>
      </trkpt>
      <trkpt lat="43.28253" lon="5.82729">
        <ele>401.4</ele>
        <time>2024-06-12T09:18:00Z</time>
      </trkpt>
      <trkpt lat="43.28249" lon="5.82722">
        <ele>401.4</ele>
        <time>2024-06-12T09:18:01Z</time>
      </trkpt>
      <trkpt lat="43.28248" lon="5.8272">
        <ele>401.2</ele>
        <time>2024-06-12T09:18:02Z</time>
      </trkpt>
      <trkpt lat="43.28245" lon="5.82715">
        <ele>401.2</ele>
        <time>2024-06-12T09:18:03Z</time>
      </trkpt>
      <trkpt lat="43.28241" lon="5.82708">
        <ele>401.2</ele>
        <time>2024-06-12T09:18:04Z</time>
      </trkpt>
      <trkpt lat="43.2824" lon="5.82706">
        <ele>401.2</ele>
        <time>2024-06-12T09:18:05Z</time>
      </trkpt>
      <trkpt lat="43.28237" lon="5.82701">
        <ele>401.2</ele>
        <time>2024-06-12T09:18:06Z</time>
      </trkpt>
      <trkpt lat="43.28234" lon="5.82694">
        <ele>401</ele>
        <time>2024-06-12T09:18:07Z</time>
      </trkpt>
      <trkpt lat="43.28232" lon="5.82692">
        <ele>401</ele>
        <time>2024-06-12T09:18:08Z</time>
      </trkpt>
      <trkpt lat="43.2823" lon="5.82688">
        <ele>401</ele>
        <time>2024-06-12T09:18:09Z</time>
      </trkpt>
      <trkpt lat="43.28226" lon="5.82681">
        <ele>401</ele>
        <time>2024-06-12T09:18:10Z</time>
      </trkpt>
      <trkpt lat="43.28225" lon="5.82679">
        <ele>401.6</ele>
        <time>2024-06-12T09:18:11Z</time>
      </trkpt>
      <trkpt lat="43.28223" lon="5.82674">
        <ele>401.6</ele>
        <time>2024-06-12T09:18:12Z</time>
      </trkpt>
      <trkpt lat="43.2822" lon="5.8267">
        <ele>401.6</ele>
        <time>2024-06-12T09:18:13Z</time>
      </trkpt>
      <trkpt lat="43.28218" lon="5.82665">
        <ele>402.6</ele>
        <time>2024-06-12T09:18:14Z</time>
      </trkpt>
      <trkpt lat="43.28214" lon="5.82658">
        <ele>402.6</ele>
        <time>2024-06-12T09:18:15Z</time>
      </trkpt>
      <trkpt lat="43.28213" lon="5.82656">
        <ele>402.6</ele>
        <time>2024-06-12T09:18:16Z</time>
      </trkpt>
      <trkpt lat="43.28208" lon="5.82649">
        <ele>402.6</ele>
        <time>2024-06-12T09:18:17Z</time>
      </trkpt>
      <trkpt lat="43.28207" lon="5.82647">
        <ele>402.6</ele>
        <time>2024-06-12T09:18:18Z</time>
      </trkpt>
      <trkpt lat="43.28203" lon="5.82641">
        <ele>403.4</ele>
        <time>2024-06-12T09:18:19Z</time>
      </trkpt>
      <trkpt lat="43.28202" lon="5.82639">
        <ele>403.4</ele>
        <time>2024-06-12T09:18:20Z</time>
      </trkpt>
      <trkpt lat="43.282" lon="5.82635">
        <ele>403.4</ele>
        <time>2024-06-12T09:18:21Z</time>
      </trkpt>
      <trkpt lat="43.28197" lon="5.82631">
        <ele>403.4</ele>
        <time>2024-06-12T09:18:22Z</time>
      </trkpt>
      <trkpt lat="43.28195" lon="5.82627">
        <ele>403.6</ele>
        <time>2024-06-12T09:18:23Z</time>
      </trkpt>
      <trkpt lat="43.28193" lon="5.82623">
        <ele>403.8</ele>
        <time>2024-06-12T09:18:24Z</time>
      </trkpt>
      <trkpt lat="43.28191" lon="5.82619">
        <ele>403.8</ele>
        <time>2024-06-12T09:18:25Z</time>
      </trkpt>
      <trkpt lat="43.28188" lon="5.82615">
        <ele>403.8</ele>
        <time>2024-06-12T09:18:26Z</time>
      </trkpt>
      <trkpt lat="43.28186" lon="5.82611">
        <ele>403.8</ele>
        <time>2024-06-12T09:18:27Z</time>
      </trkpt>
      <trkpt lat="43.28183" lon="5.82607">
        <ele>403.8</ele>
        <time>2024-06-12T09:18:28Z</time>
      </trkpt>
      <trkpt lat="43.2818" lon="5.826">
        <ele>403.8</ele>
        <time>2024-06-12T09:18:29Z</time>
      </trkpt>
      <trkpt lat="43.28178" lon="5.82598">
        <ele>403.8</ele>
        <time>2024-06-12T09:18:30Z</time>
      </trkpt>
      <trkpt lat="43.28175" lon="5.82591">
        <ele>403.8</ele>
        <time>2024-06-12T09:18:31Z</time>
      </trkpt>
      <trkpt lat="43.28174" lon="5.82589">
        <ele>403.8</ele>
        <time>2024-06-12T09:18:32Z</time>
      </trkpt>
      <trkpt lat="43.2817" lon="5.82582">
        <ele>403.8</ele>
        <time>2024-06-12T09:18:33Z</time>
      </trkpt>
      <trkpt lat="43.28169" lon="5.8258">
        <ele>404</ele>
        <time>2024-06-12T09:18:34Z</time>
      </trkpt>
      <trkpt lat="43.28165" lon="5.82574">
        <ele>404</ele>
        <time>2024-06-12T09:18:35Z</time>
      </trkpt>
      <trkpt lat="43.28163" lon="5.82572">
        <ele>404</ele>
        <time>2024-06-12T09:18:36Z</time>
      </trkpt>
      <trkpt lat="43.2816" lon="5.82565">
        <ele>404.2</ele>
        <time>2024-06-12T09:18:37Z</time>
      </trkpt>
      <trkpt lat="43.28159" lon="5.82563">
        <ele>404.4</ele>
        <time>2024-06-12T09:18:38Z</time>
      </trkpt>
      <trkpt lat="43.28156" lon="5.82559">
        <ele>404.4</ele>
        <time>2024-06-12T09:18:39Z</time>
      </trkpt>
      <trkpt lat="43.28153" lon="5.82552">
        <ele>404.4</ele>
        <time>2024-06-12T09:18:40Z</time>
      </trkpt>
      <trkpt lat="43.28152" lon="5.8255">
        <ele>404.4</ele>
        <time>2024-06-12T09:18:41Z</time>
      </trkpt>
      <trkpt lat="43.28148" lon="5.82542">
        <ele>404.6</ele>
        <time>2024-06-12T09:18:42Z</time>
      </trkpt>
      <trkpt lat="43.28147" lon="5.8254">
        <ele>404.4</ele>
        <time>2024-06-12T09:18:43Z</time>
      </trkpt>
      <trkpt lat="43.28144" lon="5.82533">
        <ele>404.4</ele>
        <time>2024-06-12T09:18:44Z</time>
      </trkpt>
      <trkpt lat="43.28143" lon="5.82531">
        <ele>404.4</ele>
        <time>2024-06-12T09:18:45Z</time>
      </trkpt>
      <trkpt lat="43.28141" lon="5.82526">
        <ele>404.4</ele>
        <time>2024-06-12T09:18:46Z</time>
      </trkpt>
      <trkpt lat="43.28139" lon="5.8252">
        <ele>404.6</ele>
        <time>2024-06-12T09:18:47Z</time>
      </trkpt>
      <trkpt lat="43.28137" lon="5.82515">
        <ele>404.6</ele>
        <time>2024-06-12T09:18:48Z</time>
      </trkpt>
      <trkpt lat="43.28136" lon="5.82507">
        <ele>404.6</ele>
        <time>2024-06-12T09:18:49Z</time>
      </trkpt>
      <trkpt lat="43.28135" lon="5.82504">
        <ele>404.6</ele>
        <time>2024-06-12T09:18:50Z</time>
      </trkpt>
      <trkpt lat="43.28134" lon="5.82496">
        <ele>405.2</ele>
        <time>2024-06-12T09:18:51Z</time>
      </trkpt>
      <trkpt lat="43.28133" lon="5.82493">
        <ele>405.4</ele>
        <time>2024-06-12T09:18:52Z</time>
      </trkpt>
      <trkpt lat="43.28132" lon="5.82485">
        <ele>405.4</ele>
        <time>2024-06-12T09:18:53Z</time>
      </trkpt>
      <trkpt lat="43.28132" lon="5.82483">
        <ele>405.4</ele>
        <time>2024-06-12T09:18:54Z</time>
      </trkpt>
      <trkpt lat="43.28131" lon="5.82476">
        <ele>406</ele>
        <time>2024-06-12T09:18:55Z</time>
      </trkpt>
      <trkpt lat="43.2813" lon="5.82473">
        <ele>406.2</ele>
        <time>2024-06-12T09:18:56Z</time>
      </trkpt>
      <trkpt lat="43.2813" lon="5.82468">
        <ele>406.2</ele>
        <time>2024-06-12T09:18:57Z</time>
      </trkpt>
      <trkpt lat="43.28128" lon="5.82461">
        <ele>406.2</ele>
        <time>2024-06-12T09:18:58Z</time>
      </trkpt>
      <trkpt lat="43.28128" lon="5.82458">
        <ele>406.2</ele>
        <time>2024-06-12T09:18:59Z</time>
      </trkpt>
      <trkpt lat="43.28127" lon="5.82451">
        <ele>407.6</ele>
        <time>2024-06-12T09:19:00Z</time>
      </trkpt>
      <trkpt lat="43.28127" lon="5.82448">
        <ele>407.6</ele>
        <time>2024-06-12T09:19:01Z</time>
      </trkpt>
      <trkpt lat="43.28126" lon="5.82444">
        <ele>407.6</ele>
        <time>2024-06-12T09:19:02Z</time>
      </trkpt>
      <trkpt lat="43.28125" lon="5.82437">
        <ele>407.6</ele>
        <time>2024-06-12T09:19:03Z</time>
      </trkpt>
      <trkpt lat="43.28125" lon="5.82434">
        <ele>408.4</ele>
        <time>2024-06-12T09:19:04Z</time>
      </trkpt>
      <trkpt lat="43.28124" lon="5.8243">
        <ele>408.6</ele>
        <time>2024-06-12T09:19:05Z</time>
      </trkpt>
      <trkpt lat="43.28124" lon="5.82426">
        <ele>408.6</ele>
        <time>2024-06-12T09:19:06Z</time>
      </trkpt>
      <trkpt lat="43.28123" lon="5.82421">
        <ele>408.6</ele>
        <time>2024-06-12T09:19:07Z</time>
      </trkpt>
      <trkpt lat="43.28122" lon="5.82417">
        <ele>409.2</ele>
        <time>2024-06-12T09:19:08Z</time>
      </trkpt>
      <trkpt lat="43.28121" lon="5.8241">
        <ele>409.4</ele>
        <time>2024-06-12T09:19:09Z</time>
      </trkpt>
      <trkpt lat="43.2812" lon="5.82408">
        <ele>409.4</ele>
        <time>2024-06-12T09:19:10Z</time>
      </trkpt>
      <trkpt lat="43.28119" lon="5.82401">
        <ele>409.4</ele>
        <time>2024-06-12T09:19:11Z</time>
      </trkpt>
      <trkpt lat="43.28119" lon="5.82399">
        <ele>409.4</ele>
        <time>2024-06-12T09:19:12Z</time>
      </trkpt>
      <trkpt lat="43.28117" lon="5.82391">
        <ele>410</ele>
        <time>2024-06-12T09:19:13Z</time>
      </trkpt>
      <trkpt lat="43.28116" lon="5.82389">
        <ele>410.4</ele>
        <time>2024-06-12T09:19:14Z</time>
      </trkpt>
      <trkpt lat="43.28115" lon="5.82384">
        <ele>410.4</ele>
        <time>2024-06-12T09:19:15Z</time>
      </trkpt>
      <trkpt lat="43.28113" lon="5.82379">
        <ele>410.4</ele>
        <time>2024-06-12T09:19:16Z</time>
      </trkpt>
      <trkpt lat="43.28111" lon="5.82375">
        <ele>410.4</ele>
        <time>2024-06-12T09:19:17Z</time>
      </trkpt>
      <trkpt lat="43.28109" lon="5.82367">
        <ele>410.8</ele>
        <time>2024-06-12T09:19:18Z</time>
      </trkpt>
      <trkpt lat="43.28108" lon="5.82364">
        <ele>411</ele>
        <time>2024-06-12T09:19:19Z</time>
      </trkpt>
      <trkpt lat="43.28106" lon="5.82359">
        <ele>411</ele>
        <time>2024-06-12T09:19:20Z</time>
      </trkpt>
      <trkpt lat="43.28103" lon="5.82351">
        <ele>411</ele>
        <time>2024-06-12T09:19:21Z</time>
      </trkpt>
      <trkpt lat="43.28102" lon="5.82349">
        <ele>411.4</ele>
        <time>2024-06-12T09:19:22Z</time>
      </trkpt>
      <trkpt lat="43.281" lon="5.82341">
        <ele>411.2</ele>
        <time>2024-06-12T09:19:23Z</time>
      </trkpt>
      <trkpt lat="43.28099" lon="5.82338">
        <ele>411.2</ele>
        <time>2024-06-12T09:19:24Z</time>
      </trkpt>
      <trkpt lat="43.28096" lon="5.8233">
        <ele>411.2</ele>
        <time>2024-06-12T09:19:25Z</time>
      </trkpt>
      <trkpt lat="43.28095" lon="5.82328">
        <ele>411.4</ele>
        <time>2024-06-12T09:19:26Z</time>
      </trkpt>
      <trkpt lat="43.28092" lon="5.82319">
        <ele>411.4</ele>
        <time>2024-06-12T09:19:27Z</time>
      </trkpt>
      <trkpt lat="43.28091" lon="5.82317">
        <ele>411.4</ele>
        <time>2024-06-12T09:19:28Z</time>
      </trkpt>
      <trkpt lat="43.2809" lon="5.82311">
        <ele>411.4</ele>
        <time>2024-06-12T09:19:29Z</time>
      </trkpt>
      <trkpt lat="43.28088" lon="5.82306">
        <ele>411.4</ele>
        <time>2024-06-12T09:19:30Z</time>
      </trkpt>
      <trkpt lat="43.28086" lon="5.823">
        <ele>411.4</ele>
        <time>2024-06-12T09:19:31Z</time>
      </trkpt>
      <trkpt lat="43.28083" lon="5.82292">
        <ele>411.6</ele>
        <time>2024-06-12T09:19:32Z</time>
      </trkpt>
      <trkpt lat="43.28082" lon="5.8229">
        <ele>411.6</ele>
        <time>2024-06-12T09:19:33Z</time>
      </trkpt>
      <trkpt lat="43.2808" lon="5.82282">
        <ele>411.6</ele>
        <time>2024-06-12T09:19:34Z</time>
      </trkpt>
      <trkpt lat="43.28079" lon="5.82279">
        <ele>411.6</ele>
        <time>2024-06-12T09:19:35Z</time>
      </trkpt>
      <trkpt lat="43.28077" lon="5.82274">
        <ele>411.6</ele>
        <time>2024-06-12T09:19:36Z</time>
      </trkpt>
      <trkpt lat="43.28075" lon="5.82269">
        <ele>411.6</ele>
        <time>2024-06-12T09:19:37Z</time>
      </trkpt>
      <trkpt lat="43.28074" lon="5.82263">
        <ele>411.6</ele>
        <time>2024-06-12T09:19:38Z</time>
      </trkpt>
      <trkpt lat="43.28072" lon="5.82258">
        <ele>411.6</ele>
        <time>2024-06-12T09:19:39Z</time>
      </trkpt>
      <trkpt lat="43.2807" lon="5.82253">
        <ele>411.4</ele>
        <time>2024-06-12T09:19:40Z</time>
      </trkpt>
      <trkpt lat="43.28068" lon="5.82248">
        <ele>411.4</ele>
        <time>2024-06-12T09:19:41Z</time>
      </trkpt>
      <trkpt lat="43.28066" lon="5.8224">
        <ele>411.4</ele>
        <time>2024-06-12T09:19:42Z</time>
      </trkpt>
      <trkpt lat="43.28065" lon="5.82238">
        <ele>411</ele>
        <time>2024-06-12T09:19:43Z</time>
      </trkpt>
      <trkpt lat="43.28063" lon="5.82233">
        <ele>411</ele>
        <time>2024-06-12T09:19:44Z</time>
      </trkpt>
      <trkpt lat="43.2806" lon="5.82225">
        <ele>411</ele>
        <time>2024-06-12T09:19:45Z</time>
      </trkpt>
      <trkpt lat="43.28059" lon="5.82222">
        <ele>411</ele>
        <time>2024-06-12T09:19:46Z</time>
      </trkpt>
      <trkpt lat="43.28058" lon="5.82216">
        <ele>411</ele>
        <time>2024-06-12T09:19:47Z</time>
      </trkpt>
      <trkpt lat="43.28056" lon="5.82211">
        <ele>411.2</ele>
        <time>2024-06-12T09:19:48Z</time>
      </trkpt>
      <trkpt lat="43.28054" lon="5.82203">
        <ele>411.2</ele>
        <time>2024-06-12T09:19:49Z</time>
      </trkpt>
      <trkpt lat="43.28053" lon="5.82201">
        <ele>411.2</ele>
        <time>2024-06-12T09:19:50Z</time>
      </trkpt>
      <trkpt lat="43.28051" lon="5.82195">
        <ele>411.2</ele>
        <time>2024-06-12T09:19:51Z</time>
      </trkpt>
      <trkpt lat="43.28048" lon="5.82187">
        <ele>411.2</ele>
        <time>2024-06-12T09:19:52Z</time>
      </trkpt>
      <trkpt lat="43.28048" lon="5.82184">
        <ele>411.8</ele>
        <time>2024-06-12T09:19:53Z</time>
      </trkpt>
      <trkpt lat="43.28046" lon="5.82179">
        <ele>411.8</ele>
        <time>2024-06-12T09:19:54Z</time>
      </trkpt>
      <trkpt lat="43.28044" lon="5.82174">
        <ele>411.8</ele>
        <time>2024-06-12T09:19:55Z</time>
      </trkpt>
      <trkpt lat="43.28041" lon="5.82166">
        <ele>411.8</ele>
        <time>2024-06-12T09:19:56Z</time>
      </trkpt>
      <trkpt lat="43.2804" lon="5.82163">
        <ele>411.8</ele>
        <time>2024-06-12T09:19:57Z</time>
      </trkpt>
      <trkpt lat="43.28038" lon="5.82155">
        <ele>411.8</ele>
        <time>2024-06-12T09:19:58Z</time>
      </trkpt>
      <trkpt lat="43.28037" lon="5.82152">
        <ele>412</ele>
        <time>2024-06-12T09:19:59Z</time>
      </trkpt>
      <trkpt lat="43.28035" lon="5.82144">
        <ele>412</ele>
        <time>2024-06-12T09:20:00Z</time>
      </trkpt>
      <trkpt lat="43.28034" lon="5.82141">
        <ele>412</ele>
        <time>2024-06-12T09:20:01Z</time>
      </trkpt>
      <trkpt lat="43.28031" lon="5.82133">
        <ele>412.4</ele>
        <time>2024-06-12T09:20:02Z</time>
      </trkpt>
      <trkpt lat="43.2803" lon="5.8213">
        <ele>412.4</ele>
        <time>2024-06-12T09:20:03Z</time>
      </trkpt>
      <trkpt lat="43.28027" lon="5.82122">
        <ele>412.4</ele>
        <time>2024-06-12T09:20:04Z</time>
      </trkpt>
      <trkpt lat="43.28026" lon="5.82119">
        <ele>412.4</ele>
        <time>2024-06-12T09:20:05Z</time>
      </trkpt>
      <trkpt lat="43.28023" lon="5.82111">
        <ele>412.6</ele>
        <time>2024-06-12T09:20:06Z</time>
      </trkpt>
      <trkpt lat="43.28022" lon="5.82108">
        <ele>412.6</ele>
        <time>2024-06-12T09:20:07Z</time>
      </trkpt>
      <trkpt lat="43.2802" lon="5.821">
        <ele>412.6</ele>
        <time>2024-06-12T09:20:08Z</time>
      </trkpt>
      <trkpt lat="43.28019" lon="5.82097">
        <ele>412.6</ele>
        <time>2024-06-12T09:20:09Z</time>
      </trkpt>
      <trkpt lat="43.28016" lon="5.82089">
        <ele>412.6</ele>
        <time>2024-06-12T09:20:10Z</time>
      </trkpt>
      <trkpt lat="43.28015" lon="5.82086">
        <ele>412.6</ele>
        <time>2024-06-12T09:20:11Z</time>
      </trkpt>
      <trkpt lat="43.28013" lon="5.82081">
        <ele>412.8</ele>
        <time>2024-06-12T09:20:12Z</time>
      </trkpt>
      <trkpt lat="43.2801" lon="5.82073">
        <ele>412.8</ele>
        <time>2024-06-12T09:20:13Z</time>
      </trkpt>
      <trkpt lat="43.28009" lon="5.82071">
        <ele>412.8</ele>
        <time>2024-06-12T09:20:14Z</time>
      </trkpt>
      <trkpt lat="43.28007" lon="5.82066">
        <ele>412.8</ele>
        <time>2024-06-12T09:20:15Z</time>
      </trkpt>
      <trkpt lat="43.28004" lon="5.82059">
        <ele>412.8</ele>
        <time>2024-06-12T09:20:16Z</time>
      </trkpt>
      <trkpt lat="43.28003" lon="5.82056">
        <ele>412.8</ele>
        <time>2024-06-12T09:20:17Z</time>
      </trkpt>
      <trkpt lat="43.27999" lon="5.82049">
        <ele>412.8</ele>
        <time>2024-06-12T09:20:18Z</time>
      </trkpt>
      <trkpt lat="43.27998" lon="5.82046">
        <ele>412.8</ele>
        <time>2024-06-12T09:20:19Z</time>
      </trkpt>
      <trkpt lat="43.27996" lon="5.82041">
        <ele>413</ele>
        <time>2024-06-12T09:20:20Z</time>
      </trkpt>
      <trkpt lat="43.27993" lon="5.82037">
        <ele>412.8</ele>
        <time>2024-06-12T09:20:21Z</time>
      </trkpt>
      <trkpt lat="43.2799" lon="5.82033">
        <ele>412.8</ele>
        <time>2024-06-12T09:20:22Z</time>
      </trkpt>
      <trkpt lat="43.27986" lon="5.82026">
        <ele>412.8</ele>
        <time>2024-06-12T09:20:23Z</time>
      </trkpt>
      <trkpt lat="43.27985" lon="5.82024">
        <ele>413</ele>
        <time>2024-06-12T09:20:24Z</time>
      </trkpt>
      <trkpt lat="43.27981" lon="5.82018">
        <ele>413.2</ele>
        <time>2024-06-12T09:20:25Z</time>
      </trkpt>
      <trkpt lat="43.2798" lon="5.82016">
        <ele>413.2</ele>
        <time>2024-06-12T09:20:26Z</time>
      </trkpt>
      <trkpt lat="43.27975" lon="5.82011">
        <ele>413.2</ele>
        <time>2024-06-12T09:20:27Z</time>
      </trkpt>
      <trkpt lat="43.27973" lon="5.82009">
        <ele>413.2</ele>
        <time>2024-06-12T09:20:28Z</time>
      </trkpt>
      <trkpt lat="43.2797" lon="5.82005">
        <ele>413.2</ele>
        <time>2024-06-12T09:20:29Z</time>
      </trkpt>
      <trkpt lat="43.27968" lon="5.82">
        <ele>413.8</ele>
        <time>2024-06-12T09:20:30Z</time>
      </trkpt>
      <trkpt lat="43.27965" lon="5.81996">
        <ele>413.8</ele>
        <time>2024-06-12T09:20:31Z</time>
      </trkpt>
      <trkpt lat="43.27963" lon="5.81993">
        <ele>413.8</ele>
        <time>2024-06-12T09:20:32Z</time>
      </trkpt>
      <trkpt lat="43.27961" lon="5.8199">
        <ele>413.8</ele>
        <time>2024-06-12T09:20:33Z</time>
      </trkpt>
      <trkpt lat="43.27958" lon="5.81986">
        <ele>414.2</ele>
        <time>2024-06-12T09:20:34Z</time>
      </trkpt>
      <trkpt lat="43.27956" lon="5.81983">
        <ele>414.2</ele>
        <time>2024-06-12T09:20:35Z</time>
      </trkpt>
      <trkpt lat="43.27953" lon="5.8198">
        <ele>414.2</ele>
        <time>2024-06-12T09:20:36Z</time>
      </trkpt>
      <trkpt lat="43.27951" lon="5.81977">
        <ele>414.2</ele>
        <time>2024-06-12T09:20:37Z</time>
      </trkpt>
      <trkpt lat="43.27948" lon="5.81974">
        <ele>414.4</ele>
        <time>2024-06-12T09:20:38Z</time>
      </trkpt>
      <trkpt lat="43.27945" lon="5.81969">
        <ele>414.6</ele>
        <time>2024-06-12T09:20:39Z</time>
      </trkpt>
      <trkpt lat="43.27944" lon="5.81967">
        <ele>414.6</ele>
        <time>2024-06-12T09:20:40Z</time>
      </trkpt>
      <trkpt lat="43.27941" lon="5.81964">
        <ele>414.6</ele>
        <time>2024-06-12T09:20:41Z</time>
      </trkpt>
      <trkpt lat="43.27939" lon="5.8196">
        <ele>414.6</ele>
        <time>2024-06-12T09:20:42Z</time>
      </trkpt>
      <trkpt lat="43.27937" lon="5.81957">
        <ele>414.8</ele>
        <time>2024-06-12T09:20:43Z</time>
      </trkpt>
      <trkpt lat="43.27934" lon="5.81951">
        <ele>414.8</ele>
        <time>2024-06-12T09:20:44Z</time>
      </trkpt>
      <trkpt lat="43.27933" lon="5.8195">
        <ele>414.8</ele>
        <time>2024-06-12T09:20:45Z</time>
      </trkpt>
      <trkpt lat="43.2793" lon="5.81945">
        <ele>414.8</ele>
        <time>2024-06-12T09:20:46Z</time>
      </trkpt>
      <trkpt lat="43.27929" lon="5.81943">
        <ele>415</ele>
        <time>2024-06-12T09:20:47Z</time>
      </trkpt>
      <trkpt lat="43.27927" lon="5.8194">
        <ele>415.2</ele>
        <time>2024-06-12T09:20:48Z</time>
      </trkpt>
      <trkpt lat="43.27925" lon="5.81934">
        <ele>415.2</ele>
        <time>2024-06-12T09:20:49Z</time>
      </trkpt>
      <trkpt lat="43.27924" lon="5.81932">
        <ele>415.2</ele>
        <time>2024-06-12T09:20:50Z</time>
      </trkpt>
      <trkpt lat="43.27921" lon="5.81927">
        <ele>415.2</ele>
        <time>2024-06-12T09:20:51Z</time>
      </trkpt>
      <trkpt lat="43.2792" lon="5.81925">
        <ele>415.4</ele>
        <time>2024-06-12T09:20:52Z</time>
      </trkpt>
      <trkpt lat="43.27918" lon="5.8192">
        <ele>415.4</ele>
        <time>2024-06-12T09:20:53Z</time>
      </trkpt>
      <trkpt lat="43.27917" lon="5.81918">
        <ele>415.4</ele>
        <time>2024-06-12T09:20:54Z</time>
      </trkpt>
      <trkpt lat="43.27915" lon="5.81914">
        <ele>415.4</ele>
        <time>2024-06-12T09:20:55Z</time>
      </trkpt>
      <trkpt lat="43.27913" lon="5.81908">
        <ele>415.8</ele>
        <time>2024-06-12T09:20:56Z</time>
      </trkpt>
      <trkpt lat="43.27912" lon="5.81906">
        <ele>415.8</ele>
        <time>2024-06-12T09:20:57Z</time>
      </trkpt>
      <trkpt lat="43.27911" lon="5.81902">
        <ele>415.8</ele>
        <time>2024-06-12T09:20:58Z</time>
      </trkpt>
      <trkpt lat="43.27908" lon="5.81896">
        <ele>415.8</ele>
        <time>2024-06-12T09:20:59Z</time>
      </trkpt>
      <trkpt lat="43.27907" lon="5.81893">
        <ele>416</ele>
        <time>2024-06-12T09:21:00Z</time>
      </trkpt>
      <trkpt lat="43.27905" lon="5.81887">
        <ele>416.2</ele>
        <time>2024-06-12T09:21:01Z</time>
      </trkpt>
      <trkpt lat="43.27905" lon="5.81885">
        <ele>416.2</ele>
        <time>2024-06-12T09:21:02Z</time>
      </trkpt>
      <trkpt lat="43.27903" lon="5.8188">
        <ele>416.2</ele>
        <time>2024-06-12T09:21:03Z</time>
      </trkpt>
      <trkpt lat="43.27902" lon="5.81876">
        <ele>416.6</ele>
        <time>2024-06-12T09:21:04Z</time>
      </trkpt>
      <trkpt lat="43.27901" lon="5.81872">
        <ele>416.6</ele>
        <time>2024-06-12T09:21:05Z</time>
      </trkpt>
      <trkpt lat="43.27899" lon="5.81868">
        <ele>416.6</ele>
        <time>2024-06-12T09:21:06Z</time>
      </trkpt>
      <trkpt lat="43.27898" lon="5.81864">
        <ele>416.6</ele>
        <time>2024-06-12T09:21:07Z</time>
      </trkpt>
      <trkpt lat="43.27897" lon="5.8186">
        <ele>416.6</ele>
        <time>2024-06-12T09:21:08Z</time>
      </trkpt>
      <trkpt lat="43.27896" lon="5.81855">
        <ele>417</ele>
        <time>2024-06-12T09:21:09Z</time>
      </trkpt>
      <trkpt lat="43.27894" lon="5.81851">
        <ele>417.2</ele>
        <time>2024-06-12T09:21:10Z</time>
      </trkpt>
      <trkpt lat="43.27893" lon="5.81847">
        <ele>417.2</ele>
        <time>2024-06-12T09:21:11Z</time>
      </trkpt>
      <trkpt lat="43.27892" lon="5.81843">
        <ele>417.2</ele>
        <time>2024-06-12T09:21:12Z</time>
      </trkpt>
      <trkpt lat="43.27891" lon="5.81838">
        <ele>417.6</ele>
        <time>2024-06-12T09:21:13Z</time>
      </trkpt>
      <trkpt lat="43.2789" lon="5.81834">
        <ele>417.8</ele>
        <time>2024-06-12T09:21:14Z</time>
      </trkpt>
      <trkpt lat="43.27888" lon="5.81827">
        <ele>417.8</ele>
        <time>2024-06-12T09:21:15Z</time>
      </trkpt>
      <trkpt lat="43.27887" lon="5.81825">
        <ele>417.8</ele>
        <time>2024-06-12T09:21:16Z</time>
      </trkpt>
      <trkpt lat="43.27885" lon="5.81817">
        <ele>417.8</ele>
        <time>2024-06-12T09:21:17Z</time>
      </trkpt>
      <trkpt lat="43.27885" lon="5.81815">
        <ele>417.8</ele>
        <time>2024-06-12T09:21:18Z</time>
      </trkpt>
      <trkpt lat="43.27883" lon="5.8181">
        <ele>417.8</ele>
        <time>2024-06-12T09:21:19Z</time>
      </trkpt>
      <trkpt lat="43.27882" lon="5.81805">
        <ele>418.2</ele>
        <time>2024-06-12T09:21:20Z</time>
      </trkpt>
      <trkpt lat="43.27881" lon="5.81801">
        <ele>418.2</ele>
        <time>2024-06-12T09:21:21Z</time>
      </trkpt>
      <trkpt lat="43.27879" lon="5.81794">
        <ele>418.2</ele>
        <time>2024-06-12T09:21:22Z</time>
      </trkpt>
      <trkpt lat="43.27878" lon="5.81792">
        <ele>418.6</ele>
        <time>2024-06-12T09:21:23Z</time>
      </trkpt>
      <trkpt lat="43.27877" lon="5.81785">
        <ele>418.8</ele>
        <time>2024-06-12T09:21:24Z</time>
      </trkpt>
      <trkpt lat="43.27876" lon="5.81783">
        <ele>418.8</ele>
        <time>2024-06-12T09:21:25Z</time>
      </trkpt>
      <trkpt lat="43.27874" lon="5.81776">
        <ele>418.8</ele>
        <time>2024-06-12T09:21:26Z</time>
      </trkpt>
      <trkpt lat="43.27873" lon="5.81773">
        <ele>419.2</ele>
        <time>2024-06-12T09:21:27Z</time>
      </trkpt>
      <trkpt lat="43.27871" lon="5.81766">
        <ele>419.2</ele>
        <time>2024-06-12T09:21:28Z</time>
      </trkpt>
      <trkpt lat="43.2787" lon="5.81764">
        <ele>419.2</ele>
        <time>2024-06-12T09:21:29Z</time>
      </trkpt>
      <trkpt lat="43.27868" lon="5.81757">
        <ele>419.2</ele>
        <time>2024-06-12T09:21:30Z</time>
      </trkpt>
      <trkpt lat="43.27868" lon="5.81754">
        <ele>419.2</ele>
        <time>2024-06-12T09:21:31Z</time>
      </trkpt>
      <trkpt lat="43.27866" lon="5.81747">
        <ele>419.6</ele>
        <time>2024-06-12T09:21:32Z</time>
      </trkpt>
      <trkpt lat="43.27865" lon="5.81744">
        <ele>419.8</ele>
        <time>2024-06-12T09:21:33Z</time>
      </trkpt>
      <trkpt lat="43.27864" lon="5.81739">
        <ele>419.8</ele>
        <time>2024-06-12T09:21:34Z</time>
      </trkpt>
      <trkpt lat="43.27862" lon="5.81732">
        <ele>419.8</ele>
        <time>2024-06-12T09:21:35Z</time>
      </trkpt>
      <trkpt lat="43.27861" lon="5.8173">
        <ele>420.2</ele>
        <time>2024-06-12T09:21:36Z</time>
      </trkpt>
      <trkpt lat="43.27859" lon="5.81723">
        <ele>420.6</ele>
        <time>2024-06-12T09:21:37Z</time>
      </trkpt>
      <trkpt lat="43.27858" lon="5.8172">
        <ele>420.6</ele>
        <time>2024-06-12T09:21:38Z</time>
      </trkpt>
      <trkpt lat="43.27857" lon="5.81715">
        <ele>420.6</ele>
        <time>2024-06-12T09:21:39Z</time>
      </trkpt>
      <trkpt lat="43.27856" lon="5.8171">
        <ele>421</ele>
        <time>2024-06-12T09:21:40Z</time>
      </trkpt>
      <trkpt lat="43.27854" lon="5.81706">
        <ele>421</ele>
        <time>2024-06-12T09:21:41Z</time>
      </trkpt>
      <trkpt lat="43.27853" lon="5.81701">
        <ele>421.4</ele>
        <time>2024-06-12T09:21:42Z</time>
      </trkpt>
      <trkpt lat="43.27851" lon="5.81695">
        <ele>421.4</ele>
        <time>2024-06-12T09:21:43Z</time>
      </trkpt>
      <trkpt lat="43.27849" lon="5.81688">
        <ele>421.4</ele>
        <time>2024-06-12T09:21:44Z</time>
      </trkpt>
      <trkpt lat="43.27848" lon="5.81685">
        <ele>422</ele>
        <time>2024-06-12T09:21:45Z</time>
      </trkpt>
      <trkpt lat="43.27847" lon="5.81679">
        <ele>422</ele>
        <time>2024-06-12T09:21:46Z</time>
      </trkpt>
      <trkpt lat="43.27845" lon="5.81674">
        <ele>422</ele>
        <time>2024-06-12T09:21:47Z</time>
      </trkpt>
      <trkpt lat="43.27844" lon="5.81669">
        <ele>422</ele>
        <time>2024-06-12T09:21:48Z</time>
      </trkpt>
      <trkpt lat="43.27841" lon="5.81661">
        <ele>422.4</ele>
        <time>2024-06-12T09:21:49Z</time>
      </trkpt>
      <trkpt lat="43.2784" lon="5.81658">
        <ele>422.4</ele>
        <time>2024-06-12T09:21:50Z</time>
      </trkpt>
      <trkpt lat="43.27838" lon="5.8165">
        <ele>422.4</ele>
        <time>2024-06-12T09:21:51Z</time>
      </trkpt>
      <trkpt lat="43.27837" lon="5.81648">
        <ele>422.4</ele>
        <time>2024-06-12T09:21:52Z</time>
      </trkpt>
      <trkpt lat="43.27835" lon="5.8164">
        <ele>422.4</ele>
        <time>2024-06-12T09:21:53Z</time>
      </trkpt>
      <trkpt lat="43.27834" lon="5.81637">
        <ele>422.6</ele>
        <time>2024-06-12T09:21:54Z</time>
      </trkpt>
      <trkpt lat="43.27831" lon="5.81629">
        <ele>422.8</ele>
        <time>2024-06-12T09:21:55Z</time>
      </trkpt>
      <trkpt lat="43.2783" lon="5.81627">
        <ele>422.8</ele>
        <time>2024-06-12T09:21:56Z</time>
      </trkpt>
      <trkpt lat="43.27829" lon="5.81622">
        <ele>422.8</ele>
        <time>2024-06-12T09:21:57Z</time>
      </trkpt>
      <trkpt lat="43.27827" lon="5.81617">
        <ele>422.8</ele>
        <time>2024-06-12T09:21:58Z</time>
      </trkpt>
      <trkpt lat="43.27826" lon="5.81612">
        <ele>423</ele>
        <time>2024-06-12T09:21:59Z</time>
      </trkpt>
      <trkpt lat="43.27824" lon="5.81605">
        <ele>423</ele>
        <time>2024-06-12T09:22:00Z</time>
      </trkpt>
      <trkpt lat="43.27823" lon="5.81602">
        <ele>423</ele>
        <time>2024-06-12T09:22:01Z</time>
      </trkpt>
      <trkpt lat="43.27822" lon="5.81598">
        <ele>423</ele>
        <time>2024-06-12T09:22:02Z</time>
      </trkpt>
      <trkpt lat="43.27821" lon="5.81593">
        <ele>423</ele>
        <time>2024-06-12T09:22:03Z</time>
      </trkpt>
      <trkpt lat="43.27819" lon="5.81588">
        <ele>423.2</ele>
        <time>2024-06-12T09:22:04Z</time>
      </trkpt>
      <trkpt lat="43.27818" lon="5.81583">
        <ele>423.2</ele>
        <time>2024-06-12T09:22:05Z</time>
      </trkpt>
      <trkpt lat="43.27816" lon="5.81576">
        <ele>423.2</ele>
        <time>2024-06-12T09:22:06Z</time>
      </trkpt>
      <trkpt lat="43.27815" lon="5.81573">
        <ele>423.2</ele>
        <time>2024-06-12T09:22:07Z</time>
      </trkpt>
      <trkpt lat="43.27814" lon="5.81568">
        <ele>423.4</ele>
        <time>2024-06-12T09:22:08Z</time>
      </trkpt>
      <trkpt lat="43.27813" lon="5.81563">
        <ele>423.4</ele>
        <time>2024-06-12T09:22:09Z</time>
      </trkpt>
      <trkpt lat="43.27812" lon="5.81556">
        <ele>423.4</ele>
        <time>2024-06-12T09:22:10Z</time>
      </trkpt>
      <trkpt lat="43.27811" lon="5.81553">
        <ele>423.4</ele>
        <time>2024-06-12T09:22:11Z</time>
      </trkpt>
      <trkpt lat="43.2781" lon="5.81549">
        <ele>424</ele>
        <time>2024-06-12T09:22:12Z</time>
      </trkpt>
      <trkpt lat="43.27809" lon="5.81542">
        <ele>424.2</ele>
        <time>2024-06-12T09:22:13Z</time>
      </trkpt>
      <trkpt lat="43.27809" lon="5.8154">
        <ele>424.2</ele>
        <time>2024-06-12T09:22:14Z</time>
      </trkpt>
      <trkpt lat="43.27808" lon="5.81535">
        <ele>424.2</ele>
        <time>2024-06-12T09:22:15Z</time>
      </trkpt>
      <trkpt lat="43.27807" lon="5.81531">
        <ele>424.8</ele>
        <time>2024-06-12T09:22:16Z</time>
      </trkpt>
      <trkpt lat="43.27806" lon="5.81526">
        <ele>425</ele>
        <time>2024-06-12T09:22:17Z</time>
      </trkpt>
      <trkpt lat="43.27805" lon="5.81521">
        <ele>425</ele>
        <time>2024-06-12T09:22:18Z</time>
      </trkpt>
      <trkpt lat="43.27804" lon="5.81514">
        <ele>425</ele>
        <time>2024-06-12T09:22:19Z</time>
      </trkpt>
      <trkpt lat="43.27804" lon="5.81511">
        <ele>425</ele>
        <time>2024-06-12T09:22:20Z</time>
      </trkpt>
      <trkpt lat="43.27804" lon="5.81507">
        <ele>426</ele>
        <time>2024-06-12T09:22:21Z</time>
      </trkpt>
      <trkpt lat="43.27802" lon="5.815">
        <ele>426</ele>
        <time>2024-06-12T09:22:22Z</time>
      </trkpt>
      <trkpt lat="43.27802" lon="5.81497">
        <ele>426</ele>
        <time>2024-06-12T09:22:23Z</time>
      </trkpt>
      <trkpt lat="43.27801" lon="5.81493">
        <ele>426</ele>
        <time>2024-06-12T09:22:24Z</time>
      </trkpt>
      <trkpt lat="43.278" lon="5.81485">
        <ele>426.6</ele>
        <time>2024-06-12T09:22:25Z</time>
      </trkpt>
      <trkpt lat="43.27799" lon="5.81483">
        <ele>426.6</ele>
        <time>2024-06-12T09:22:26Z</time>
      </trkpt>
      <trkpt lat="43.27798" lon="5.81475">
        <ele>426.6</ele>
        <time>2024-06-12T09:22:27Z</time>
      </trkpt>
      <trkpt lat="43.27797" lon="5.81473">
        <ele>426.6</ele>
        <time>2024-06-12T09:22:28Z</time>
      </trkpt>
      <trkpt lat="43.27795" lon="5.81465">
        <ele>426.6</ele>
        <time>2024-06-12T09:22:29Z</time>
      </trkpt>
      <trkpt lat="43.27795" lon="5.81463">
        <ele>426.6</ele>
        <time>2024-06-12T09:22:30Z</time>
      </trkpt>
      <trkpt lat="43.27794" lon="5.81458">
        <ele>427</ele>
        <time>2024-06-12T09:22:31Z</time>
      </trkpt>
      <trkpt lat="43.27792" lon="5.81452">
        <ele>427</ele>
        <time>2024-06-12T09:22:32Z</time>
      </trkpt>
      <trkpt lat="43.2779" lon="5.81445">
        <ele>427</ele>
        <time>2024-06-12T09:22:33Z</time>
      </trkpt>
      <trkpt lat="43.2779" lon="5.81442">
        <ele>427.4</ele>
        <time>2024-06-12T09:22:34Z</time>
      </trkpt>
      <trkpt lat="43.27788" lon="5.81436">
        <ele>427.4</ele>
        <time>2024-06-12T09:22:35Z</time>
      </trkpt>
      <trkpt lat="43.27787" lon="5.81431">
        <ele>427.4</ele>
        <time>2024-06-12T09:22:36Z</time>
      </trkpt>
      <trkpt lat="43.27785" lon="5.81423">
        <ele>427.4</ele>
        <time>2024-06-12T09:22:37Z</time>
      </trkpt>
      <trkpt lat="43.27784" lon="5.8142">
        <ele>427.6</ele>
        <time>2024-06-12T09:22:38Z</time>
      </trkpt>
      <trkpt lat="43.27783" lon="5.81414">
        <ele>427.6</ele>
        <time>2024-06-12T09:22:39Z</time>
      </trkpt>
      <trkpt lat="43.27781" lon="5.81406">
        <ele>427.6</ele>
        <time>2024-06-12T09:22:40Z</time>
      </trkpt>
      <trkpt lat="43.2778" lon="5.81403">
        <ele>427.6</ele>
        <time>2024-06-12T09:22:41Z</time>
      </trkpt>
      <trkpt lat="43.27779" lon="5.81398">
        <ele>427.8</ele>
        <time>2024-06-12T09:22:42Z</time>
      </trkpt>
      <trkpt lat="43.27777" lon="5.81392">
        <ele>427.8</ele>
        <time>2024-06-12T09:22:43Z</time>
      </trkpt>
      <trkpt lat="43.27775" lon="5.81384">
        <ele>427.8</ele>
        <time>2024-06-12T09:22:44Z</time>
      </trkpt>
      <trkpt lat="43.27774" lon="5.81382">
        <ele>427.8</ele>
        <time>2024-06-12T09:22:45Z</time>
      </trkpt>
      <trkpt lat="43.27773" lon="5.81376">
        <ele>427.8</ele>
        <time>2024-06-12T09:22:46Z</time>
      </trkpt>
      <trkpt lat="43.27771" lon="5.81368">
        <ele>427.8</ele>
        <time>2024-06-12T09:22:47Z</time>
      </trkpt>
      <trkpt lat="43.2777" lon="5.81366">
        <ele>428.4</ele>
        <time>2024-06-12T09:22:48Z</time>
      </trkpt>
      <trkpt lat="43.27768" lon="5.81358">
        <ele>428.4</ele>
        <time>2024-06-12T09:22:49Z</time>
      </trkpt>
      <trkpt lat="43.27767" lon="5.81356">
        <ele>428.4</ele>
        <time>2024-06-12T09:22:50Z</time>
      </trkpt>
      <trkpt lat="43.27764" lon="5.81348">
        <ele>428.4</ele>
        <time>2024-06-12T09:22:51Z</time>
      </trkpt>
      <trkpt lat="43.27764" lon="5.81346">
        <ele>428.4</ele>
        <time>2024-06-12T09:22:52Z</time>
      </trkpt>
      <trkpt lat="43.27762" lon="5.81341">
        <ele>428.8</ele>
        <time>2024-06-12T09:22:53Z</time>
      </trkpt>
      <trkpt lat="43.27761" lon="5.81336">
        <ele>428.8</ele>
        <time>2024-06-12T09:22:54Z</time>
      </trkpt>
      <trkpt lat="43.27759" lon="5.81328">
        <ele>428.8</ele>
        <time>2024-06-12T09:22:55Z</time>
      </trkpt>
      <trkpt lat="43.27758" lon="5.81326">
        <ele>429</ele>
        <time>2024-06-12T09:22:56Z</time>
      </trkpt>
      <trkpt lat="43.27756" lon="5.81318">
        <ele>429</ele>
        <time>2024-06-12T09:22:57Z</time>
      </trkpt>
      <trkpt lat="43.27755" lon="5.81315">
        <ele>429</ele>
        <time>2024-06-12T09:22:58Z</time>
      </trkpt>
      <trkpt lat="43.27753" lon="5.81307">
        <ele>429</ele>
        <time>2024-06-12T09:22:59Z</time>
      </trkpt>
      <trkpt lat="43.27752" lon="5.81305">
        <ele>429.2</ele>
        <time>2024-06-12T09:23:00Z</time>
      </trkpt>
      <trkpt lat="43.2775" lon="5.81297">
        <ele>429.2</ele>
        <time>2024-06-12T09:23:01Z</time>
      </trkpt>
      <trkpt lat="43.27749" lon="5.81295">
        <ele>429.4</ele>
        <time>2024-06-12T09:23:02Z</time>
      </trkpt>
      <trkpt lat="43.27748" lon="5.81289">
        <ele>429.4</ele>
        <time>2024-06-12T09:23:03Z</time>
      </trkpt>
      <trkpt lat="43.27746" lon="5.81282">
        <ele>429.4</ele>
        <time>2024-06-12T09:23:04Z</time>
      </trkpt>
      <trkpt lat="43.27745" lon="5.81279">
        <ele>429.4</ele>
        <time>2024-06-12T09:23:05Z</time>
      </trkpt>
      <trkpt lat="43.27744" lon="5.81274">
        <ele>429.4</ele>
        <time>2024-06-12T09:23:06Z</time>
      </trkpt>
      <trkpt lat="43.27742" lon="5.81266">
        <ele>429.4</ele>
        <time>2024-06-12T09:23:07Z</time>
      </trkpt>
      <trkpt lat="43.27741" lon="5.81264">
        <ele>429.4</ele>
        <time>2024-06-12T09:23:08Z</time>
      </trkpt>
      <trkpt lat="43.27739" lon="5.81256">
        <ele>429.4</ele>
        <time>2024-06-12T09:23:09Z</time>
      </trkpt>
      <trkpt lat="43.27738" lon="5.81253">
        <ele>429.8</ele>
        <time>2024-06-12T09:23:10Z</time>
      </trkpt>
      <trkpt lat="43.27736" lon="5.81245">
        <ele>429.8</ele>
        <time>2024-06-12T09:23:11Z</time>
      </trkpt>
      <trkpt lat="43.27735" lon="5.81243">
        <ele>429.8</ele>
        <time>2024-06-12T09:23:12Z</time>
      </trkpt>
      <trkpt lat="43.27733" lon="5.81235">
        <ele>430.2</ele>
        <time>2024-06-12T09:23:13Z</time>
      </trkpt>
      <trkpt lat="43.27732" lon="5.81232">
        <ele>430.2</ele>
        <time>2024-06-12T09:23:14Z</time>
      </trkpt>
      <trkpt lat="43.27729" lon="5.81224">
        <ele>430.4</ele>
        <time>2024-06-12T09:23:15Z</time>
      </trkpt>
      <trkpt lat="43.27728" lon="5.81222">
        <ele>430.4</ele>
        <time>2024-06-12T09:23:16Z</time>
      </trkpt>
      <trkpt lat="43.27727" lon="5.81216">
        <ele>430.4</ele>
        <time>2024-06-12T09:23:17Z</time>
      </trkpt>
      <trkpt lat="43.27725" lon="5.81208">
        <ele>430.6</ele>
        <time>2024-06-12T09:23:18Z</time>
      </trkpt>
      <trkpt lat="43.27724" lon="5.81205">
        <ele>430.6</ele>
        <time>2024-06-12T09:23:19Z</time>
      </trkpt>
      <trkpt lat="43.27722" lon="5.812">
        <ele>430.6</ele>
        <time>2024-06-12T09:23:20Z</time>
      </trkpt>
      <trkpt lat="43.27721" lon="5.81195">
        <ele>430.6</ele>
        <time>2024-06-12T09:23:21Z</time>
      </trkpt>
      <trkpt lat="43.2772" lon="5.8119">
        <ele>430.8</ele>
        <time>2024-06-12T09:23:22Z</time>
      </trkpt>
      <trkpt lat="43.27718" lon="5.81185">
        <ele>430.8</ele>
        <time>2024-06-12T09:23:23Z</time>
      </trkpt>
      <trkpt lat="43.27717" lon="5.8118">
        <ele>430.8</ele>
        <time>2024-06-12T09:23:24Z</time>
      </trkpt>
      <trkpt lat="43.27716" lon="5.81174">
        <ele>430.8</ele>
        <time>2024-06-12T09:23:25Z</time>
      </trkpt>
      <trkpt lat="43.27714" lon="5.81169">
        <ele>430.8</ele>
        <time>2024-06-12T09:23:26Z</time>
      </trkpt>
      <trkpt lat="43.27713" lon="5.81164">
        <ele>430.6</ele>
        <time>2024-06-12T09:23:27Z</time>
      </trkpt>
      <trkpt lat="43.27712" lon="5.81156">
        <ele>430.6</ele>
        <time>2024-06-12T09:23:28Z</time>
      </trkpt>
      <trkpt lat="43.27711" lon="5.81153">
        <ele>430.6</ele>
        <time>2024-06-12T09:23:29Z</time>
      </trkpt>
      <trkpt lat="43.27709" lon="5.81145">
        <ele>430.6</ele>
        <time>2024-06-12T09:23:30Z</time>
      </trkpt>
      <trkpt lat="43.27709" lon="5.81142">
        <ele>430.6</ele>
        <time>2024-06-12T09:23:31Z</time>
      </trkpt>
      <trkpt lat="43.27708" lon="5.81134">
        <ele>431</ele>
        <time>2024-06-12T09:23:32Z</time>
      </trkpt>
      <trkpt lat="43.27707" lon="5.81131">
        <ele>431</ele>
        <time>2024-06-12T09:23:33Z</time>
      </trkpt>
      <trkpt lat="43.27707" lon="5.81123">
        <ele>431</ele>
        <time>2024-06-12T09:23:34Z</time>
      </trkpt>
      <trkpt lat="43.27707" lon="5.8112">
        <ele>431</ele>
        <time>2024-06-12T09:23:35Z</time>
      </trkpt>
      <trkpt lat="43.27706" lon="5.81112">
        <ele>432.2</ele>
        <time>2024-06-12T09:23:36Z</time>
      </trkpt>
      <trkpt lat="43.27706" lon="5.81109">
        <ele>432.2</ele>
        <time>2024-06-12T09:23:37Z</time>
      </trkpt>
      <trkpt lat="43.27706" lon="5.81101">
        <ele>432.2</ele>
        <time>2024-06-12T09:23:38Z</time>
      </trkpt>
      <trkpt lat="43.27706" lon="5.81099">
        <ele>432.2</ele>
        <time>2024-06-12T09:23:39Z</time>
      </trkpt>
      <trkpt lat="43.27706" lon="5.81094">
        <ele>433</ele>
        <time>2024-06-12T09:23:40Z</time>
      </trkpt>
      <trkpt lat="43.27707" lon="5.81087">
        <ele>433.2</ele>
        <time>2024-06-12T09:23:41Z</time>
      </trkpt>
      <trkpt lat="43.27707" lon="5.81084">
        <ele>433.2</ele>
        <time>2024-06-12T09:23:42Z</time>
      </trkpt>
      <trkpt lat="43.27707" lon="5.81077">
        <ele>433.2</ele>
        <time>2024-06-12T09:23:43Z</time>
      </trkpt>
      <trkpt lat="43.27707" lon="5.81074">
        <ele>434.2</ele>
        <time>2024-06-12T09:23:44Z</time>
      </trkpt>
      <trkpt lat="43.27707" lon="5.81069">
        <ele>434.4</ele>
        <time>2024-06-12T09:23:45Z</time>
      </trkpt>
      <trkpt lat="43.27706" lon="5.81061">
        <ele>434.4</ele>
        <time>2024-06-12T09:23:46Z</time>
      </trkpt>
      <trkpt lat="43.27706" lon="5.81058">
        <ele>434.4</ele>
        <time>2024-06-12T09:23:47Z</time>
      </trkpt>
      <trkpt lat="43.27706" lon="5.81053">
        <ele>434.4</ele>
        <time>2024-06-12T09:23:48Z</time>
      </trkpt>
      <trkpt lat="43.27707" lon="5.81045">
        <ele>435.4</ele>
        <time>2024-06-12T09:23:49Z</time>
      </trkpt>
      <trkpt lat="43.27707" lon="5.81042">
        <ele>435.6</ele>
        <time>2024-06-12T09:23:50Z</time>
      </trkpt>
      <trkpt lat="43.27707" lon="5.81037">
        <ele>435.6</ele>
        <time>2024-06-12T09:23:51Z</time>
      </trkpt>
      <trkpt lat="43.27707" lon="5.8103">
        <ele>435.6</ele>
        <time>2024-06-12T09:23:52Z</time>
      </trkpt>
      <trkpt lat="43.27707" lon="5.81027">
        <ele>436.6</ele>
        <time>2024-06-12T09:23:53Z</time>
      </trkpt>
      <trkpt lat="43.27707" lon="5.81022">
        <ele>436.8</ele>
        <time>2024-06-12T09:23:54Z</time>
      </trkpt>
      <trkpt lat="43.27707" lon="5.81017">
        <ele>436.8</ele>
        <time>2024-06-12T09:23:55Z</time>
      </trkpt>
      <trkpt lat="43.27707" lon="5.81012">
        <ele>436.8</ele>
        <time>2024-06-12T09:23:56Z</time>
      </trkpt>
      <trkpt lat="43.27707" lon="5.81005">
        <ele>437.8</ele>
        <time>2024-06-12T09:23:57Z</time>
      </trkpt>
      <trkpt lat="43.27707" lon="5.81002">
        <ele>438.2</ele>
        <time>2024-06-12T09:23:58Z</time>
      </trkpt>
      <trkpt lat="43.27707" lon="5.80995">
        <ele>438.2</ele>
        <time>2024-06-12T09:23:59Z</time>
      </trkpt>
      <trkpt lat="43.27707" lon="5.80992">
        <ele>438.2</ele>
        <time>2024-06-12T09:24:00Z</time>
      </trkpt>
      <trkpt lat="43.27707" lon="5.80984">
        <ele>438.2</ele>
        <time>2024-06-12T09:24:01Z</time>
      </trkpt>
      <trkpt lat="43.27707" lon="5.80982">
        <ele>438.6</ele>
        <time>2024-06-12T09:24:02Z</time>
      </trkpt>
      <trkpt lat="43.27707" lon="5.80974">
        <ele>438.8</ele>
        <time>2024-06-12T09:24:03Z</time>
      </trkpt>
      <trkpt lat="43.27707" lon="5.80971">
        <ele>438.8</ele>
        <time>2024-06-12T09:24:04Z</time>
      </trkpt>
      <trkpt lat="43.27707" lon="5.80966">
        <ele>438.8</ele>
        <time>2024-06-12T09:24:05Z</time>
      </trkpt>
      <trkpt lat="43.27707" lon="5.8096">
        <ele>438.8</ele>
        <time>2024-06-12T09:24:06Z</time>
      </trkpt>
      <trkpt lat="43.27707" lon="5.80951">
        <ele>439.2</ele>
        <time>2024-06-12T09:24:07Z</time>
      </trkpt>
      <trkpt lat="43.27707" lon="5.80948">
        <ele>439.2</ele>
        <time>2024-06-12T09:24:08Z</time>
      </trkpt>
      <trkpt lat="43.27707" lon="5.80943">
        <ele>439.2</ele>
        <time>2024-06-12T09:24:09Z</time>
      </trkpt>
      <trkpt lat="43.27707" lon="5.80937">
        <ele>439.2</ele>
        <time>2024-06-12T09:24:10Z</time>
      </trkpt>
      <trkpt lat="43.27707" lon="5.80928">
        <ele>439.6</ele>
        <time>2024-06-12T09:24:11Z</time>
      </trkpt>
      <trkpt lat="43.27707" lon="5.80925">
        <ele>439.6</ele>
        <time>2024-06-12T09:24:12Z</time>
      </trkpt>
      <trkpt lat="43.27706" lon="5.80916">
        <ele>439.8</ele>
        <time>2024-06-12T09:24:13Z</time>
      </trkpt>
      <trkpt lat="43.27706" lon="5.80913">
        <ele>439.8</ele>
        <time>2024-06-12T09:24:14Z</time>
      </trkpt>
      <trkpt lat="43.27706" lon="5.80904">
        <ele>439.8</ele>
        <time>2024-06-12T09:24:15Z</time>
      </trkpt>
      <trkpt lat="43.27706" lon="5.80901">
        <ele>440.2</ele>
        <time>2024-06-12T09:24:16Z</time>
      </trkpt>
      <trkpt lat="43.27706" lon="5.80893">
        <ele>440.4</ele>
        <time>2024-06-12T09:24:17Z</time>
      </trkpt>
      <trkpt lat="43.27706" lon="5.8089">
        <ele>440.4</ele>
        <time>2024-06-12T09:24:18Z</time>
      </trkpt>
      <trkpt lat="43.27706" lon="5.80881">
        <ele>440.4</ele>
        <time>2024-06-12T09:24:19Z</time>
      </trkpt>
      <trkpt lat="43.27706" lon="5.80879">
        <ele>440.8</ele>
        <time>2024-06-12T09:24:20Z</time>
      </trkpt>
      <trkpt lat="43.27706" lon="5.8087">
        <ele>441</ele>
        <time>2024-06-12T09:24:21Z</time>
      </trkpt>
      <trkpt lat="43.27706" lon="5.80867">
        <ele>441</ele>
        <time>2024-06-12T09:24:22Z</time>
      </trkpt>
      <trkpt lat="43.27705" lon="5.80862">
        <ele>441</ele>
        <time>2024-06-12T09:24:23Z</time>
      </trkpt>
      <trkpt lat="43.27705" lon="5.80854">
        <ele>441</ele>
        <time>2024-06-12T09:24:24Z</time>
      </trkpt>
      <trkpt lat="43.27705" lon="5.80851">
        <ele>441</ele>
        <time>2024-06-12T09:24:25Z</time>
      </trkpt>
      <trkpt lat="43.27705" lon="5.80843">
        <ele>441.2</ele>
        <time>2024-06-12T09:24:26Z</time>
      </trkpt>
      <trkpt lat="43.27705" lon="5.80841">
        <ele>441.2</ele>
        <time>2024-06-12T09:24:27Z</time>
      </trkpt>
      <trkpt lat="43.27705" lon="5.80835">
        <ele>441.2</ele>
        <time>2024-06-12T09:24:28Z</time>
      </trkpt>
      <trkpt lat="43.27705" lon="5.80827">
        <ele>441.4</ele>
        <time>2024-06-12T09:24:29Z</time>
      </trkpt>
      <trkpt lat="43.27705" lon="5.80824">
        <ele>441.6</ele>
        <time>2024-06-12T09:24:30Z</time>
      </trkpt>
      <trkpt lat="43.27704" lon="5.80819">
        <ele>441.6</ele>
        <time>2024-06-12T09:24:31Z</time>
      </trkpt>
      <trkpt lat="43.27703" lon="5.80811">
        <ele>441.6</ele>
        <time>2024-06-12T09:24:32Z</time>
      </trkpt>
      <trkpt lat="43.27703" lon="5.80808">
        <ele>441.6</ele>
        <time>2024-06-12T09:24:33Z</time>
      </trkpt>
      <trkpt lat="43.27701" lon="5.808">
        <ele>441.4</ele>
        <time>2024-06-12T09:24:34Z</time>
      </trkpt>
      <trkpt lat="43.27701" lon="5.80797">
        <ele>441.4</ele>
        <time>2024-06-12T09:24:35Z</time>
      </trkpt>
      <trkpt lat="43.277" lon="5.80789">
        <ele>441.4</ele>
        <time>2024-06-12T09:24:36Z</time>
      </trkpt>
      <trkpt lat="43.27699" lon="5.80786">
        <ele>441.4</ele>
        <time>2024-06-12T09:24:37Z</time>
      </trkpt>
      <trkpt lat="43.27697" lon="5.80777">
        <ele>441.2</ele>
        <time>2024-06-12T09:24:38Z</time>
      </trkpt>
      <trkpt lat="43.27697" lon="5.80774">
        <ele>441.2</ele>
        <time>2024-06-12T09:24:39Z</time>
      </trkpt>
      <trkpt lat="43.27695" lon="5.80768">
        <ele>441.2</ele>
        <time>2024-06-12T09:24:40Z</time>
      </trkpt>
      <trkpt lat="43.27693" lon="5.8076">
        <ele>441.2</ele>
        <time>2024-06-12T09:24:41Z</time>
      </trkpt>
      <trkpt lat="43.27693" lon="5.80757">
        <ele>440.8</ele>
        <time>2024-06-12T09:24:42Z</time>
      </trkpt>
      <trkpt lat="43.27691" lon="5.80751">
        <ele>440.6</ele>
        <time>2024-06-12T09:24:43Z</time>
      </trkpt>
      <trkpt lat="43.27689" lon="5.80742">
        <ele>440.6</ele>
        <time>2024-06-12T09:24:44Z</time>
      </trkpt>
      <trkpt lat="43.27689" lon="5.80739">
        <ele>440.6</ele>
        <time>2024-06-12T09:24:45Z</time>
      </trkpt>
      <trkpt lat="43.27687" lon="5.80734">
        <ele>440.4</ele>
        <time>2024-06-12T09:24:46Z</time>
      </trkpt>
      <trkpt lat="43.27685" lon="5.80725">
        <ele>440.2</ele>
        <time>2024-06-12T09:24:47Z</time>
      </trkpt>
      <trkpt lat="43.27685" lon="5.80722">
        <ele>440.2</ele>
        <time>2024-06-12T09:24:48Z</time>
      </trkpt>
      <trkpt lat="43.27683" lon="5.80716">
        <ele>440.2</ele>
        <time>2024-06-12T09:24:49Z</time>
      </trkpt>
      <trkpt lat="43.27681" lon="5.80707">
        <ele>440.2</ele>
        <time>2024-06-12T09:24:50Z</time>
      </trkpt>
      <trkpt lat="43.2768" lon="5.80705">
        <ele>439.6</ele>
        <time>2024-06-12T09:24:51Z</time>
      </trkpt>
      <trkpt lat="43.27677" lon="5.80696">
        <ele>439.6</ele>
        <time>2024-06-12T09:24:52Z</time>
      </trkpt>
      <trkpt lat="43.27676" lon="5.80693">
        <ele>439.4</ele>
        <time>2024-06-12T09:24:53Z</time>
      </trkpt>
      <trkpt lat="43.27674" lon="5.80687">
        <ele>439.4</ele>
        <time>2024-06-12T09:24:54Z</time>
      </trkpt>
      <trkpt lat="43.27672" lon="5.80682">
        <ele>439.4</ele>
        <time>2024-06-12T09:24:55Z</time>
      </trkpt>
      <trkpt lat="43.2767" lon="5.80673">
        <ele>439</ele>
        <time>2024-06-12T09:24:56Z</time>
      </trkpt>
      <trkpt lat="43.27669" lon="5.8067">
        <ele>438.8</ele>
        <time>2024-06-12T09:24:57Z</time>
      </trkpt>
      <trkpt lat="43.27667" lon="5.80664">
        <ele>438.8</ele>
        <time>2024-06-12T09:24:58Z</time>
      </trkpt>
      <trkpt lat="43.27664" lon="5.80655">
        <ele>438.8</ele>
        <time>2024-06-12T09:24:59Z</time>
      </trkpt>
      <trkpt lat="43.27663" lon="5.80652">
        <ele>438.2</ele>
        <time>2024-06-12T09:25:00Z</time>
      </trkpt>
      <trkpt lat="43.2766" lon="5.80643">
        <ele>438</ele>
        <time>2024-06-12T09:25:01Z</time>
      </trkpt>
      <trkpt lat="43.27659" lon="5.8064">
        <ele>438</ele>
        <time>2024-06-12T09:25:02Z</time>
      </trkpt>
      <trkpt lat="43.27657" lon="5.80631">
        <ele>438</ele>
        <time>2024-06-12T09:25:03Z</time>
      </trkpt>
      <trkpt lat="43.27656" lon="5.80628">
        <ele>438</ele>
        <time>2024-06-12T09:25:04Z</time>
      </trkpt>
      <trkpt lat="43.27653" lon="5.80619">
        <ele>437.6</ele>
        <time>2024-06-12T09:25:05Z</time>
      </trkpt>
      <trkpt lat="43.27653" lon="5.80617">
        <ele>437.4</ele>
        <time>2024-06-12T09:25:06Z</time>
      </trkpt>
      <trkpt lat="43.2765" lon="5.80608">
        <ele>437.4</ele>
        <time>2024-06-12T09:25:07Z</time>
      </trkpt>
      <trkpt lat="43.27649" lon="5.80605">
        <ele>437.4</ele>
        <time>2024-06-12T09:25:08Z</time>
      </trkpt>
      <trkpt lat="43.27646" lon="5.80597">
        <ele>437.2</ele>
        <time>2024-06-12T09:25:09Z</time>
      </trkpt>
      <trkpt lat="43.27645" lon="5.80594">
        <ele>437</ele>
        <time>2024-06-12T09:25:10Z</time>
      </trkpt>
      <trkpt lat="43.27643" lon="5.80588">
        <ele>437</ele>
        <time>2024-06-12T09:25:11Z</time>
      </trkpt>
      <trkpt lat="43.27641" lon="5.8058">
        <ele>437</ele>
        <time>2024-06-12T09:25:12Z</time>
      </trkpt>
      <trkpt lat="43.2764" lon="5.80577">
        <ele>436.8</ele>
        <time>2024-06-12T09:25:13Z</time>
      </trkpt>
      <trkpt lat="43.27638" lon="5.80572">
        <ele>436.6</ele>
        <time>2024-06-12T09:25:14Z</time>
      </trkpt>
      <trkpt lat="43.27635" lon="5.80564">
        <ele>436.6</ele>
        <time>2024-06-12T09:25:15Z</time>
      </trkpt>
      <trkpt lat="43.27634" lon="5.80561">
        <ele>436.6</ele>
        <time>2024-06-12T09:25:16Z</time>
      </trkpt>
      <trkpt lat="43.27631" lon="5.80553">
        <ele>436.6</ele>
        <time>2024-06-12T09:25:17Z</time>
      </trkpt>
      <trkpt lat="43.2763" lon="5.80551">
        <ele>436.6</ele>
        <time>2024-06-12T09:25:18Z</time>
      </trkpt>
      <trkpt lat="43.27627" lon="5.80546">
        <ele>436.4</ele>
        <time>2024-06-12T09:25:19Z</time>
      </trkpt>
      <trkpt lat="43.27625" lon="5.80541">
        <ele>436.4</ele>
        <time>2024-06-12T09:25:20Z</time>
      </trkpt>
      <trkpt lat="43.27622" lon="5.80536">
        <ele>436.4</ele>
        <time>2024-06-12T09:25:21Z</time>
      </trkpt>
      <trkpt lat="43.27618" lon="5.80529">
        <ele>436</ele>
        <time>2024-06-12T09:25:22Z</time>
      </trkpt>
      <trkpt lat="43.27616" lon="5.80527">
        <ele>436</ele>
        <time>2024-06-12T09:25:23Z</time>
      </trkpt>
      <trkpt lat="43.27611" lon="5.8052">
        <ele>436</ele>
        <time>2024-06-12T09:25:24Z</time>
      </trkpt>
      <trkpt lat="43.2761" lon="5.80518">
        <ele>436</ele>
        <time>2024-06-12T09:25:25Z</time>
      </trkpt>
      <trkpt lat="43.27605" lon="5.80512">
        <ele>436</ele>
        <time>2024-06-12T09:25:26Z</time>
      </trkpt>
      <trkpt lat="43.27604" lon="5.8051">
        <ele>436</ele>
        <time>2024-06-12T09:25:27Z</time>
      </trkpt>
      <trkpt lat="43.27601" lon="5.80506">
        <ele>435.6</ele>
        <time>2024-06-12T09:25:28Z</time>
      </trkpt>
      <trkpt lat="43.27598" lon="5.80502">
        <ele>435.6</ele>
        <time>2024-06-12T09:25:29Z</time>
      </trkpt>
      <trkpt lat="43.27595" lon="5.80498">
        <ele>435.6</ele>
        <time>2024-06-12T09:25:30Z</time>
      </trkpt>
      <trkpt lat="43.27592" lon="5.80494">
        <ele>435.6</ele>
        <time>2024-06-12T09:25:31Z</time>
      </trkpt>
      <trkpt lat="43.27588" lon="5.8049">
        <ele>435.8</ele>
        <time>2024-06-12T09:25:32Z</time>
      </trkpt>
      <trkpt lat="43.27585" lon="5.80487">
        <ele>435.8</ele>
        <time>2024-06-12T09:25:33Z</time>
      </trkpt>
      <trkpt lat="43.27582" lon="5.80483">
        <ele>435.8</ele>
        <time>2024-06-12T09:25:34Z</time>
      </trkpt>
      <trkpt lat="43.27579" lon="5.80479">
        <ele>435.8</ele>
        <time>2024-06-12T09:25:35Z</time>
      </trkpt>
      <trkpt lat="43.27575" lon="5.80476">
        <ele>435.8</ele>
        <time>2024-06-12T09:25:36Z</time>
      </trkpt>
      <trkpt lat="43.27572" lon="5.80472">
        <ele>435.8</ele>
        <time>2024-06-12T09:25:37Z</time>
      </trkpt>
      <trkpt lat="43.27566" lon="5.80467">
        <ele>435.8</ele>
        <time>2024-06-12T09:25:38Z</time>
      </trkpt>
      <trkpt lat="43.27564" lon="5.80466">
        <ele>435.8</ele>
        <time>2024-06-12T09:25:39Z</time>
      </trkpt>
      <trkpt lat="43.27559" lon="5.80461">
        <ele>435.8</ele>
        <time>2024-06-12T09:25:40Z</time>
      </trkpt>
      <trkpt lat="43.27557" lon="5.8046">
        <ele>436</ele>
        <time>2024-06-12T09:25:41Z</time>
      </trkpt>
      <trkpt lat="43.27553" lon="5.80456">
        <ele>435.8</ele>
        <time>2024-06-12T09:25:42Z</time>
      </trkpt>
      <trkpt lat="43.27551" lon="5.80455">
        <ele>435.8</ele>
        <time>2024-06-12T09:25:43Z</time>
      </trkpt>
      <trkpt lat="43.27546" lon="5.80451">
        <ele>435.8</ele>
        <time>2024-06-12T09:25:44Z</time>
      </trkpt>
      <trkpt lat="43.27545" lon="5.8045">
        <ele>435.8</ele>
        <time>2024-06-12T09:25:45Z</time>
      </trkpt>
      <trkpt lat="43.2754" lon="5.80447">
        <ele>436</ele>
        <time>2024-06-12T09:25:46Z</time>
      </trkpt>
      <trkpt lat="43.27539" lon="5.80445">
        <ele>436</ele>
        <time>2024-06-12T09:25:47Z</time>
      </trkpt>
      <trkpt lat="43.27535" lon="5.80441">
        <ele>436</ele>
        <time>2024-06-12T09:25:48Z</time>
      </trkpt>
      <trkpt lat="43.27534" lon="5.80439">
        <ele>436</ele>
        <time>2024-06-12T09:25:49Z</time>
      </trkpt>
      <trkpt lat="43.27531" lon="5.80434">
        <ele>436</ele>
        <time>2024-06-12T09:25:50Z</time>
      </trkpt>
      <trkpt lat="43.27531" lon="5.80432">
        <ele>436.2</ele>
        <time>2024-06-12T09:25:51Z</time>
      </trkpt>
      <trkpt lat="43.27529" lon="5.80426">
        <ele>436.2</ele>
        <time>2024-06-12T09:25:52Z</time>
      </trkpt>
      <trkpt lat="43.27528" lon="5.80424">
        <ele>436.2</ele>
        <time>2024-06-12T09:25:53Z</time>
      </trkpt>
      <trkpt lat="43.27528" lon="5.8042">
        <ele>436.2</ele>
        <time>2024-06-12T09:25:54Z</time>
      </trkpt>
      <trkpt lat="43.27528" lon="5.80412">
        <ele>437.2</ele>
        <time>2024-06-12T09:25:55Z</time>
      </trkpt>
      <trkpt lat="43.27529" lon="5.8041">
        <ele>437.2</ele>
        <time>2024-06-12T09:25:56Z</time>
      </trkpt>
      <trkpt lat="43.27529" lon="5.80404">
        <ele>437.2</ele>
        <time>2024-06-12T09:25:57Z</time>
      </trkpt>
      <trkpt lat="43.27528" lon="5.80396">
        <ele>437.6</ele>
        <time>2024-06-12T09:25:58Z</time>
      </trkpt>
      <trkpt lat="43.27527" lon="5.80394">
        <ele>437.6</ele>
        <time>2024-06-12T09:25:59Z</time>
      </trkpt>
      <trkpt lat="43.27524" lon="5.80387">
        <ele>437.8</ele>
        <time>2024-06-12T09:26:00Z</time>
      </trkpt>
      <trkpt lat="43.27523" lon="5.80385">
        <ele>437.8</ele>
        <time>2024-06-12T09:26:01Z</time>
      </trkpt>
      <trkpt lat="43.2752" lon="5.80382">
        <ele>437.8</ele>
        <time>2024-06-12T09:26:02Z</time>
      </trkpt>
      <trkpt lat="43.27516" lon="5.80381">
        <ele>437.8</ele>
        <time>2024-06-12T09:26:03Z</time>
      </trkpt>
      <trkpt lat="43.27512" lon="5.80382">
        <ele>438.4</ele>
        <time>2024-06-12T09:26:04Z</time>
      </trkpt>
      <trkpt lat="43.27507" lon="5.80384">
        <ele>438.4</ele>
        <time>2024-06-12T09:26:05Z</time>
      </trkpt>
      <trkpt lat="43.27505" lon="5.80385">
        <ele>438.4</ele>
        <time>2024-06-12T09:26:06Z</time>
      </trkpt>
      <trkpt lat="43.275" lon="5.80389">
        <ele>438.4</ele>
        <time>2024-06-12T09:26:07Z</time>
      </trkpt>
      <trkpt lat="43.27499" lon="5.8039">
        <ele>438.4</ele>
        <time>2024-06-12T09:26:08Z</time>
      </trkpt>
      <trkpt lat="43.27493" lon="5.80393">
        <ele>438.4</ele>
        <time>2024-06-12T09:26:09Z</time>
      </trkpt>
      <trkpt lat="43.27491" lon="5.80393">
        <ele>438.4</ele>
        <time>2024-06-12T09:26:10Z</time>
      </trkpt>
      <trkpt lat="43.27488" lon="5.80394">
        <ele>438.4</ele>
        <time>2024-06-12T09:26:11Z</time>
      </trkpt>
      <trkpt lat="43.27484" lon="5.80394">
        <ele>438.6</ele>
        <time>2024-06-12T09:26:12Z</time>
      </trkpt>
      <trkpt lat="43.27478" lon="5.80392">
        <ele>438.6</ele>
        <time>2024-06-12T09:26:13Z</time>
      </trkpt>
      <trkpt lat="43.27476" lon="5.80392">
        <ele>438.6</ele>
        <time>2024-06-12T09:26:14Z</time>
      </trkpt>
      <trkpt lat="43.27472" lon="5.8039">
        <ele>438.6</ele>
        <time>2024-06-12T09:26:15Z</time>
      </trkpt>
      <trkpt lat="43.27469" lon="5.80388">
        <ele>438.4</ele>
        <time>2024-06-12T09:26:16Z</time>
      </trkpt>
      <trkpt lat="43.27466" lon="5.80385">
        <ele>438.4</ele>
        <time>2024-06-12T09:26:17Z</time>
      </trkpt>
      <trkpt lat="43.27462" lon="5.80383">
        <ele>438.4</ele>
        <time>2024-06-12T09:26:18Z</time>
      </trkpt>
      <trkpt lat="43.27459" lon="5.8038">
        <ele>438.4</ele>
        <time>2024-06-12T09:26:19Z</time>
      </trkpt>
      <trkpt lat="43.27456" lon="5.80377">
        <ele>438.4</ele>
        <time>2024-06-12T09:26:20Z</time>
      </trkpt>
      <trkpt lat="43.27452" lon="5.80372">
        <ele>438.4</ele>
        <time>2024-06-12T09:26:21Z</time>
      </trkpt>
      <trkpt lat="43.27451" lon="5.8037">
        <ele>438.4</ele>
        <time>2024-06-12T09:26:22Z</time>
      </trkpt>
      <trkpt lat="43.27447" lon="5.80365">
        <ele>438.2</ele>
        <time>2024-06-12T09:26:23Z</time>
      </trkpt>
      <trkpt lat="43.27446" lon="5.80363">
        <ele>438.2</ele>
        <time>2024-06-12T09:26:24Z</time>
      </trkpt>
      <trkpt lat="43.27442" lon="5.80358">
        <ele>438.2</ele>
        <time>2024-06-12T09:26:25Z</time>
      </trkpt>
      <trkpt lat="43.27441" lon="5.80356">
        <ele>438</ele>
        <time>2024-06-12T09:26:26Z</time>
      </trkpt>
      <trkpt lat="43.27437" lon="5.80351">
        <ele>438</ele>
        <time>2024-06-12T09:26:27Z</time>
      </trkpt>
      <trkpt lat="43.27436" lon="5.80349">
        <ele>438</ele>
        <time>2024-06-12T09:26:28Z</time>
      </trkpt>
      <trkpt lat="43.27433" lon="5.80346">
        <ele>438</ele>
        <time>2024-06-12T09:26:29Z</time>
      </trkpt>
      <trkpt lat="43.27429" lon="5.8034">
        <ele>438</ele>
        <time>2024-06-12T09:26:30Z</time>
      </trkpt>
      <trkpt lat="43.27427" lon="5.80339">
        <ele>438</ele>
        <time>2024-06-12T09:26:31Z</time>
      </trkpt>
      <trkpt lat="43.27423" lon="5.80334">
        <ele>438</ele>
        <time>2024-06-12T09:26:32Z</time>
      </trkpt>
      <trkpt lat="43.27421" lon="5.80332">
        <ele>438</ele>
        <time>2024-06-12T09:26:33Z</time>
      </trkpt>
      <trkpt lat="43.27416" lon="5.80328">
        <ele>438.2</ele>
        <time>2024-06-12T09:26:34Z</time>
      </trkpt>
      <trkpt lat="43.27415" lon="5.80327">
        <ele>438.2</ele>
        <time>2024-06-12T09:26:35Z</time>
      </trkpt>
      <trkpt lat="43.27412" lon="5.80324">
        <ele>438.4</ele>
        <time>2024-06-12T09:26:36Z</time>
      </trkpt>
      <trkpt lat="43.27407" lon="5.80321">
        <ele>438.4</ele>
        <time>2024-06-12T09:26:37Z</time>
      </trkpt>
      <trkpt lat="43.27405" lon="5.80321">
        <ele>438.4</ele>
        <time>2024-06-12T09:26:38Z</time>
      </trkpt>
      <trkpt lat="43.27402" lon="5.80319">
        <ele>438.4</ele>
        <time>2024-06-12T09:26:39Z</time>
      </trkpt>
      <trkpt lat="43.27397" lon="5.80316">
        <ele>438.6</ele>
        <time>2024-06-12T09:26:40Z</time>
      </trkpt>
      <trkpt lat="43.27396" lon="5.80315">
        <ele>438.6</ele>
        <time>2024-06-12T09:26:41Z</time>
      </trkpt>
      <trkpt lat="43.27391" lon="5.80313">
        <ele>438.6</ele>
        <time>2024-06-12T09:26:42Z</time>
      </trkpt>
      <trkpt lat="43.27389" lon="5.80313">
        <ele>439</ele>
        <time>2024-06-12T09:26:43Z</time>
      </trkpt>
      <trkpt lat="43.27386" lon="5.80311">
        <ele>439</ele>
        <time>2024-06-12T09:26:44Z</time>
      </trkpt>
      <trkpt lat="43.27383" lon="5.8031">
        <ele>439</ele>
        <time>2024-06-12T09:26:45Z</time>
      </trkpt>
      <trkpt lat="43.27379" lon="5.80309">
        <ele>439</ele>
        <time>2024-06-12T09:26:46Z</time>
      </trkpt>
      <trkpt lat="43.27375" lon="5.80306">
        <ele>439</ele>
        <time>2024-06-12T09:26:47Z</time>
      </trkpt>
      <trkpt lat="43.27373" lon="5.80306">
        <ele>439.4</ele>
        <time>2024-06-12T09:26:48Z</time>
      </trkpt>
      <trkpt lat="43.27369" lon="5.80304">
        <ele>439.6</ele>
        <time>2024-06-12T09:26:49Z</time>
      </trkpt>
      <trkpt lat="43.27368" lon="5.80304">
        <ele>439.6</ele>
        <time>2024-06-12T09:26:50Z</time>
      </trkpt>
      <trkpt lat="43.27365" lon="5.80302">
        <ele>439.6</ele>
        <time>2024-06-12T09:26:51Z</time>
      </trkpt>
      <trkpt lat="43.27362" lon="5.803">
        <ele>440.2</ele>
        <time>2024-06-12T09:26:52Z</time>
      </trkpt>
      <trkpt lat="43.27358" lon="5.80299">
        <ele>440.4</ele>
        <time>2024-06-12T09:26:53Z</time>
      </trkpt>
      <trkpt lat="43.27355" lon="5.80298">
        <ele>440.4</ele>
        <time>2024-06-12T09:26:54Z</time>
      </trkpt>
      <trkpt lat="43.27351" lon="5.80297">
        <ele>440.4</ele>
        <time>2024-06-12T09:26:55Z</time>
      </trkpt>
      <trkpt lat="43.27348" lon="5.80296">
        <ele>440.4</ele>
        <time>2024-06-12T09:26:56Z</time>
      </trkpt>
      <trkpt lat="43.27345" lon="5.80295">
        <ele>441.2</ele>
        <time>2024-06-12T09:26:57Z</time>
      </trkpt>
      <trkpt lat="43.27341" lon="5.80294">
        <ele>441.6</ele>
        <time>2024-06-12T09:26:58Z</time>
      </trkpt>
      <trkpt lat="43.27338" lon="5.80292">
        <ele>441.6</ele>
        <time>2024-06-12T09:26:59Z</time>
      </trkpt>
      <trkpt lat="43.27336" lon="5.80291">
        <ele>441.6</ele>
        <time>2024-06-12T09:27:00Z</time>
      </trkpt>
      <trkpt lat="43.27333" lon="5.8029">
        <ele>441.6</ele>
        <time>2024-06-12T09:27:01Z</time>
      </trkpt>
      <trkpt lat="43.2733" lon="5.80289">
        <ele>442.2</ele>
        <time>2024-06-12T09:27:02Z</time>
      </trkpt>
      <trkpt lat="43.27326" lon="5.80287">
        <ele>442.6</ele>
        <time>2024-06-12T09:27:03Z</time>
      </trkpt>
      <trkpt lat="43.27324" lon="5.80286">
        <ele>442.6</ele>
        <time>2024-06-12T09:27:04Z</time>
      </trkpt>
      <trkpt lat="43.2732" lon="5.80284">
        <ele>442.6</ele>
        <time>2024-06-12T09:27:05Z</time>
      </trkpt>
      <trkpt lat="43.27319" lon="5.80284">
        <ele>442.6</ele>
        <time>2024-06-12T09:27:06Z</time>
      </trkpt>
      <trkpt lat="43.27315" lon="5.80282">
        <ele>442.6</ele>
        <time>2024-06-12T09:27:07Z</time>
      </trkpt>
      <trkpt lat="43.27313" lon="5.80281">
        <ele>443.4</ele>
        <time>2024-06-12T09:27:08Z</time>
      </trkpt>
      <trkpt lat="43.27309" lon="5.8028">
        <ele>443.4</ele>
        <time>2024-06-12T09:27:09Z</time>
      </trkpt>
      <trkpt lat="43.27308" lon="5.8028">
        <ele>443.4</ele>
        <time>2024-06-12T09:27:10Z</time>
      </trkpt>
      <trkpt lat="43.27304" lon="5.80278">
        <ele>443.8</ele>
        <time>2024-06-12T09:27:11Z</time>
      </trkpt>
      <trkpt lat="43.27302" lon="5.80278">
        <ele>444.2</ele>
        <time>2024-06-12T09:27:12Z</time>
      </trkpt>
      <trkpt lat="43.273" lon="5.80277">
        <ele>444.2</ele>
        <time>2024-06-12T09:27:13Z</time>
      </trkpt>
      <trkpt lat="43.27296" lon="5.80276">
        <ele>444.2</ele>
        <time>2024-06-12T09:27:14Z</time>
      </trkpt>
      <trkpt lat="43.27294" lon="5.80276">
        <ele>444.6</ele>
        <time>2024-06-12T09:27:15Z</time>
      </trkpt>
      <trkpt lat="43.2729" lon="5.80275">
        <ele>444.8</ele>
        <time>2024-06-12T09:27:16Z</time>
      </trkpt>
      <trkpt lat="43.27288" lon="5.80275">
        <ele>444.8</ele>
        <time>2024-06-12T09:27:17Z</time>
      </trkpt>
      <trkpt lat="43.27285" lon="5.80274">
        <ele>444.8</ele>
        <time>2024-06-12T09:27:18Z</time>
      </trkpt>
      <trkpt lat="43.27281" lon="5.80274">
        <ele>444.8</ele>
        <time>2024-06-12T09:27:19Z</time>
      </trkpt>
      <trkpt lat="43.2728" lon="5.80274">
        <ele>445.4</ele>
        <time>2024-06-12T09:27:20Z</time>
      </trkpt>
      <trkpt lat="43.27277" lon="5.80273">
        <ele>445.4</ele>
        <time>2024-06-12T09:27:21Z</time>
      </trkpt>
      <trkpt lat="43.27272" lon="5.80273">
        <ele>445.4</ele>
        <time>2024-06-12T09:27:22Z</time>
      </trkpt>
      <trkpt lat="43.27271" lon="5.80273">
        <ele>445.4</ele>
        <time>2024-06-12T09:27:23Z</time>
      </trkpt>
      <trkpt lat="43.27267" lon="5.80272">
        <ele>445.8</ele>
        <time>2024-06-12T09:27:24Z</time>
      </trkpt>
      <trkpt lat="43.27265" lon="5.80272">
        <ele>446</ele>
        <time>2024-06-12T09:27:25Z</time>
      </trkpt>
      <trkpt lat="43.27262" lon="5.80272">
        <ele>446</ele>
        <time>2024-06-12T09:27:26Z</time>
      </trkpt>
      <trkpt lat="43.2726" lon="5.80272">
        <ele>446</ele>
        <time>2024-06-12T09:27:27Z</time>
      </trkpt>
      <trkpt lat="43.27257" lon="5.80272">
        <ele>446.4</ele>
        <time>2024-06-12T09:27:28Z</time>
      </trkpt>
      <trkpt lat="43.27252" lon="5.80271">
        <ele>446.4</ele>
        <time>2024-06-12T09:27:29Z</time>
      </trkpt>
      <trkpt lat="43.27251" lon="5.80271">
        <ele>446.6</ele>
        <time>2024-06-12T09:27:30Z</time>
      </trkpt>
      <trkpt lat="43.27247" lon="5.80271">
        <ele>446.6</ele>
        <time>2024-06-12T09:27:31Z</time>
      </trkpt>
      <trkpt lat="43.27245" lon="5.80271">
        <ele>446.6</ele>
        <time>2024-06-12T09:27:32Z</time>
      </trkpt>
      <trkpt lat="43.27241" lon="5.80271">
        <ele>447.2</ele>
        <time>2024-06-12T09:27:33Z</time>
      </trkpt>
      <trkpt lat="43.27239" lon="5.80271">
        <ele>447.2</ele>
        <time>2024-06-12T09:27:34Z</time>
      </trkpt>
      <trkpt lat="43.27236" lon="5.80272">
        <ele>447.2</ele>
        <time>2024-06-12T09:27:35Z</time>
      </trkpt>
      <trkpt lat="43.27234" lon="5.80272">
        <ele>447.2</ele>
        <time>2024-06-12T09:27:36Z</time>
      </trkpt>
      <trkpt lat="43.27231" lon="5.80272">
        <ele>448</ele>
        <time>2024-06-12T09:27:37Z</time>
      </trkpt>
      <trkpt lat="43.27229" lon="5.80272">
        <ele>448</ele>
        <time>2024-06-12T09:27:38Z</time>
      </trkpt>
      <trkpt lat="43.27226" lon="5.80272">
        <ele>448.2</ele>
        <time>2024-06-12T09:27:39Z</time>
      </trkpt>
      <trkpt lat="43.27223" lon="5.80273">
        <ele>448.2</ele>
        <time>2024-06-12T09:27:40Z</time>
      </trkpt>
      <trkpt lat="43.2722" lon="5.80274">
        <ele>448.2</ele>
        <time>2024-06-12T09:27:41Z</time>
      </trkpt>
      <trkpt lat="43.27217" lon="5.80275">
        <ele>448.2</ele>
        <time>2024-06-12T09:27:42Z</time>
      </trkpt>
      <trkpt lat="43.27214" lon="5.80275">
        <ele>448.6</ele>
        <time>2024-06-12T09:27:43Z</time>
      </trkpt>
      <trkpt lat="43.27211" lon="5.80276">
        <ele>448.8</ele>
        <time>2024-06-12T09:27:44Z</time>
      </trkpt>
      <trkpt lat="43.27207" lon="5.80277">
        <ele>448.8</ele>
        <time>2024-06-12T09:27:45Z</time>
      </trkpt>
      <trkpt lat="43.27205" lon="5.80278">
        <ele>448.8</ele>
        <time>2024-06-12T09:27:46Z</time>
      </trkpt>
      <trkpt lat="43.27202" lon="5.80279">
        <ele>449.8</ele>
        <time>2024-06-12T09:27:47Z</time>
      </trkpt>
      <trkpt lat="43.27198" lon="5.80282">
        <ele>449.8</ele>
        <time>2024-06-12T09:27:48Z</time>
      </trkpt>
      <trkpt lat="43.27197" lon="5.80282">
        <ele>449.8</ele>
        <time>2024-06-12T09:27:49Z</time>
      </trkpt>
      <trkpt lat="43.27192" lon="5.80284">
        <ele>449.8</ele>
        <time>2024-06-12T09:27:50Z</time>
      </trkpt>
      <trkpt lat="43.27191" lon="5.80285">
        <ele>449.8</ele>
        <time>2024-06-12T09:27:51Z</time>
      </trkpt>
      <trkpt lat="43.27187" lon="5.80286">
        <ele>450.4</ele>
        <time>2024-06-12T09:27:52Z</time>
      </trkpt>
      <trkpt lat="43.27185" lon="5.80286">
        <ele>450.4</ele>
        <time>2024-06-12T09:27:53Z</time>
      </trkpt>
      <trkpt lat="43.27182" lon="5.80287">
        <ele>450.4</ele>
        <time>2024-06-12T09:27:54Z</time>
      </trkpt>
      <trkpt lat="43.27178" lon="5.80289">
        <ele>450.4</ele>
        <time>2024-06-12T09:27:55Z</time>
      </trkpt>
      <trkpt lat="43.27177" lon="5.80289">
        <ele>451.2</ele>
        <time>2024-06-12T09:27:56Z</time>
      </trkpt>
      <trkpt lat="43.27172" lon="5.80291">
        <ele>451.2</ele>
        <time>2024-06-12T09:27:57Z</time>
      </trkpt>
      <trkpt lat="43.27171" lon="5.80292">
        <ele>451.2</ele>
        <time>2024-06-12T09:27:58Z</time>
      </trkpt>
      <trkpt lat="43.27167" lon="5.80293">
        <ele>451.2</ele>
        <time>2024-06-12T09:27:59Z</time>
      </trkpt>
      <trkpt lat="43.27165" lon="5.80294">
        <ele>452</ele>
        <time>2024-06-12T09:28:00Z</time>
      </trkpt>
      <trkpt lat="43.27162" lon="5.80295">
        <ele>452</ele>
        <time>2024-06-12T09:28:01Z</time>
      </trkpt>
      <trkpt lat="43.27158" lon="5.80297">
        <ele>452</ele>
        <time>2024-06-12T09:28:02Z</time>
      </trkpt>
      <trkpt lat="43.27157" lon="5.80298">
        <ele>452</ele>
        <time>2024-06-12T09:28:03Z</time>
      </trkpt>
      <trkpt lat="43.27155" lon="5.80299">
        <ele>452</ele>
        <time>2024-06-12T09:28:04Z</time>
      </trkpt>
      <trkpt lat="43.27151" lon="5.803">
        <ele>452</ele>
        <time>2024-06-12T09:28:05Z</time>
      </trkpt>
      <trkpt lat="43.27149" lon="5.80301">
        <ele>452.4</ele>
        <time>2024-06-12T09:28:06Z</time>
      </trkpt>
      <trkpt lat="43.27145" lon="5.80302">
        <ele>452.4</ele>
        <time>2024-06-12T09:28:07Z</time>
      </trkpt>
      <trkpt lat="43.27143" lon="5.80302">
        <ele>452.4</ele>
        <time>2024-06-12T09:28:08Z</time>
      </trkpt>
      <trkpt lat="43.2714" lon="5.80303">
        <ele>453</ele>
        <time>2024-06-12T09:28:09Z</time>
      </trkpt>
      <trkpt lat="43.27137" lon="5.80305">
        <ele>453</ele>
        <time>2024-06-12T09:28:10Z</time>
      </trkpt>
      <trkpt lat="43.27134" lon="5.80306">
        <ele>453</ele>
        <time>2024-06-12T09:28:11Z</time>
      </trkpt>
      <trkpt lat="43.2713" lon="5.80308">
        <ele>453</ele>
        <time>2024-06-12T09:28:12Z</time>
      </trkpt>
      <trkpt lat="43.27128" lon="5.80309">
        <ele>453</ele>
        <time>2024-06-12T09:28:13Z</time>
      </trkpt>
      <trkpt lat="43.27123" lon="5.80311">
        <ele>453</ele>
        <time>2024-06-12T09:28:14Z</time>
      </trkpt>
      <trkpt lat="43.27122" lon="5.80311">
        <ele>453.2</ele>
        <time>2024-06-12T09:28:15Z</time>
      </trkpt>
      <trkpt lat="43.27118" lon="5.80313">
        <ele>453.2</ele>
        <time>2024-06-12T09:28:16Z</time>
      </trkpt>
      <trkpt lat="43.27115" lon="5.80314">
        <ele>453.2</ele>
        <time>2024-06-12T09:28:17Z</time>
      </trkpt>
      <trkpt lat="43.27111" lon="5.80315">
        <ele>453.4</ele>
        <time>2024-06-12T09:28:18Z</time>
      </trkpt>
      <trkpt lat="43.27108" lon="5.80317">
        <ele>453.4</ele>
        <time>2024-06-12T09:28:19Z</time>
      </trkpt>
      <trkpt lat="43.27104" lon="5.80318">
        <ele>453.4</ele>
        <time>2024-06-12T09:28:20Z</time>
      </trkpt>
      <trkpt lat="43.271" lon="5.80319">
        <ele>453.4</ele>
        <time>2024-06-12T09:28:21Z</time>
      </trkpt>
      <trkpt lat="43.27095" lon="5.80321">
        <ele>453.4</ele>
        <time>2024-06-12T09:28:22Z</time>
      </trkpt>
      <trkpt lat="43.2709" lon="5.80322">
        <ele>453.4</ele>
        <time>2024-06-12T09:28:23Z</time>
      </trkpt>
      <trkpt lat="43.27084" lon="5.80324">
        <ele>453.4</ele>
        <time>2024-06-12T09:28:24Z</time>
      </trkpt>
      <trkpt lat="43.27079" lon="5.80326">
        <ele>453.6</ele>
        <time>2024-06-12T09:28:25Z</time>
      </trkpt>
      <trkpt lat="43.27069" lon="5.8033">
        <ele>453.6</ele>
        <time>2024-06-12T09:28:26Z</time>
      </trkpt>
      <trkpt lat="43.27066" lon="5.80331">
        <ele>453.6</ele>
        <time>2024-06-12T09:28:27Z</time>
      </trkpt>
      <trkpt lat="43.27057" lon="5.80335">
        <ele>453.4</ele>
        <time>2024-06-12T09:28:28Z</time>
      </trkpt>
      <trkpt lat="43.27054" lon="5.80336">
        <ele>453.4</ele>
        <time>2024-06-12T09:28:29Z</time>
      </trkpt>
      <trkpt lat="43.27044" lon="5.8034">
        <ele>453.4</ele>
        <time>2024-06-12T09:28:30Z</time>
      </trkpt>
      <trkpt lat="43.2704" lon="5.80341">
        <ele>453.4</ele>
        <time>2024-06-12T09:28:31Z</time>
      </trkpt>
      <trkpt lat="43.2703" lon="5.80345">
        <ele>453.4</ele>
        <time>2024-06-12T09:28:32Z</time>
      </trkpt>
      <trkpt lat="43.27027" lon="5.80346">
        <ele>453.2</ele>
        <time>2024-06-12T09:28:33Z</time>
      </trkpt>
      <trkpt lat="43.27018" lon="5.8035">
        <ele>453.4</ele>
        <time>2024-06-12T09:28:34Z</time>
      </trkpt>
      <trkpt lat="43.27014" lon="5.80351">
        <ele>453.4</ele>
        <time>2024-06-12T09:28:35Z</time>
      </trkpt>
      <trkpt lat="43.27008" lon="5.80354">
        <ele>453.4</ele>
        <time>2024-06-12T09:28:36Z</time>
      </trkpt>
      <trkpt lat="43.26998" lon="5.80358">
        <ele>453.4</ele>
        <time>2024-06-12T09:28:37Z</time>
      </trkpt>
      <trkpt lat="43.26995" lon="5.80359">
        <ele>453.4</ele>
        <time>2024-06-12T09:28:38Z</time>
      </trkpt>
      <trkpt lat="43.26986" lon="5.80363">
        <ele>453.4</ele>
        <time>2024-06-12T09:28:39Z</time>
      </trkpt>
      <trkpt lat="43.26982" lon="5.80364">
        <ele>453.4</ele>
        <time>2024-06-12T09:28:40Z</time>
      </trkpt>
      <trkpt lat="43.26976" lon="5.80367">
        <ele>453.6</ele>
        <time>2024-06-12T09:28:41Z</time>
      </trkpt>
      <trkpt lat="43.26966" lon="5.80371">
        <ele>453.6</ele>
        <time>2024-06-12T09:28:42Z</time>
      </trkpt>
      <trkpt lat="43.26963" lon="5.80373">
        <ele>453.6</ele>
        <time>2024-06-12T09:28:43Z</time>
      </trkpt>
      <trkpt lat="43.26957" lon="5.80376">
        <ele>453.6</ele>
        <time>2024-06-12T09:28:44Z</time>
      </trkpt>
      <trkpt lat="43.26947" lon="5.8038">
        <ele>453.6</ele>
        <time>2024-06-12T09:28:45Z</time>
      </trkpt>
      <trkpt lat="43.26944" lon="5.80381">
        <ele>454</ele>
        <time>2024-06-12T09:28:46Z</time>
      </trkpt>
      <trkpt lat="43.26935" lon="5.80386">
        <ele>453.8</ele>
        <time>2024-06-12T09:28:47Z</time>
      </trkpt>
      <trkpt lat="43.26932" lon="5.80387">
        <ele>453.8</ele>
        <time>2024-06-12T09:28:48Z</time>
      </trkpt>
      <trkpt lat="43.26923" lon="5.80391">
        <ele>453.8</ele>
        <time>2024-06-12T09:28:49Z</time>
      </trkpt>
      <trkpt lat="43.26919" lon="5.80393">
        <ele>453.6</ele>
        <time>2024-06-12T09:28:50Z</time>
      </trkpt>
      <trkpt lat="43.26913" lon="5.80396">
        <ele>453.8</ele>
        <time>2024-06-12T09:28:51Z</time>
      </trkpt>
      <trkpt lat="43.26907" lon="5.80399">
        <ele>453.8</ele>
        <time>2024-06-12T09:28:52Z</time>
      </trkpt>
      <trkpt lat="43.26901" lon="5.80402">
        <ele>453.8</ele>
        <time>2024-06-12T09:28:53Z</time>
      </trkpt>
      <trkpt lat="43.26891" lon="5.80406">
        <ele>453.8</ele>
        <time>2024-06-12T09:28:54Z</time>
      </trkpt>
      <trkpt lat="43.26888" lon="5.80407">
        <ele>453.8</ele>
        <time>2024-06-12T09:28:55Z</time>
      </trkpt>
      <trkpt lat="43.26878" lon="5.80412">
        <ele>453.6</ele>
        <time>2024-06-12T09:28:56Z</time>
      </trkpt>
      <trkpt lat="43.26875" lon="5.80413">
        <ele>453.6</ele>
        <time>2024-06-12T09:28:57Z</time>
      </trkpt>
      <trkpt lat="43.26865" lon="5.80418">
        <ele>453.6</ele>
        <time>2024-06-12T09:28:58Z</time>
      </trkpt>
      <trkpt lat="43.26862" lon="5.80419">
        <ele>453.6</ele>
        <time>2024-06-12T09:28:59Z</time>
      </trkpt>
      <trkpt lat="43.26855" lon="5.80423">
        <ele>453.4</ele>
        <time>2024-06-12T09:29:00Z</time>
      </trkpt>
      <trkpt lat="43.26848" lon="5.80425">
        <ele>453.4</ele>
        <time>2024-06-12T09:29:01Z</time>
      </trkpt>
      <trkpt lat="43.26841" lon="5.80429">
        <ele>453.4</ele>
        <time>2024-06-12T09:29:02Z</time>
      </trkpt>
      <trkpt lat="43.26834" lon="5.80432">
        <ele>453.4</ele>
        <time>2024-06-12T09:29:03Z</time>
      </trkpt>
      <trkpt lat="43.26828" lon="5.80435">
        <ele>453.4</ele>
        <time>2024-06-12T09:29:04Z</time>
      </trkpt>
      <trkpt lat="43.26821" lon="5.80438">
        <ele>453.4</ele>
        <time>2024-06-12T09:29:05Z</time>
      </trkpt>
      <trkpt lat="43.26814" lon="5.80441">
        <ele>453.4</ele>
        <time>2024-06-12T09:29:06Z</time>
      </trkpt>
      <trkpt lat="43.26803" lon="5.80445">
        <ele>453.4</ele>
        <time>2024-06-12T09:29:07Z</time>
      </trkpt>
      <trkpt lat="43.268" lon="5.80446">
        <ele>453.4</ele>
        <time>2024-06-12T09:29:08Z</time>
      </trkpt>
      <trkpt lat="43.2679" lon="5.80451">
        <ele>453.2</ele>
        <time>2024-06-12T09:29:09Z</time>
      </trkpt>
      <trkpt lat="43.26786" lon="5.80452">
        <ele>453.4</ele>
        <time>2024-06-12T09:29:10Z</time>
      </trkpt>
      <trkpt lat="43.26776" lon="5.80457">
        <ele>453.4</ele>
        <time>2024-06-12T09:29:11Z</time>
      </trkpt>
      <trkpt lat="43.26773" lon="5.80459">
        <ele>453.4</ele>
        <time>2024-06-12T09:29:12Z</time>
      </trkpt>
      <trkpt lat="43.26763" lon="5.80463">
        <ele>453.2</ele>
        <time>2024-06-12T09:29:13Z</time>
      </trkpt>
      <trkpt lat="43.26759" lon="5.80464">
        <ele>453.2</ele>
        <time>2024-06-12T09:29:14Z</time>
      </trkpt>
      <trkpt lat="43.2675" lon="5.80469">
        <ele>453.4</ele>
        <time>2024-06-12T09:29:15Z</time>
      </trkpt>
      <trkpt lat="43.26747" lon="5.8047">
        <ele>453.4</ele>
        <time>2024-06-12T09:29:16Z</time>
      </trkpt>
      <trkpt lat="43.26737" lon="5.80474">
        <ele>453.4</ele>
        <time>2024-06-12T09:29:17Z</time>
      </trkpt>
      <trkpt lat="43.26734" lon="5.80476">
        <ele>453.2</ele>
        <time>2024-06-12T09:29:18Z</time>
      </trkpt>
      <trkpt lat="43.26728" lon="5.80479">
        <ele>453.2</ele>
        <time>2024-06-12T09:29:19Z</time>
      </trkpt>
      <trkpt lat="43.26718" lon="5.80483">
        <ele>453.2</ele>
        <time>2024-06-12T09:29:20Z</time>
      </trkpt>
      <trkpt lat="43.26715" lon="5.80485">
        <ele>453.2</ele>
        <time>2024-06-12T09:29:21Z</time>
      </trkpt>
      <trkpt lat="43.26706" lon="5.80489">
        <ele>453.4</ele>
        <time>2024-06-12T09:29:22Z</time>
      </trkpt>
      <trkpt lat="43.26703" lon="5.80491">
        <ele>453.4</ele>
        <time>2024-06-12T09:29:23Z</time>
      </trkpt>
      <trkpt lat="43.26697" lon="5.80494">
        <ele>453.4</ele>
        <time>2024-06-12T09:29:24Z</time>
      </trkpt>
      <trkpt lat="43.26689" lon="5.805">
        <ele>453.4</ele>
        <time>2024-06-12T09:29:25Z</time>
      </trkpt>
      <trkpt lat="43.26686" lon="5.80503">
        <ele>453.6</ele>
        <time>2024-06-12T09:29:26Z</time>
      </trkpt>
      <trkpt lat="43.2668" lon="5.80507">
        <ele>453.6</ele>
        <time>2024-06-12T09:29:27Z</time>
      </trkpt>
      <trkpt lat="43.26671" lon="5.80513">
        <ele>453.6</ele>
        <time>2024-06-12T09:29:28Z</time>
      </trkpt>
      <trkpt lat="43.26668" lon="5.80515">
        <ele>453.6</ele>
        <time>2024-06-12T09:29:29Z</time>
      </trkpt>
      <trkpt lat="43.26659" lon="5.80521">
        <ele>453.6</ele>
        <time>2024-06-12T09:29:30Z</time>
      </trkpt>
      <trkpt lat="43.26656" lon="5.80524">
        <ele>453.8</ele>
        <time>2024-06-12T09:29:31Z</time>
      </trkpt>
      <trkpt lat="43.26647" lon="5.8053">
        <ele>453.8</ele>
        <time>2024-06-12T09:29:32Z</time>
      </trkpt>
      <trkpt lat="43.26645" lon="5.80532">
        <ele>453.8</ele>
        <time>2024-06-12T09:29:33Z</time>
      </trkpt>
      <trkpt lat="43.26639" lon="5.80537">
        <ele>453.8</ele>
        <time>2024-06-12T09:29:34Z</time>
      </trkpt>
      <trkpt lat="43.26633" lon="5.80541">
        <ele>454.2</ele>
        <time>2024-06-12T09:29:35Z</time>
      </trkpt>
      <trkpt lat="43.26628" lon="5.80546">
        <ele>454.2</ele>
        <time>2024-06-12T09:29:36Z</time>
      </trkpt>
      <trkpt lat="43.26619" lon="5.80552">
        <ele>454.2</ele>
        <time>2024-06-12T09:29:37Z</time>
      </trkpt>
      <trkpt lat="43.26616" lon="5.80555">
        <ele>454.2</ele>
        <time>2024-06-12T09:29:38Z</time>
      </trkpt>
      <trkpt lat="43.26608" lon="5.80561">
        <ele>454.2</ele>
        <time>2024-06-12T09:29:39Z</time>
      </trkpt>
      <trkpt lat="43.26605" lon="5.80563">
        <ele>454.2</ele>
        <time>2024-06-12T09:29:40Z</time>
      </trkpt>
      <trkpt lat="43.26597" lon="5.8057">
        <ele>454.4</ele>
        <time>2024-06-12T09:29:41Z</time>
      </trkpt>
      <trkpt lat="43.26594" lon="5.80572">
        <ele>454.4</ele>
        <time>2024-06-12T09:29:42Z</time>
      </trkpt>
      <trkpt lat="43.26589" lon="5.80576">
        <ele>454.4</ele>
        <time>2024-06-12T09:29:43Z</time>
      </trkpt>
      <trkpt lat="43.26583" lon="5.80581">
        <ele>454.8</ele>
        <time>2024-06-12T09:29:44Z</time>
      </trkpt>
      <trkpt lat="43.26578" lon="5.80585">
        <ele>455</ele>
        <time>2024-06-12T09:29:45Z</time>
      </trkpt>
      <trkpt lat="43.26572" lon="5.8059">
        <ele>455</ele>
        <time>2024-06-12T09:29:46Z</time>
      </trkpt>
      <trkpt lat="43.26567" lon="5.80594">
        <ele>455</ele>
        <time>2024-06-12T09:29:47Z</time>
      </trkpt>
      <trkpt lat="43.26561" lon="5.80598">
        <ele>455</ele>
        <time>2024-06-12T09:29:48Z</time>
      </trkpt>
      <trkpt lat="43.26556" lon="5.80602">
        <ele>455</ele>
        <time>2024-06-12T09:29:49Z</time>
      </trkpt>
      <trkpt lat="43.2655" lon="5.80606">
        <ele>455.4</ele>
        <time>2024-06-12T09:29:50Z</time>
      </trkpt>
      <trkpt lat="43.26542" lon="5.80613">
        <ele>455.4</ele>
        <time>2024-06-12T09:29:51Z</time>
      </trkpt>
      <trkpt lat="43.26539" lon="5.80615">
        <ele>455.4</ele>
        <time>2024-06-12T09:29:52Z</time>
      </trkpt>
      <trkpt lat="43.26531" lon="5.80621">
        <ele>455.4</ele>
        <time>2024-06-12T09:29:53Z</time>
      </trkpt>
      <trkpt lat="43.26528" lon="5.80623">
        <ele>455.8</ele>
        <time>2024-06-12T09:29:54Z</time>
      </trkpt>
      <trkpt lat="43.2652" lon="5.8063">
        <ele>455.8</ele>
        <time>2024-06-12T09:29:55Z</time>
      </trkpt>
      <trkpt lat="43.26517" lon="5.80632">
        <ele>455.8</ele>
        <time>2024-06-12T09:29:56Z</time>
      </trkpt>
      <trkpt lat="43.26509" lon="5.80638">
        <ele>455.8</ele>
        <time>2024-06-12T09:29:57Z</time>
      </trkpt>
      <trkpt lat="43.26506" lon="5.8064">
        <ele>455.8</ele>
        <time>2024-06-12T09:29:58Z</time>
      </trkpt>
      <trkpt lat="43.26498" lon="5.80647">
        <ele>456.2</ele>
        <time>2024-06-12T09:29:59Z</time>
      </trkpt>
      <trkpt lat="43.26495" lon="5.80649">
        <ele>456.2</ele>
        <time>2024-06-12T09:30:00Z</time>
      </trkpt>
      <trkpt lat="43.2649" lon="5.80653">
        <ele>456.2</ele>
        <time>2024-06-12T09:30:01Z</time>
      </trkpt>
      <trkpt lat="43.26481" lon="5.80659">
        <ele>456.2</ele>
        <time>2024-06-12T09:30:02Z</time>
      </trkpt>
      <trkpt lat="43.26479" lon="5.80661">
        <ele>456.4</ele>
        <time>2024-06-12T09:30:03Z</time>
      </trkpt>
      <trkpt lat="43.2647" lon="5.80667">
        <ele>456.4</ele>
        <time>2024-06-12T09:30:04Z</time>
      </trkpt>
      <trkpt lat="43.26468" lon="5.80669">
        <ele>456.4</ele>
        <time>2024-06-12T09:30:05Z</time>
      </trkpt>
      <trkpt lat="43.26459" lon="5.80675">
        <ele>456.4</ele>
        <time>2024-06-12T09:30:06Z</time>
      </trkpt>
      <trkpt lat="43.26457" lon="5.80677">
        <ele>456.6</ele>
        <time>2024-06-12T09:30:07Z</time>
      </trkpt>
      <trkpt lat="43.26451" lon="5.80681">
        <ele>456.6</ele>
        <time>2024-06-12T09:30:08Z</time>
      </trkpt>
      <trkpt lat="43.26443" lon="5.80688">
        <ele>456.6</ele>
        <time>2024-06-12T09:30:09Z</time>
      </trkpt>
      <trkpt lat="43.2644" lon="5.8069">
        <ele>456.6</ele>
        <time>2024-06-12T09:30:10Z</time>
      </trkpt>
      <trkpt lat="43.26434" lon="5.80694">
        <ele>456.8</ele>
        <time>2024-06-12T09:30:11Z</time>
      </trkpt>
      <trkpt lat="43.26425" lon="5.80701">
        <ele>456.8</ele>
        <time>2024-06-12T09:30:12Z</time>
      </trkpt>
      <trkpt lat="43.26422" lon="5.80703">
        <ele>456.8</ele>
        <time>2024-06-12T09:30:13Z</time>
      </trkpt>
      <trkpt lat="43.26413" lon="5.8071">
        <ele>456.8</ele>
        <time>2024-06-12T09:30:14Z</time>
      </trkpt>
      <trkpt lat="43.2641" lon="5.80712">
        <ele>456.8</ele>
        <time>2024-06-12T09:30:15Z</time>
      </trkpt>
      <trkpt lat="43.264" lon="5.80719">
        <ele>456.8</ele>
        <time>2024-06-12T09:30:16Z</time>
      </trkpt>
      <trkpt lat="43.26397" lon="5.80721">
        <ele>456.8</ele>
        <time>2024-06-12T09:30:17Z</time>
      </trkpt>
      <trkpt lat="43.26391" lon="5.80726">
        <ele>456.8</ele>
        <time>2024-06-12T09:30:18Z</time>
      </trkpt>
      <trkpt lat="43.26381" lon="5.80734">
        <ele>456.8</ele>
        <time>2024-06-12T09:30:19Z</time>
      </trkpt>
      <trkpt lat="43.26378" lon="5.80736">
        <ele>456.8</ele>
        <time>2024-06-12T09:30:20Z</time>
      </trkpt>
      <trkpt lat="43.26368" lon="5.80744">
        <ele>456.8</ele>
        <time>2024-06-12T09:30:21Z</time>
      </trkpt>
      <trkpt lat="43.26364" lon="5.80747">
        <ele>456.8</ele>
        <time>2024-06-12T09:30:22Z</time>
      </trkpt>
      <trkpt lat="43.26354" lon="5.80754">
        <ele>456.8</ele>
        <time>2024-06-12T09:30:23Z</time>
      </trkpt>
      <trkpt lat="43.26351" lon="5.80757">
        <ele>456.8</ele>
        <time>2024-06-12T09:30:24Z</time>
      </trkpt>
      <trkpt lat="43.26341" lon="5.80765">
        <ele>456.4</ele>
        <time>2024-06-12T09:30:25Z</time>
      </trkpt>
      <trkpt lat="43.26337" lon="5.80768">
        <ele>456.2</ele>
        <time>2024-06-12T09:30:26Z</time>
      </trkpt>
      <trkpt lat="43.2633" lon="5.80772">
        <ele>456.2</ele>
        <time>2024-06-12T09:30:27Z</time>
      </trkpt>
      <trkpt lat="43.26322" lon="5.80777">
        <ele>456.2</ele>
        <time>2024-06-12T09:30:28Z</time>
      </trkpt>
      <trkpt lat="43.26314" lon="5.80782">
        <ele>455.8</ele>
        <time>2024-06-12T09:30:29Z</time>
      </trkpt>
      <trkpt lat="43.26305" lon="5.80785">
        <ele>455.8</ele>
        <time>2024-06-12T09:30:30Z</time>
      </trkpt>
      <trkpt lat="43.26297" lon="5.80787">
        <ele>455.8</ele>
        <time>2024-06-12T09:30:31Z</time>
      </trkpt>
      <trkpt lat="43.26288" lon="5.80788">
        <ele>455.4</ele>
        <time>2024-06-12T09:30:32Z</time>
      </trkpt>
      <trkpt lat="43.26279" lon="5.80787">
        <ele>455.4</ele>
        <time>2024-06-12T09:30:33Z</time>
      </trkpt>
      <trkpt lat="43.2627" lon="5.80785">
        <ele>455.4</ele>
        <time>2024-06-12T09:30:34Z</time>
      </trkpt>
      <trkpt lat="43.26257" lon="5.80779">
        <ele>455</ele>
        <time>2024-06-12T09:30:35Z</time>
      </trkpt>
      <trkpt lat="43.26253" lon="5.80776">
        <ele>454.8</ele>
        <time>2024-06-12T09:30:36Z</time>
      </trkpt>
      <trkpt lat="43.26241" lon="5.80768">
        <ele>454.8</ele>
        <time>2024-06-12T09:30:37Z</time>
      </trkpt>
      <trkpt lat="43.26238" lon="5.80764">
        <ele>454.8</ele>
        <time>2024-06-12T09:30:38Z</time>
      </trkpt>
      <trkpt lat="43.26227" lon="5.80753">
        <ele>453.8</ele>
        <time>2024-06-12T09:30:39Z</time>
      </trkpt>
      <trkpt lat="43.26223" lon="5.80749">
        <ele>453.8</ele>
        <time>2024-06-12T09:30:40Z</time>
      </trkpt>
      <trkpt lat="43.26212" lon="5.80738">
        <ele>453.8</ele>
        <time>2024-06-12T09:30:41Z</time>
      </trkpt>
      <trkpt lat="43.26209" lon="5.80734">
        <ele>453.8</ele>
        <time>2024-06-12T09:30:42Z</time>
      </trkpt>
      <trkpt lat="43.26202" lon="5.80727">
        <ele>453.2</ele>
        <time>2024-06-12T09:30:43Z</time>
      </trkpt>
      <trkpt lat="43.26192" lon="5.80717">
        <ele>453.2</ele>
        <time>2024-06-12T09:30:44Z</time>
      </trkpt>
      <trkpt lat="43.26189" lon="5.80713">
        <ele>453</ele>
        <time>2024-06-12T09:30:45Z</time>
      </trkpt>
      <trkpt lat="43.26179" lon="5.80703">
        <ele>453</ele>
        <time>2024-06-12T09:30:46Z</time>
      </trkpt>
      <trkpt lat="43.26176" lon="5.80699">
        <ele>453</ele>
        <time>2024-06-12T09:30:47Z</time>
      </trkpt>
      <trkpt lat="43.26167" lon="5.8069">
        <ele>452.6</ele>
        <time>2024-06-12T09:30:48Z</time>
      </trkpt>
      <trkpt lat="43.26165" lon="5.80687">
        <ele>452.6</ele>
        <time>2024-06-12T09:30:49Z</time>
      </trkpt>
      <trkpt lat="43.26161" lon="5.80682">
        <ele>452.6</ele>
        <time>2024-06-12T09:30:50Z</time>
      </trkpt>
      <trkpt lat="43.26159" lon="5.80679">
        <ele>452.6</ele>
        <time>2024-06-12T09:30:51Z</time>
      </trkpt>
      <trkpt lat="43.26158" lon="5.80677">
        <ele>452.2</ele>
        <time>2024-06-12T09:30:52Z</time>
      </trkpt>
      <trkpt lat="43.26158" lon="5.80677">
        <ele>452.2</ele>
        <time>2024-06-12T09:30:53Z</time>
      </trkpt>
      <trkpt lat="43.26158" lon="5.80677">
        <ele>452</ele>
        <time>2024-06-12T09:30:54Z</time>
      </trkpt>
      <trkpt lat="43.26161" lon="5.80676">
        <ele>449.6</ele>
        <time>2024-06-12T09:31:28Z</time>
      </trkpt>
      <trkpt lat="43.26161" lon="5.80676">
        <ele>449.6</ele>
        <time>2024-06-12T09:31:29Z</time>
      </trkpt>
      <trkpt lat="43.26161" lon="5.80676">
        <ele>449.6</ele>
        <time>2024-06-12T09:31:30Z</time>
      </trkpt>
      <trkpt lat="43.26159" lon="5.80682">
        <ele>451.6</ele>
        <time>2024-06-12T09:35:31Z</time>
      </trkpt>
      <trkpt lat="43.26158" lon="5.80684">
        <ele>451.6</ele>
        <time>2024-06-12T09:35:32Z</time>
      </trkpt>
      <trkpt lat="43.26158" lon="5.80686">
        <ele>451.6</ele>
        <time>2024-06-12T09:35:33Z</time>
      </trkpt>
      <trkpt lat="43.26159" lon="5.80688">
        <ele>451.6</ele>
        <time>2024-06-12T09:35:34Z</time>
      </trkpt>
      <trkpt lat="43.2616" lon="5.8069">
        <ele>451.2</ele>
        <time>2024-06-12T09:35:35Z</time>
      </trkpt>
      <trkpt lat="43.26161" lon="5.80692">
        <ele>451.2</ele>
        <time>2024-06-12T09:35:36Z</time>
      </trkpt>
      <trkpt lat="43.26162" lon="5.80693">
        <ele>451.2</ele>
        <time>2024-06-12T09:35:37Z</time>
      </trkpt>
      <trkpt lat="43.26164" lon="5.80695">
        <ele>451.2</ele>
        <time>2024-06-12T09:35:38Z</time>
      </trkpt>
      <trkpt lat="43.26166" lon="5.80698">
        <ele>451.6</ele>
        <time>2024-06-12T09:35:39Z</time>
      </trkpt>
      <trkpt lat="43.26167" lon="5.80699">
        <ele>451.6</ele>
        <time>2024-06-12T09:35:40Z</time>
      </trkpt>
      <trkpt lat="43.2617" lon="5.80702">
        <ele>451.6</ele>
        <time>2024-06-12T09:35:41Z</time>
      </trkpt>
      <trkpt lat="43.26171" lon="5.80703">
        <ele>451.6</ele>
        <time>2024-06-12T09:35:42Z</time>
      </trkpt>
      <trkpt lat="43.26174" lon="5.80706">
        <ele>451.6</ele>
        <time>2024-06-12T09:35:43Z</time>
      </trkpt>
      <trkpt lat="43.26175" lon="5.80708">
        <ele>451.6</ele>
        <time>2024-06-12T09:35:44Z</time>
      </trkpt>
      <trkpt lat="43.26178" lon="5.8071">
        <ele>451.6</ele>
        <time>2024-06-12T09:35:45Z</time>
      </trkpt>
      <trkpt lat="43.26182" lon="5.80714">
        <ele>451.6</ele>
        <time>2024-06-12T09:35:46Z</time>
      </trkpt>
      <trkpt lat="43.26183" lon="5.80715">
        <ele>451.6</ele>
        <time>2024-06-12T09:35:47Z</time>
      </trkpt>
      <trkpt lat="43.26185" lon="5.80718">
        <ele>451.4</ele>
        <time>2024-06-12T09:35:48Z</time>
      </trkpt>
      <trkpt lat="43.26189" lon="5.80723">
        <ele>451.4</ele>
        <time>2024-06-12T09:35:49Z</time>
      </trkpt>
      <trkpt lat="43.26191" lon="5.80724">
        <ele>451.4</ele>
        <time>2024-06-12T09:35:50Z</time>
      </trkpt>
      <trkpt lat="43.26195" lon="5.80729">
        <ele>451.4</ele>
        <time>2024-06-12T09:35:51Z</time>
      </trkpt>
      <trkpt lat="43.26197" lon="5.80731">
        <ele>451.4</ele>
        <time>2024-06-12T09:35:52Z</time>
      </trkpt>
      <trkpt lat="43.262" lon="5.80734">
        <ele>451.6</ele>
        <time>2024-06-12T09:35:53Z</time>
      </trkpt>
      <trkpt lat="43.26204" lon="5.80739">
        <ele>451.6</ele>
        <time>2024-06-12T09:35:54Z</time>
      </trkpt>
      <trkpt lat="43.26206" lon="5.8074">
        <ele>451.6</ele>
        <time>2024-06-12T09:35:55Z</time>
      </trkpt>
      <trkpt lat="43.2621" lon="5.80745">
        <ele>451.6</ele>
        <time>2024-06-12T09:35:56Z</time>
      </trkpt>
      <trkpt lat="43.26212" lon="5.80747">
        <ele>451.6</ele>
        <time>2024-06-12T09:35:57Z</time>
      </trkpt>
      <trkpt lat="43.26216" lon="5.80751">
        <ele>451.6</ele>
        <time>2024-06-12T09:35:58Z</time>
      </trkpt>
      <trkpt lat="43.26218" lon="5.80752">
        <ele>451.6</ele>
        <time>2024-06-12T09:35:59Z</time>
      </trkpt>
      <trkpt lat="43.26222" lon="5.80757">
        <ele>451.6</ele>
        <time>2024-06-12T09:36:00Z</time>
      </trkpt>
      <trkpt lat="43.26223" lon="5.80759">
        <ele>452</ele>
        <time>2024-06-12T09:36:01Z</time>
      </trkpt>
      <trkpt lat="43.26228" lon="5.80763">
        <ele>451.8</ele>
        <time>2024-06-12T09:36:02Z</time>
      </trkpt>
      <trkpt lat="43.26229" lon="5.80765">
        <ele>451.8</ele>
        <time>2024-06-12T09:36:03Z</time>
      </trkpt>
      <trkpt lat="43.26232" lon="5.80768">
        <ele>451.8</ele>
        <time>2024-06-12T09:36:04Z</time>
      </trkpt>
      <trkpt lat="43.26235" lon="5.80771">
        <ele>451.8</ele>
        <time>2024-06-12T09:36:05Z</time>
      </trkpt>
      <trkpt lat="43.26238" lon="5.80774">
        <ele>451.8</ele>
        <time>2024-06-12T09:36:06Z</time>
      </trkpt>
      <trkpt lat="43.26241" lon="5.80776">
        <ele>452</ele>
        <time>2024-06-12T09:36:07Z</time>
      </trkpt>
      <trkpt lat="43.26244" lon="5.80779">
        <ele>452</ele>
        <time>2024-06-12T09:36:08Z</time>
      </trkpt>
      <trkpt lat="43.26247" lon="5.80782">
        <ele>452</ele>
        <time>2024-06-12T09:36:09Z</time>
      </trkpt>
      <trkpt lat="43.26251" lon="5.80784">
        <ele>452</ele>
        <time>2024-06-12T09:36:10Z</time>
      </trkpt>
      <trkpt lat="43.26254" lon="5.80786">
        <ele>452</ele>
        <time>2024-06-12T09:36:11Z</time>
      </trkpt>
      <trkpt lat="43.26259" lon="5.80789">
        <ele>452.4</ele>
        <time>2024-06-12T09:36:12Z</time>
      </trkpt>
      <trkpt lat="43.26261" lon="5.8079">
        <ele>452.4</ele>
        <time>2024-06-12T09:36:13Z</time>
      </trkpt>
      <trkpt lat="43.26266" lon="5.80792">
        <ele>452.4</ele>
        <time>2024-06-12T09:36:14Z</time>
      </trkpt>
      <trkpt lat="43.26268" lon="5.80793">
        <ele>452.6</ele>
        <time>2024-06-12T09:36:15Z</time>
      </trkpt>
      <trkpt lat="43.26271" lon="5.80794">
        <ele>452.8</ele>
        <time>2024-06-12T09:36:16Z</time>
      </trkpt>
      <trkpt lat="43.26276" lon="5.80796">
        <ele>452.8</ele>
        <time>2024-06-12T09:36:17Z</time>
      </trkpt>
      <trkpt lat="43.26278" lon="5.80796">
        <ele>452.8</ele>
        <time>2024-06-12T09:36:18Z</time>
      </trkpt>
      <trkpt lat="43.26283" lon="5.80797">
        <ele>452.8</ele>
        <time>2024-06-12T09:36:19Z</time>
      </trkpt>
      <trkpt lat="43.26285" lon="5.80797">
        <ele>452.8</ele>
        <time>2024-06-12T09:36:20Z</time>
      </trkpt>
      <trkpt lat="43.26289" lon="5.80797">
        <ele>453</ele>
        <time>2024-06-12T09:36:21Z</time>
      </trkpt>
      <trkpt lat="43.26294" lon="5.80797">
        <ele>453</ele>
        <time>2024-06-12T09:36:22Z</time>
      </trkpt>
      <trkpt lat="43.26296" lon="5.80797">
        <ele>453</ele>
        <time>2024-06-12T09:36:23Z</time>
      </trkpt>
      <trkpt lat="43.26302" lon="5.80796">
        <ele>453</ele>
        <time>2024-06-12T09:36:24Z</time>
      </trkpt>
      <trkpt lat="43.26304" lon="5.80795">
        <ele>453.4</ele>
        <time>2024-06-12T09:36:25Z</time>
      </trkpt>
      <trkpt lat="43.26307" lon="5.80794">
        <ele>453.4</ele>
        <time>2024-06-12T09:36:26Z</time>
      </trkpt>
      <trkpt lat="43.26313" lon="5.80792">
        <ele>453.4</ele>
        <time>2024-06-12T09:36:27Z</time>
      </trkpt>
      <trkpt lat="43.26314" lon="5.80791">
        <ele>454</ele>
        <time>2024-06-12T09:36:28Z</time>
      </trkpt>
      <trkpt lat="43.26319" lon="5.80789">
        <ele>454.2</ele>
        <time>2024-06-12T09:36:29Z</time>
      </trkpt>
      <trkpt lat="43.26321" lon="5.80788">
        <ele>454.2</ele>
        <time>2024-06-12T09:36:30Z</time>
      </trkpt>
      <trkpt lat="43.26326" lon="5.80785">
        <ele>454.2</ele>
        <time>2024-06-12T09:36:31Z</time>
      </trkpt>
      <trkpt lat="43.26327" lon="5.80784">
        <ele>454.2</ele>
        <time>2024-06-12T09:36:32Z</time>
      </trkpt>
      <trkpt lat="43.2633" lon="5.80782">
        <ele>454.6</ele>
        <time>2024-06-12T09:36:33Z</time>
      </trkpt>
      <trkpt lat="43.26333" lon="5.80779">
        <ele>454.6</ele>
        <time>2024-06-12T09:36:34Z</time>
      </trkpt>
      <trkpt lat="43.26336" lon="5.80777">
        <ele>454.6</ele>
        <time>2024-06-12T09:36:35Z</time>
      </trkpt>
      <trkpt lat="43.26339" lon="5.80775">
        <ele>454.6</ele>
        <time>2024-06-12T09:36:36Z</time>
      </trkpt>
      <trkpt lat="43.26342" lon="5.80773">
        <ele>455.2</ele>
        <time>2024-06-12T09:36:37Z</time>
      </trkpt>
      <trkpt lat="43.26345" lon="5.80771">
        <ele>455.2</ele>
        <time>2024-06-12T09:36:38Z</time>
      </trkpt>
      <trkpt lat="43.26348" lon="5.80769">
        <ele>455.2</ele>
        <time>2024-06-12T09:36:39Z</time>
      </trkpt>
      <trkpt lat="43.26352" lon="5.80766">
        <ele>455.2</ele>
        <time>2024-06-12T09:36:40Z</time>
      </trkpt>
      <trkpt lat="43.26353" lon="5.80765">
        <ele>455.2</ele>
        <time>2024-06-12T09:36:41Z</time>
      </trkpt>
      <trkpt lat="43.26358" lon="5.80762">
        <ele>455.6</ele>
        <time>2024-06-12T09:36:42Z</time>
      </trkpt>
      <trkpt lat="43.26359" lon="5.80761">
        <ele>455.8</ele>
        <time>2024-06-12T09:36:43Z</time>
      </trkpt>
      <trkpt lat="43.26362" lon="5.80759">
        <ele>455.8</ele>
        <time>2024-06-12T09:36:44Z</time>
      </trkpt>
      <trkpt lat="43.26365" lon="5.80757">
        <ele>455.8</ele>
        <time>2024-06-12T09:36:45Z</time>
      </trkpt>
      <trkpt lat="43.26368" lon="5.80755">
        <ele>456.2</ele>
        <time>2024-06-12T09:36:46Z</time>
      </trkpt>
      <trkpt lat="43.2637" lon="5.80752">
        <ele>456.4</ele>
        <time>2024-06-12T09:36:47Z</time>
      </trkpt>
      <trkpt lat="43.26373" lon="5.8075">
        <ele>456.4</ele>
        <time>2024-06-12T09:36:48Z</time>
      </trkpt>
      <trkpt lat="43.26377" lon="5.80747">
        <ele>456.4</ele>
        <time>2024-06-12T09:36:49Z</time>
      </trkpt>
      <trkpt lat="43.26379" lon="5.80746">
        <ele>457</ele>
        <time>2024-06-12T09:36:50Z</time>
      </trkpt>
      <trkpt lat="43.26382" lon="5.80743">
        <ele>457</ele>
        <time>2024-06-12T09:36:51Z</time>
      </trkpt>
      <trkpt lat="43.26385" lon="5.80741">
        <ele>457</ele>
        <time>2024-06-12T09:36:52Z</time>
      </trkpt>
      <trkpt lat="43.26388" lon="5.80739">
        <ele>457</ele>
        <time>2024-06-12T09:36:53Z</time>
      </trkpt>
      <trkpt lat="43.26392" lon="5.80736">
        <ele>457</ele>
        <time>2024-06-12T09:36:54Z</time>
      </trkpt>
      <trkpt lat="43.26393" lon="5.80734">
        <ele>457</ele>
        <time>2024-06-12T09:36:55Z</time>
      </trkpt>
      <trkpt lat="43.26398" lon="5.80731">
        <ele>457.6</ele>
        <time>2024-06-12T09:36:56Z</time>
      </trkpt>
      <trkpt lat="43.26399" lon="5.8073">
        <ele>457.8</ele>
        <time>2024-06-12T09:36:57Z</time>
      </trkpt>
      <trkpt lat="43.26404" lon="5.80726">
        <ele>457.8</ele>
        <time>2024-06-12T09:36:58Z</time>
      </trkpt>
      <trkpt lat="43.26405" lon="5.80725">
        <ele>457.8</ele>
        <time>2024-06-12T09:36:59Z</time>
      </trkpt>
      <trkpt lat="43.26408" lon="5.80723">
        <ele>458.2</ele>
        <time>2024-06-12T09:37:00Z</time>
      </trkpt>
      <trkpt lat="43.26413" lon="5.80719">
        <ele>458.4</ele>
        <time>2024-06-12T09:37:01Z</time>
      </trkpt>
      <trkpt lat="43.26414" lon="5.80718">
        <ele>458.4</ele>
        <time>2024-06-12T09:37:02Z</time>
      </trkpt>
      <trkpt lat="43.26419" lon="5.80715">
        <ele>458.4</ele>
        <time>2024-06-12T09:37:03Z</time>
      </trkpt>
      <trkpt lat="43.26421" lon="5.80714">
        <ele>458.8</ele>
        <time>2024-06-12T09:37:04Z</time>
      </trkpt>
      <trkpt lat="43.26425" lon="5.8071">
        <ele>459</ele>
        <time>2024-06-12T09:37:05Z</time>
      </trkpt>
      <trkpt lat="43.26427" lon="5.80709">
        <ele>459</ele>
        <time>2024-06-12T09:37:06Z</time>
      </trkpt>
      <trkpt lat="43.26432" lon="5.80705">
        <ele>459</ele>
        <time>2024-06-12T09:37:07Z</time>
      </trkpt>
      <trkpt lat="43.26433" lon="5.80704">
        <ele>459</ele>
        <time>2024-06-12T09:37:08Z</time>
      </trkpt>
      <trkpt lat="43.26436" lon="5.80702">
        <ele>459.6</ele>
        <time>2024-06-12T09:37:09Z</time>
      </trkpt>
      <trkpt lat="43.26439" lon="5.80699">
        <ele>460</ele>
        <time>2024-06-12T09:37:10Z</time>
      </trkpt>
      <trkpt lat="43.26442" lon="5.80697">
        <ele>460</ele>
        <time>2024-06-12T09:37:11Z</time>
      </trkpt>
      <trkpt lat="43.26445" lon="5.80695">
        <ele>460</ele>
        <time>2024-06-12T09:37:12Z</time>
      </trkpt>
      <trkpt lat="43.2645" lon="5.80691">
        <ele>460.4</ele>
        <time>2024-06-12T09:37:13Z</time>
      </trkpt>
      <trkpt lat="43.26451" lon="5.80689">
        <ele>460.6</ele>
        <time>2024-06-12T09:37:14Z</time>
      </trkpt>
      <trkpt lat="43.26454" lon="5.80687">
        <ele>460.6</ele>
        <time>2024-06-12T09:37:15Z</time>
      </trkpt>
      <trkpt lat="43.26459" lon="5.80683">
        <ele>460.6</ele>
        <time>2024-06-12T09:37:16Z</time>
      </trkpt>
      <trkpt lat="43.26461" lon="5.80682">
        <ele>460.6</ele>
        <time>2024-06-12T09:37:17Z</time>
      </trkpt>
      <trkpt lat="43.26466" lon="5.80679">
        <ele>460.8</ele>
        <time>2024-06-12T09:37:18Z</time>
      </trkpt>
      <trkpt lat="43.26468" lon="5.80678">
        <ele>461</ele>
        <time>2024-06-12T09:37:19Z</time>
      </trkpt>
      <trkpt lat="43.26473" lon="5.80674">
        <ele>461</ele>
        <time>2024-06-12T09:37:20Z</time>
      </trkpt>
      <trkpt lat="43.26474" lon="5.80673">
        <ele>461</ele>
        <time>2024-06-12T09:37:21Z</time>
      </trkpt>
      <trkpt lat="43.26478" lon="5.8067">
        <ele>461.4</ele>
        <time>2024-06-12T09:37:22Z</time>
      </trkpt>
      <trkpt lat="43.26483" lon="5.80666">
        <ele>461.4</ele>
        <time>2024-06-12T09:37:23Z</time>
      </trkpt>
      <trkpt lat="43.26485" lon="5.80665">
        <ele>461.4</ele>
        <time>2024-06-12T09:37:24Z</time>
      </trkpt>
      <trkpt lat="43.26491" lon="5.8066">
        <ele>461.4</ele>
        <time>2024-06-12T09:37:25Z</time>
      </trkpt>
      <trkpt lat="43.26493" lon="5.80659">
        <ele>461.6</ele>
        <time>2024-06-12T09:37:26Z</time>
      </trkpt>
      <trkpt lat="43.26497" lon="5.80656">
        <ele>461.6</ele>
        <time>2024-06-12T09:37:27Z</time>
      </trkpt>
      <trkpt lat="43.26502" lon="5.80651">
        <ele>462</ele>
        <time>2024-06-12T09:37:28Z</time>
      </trkpt>
      <trkpt lat="43.26504" lon="5.8065">
        <ele>462</ele>
        <time>2024-06-12T09:37:29Z</time>
      </trkpt>
      <trkpt lat="43.26508" lon="5.80647">
        <ele>462</ele>
        <time>2024-06-12T09:37:30Z</time>
      </trkpt>
      <trkpt lat="43.26512" lon="5.80643">
        <ele>462</ele>
        <time>2024-06-12T09:37:31Z</time>
      </trkpt>
      <trkpt lat="43.26517" lon="5.80641">
        <ele>462.2</ele>
        <time>2024-06-12T09:37:32Z</time>
      </trkpt>
      <trkpt lat="43.26521" lon="5.80638">
        <ele>462.2</ele>
        <time>2024-06-12T09:37:33Z</time>
      </trkpt>
      <trkpt lat="43.26527" lon="5.80633">
        <ele>462.2</ele>
        <time>2024-06-12T09:37:34Z</time>
      </trkpt>
      <trkpt lat="43.26529" lon="5.80631">
        <ele>462.4</ele>
        <time>2024-06-12T09:37:35Z</time>
      </trkpt>
      <trkpt lat="43.26535" lon="5.80627">
        <ele>462.4</ele>
        <time>2024-06-12T09:37:36Z</time>
      </trkpt>
      <trkpt lat="43.26537" lon="5.80625">
        <ele>462.4</ele>
        <time>2024-06-12T09:37:37Z</time>
      </trkpt>
      <trkpt lat="43.26543" lon="5.80621">
        <ele>462.4</ele>
        <time>2024-06-12T09:37:38Z</time>
      </trkpt>
      <trkpt lat="43.26545" lon="5.80619">
        <ele>462.4</ele>
        <time>2024-06-12T09:37:39Z</time>
      </trkpt>
      <trkpt lat="43.26551" lon="5.80614">
        <ele>462.6</ele>
        <time>2024-06-12T09:37:40Z</time>
      </trkpt>
      <trkpt lat="43.26553" lon="5.80612">
        <ele>462.6</ele>
        <time>2024-06-12T09:37:41Z</time>
      </trkpt>
      <trkpt lat="43.26557" lon="5.80609">
        <ele>462.4</ele>
        <time>2024-06-12T09:37:42Z</time>
      </trkpt>
      <trkpt lat="43.26561" lon="5.80606">
        <ele>462.4</ele>
        <time>2024-06-12T09:37:43Z</time>
      </trkpt>
      <trkpt lat="43.26568" lon="5.80601">
        <ele>462.4</ele>
        <time>2024-06-12T09:37:44Z</time>
      </trkpt>
      <trkpt lat="43.2657" lon="5.806">
        <ele>462.4</ele>
        <time>2024-06-12T09:37:45Z</time>
      </trkpt>
      <trkpt lat="43.26577" lon="5.80594">
        <ele>462.4</ele>
        <time>2024-06-12T09:37:46Z</time>
      </trkpt>
      <trkpt lat="43.26579" lon="5.80593">
        <ele>462.4</ele>
        <time>2024-06-12T09:37:47Z</time>
      </trkpt>
      <trkpt lat="43.26586" lon="5.80587">
        <ele>462.4</ele>
        <time>2024-06-12T09:37:48Z</time>
      </trkpt>
      <trkpt lat="43.26588" lon="5.80586">
        <ele>462.2</ele>
        <time>2024-06-12T09:37:49Z</time>
      </trkpt>
      <trkpt lat="43.26593" lon="5.80582">
        <ele>462.2</ele>
        <time>2024-06-12T09:37:50Z</time>
      </trkpt>
      <trkpt lat="43.266" lon="5.80577">
        <ele>462.2</ele>
        <time>2024-06-12T09:37:51Z</time>
      </trkpt>
      <trkpt lat="43.26602" lon="5.80575">
        <ele>462.2</ele>
        <time>2024-06-12T09:37:52Z</time>
      </trkpt>
      <trkpt lat="43.26609" lon="5.80569">
        <ele>462.2</ele>
        <time>2024-06-12T09:37:53Z</time>
      </trkpt>
      <trkpt lat="43.26611" lon="5.80568">
        <ele>462</ele>
        <time>2024-06-12T09:37:54Z</time>
      </trkpt>
      <trkpt lat="43.26616" lon="5.80564">
        <ele>461.8</ele>
        <time>2024-06-12T09:37:55Z</time>
      </trkpt>
      <trkpt lat="43.26623" lon="5.80558">
        <ele>461.8</ele>
        <time>2024-06-12T09:37:56Z</time>
      </trkpt>
      <trkpt lat="43.26625" lon="5.80557">
        <ele>461.8</ele>
        <time>2024-06-12T09:37:57Z</time>
      </trkpt>
      <trkpt lat="43.26633" lon="5.80551">
        <ele>461.8</ele>
        <time>2024-06-12T09:37:58Z</time>
      </trkpt>
      <trkpt lat="43.26635" lon="5.80549">
        <ele>461.8</ele>
        <time>2024-06-12T09:37:59Z</time>
      </trkpt>
      <trkpt lat="43.26642" lon="5.80544">
        <ele>461.8</ele>
        <time>2024-06-12T09:38:00Z</time>
      </trkpt>
      <trkpt lat="43.26645" lon="5.80542">
        <ele>461.8</ele>
        <time>2024-06-12T09:38:01Z</time>
      </trkpt>
      <trkpt lat="43.26652" lon="5.80537">
        <ele>461.8</ele>
        <time>2024-06-12T09:38:02Z</time>
      </trkpt>
      <trkpt lat="43.26654" lon="5.80535">
        <ele>461.8</ele>
        <time>2024-06-12T09:38:03Z</time>
      </trkpt>
      <trkpt lat="43.26662" lon="5.80529">
        <ele>461.8</ele>
        <time>2024-06-12T09:38:04Z</time>
      </trkpt>
      <trkpt lat="43.26664" lon="5.80527">
        <ele>461.8</ele>
        <time>2024-06-12T09:38:05Z</time>
      </trkpt>
      <trkpt lat="43.26669" lon="5.80524">
        <ele>461.8</ele>
        <time>2024-06-12T09:38:06Z</time>
      </trkpt>
      <trkpt lat="43.26674" lon="5.80521">
        <ele>461.6</ele>
        <time>2024-06-12T09:38:07Z</time>
      </trkpt>
      <trkpt lat="43.26681" lon="5.80515">
        <ele>461.6</ele>
        <time>2024-06-12T09:38:08Z</time>
      </trkpt>
      <trkpt lat="43.26684" lon="5.80513">
        <ele>461.6</ele>
        <time>2024-06-12T09:38:09Z</time>
      </trkpt>
      <trkpt lat="43.26691" lon="5.80508">
        <ele>461.6</ele>
        <time>2024-06-12T09:38:10Z</time>
      </trkpt>
      <trkpt lat="43.26693" lon="5.80506">
        <ele>461.4</ele>
        <time>2024-06-12T09:38:11Z</time>
      </trkpt>
      <trkpt lat="43.26698" lon="5.80503">
        <ele>461.4</ele>
        <time>2024-06-12T09:38:12Z</time>
      </trkpt>
      <trkpt lat="43.26703" lon="5.805">
        <ele>461.4</ele>
        <time>2024-06-12T09:38:13Z</time>
      </trkpt>
      <trkpt lat="43.26707" lon="5.80497">
        <ele>461.4</ele>
        <time>2024-06-12T09:38:14Z</time>
      </trkpt>
      <trkpt lat="43.26712" lon="5.80495">
        <ele>461.6</ele>
        <time>2024-06-12T09:38:15Z</time>
      </trkpt>
      <trkpt lat="43.26717" lon="5.80492">
        <ele>461.6</ele>
        <time>2024-06-12T09:38:16Z</time>
      </trkpt>
      <trkpt lat="43.26724" lon="5.80488">
        <ele>461.6</ele>
        <time>2024-06-12T09:38:17Z</time>
      </trkpt>
      <trkpt lat="43.26726" lon="5.80487">
        <ele>461.4</ele>
        <time>2024-06-12T09:38:18Z</time>
      </trkpt>
      <trkpt lat="43.26731" lon="5.80485">
        <ele>461.4</ele>
        <time>2024-06-12T09:38:19Z</time>
      </trkpt>
      <trkpt lat="43.26736" lon="5.80482">
        <ele>461.4</ele>
        <time>2024-06-12T09:38:20Z</time>
      </trkpt>
      <trkpt lat="43.26744" lon="5.80479">
        <ele>461.4</ele>
        <time>2024-06-12T09:38:21Z</time>
      </trkpt>
      <trkpt lat="43.26746" lon="5.80478">
        <ele>461.2</ele>
        <time>2024-06-12T09:38:22Z</time>
      </trkpt>
      <trkpt lat="43.26751" lon="5.80475">
        <ele>461.2</ele>
        <time>2024-06-12T09:38:23Z</time>
      </trkpt>
      <trkpt lat="43.26756" lon="5.80473">
        <ele>461.2</ele>
        <time>2024-06-12T09:38:24Z</time>
      </trkpt>
      <trkpt lat="43.2676" lon="5.80471">
        <ele>460.8</ele>
        <time>2024-06-12T09:38:25Z</time>
      </trkpt>
      <trkpt lat="43.26768" lon="5.80468">
        <ele>461</ele>
        <time>2024-06-12T09:38:26Z</time>
      </trkpt>
      <trkpt lat="43.2677" lon="5.80467">
        <ele>461</ele>
        <time>2024-06-12T09:38:27Z</time>
      </trkpt>
      <trkpt lat="43.26775" lon="5.80465">
        <ele>461</ele>
        <time>2024-06-12T09:38:28Z</time>
      </trkpt>
      <trkpt lat="43.2678" lon="5.80463">
        <ele>460.8</ele>
        <time>2024-06-12T09:38:29Z</time>
      </trkpt>
      <trkpt lat="43.26788" lon="5.8046">
        <ele>460.8</ele>
        <time>2024-06-12T09:38:30Z</time>
      </trkpt>
      <trkpt lat="43.2679" lon="5.80459">
        <ele>460.6</ele>
        <time>2024-06-12T09:38:31Z</time>
      </trkpt>
      <trkpt lat="43.26797" lon="5.80456">
        <ele>460.6</ele>
        <time>2024-06-12T09:38:32Z</time>
      </trkpt>
      <trkpt lat="43.268" lon="5.80455">
        <ele>460.6</ele>
        <time>2024-06-12T09:38:33Z</time>
      </trkpt>
      <trkpt lat="43.26806" lon="5.80452">
        <ele>460.6</ele>
        <time>2024-06-12T09:38:34Z</time>
      </trkpt>
      <trkpt lat="43.26809" lon="5.8045">
        <ele>460.6</ele>
        <time>2024-06-12T09:38:35Z</time>
      </trkpt>
      <trkpt lat="43.26813" lon="5.80448">
        <ele>460.6</ele>
        <time>2024-06-12T09:38:36Z</time>
      </trkpt>
      <trkpt lat="43.2682" lon="5.80445">
        <ele>460.6</ele>
        <time>2024-06-12T09:38:37Z</time>
      </trkpt>
      <trkpt lat="43.26823" lon="5.80444">
        <ele>460.2</ele>
        <time>2024-06-12T09:38:38Z</time>
      </trkpt>
      <trkpt lat="43.26828" lon="5.80442">
        <ele>460.2</ele>
        <time>2024-06-12T09:38:39Z</time>
      </trkpt>
      <trkpt lat="43.26835" lon="5.80439">
        <ele>460.2</ele>
        <time>2024-06-12T09:38:40Z</time>
      </trkpt>
      <trkpt lat="43.26837" lon="5.80438">
        <ele>460.2</ele>
        <time>2024-06-12T09:38:41Z</time>
      </trkpt>
      <trkpt lat="43.26844" lon="5.80435">
        <ele>460.2</ele>
        <time>2024-06-12T09:38:42Z</time>
      </trkpt>
      <trkpt lat="43.26846" lon="5.80434">
        <ele>460</ele>
        <time>2024-06-12T09:38:43Z</time>
      </trkpt>
      <trkpt lat="43.26851" lon="5.80432">
        <ele>459.8</ele>
        <time>2024-06-12T09:38:44Z</time>
      </trkpt>
      <trkpt lat="43.26856" lon="5.8043">
        <ele>459.8</ele>
        <time>2024-06-12T09:38:45Z</time>
      </trkpt>
      <trkpt lat="43.26862" lon="5.80427">
        <ele>459.8</ele>
        <time>2024-06-12T09:38:46Z</time>
      </trkpt>
      <trkpt lat="43.26865" lon="5.80426">
        <ele>459.4</ele>
        <time>2024-06-12T09:38:47Z</time>
      </trkpt>
      <trkpt lat="43.26869" lon="5.80424">
        <ele>459.4</ele>
        <time>2024-06-12T09:38:48Z</time>
      </trkpt>
      <trkpt lat="43.26873" lon="5.80422">
        <ele>459.4</ele>
        <time>2024-06-12T09:38:49Z</time>
      </trkpt>
      <trkpt lat="43.2688" lon="5.80419">
        <ele>459.4</ele>
        <time>2024-06-12T09:38:50Z</time>
      </trkpt>
      <trkpt lat="43.26882" lon="5.80418">
        <ele>459.4</ele>
        <time>2024-06-12T09:38:51Z</time>
      </trkpt>
      <trkpt lat="43.26889" lon="5.80415">
        <ele>459.2</ele>
        <time>2024-06-12T09:38:52Z</time>
      </trkpt>
      <trkpt lat="43.26891" lon="5.80414">
        <ele>459.2</ele>
        <time>2024-06-12T09:38:53Z</time>
      </trkpt>
      <trkpt lat="43.26898" lon="5.80411">
        <ele>459.2</ele>
        <time>2024-06-12T09:38:54Z</time>
      </trkpt>
      <trkpt lat="43.269" lon="5.8041">
        <ele>459.2</ele>
        <time>2024-06-12T09:38:55Z</time>
      </trkpt>
      <trkpt lat="43.26904" lon="5.80408">
        <ele>459.2</ele>
        <time>2024-06-12T09:38:56Z</time>
      </trkpt>
      <trkpt lat="43.26909" lon="5.80406">
        <ele>459</ele>
        <time>2024-06-12T09:38:57Z</time>
      </trkpt>
      <trkpt lat="43.26916" lon="5.80402">
        <ele>459</ele>
        <time>2024-06-12T09:38:58Z</time>
      </trkpt>
      <trkpt lat="43.26918" lon="5.80401">
        <ele>459</ele>
        <time>2024-06-12T09:38:59Z</time>
      </trkpt>
      <trkpt lat="43.26923" lon="5.804">
        <ele>459</ele>
        <time>2024-06-12T09:39:00Z</time>
      </trkpt>
      <trkpt lat="43.26929" lon="5.80397">
        <ele>458.8</ele>
        <time>2024-06-12T09:39:01Z</time>
      </trkpt>
      <trkpt lat="43.26932" lon="5.80396">
        <ele>458.8</ele>
        <time>2024-06-12T09:39:02Z</time>
      </trkpt>
      <trkpt lat="43.26938" lon="5.80393">
        <ele>458.8</ele>
        <time>2024-06-12T09:39:03Z</time>
      </trkpt>
      <trkpt lat="43.26941" lon="5.80391">
        <ele>458.8</ele>
        <time>2024-06-12T09:39:04Z</time>
      </trkpt>
      <trkpt lat="43.26948" lon="5.80388">
        <ele>458.4</ele>
        <time>2024-06-12T09:39:05Z</time>
      </trkpt>
      <trkpt lat="43.2695" lon="5.80387">
        <ele>458.6</ele>
        <time>2024-06-12T09:39:06Z</time>
      </trkpt>
      <trkpt lat="43.26955" lon="5.80385">
        <ele>458.6</ele>
        <time>2024-06-12T09:39:07Z</time>
      </trkpt>
      <trkpt lat="43.26959" lon="5.80383">
        <ele>458.6</ele>
        <time>2024-06-12T09:39:08Z</time>
      </trkpt>
      <trkpt lat="43.26966" lon="5.80379">
        <ele>458.6</ele>
        <time>2024-06-12T09:39:09Z</time>
      </trkpt>
      <trkpt lat="43.26969" lon="5.80378">
        <ele>458.2</ele>
        <time>2024-06-12T09:39:10Z</time>
      </trkpt>
      <trkpt lat="43.26976" lon="5.80375">
        <ele>458.2</ele>
        <time>2024-06-12T09:39:11Z</time>
      </trkpt>
      <trkpt lat="43.26978" lon="5.80374">
        <ele>458.2</ele>
        <time>2024-06-12T09:39:12Z</time>
      </trkpt>
      <trkpt lat="43.26985" lon="5.80371">
        <ele>458.2</ele>
        <time>2024-06-12T09:39:13Z</time>
      </trkpt>
      <trkpt lat="43.26988" lon="5.8037">
        <ele>458.2</ele>
        <time>2024-06-12T09:39:14Z</time>
      </trkpt>
      <trkpt lat="43.26992" lon="5.80369">
        <ele>458</ele>
        <time>2024-06-12T09:39:15Z</time>
      </trkpt>
      <trkpt lat="43.26999" lon="5.80366">
        <ele>458</ele>
        <time>2024-06-12T09:39:16Z</time>
      </trkpt>
      <trkpt lat="43.27002" lon="5.80364">
        <ele>458</ele>
        <time>2024-06-12T09:39:17Z</time>
      </trkpt>
      <trkpt lat="43.27009" lon="5.80361">
        <ele>458</ele>
        <time>2024-06-12T09:39:18Z</time>
      </trkpt>
      <trkpt lat="43.27011" lon="5.8036">
        <ele>457.8</ele>
        <time>2024-06-12T09:39:19Z</time>
      </trkpt>
      <trkpt lat="43.27017" lon="5.80358">
        <ele>457.6</ele>
        <time>2024-06-12T09:39:20Z</time>
      </trkpt>
      <trkpt lat="43.2702" lon="5.80357">
        <ele>457.6</ele>
        <time>2024-06-12T09:39:21Z</time>
      </trkpt>
      <trkpt lat="43.27026" lon="5.80354">
        <ele>457.6</ele>
        <time>2024-06-12T09:39:22Z</time>
      </trkpt>
      <trkpt lat="43.27028" lon="5.80353">
        <ele>457.6</ele>
        <time>2024-06-12T09:39:23Z</time>
      </trkpt>
      <trkpt lat="43.27032" lon="5.80351">
        <ele>457.6</ele>
        <time>2024-06-12T09:39:24Z</time>
      </trkpt>
      <trkpt lat="43.27039" lon="5.80349">
        <ele>457.6</ele>
        <time>2024-06-12T09:39:25Z</time>
      </trkpt>
      <trkpt lat="43.27041" lon="5.80348">
        <ele>457.6</ele>
        <time>2024-06-12T09:39:26Z</time>
      </trkpt>
      <trkpt lat="43.27045" lon="5.80347">
        <ele>457.6</ele>
        <time>2024-06-12T09:39:27Z</time>
      </trkpt>
      <trkpt lat="43.27048" lon="5.80345">
        <ele>457.6</ele>
        <time>2024-06-12T09:39:28Z</time>
      </trkpt>
      <trkpt lat="43.27052" lon="5.80343">
        <ele>458</ele>
        <time>2024-06-12T09:39:29Z</time>
      </trkpt>
      <trkpt lat="43.27057" lon="5.80341">
        <ele>458</ele>
        <time>2024-06-12T09:39:30Z</time>
      </trkpt>
      <trkpt lat="43.27059" lon="5.8034">
        <ele>458</ele>
        <time>2024-06-12T09:39:31Z</time>
      </trkpt>
      <trkpt lat="43.27065" lon="5.80338">
        <ele>458.4</ele>
        <time>2024-06-12T09:39:32Z</time>
      </trkpt>
      <trkpt lat="43.27067" lon="5.80337">
        <ele>458.4</ele>
        <time>2024-06-12T09:39:33Z</time>
      </trkpt>
      <trkpt lat="43.27072" lon="5.80335">
        <ele>458.4</ele>
        <time>2024-06-12T09:39:34Z</time>
      </trkpt>
      <trkpt lat="43.27074" lon="5.80334">
        <ele>458.4</ele>
        <time>2024-06-12T09:39:35Z</time>
      </trkpt>
      <trkpt lat="43.27078" lon="5.80332">
        <ele>459.2</ele>
        <time>2024-06-12T09:39:36Z</time>
      </trkpt>
      <trkpt lat="43.27081" lon="5.80331">
        <ele>459.4</ele>
        <time>2024-06-12T09:39:37Z</time>
      </trkpt>
      <trkpt lat="43.27085" lon="5.8033">
        <ele>459.4</ele>
        <time>2024-06-12T09:39:38Z</time>
      </trkpt>
      <trkpt lat="43.27088" lon="5.80329">
        <ele>459.4</ele>
        <time>2024-06-12T09:39:39Z</time>
      </trkpt>
      <trkpt lat="43.27091" lon="5.80328">
        <ele>459.4</ele>
        <time>2024-06-12T09:39:40Z</time>
      </trkpt>
      <trkpt lat="43.27094" lon="5.80327">
        <ele>460</ele>
        <time>2024-06-12T09:39:41Z</time>
      </trkpt>
      <trkpt lat="43.27098" lon="5.80326">
        <ele>460.2</ele>
        <time>2024-06-12T09:39:42Z</time>
      </trkpt>
      <trkpt lat="43.27101" lon="5.80325">
        <ele>460.2</ele>
        <time>2024-06-12T09:39:43Z</time>
      </trkpt>
      <trkpt lat="43.27104" lon="5.80324">
        <ele>460.2</ele>
        <time>2024-06-12T09:39:44Z</time>
      </trkpt>
      <trkpt lat="43.27108" lon="5.80322">
        <ele>460.4</ele>
        <time>2024-06-12T09:39:45Z</time>
      </trkpt>
      <trkpt lat="43.27113" lon="5.8032">
        <ele>460.4</ele>
        <time>2024-06-12T09:39:46Z</time>
      </trkpt>
      <trkpt lat="43.27115" lon="5.80319">
        <ele>460.2</ele>
        <time>2024-06-12T09:39:47Z</time>
      </trkpt>
      <trkpt lat="43.27121" lon="5.80317">
        <ele>460.2</ele>
        <time>2024-06-12T09:39:48Z</time>
      </trkpt>
      <trkpt lat="43.27123" lon="5.80317">
        <ele>460.2</ele>
        <time>2024-06-12T09:39:49Z</time>
      </trkpt>
      <trkpt lat="43.27127" lon="5.80315">
        <ele>460.2</ele>
        <time>2024-06-12T09:39:50Z</time>
      </trkpt>
      <trkpt lat="43.27131" lon="5.80313">
        <ele>460.2</ele>
        <time>2024-06-12T09:39:51Z</time>
      </trkpt>
      <trkpt lat="43.27136" lon="5.80312">
        <ele>460.2</ele>
        <time>2024-06-12T09:39:52Z</time>
      </trkpt>
      <trkpt lat="43.27141" lon="5.8031">
        <ele>460.2</ele>
        <time>2024-06-12T09:39:53Z</time>
      </trkpt>
      <trkpt lat="43.27146" lon="5.80308">
        <ele>460.2</ele>
        <time>2024-06-12T09:39:54Z</time>
      </trkpt>
      <trkpt lat="43.27154" lon="5.80305">
        <ele>460</ele>
        <time>2024-06-12T09:39:55Z</time>
      </trkpt>
      <trkpt lat="43.27156" lon="5.80304">
        <ele>459.8</ele>
        <time>2024-06-12T09:39:56Z</time>
      </trkpt>
      <trkpt lat="43.27165" lon="5.80301">
        <ele>459.8</ele>
        <time>2024-06-12T09:39:57Z</time>
      </trkpt>
      <trkpt lat="43.27168" lon="5.803">
        <ele>459.8</ele>
        <time>2024-06-12T09:39:58Z</time>
      </trkpt>
      <trkpt lat="43.27177" lon="5.80297">
        <ele>459.2</ele>
        <time>2024-06-12T09:39:59Z</time>
      </trkpt>
      <trkpt lat="43.27181" lon="5.80295">
        <ele>458.8</ele>
        <time>2024-06-12T09:40:00Z</time>
      </trkpt>
      <trkpt lat="43.27187" lon="5.80293">
        <ele>458.8</ele>
        <time>2024-06-12T09:40:01Z</time>
      </trkpt>
      <trkpt lat="43.27197" lon="5.8029">
        <ele>458.8</ele>
        <time>2024-06-12T09:40:02Z</time>
      </trkpt>
      <trkpt lat="43.272" lon="5.80288">
        <ele>458.8</ele>
        <time>2024-06-12T09:40:03Z</time>
      </trkpt>
      <trkpt lat="43.27207" lon="5.80286">
        <ele>458.6</ele>
        <time>2024-06-12T09:40:04Z</time>
      </trkpt>
      <trkpt lat="43.27214" lon="5.80284">
        <ele>458</ele>
        <time>2024-06-12T09:40:05Z</time>
      </trkpt>
      <trkpt lat="43.27222" lon="5.80282">
        <ele>458</ele>
        <time>2024-06-12T09:40:06Z</time>
      </trkpt>
      <trkpt lat="43.2723" lon="5.8028">
        <ele>458</ele>
        <time>2024-06-12T09:40:07Z</time>
      </trkpt>
      <trkpt lat="43.27242" lon="5.8028">
        <ele>457.2</ele>
        <time>2024-06-12T09:40:08Z</time>
      </trkpt>
      <trkpt lat="43.27246" lon="5.8028">
        <ele>457.2</ele>
        <time>2024-06-12T09:40:09Z</time>
      </trkpt>
      <trkpt lat="43.27258" lon="5.8028">
        <ele>456.8</ele>
        <time>2024-06-12T09:40:10Z</time>
      </trkpt>
      <trkpt lat="43.27262" lon="5.8028">
        <ele>456.8</ele>
        <time>2024-06-12T09:40:11Z</time>
      </trkpt>
      <trkpt lat="43.27271" lon="5.8028">
        <ele>456.8</ele>
        <time>2024-06-12T09:40:12Z</time>
      </trkpt>
      <trkpt lat="43.27283" lon="5.80282">
        <ele>455.8</ele>
        <time>2024-06-12T09:40:13Z</time>
      </trkpt>
      <trkpt lat="43.27287" lon="5.80282">
        <ele>455.2</ele>
        <time>2024-06-12T09:40:14Z</time>
      </trkpt>
      <trkpt lat="43.273" lon="5.80285">
        <ele>455.2</ele>
        <time>2024-06-12T09:40:15Z</time>
      </trkpt>
      <trkpt lat="43.27304" lon="5.80286">
        <ele>455.2</ele>
        <time>2024-06-12T09:40:16Z</time>
      </trkpt>
      <trkpt lat="43.27316" lon="5.8029">
        <ele>454.2</ele>
        <time>2024-06-12T09:40:17Z</time>
      </trkpt>
      <trkpt lat="43.2732" lon="5.80292">
        <ele>453</ele>
        <time>2024-06-12T09:40:18Z</time>
      </trkpt>
      <trkpt lat="43.27328" lon="5.80295">
        <ele>453</ele>
        <time>2024-06-12T09:40:19Z</time>
      </trkpt>
      <trkpt lat="43.27337" lon="5.80298">
        <ele>453</ele>
        <time>2024-06-12T09:40:20Z</time>
      </trkpt>
      <trkpt lat="43.27345" lon="5.80302">
        <ele>452</ele>
        <time>2024-06-12T09:40:21Z</time>
      </trkpt>
      <trkpt lat="43.27353" lon="5.80305">
        <ele>452</ele>
        <time>2024-06-12T09:40:22Z</time>
      </trkpt>
      <trkpt lat="43.27361" lon="5.80309">
        <ele>450.8</ele>
        <time>2024-06-12T09:40:23Z</time>
      </trkpt>
      <trkpt lat="43.2737" lon="5.80312">
        <ele>450.8</ele>
        <time>2024-06-12T09:40:24Z</time>
      </trkpt>
      <trkpt lat="43.27378" lon="5.80315">
        <ele>450.8</ele>
        <time>2024-06-12T09:40:25Z</time>
      </trkpt>
      <trkpt lat="43.27386" lon="5.80319">
        <ele>450.8</ele>
        <time>2024-06-12T09:40:26Z</time>
      </trkpt>
      <trkpt lat="43.27395" lon="5.80323">
        <ele>449.8</ele>
        <time>2024-06-12T09:40:27Z</time>
      </trkpt>
      <trkpt lat="43.27403" lon="5.80327">
        <ele>448.6</ele>
        <time>2024-06-12T09:40:28Z</time>
      </trkpt>
      <trkpt lat="43.27414" lon="5.80337">
        <ele>448.6</ele>
        <time>2024-06-12T09:40:29Z</time>
      </trkpt>
      <trkpt lat="43.27418" lon="5.8034">
        <ele>448.6</ele>
        <time>2024-06-12T09:40:30Z</time>
      </trkpt>
      <trkpt lat="43.27428" lon="5.80352">
        <ele>447.6</ele>
        <time>2024-06-12T09:40:31Z</time>
      </trkpt>
      <trkpt lat="43.27431" lon="5.80356">
        <ele>446</ele>
        <time>2024-06-12T09:40:32Z</time>
      </trkpt>
      <trkpt lat="43.27441" lon="5.80368">
        <ele>446</ele>
        <time>2024-06-12T09:40:33Z</time>
      </trkpt>
      <trkpt lat="43.27444" lon="5.80371">
        <ele>446</ele>
        <time>2024-06-12T09:40:34Z</time>
      </trkpt>
      <trkpt lat="43.27454" lon="5.80383">
        <ele>445</ele>
        <time>2024-06-12T09:40:35Z</time>
      </trkpt>
      <trkpt lat="43.27457" lon="5.80386">
        <ele>445</ele>
        <time>2024-06-12T09:40:36Z</time>
      </trkpt>
      <trkpt lat="43.27464" lon="5.80393">
        <ele>444.4</ele>
        <time>2024-06-12T09:40:37Z</time>
      </trkpt>
      <trkpt lat="43.27476" lon="5.804">
        <ele>444.4</ele>
        <time>2024-06-12T09:40:38Z</time>
      </trkpt>
      <trkpt lat="43.27479" lon="5.80402">
        <ele>444.4</ele>
        <time>2024-06-12T09:40:39Z</time>
      </trkpt>
      <trkpt lat="43.27491" lon="5.80407">
        <ele>443.4</ele>
        <time>2024-06-12T09:40:40Z</time>
      </trkpt>
      <trkpt lat="43.27495" lon="5.80409">
        <ele>442.4</ele>
        <time>2024-06-12T09:40:41Z</time>
      </trkpt>
      <trkpt lat="43.27506" lon="5.80413">
        <ele>442.4</ele>
        <time>2024-06-12T09:40:42Z</time>
      </trkpt>
      <trkpt lat="43.27509" lon="5.80414">
        <ele>442.4</ele>
        <time>2024-06-12T09:40:43Z</time>
      </trkpt>
      <trkpt lat="43.27516" lon="5.80415">
        <ele>441.4</ele>
        <time>2024-06-12T09:40:44Z</time>
      </trkpt>
      <trkpt lat="43.27524" lon="5.80408">
        <ele>441</ele>
        <time>2024-06-12T09:40:45Z</time>
      </trkpt>
      <trkpt lat="43.27526" lon="5.80405">
        <ele>441</ele>
        <time>2024-06-12T09:40:46Z</time>
      </trkpt>
      <trkpt lat="43.27529" lon="5.80398">
        <ele>441</ele>
        <time>2024-06-12T09:40:47Z</time>
      </trkpt>
      <trkpt lat="43.2753" lon="5.80385">
        <ele>441</ele>
        <time>2024-06-12T09:40:48Z</time>
      </trkpt>
      <trkpt lat="43.27529" lon="5.8038">
        <ele>441</ele>
        <time>2024-06-12T09:40:49Z</time>
      </trkpt>
      <trkpt lat="43.2753" lon="5.80367">
        <ele>440.6</ele>
        <time>2024-06-12T09:40:50Z</time>
      </trkpt>
      <trkpt lat="43.2753" lon="5.80362">
        <ele>440.6</ele>
        <time>2024-06-12T09:40:51Z</time>
      </trkpt>
      <trkpt lat="43.27531" lon="5.80349">
        <ele>440.6</ele>
        <time>2024-06-12T09:40:52Z</time>
      </trkpt>
      <trkpt lat="43.27531" lon="5.80344">
        <ele>440.6</ele>
        <time>2024-06-12T09:40:53Z</time>
      </trkpt>
      <trkpt lat="43.27531" lon="5.80329">
        <ele>440.4</ele>
        <time>2024-06-12T09:40:54Z</time>
      </trkpt>
      <trkpt lat="43.2753" lon="5.80324">
        <ele>440.4</ele>
        <time>2024-06-12T09:40:55Z</time>
      </trkpt>
      <trkpt lat="43.2753" lon="5.80309">
        <ele>440.4</ele>
        <time>2024-06-12T09:40:56Z</time>
      </trkpt>
      <trkpt lat="43.2753" lon="5.80304">
        <ele>439.8</ele>
        <time>2024-06-12T09:40:57Z</time>
      </trkpt>
      <trkpt lat="43.27529" lon="5.80295">
        <ele>439.8</ele>
        <time>2024-06-12T09:40:58Z</time>
      </trkpt>
      <trkpt lat="43.27529" lon="5.8028">
        <ele>439.8</ele>
        <time>2024-06-12T09:40:59Z</time>
      </trkpt>
      <trkpt lat="43.27529" lon="5.80275">
        <ele>439.8</ele>
        <time>2024-06-12T09:41:00Z</time>
      </trkpt>
      <trkpt lat="43.2753" lon="5.80266">
        <ele>439.8</ele>
        <time>2024-06-12T09:41:01Z</time>
      </trkpt>
      <trkpt lat="43.27531" lon="5.80256">
        <ele>439.8</ele>
        <time>2024-06-12T09:41:02Z</time>
      </trkpt>
      <trkpt lat="43.27532" lon="5.80247">
        <ele>439.8</ele>
        <time>2024-06-12T09:41:03Z</time>
      </trkpt>
      <trkpt lat="43.27533" lon="5.80238">
        <ele>439.8</ele>
        <time>2024-06-12T09:41:04Z</time>
      </trkpt>
      <trkpt lat="43.27534" lon="5.80229">
        <ele>439.8</ele>
        <time>2024-06-12T09:41:05Z</time>
      </trkpt>
      <trkpt lat="43.27535" lon="5.8022">
        <ele>439.8</ele>
        <time>2024-06-12T09:41:06Z</time>
      </trkpt>
      <trkpt lat="43.27536" lon="5.80211">
        <ele>439.8</ele>
        <time>2024-06-12T09:41:07Z</time>
      </trkpt>
      <trkpt lat="43.27537" lon="5.80197">
        <ele>439.4</ele>
        <time>2024-06-12T09:41:08Z</time>
      </trkpt>
      <trkpt lat="43.27537" lon="5.80192">
        <ele>439.4</ele>
        <time>2024-06-12T09:41:09Z</time>
      </trkpt>
      <trkpt lat="43.27537" lon="5.80183">
        <ele>439.4</ele>
        <time>2024-06-12T09:41:10Z</time>
      </trkpt>
      <trkpt lat="43.27538" lon="5.8017">
        <ele>439.4</ele>
        <time>2024-06-12T09:41:11Z</time>
      </trkpt>
      <trkpt lat="43.27538" lon="5.80165">
        <ele>439</ele>
        <time>2024-06-12T09:41:12Z</time>
      </trkpt>
      <trkpt lat="43.27538" lon="5.80152">
        <ele>439</ele>
        <time>2024-06-12T09:41:13Z</time>
      </trkpt>
      <trkpt lat="43.27538" lon="5.80148">
        <ele>439</ele>
        <time>2024-06-12T09:41:14Z</time>
      </trkpt>
      <trkpt lat="43.27538" lon="5.80134">
        <ele>438.8</ele>
        <time>2024-06-12T09:41:15Z</time>
      </trkpt>
      <trkpt lat="43.27538" lon="5.8013">
        <ele>438.8</ele>
        <time>2024-06-12T09:41:16Z</time>
      </trkpt>
      <trkpt lat="43.27538" lon="5.80121">
        <ele>438.8</ele>
        <time>2024-06-12T09:41:17Z</time>
      </trkpt>
      <trkpt lat="43.27538" lon="5.80113">
        <ele>438.8</ele>
        <time>2024-06-12T09:41:18Z</time>
      </trkpt>
      <trkpt lat="43.27537" lon="5.801">
        <ele>438.4</ele>
        <time>2024-06-12T09:41:19Z</time>
      </trkpt>
      <trkpt lat="43.27537" lon="5.80096">
        <ele>438.4</ele>
        <time>2024-06-12T09:41:20Z</time>
      </trkpt>
      <trkpt lat="43.27537" lon="5.80083">
        <ele>438.2</ele>
        <time>2024-06-12T09:41:21Z</time>
      </trkpt>
      <trkpt lat="43.27537" lon="5.80078">
        <ele>438.2</ele>
        <time>2024-06-12T09:41:22Z</time>
      </trkpt>
      <trkpt lat="43.27536" lon="5.80069">
        <ele>438.2</ele>
        <time>2024-06-12T09:41:23Z</time>
      </trkpt>
      <trkpt lat="43.27536" lon="5.80061">
        <ele>437.8</ele>
        <time>2024-06-12T09:41:24Z</time>
      </trkpt>
      <trkpt lat="43.27536" lon="5.80052">
        <ele>437.8</ele>
        <time>2024-06-12T09:41:25Z</time>
      </trkpt>
      <trkpt lat="43.27536" lon="5.80043">
        <ele>437.8</ele>
        <time>2024-06-12T09:41:26Z</time>
      </trkpt>
      <trkpt lat="43.27535" lon="5.80034">
        <ele>437.8</ele>
        <time>2024-06-12T09:41:27Z</time>
      </trkpt>
      <trkpt lat="43.27535" lon="5.80025">
        <ele>437.2</ele>
        <time>2024-06-12T09:41:28Z</time>
      </trkpt>
      <trkpt lat="43.27535" lon="5.80016">
        <ele>436.8</ele>
        <time>2024-06-12T09:41:29Z</time>
      </trkpt>
      <trkpt lat="43.27534" lon="5.80003">
        <ele>436.8</ele>
        <time>2024-06-12T09:41:30Z</time>
      </trkpt>
      <trkpt lat="43.27534" lon="5.79999">
        <ele>436.8</ele>
        <time>2024-06-12T09:41:31Z</time>
      </trkpt>
      <trkpt lat="43.27534" lon="5.79987">
        <ele>436.2</ele>
        <time>2024-06-12T09:41:32Z</time>
      </trkpt>
      <trkpt lat="43.27534" lon="5.79982">
        <ele>436.2</ele>
        <time>2024-06-12T09:41:33Z</time>
      </trkpt>
      <trkpt lat="43.27534" lon="5.7997">
        <ele>436.2</ele>
        <time>2024-06-12T09:41:34Z</time>
      </trkpt>
      <trkpt lat="43.27534" lon="5.79966">
        <ele>436.2</ele>
        <time>2024-06-12T09:41:35Z</time>
      </trkpt>
      <trkpt lat="43.27533" lon="5.79958">
        <ele>436</ele>
        <time>2024-06-12T09:41:36Z</time>
      </trkpt>
      <trkpt lat="43.27533" lon="5.79945">
        <ele>436</ele>
        <time>2024-06-12T09:41:37Z</time>
      </trkpt>
      <trkpt lat="43.27533" lon="5.79941">
        <ele>436</ele>
        <time>2024-06-12T09:41:38Z</time>
      </trkpt>
      <trkpt lat="43.27532" lon="5.79933">
        <ele>436</ele>
        <time>2024-06-12T09:41:39Z</time>
      </trkpt>
      <trkpt lat="43.27531" lon="5.79921">
        <ele>435.8</ele>
        <time>2024-06-12T09:41:40Z</time>
      </trkpt>
      <trkpt lat="43.2753" lon="5.79917">
        <ele>435.8</ele>
        <time>2024-06-12T09:41:41Z</time>
      </trkpt>
      <trkpt lat="43.27529" lon="5.79908">
        <ele>435.8</ele>
        <time>2024-06-12T09:41:42Z</time>
      </trkpt>
      <trkpt lat="43.27528" lon="5.799">
        <ele>435.8</ele>
        <time>2024-06-12T09:41:43Z</time>
      </trkpt>
      <trkpt lat="43.27526" lon="5.79892">
        <ele>435.8</ele>
        <time>2024-06-12T09:41:44Z</time>
      </trkpt>
      <trkpt lat="43.27524" lon="5.79884">
        <ele>435.4</ele>
        <time>2024-06-12T09:41:45Z</time>
      </trkpt>
      <trkpt lat="43.27522" lon="5.79876">
        <ele>435</ele>
        <time>2024-06-12T09:41:46Z</time>
      </trkpt>
      <trkpt lat="43.2752" lon="5.79868">
        <ele>435</ele>
        <time>2024-06-12T09:41:47Z</time>
      </trkpt>
      <trkpt lat="43.27517" lon="5.79856">
        <ele>435</ele>
        <time>2024-06-12T09:41:48Z</time>
      </trkpt>
      <trkpt lat="43.27516" lon="5.79852">
        <ele>434.8</ele>
        <time>2024-06-12T09:41:49Z</time>
      </trkpt>
      <trkpt lat="43.27513" lon="5.79839">
        <ele>434.8</ele>
        <time>2024-06-12T09:41:50Z</time>
      </trkpt>
      <trkpt lat="43.27512" lon="5.79835">
        <ele>434.2</ele>
        <time>2024-06-12T09:41:51Z</time>
      </trkpt>
      <trkpt lat="43.27509" lon="5.79823">
        <ele>434.2</ele>
        <time>2024-06-12T09:41:52Z</time>
      </trkpt>
      <trkpt lat="43.27508" lon="5.79818">
        <ele>434.2</ele>
        <time>2024-06-12T09:41:53Z</time>
      </trkpt>
      <trkpt lat="43.27505" lon="5.79806">
        <ele>433.8</ele>
        <time>2024-06-12T09:41:54Z</time>
      </trkpt>
      <trkpt lat="43.27504" lon="5.79802">
        <ele>433.8</ele>
        <time>2024-06-12T09:41:55Z</time>
      </trkpt>
      <trkpt lat="43.27502" lon="5.79793">
        <ele>433.6</ele>
        <time>2024-06-12T09:41:56Z</time>
      </trkpt>
      <trkpt lat="43.275" lon="5.79785">
        <ele>433.6</ele>
        <time>2024-06-12T09:41:57Z</time>
      </trkpt>
      <trkpt lat="43.27499" lon="5.79776">
        <ele>433.6</ele>
        <time>2024-06-12T09:41:58Z</time>
      </trkpt>
      <trkpt lat="43.27498" lon="5.79762">
        <ele>433.4</ele>
        <time>2024-06-12T09:41:59Z</time>
      </trkpt>
      <trkpt lat="43.27498" lon="5.79758">
        <ele>433.4</ele>
        <time>2024-06-12T09:42:00Z</time>
      </trkpt>
      <trkpt lat="43.27498" lon="5.79749">
        <ele>433.4</ele>
        <time>2024-06-12T09:42:01Z</time>
      </trkpt>
      <trkpt lat="43.27498" lon="5.79736">
        <ele>433.4</ele>
        <time>2024-06-12T09:42:02Z</time>
      </trkpt>
      <trkpt lat="43.27499" lon="5.79731">
        <ele>432.8</ele>
        <time>2024-06-12T09:42:03Z</time>
      </trkpt>
      <trkpt lat="43.27499" lon="5.79718">
        <ele>433.2</ele>
        <time>2024-06-12T09:42:04Z</time>
      </trkpt>
      <trkpt lat="43.27499" lon="5.79714">
        <ele>433.2</ele>
        <time>2024-06-12T09:42:05Z</time>
      </trkpt>
      <trkpt lat="43.275" lon="5.79705">
        <ele>433.2</ele>
        <time>2024-06-12T09:42:06Z</time>
      </trkpt>
      <trkpt lat="43.27501" lon="5.79692">
        <ele>433.2</ele>
        <time>2024-06-12T09:42:07Z</time>
      </trkpt>
      <trkpt lat="43.27501" lon="5.79688">
        <ele>433.2</ele>
        <time>2024-06-12T09:42:08Z</time>
      </trkpt>
      <trkpt lat="43.27502" lon="5.79675">
        <ele>433.2</ele>
        <time>2024-06-12T09:42:09Z</time>
      </trkpt>
      <trkpt lat="43.27502" lon="5.79671">
        <ele>433.2</ele>
        <time>2024-06-12T09:42:10Z</time>
      </trkpt>
      <trkpt lat="43.27503" lon="5.79659">
        <ele>433.2</ele>
        <time>2024-06-12T09:42:11Z</time>
      </trkpt>
      <trkpt lat="43.27503" lon="5.79655">
        <ele>433.2</ele>
        <time>2024-06-12T09:42:12Z</time>
      </trkpt>
      <trkpt lat="43.27503" lon="5.79647">
        <ele>433.4</ele>
        <time>2024-06-12T09:42:13Z</time>
      </trkpt>
      <trkpt lat="43.27504" lon="5.79636">
        <ele>433.4</ele>
        <time>2024-06-12T09:42:14Z</time>
      </trkpt>
      <trkpt lat="43.27504" lon="5.79632">
        <ele>433.4</ele>
        <time>2024-06-12T09:42:15Z</time>
      </trkpt>
      <trkpt lat="43.27505" lon="5.79624">
        <ele>433.4</ele>
        <time>2024-06-12T09:42:16Z</time>
      </trkpt>
      <trkpt lat="43.27505" lon="5.79617">
        <ele>433.8</ele>
        <time>2024-06-12T09:42:17Z</time>
      </trkpt>
      <trkpt lat="43.27505" lon="5.79606">
        <ele>433.8</ele>
        <time>2024-06-12T09:42:18Z</time>
      </trkpt>
      <trkpt lat="43.27506" lon="5.79603">
        <ele>433.8</ele>
        <time>2024-06-12T09:42:19Z</time>
      </trkpt>
      <trkpt lat="43.27505" lon="5.79596">
        <ele>433.8</ele>
        <time>2024-06-12T09:42:20Z</time>
      </trkpt>
      <trkpt lat="43.27504" lon="5.79585">
        <ele>433.8</ele>
        <time>2024-06-12T09:42:21Z</time>
      </trkpt>
      <trkpt lat="43.27504" lon="5.79581">
        <ele>433.8</ele>
        <time>2024-06-12T09:42:22Z</time>
      </trkpt>
      <trkpt lat="43.27503" lon="5.79574">
        <ele>433.8</ele>
        <time>2024-06-12T09:42:23Z</time>
      </trkpt>
      <trkpt lat="43.27501" lon="5.79563">
        <ele>433.8</ele>
        <time>2024-06-12T09:42:24Z</time>
      </trkpt>
      <trkpt lat="43.275" lon="5.79559">
        <ele>433.8</ele>
        <time>2024-06-12T09:42:25Z</time>
      </trkpt>
      <trkpt lat="43.27499" lon="5.79552">
        <ele>433.4</ele>
        <time>2024-06-12T09:42:26Z</time>
      </trkpt>
      <trkpt lat="43.27495" lon="5.79541">
        <ele>433.4</ele>
        <time>2024-06-12T09:42:27Z</time>
      </trkpt>
      <trkpt lat="43.27494" lon="5.79537">
        <ele>433.4</ele>
        <time>2024-06-12T09:42:28Z</time>
      </trkpt>
      <trkpt lat="43.27491" lon="5.79529">
        <ele>433</ele>
        <time>2024-06-12T09:42:29Z</time>
      </trkpt>
      <trkpt lat="43.27487" lon="5.79518">
        <ele>433</ele>
        <time>2024-06-12T09:42:30Z</time>
      </trkpt>
      <trkpt lat="43.27486" lon="5.79514">
        <ele>433</ele>
        <time>2024-06-12T09:42:31Z</time>
      </trkpt>
      <trkpt lat="43.27484" lon="5.79507">
        <ele>433</ele>
        <time>2024-06-12T09:42:32Z</time>
      </trkpt>
      <trkpt lat="43.27481" lon="5.79499">
        <ele>433</ele>
        <time>2024-06-12T09:42:33Z</time>
      </trkpt>
      <trkpt lat="43.27479" lon="5.79491">
        <ele>432.4</ele>
        <time>2024-06-12T09:42:34Z</time>
      </trkpt>
      <trkpt lat="43.27476" lon="5.79484">
        <ele>432.2</ele>
        <time>2024-06-12T09:42:35Z</time>
      </trkpt>
      <trkpt lat="43.27472" lon="5.79472">
        <ele>432.2</ele>
        <time>2024-06-12T09:42:36Z</time>
      </trkpt>
      <trkpt lat="43.27471" lon="5.79468">
        <ele>432.2</ele>
        <time>2024-06-12T09:42:37Z</time>
      </trkpt>
      <trkpt lat="43.27467" lon="5.79457">
        <ele>432.2</ele>
        <time>2024-06-12T09:42:38Z</time>
      </trkpt>
      <trkpt lat="43.27466" lon="5.79453">
        <ele>431.6</ele>
        <time>2024-06-12T09:42:39Z</time>
      </trkpt>
      <trkpt lat="43.27462" lon="5.79441">
        <ele>431.4</ele>
        <time>2024-06-12T09:42:40Z</time>
      </trkpt>
      <trkpt lat="43.2746" lon="5.79438">
        <ele>431.4</ele>
        <time>2024-06-12T09:42:41Z</time>
      </trkpt>
      <trkpt lat="43.27456" lon="5.79427">
        <ele>431.4</ele>
        <time>2024-06-12T09:42:42Z</time>
      </trkpt>
      <trkpt lat="43.27455" lon="5.79423">
        <ele>430.8</ele>
        <time>2024-06-12T09:42:43Z</time>
      </trkpt>
      <trkpt lat="43.27452" lon="5.79416">
        <ele>430.6</ele>
        <time>2024-06-12T09:42:44Z</time>
      </trkpt>
      <trkpt lat="43.27447" lon="5.79407">
        <ele>430.6</ele>
        <time>2024-06-12T09:42:45Z</time>
      </trkpt>
      <trkpt lat="43.27445" lon="5.79404">
        <ele>430.6</ele>
        <time>2024-06-12T09:42:46Z</time>
      </trkpt>
      <trkpt lat="43.27439" lon="5.79396">
        <ele>430.6</ele>
        <time>2024-06-12T09:42:47Z</time>
      </trkpt>
      <trkpt lat="43.27437" lon="5.79393">
        <ele>430.2</ele>
        <time>2024-06-12T09:42:48Z</time>
      </trkpt>
      <trkpt lat="43.27429" lon="5.79386">
        <ele>429.8</ele>
        <time>2024-06-12T09:42:49Z</time>
      </trkpt>
      <trkpt lat="43.27427" lon="5.79384">
        <ele>429.8</ele>
        <time>2024-06-12T09:42:50Z</time>
      </trkpt>
      <trkpt lat="43.27422" lon="5.79379">
        <ele>429.8</ele>
        <time>2024-06-12T09:42:51Z</time>
      </trkpt>
      <trkpt lat="43.27413" lon="5.79373">
        <ele>429.4</ele>
        <time>2024-06-12T09:42:52Z</time>
      </trkpt>
      <trkpt lat="43.27411" lon="5.79371">
        <ele>429.4</ele>
        <time>2024-06-12T09:42:53Z</time>
      </trkpt>
      <trkpt lat="43.27405" lon="5.79367">
        <ele>429.4</ele>
        <time>2024-06-12T09:42:54Z</time>
      </trkpt>
      <trkpt lat="43.27396" lon="5.79361">
        <ele>429.4</ele>
        <time>2024-06-12T09:42:55Z</time>
      </trkpt>
      <trkpt lat="43.27393" lon="5.79359">
        <ele>428.8</ele>
        <time>2024-06-12T09:42:56Z</time>
      </trkpt>
      <trkpt lat="43.27385" lon="5.79354">
        <ele>428.8</ele>
        <time>2024-06-12T09:42:57Z</time>
      </trkpt>
      <trkpt lat="43.27382" lon="5.79352">
        <ele>429</ele>
        <time>2024-06-12T09:42:58Z</time>
      </trkpt>
      <trkpt lat="43.27377" lon="5.79348">
        <ele>429</ele>
        <time>2024-06-12T09:42:59Z</time>
      </trkpt>
      <trkpt lat="43.27371" lon="5.79344">
        <ele>429</ele>
        <time>2024-06-12T09:43:00Z</time>
      </trkpt>
      <trkpt lat="43.27366" lon="5.7934">
        <ele>428.6</ele>
        <time>2024-06-12T09:43:01Z</time>
      </trkpt>
      <trkpt lat="43.27359" lon="5.79335">
        <ele>428.8</ele>
        <time>2024-06-12T09:43:02Z</time>
      </trkpt>
      <trkpt lat="43.27356" lon="5.79333">
        <ele>428.8</ele>
        <time>2024-06-12T09:43:03Z</time>
      </trkpt>
      <trkpt lat="43.27349" lon="5.79328">
        <ele>428.8</ele>
        <time>2024-06-12T09:43:04Z</time>
      </trkpt>
      <trkpt lat="43.27347" lon="5.79326">
        <ele>428.8</ele>
        <time>2024-06-12T09:43:05Z</time>
      </trkpt>
      <trkpt lat="43.27339" lon="5.79321">
        <ele>428.6</ele>
        <time>2024-06-12T09:43:06Z</time>
      </trkpt>
      <trkpt lat="43.27337" lon="5.79319">
        <ele>428.6</ele>
        <time>2024-06-12T09:43:07Z</time>
      </trkpt>
      <trkpt lat="43.2733" lon="5.79315">
        <ele>428.6</ele>
        <time>2024-06-12T09:43:08Z</time>
      </trkpt>
      <trkpt lat="43.27327" lon="5.79313">
        <ele>428.6</ele>
        <time>2024-06-12T09:43:09Z</time>
      </trkpt>
      <trkpt lat="43.27323" lon="5.7931">
        <ele>428.6</ele>
        <time>2024-06-12T09:43:10Z</time>
      </trkpt>
      <trkpt lat="43.27318" lon="5.79306">
        <ele>428.6</ele>
        <time>2024-06-12T09:43:11Z</time>
      </trkpt>
      <trkpt lat="43.27313" lon="5.79303">
        <ele>428.6</ele>
        <time>2024-06-12T09:43:12Z</time>
      </trkpt>
      <trkpt lat="43.27308" lon="5.79299">
        <ele>428.6</ele>
        <time>2024-06-12T09:43:13Z</time>
      </trkpt>
      <trkpt lat="43.27304" lon="5.79296">
        <ele>428.6</ele>
        <time>2024-06-12T09:43:14Z</time>
      </trkpt>
      <trkpt lat="43.27299" lon="5.79293">
        <ele>428.6</ele>
        <time>2024-06-12T09:43:15Z</time>
      </trkpt>
      <trkpt lat="43.27295" lon="5.79291">
        <ele>428.6</ele>
        <time>2024-06-12T09:43:16Z</time>
      </trkpt>
      <trkpt lat="43.2729" lon="5.79289">
        <ele>428.6</ele>
        <time>2024-06-12T09:43:17Z</time>
      </trkpt>
      <trkpt lat="43.27283" lon="5.79286">
        <ele>428.6</ele>
        <time>2024-06-12T09:43:18Z</time>
      </trkpt>
      <trkpt lat="43.27281" lon="5.79285">
        <ele>428.6</ele>
        <time>2024-06-12T09:43:19Z</time>
      </trkpt>
      <trkpt lat="43.27274" lon="5.79282">
        <ele>428.6</ele>
        <time>2024-06-12T09:43:20Z</time>
      </trkpt>
      <trkpt lat="43.27272" lon="5.79281">
        <ele>428.8</ele>
        <time>2024-06-12T09:43:21Z</time>
      </trkpt>
      <trkpt lat="43.27265" lon="5.7928">
        <ele>428.8</ele>
        <time>2024-06-12T09:43:22Z</time>
      </trkpt>
      <trkpt lat="43.27263" lon="5.79279">
        <ele>428.8</ele>
        <time>2024-06-12T09:43:23Z</time>
      </trkpt>
      <trkpt lat="43.27256" lon="5.79277">
        <ele>428.8</ele>
        <time>2024-06-12T09:43:24Z</time>
      </trkpt>
      <trkpt lat="43.27254" lon="5.79276">
        <ele>429.2</ele>
        <time>2024-06-12T09:43:25Z</time>
      </trkpt>
      <trkpt lat="43.27246" lon="5.79273">
        <ele>429.2</ele>
        <time>2024-06-12T09:43:26Z</time>
      </trkpt>
      <trkpt lat="43.27244" lon="5.79272">
        <ele>429.2</ele>
        <time>2024-06-12T09:43:27Z</time>
      </trkpt>
      <trkpt lat="43.27237" lon="5.79268">
        <ele>429.2</ele>
        <time>2024-06-12T09:43:28Z</time>
      </trkpt>
      <trkpt lat="43.27235" lon="5.79266">
        <ele>429.4</ele>
        <time>2024-06-12T09:43:29Z</time>
      </trkpt>
      <trkpt lat="43.27228" lon="5.79261">
        <ele>429.4</ele>
        <time>2024-06-12T09:43:30Z</time>
      </trkpt>
      <trkpt lat="43.27226" lon="5.79259">
        <ele>429.4</ele>
        <time>2024-06-12T09:43:31Z</time>
      </trkpt>
      <trkpt lat="43.27223" lon="5.79255">
        <ele>429.4</ele>
        <time>2024-06-12T09:43:32Z</time>
      </trkpt>
      <trkpt lat="43.27218" lon="5.79249">
        <ele>429.4</ele>
        <time>2024-06-12T09:43:33Z</time>
      </trkpt>
      <trkpt lat="43.27216" lon="5.79247">
        <ele>429.6</ele>
        <time>2024-06-12T09:43:34Z</time>
      </trkpt>
      <trkpt lat="43.27213" lon="5.79242">
        <ele>429.6</ele>
        <time>2024-06-12T09:43:35Z</time>
      </trkpt>
      <trkpt lat="43.27209" lon="5.79235">
        <ele>429.6</ele>
        <time>2024-06-12T09:43:36Z</time>
      </trkpt>
      <trkpt lat="43.27207" lon="5.79233">
        <ele>429.6</ele>
        <time>2024-06-12T09:43:37Z</time>
      </trkpt>
      <trkpt lat="43.27203" lon="5.79226">
        <ele>430.2</ele>
        <time>2024-06-12T09:43:38Z</time>
      </trkpt>
      <trkpt lat="43.27201" lon="5.79224">
        <ele>430.2</ele>
        <time>2024-06-12T09:43:39Z</time>
      </trkpt>
      <trkpt lat="43.27197" lon="5.79217">
        <ele>430.2</ele>
        <time>2024-06-12T09:43:40Z</time>
      </trkpt>
      <trkpt lat="43.27196" lon="5.79215">
        <ele>430.2</ele>
        <time>2024-06-12T09:43:41Z</time>
      </trkpt>
      <trkpt lat="43.27193" lon="5.7921">
        <ele>430.4</ele>
        <time>2024-06-12T09:43:42Z</time>
      </trkpt>
      <trkpt lat="43.2719" lon="5.79205">
        <ele>430.4</ele>
        <time>2024-06-12T09:43:43Z</time>
      </trkpt>
      <trkpt lat="43.27187" lon="5.79201">
        <ele>430.4</ele>
        <time>2024-06-12T09:43:44Z</time>
      </trkpt>
      <trkpt lat="43.27183" lon="5.79195">
        <ele>430.4</ele>
        <time>2024-06-12T09:43:45Z</time>
      </trkpt>
      <trkpt lat="43.27181" lon="5.79193">
        <ele>431</ele>
        <time>2024-06-12T09:43:46Z</time>
      </trkpt>
      <trkpt lat="43.27177" lon="5.79187">
        <ele>431.2</ele>
        <time>2024-06-12T09:43:47Z</time>
      </trkpt>
      <trkpt lat="43.27176" lon="5.79185">
        <ele>431.2</ele>
        <time>2024-06-12T09:43:48Z</time>
      </trkpt>
      <trkpt lat="43.27172" lon="5.7918">
        <ele>431.2</ele>
        <time>2024-06-12T09:43:49Z</time>
      </trkpt>
      <trkpt lat="43.27171" lon="5.79178">
        <ele>431.6</ele>
        <time>2024-06-12T09:43:50Z</time>
      </trkpt>
      <trkpt lat="43.27168" lon="5.79175">
        <ele>431.6</ele>
        <time>2024-06-12T09:43:51Z</time>
      </trkpt>
      <trkpt lat="43.27165" lon="5.79172">
        <ele>431.6</ele>
        <time>2024-06-12T09:43:52Z</time>
      </trkpt>
      <trkpt lat="43.27162" lon="5.79169">
        <ele>431.6</ele>
        <time>2024-06-12T09:43:53Z</time>
      </trkpt>
      <trkpt lat="43.27159" lon="5.79165">
        <ele>431.6</ele>
        <time>2024-06-12T09:43:54Z</time>
      </trkpt>
      <trkpt lat="43.27156" lon="5.79162">
        <ele>432.2</ele>
        <time>2024-06-12T09:43:55Z</time>
      </trkpt>
      <trkpt lat="43.27154" lon="5.79158">
        <ele>432.2</ele>
        <time>2024-06-12T09:43:56Z</time>
      </trkpt>
      <trkpt lat="43.27151" lon="5.79154">
        <ele>432.2</ele>
        <time>2024-06-12T09:43:57Z</time>
      </trkpt>
      <trkpt lat="43.27149" lon="5.79151">
        <ele>432.2</ele>
        <time>2024-06-12T09:43:58Z</time>
      </trkpt>
      <trkpt lat="43.27146" lon="5.79147">
        <ele>432.2</ele>
        <time>2024-06-12T09:43:59Z</time>
      </trkpt>
      <trkpt lat="43.27144" lon="5.79144">
        <ele>432.6</ele>
        <time>2024-06-12T09:44:00Z</time>
      </trkpt>
      <trkpt lat="43.2714" lon="5.79137">
        <ele>432.8</ele>
        <time>2024-06-12T09:44:01Z</time>
      </trkpt>
      <trkpt lat="43.27138" lon="5.79135">
        <ele>432.8</ele>
        <time>2024-06-12T09:44:02Z</time>
      </trkpt>
      <trkpt lat="43.27134" lon="5.79129">
        <ele>432.8</ele>
        <time>2024-06-12T09:44:03Z</time>
      </trkpt>
      <trkpt lat="43.27133" lon="5.79127">
        <ele>432.8</ele>
        <time>2024-06-12T09:44:04Z</time>
      </trkpt>
      <trkpt lat="43.27128" lon="5.7912">
        <ele>432.8</ele>
        <time>2024-06-12T09:44:05Z</time>
      </trkpt>
      <trkpt lat="43.27126" lon="5.79118">
        <ele>432.8</ele>
        <time>2024-06-12T09:44:06Z</time>
      </trkpt>
      <trkpt lat="43.27121" lon="5.79111">
        <ele>432.8</ele>
        <time>2024-06-12T09:44:07Z</time>
      </trkpt>
      <trkpt lat="43.27119" lon="5.79109">
        <ele>432.8</ele>
        <time>2024-06-12T09:44:08Z</time>
      </trkpt>
      <trkpt lat="43.27116" lon="5.79104">
        <ele>433.2</ele>
        <time>2024-06-12T09:44:09Z</time>
      </trkpt>
      <trkpt lat="43.2711" lon="5.79096">
        <ele>433.4</ele>
        <time>2024-06-12T09:44:10Z</time>
      </trkpt>
      <trkpt lat="43.27108" lon="5.79093">
        <ele>433.4</ele>
        <time>2024-06-12T09:44:11Z</time>
      </trkpt>
      <trkpt lat="43.27103" lon="5.79084">
        <ele>433.4</ele>
        <time>2024-06-12T09:44:12Z</time>
      </trkpt>
      <trkpt lat="43.27102" lon="5.79081">
        <ele>433.4</ele>
        <time>2024-06-12T09:44:13Z</time>
      </trkpt>
      <trkpt lat="43.27097" lon="5.79071">
        <ele>433.6</ele>
        <time>2024-06-12T09:44:14Z</time>
      </trkpt>
      <trkpt lat="43.27096" lon="5.79067">
        <ele>433.6</ele>
        <time>2024-06-12T09:44:15Z</time>
      </trkpt>
      <trkpt lat="43.27093" lon="5.79056">
        <ele>433.6</ele>
        <time>2024-06-12T09:44:16Z</time>
      </trkpt>
      <trkpt lat="43.27092" lon="5.79052">
        <ele>433.6</ele>
        <time>2024-06-12T09:44:17Z</time>
      </trkpt>
      <trkpt lat="43.27089" lon="5.7904">
        <ele>433.8</ele>
        <time>2024-06-12T09:44:18Z</time>
      </trkpt>
      <trkpt lat="43.27089" lon="5.79037">
        <ele>433.8</ele>
        <time>2024-06-12T09:44:19Z</time>
      </trkpt>
      <trkpt lat="43.27087" lon="5.79029">
        <ele>433.8</ele>
        <time>2024-06-12T09:44:20Z</time>
      </trkpt>
      <trkpt lat="43.27085" lon="5.79018">
        <ele>433.8</ele>
        <time>2024-06-12T09:44:21Z</time>
      </trkpt>
      <trkpt lat="43.27084" lon="5.79014">
        <ele>434.6</ele>
        <time>2024-06-12T09:44:22Z</time>
      </trkpt>
      <trkpt lat="43.27083" lon="5.79007">
        <ele>434.6</ele>
        <time>2024-06-12T09:44:23Z</time>
      </trkpt>
      <trkpt lat="43.2708" lon="5.78996">
        <ele>434.6</ele>
        <time>2024-06-12T09:44:24Z</time>
      </trkpt>
      <trkpt lat="43.2708" lon="5.78992">
        <ele>434.6</ele>
        <time>2024-06-12T09:44:25Z</time>
      </trkpt>
      <trkpt lat="43.27077" lon="5.78981">
        <ele>434.6</ele>
        <time>2024-06-12T09:44:26Z</time>
      </trkpt>
      <trkpt lat="43.27076" lon="5.78978">
        <ele>434.8</ele>
        <time>2024-06-12T09:44:27Z</time>
      </trkpt>
      <trkpt lat="43.27075" lon="5.7897">
        <ele>434.8</ele>
        <time>2024-06-12T09:44:28Z</time>
      </trkpt>
      <trkpt lat="43.27071" lon="5.7896">
        <ele>434.8</ele>
        <time>2024-06-12T09:44:29Z</time>
      </trkpt>
      <trkpt lat="43.2707" lon="5.78957">
        <ele>434.8</ele>
        <time>2024-06-12T09:44:30Z</time>
      </trkpt>
      <trkpt lat="43.27066" lon="5.78947">
        <ele>435.4</ele>
        <time>2024-06-12T09:44:31Z</time>
      </trkpt>
      <trkpt lat="43.27064" lon="5.78944">
        <ele>435.4</ele>
        <time>2024-06-12T09:44:32Z</time>
      </trkpt>
      <trkpt lat="43.27061" lon="5.78938">
        <ele>435.4</ele>
        <time>2024-06-12T09:44:33Z</time>
      </trkpt>
      <trkpt lat="43.27058" lon="5.78933">
        <ele>435.4</ele>
        <time>2024-06-12T09:44:34Z</time>
      </trkpt>
      <trkpt lat="43.27054" lon="5.78924">
        <ele>435.6</ele>
        <time>2024-06-12T09:44:35Z</time>
      </trkpt>
      <trkpt lat="43.27052" lon="5.78921">
        <ele>435.8</ele>
        <time>2024-06-12T09:44:36Z</time>
      </trkpt>
      <trkpt lat="43.27049" lon="5.78915">
        <ele>435.8</ele>
        <time>2024-06-12T09:44:37Z</time>
      </trkpt>
      <trkpt lat="43.27046" lon="5.78909">
        <ele>435.8</ele>
        <time>2024-06-12T09:44:38Z</time>
      </trkpt>
      <trkpt lat="43.27044" lon="5.78902">
        <ele>436</ele>
        <time>2024-06-12T09:44:39Z</time>
      </trkpt>
      <trkpt lat="43.27041" lon="5.78896">
        <ele>436</ele>
        <time>2024-06-12T09:44:40Z</time>
      </trkpt>
      <trkpt lat="43.27038" lon="5.78885">
        <ele>436</ele>
        <time>2024-06-12T09:44:41Z</time>
      </trkpt>
      <trkpt lat="43.27037" lon="5.78881">
        <ele>436</ele>
        <time>2024-06-12T09:44:42Z</time>
      </trkpt>
      <trkpt lat="43.27034" lon="5.7887">
        <ele>436</ele>
        <time>2024-06-12T09:44:43Z</time>
      </trkpt>
      <trkpt lat="43.27033" lon="5.78866">
        <ele>436</ele>
        <time>2024-06-12T09:44:44Z</time>
      </trkpt>
      <trkpt lat="43.27031" lon="5.78854">
        <ele>436.2</ele>
        <time>2024-06-12T09:44:45Z</time>
      </trkpt>
      <trkpt lat="43.2703" lon="5.78849">
        <ele>436.4</ele>
        <time>2024-06-12T09:44:46Z</time>
      </trkpt>
      <trkpt lat="43.27028" lon="5.78836">
        <ele>436.4</ele>
        <time>2024-06-12T09:44:47Z</time>
      </trkpt>
      <trkpt lat="43.27028" lon="5.78832">
        <ele>436.4</ele>
        <time>2024-06-12T09:44:48Z</time>
      </trkpt>
      <trkpt lat="43.27026" lon="5.78818">
        <ele>436.4</ele>
        <time>2024-06-12T09:44:49Z</time>
      </trkpt>
      <trkpt lat="43.27025" lon="5.78814">
        <ele>436.4</ele>
        <time>2024-06-12T09:44:50Z</time>
      </trkpt>
      <trkpt lat="43.27024" lon="5.78804">
        <ele>436.4</ele>
        <time>2024-06-12T09:44:51Z</time>
      </trkpt>
      <trkpt lat="43.27023" lon="5.78789">
        <ele>436.4</ele>
        <time>2024-06-12T09:44:52Z</time>
      </trkpt>
      <trkpt lat="43.27022" lon="5.78784">
        <ele>436.4</ele>
        <time>2024-06-12T09:44:53Z</time>
      </trkpt>
      <trkpt lat="43.27021" lon="5.78769">
        <ele>436.4</ele>
        <time>2024-06-12T09:44:54Z</time>
      </trkpt>
      <trkpt lat="43.2702" lon="5.78764">
        <ele>436.4</ele>
        <time>2024-06-12T09:44:55Z</time>
      </trkpt>
      <trkpt lat="43.27018" lon="5.78749">
        <ele>436.4</ele>
        <time>2024-06-12T09:44:56Z</time>
      </trkpt>
      <trkpt lat="43.27018" lon="5.78743">
        <ele>436</ele>
        <time>2024-06-12T09:44:57Z</time>
      </trkpt>
      <trkpt lat="43.27016" lon="5.78728">
        <ele>436</ele>
        <time>2024-06-12T09:44:58Z</time>
      </trkpt>
      <trkpt lat="43.27016" lon="5.78723">
        <ele>436.2</ele>
        <time>2024-06-12T09:44:59Z</time>
      </trkpt>
      <trkpt lat="43.27015" lon="5.78712">
        <ele>436.2</ele>
        <time>2024-06-12T09:45:00Z</time>
      </trkpt>
      <trkpt lat="43.27014" lon="5.78696">
        <ele>436.2</ele>
        <time>2024-06-12T09:45:01Z</time>
      </trkpt>
      <trkpt lat="43.27013" lon="5.78691">
        <ele>436</ele>
        <time>2024-06-12T09:45:02Z</time>
      </trkpt>
      <trkpt lat="43.27012" lon="5.78674">
        <ele>436</ele>
        <time>2024-06-12T09:45:03Z</time>
      </trkpt>
      <trkpt lat="43.27011" lon="5.78669">
        <ele>436</ele>
        <time>2024-06-12T09:45:04Z</time>
      </trkpt>
      <trkpt lat="43.27009" lon="5.78652">
        <ele>436</ele>
        <time>2024-06-12T09:45:05Z</time>
      </trkpt>
      <trkpt lat="43.27008" lon="5.78646">
        <ele>435.2</ele>
        <time>2024-06-12T09:45:06Z</time>
      </trkpt>
      <trkpt lat="43.27007" lon="5.78635">
        <ele>435.2</ele>
        <time>2024-06-12T09:45:07Z</time>
      </trkpt>
      <trkpt lat="43.27004" lon="5.78625">
        <ele>435.2</ele>
        <time>2024-06-12T09:45:08Z</time>
      </trkpt>
      <trkpt lat="43.27" lon="5.78609">
        <ele>435.2</ele>
        <time>2024-06-12T09:45:09Z</time>
      </trkpt>
      <trkpt lat="43.26998" lon="5.78603">
        <ele>435.2</ele>
        <time>2024-06-12T09:45:10Z</time>
      </trkpt>
      <trkpt lat="43.26995" lon="5.78593">
        <ele>435.2</ele>
        <time>2024-06-12T09:45:11Z</time>
      </trkpt>
      <trkpt lat="43.26992" lon="5.78583">
        <ele>434.6</ele>
        <time>2024-06-12T09:45:12Z</time>
      </trkpt>
      <trkpt lat="43.26988" lon="5.78567">
        <ele>434.6</ele>
        <time>2024-06-12T09:45:13Z</time>
      </trkpt>
      <trkpt lat="43.26986" lon="5.78562">
        <ele>434.6</ele>
        <time>2024-06-12T09:45:14Z</time>
      </trkpt>
      <trkpt lat="43.26983" lon="5.78552">
        <ele>434</ele>
        <time>2024-06-12T09:45:15Z</time>
      </trkpt>
      <trkpt lat="43.2698" lon="5.78542">
        <ele>433.8</ele>
        <time>2024-06-12T09:45:16Z</time>
      </trkpt>
      <trkpt lat="43.26976" lon="5.78527">
        <ele>433.8</ele>
        <time>2024-06-12T09:45:17Z</time>
      </trkpt>
      <trkpt lat="43.26975" lon="5.78522">
        <ele>433.8</ele>
        <time>2024-06-12T09:45:18Z</time>
      </trkpt>
      <trkpt lat="43.26972" lon="5.78513">
        <ele>433.4</ele>
        <time>2024-06-12T09:45:19Z</time>
      </trkpt>
      <trkpt lat="43.26969" lon="5.78503">
        <ele>433.2</ele>
        <time>2024-06-12T09:45:20Z</time>
      </trkpt>
      <trkpt lat="43.26966" lon="5.78493">
        <ele>433.2</ele>
        <time>2024-06-12T09:45:21Z</time>
      </trkpt>
      <trkpt lat="43.26963" lon="5.78483">
        <ele>433.2</ele>
        <time>2024-06-12T09:45:22Z</time>
      </trkpt>
      <trkpt lat="43.2696" lon="5.78474">
        <ele>433.2</ele>
        <time>2024-06-12T09:45:23Z</time>
      </trkpt>
      <trkpt lat="43.26955" lon="5.78459">
        <ele>433.2</ele>
        <time>2024-06-12T09:45:24Z</time>
      </trkpt>
      <trkpt lat="43.26954" lon="5.78454">
        <ele>432.4</ele>
        <time>2024-06-12T09:45:25Z</time>
      </trkpt>
      <trkpt lat="43.26949" lon="5.78438">
        <ele>432</ele>
        <time>2024-06-12T09:45:26Z</time>
      </trkpt>
      <trkpt lat="43.26948" lon="5.78433">
        <ele>432</ele>
        <time>2024-06-12T09:45:27Z</time>
      </trkpt>
      <trkpt lat="43.26943" lon="5.78417">
        <ele>432</ele>
        <time>2024-06-12T09:45:28Z</time>
      </trkpt>
      <trkpt lat="43.26942" lon="5.78411">
        <ele>431.2</ele>
        <time>2024-06-12T09:45:29Z</time>
      </trkpt>
      <trkpt lat="43.26937" lon="5.78394">
        <ele>431</ele>
        <time>2024-06-12T09:45:30Z</time>
      </trkpt>
      <trkpt lat="43.26936" lon="5.78388">
        <ele>431</ele>
        <time>2024-06-12T09:45:31Z</time>
      </trkpt>
      <trkpt lat="43.26931" lon="5.78371">
        <ele>431</ele>
        <time>2024-06-12T09:45:32Z</time>
      </trkpt>
      <trkpt lat="43.2693" lon="5.78365">
        <ele>430</ele>
        <time>2024-06-12T09:45:33Z</time>
      </trkpt>
      <trkpt lat="43.26927" lon="5.78352">
        <ele>430</ele>
        <time>2024-06-12T09:45:34Z</time>
      </trkpt>
      <trkpt lat="43.26922" lon="5.78333">
        <ele>429.4</ele>
        <time>2024-06-12T09:45:35Z</time>
      </trkpt>
      <trkpt lat="43.26921" lon="5.78327">
        <ele>429.4</ele>
        <time>2024-06-12T09:45:36Z</time>
      </trkpt>
      <trkpt lat="43.26916" lon="5.78307">
        <ele>429.4</ele>
        <time>2024-06-12T09:45:37Z</time>
      </trkpt>
      <trkpt lat="43.26914" lon="5.783">
        <ele>428.4</ele>
        <time>2024-06-12T09:45:38Z</time>
      </trkpt>
      <trkpt lat="43.2691" lon="5.7828">
        <ele>427.2</ele>
        <time>2024-06-12T09:45:39Z</time>
      </trkpt>
      <trkpt lat="43.26908" lon="5.78273">
        <ele>427.2</ele>
        <time>2024-06-12T09:45:40Z</time>
      </trkpt>
      <trkpt lat="43.26904" lon="5.78259">
        <ele>427.2</ele>
        <time>2024-06-12T09:45:41Z</time>
      </trkpt>
      <trkpt lat="43.26899" lon="5.78239">
        <ele>426.2</ele>
        <time>2024-06-12T09:45:42Z</time>
      </trkpt>
      <trkpt lat="43.26898" lon="5.78232">
        <ele>425.8</ele>
        <time>2024-06-12T09:45:43Z</time>
      </trkpt>
      <trkpt lat="43.26894" lon="5.78218">
        <ele>425.8</ele>
        <time>2024-06-12T09:45:44Z</time>
      </trkpt>
      <trkpt lat="43.26889" lon="5.78197">
        <ele>425.8</ele>
        <time>2024-06-12T09:45:45Z</time>
      </trkpt>
      <trkpt lat="43.26888" lon="5.7819">
        <ele>424.8</ele>
        <time>2024-06-12T09:45:46Z</time>
      </trkpt>
      <trkpt lat="43.26884" lon="5.78177">
        <ele>423.8</ele>
        <time>2024-06-12T09:45:47Z</time>
      </trkpt>
      <trkpt lat="43.26881" lon="5.78164">
        <ele>423.8</ele>
        <time>2024-06-12T09:45:48Z</time>
      </trkpt>
      <trkpt lat="43.26876" lon="5.78145">
        <ele>423.8</ele>
        <time>2024-06-12T09:45:49Z</time>
      </trkpt>
      <trkpt lat="43.26875" lon="5.78139">
        <ele>423.8</ele>
        <time>2024-06-12T09:45:50Z</time>
      </trkpt>
      <trkpt lat="43.26872" lon="5.78127">
        <ele>422.8</ele>
        <time>2024-06-12T09:45:51Z</time>
      </trkpt>
      <trkpt lat="43.26868" lon="5.7811">
        <ele>422.4</ele>
        <time>2024-06-12T09:45:52Z</time>
      </trkpt>
      <trkpt lat="43.26867" lon="5.78105">
        <ele>422.4</ele>
        <time>2024-06-12T09:45:53Z</time>
      </trkpt>
      <trkpt lat="43.26865" lon="5.78088">
        <ele>422.4</ele>
        <time>2024-06-12T09:45:54Z</time>
      </trkpt>
      <trkpt lat="43.26865" lon="5.78083">
        <ele>421.6</ele>
        <time>2024-06-12T09:45:55Z</time>
      </trkpt>
      <trkpt lat="43.26866" lon="5.78072">
        <ele>421.4</ele>
        <time>2024-06-12T09:45:56Z</time>
      </trkpt>
      <trkpt lat="43.26863" lon="5.78058">
        <ele>421.4</ele>
        <time>2024-06-12T09:45:57Z</time>
      </trkpt>
      <trkpt lat="43.26861" lon="5.78054">
        <ele>421.4</ele>
        <time>2024-06-12T09:45:58Z</time>
      </trkpt>
      <trkpt lat="43.26855" lon="5.78041">
        <ele>420.8</ele>
        <time>2024-06-12T09:45:59Z</time>
      </trkpt>
      <trkpt lat="43.26853" lon="5.78036">
        <ele>420.2</ele>
        <time>2024-06-12T09:46:00Z</time>
      </trkpt>
      <trkpt lat="43.26846" lon="5.78023">
        <ele>420.2</ele>
        <time>2024-06-12T09:46:01Z</time>
      </trkpt>
      <trkpt lat="43.26844" lon="5.78018">
        <ele>420.2</ele>
        <time>2024-06-12T09:46:02Z</time>
      </trkpt>
      <trkpt lat="43.26841" lon="5.78007">
        <ele>420.2</ele>
        <time>2024-06-12T09:46:03Z</time>
      </trkpt>
      <trkpt lat="43.26838" lon="5.77996">
        <ele>420.2</ele>
        <time>2024-06-12T09:46:04Z</time>
      </trkpt>
      <trkpt lat="43.26835" lon="5.77985">
        <ele>419.2</ele>
        <time>2024-06-12T09:46:05Z</time>
      </trkpt>
      <trkpt lat="43.26831" lon="5.77974">
        <ele>419</ele>
        <time>2024-06-12T09:46:06Z</time>
      </trkpt>
      <trkpt lat="43.26828" lon="5.77962">
        <ele>419</ele>
        <time>2024-06-12T09:46:07Z</time>
      </trkpt>
      <trkpt lat="43.26825" lon="5.77951">
        <ele>419</ele>
        <time>2024-06-12T09:46:08Z</time>
      </trkpt>
      <trkpt lat="43.26821" lon="5.77934">
        <ele>418.4</ele>
        <time>2024-06-12T09:46:09Z</time>
      </trkpt>
      <trkpt lat="43.26819" lon="5.77928">
        <ele>418</ele>
        <time>2024-06-12T09:46:10Z</time>
      </trkpt>
      <trkpt lat="43.26816" lon="5.77917">
        <ele>418</ele>
        <time>2024-06-12T09:46:11Z</time>
      </trkpt>
      <trkpt lat="43.26813" lon="5.77905">
        <ele>418</ele>
        <time>2024-06-12T09:46:12Z</time>
      </trkpt>
      <trkpt lat="43.2681" lon="5.77893">
        <ele>417</ele>
        <time>2024-06-12T09:46:13Z</time>
      </trkpt>
      <trkpt lat="43.26807" lon="5.77882">
        <ele>417</ele>
        <time>2024-06-12T09:46:14Z</time>
      </trkpt>
      <trkpt lat="43.26804" lon="5.77871">
        <ele>416.6</ele>
        <time>2024-06-12T09:46:15Z</time>
      </trkpt>
      <trkpt lat="43.26801" lon="5.7786">
        <ele>416.6</ele>
        <time>2024-06-12T09:46:16Z</time>
      </trkpt>
      <trkpt lat="43.26797" lon="5.77849">
        <ele>416.6</ele>
        <time>2024-06-12T09:46:17Z</time>
      </trkpt>
      <trkpt lat="43.26794" lon="5.77838">
        <ele>415.8</ele>
        <time>2024-06-12T09:46:18Z</time>
      </trkpt>
      <trkpt lat="43.2679" lon="5.77827">
        <ele>415.6</ele>
        <time>2024-06-12T09:46:19Z</time>
      </trkpt>
      <trkpt lat="43.26787" lon="5.77817">
        <ele>415.6</ele>
        <time>2024-06-12T09:46:20Z</time>
      </trkpt>
      <trkpt lat="43.26783" lon="5.77807">
        <ele>415.6</ele>
        <time>2024-06-12T09:46:21Z</time>
      </trkpt>
      <trkpt lat="43.26778" lon="5.77793">
        <ele>414.6</ele>
        <time>2024-06-12T09:46:22Z</time>
      </trkpt>
      <trkpt lat="43.26776" lon="5.77788">
        <ele>414.4</ele>
        <time>2024-06-12T09:46:23Z</time>
      </trkpt>
      <trkpt lat="43.26773" lon="5.77779">
        <ele>414.4</ele>
        <time>2024-06-12T09:46:24Z</time>
      </trkpt>
      <trkpt lat="43.26769" lon="5.7777">
        <ele>414.4</ele>
        <time>2024-06-12T09:46:25Z</time>
      </trkpt>
      <trkpt lat="43.26766" lon="5.77761">
        <ele>414.4</ele>
        <time>2024-06-12T09:46:26Z</time>
      </trkpt>
      <trkpt lat="43.26761" lon="5.77748">
        <ele>414</ele>
        <time>2024-06-12T09:46:27Z</time>
      </trkpt>
      <trkpt lat="43.26759" lon="5.77744">
        <ele>414</ele>
        <time>2024-06-12T09:46:28Z</time>
      </trkpt>
      <trkpt lat="43.26754" lon="5.77731">
        <ele>414</ele>
        <time>2024-06-12T09:46:29Z</time>
      </trkpt>
      <trkpt lat="43.26752" lon="5.77726">
        <ele>413.6</ele>
        <time>2024-06-12T09:46:30Z</time>
      </trkpt>
      <trkpt lat="43.26749" lon="5.77717">
        <ele>413.2</ele>
        <time>2024-06-12T09:46:31Z</time>
      </trkpt>
      <trkpt lat="43.26745" lon="5.77709">
        <ele>413.2</ele>
        <time>2024-06-12T09:46:32Z</time>
      </trkpt>
      <trkpt lat="43.26741" lon="5.777">
        <ele>413.2</ele>
        <time>2024-06-12T09:46:33Z</time>
      </trkpt>
      <trkpt lat="43.26735" lon="5.77688">
        <ele>413.2</ele>
        <time>2024-06-12T09:46:34Z</time>
      </trkpt>
      <trkpt lat="43.26733" lon="5.77685">
        <ele>413.2</ele>
        <time>2024-06-12T09:46:35Z</time>
      </trkpt>
      <trkpt lat="43.26727" lon="5.77673">
        <ele>413</ele>
        <time>2024-06-12T09:46:36Z</time>
      </trkpt>
      <trkpt lat="43.26724" lon="5.7767">
        <ele>413</ele>
        <time>2024-06-12T09:46:37Z</time>
      </trkpt>
      <trkpt lat="43.26718" lon="5.77659">
        <ele>413</ele>
        <time>2024-06-12T09:46:38Z</time>
      </trkpt>
      <trkpt lat="43.26716" lon="5.77656">
        <ele>412.4</ele>
        <time>2024-06-12T09:46:39Z</time>
      </trkpt>
      <trkpt lat="43.2671" lon="5.77645">
        <ele>412.4</ele>
        <time>2024-06-12T09:46:40Z</time>
      </trkpt>
      <trkpt lat="43.26708" lon="5.77642">
        <ele>412.4</ele>
        <time>2024-06-12T09:46:41Z</time>
      </trkpt>
      <trkpt lat="43.26704" lon="5.77635">
        <ele>412.4</ele>
        <time>2024-06-12T09:46:42Z</time>
      </trkpt>
      <trkpt lat="43.267" lon="5.77628">
        <ele>412.4</ele>
        <time>2024-06-12T09:46:43Z</time>
      </trkpt>
      <trkpt lat="43.26697" lon="5.77622">
        <ele>411.8</ele>
        <time>2024-06-12T09:46:44Z</time>
      </trkpt>
      <trkpt lat="43.26693" lon="5.77615">
        <ele>411.8</ele>
        <time>2024-06-12T09:46:45Z</time>
      </trkpt>
      <trkpt lat="43.26689" lon="5.77609">
        <ele>411.8</ele>
        <time>2024-06-12T09:46:46Z</time>
      </trkpt>
      <trkpt lat="43.26685" lon="5.77604">
        <ele>411.8</ele>
        <time>2024-06-12T09:46:47Z</time>
      </trkpt>
      <trkpt lat="43.26682" lon="5.77598">
        <ele>411.8</ele>
        <time>2024-06-12T09:46:48Z</time>
      </trkpt>
      <trkpt lat="43.26678" lon="5.77592">
        <ele>411.4</ele>
        <time>2024-06-12T09:46:49Z</time>
      </trkpt>
      <trkpt lat="43.26672" lon="5.77582">
        <ele>411</ele>
        <time>2024-06-12T09:46:50Z</time>
      </trkpt>
      <trkpt lat="43.2667" lon="5.77578">
        <ele>411</ele>
        <time>2024-06-12T09:46:51Z</time>
      </trkpt>
      <trkpt lat="43.26665" lon="5.77568">
        <ele>411</ele>
        <time>2024-06-12T09:46:52Z</time>
      </trkpt>
      <trkpt lat="43.26662" lon="5.77564">
        <ele>411</ele>
        <time>2024-06-12T09:46:53Z</time>
      </trkpt>
      <trkpt lat="43.26656" lon="5.77553">
        <ele>410.4</ele>
        <time>2024-06-12T09:46:54Z</time>
      </trkpt>
      <trkpt lat="43.26654" lon="5.7755">
        <ele>410.4</ele>
        <time>2024-06-12T09:46:55Z</time>
      </trkpt>
      <trkpt lat="43.26647" lon="5.77539">
        <ele>410.4</ele>
        <time>2024-06-12T09:46:56Z</time>
      </trkpt>
      <trkpt lat="43.26645" lon="5.77535">
        <ele>410.4</ele>
        <time>2024-06-12T09:46:57Z</time>
      </trkpt>
      <trkpt lat="43.26639" lon="5.77524">
        <ele>410.4</ele>
        <time>2024-06-12T09:46:58Z</time>
      </trkpt>
      <trkpt lat="43.26637" lon="5.7752">
        <ele>409.8</ele>
        <time>2024-06-12T09:46:59Z</time>
      </trkpt>
      <trkpt lat="43.26631" lon="5.77508">
        <ele>409.8</ele>
        <time>2024-06-12T09:47:00Z</time>
      </trkpt>
      <trkpt lat="43.26628" lon="5.77504">
        <ele>409.8</ele>
        <time>2024-06-12T09:47:01Z</time>
      </trkpt>
      <trkpt lat="43.26622" lon="5.77491">
        <ele>409</ele>
        <time>2024-06-12T09:47:02Z</time>
      </trkpt>
      <trkpt lat="43.2662" lon="5.77487">
        <ele>408.6</ele>
        <time>2024-06-12T09:47:03Z</time>
      </trkpt>
      <trkpt lat="43.26616" lon="5.77478">
        <ele>408.6</ele>
        <time>2024-06-12T09:47:04Z</time>
      </trkpt>
      <trkpt lat="43.26611" lon="5.77465">
        <ele>408.6</ele>
        <time>2024-06-12T09:47:05Z</time>
      </trkpt>
      <trkpt lat="43.26609" lon="5.7746">
        <ele>408.2</ele>
        <time>2024-06-12T09:47:06Z</time>
      </trkpt>
      <trkpt lat="43.26606" lon="5.7745">
        <ele>408</ele>
        <time>2024-06-12T09:47:07Z</time>
      </trkpt>
      <trkpt lat="43.26601" lon="5.77436">
        <ele>408</ele>
        <time>2024-06-12T09:47:08Z</time>
      </trkpt>
      <trkpt lat="43.266" lon="5.77431">
        <ele>408</ele>
        <time>2024-06-12T09:47:09Z</time>
      </trkpt>
      <trkpt lat="43.26597" lon="5.77421">
        <ele>408</ele>
        <time>2024-06-12T09:47:10Z</time>
      </trkpt>
      <trkpt lat="43.26594" lon="5.77411">
        <ele>407.2</ele>
        <time>2024-06-12T09:47:11Z</time>
      </trkpt>
      <trkpt lat="43.26591" lon="5.77401">
        <ele>407</ele>
        <time>2024-06-12T09:47:12Z</time>
      </trkpt>
      <trkpt lat="43.26588" lon="5.77391">
        <ele>407</ele>
        <time>2024-06-12T09:47:13Z</time>
      </trkpt>
      <trkpt lat="43.26585" lon="5.77381">
        <ele>407</ele>
        <time>2024-06-12T09:47:14Z</time>
      </trkpt>
      <trkpt lat="43.26582" lon="5.77371">
        <ele>407</ele>
        <time>2024-06-12T09:47:15Z</time>
      </trkpt>
      <trkpt lat="43.26578" lon="5.77356">
        <ele>406.4</ele>
        <time>2024-06-12T09:47:16Z</time>
      </trkpt>
      <trkpt lat="43.26576" lon="5.77351">
        <ele>406.4</ele>
        <time>2024-06-12T09:47:17Z</time>
      </trkpt>
      <trkpt lat="43.26573" lon="5.77336">
        <ele>406.4</ele>
        <time>2024-06-12T09:47:18Z</time>
      </trkpt>
      <trkpt lat="43.26572" lon="5.7733">
        <ele>405.8</ele>
        <time>2024-06-12T09:47:19Z</time>
      </trkpt>
      <trkpt lat="43.2657" lon="5.7732">
        <ele>405.8</ele>
        <time>2024-06-12T09:47:20Z</time>
      </trkpt>
      <trkpt lat="43.26567" lon="5.77305">
        <ele>405.8</ele>
        <time>2024-06-12T09:47:21Z</time>
      </trkpt>
      <trkpt lat="43.26567" lon="5.773">
        <ele>405.8</ele>
        <time>2024-06-12T09:47:22Z</time>
      </trkpt>
      <trkpt lat="43.26565" lon="5.7729">
        <ele>405.8</ele>
        <time>2024-06-12T09:47:23Z</time>
      </trkpt>
      <trkpt lat="43.26564" lon="5.7728">
        <ele>405.8</ele>
        <time>2024-06-12T09:47:24Z</time>
      </trkpt>
      <trkpt lat="43.26562" lon="5.7727">
        <ele>405.6</ele>
        <time>2024-06-12T09:47:25Z</time>
      </trkpt>
      <trkpt lat="43.26561" lon="5.77261">
        <ele>405.6</ele>
        <time>2024-06-12T09:47:26Z</time>
      </trkpt>
      <trkpt lat="43.26559" lon="5.77251">
        <ele>405.6</ele>
        <time>2024-06-12T09:47:27Z</time>
      </trkpt>
      <trkpt lat="43.26557" lon="5.77237">
        <ele>405.2</ele>
        <time>2024-06-12T09:47:28Z</time>
      </trkpt>
      <trkpt lat="43.26557" lon="5.77232">
        <ele>405.2</ele>
        <time>2024-06-12T09:47:29Z</time>
      </trkpt>
      <trkpt lat="43.26555" lon="5.77223">
        <ele>405.2</ele>
        <time>2024-06-12T09:47:30Z</time>
      </trkpt>
      <trkpt lat="43.26554" lon="5.77214">
        <ele>405.2</ele>
        <time>2024-06-12T09:47:31Z</time>
      </trkpt>
      <trkpt lat="43.26552" lon="5.772">
        <ele>405.2</ele>
        <time>2024-06-12T09:47:32Z</time>
      </trkpt>
      <trkpt lat="43.26551" lon="5.77195">
        <ele>404.8</ele>
        <time>2024-06-12T09:47:33Z</time>
      </trkpt>
      <trkpt lat="43.2655" lon="5.77181">
        <ele>404.8</ele>
        <time>2024-06-12T09:47:34Z</time>
      </trkpt>
      <trkpt lat="43.26549" lon="5.77177">
        <ele>404.6</ele>
        <time>2024-06-12T09:47:35Z</time>
      </trkpt>
      <trkpt lat="43.26548" lon="5.77168">
        <ele>404.6</ele>
        <time>2024-06-12T09:47:36Z</time>
      </trkpt>
      <trkpt lat="43.26546" lon="5.77154">
        <ele>404.6</ele>
        <time>2024-06-12T09:47:37Z</time>
      </trkpt>
      <trkpt lat="43.26545" lon="5.7715">
        <ele>404.6</ele>
        <time>2024-06-12T09:47:38Z</time>
      </trkpt>
      <trkpt lat="43.26543" lon="5.77136">
        <ele>404</ele>
        <time>2024-06-12T09:47:39Z</time>
      </trkpt>
      <trkpt lat="43.26543" lon="5.77132">
        <ele>404</ele>
        <time>2024-06-12T09:47:40Z</time>
      </trkpt>
      <trkpt lat="43.26541" lon="5.77119">
        <ele>404</ele>
        <time>2024-06-12T09:47:41Z</time>
      </trkpt>
      <trkpt lat="43.2654" lon="5.77114">
        <ele>404</ele>
        <time>2024-06-12T09:47:42Z</time>
      </trkpt>
      <trkpt lat="43.26539" lon="5.77106">
        <ele>403.8</ele>
        <time>2024-06-12T09:47:43Z</time>
      </trkpt>
      <trkpt lat="43.26537" lon="5.77093">
        <ele>403.8</ele>
        <time>2024-06-12T09:47:44Z</time>
      </trkpt>
      <trkpt lat="43.26537" lon="5.77089">
        <ele>403.8</ele>
        <time>2024-06-12T09:47:45Z</time>
      </trkpt>
      <trkpt lat="43.26535" lon="5.77076">
        <ele>403.8</ele>
        <time>2024-06-12T09:47:46Z</time>
      </trkpt>
      <trkpt lat="43.26535" lon="5.77072">
        <ele>403.8</ele>
        <time>2024-06-12T09:47:47Z</time>
      </trkpt>
      <trkpt lat="43.26534" lon="5.77064">
        <ele>403.8</ele>
        <time>2024-06-12T09:47:48Z</time>
      </trkpt>
      <trkpt lat="43.26533" lon="5.77056">
        <ele>403.8</ele>
        <time>2024-06-12T09:47:49Z</time>
      </trkpt>
      <trkpt lat="43.26532" lon="5.77048">
        <ele>403.8</ele>
        <time>2024-06-12T09:47:50Z</time>
      </trkpt>
      <trkpt lat="43.26531" lon="5.77036">
        <ele>403.8</ele>
        <time>2024-06-12T09:47:51Z</time>
      </trkpt>
      <trkpt lat="43.2653" lon="5.77032">
        <ele>403.8</ele>
        <time>2024-06-12T09:47:52Z</time>
      </trkpt>
      <trkpt lat="43.2653" lon="5.77019">
        <ele>403.8</ele>
        <time>2024-06-12T09:47:53Z</time>
      </trkpt>
      <trkpt lat="43.2653" lon="5.77015">
        <ele>403.8</ele>
        <time>2024-06-12T09:47:54Z</time>
      </trkpt>
      <trkpt lat="43.2653" lon="5.77006">
        <ele>403.8</ele>
        <time>2024-06-12T09:47:55Z</time>
      </trkpt>
      <trkpt lat="43.2653" lon="5.76998">
        <ele>403.8</ele>
        <time>2024-06-12T09:47:56Z</time>
      </trkpt>
      <trkpt lat="43.2653" lon="5.76984">
        <ele>403.8</ele>
        <time>2024-06-12T09:47:57Z</time>
      </trkpt>
      <trkpt lat="43.2653" lon="5.7698">
        <ele>403.8</ele>
        <time>2024-06-12T09:47:58Z</time>
      </trkpt>
      <trkpt lat="43.2653" lon="5.76966">
        <ele>403.8</ele>
        <time>2024-06-12T09:47:59Z</time>
      </trkpt>
      <trkpt lat="43.26531" lon="5.76962">
        <ele>403.8</ele>
        <time>2024-06-12T09:48:00Z</time>
      </trkpt>
      <trkpt lat="43.2653" lon="5.76953">
        <ele>404</ele>
        <time>2024-06-12T09:48:01Z</time>
      </trkpt>
      <trkpt lat="43.2653" lon="5.76941">
        <ele>404</ele>
        <time>2024-06-12T09:48:02Z</time>
      </trkpt>
      <trkpt lat="43.26531" lon="5.76937">
        <ele>404</ele>
        <time>2024-06-12T09:48:03Z</time>
      </trkpt>
      <trkpt lat="43.26531" lon="5.76929">
        <ele>404.6</ele>
        <time>2024-06-12T09:48:04Z</time>
      </trkpt>
      <trkpt lat="43.2653" lon="5.76921">
        <ele>404.6</ele>
        <time>2024-06-12T09:48:05Z</time>
      </trkpt>
      <trkpt lat="43.2653" lon="5.76913">
        <ele>404.6</ele>
        <time>2024-06-12T09:48:06Z</time>
      </trkpt>
      <trkpt lat="43.26529" lon="5.76906">
        <ele>404.6</ele>
        <time>2024-06-12T09:48:07Z</time>
      </trkpt>
      <trkpt lat="43.26528" lon="5.76894">
        <ele>404.6</ele>
        <time>2024-06-12T09:48:08Z</time>
      </trkpt>
      <trkpt lat="43.26527" lon="5.7689">
        <ele>404.6</ele>
        <time>2024-06-12T09:48:09Z</time>
      </trkpt>
      <trkpt lat="43.26525" lon="5.76882">
        <ele>404.6</ele>
        <time>2024-06-12T09:48:10Z</time>
      </trkpt>
      <trkpt lat="43.26524" lon="5.76874">
        <ele>404.6</ele>
        <time>2024-06-12T09:48:11Z</time>
      </trkpt>
      <trkpt lat="43.26521" lon="5.76866">
        <ele>404.6</ele>
        <time>2024-06-12T09:48:12Z</time>
      </trkpt>
      <trkpt lat="43.26519" lon="5.76857">
        <ele>404.6</ele>
        <time>2024-06-12T09:48:13Z</time>
      </trkpt>
      <trkpt lat="43.26517" lon="5.76849">
        <ele>404.4</ele>
        <time>2024-06-12T09:48:14Z</time>
      </trkpt>
      <trkpt lat="43.26512" lon="5.76837">
        <ele>404</ele>
        <time>2024-06-12T09:48:15Z</time>
      </trkpt>
      <trkpt lat="43.26511" lon="5.76833">
        <ele>404</ele>
        <time>2024-06-12T09:48:16Z</time>
      </trkpt>
      <trkpt lat="43.26506" lon="5.76821">
        <ele>404</ele>
        <time>2024-06-12T09:48:17Z</time>
      </trkpt>
      <trkpt lat="43.26504" lon="5.76817">
        <ele>404</ele>
        <time>2024-06-12T09:48:18Z</time>
      </trkpt>
      <trkpt lat="43.265" lon="5.76806">
        <ele>404</ele>
        <time>2024-06-12T09:48:19Z</time>
      </trkpt>
      <trkpt lat="43.26498" lon="5.76802">
        <ele>403.6</ele>
        <time>2024-06-12T09:48:20Z</time>
      </trkpt>
      <trkpt lat="43.26494" lon="5.76791">
        <ele>403.6</ele>
        <time>2024-06-12T09:48:21Z</time>
      </trkpt>
      <trkpt lat="43.26493" lon="5.76788">
        <ele>403.6</ele>
        <time>2024-06-12T09:48:22Z</time>
      </trkpt>
      <trkpt lat="43.26489" lon="5.76777">
        <ele>403</ele>
        <time>2024-06-12T09:48:23Z</time>
      </trkpt>
      <trkpt lat="43.26488" lon="5.76774">
        <ele>403</ele>
        <time>2024-06-12T09:48:24Z</time>
      </trkpt>
      <trkpt lat="43.26484" lon="5.76765">
        <ele>403</ele>
        <time>2024-06-12T09:48:25Z</time>
      </trkpt>
      <trkpt lat="43.26483" lon="5.76762">
        <ele>403</ele>
        <time>2024-06-12T09:48:26Z</time>
      </trkpt>
      <trkpt lat="43.26479" lon="5.76753">
        <ele>402.6</ele>
        <time>2024-06-12T09:48:27Z</time>
      </trkpt>
      <trkpt lat="43.26478" lon="5.7675">
        <ele>403.2</ele>
        <time>2024-06-12T09:48:28Z</time>
      </trkpt>
      <trkpt lat="43.26476" lon="5.76744">
        <ele>403.2</ele>
        <time>2024-06-12T09:48:29Z</time>
      </trkpt>
      <trkpt lat="43.26472" lon="5.76734">
        <ele>403.2</ele>
        <time>2024-06-12T09:48:30Z</time>
      </trkpt>
      <trkpt lat="43.26471" lon="5.76731">
        <ele>403.2</ele>
        <time>2024-06-12T09:48:31Z</time>
      </trkpt>
      <trkpt lat="43.26467" lon="5.76722">
        <ele>403.2</ele>
        <time>2024-06-12T09:48:32Z</time>
      </trkpt>
      <trkpt lat="43.26466" lon="5.76719">
        <ele>402.6</ele>
        <time>2024-06-12T09:48:33Z</time>
      </trkpt>
      <trkpt lat="43.26462" lon="5.7671">
        <ele>402.6</ele>
        <time>2024-06-12T09:48:34Z</time>
      </trkpt>
      <trkpt lat="43.26461" lon="5.76707">
        <ele>402.6</ele>
        <time>2024-06-12T09:48:35Z</time>
      </trkpt>
      <trkpt lat="43.26457" lon="5.76697">
        <ele>402.6</ele>
        <time>2024-06-12T09:48:36Z</time>
      </trkpt>
      <trkpt lat="43.26456" lon="5.76694">
        <ele>402.8</ele>
        <time>2024-06-12T09:48:37Z</time>
      </trkpt>
      <trkpt lat="43.26454" lon="5.76688">
        <ele>402.8</ele>
        <time>2024-06-12T09:48:38Z</time>
      </trkpt>
      <trkpt lat="43.26451" lon="5.76682">
        <ele>402.8</ele>
        <time>2024-06-12T09:48:39Z</time>
      </trkpt>
      <trkpt lat="43.26449" lon="5.76676">
        <ele>402.8</ele>
        <time>2024-06-12T09:48:40Z</time>
      </trkpt>
      <trkpt lat="43.26445" lon="5.76667">
        <ele>402.8</ele>
        <time>2024-06-12T09:48:41Z</time>
      </trkpt>
      <trkpt lat="43.26444" lon="5.76664">
        <ele>402.4</ele>
        <time>2024-06-12T09:48:42Z</time>
      </trkpt>
      <trkpt lat="43.2644" lon="5.76655">
        <ele>402.4</ele>
        <time>2024-06-12T09:48:43Z</time>
      </trkpt>
      <trkpt lat="43.26439" lon="5.76652">
        <ele>402.4</ele>
        <time>2024-06-12T09:48:44Z</time>
      </trkpt>
      <trkpt lat="43.26436" lon="5.76644">
        <ele>402.4</ele>
        <time>2024-06-12T09:48:45Z</time>
      </trkpt>
      <trkpt lat="43.26435" lon="5.76641">
        <ele>402.4</ele>
        <time>2024-06-12T09:48:46Z</time>
      </trkpt>
      <trkpt lat="43.26433" lon="5.76636">
        <ele>402.4</ele>
        <time>2024-06-12T09:48:47Z</time>
      </trkpt>
      <trkpt lat="43.26431" lon="5.7663">
        <ele>402.4</ele>
        <time>2024-06-12T09:48:48Z</time>
      </trkpt>
      <trkpt lat="43.26429" lon="5.76625">
        <ele>402.4</ele>
        <time>2024-06-12T09:48:49Z</time>
      </trkpt>
      <trkpt lat="43.26427" lon="5.7662">
        <ele>402.4</ele>
        <time>2024-06-12T09:48:50Z</time>
      </trkpt>
      <trkpt lat="43.26425" lon="5.76614">
        <ele>402.4</ele>
        <time>2024-06-12T09:48:51Z</time>
      </trkpt>
      <trkpt lat="43.26422" lon="5.76608">
        <ele>402.4</ele>
        <time>2024-06-12T09:48:52Z</time>
      </trkpt>
      <trkpt lat="43.26419" lon="5.766">
        <ele>402.4</ele>
        <time>2024-06-12T09:48:53Z</time>
      </trkpt>
      <trkpt lat="43.26418" lon="5.76597">
        <ele>402.4</ele>
        <time>2024-06-12T09:48:54Z</time>
      </trkpt>
      <trkpt lat="43.26416" lon="5.76591">
        <ele>402</ele>
        <time>2024-06-12T09:48:55Z</time>
      </trkpt>
      <trkpt lat="43.26414" lon="5.76585">
        <ele>401.8</ele>
        <time>2024-06-12T09:48:56Z</time>
      </trkpt>
      <trkpt lat="43.2641" lon="5.76577">
        <ele>401.8</ele>
        <time>2024-06-12T09:48:57Z</time>
      </trkpt>
      <trkpt lat="43.26409" lon="5.76574">
        <ele>401.8</ele>
        <time>2024-06-12T09:48:58Z</time>
      </trkpt>
      <trkpt lat="43.26406" lon="5.76565">
        <ele>401.8</ele>
        <time>2024-06-12T09:48:59Z</time>
      </trkpt>
      <trkpt lat="43.26405" lon="5.76562">
        <ele>401.8</ele>
        <time>2024-06-12T09:49:00Z</time>
      </trkpt>
      <trkpt lat="43.26401" lon="5.76553">
        <ele>401.8</ele>
        <time>2024-06-12T09:49:01Z</time>
      </trkpt>
      <trkpt lat="43.264" lon="5.7655">
        <ele>401.8</ele>
        <time>2024-06-12T09:49:02Z</time>
      </trkpt>
      <trkpt lat="43.26396" lon="5.76541">
        <ele>401.8</ele>
        <time>2024-06-12T09:49:03Z</time>
      </trkpt>
      <trkpt lat="43.26395" lon="5.76538">
        <ele>401.6</ele>
        <time>2024-06-12T09:49:04Z</time>
      </trkpt>
      <trkpt lat="43.26392" lon="5.76528">
        <ele>401.4</ele>
        <time>2024-06-12T09:49:05Z</time>
      </trkpt>
      <trkpt lat="43.2639" lon="5.76525">
        <ele>401.4</ele>
        <time>2024-06-12T09:49:06Z</time>
      </trkpt>
      <trkpt lat="43.26386" lon="5.76515">
        <ele>401.4</ele>
        <time>2024-06-12T09:49:07Z</time>
      </trkpt>
      <trkpt lat="43.26385" lon="5.76512">
        <ele>401</ele>
        <time>2024-06-12T09:49:08Z</time>
      </trkpt>
      <trkpt lat="43.26381" lon="5.76501">
        <ele>401.4</ele>
        <time>2024-06-12T09:49:09Z</time>
      </trkpt>
      <trkpt lat="43.26379" lon="5.76498">
        <ele>401.4</ele>
        <time>2024-06-12T09:49:10Z</time>
      </trkpt>
      <trkpt lat="43.26377" lon="5.76491">
        <ele>401.4</ele>
        <time>2024-06-12T09:49:11Z</time>
      </trkpt>
      <trkpt lat="43.26372" lon="5.76479">
        <ele>401.4</ele>
        <time>2024-06-12T09:49:12Z</time>
      </trkpt>
      <trkpt lat="43.26371" lon="5.76476">
        <ele>401</ele>
        <time>2024-06-12T09:49:13Z</time>
      </trkpt>
      <trkpt lat="43.26368" lon="5.76468">
        <ele>401</ele>
        <time>2024-06-12T09:49:14Z</time>
      </trkpt>
      <trkpt lat="43.26363" lon="5.76456">
        <ele>401</ele>
        <time>2024-06-12T09:49:15Z</time>
      </trkpt>
      <trkpt lat="43.26362" lon="5.76452">
        <ele>401</ele>
        <time>2024-06-12T09:49:16Z</time>
      </trkpt>
      <trkpt lat="43.26359" lon="5.76444">
        <ele>401</ele>
        <time>2024-06-12T09:49:17Z</time>
      </trkpt>
      <trkpt lat="43.26356" lon="5.76435">
        <ele>400.6</ele>
        <time>2024-06-12T09:49:18Z</time>
      </trkpt>
      <trkpt lat="43.26352" lon="5.76426">
        <ele>400.6</ele>
        <time>2024-06-12T09:49:19Z</time>
      </trkpt>
      <trkpt lat="43.26348" lon="5.76417">
        <ele>400.6</ele>
        <time>2024-06-12T09:49:20Z</time>
      </trkpt>
      <trkpt lat="43.26345" lon="5.76408">
        <ele>400.2</ele>
        <time>2024-06-12T09:49:21Z</time>
      </trkpt>
      <trkpt lat="43.26341" lon="5.76399">
        <ele>399.6</ele>
        <time>2024-06-12T09:49:22Z</time>
      </trkpt>
      <trkpt lat="43.26337" lon="5.7639">
        <ele>399.6</ele>
        <time>2024-06-12T09:49:23Z</time>
      </trkpt>
      <trkpt lat="43.26332" lon="5.76376">
        <ele>399.6</ele>
        <time>2024-06-12T09:49:24Z</time>
      </trkpt>
      <trkpt lat="43.2633" lon="5.76372">
        <ele>399.6</ele>
        <time>2024-06-12T09:49:25Z</time>
      </trkpt>
      <trkpt lat="43.26325" lon="5.76358">
        <ele>399</ele>
        <time>2024-06-12T09:49:26Z</time>
      </trkpt>
      <trkpt lat="43.26323" lon="5.76353">
        <ele>398.8</ele>
        <time>2024-06-12T09:49:27Z</time>
      </trkpt>
      <trkpt lat="43.26318" lon="5.76339">
        <ele>398.8</ele>
        <time>2024-06-12T09:49:28Z</time>
      </trkpt>
      <trkpt lat="43.26316" lon="5.76335">
        <ele>398.8</ele>
        <time>2024-06-12T09:49:29Z</time>
      </trkpt>
      <trkpt lat="43.26313" lon="5.76326">
        <ele>398.2</ele>
        <time>2024-06-12T09:49:30Z</time>
      </trkpt>
      <trkpt lat="43.2631" lon="5.76317">
        <ele>398</ele>
        <time>2024-06-12T09:49:31Z</time>
      </trkpt>
      <trkpt lat="43.26306" lon="5.76309">
        <ele>398</ele>
        <time>2024-06-12T09:49:32Z</time>
      </trkpt>
      <trkpt lat="43.26303" lon="5.76301">
        <ele>398</ele>
        <time>2024-06-12T09:49:33Z</time>
      </trkpt>
      <trkpt lat="43.263" lon="5.76293">
        <ele>397.4</ele>
        <time>2024-06-12T09:49:34Z</time>
      </trkpt>
      <trkpt lat="43.26297" lon="5.76286">
        <ele>397.4</ele>
        <time>2024-06-12T09:49:35Z</time>
      </trkpt>
      <trkpt lat="43.26294" lon="5.76278">
        <ele>397.4</ele>
        <time>2024-06-12T09:49:36Z</time>
      </trkpt>
      <trkpt lat="43.26291" lon="5.76271">
        <ele>397.2</ele>
        <time>2024-06-12T09:49:37Z</time>
      </trkpt>
      <trkpt lat="43.26289" lon="5.76265">
        <ele>397.2</ele>
        <time>2024-06-12T09:49:38Z</time>
      </trkpt>
      <trkpt lat="43.26286" lon="5.76258">
        <ele>397.2</ele>
        <time>2024-06-12T09:49:39Z</time>
      </trkpt>
      <trkpt lat="43.26282" lon="5.76249">
        <ele>396.6</ele>
        <time>2024-06-12T09:49:40Z</time>
      </trkpt>
      <trkpt lat="43.26281" lon="5.76246">
        <ele>396.4</ele>
        <time>2024-06-12T09:49:41Z</time>
      </trkpt>
      <trkpt lat="43.26277" lon="5.76236">
        <ele>396.4</ele>
        <time>2024-06-12T09:49:42Z</time>
      </trkpt>
      <trkpt lat="43.26276" lon="5.76233">
        <ele>396.4</ele>
        <time>2024-06-12T09:49:43Z</time>
      </trkpt>
      <trkpt lat="43.26273" lon="5.76223">
        <ele>396.4</ele>
        <time>2024-06-12T09:49:44Z</time>
      </trkpt>
      <trkpt lat="43.26271" lon="5.7622">
        <ele>396.2</ele>
        <time>2024-06-12T09:49:45Z</time>
      </trkpt>
      <trkpt lat="43.26268" lon="5.7621">
        <ele>396.2</ele>
        <time>2024-06-12T09:49:46Z</time>
      </trkpt>
      <trkpt lat="43.26266" lon="5.76207">
        <ele>396.2</ele>
        <time>2024-06-12T09:49:47Z</time>
      </trkpt>
      <trkpt lat="43.26264" lon="5.762">
        <ele>396.2</ele>
        <time>2024-06-12T09:49:48Z</time>
      </trkpt>
      <trkpt lat="43.2626" lon="5.7619">
        <ele>395.8</ele>
        <time>2024-06-12T09:49:49Z</time>
      </trkpt>
      <trkpt lat="43.26259" lon="5.76187">
        <ele>395.8</ele>
        <time>2024-06-12T09:49:50Z</time>
      </trkpt>
      <trkpt lat="43.26255" lon="5.76177">
        <ele>395.8</ele>
        <time>2024-06-12T09:49:51Z</time>
      </trkpt>
      <trkpt lat="43.26253" lon="5.76173">
        <ele>395.8</ele>
        <time>2024-06-12T09:49:52Z</time>
      </trkpt>
      <trkpt lat="43.26251" lon="5.76166">
        <ele>395.2</ele>
        <time>2024-06-12T09:49:53Z</time>
      </trkpt>
      <trkpt lat="43.26247" lon="5.76155">
        <ele>395.2</ele>
        <time>2024-06-12T09:49:54Z</time>
      </trkpt>
      <trkpt lat="43.26245" lon="5.76152">
        <ele>395.2</ele>
        <time>2024-06-12T09:49:55Z</time>
      </trkpt>
      <trkpt lat="43.26241" lon="5.76141">
        <ele>395.2</ele>
        <time>2024-06-12T09:49:56Z</time>
      </trkpt>
      <trkpt lat="43.2624" lon="5.76138">
        <ele>395.2</ele>
        <time>2024-06-12T09:49:57Z</time>
      </trkpt>
      <trkpt lat="43.26236" lon="5.76128">
        <ele>394.6</ele>
        <time>2024-06-12T09:49:58Z</time>
      </trkpt>
      <trkpt lat="43.26235" lon="5.76125">
        <ele>394.4</ele>
        <time>2024-06-12T09:49:59Z</time>
      </trkpt>
      <trkpt lat="43.26232" lon="5.76119">
        <ele>394.4</ele>
        <time>2024-06-12T09:50:00Z</time>
      </trkpt>
      <trkpt lat="43.2623" lon="5.76114">
        <ele>394.4</ele>
        <time>2024-06-12T09:50:01Z</time>
      </trkpt>
      <trkpt lat="43.26228" lon="5.76108">
        <ele>394.4</ele>
        <time>2024-06-12T09:50:02Z</time>
      </trkpt>
      <trkpt lat="43.26226" lon="5.76103">
        <ele>394.4</ele>
        <time>2024-06-12T09:50:03Z</time>
      </trkpt>
      <trkpt lat="43.26224" lon="5.76098">
        <ele>394.4</ele>
        <time>2024-06-12T09:50:04Z</time>
      </trkpt>
      <trkpt lat="43.2622" lon="5.7609">
        <ele>394.4</ele>
        <time>2024-06-12T09:50:05Z</time>
      </trkpt>
      <trkpt lat="43.26219" lon="5.76088">
        <ele>394.4</ele>
        <time>2024-06-12T09:50:06Z</time>
      </trkpt>
      <trkpt lat="43.26216" lon="5.7608">
        <ele>394.2</ele>
        <time>2024-06-12T09:50:07Z</time>
      </trkpt>
      <trkpt lat="43.26216" lon="5.76077">
        <ele>394.2</ele>
        <time>2024-06-12T09:50:08Z</time>
      </trkpt>
      <trkpt lat="43.26212" lon="5.7607">
        <ele>394.2</ele>
        <time>2024-06-12T09:50:09Z</time>
      </trkpt>
      <trkpt lat="43.26211" lon="5.76067">
        <ele>394.2</ele>
        <time>2024-06-12T09:50:10Z</time>
      </trkpt>
      <trkpt lat="43.26208" lon="5.7606">
        <ele>394.2</ele>
        <time>2024-06-12T09:50:11Z</time>
      </trkpt>
      <trkpt lat="43.26207" lon="5.76057">
        <ele>394.2</ele>
        <time>2024-06-12T09:50:12Z</time>
      </trkpt>
      <trkpt lat="43.26205" lon="5.76052">
        <ele>394.2</ele>
        <time>2024-06-12T09:50:13Z</time>
      </trkpt>
      <trkpt lat="43.26203" lon="5.76046">
        <ele>394.2</ele>
        <time>2024-06-12T09:50:14Z</time>
      </trkpt>
      <trkpt lat="43.26201" lon="5.76041">
        <ele>394.2</ele>
        <time>2024-06-12T09:50:15Z</time>
      </trkpt>
      <trkpt lat="43.26198" lon="5.76035">
        <ele>394.2</ele>
        <time>2024-06-12T09:50:16Z</time>
      </trkpt>
      <trkpt lat="43.26196" lon="5.7603">
        <ele>394</ele>
        <time>2024-06-12T09:50:17Z</time>
      </trkpt>
      <trkpt lat="43.26194" lon="5.76024">
        <ele>394</ele>
        <time>2024-06-12T09:50:18Z</time>
      </trkpt>
      <trkpt lat="43.26192" lon="5.76019">
        <ele>394</ele>
        <time>2024-06-12T09:50:19Z</time>
      </trkpt>
      <trkpt lat="43.2619" lon="5.76013">
        <ele>394</ele>
        <time>2024-06-12T09:50:20Z</time>
      </trkpt>
      <trkpt lat="43.26186" lon="5.76006">
        <ele>394.2</ele>
        <time>2024-06-12T09:50:21Z</time>
      </trkpt>
      <trkpt lat="43.26185" lon="5.76003">
        <ele>394.2</ele>
        <time>2024-06-12T09:50:22Z</time>
      </trkpt>
      <trkpt lat="43.26182" lon="5.75995">
        <ele>394.2</ele>
        <time>2024-06-12T09:50:23Z</time>
      </trkpt>
      <trkpt lat="43.2618" lon="5.75993">
        <ele>394.2</ele>
        <time>2024-06-12T09:50:24Z</time>
      </trkpt>
      <trkpt lat="43.26177" lon="5.75985">
        <ele>394.6</ele>
        <time>2024-06-12T09:50:25Z</time>
      </trkpt>
      <trkpt lat="43.26176" lon="5.75983">
        <ele>394.6</ele>
        <time>2024-06-12T09:50:26Z</time>
      </trkpt>
      <trkpt lat="43.26172" lon="5.75975">
        <ele>394.6</ele>
        <time>2024-06-12T09:50:27Z</time>
      </trkpt>
      <trkpt lat="43.26171" lon="5.75972">
        <ele>394.6</ele>
        <time>2024-06-12T09:50:28Z</time>
      </trkpt>
      <trkpt lat="43.26167" lon="5.75964">
        <ele>394.6</ele>
        <time>2024-06-12T09:50:29Z</time>
      </trkpt>
      <trkpt lat="43.26166" lon="5.75962">
        <ele>394.6</ele>
        <time>2024-06-12T09:50:30Z</time>
      </trkpt>
      <trkpt lat="43.26162" lon="5.75953">
        <ele>394.6</ele>
        <time>2024-06-12T09:50:31Z</time>
      </trkpt>
      <trkpt lat="43.2616" lon="5.7595">
        <ele>394.6</ele>
        <time>2024-06-12T09:50:32Z</time>
      </trkpt>
      <trkpt lat="43.26156" lon="5.75942">
        <ele>394.6</ele>
        <time>2024-06-12T09:50:33Z</time>
      </trkpt>
      <trkpt lat="43.26154" lon="5.75939">
        <ele>394.4</ele>
        <time>2024-06-12T09:50:34Z</time>
      </trkpt>
      <trkpt lat="43.26151" lon="5.75933">
        <ele>394.4</ele>
        <time>2024-06-12T09:50:35Z</time>
      </trkpt>
      <trkpt lat="43.26146" lon="5.75924">
        <ele>394.4</ele>
        <time>2024-06-12T09:50:36Z</time>
      </trkpt>
      <trkpt lat="43.26145" lon="5.75921">
        <ele>394.4</ele>
        <time>2024-06-12T09:50:37Z</time>
      </trkpt>
      <trkpt lat="43.2614" lon="5.75911">
        <ele>394</ele>
        <time>2024-06-12T09:50:38Z</time>
      </trkpt>
      <trkpt lat="43.26138" lon="5.75908">
        <ele>394</ele>
        <time>2024-06-12T09:50:39Z</time>
      </trkpt>
      <trkpt lat="43.26135" lon="5.75901">
        <ele>394</ele>
        <time>2024-06-12T09:50:40Z</time>
      </trkpt>
      <trkpt lat="43.26132" lon="5.75895">
        <ele>394</ele>
        <time>2024-06-12T09:50:41Z</time>
      </trkpt>
      <trkpt lat="43.26129" lon="5.75888">
        <ele>394</ele>
        <time>2024-06-12T09:50:42Z</time>
      </trkpt>
      <trkpt lat="43.26126" lon="5.75881">
        <ele>394</ele>
        <time>2024-06-12T09:50:43Z</time>
      </trkpt>
      <trkpt lat="43.26122" lon="5.75874">
        <ele>393.6</ele>
        <time>2024-06-12T09:50:44Z</time>
      </trkpt>
      <trkpt lat="43.26119" lon="5.75868">
        <ele>393.6</ele>
        <time>2024-06-12T09:50:45Z</time>
      </trkpt>
      <trkpt lat="43.26116" lon="5.75861">
        <ele>393.6</ele>
        <time>2024-06-12T09:50:46Z</time>
      </trkpt>
      <trkpt lat="43.26112" lon="5.75855">
        <ele>393</ele>
        <time>2024-06-12T09:50:47Z</time>
      </trkpt>
      <trkpt lat="43.26109" lon="5.75848">
        <ele>393</ele>
        <time>2024-06-12T09:50:48Z</time>
      </trkpt>
      <trkpt lat="43.26105" lon="5.75841">
        <ele>393</ele>
        <time>2024-06-12T09:50:49Z</time>
      </trkpt>
      <trkpt lat="43.26102" lon="5.75834">
        <ele>393</ele>
        <time>2024-06-12T09:50:50Z</time>
      </trkpt>
      <trkpt lat="43.26097" lon="5.75824">
        <ele>392.4</ele>
        <time>2024-06-12T09:50:51Z</time>
      </trkpt>
      <trkpt lat="43.26095" lon="5.75821">
        <ele>392.2</ele>
        <time>2024-06-12T09:50:52Z</time>
      </trkpt>
      <trkpt lat="43.26092" lon="5.75814">
        <ele>392.2</ele>
        <time>2024-06-12T09:50:53Z</time>
      </trkpt>
      <trkpt lat="43.26088" lon="5.75808">
        <ele>392.2</ele>
        <time>2024-06-12T09:50:54Z</time>
      </trkpt>
      <trkpt lat="43.26085" lon="5.75801">
        <ele>392</ele>
        <time>2024-06-12T09:50:55Z</time>
      </trkpt>
      <trkpt lat="43.26081" lon="5.75794">
        <ele>392</ele>
        <time>2024-06-12T09:50:56Z</time>
      </trkpt>
      <trkpt lat="43.26077" lon="5.75787">
        <ele>392</ele>
        <time>2024-06-12T09:50:57Z</time>
      </trkpt>
      <trkpt lat="43.26074" lon="5.7578">
        <ele>392</ele>
        <time>2024-06-12T09:50:58Z</time>
      </trkpt>
      <trkpt lat="43.2607" lon="5.75774">
        <ele>392</ele>
        <time>2024-06-12T09:50:59Z</time>
      </trkpt>
      <trkpt lat="43.26067" lon="5.75766">
        <ele>392</ele>
        <time>2024-06-12T09:51:00Z</time>
      </trkpt>
      <trkpt lat="43.26063" lon="5.7576">
        <ele>391.8</ele>
        <time>2024-06-12T09:51:01Z</time>
      </trkpt>
      <trkpt lat="43.2606" lon="5.75753">
        <ele>392</ele>
        <time>2024-06-12T09:51:02Z</time>
      </trkpt>
      <trkpt lat="43.26055" lon="5.75742">
        <ele>392</ele>
        <time>2024-06-12T09:51:03Z</time>
      </trkpt>
      <trkpt lat="43.26053" lon="5.75739">
        <ele>392</ele>
        <time>2024-06-12T09:51:04Z</time>
      </trkpt>
      <trkpt lat="43.26048" lon="5.75729">
        <ele>391.8</ele>
        <time>2024-06-12T09:51:05Z</time>
      </trkpt>
      <trkpt lat="43.26046" lon="5.75726">
        <ele>391.6</ele>
        <time>2024-06-12T09:51:06Z</time>
      </trkpt>
      <trkpt lat="43.26043" lon="5.75719">
        <ele>391.6</ele>
        <time>2024-06-12T09:51:07Z</time>
      </trkpt>
      <trkpt lat="43.26037" lon="5.75709">
        <ele>391.6</ele>
        <time>2024-06-12T09:51:08Z</time>
      </trkpt>
      <trkpt lat="43.26036" lon="5.75705">
        <ele>391.4</ele>
        <time>2024-06-12T09:51:09Z</time>
      </trkpt>
      <trkpt lat="43.2603" lon="5.75696">
        <ele>391.4</ele>
        <time>2024-06-12T09:51:10Z</time>
      </trkpt>
      <trkpt lat="43.26029" lon="5.75692">
        <ele>391.4</ele>
        <time>2024-06-12T09:51:11Z</time>
      </trkpt>
      <trkpt lat="43.26025" lon="5.75686">
        <ele>391.4</ele>
        <time>2024-06-12T09:51:12Z</time>
      </trkpt>
      <trkpt lat="43.26022" lon="5.75679">
        <ele>391.4</ele>
        <time>2024-06-12T09:51:13Z</time>
      </trkpt>
      <trkpt lat="43.26018" lon="5.75673">
        <ele>391.4</ele>
        <time>2024-06-12T09:51:14Z</time>
      </trkpt>
      <trkpt lat="43.26015" lon="5.75666">
        <ele>391.4</ele>
        <time>2024-06-12T09:51:15Z</time>
      </trkpt>
      <trkpt lat="43.2601" lon="5.75656">
        <ele>391.4</ele>
        <time>2024-06-12T09:51:16Z</time>
      </trkpt>
      <trkpt lat="43.26008" lon="5.75653">
        <ele>391.4</ele>
        <time>2024-06-12T09:51:17Z</time>
      </trkpt>
      <trkpt lat="43.26005" lon="5.75646">
        <ele>391.2</ele>
        <time>2024-06-12T09:51:18Z</time>
      </trkpt>
      <trkpt lat="43.26001" lon="5.7564">
        <ele>390.8</ele>
        <time>2024-06-12T09:51:19Z</time>
      </trkpt>
      <trkpt lat="43.25998" lon="5.75633">
        <ele>390.8</ele>
        <time>2024-06-12T09:51:20Z</time>
      </trkpt>
      <trkpt lat="43.25993" lon="5.75623">
        <ele>390.8</ele>
        <time>2024-06-12T09:51:21Z</time>
      </trkpt>
      <trkpt lat="43.25991" lon="5.75619">
        <ele>390.2</ele>
        <time>2024-06-12T09:51:22Z</time>
      </trkpt>
      <trkpt lat="43.25985" lon="5.75609">
        <ele>390.4</ele>
        <time>2024-06-12T09:51:23Z</time>
      </trkpt>
      <trkpt lat="43.25984" lon="5.75605">
        <ele>390.4</ele>
        <time>2024-06-12T09:51:24Z</time>
      </trkpt>
      <trkpt lat="43.2598" lon="5.75598">
        <ele>390.4</ele>
        <time>2024-06-12T09:51:25Z</time>
      </trkpt>
      <trkpt lat="43.25976" lon="5.75592">
        <ele>390.4</ele>
        <time>2024-06-12T09:51:26Z</time>
      </trkpt>
      <trkpt lat="43.25973" lon="5.75585">
        <ele>390</ele>
        <time>2024-06-12T09:51:27Z</time>
      </trkpt>
      <trkpt lat="43.25969" lon="5.75577">
        <ele>390</ele>
        <time>2024-06-12T09:51:28Z</time>
      </trkpt>
      <trkpt lat="43.25965" lon="5.7557">
        <ele>390</ele>
        <time>2024-06-12T09:51:29Z</time>
      </trkpt>
      <trkpt lat="43.25959" lon="5.75559">
        <ele>390</ele>
        <time>2024-06-12T09:51:30Z</time>
      </trkpt>
      <trkpt lat="43.25958" lon="5.75555">
        <ele>390.2</ele>
        <time>2024-06-12T09:51:31Z</time>
      </trkpt>
      <trkpt lat="43.25952" lon="5.75544">
        <ele>390.2</ele>
        <time>2024-06-12T09:51:32Z</time>
      </trkpt>
      <trkpt lat="43.2595" lon="5.7554">
        <ele>390.2</ele>
        <time>2024-06-12T09:51:33Z</time>
      </trkpt>
      <trkpt lat="43.25944" lon="5.75529">
        <ele>390.2</ele>
        <time>2024-06-12T09:51:34Z</time>
      </trkpt>
      <trkpt lat="43.25941" lon="5.75525">
        <ele>389.8</ele>
        <time>2024-06-12T09:51:35Z</time>
      </trkpt>
      <trkpt lat="43.25937" lon="5.75517">
        <ele>389.8</ele>
        <time>2024-06-12T09:51:36Z</time>
      </trkpt>
      <trkpt lat="43.25933" lon="5.75509">
        <ele>389.8</ele>
        <time>2024-06-12T09:51:37Z</time>
      </trkpt>
      <trkpt lat="43.25929" lon="5.75501">
        <ele>389.8</ele>
        <time>2024-06-12T09:51:38Z</time>
      </trkpt>
      <trkpt lat="43.25925" lon="5.75493">
        <ele>389.8</ele>
        <time>2024-06-12T09:51:39Z</time>
      </trkpt>
      <trkpt lat="43.25919" lon="5.75481">
        <ele>389.4</ele>
        <time>2024-06-12T09:51:40Z</time>
      </trkpt>
      <trkpt lat="43.25917" lon="5.75477">
        <ele>389.4</ele>
        <time>2024-06-12T09:51:41Z</time>
      </trkpt>
      <trkpt lat="43.25912" lon="5.75469">
        <ele>389.4</ele>
        <time>2024-06-12T09:51:42Z</time>
      </trkpt>
      <trkpt lat="43.25908" lon="5.75461">
        <ele>389.4</ele>
        <time>2024-06-12T09:51:43Z</time>
      </trkpt>
      <trkpt lat="43.25904" lon="5.75453">
        <ele>389.4</ele>
        <time>2024-06-12T09:51:44Z</time>
      </trkpt>
      <trkpt lat="43.259" lon="5.75445">
        <ele>389.4</ele>
        <time>2024-06-12T09:51:45Z</time>
      </trkpt>
      <trkpt lat="43.25893" lon="5.75432">
        <ele>389.2</ele>
        <time>2024-06-12T09:51:46Z</time>
      </trkpt>
      <trkpt lat="43.25891" lon="5.75428">
        <ele>389.2</ele>
        <time>2024-06-12T09:51:47Z</time>
      </trkpt>
      <trkpt lat="43.25884" lon="5.75415">
        <ele>389.2</ele>
        <time>2024-06-12T09:51:48Z</time>
      </trkpt>
      <trkpt lat="43.25881" lon="5.75411">
        <ele>389.2</ele>
        <time>2024-06-12T09:51:49Z</time>
      </trkpt>
      <trkpt lat="43.25874" lon="5.75398">
        <ele>389</ele>
        <time>2024-06-12T09:51:50Z</time>
      </trkpt>
      <trkpt lat="43.25872" lon="5.75394">
        <ele>388.6</ele>
        <time>2024-06-12T09:51:51Z</time>
      </trkpt>
      <trkpt lat="43.25865" lon="5.75382">
        <ele>388.6</ele>
        <time>2024-06-12T09:51:52Z</time>
      </trkpt>
      <trkpt lat="43.25863" lon="5.75377">
        <ele>388.6</ele>
        <time>2024-06-12T09:51:53Z</time>
      </trkpt>
      <trkpt lat="43.25859" lon="5.75369">
        <ele>388.6</ele>
        <time>2024-06-12T09:51:54Z</time>
      </trkpt>
      <trkpt lat="43.25852" lon="5.75358">
        <ele>388</ele>
        <time>2024-06-12T09:51:55Z</time>
      </trkpt>
      <trkpt lat="43.2585" lon="5.75354">
        <ele>388</ele>
        <time>2024-06-12T09:51:56Z</time>
      </trkpt>
      <trkpt lat="43.25844" lon="5.75342">
        <ele>388</ele>
        <time>2024-06-12T09:51:57Z</time>
      </trkpt>
      <trkpt lat="43.25842" lon="5.75338">
        <ele>388</ele>
        <time>2024-06-12T09:51:58Z</time>
      </trkpt>
      <trkpt lat="43.25835" lon="5.75327">
        <ele>387.8</ele>
        <time>2024-06-12T09:51:59Z</time>
      </trkpt>
      <trkpt lat="43.25833" lon="5.75323">
        <ele>387.8</ele>
        <time>2024-06-12T09:52:00Z</time>
      </trkpt>
      <trkpt lat="43.25829" lon="5.75316">
        <ele>387.8</ele>
        <time>2024-06-12T09:52:01Z</time>
      </trkpt>
      <trkpt lat="43.25823" lon="5.75305">
        <ele>387.8</ele>
        <time>2024-06-12T09:52:02Z</time>
      </trkpt>
      <trkpt lat="43.25821" lon="5.75302">
        <ele>387.4</ele>
        <time>2024-06-12T09:52:03Z</time>
      </trkpt>
      <trkpt lat="43.25818" lon="5.75295">
        <ele>387.4</ele>
        <time>2024-06-12T09:52:04Z</time>
      </trkpt>
      <trkpt lat="43.25812" lon="5.75285">
        <ele>387.4</ele>
        <time>2024-06-12T09:52:05Z</time>
      </trkpt>
      <trkpt lat="43.2581" lon="5.75281">
        <ele>387.4</ele>
        <time>2024-06-12T09:52:06Z</time>
      </trkpt>
      <trkpt lat="43.25806" lon="5.75274">
        <ele>387</ele>
        <time>2024-06-12T09:52:07Z</time>
      </trkpt>
      <trkpt lat="43.25803" lon="5.75267">
        <ele>386.8</ele>
        <time>2024-06-12T09:52:08Z</time>
      </trkpt>
      <trkpt lat="43.25799" lon="5.7526">
        <ele>386.8</ele>
        <time>2024-06-12T09:52:09Z</time>
      </trkpt>
      <trkpt lat="43.25795" lon="5.75253">
        <ele>386.8</ele>
        <time>2024-06-12T09:52:10Z</time>
      </trkpt>
      <trkpt lat="43.25792" lon="5.75246">
        <ele>386.8</ele>
        <time>2024-06-12T09:52:11Z</time>
      </trkpt>
      <trkpt lat="43.25786" lon="5.75236">
        <ele>386.8</ele>
        <time>2024-06-12T09:52:12Z</time>
      </trkpt>
      <trkpt lat="43.25784" lon="5.75232">
        <ele>386.6</ele>
        <time>2024-06-12T09:52:13Z</time>
      </trkpt>
      <trkpt lat="43.25778" lon="5.75222">
        <ele>386.6</ele>
        <time>2024-06-12T09:52:14Z</time>
      </trkpt>
      <trkpt lat="43.25776" lon="5.75218">
        <ele>386.6</ele>
        <time>2024-06-12T09:52:15Z</time>
      </trkpt>
      <trkpt lat="43.2577" lon="5.75207">
        <ele>386.2</ele>
        <time>2024-06-12T09:52:16Z</time>
      </trkpt>
      <trkpt lat="43.25768" lon="5.75204">
        <ele>386</ele>
        <time>2024-06-12T09:52:17Z</time>
      </trkpt>
      <trkpt lat="43.25764" lon="5.75197">
        <ele>386</ele>
        <time>2024-06-12T09:52:18Z</time>
      </trkpt>
      <trkpt lat="43.2576" lon="5.75189">
        <ele>386</ele>
        <time>2024-06-12T09:52:19Z</time>
      </trkpt>
      <trkpt lat="43.25756" lon="5.75182">
        <ele>386</ele>
        <time>2024-06-12T09:52:20Z</time>
      </trkpt>
      <trkpt lat="43.25752" lon="5.75174">
        <ele>386</ele>
        <time>2024-06-12T09:52:21Z</time>
      </trkpt>
      <trkpt lat="43.25749" lon="5.75167">
        <ele>385.4</ele>
        <time>2024-06-12T09:52:22Z</time>
      </trkpt>
      <trkpt lat="43.25745" lon="5.7516">
        <ele>385.4</ele>
        <time>2024-06-12T09:52:23Z</time>
      </trkpt>
      <trkpt lat="43.25742" lon="5.75153">
        <ele>385.4</ele>
        <time>2024-06-12T09:52:24Z</time>
      </trkpt>
      <trkpt lat="43.25738" lon="5.75146">
        <ele>385.4</ele>
        <time>2024-06-12T09:52:25Z</time>
      </trkpt>
      <trkpt lat="43.25734" lon="5.7514">
        <ele>385.4</ele>
        <time>2024-06-12T09:52:26Z</time>
      </trkpt>
      <trkpt lat="43.25729" lon="5.75134">
        <ele>384.6</ele>
        <time>2024-06-12T09:52:27Z</time>
      </trkpt>
      <trkpt lat="43.25722" lon="5.75126">
        <ele>384.6</ele>
        <time>2024-06-12T09:52:28Z</time>
      </trkpt>
      <trkpt lat="43.2572" lon="5.75124">
        <ele>384.6</ele>
        <time>2024-06-12T09:52:29Z</time>
      </trkpt>
      <trkpt lat="43.25716" lon="5.75118">
        <ele>384.6</ele>
        <time>2024-06-12T09:52:30Z</time>
      </trkpt>
      <trkpt lat="43.25715" lon="5.75117">
        <ele>384.4</ele>
        <time>2024-06-12T09:52:31Z</time>
      </trkpt>
      <trkpt lat="43.25713" lon="5.75113">
        <ele>384.4</ele>
        <time>2024-06-12T09:52:32Z</time>
      </trkpt>
      <trkpt lat="43.25713" lon="5.75111">
        <ele>384.4</ele>
        <time>2024-06-12T09:52:33Z</time>
      </trkpt>
      <trkpt lat="43.25712" lon="5.75109">
        <ele>384.4</ele>
        <time>2024-06-12T09:52:34Z</time>
      </trkpt>
      <trkpt lat="43.25711" lon="5.75105">
        <ele>384.4</ele>
        <time>2024-06-12T09:52:35Z</time>
      </trkpt>
      <trkpt lat="43.2571" lon="5.75102">
        <ele>384.4</ele>
        <time>2024-06-12T09:52:36Z</time>
      </trkpt>
      <trkpt lat="43.25708" lon="5.75099">
        <ele>384.4</ele>
        <time>2024-06-12T09:52:37Z</time>
      </trkpt>
      <trkpt lat="43.25703" lon="5.75095">
        <ele>384.4</ele>
        <time>2024-06-12T09:52:38Z</time>
      </trkpt>
      <trkpt lat="43.25702" lon="5.75094">
        <ele>384.4</ele>
        <time>2024-06-12T09:52:39Z</time>
      </trkpt>
      <trkpt lat="43.25697" lon="5.75092">
        <ele>384.2</ele>
        <time>2024-06-12T09:52:40Z</time>
      </trkpt>
      <trkpt lat="43.25695" lon="5.75092">
        <ele>384.2</ele>
        <time>2024-06-12T09:52:41Z</time>
      </trkpt>
      <trkpt lat="43.25689" lon="5.75093">
        <ele>384.2</ele>
        <time>2024-06-12T09:52:42Z</time>
      </trkpt>
      <trkpt lat="43.25687" lon="5.75093">
        <ele>384.2</ele>
        <time>2024-06-12T09:52:43Z</time>
      </trkpt>
      <trkpt lat="43.25682" lon="5.75097">
        <ele>384.4</ele>
        <time>2024-06-12T09:52:44Z</time>
      </trkpt>
      <trkpt lat="43.2568" lon="5.75098">
        <ele>384.4</ele>
        <time>2024-06-12T09:52:45Z</time>
      </trkpt>
      <trkpt lat="43.25676" lon="5.75102">
        <ele>384.4</ele>
        <time>2024-06-12T09:52:46Z</time>
      </trkpt>
      <trkpt lat="43.25673" lon="5.75105">
        <ele>384.4</ele>
        <time>2024-06-12T09:52:47Z</time>
      </trkpt>
      <trkpt lat="43.25669" lon="5.75108">
        <ele>384.4</ele>
        <time>2024-06-12T09:52:48Z</time>
      </trkpt>
      <trkpt lat="43.25666" lon="5.75109">
        <ele>384.8</ele>
        <time>2024-06-12T09:52:49Z</time>
      </trkpt>
      <trkpt lat="43.25664" lon="5.75108">
        <ele>384.8</ele>
        <time>2024-06-12T09:52:50Z</time>
      </trkpt>
      <trkpt lat="43.25662" lon="5.75108">
        <ele>384.8</ele>
        <time>2024-06-12T09:52:51Z</time>
      </trkpt>
      <trkpt lat="43.25661" lon="5.75108">
        <ele>384.4</ele>
        <time>2024-06-12T09:52:52Z</time>
      </trkpt>
      <trkpt lat="43.25661" lon="5.75107">
        <ele>384.4</ele>
        <time>2024-06-12T09:52:53Z</time>
      </trkpt>
      <trkpt lat="43.25665" lon="5.75114">
        <ele>378.4</ele>
        <time>2024-06-12T09:54:27Z</time>
      </trkpt>
      <trkpt lat="43.25665" lon="5.75116">
        <ele>378.4</ele>
        <time>2024-06-12T09:54:28Z</time>
      </trkpt>
      <trkpt lat="43.25665" lon="5.75118">
        <ele>378.4</ele>
        <time>2024-06-12T09:54:29Z</time>
      </trkpt>
      <trkpt lat="43.25667" lon="5.7512">
        <ele>379.4</ele>
        <time>2024-06-12T09:54:30Z</time>
      </trkpt>
      <trkpt lat="43.25668" lon="5.75121">
        <ele>379.4</ele>
        <time>2024-06-12T09:54:31Z</time>
      </trkpt>
      <trkpt lat="43.25673" lon="5.75121">
        <ele>380</ele>
        <time>2024-06-12T09:54:32Z</time>
      </trkpt>
      <trkpt lat="43.25674" lon="5.75121">
        <ele>380</ele>
        <time>2024-06-12T09:54:33Z</time>
      </trkpt>
      <trkpt lat="43.2568" lon="5.75121">
        <ele>380</ele>
        <time>2024-06-12T09:54:34Z</time>
      </trkpt>
      <trkpt lat="43.25682" lon="5.75121">
        <ele>381</ele>
        <time>2024-06-12T09:54:35Z</time>
      </trkpt>
      <trkpt lat="43.25686" lon="5.75122">
        <ele>381.6</ele>
        <time>2024-06-12T09:54:36Z</time>
      </trkpt>
      <trkpt lat="43.25692" lon="5.75123">
        <ele>381.6</ele>
        <time>2024-06-12T09:54:37Z</time>
      </trkpt>
      <trkpt lat="43.25695" lon="5.75123">
        <ele>381.6</ele>
        <time>2024-06-12T09:54:38Z</time>
      </trkpt>
      <trkpt lat="43.25699" lon="5.75122">
        <ele>381.6</ele>
        <time>2024-06-12T09:54:39Z</time>
      </trkpt>
      <trkpt lat="43.25703" lon="5.75118">
        <ele>382.6</ele>
        <time>2024-06-12T09:54:40Z</time>
      </trkpt>
      <trkpt lat="43.25706" lon="5.7511">
        <ele>383.2</ele>
        <time>2024-06-12T09:54:41Z</time>
      </trkpt>
      <trkpt lat="43.25707" lon="5.75107">
        <ele>383.2</ele>
        <time>2024-06-12T09:54:42Z</time>
      </trkpt>
      <trkpt lat="43.25707" lon="5.75101">
        <ele>383.2</ele>
        <time>2024-06-12T09:54:43Z</time>
      </trkpt>
      <trkpt lat="43.25704" lon="5.75093">
        <ele>383.8</ele>
        <time>2024-06-12T09:54:44Z</time>
      </trkpt>
      <trkpt lat="43.25703" lon="5.7509">
        <ele>384</ele>
        <time>2024-06-12T09:54:45Z</time>
      </trkpt>
      <trkpt lat="43.25699" lon="5.75083">
        <ele>384</ele>
        <time>2024-06-12T09:54:46Z</time>
      </trkpt>
      <trkpt lat="43.25697" lon="5.7508">
        <ele>384</ele>
        <time>2024-06-12T09:54:47Z</time>
      </trkpt>
      <trkpt lat="43.25694" lon="5.75072">
        <ele>384</ele>
        <time>2024-06-12T09:54:48Z</time>
      </trkpt>
      <trkpt lat="43.25693" lon="5.75069">
        <ele>384.4</ele>
        <time>2024-06-12T09:54:49Z</time>
      </trkpt>
      <trkpt lat="43.25691" lon="5.75063">
        <ele>384.6</ele>
        <time>2024-06-12T09:54:50Z</time>
      </trkpt>
      <trkpt lat="43.25689" lon="5.75057">
        <ele>384.6</ele>
        <time>2024-06-12T09:54:51Z</time>
      </trkpt>
      <trkpt lat="43.25687" lon="5.75052">
        <ele>384.6</ele>
        <time>2024-06-12T09:54:52Z</time>
      </trkpt>
      <trkpt lat="43.25684" lon="5.75046">
        <ele>384.8</ele>
        <time>2024-06-12T09:54:53Z</time>
      </trkpt>
      <trkpt lat="43.25682" lon="5.75041">
        <ele>384.8</ele>
        <time>2024-06-12T09:54:54Z</time>
      </trkpt>
      <trkpt lat="43.25679" lon="5.75036">
        <ele>384.8</ele>
        <time>2024-06-12T09:54:55Z</time>
      </trkpt>
      <trkpt lat="43.25677" lon="5.7503">
        <ele>384.8</ele>
        <time>2024-06-12T09:54:56Z</time>
      </trkpt>
      <trkpt lat="43.25674" lon="5.75026">
        <ele>384.8</ele>
        <time>2024-06-12T09:54:57Z</time>
      </trkpt>
      <trkpt lat="43.25669" lon="5.75018">
        <ele>384.8</ele>
        <time>2024-06-12T09:54:58Z</time>
      </trkpt>
      <trkpt lat="43.25668" lon="5.75016">
        <ele>385.2</ele>
        <time>2024-06-12T09:54:59Z</time>
      </trkpt>
      <trkpt lat="43.25663" lon="5.75008">
        <ele>385.2</ele>
        <time>2024-06-12T09:55:00Z</time>
      </trkpt>
      <trkpt lat="43.25662" lon="5.75006">
        <ele>385.2</ele>
        <time>2024-06-12T09:55:01Z</time>
      </trkpt>
      <trkpt lat="43.25658" lon="5.74999">
        <ele>385.2</ele>
        <time>2024-06-12T09:55:02Z</time>
      </trkpt>
      <trkpt lat="43.25656" lon="5.74997">
        <ele>385.4</ele>
        <time>2024-06-12T09:55:03Z</time>
      </trkpt>
      <trkpt lat="43.25653" lon="5.74993">
        <ele>385.4</ele>
        <time>2024-06-12T09:55:04Z</time>
      </trkpt>
      <trkpt lat="43.25647" lon="5.74987">
        <ele>385.4</ele>
        <time>2024-06-12T09:55:05Z</time>
      </trkpt>
      <trkpt lat="43.25645" lon="5.74986">
        <ele>385.4</ele>
        <time>2024-06-12T09:55:06Z</time>
      </trkpt>
      <trkpt lat="43.25638" lon="5.74985">
        <ele>385.4</ele>
        <time>2024-06-12T09:55:07Z</time>
      </trkpt>
      <trkpt lat="43.25636" lon="5.74985">
        <ele>385.4</ele>
        <time>2024-06-12T09:55:08Z</time>
      </trkpt>
      <trkpt lat="43.25629" lon="5.74988">
        <ele>385.4</ele>
        <time>2024-06-12T09:55:09Z</time>
      </trkpt>
      <trkpt lat="43.25627" lon="5.74989">
        <ele>385.4</ele>
        <time>2024-06-12T09:55:10Z</time>
      </trkpt>
      <trkpt lat="43.2562" lon="5.74995">
        <ele>385.6</ele>
        <time>2024-06-12T09:55:11Z</time>
      </trkpt>
      <trkpt lat="43.25618" lon="5.74997">
        <ele>385.8</ele>
        <time>2024-06-12T09:55:12Z</time>
      </trkpt>
      <trkpt lat="43.25614" lon="5.75002">
        <ele>385.8</ele>
        <time>2024-06-12T09:55:13Z</time>
      </trkpt>
      <trkpt lat="43.25609" lon="5.75009">
        <ele>385.8</ele>
        <time>2024-06-12T09:55:14Z</time>
      </trkpt>
      <trkpt lat="43.25607" lon="5.75012">
        <ele>385.8</ele>
        <time>2024-06-12T09:55:15Z</time>
      </trkpt>
      <trkpt lat="43.25601" lon="5.75019">
        <ele>385.8</ele>
        <time>2024-06-12T09:55:16Z</time>
      </trkpt>
      <trkpt lat="43.25599" lon="5.75021">
        <ele>385.8</ele>
        <time>2024-06-12T09:55:17Z</time>
      </trkpt>
      <trkpt lat="43.25593" lon="5.75029">
        <ele>385.8</ele>
        <time>2024-06-12T09:55:18Z</time>
      </trkpt>
      <trkpt lat="43.25592" lon="5.75031">
        <ele>385.8</ele>
        <time>2024-06-12T09:55:19Z</time>
      </trkpt>
      <trkpt lat="43.25586" lon="5.75039">
        <ele>385.8</ele>
        <time>2024-06-12T09:55:20Z</time>
      </trkpt>
      <trkpt lat="43.25584" lon="5.75042">
        <ele>386</ele>
        <time>2024-06-12T09:55:21Z</time>
      </trkpt>
      <trkpt lat="43.25578" lon="5.7505">
        <ele>386</ele>
        <time>2024-06-12T09:55:22Z</time>
      </trkpt>
      <trkpt lat="43.25576" lon="5.75052">
        <ele>386</ele>
        <time>2024-06-12T09:55:23Z</time>
      </trkpt>
      <trkpt lat="43.25573" lon="5.75058">
        <ele>386</ele>
        <time>2024-06-12T09:55:24Z</time>
      </trkpt>
      <trkpt lat="43.25567" lon="5.75065">
        <ele>386</ele>
        <time>2024-06-12T09:55:25Z</time>
      </trkpt>
      <trkpt lat="43.25565" lon="5.75068">
        <ele>386.2</ele>
        <time>2024-06-12T09:55:26Z</time>
      </trkpt>
      <trkpt lat="43.25559" lon="5.75076">
        <ele>386.2</ele>
        <time>2024-06-12T09:55:27Z</time>
      </trkpt>
      <trkpt lat="43.25558" lon="5.75078">
        <ele>386.2</ele>
        <time>2024-06-12T09:55:28Z</time>
      </trkpt>
      <trkpt lat="43.25552" lon="5.75086">
        <ele>386.2</ele>
        <time>2024-06-12T09:55:29Z</time>
      </trkpt>
      <trkpt lat="43.2555" lon="5.75089">
        <ele>386.2</ele>
        <time>2024-06-12T09:55:30Z</time>
      </trkpt>
      <trkpt lat="43.25545" lon="5.75094">
        <ele>386.2</ele>
        <time>2024-06-12T09:55:31Z</time>
      </trkpt>
      <trkpt lat="43.25541" lon="5.75099">
        <ele>386.2</ele>
        <time>2024-06-12T09:55:32Z</time>
      </trkpt>
      <trkpt lat="43.25537" lon="5.75104">
        <ele>386</ele>
        <time>2024-06-12T09:55:33Z</time>
      </trkpt>
      <trkpt lat="43.25532" lon="5.7511">
        <ele>385.8</ele>
        <time>2024-06-12T09:55:34Z</time>
      </trkpt>
      <trkpt lat="43.25528" lon="5.75115">
        <ele>385.8</ele>
        <time>2024-06-12T09:55:35Z</time>
      </trkpt>
      <trkpt lat="43.25524" lon="5.75121">
        <ele>385.8</ele>
        <time>2024-06-12T09:55:36Z</time>
      </trkpt>
      <trkpt lat="43.2552" lon="5.75127">
        <ele>385.8</ele>
        <time>2024-06-12T09:55:37Z</time>
      </trkpt>
      <trkpt lat="43.25515" lon="5.75132">
        <ele>386</ele>
        <time>2024-06-12T09:55:38Z</time>
      </trkpt>
      <trkpt lat="43.25511" lon="5.75138">
        <ele>386</ele>
        <time>2024-06-12T09:55:39Z</time>
      </trkpt>
      <trkpt lat="43.25507" lon="5.75144">
        <ele>386</ele>
        <time>2024-06-12T09:55:40Z</time>
      </trkpt>
      <trkpt lat="43.25501" lon="5.75152">
        <ele>386</ele>
        <time>2024-06-12T09:55:41Z</time>
      </trkpt>
      <trkpt lat="43.25499" lon="5.75155">
        <ele>386</ele>
        <time>2024-06-12T09:55:42Z</time>
      </trkpt>
      <trkpt lat="43.25492" lon="5.75163">
        <ele>386</ele>
        <time>2024-06-12T09:55:43Z</time>
      </trkpt>
      <trkpt lat="43.2549" lon="5.75166">
        <ele>386</ele>
        <time>2024-06-12T09:55:44Z</time>
      </trkpt>
      <trkpt lat="43.25484" lon="5.75174">
        <ele>386</ele>
        <time>2024-06-12T09:55:45Z</time>
      </trkpt>
      <trkpt lat="43.25482" lon="5.75177">
        <ele>386</ele>
        <time>2024-06-12T09:55:46Z</time>
      </trkpt>
      <trkpt lat="43.25476" lon="5.75185">
        <ele>386.2</ele>
        <time>2024-06-12T09:55:47Z</time>
      </trkpt>
      <trkpt lat="43.25474" lon="5.75187">
        <ele>386.2</ele>
        <time>2024-06-12T09:55:48Z</time>
      </trkpt>
      <trkpt lat="43.25468" lon="5.75195">
        <ele>386.2</ele>
        <time>2024-06-12T09:55:49Z</time>
      </trkpt>
      <trkpt lat="43.25466" lon="5.75198">
        <ele>386.2</ele>
        <time>2024-06-12T09:55:50Z</time>
      </trkpt>
      <trkpt lat="43.2546" lon="5.75205">
        <ele>386.6</ele>
        <time>2024-06-12T09:55:51Z</time>
      </trkpt>
      <trkpt lat="43.25458" lon="5.75208">
        <ele>386.8</ele>
        <time>2024-06-12T09:55:52Z</time>
      </trkpt>
      <trkpt lat="43.25454" lon="5.75213">
        <ele>386.8</ele>
        <time>2024-06-12T09:55:53Z</time>
      </trkpt>
      <trkpt lat="43.25448" lon="5.75221">
        <ele>386.8</ele>
        <time>2024-06-12T09:55:54Z</time>
      </trkpt>
      <trkpt lat="43.25446" lon="5.75224">
        <ele>387</ele>
        <time>2024-06-12T09:55:55Z</time>
      </trkpt>
      <trkpt lat="43.25439" lon="5.75232">
        <ele>387</ele>
        <time>2024-06-12T09:55:56Z</time>
      </trkpt>
      <trkpt lat="43.25437" lon="5.75235">
        <ele>387</ele>
        <time>2024-06-12T09:55:57Z</time>
      </trkpt>
      <trkpt lat="43.2543" lon="5.75244">
        <ele>387</ele>
        <time>2024-06-12T09:55:58Z</time>
      </trkpt>
      <trkpt lat="43.25428" lon="5.75247">
        <ele>387</ele>
        <time>2024-06-12T09:55:59Z</time>
      </trkpt>
      <trkpt lat="43.25422" lon="5.75257">
        <ele>387</ele>
        <time>2024-06-12T09:56:00Z</time>
      </trkpt>
      <trkpt lat="43.25419" lon="5.7526">
        <ele>387</ele>
        <time>2024-06-12T09:56:01Z</time>
      </trkpt>
      <trkpt lat="43.25413" lon="5.7527">
        <ele>386.6</ele>
        <time>2024-06-12T09:56:02Z</time>
      </trkpt>
      <trkpt lat="43.2541" lon="5.75273">
        <ele>386.6</ele>
        <time>2024-06-12T09:56:03Z</time>
      </trkpt>
      <trkpt lat="43.25406" lon="5.75279">
        <ele>386.6</ele>
        <time>2024-06-12T09:56:04Z</time>
      </trkpt>
      <trkpt lat="43.25401" lon="5.75285">
        <ele>386.4</ele>
        <time>2024-06-12T09:56:05Z</time>
      </trkpt>
      <trkpt lat="43.25396" lon="5.75292">
        <ele>386.2</ele>
        <time>2024-06-12T09:56:06Z</time>
      </trkpt>
      <trkpt lat="43.25389" lon="5.75302">
        <ele>386.2</ele>
        <time>2024-06-12T09:56:07Z</time>
      </trkpt>
      <trkpt lat="43.25386" lon="5.75306">
        <ele>386.2</ele>
        <time>2024-06-12T09:56:08Z</time>
      </trkpt>
      <trkpt lat="43.25378" lon="5.75317">
        <ele>386.2</ele>
        <time>2024-06-12T09:56:09Z</time>
      </trkpt>
      <trkpt lat="43.25376" lon="5.7532">
        <ele>385.4</ele>
        <time>2024-06-12T09:56:10Z</time>
      </trkpt>
      <trkpt lat="43.2537" lon="5.75328">
        <ele>385.8</ele>
        <time>2024-06-12T09:56:11Z</time>
      </trkpt>
      <trkpt lat="43.25365" lon="5.75335">
        <ele>385.8</ele>
        <time>2024-06-12T09:56:12Z</time>
      </trkpt>
      <trkpt lat="43.2536" lon="5.75343">
        <ele>385.8</ele>
        <time>2024-06-12T09:56:13Z</time>
      </trkpt>
      <trkpt lat="43.25354" lon="5.75351">
        <ele>385</ele>
        <time>2024-06-12T09:56:14Z</time>
      </trkpt>
      <trkpt lat="43.25349" lon="5.75358">
        <ele>385</ele>
        <time>2024-06-12T09:56:15Z</time>
      </trkpt>
      <trkpt lat="43.25343" lon="5.75365">
        <ele>385</ele>
        <time>2024-06-12T09:56:16Z</time>
      </trkpt>
      <trkpt lat="43.25338" lon="5.75373">
        <ele>385</ele>
        <time>2024-06-12T09:56:17Z</time>
      </trkpt>
      <trkpt lat="43.25333" lon="5.75379">
        <ele>385</ele>
        <time>2024-06-12T09:56:18Z</time>
      </trkpt>
      <trkpt lat="43.25327" lon="5.75386">
        <ele>385</ele>
        <time>2024-06-12T09:56:19Z</time>
      </trkpt>
      <trkpt lat="43.25322" lon="5.75393">
        <ele>385</ele>
        <time>2024-06-12T09:56:20Z</time>
      </trkpt>
      <trkpt lat="43.25317" lon="5.75399">
        <ele>385</ele>
        <time>2024-06-12T09:56:21Z</time>
      </trkpt>
      <trkpt lat="43.25311" lon="5.75405">
        <ele>385</ele>
        <time>2024-06-12T09:56:22Z</time>
      </trkpt>
      <trkpt lat="43.25303" lon="5.75412">
        <ele>385.4</ele>
        <time>2024-06-12T09:56:23Z</time>
      </trkpt>
      <trkpt lat="43.253" lon="5.75415">
        <ele>385.4</ele>
        <time>2024-06-12T09:56:24Z</time>
      </trkpt>
      <trkpt lat="43.25291" lon="5.75423">
        <ele>385.4</ele>
        <time>2024-06-12T09:56:25Z</time>
      </trkpt>
      <trkpt lat="43.25288" lon="5.75426">
        <ele>385.4</ele>
        <time>2024-06-12T09:56:26Z</time>
      </trkpt>
      <trkpt lat="43.25279" lon="5.75434">
        <ele>385.4</ele>
        <time>2024-06-12T09:56:27Z</time>
      </trkpt>
      <trkpt lat="43.25277" lon="5.75436">
        <ele>385.4</ele>
        <time>2024-06-12T09:56:28Z</time>
      </trkpt>
      <trkpt lat="43.25268" lon="5.75444">
        <ele>385.4</ele>
        <time>2024-06-12T09:56:29Z</time>
      </trkpt>
      <trkpt lat="43.25265" lon="5.75447">
        <ele>385.4</ele>
        <time>2024-06-12T09:56:30Z</time>
      </trkpt>
      <trkpt lat="43.25257" lon="5.75455">
        <ele>385.4</ele>
        <time>2024-06-12T09:56:31Z</time>
      </trkpt>
      <trkpt lat="43.25254" lon="5.75457">
        <ele>385.4</ele>
        <time>2024-06-12T09:56:32Z</time>
      </trkpt>
      <trkpt lat="43.25245" lon="5.75465">
        <ele>385.4</ele>
        <time>2024-06-12T09:56:33Z</time>
      </trkpt>
      <trkpt lat="43.25243" lon="5.75468">
        <ele>385.4</ele>
        <time>2024-06-12T09:56:34Z</time>
      </trkpt>
      <trkpt lat="43.25234" lon="5.75476">
        <ele>385.4</ele>
        <time>2024-06-12T09:56:35Z</time>
      </trkpt>
      <trkpt lat="43.25231" lon="5.75479">
        <ele>385.2</ele>
        <time>2024-06-12T09:56:36Z</time>
      </trkpt>
      <trkpt lat="43.25225" lon="5.75485">
        <ele>385.2</ele>
        <time>2024-06-12T09:56:37Z</time>
      </trkpt>
      <trkpt lat="43.25219" lon="5.7549">
        <ele>385</ele>
        <time>2024-06-12T09:56:38Z</time>
      </trkpt>
      <trkpt lat="43.25213" lon="5.75496">
        <ele>385</ele>
        <time>2024-06-12T09:56:39Z</time>
      </trkpt>
      <trkpt lat="43.25207" lon="5.75501">
        <ele>384.6</ele>
        <time>2024-06-12T09:56:40Z</time>
      </trkpt>
      <trkpt lat="43.25201" lon="5.75507">
        <ele>384.4</ele>
        <time>2024-06-12T09:56:41Z</time>
      </trkpt>
      <trkpt lat="43.25195" lon="5.75513">
        <ele>384.4</ele>
        <time>2024-06-12T09:56:42Z</time>
      </trkpt>
      <trkpt lat="43.25189" lon="5.75519">
        <ele>384.4</ele>
        <time>2024-06-12T09:56:43Z</time>
      </trkpt>
      <trkpt lat="43.25182" lon="5.75525">
        <ele>384.4</ele>
        <time>2024-06-12T09:56:44Z</time>
      </trkpt>
      <trkpt lat="43.25176" lon="5.75532">
        <ele>384.4</ele>
        <time>2024-06-12T09:56:45Z</time>
      </trkpt>
      <trkpt lat="43.25165" lon="5.75542">
        <ele>383.8</ele>
        <time>2024-06-12T09:56:46Z</time>
      </trkpt>
      <trkpt lat="43.25161" lon="5.75546">
        <ele>383.4</ele>
        <time>2024-06-12T09:56:47Z</time>
      </trkpt>
      <trkpt lat="43.25154" lon="5.75553">
        <ele>383.4</ele>
        <time>2024-06-12T09:56:48Z</time>
      </trkpt>
      <trkpt lat="43.25142" lon="5.75564">
        <ele>383.4</ele>
        <time>2024-06-12T09:56:49Z</time>
      </trkpt>
      <trkpt lat="43.25138" lon="5.75568">
        <ele>382.4</ele>
        <time>2024-06-12T09:56:50Z</time>
      </trkpt>
      <trkpt lat="43.25127" lon="5.75581">
        <ele>382</ele>
        <time>2024-06-12T09:56:51Z</time>
      </trkpt>
      <trkpt lat="43.25123" lon="5.75585">
        <ele>382</ele>
        <time>2024-06-12T09:56:52Z</time>
      </trkpt>
      <trkpt lat="43.25116" lon="5.75594">
        <ele>382</ele>
        <time>2024-06-12T09:56:53Z</time>
      </trkpt>
      <trkpt lat="43.25108" lon="5.75604">
        <ele>381.2</ele>
        <time>2024-06-12T09:56:54Z</time>
      </trkpt>
      <trkpt lat="43.25101" lon="5.75613">
        <ele>380.6</ele>
        <time>2024-06-12T09:56:55Z</time>
      </trkpt>
      <trkpt lat="43.2509" lon="5.75628">
        <ele>380.6</ele>
        <time>2024-06-12T09:56:56Z</time>
      </trkpt>
      <trkpt lat="43.25086" lon="5.75633">
        <ele>380.6</ele>
        <time>2024-06-12T09:56:57Z</time>
      </trkpt>
      <trkpt lat="43.25079" lon="5.75643">
        <ele>380.6</ele>
        <time>2024-06-12T09:56:58Z</time>
      </trkpt>
      <trkpt lat="43.25071" lon="5.75652">
        <ele>379.6</ele>
        <time>2024-06-12T09:56:59Z</time>
      </trkpt>
      <trkpt lat="43.25063" lon="5.75662">
        <ele>379</ele>
        <time>2024-06-12T09:57:00Z</time>
      </trkpt>
      <trkpt lat="43.25056" lon="5.75671">
        <ele>379</ele>
        <time>2024-06-12T09:57:01Z</time>
      </trkpt>
      <trkpt lat="43.25047" lon="5.75681">
        <ele>379</ele>
        <time>2024-06-12T09:57:02Z</time>
      </trkpt>
      <trkpt lat="43.25039" lon="5.7569">
        <ele>378</ele>
        <time>2024-06-12T09:57:03Z</time>
      </trkpt>
      <trkpt lat="43.2503" lon="5.757">
        <ele>376.8</ele>
        <time>2024-06-12T09:57:04Z</time>
      </trkpt>
      <trkpt lat="43.25016" lon="5.75714">
        <ele>376.8</ele>
        <time>2024-06-12T09:57:05Z</time>
      </trkpt>
      <trkpt lat="43.25012" lon="5.75719">
        <ele>376.8</ele>
        <time>2024-06-12T09:57:06Z</time>
      </trkpt>
      <trkpt lat="43.25003" lon="5.75729">
        <ele>375.8</ele>
        <time>2024-06-12T09:57:07Z</time>
      </trkpt>
      <trkpt lat="43.24988" lon="5.75744">
        <ele>374.4</ele>
        <time>2024-06-12T09:57:08Z</time>
      </trkpt>
      <trkpt lat="43.24983" lon="5.7575">
        <ele>374.4</ele>
        <time>2024-06-12T09:57:09Z</time>
      </trkpt>
      <trkpt lat="43.24969" lon="5.75766">
        <ele>374.4</ele>
        <time>2024-06-12T09:57:10Z</time>
      </trkpt>
      <trkpt lat="43.24964" lon="5.75771">
        <ele>374.4</ele>
        <time>2024-06-12T09:57:11Z</time>
      </trkpt>
      <trkpt lat="43.24949" lon="5.75788">
        <ele>373.4</ele>
        <time>2024-06-12T09:57:12Z</time>
      </trkpt>
      <trkpt lat="43.24944" lon="5.75794">
        <ele>371</ele>
        <time>2024-06-12T09:57:13Z</time>
      </trkpt>
      <trkpt lat="43.24929" lon="5.75811">
        <ele>371</ele>
        <time>2024-06-12T09:57:14Z</time>
      </trkpt>
      <trkpt lat="43.24924" lon="5.75817">
        <ele>371</ele>
        <time>2024-06-12T09:57:15Z</time>
      </trkpt>
      <trkpt lat="43.24909" lon="5.75834">
        <ele>370</ele>
        <time>2024-06-12T09:57:16Z</time>
      </trkpt>
      <trkpt lat="43.24905" lon="5.75839">
        <ele>368</ele>
        <time>2024-06-12T09:57:17Z</time>
      </trkpt>
      <trkpt lat="43.2489" lon="5.75855">
        <ele>368</ele>
        <time>2024-06-12T09:57:18Z</time>
      </trkpt>
      <trkpt lat="43.24885" lon="5.7586">
        <ele>368</ele>
        <time>2024-06-12T09:57:19Z</time>
      </trkpt>
      <trkpt lat="43.24875" lon="5.75871">
        <ele>367</ele>
        <time>2024-06-12T09:57:20Z</time>
      </trkpt>
      <trkpt lat="43.2486" lon="5.75885">
        <ele>367</ele>
        <time>2024-06-12T09:57:21Z</time>
      </trkpt>
      <trkpt lat="43.24854" lon="5.7589">
        <ele>365</ele>
        <time>2024-06-12T09:57:22Z</time>
      </trkpt>
      <trkpt lat="43.24844" lon="5.75899">
        <ele>365</ele>
        <time>2024-06-12T09:57:23Z</time>
      </trkpt>
      <trkpt lat="43.24832" lon="5.75908">
        <ele>365</ele>
        <time>2024-06-12T09:57:24Z</time>
      </trkpt>
      <trkpt lat="43.24822" lon="5.75916">
        <ele>365</ele>
        <time>2024-06-12T09:57:25Z</time>
      </trkpt>
      <trkpt lat="43.24811" lon="5.75924">
        <ele>364</ele>
        <time>2024-06-12T09:57:26Z</time>
      </trkpt>
      <trkpt lat="43.24801" lon="5.75935">
        <ele>361</ele>
        <time>2024-06-12T09:57:27Z</time>
      </trkpt>
      <trkpt lat="43.24792" lon="5.75945">
        <ele>361</ele>
        <time>2024-06-12T09:57:28Z</time>
      </trkpt>
      <trkpt lat="43.24783" lon="5.75956">
        <ele>361</ele>
        <time>2024-06-12T09:57:29Z</time>
      </trkpt>
      <trkpt lat="43.2477" lon="5.75973">
        <ele>360</ele>
        <time>2024-06-12T09:57:30Z</time>
      </trkpt>
      <trkpt lat="43.24766" lon="5.75978">
        <ele>360</ele>
        <time>2024-06-12T09:57:31Z</time>
      </trkpt>
      <trkpt lat="43.24754" lon="5.75995">
        <ele>357.8</ele>
        <time>2024-06-12T09:57:32Z</time>
      </trkpt>
      <trkpt lat="43.2475" lon="5.76001">
        <ele>357.8</ele>
        <time>2024-06-12T09:57:33Z</time>
      </trkpt>
      <trkpt lat="43.24737" lon="5.76018">
        <ele>357.8</ele>
        <time>2024-06-12T09:57:34Z</time>
      </trkpt>
      <trkpt lat="43.24733" lon="5.76024">
        <ele>356.8</ele>
        <time>2024-06-12T09:57:35Z</time>
      </trkpt>
      <trkpt lat="43.24725" lon="5.76035">
        <ele>354.8</ele>
        <time>2024-06-12T09:57:36Z</time>
      </trkpt>
      <trkpt lat="43.24717" lon="5.76046">
        <ele>354.8</ele>
        <time>2024-06-12T09:57:37Z</time>
      </trkpt>
      <trkpt lat="43.24709" lon="5.76057">
        <ele>354.8</ele>
        <time>2024-06-12T09:57:38Z</time>
      </trkpt>
      <trkpt lat="43.247" lon="5.76068">
        <ele>353.8</ele>
        <time>2024-06-12T09:57:39Z</time>
      </trkpt>
      <trkpt lat="43.24691" lon="5.76078">
        <ele>351</ele>
        <time>2024-06-12T09:57:40Z</time>
      </trkpt>
      <trkpt lat="43.24682" lon="5.76089">
        <ele>351</ele>
        <time>2024-06-12T09:57:41Z</time>
      </trkpt>
      <trkpt lat="43.24673" lon="5.76098">
        <ele>351</ele>
        <time>2024-06-12T09:57:42Z</time>
      </trkpt>
      <trkpt lat="43.24663" lon="5.76108">
        <ele>350</ele>
        <time>2024-06-12T09:57:43Z</time>
      </trkpt>
      <trkpt lat="43.24654" lon="5.76119">
        <ele>347.8</ele>
        <time>2024-06-12T09:57:44Z</time>
      </trkpt>
      <trkpt lat="43.24644" lon="5.76129">
        <ele>347.8</ele>
        <time>2024-06-12T09:57:45Z</time>
      </trkpt>
      <trkpt lat="43.24635" lon="5.7614">
        <ele>347.8</ele>
        <time>2024-06-12T09:57:46Z</time>
      </trkpt>
      <trkpt lat="43.24622" lon="5.76157">
        <ele>347.8</ele>
        <time>2024-06-12T09:57:47Z</time>
      </trkpt>
      <trkpt lat="43.24618" lon="5.76163">
        <ele>346.8</ele>
        <time>2024-06-12T09:57:48Z</time>
      </trkpt>
      <trkpt lat="43.24607" lon="5.76182">
        <ele>342.8</ele>
        <time>2024-06-12T09:57:49Z</time>
      </trkpt>
      <trkpt lat="43.24604" lon="5.76189">
        <ele>342.8</ele>
        <time>2024-06-12T09:57:50Z</time>
      </trkpt>
      <trkpt lat="43.24598" lon="5.76203">
        <ele>342.8</ele>
        <time>2024-06-12T09:57:51Z</time>
      </trkpt>
      <trkpt lat="43.24591" lon="5.76217">
        <ele>341.8</ele>
        <time>2024-06-12T09:57:52Z</time>
      </trkpt>
      <trkpt lat="43.24584" lon="5.7623">
        <ele>338.4</ele>
        <time>2024-06-12T09:57:53Z</time>
      </trkpt>
      <trkpt lat="43.24569" lon="5.76244">
        <ele>338.4</ele>
        <time>2024-06-12T09:57:54Z</time>
      </trkpt>
      <trkpt lat="43.24563" lon="5.76248">
        <ele>338.4</ele>
        <time>2024-06-12T09:57:55Z</time>
      </trkpt>
      <trkpt lat="43.24546" lon="5.76256">
        <ele>338.4</ele>
        <time>2024-06-12T09:57:56Z</time>
      </trkpt>
      <trkpt lat="43.2454" lon="5.76258">
        <ele>338.4</ele>
        <time>2024-06-12T09:57:57Z</time>
      </trkpt>
      <trkpt lat="43.24521" lon="5.76264">
        <ele>335.2</ele>
        <time>2024-06-12T09:57:58Z</time>
      </trkpt>
      <trkpt lat="43.24515" lon="5.76266">
        <ele>335.2</ele>
        <time>2024-06-12T09:57:59Z</time>
      </trkpt>
      <trkpt lat="43.24503" lon="5.7627">
        <ele>335.2</ele>
        <time>2024-06-12T09:58:00Z</time>
      </trkpt>
      <trkpt lat="43.2449" lon="5.76273">
        <ele>334.2</ele>
        <time>2024-06-12T09:58:01Z</time>
      </trkpt>
      <trkpt lat="43.24477" lon="5.76277">
        <ele>330.6</ele>
        <time>2024-06-12T09:58:02Z</time>
      </trkpt>
      <trkpt lat="43.24464" lon="5.76281">
        <ele>330.6</ele>
        <time>2024-06-12T09:58:03Z</time>
      </trkpt>
      <trkpt lat="43.24451" lon="5.76285">
        <ele>330.6</ele>
        <time>2024-06-12T09:58:04Z</time>
      </trkpt>
      <trkpt lat="43.24437" lon="5.76288">
        <ele>329.6</ele>
        <time>2024-06-12T09:58:05Z</time>
      </trkpt>
      <trkpt lat="43.24416" lon="5.76294">
        <ele>325.8</ele>
        <time>2024-06-12T09:58:06Z</time>
      </trkpt>
      <trkpt lat="43.2441" lon="5.76296">
        <ele>325.8</ele>
        <time>2024-06-12T09:58:07Z</time>
      </trkpt>
      <trkpt lat="43.24389" lon="5.76303">
        <ele>325.8</ele>
        <time>2024-06-12T09:58:08Z</time>
      </trkpt>
      <trkpt lat="43.24382" lon="5.76305">
        <ele>325.8</ele>
        <time>2024-06-12T09:58:09Z</time>
      </trkpt>
      <trkpt lat="43.24362" lon="5.76313">
        <ele>324.8</ele>
        <time>2024-06-12T09:58:10Z</time>
      </trkpt>
      <trkpt lat="43.24355" lon="5.76316">
        <ele>321.4</ele>
        <time>2024-06-12T09:58:11Z</time>
      </trkpt>
      <trkpt lat="43.24335" lon="5.76325">
        <ele>321.4</ele>
        <time>2024-06-12T09:58:12Z</time>
      </trkpt>
      <trkpt lat="43.24329" lon="5.76329">
        <ele>321.4</ele>
        <time>2024-06-12T09:58:13Z</time>
      </trkpt>
      <trkpt lat="43.24316" lon="5.76335">
        <ele>321.4</ele>
        <time>2024-06-12T09:58:14Z</time>
      </trkpt>
      <trkpt lat="43.24304" lon="5.76339">
        <ele>320.4</ele>
        <time>2024-06-12T09:58:15Z</time>
      </trkpt>
      <trkpt lat="43.24286" lon="5.76344">
        <ele>314.6</ele>
        <time>2024-06-12T09:58:16Z</time>
      </trkpt>
      <trkpt lat="43.2428" lon="5.76344">
        <ele>314.6</ele>
        <time>2024-06-12T09:58:17Z</time>
      </trkpt>
      <trkpt lat="43.24262" lon="5.76339">
        <ele>314.6</ele>
        <time>2024-06-12T09:58:18Z</time>
      </trkpt>
      <trkpt lat="43.24257" lon="5.76335">
        <ele>313.6</ele>
        <time>2024-06-12T09:58:19Z</time>
      </trkpt>
      <trkpt lat="43.24246" lon="5.76328">
        <ele>309.4</ele>
        <time>2024-06-12T09:58:20Z</time>
      </trkpt>
      <trkpt lat="43.24235" lon="5.76321">
        <ele>309.4</ele>
        <time>2024-06-12T09:58:21Z</time>
      </trkpt>
      <trkpt lat="43.24224" lon="5.76317">
        <ele>309.4</ele>
        <time>2024-06-12T09:58:22Z</time>
      </trkpt>
      <trkpt lat="43.24212" lon="5.76317">
        <ele>308.4</ele>
        <time>2024-06-12T09:58:23Z</time>
      </trkpt>
      <trkpt lat="43.242" lon="5.76319">
        <ele>308.4</ele>
        <time>2024-06-12T09:58:24Z</time>
      </trkpt>
      <trkpt lat="43.24188" lon="5.76321">
        <ele>303.8</ele>
        <time>2024-06-12T09:58:25Z</time>
      </trkpt>
      <trkpt lat="43.24175" lon="5.76323">
        <ele>303.8</ele>
        <time>2024-06-12T09:58:26Z</time>
      </trkpt>
      <trkpt lat="43.24162" lon="5.76323">
        <ele>303.8</ele>
        <time>2024-06-12T09:58:27Z</time>
      </trkpt>
      <trkpt lat="43.24143" lon="5.7632">
        <ele>302.8</ele>
        <time>2024-06-12T09:58:28Z</time>
      </trkpt>
      <trkpt lat="43.24136" lon="5.76318">
        <ele>299</ele>
        <time>2024-06-12T09:58:29Z</time>
      </trkpt>
      <trkpt lat="43.24117" lon="5.76311">
        <ele>299</ele>
        <time>2024-06-12T09:58:30Z</time>
      </trkpt>
      <trkpt lat="43.24111" lon="5.76308">
        <ele>299</ele>
        <time>2024-06-12T09:58:31Z</time>
      </trkpt>
      <trkpt lat="43.24091" lon="5.76304">
        <ele>298</ele>
        <time>2024-06-12T09:58:32Z</time>
      </trkpt>
      <trkpt lat="43.24084" lon="5.76304">
        <ele>292.6</ele>
        <time>2024-06-12T09:58:33Z</time>
      </trkpt>
      <trkpt lat="43.24064" lon="5.76307">
        <ele>292.6</ele>
        <time>2024-06-12T09:58:34Z</time>
      </trkpt>
      <trkpt lat="43.24058" lon="5.7631">
        <ele>292.6</ele>
        <time>2024-06-12T09:58:35Z</time>
      </trkpt>
      <trkpt lat="43.24039" lon="5.76319">
        <ele>292.6</ele>
        <time>2024-06-12T09:58:36Z</time>
      </trkpt>
      <trkpt lat="43.24032" lon="5.76323">
        <ele>291.6</ele>
        <time>2024-06-12T09:58:37Z</time>
      </trkpt>
      <trkpt lat="43.24013" lon="5.76334">
        <ele>287.2</ele>
        <time>2024-06-12T09:58:38Z</time>
      </trkpt>
      <trkpt lat="43.24007" lon="5.76338">
        <ele>287.2</ele>
        <time>2024-06-12T09:58:39Z</time>
      </trkpt>
      <trkpt lat="43.23988" lon="5.76351">
        <ele>287.2</ele>
        <time>2024-06-12T09:58:40Z</time>
      </trkpt>
      <trkpt lat="43.23981" lon="5.76355">
        <ele>286.2</ele>
        <time>2024-06-12T09:58:41Z</time>
      </trkpt>
      <trkpt lat="43.23969" lon="5.76363">
        <ele>281</ele>
        <time>2024-06-12T09:58:42Z</time>
      </trkpt>
      <trkpt lat="43.2395" lon="5.76376">
        <ele>281</ele>
        <time>2024-06-12T09:58:43Z</time>
      </trkpt>
      <trkpt lat="43.23943" lon="5.7638">
        <ele>281</ele>
        <time>2024-06-12T09:58:44Z</time>
      </trkpt>
      <trkpt lat="43.23924" lon="5.76393">
        <ele>280</ele>
        <time>2024-06-12T09:58:45Z</time>
      </trkpt>
      <trkpt lat="43.23917" lon="5.76397">
        <ele>277</ele>
        <time>2024-06-12T09:58:46Z</time>
      </trkpt>
      <trkpt lat="43.23896" lon="5.76408">
        <ele>277</ele>
        <time>2024-06-12T09:58:47Z</time>
      </trkpt>
      <trkpt lat="43.23889" lon="5.76412">
        <ele>277</ele>
        <time>2024-06-12T09:58:48Z</time>
      </trkpt>
      <trkpt lat="43.23868" lon="5.76423">
        <ele>277</ele>
        <time>2024-06-12T09:58:49Z</time>
      </trkpt>
      <trkpt lat="43.23861" lon="5.76427">
        <ele>277</ele>
        <time>2024-06-12T09:58:50Z</time>
      </trkpt>
      <trkpt lat="43.23839" lon="5.76439">
        <ele>276</ele>
        <time>2024-06-12T09:58:51Z</time>
      </trkpt>
      <trkpt lat="43.23831" lon="5.76443">
        <ele>269.6</ele>
        <time>2024-06-12T09:58:52Z</time>
      </trkpt>
      <trkpt lat="43.23817" lon="5.76451">
        <ele>269.6</ele>
        <time>2024-06-12T09:58:53Z</time>
      </trkpt>
      <trkpt lat="43.23802" lon="5.7646">
        <ele>269.6</ele>
        <time>2024-06-12T09:58:54Z</time>
      </trkpt>
      <trkpt lat="43.23782" lon="5.76476">
        <ele>268.6</ele>
        <time>2024-06-12T09:58:55Z</time>
      </trkpt>
      <trkpt lat="43.23776" lon="5.76482">
        <ele>263.2</ele>
        <time>2024-06-12T09:58:56Z</time>
      </trkpt>
      <trkpt lat="43.23763" lon="5.76494">
        <ele>263.2</ele>
        <time>2024-06-12T09:58:57Z</time>
      </trkpt>
      <trkpt lat="43.23743" lon="5.76513">
        <ele>263.2</ele>
        <time>2024-06-12T09:58:58Z</time>
      </trkpt>
      <trkpt lat="43.23736" lon="5.76519">
        <ele>262.2</ele>
        <time>2024-06-12T09:58:59Z</time>
      </trkpt>
      <trkpt lat="43.23717" lon="5.76538">
        <ele>256.8</ele>
        <time>2024-06-12T09:59:00Z</time>
      </trkpt>
      <trkpt lat="43.2371" lon="5.76544">
        <ele>256.8</ele>
        <time>2024-06-12T09:59:01Z</time>
      </trkpt>
      <trkpt lat="43.23697" lon="5.76557">
        <ele>256.8</ele>
        <time>2024-06-12T09:59:02Z</time>
      </trkpt>
      <trkpt lat="43.23684" lon="5.76569">
        <ele>256.8</ele>
        <time>2024-06-12T09:59:03Z</time>
      </trkpt>
      <trkpt lat="43.2367" lon="5.76581">
        <ele>255.8</ele>
        <time>2024-06-12T09:59:04Z</time>
      </trkpt>
      <trkpt lat="43.23656" lon="5.76594">
        <ele>250</ele>
        <time>2024-06-12T09:59:05Z</time>
      </trkpt>
      <trkpt lat="43.23643" lon="5.76606">
        <ele>250</ele>
        <time>2024-06-12T09:59:06Z</time>
      </trkpt>
      <trkpt lat="43.23629" lon="5.76619">
        <ele>250</ele>
        <time>2024-06-12T09:59:07Z</time>
      </trkpt>
      <trkpt lat="43.23615" lon="5.76631">
        <ele>249</ele>
        <time>2024-06-12T09:59:08Z</time>
      </trkpt>
      <trkpt lat="43.23601" lon="5.76643">
        <ele>243</ele>
        <time>2024-06-12T09:59:09Z</time>
      </trkpt>
      <trkpt lat="43.23587" lon="5.76654">
        <ele>243</ele>
        <time>2024-06-12T09:59:10Z</time>
      </trkpt>
      <trkpt lat="43.23573" lon="5.76663">
        <ele>243</ele>
        <time>2024-06-12T09:59:11Z</time>
      </trkpt>
      <trkpt lat="43.23552" lon="5.76676">
        <ele>242</ele>
        <time>2024-06-12T09:59:12Z</time>
      </trkpt>
      <trkpt lat="43.23545" lon="5.76679">
        <ele>235.8</ele>
        <time>2024-06-12T09:59:13Z</time>
      </trkpt>
      <trkpt lat="43.23523" lon="5.76689">
        <ele>235.8</ele>
        <time>2024-06-12T09:59:14Z</time>
      </trkpt>
      <trkpt lat="43.23516" lon="5.76691">
        <ele>235.8</ele>
        <time>2024-06-12T09:59:15Z</time>
      </trkpt>
      <trkpt lat="43.23497" lon="5.76699">
        <ele>235.8</ele>
        <time>2024-06-12T09:59:16Z</time>
      </trkpt>
      <trkpt lat="43.23491" lon="5.76701">
        <ele>234.8</ele>
        <time>2024-06-12T09:59:17Z</time>
      </trkpt>
      <trkpt lat="43.23474" lon="5.76706">
        <ele>228.2</ele>
        <time>2024-06-12T09:59:18Z</time>
      </trkpt>
      <trkpt lat="43.23468" lon="5.76707">
        <ele>228.2</ele>
        <time>2024-06-12T09:59:19Z</time>
      </trkpt>
      <trkpt lat="43.23453" lon="5.76707">
        <ele>228.2</ele>
        <time>2024-06-12T09:59:20Z</time>
      </trkpt>
      <trkpt lat="43.23448" lon="5.76704">
        <ele>227.2</ele>
        <time>2024-06-12T09:59:21Z</time>
      </trkpt>
      <trkpt lat="43.23435" lon="5.76693">
        <ele>221.2</ele>
        <time>2024-06-12T09:59:22Z</time>
      </trkpt>
      <trkpt lat="43.23431" lon="5.76688">
        <ele>221.2</ele>
        <time>2024-06-12T09:59:23Z</time>
      </trkpt>
      <trkpt lat="43.2342" lon="5.7667">
        <ele>221.2</ele>
        <time>2024-06-12T09:59:24Z</time>
      </trkpt>
      <trkpt lat="43.23417" lon="5.76664">
        <ele>220.2</ele>
        <time>2024-06-12T09:59:25Z</time>
      </trkpt>
      <trkpt lat="43.23411" lon="5.76651">
        <ele>220.2</ele>
        <time>2024-06-12T09:59:26Z</time>
      </trkpt>
      <trkpt lat="43.23401" lon="5.76631">
        <ele>214.2</ele>
        <time>2024-06-12T09:59:27Z</time>
      </trkpt>
      <trkpt lat="43.23398" lon="5.76625">
        <ele>214.2</ele>
        <time>2024-06-12T09:59:28Z</time>
      </trkpt>
      <trkpt lat="43.23387" lon="5.76606">
        <ele>214.2</ele>
        <time>2024-06-12T09:59:29Z</time>
      </trkpt>
      <trkpt lat="43.23383" lon="5.76602">
        <ele>214.2</ele>
        <time>2024-06-12T09:59:30Z</time>
      </trkpt>
      <trkpt lat="43.23375" lon="5.76592">
        <ele>207.6</ele>
        <time>2024-06-12T09:59:31Z</time>
      </trkpt>
      <trkpt lat="43.23366" lon="5.76582">
        <ele>207.6</ele>
        <time>2024-06-12T09:59:32Z</time>
      </trkpt>
      <trkpt lat="43.23355" lon="5.76578">
        <ele>207.6</ele>
        <time>2024-06-12T09:59:33Z</time>
      </trkpt>
      <trkpt lat="43.23343" lon="5.76576">
        <ele>207.6</ele>
        <time>2024-06-12T09:59:34Z</time>
      </trkpt>
      <trkpt lat="43.23324" lon="5.76574">
        <ele>206.6</ele>
        <time>2024-06-12T09:59:35Z</time>
      </trkpt>
      <trkpt lat="43.23318" lon="5.76574">
        <ele>201.6</ele>
        <time>2024-06-12T09:59:36Z</time>
      </trkpt>
      <trkpt lat="43.23299" lon="5.76572">
        <ele>201.6</ele>
        <time>2024-06-12T09:59:37Z</time>
      </trkpt>
      <trkpt lat="43.23292" lon="5.76571">
        <ele>201.6</ele>
        <time>2024-06-12T09:59:38Z</time>
      </trkpt>
      <trkpt lat="43.23273" lon="5.76568">
        <ele>201.6</ele>
        <time>2024-06-12T09:59:39Z</time>
      </trkpt>
      <trkpt lat="43.23267" lon="5.76568">
        <ele>200.6</ele>
        <time>2024-06-12T09:59:40Z</time>
      </trkpt>
      <trkpt lat="43.23248" lon="5.76565">
        <ele>194.8</ele>
        <time>2024-06-12T09:59:41Z</time>
      </trkpt>
      <trkpt lat="43.23241" lon="5.76565">
        <ele>194.8</ele>
        <time>2024-06-12T09:59:42Z</time>
      </trkpt>
      <trkpt lat="43.23229" lon="5.76563">
        <ele>194.8</ele>
        <time>2024-06-12T09:59:43Z</time>
      </trkpt>
      <trkpt lat="43.23216" lon="5.76562">
        <ele>193.8</ele>
        <time>2024-06-12T09:59:44Z</time>
      </trkpt>
      <trkpt lat="43.23204" lon="5.7656">
        <ele>189.2</ele>
        <time>2024-06-12T09:59:45Z</time>
      </trkpt>
      <trkpt lat="43.23192" lon="5.76559">
        <ele>189.2</ele>
        <time>2024-06-12T09:59:46Z</time>
      </trkpt>
      <trkpt lat="43.23179" lon="5.76557">
        <ele>189.2</ele>
        <time>2024-06-12T09:59:47Z</time>
      </trkpt>
      <trkpt lat="43.23167" lon="5.76556">
        <ele>188.2</ele>
        <time>2024-06-12T09:59:48Z</time>
      </trkpt>
      <trkpt lat="43.23155" lon="5.76555">
        <ele>188.2</ele>
        <time>2024-06-12T09:59:49Z</time>
      </trkpt>
      <trkpt lat="43.23143" lon="5.76554">
        <ele>183.6</ele>
        <time>2024-06-12T09:59:50Z</time>
      </trkpt>
      <trkpt lat="43.23132" lon="5.76552">
        <ele>183.6</ele>
        <time>2024-06-12T09:59:51Z</time>
      </trkpt>
      <trkpt lat="43.2312" lon="5.76551">
        <ele>183.6</ele>
        <time>2024-06-12T09:59:52Z</time>
      </trkpt>
      <trkpt lat="43.23102" lon="5.7655">
        <ele>182.6</ele>
        <time>2024-06-12T09:59:53Z</time>
      </trkpt>
      <trkpt lat="43.23096" lon="5.76549">
        <ele>178.4</ele>
        <time>2024-06-12T09:59:54Z</time>
      </trkpt>
      <trkpt lat="43.23079" lon="5.76547">
        <ele>178.4</ele>
        <time>2024-06-12T09:59:55Z</time>
      </trkpt>
      <trkpt lat="43.23073" lon="5.76546">
        <ele>178.4</ele>
        <time>2024-06-12T09:59:56Z</time>
      </trkpt>
      <trkpt lat="43.23056" lon="5.76543">
        <ele>177.4</ele>
        <time>2024-06-12T09:59:57Z</time>
      </trkpt>
      <trkpt lat="43.2305" lon="5.76543">
        <ele>173.8</ele>
        <time>2024-06-12T09:59:58Z</time>
      </trkpt>
      <trkpt lat="43.23035" lon="5.7654">
        <ele>173.8</ele>
        <time>2024-06-12T09:59:59Z</time>
      </trkpt>
      <trkpt lat="43.2303" lon="5.76538">
        <ele>173.8</ele>
        <time>2024-06-12T10:00:00Z</time>
      </trkpt>
      <trkpt lat="43.23019" lon="5.76535">
        <ele>173.8</ele>
        <time>2024-06-12T10:00:01Z</time>
      </trkpt>
      <trkpt lat="43.23016" lon="5.76534">
        <ele>172.8</ele>
        <time>2024-06-12T10:00:02Z</time>
      </trkpt>
      <trkpt lat="43.23012" lon="5.76532">
        <ele>169</ele>
        <time>2024-06-12T10:00:03Z</time>
      </trkpt>
      <trkpt lat="43.23011" lon="5.76532">
        <ele>169</ele>
        <time>2024-06-12T10:00:04Z</time>
      </trkpt>
      <trkpt lat="43.23009" lon="5.76532">
        <ele>169</ele>
        <time>2024-06-12T10:00:05Z</time>
      </trkpt>
      <trkpt lat="43.23007" lon="5.76532">
        <ele>168</ele>
        <time>2024-06-12T10:00:06Z</time>
      </trkpt>
      <trkpt lat="43.23005" lon="5.76532">
        <ele>165.4</ele>
        <time>2024-06-12T10:00:07Z</time>
      </trkpt>
      <trkpt lat="43.23004" lon="5.76532">
        <ele>149.6</ele>
        <time>2024-06-12T10:01:50Z</time>
      </trkpt>
      <trkpt lat="43.23002" lon="5.76532">
        <ele>149.2</ele>
        <time>2024-06-12T10:01:51Z</time>
      </trkpt>
      <trkpt lat="43.23" lon="5.76531">
        <ele>149.2</ele>
        <time>2024-06-12T10:01:52Z</time>
      </trkpt>
      <trkpt lat="43.22994" lon="5.76531">
        <ele>149.4</ele>
        <time>2024-06-12T10:01:53Z</time>
      </trkpt>
      <trkpt lat="43.22991" lon="5.7653">
        <ele>149.4</ele>
        <time>2024-06-12T10:01:54Z</time>
      </trkpt>
      <trkpt lat="43.22984" lon="5.76529">
        <ele>149.4</ele>
        <time>2024-06-12T10:01:55Z</time>
      </trkpt>
      <trkpt lat="43.22982" lon="5.76529">
        <ele>149.4</ele>
        <time>2024-06-12T10:01:56Z</time>
      </trkpt>
      <trkpt lat="43.22977" lon="5.76528">
        <ele>149.4</ele>
        <time>2024-06-12T10:01:57Z</time>
      </trkpt>
      <trkpt lat="43.22969" lon="5.76526">
        <ele>150</ele>
        <time>2024-06-12T10:01:58Z</time>
      </trkpt>
      <trkpt lat="43.22967" lon="5.76526">
        <ele>150</ele>
        <time>2024-06-12T10:01:59Z</time>
      </trkpt>
      <trkpt lat="43.2296" lon="5.76525">
        <ele>150</ele>
        <time>2024-06-12T10:02:00Z</time>
      </trkpt>
      <trkpt lat="43.22957" lon="5.76525">
        <ele>150.6</ele>
        <time>2024-06-12T10:02:01Z</time>
      </trkpt>
      <trkpt lat="43.2295" lon="5.76524">
        <ele>150.6</ele>
        <time>2024-06-12T10:02:02Z</time>
      </trkpt>
      <trkpt lat="43.22948" lon="5.76524">
        <ele>150.6</ele>
        <time>2024-06-12T10:02:03Z</time>
      </trkpt>
      <trkpt lat="43.22943" lon="5.76524">
        <ele>150.6</ele>
        <time>2024-06-12T10:02:04Z</time>
      </trkpt>
      <trkpt lat="43.22939" lon="5.76525">
        <ele>151.2</ele>
        <time>2024-06-12T10:02:05Z</time>
      </trkpt>
      <trkpt lat="43.22934" lon="5.76526">
        <ele>151.6</ele>
        <time>2024-06-12T10:02:06Z</time>
      </trkpt>
      <trkpt lat="43.2293" lon="5.76527">
        <ele>151.6</ele>
        <time>2024-06-12T10:02:07Z</time>
      </trkpt>
      <trkpt lat="43.22924" lon="5.76529">
        <ele>151.6</ele>
        <time>2024-06-12T10:02:08Z</time>
      </trkpt>
      <trkpt lat="43.22922" lon="5.76529">
        <ele>151.6</ele>
        <time>2024-06-12T10:02:09Z</time>
      </trkpt>
      <trkpt lat="43.22918" lon="5.76531">
        <ele>152</ele>
        <time>2024-06-12T10:02:10Z</time>
      </trkpt>
      <trkpt lat="43.22914" lon="5.76532">
        <ele>152.4</ele>
        <time>2024-06-12T10:02:11Z</time>
      </trkpt>
      <trkpt lat="43.22911" lon="5.76533">
        <ele>152.4</ele>
        <time>2024-06-12T10:02:12Z</time>
      </trkpt>
      <trkpt lat="43.22907" lon="5.76535">
        <ele>152.4</ele>
        <time>2024-06-12T10:02:13Z</time>
      </trkpt>
      <trkpt lat="43.22904" lon="5.76537">
        <ele>152.6</ele>
        <time>2024-06-12T10:02:14Z</time>
      </trkpt>
      <trkpt lat="43.22901" lon="5.7654">
        <ele>153</ele>
        <time>2024-06-12T10:02:15Z</time>
      </trkpt>
      <trkpt lat="43.22897" lon="5.76542">
        <ele>153</ele>
        <time>2024-06-12T10:02:16Z</time>
      </trkpt>
      <trkpt lat="43.22895" lon="5.76545">
        <ele>153</ele>
        <time>2024-06-12T10:02:17Z</time>
      </trkpt>
      <trkpt lat="43.22893" lon="5.76548">
        <ele>153.4</ele>
        <time>2024-06-12T10:02:18Z</time>
      </trkpt>
      <trkpt lat="43.2289" lon="5.76551">
        <ele>153.8</ele>
        <time>2024-06-12T10:02:19Z</time>
      </trkpt>
      <trkpt lat="43.22886" lon="5.76555">
        <ele>153.8</ele>
        <time>2024-06-12T10:02:20Z</time>
      </trkpt>
      <trkpt lat="43.22885" lon="5.76556">
        <ele>153.8</ele>
        <time>2024-06-12T10:02:21Z</time>
      </trkpt>
      <trkpt lat="43.2288" lon="5.76561">
        <ele>154.4</ele>
        <time>2024-06-12T10:02:22Z</time>
      </trkpt>
      <trkpt lat="43.22878" lon="5.76562">
        <ele>154.8</ele>
        <time>2024-06-12T10:02:23Z</time>
      </trkpt>
      <trkpt lat="43.22873" lon="5.76566">
        <ele>154.8</ele>
        <time>2024-06-12T10:02:24Z</time>
      </trkpt>
      <trkpt lat="43.22872" lon="5.76568">
        <ele>154.8</ele>
        <time>2024-06-12T10:02:25Z</time>
      </trkpt>
      <trkpt lat="43.22868" lon="5.76571">
        <ele>154.8</ele>
        <time>2024-06-12T10:02:26Z</time>
      </trkpt>
      <trkpt lat="43.22863" lon="5.76575">
        <ele>155.4</ele>
        <time>2024-06-12T10:02:27Z</time>
      </trkpt>
      <trkpt lat="43.22862" lon="5.76577">
        <ele>155.6</ele>
        <time>2024-06-12T10:02:28Z</time>
      </trkpt>
      <trkpt lat="43.22857" lon="5.76581">
        <ele>155.6</ele>
        <time>2024-06-12T10:02:29Z</time>
      </trkpt>
      <trkpt lat="43.22855" lon="5.76582">
        <ele>155.6</ele>
        <time>2024-06-12T10:02:30Z</time>
      </trkpt>
      <trkpt lat="43.22849" lon="5.76586">
        <ele>156</ele>
        <time>2024-06-12T10:02:31Z</time>
      </trkpt>
      <trkpt lat="43.22848" lon="5.76587">
        <ele>156.4</ele>
        <time>2024-06-12T10:02:32Z</time>
      </trkpt>
      <trkpt lat="43.22842" lon="5.76591">
        <ele>156.4</ele>
        <time>2024-06-12T10:02:33Z</time>
      </trkpt>
      <trkpt lat="43.2284" lon="5.76592">
        <ele>156.4</ele>
        <time>2024-06-12T10:02:34Z</time>
      </trkpt>
      <trkpt lat="43.22834" lon="5.76594">
        <ele>156.4</ele>
        <time>2024-06-12T10:02:35Z</time>
      </trkpt>
      <trkpt lat="43.22832" lon="5.76595">
        <ele>157</ele>
        <time>2024-06-12T10:02:36Z</time>
      </trkpt>
      <trkpt lat="43.22827" lon="5.76598">
        <ele>157</ele>
        <time>2024-06-12T10:02:37Z</time>
      </trkpt>
      <trkpt lat="43.22825" lon="5.76599">
        <ele>157</ele>
        <time>2024-06-12T10:02:38Z</time>
      </trkpt>
      <trkpt lat="43.22821" lon="5.76601">
        <ele>157</ele>
        <time>2024-06-12T10:02:39Z</time>
      </trkpt>
      <trkpt lat="43.22816" lon="5.76604">
        <ele>157</ele>
        <time>2024-06-12T10:02:40Z</time>
      </trkpt>
      <trkpt lat="43.22814" lon="5.76605">
        <ele>157.4</ele>
        <time>2024-06-12T10:02:41Z</time>
      </trkpt>
      <trkpt lat="43.22808" lon="5.76608">
        <ele>157.8</ele>
        <time>2024-06-12T10:02:42Z</time>
      </trkpt>
      <trkpt lat="43.22807" lon="5.7661">
        <ele>157.8</ele>
        <time>2024-06-12T10:02:43Z</time>
      </trkpt>
      <trkpt lat="43.22803" lon="5.76611">
        <ele>157.8</ele>
        <time>2024-06-12T10:02:44Z</time>
      </trkpt>
      <trkpt lat="43.22799" lon="5.76613">
        <ele>157.8</ele>
        <time>2024-06-12T10:02:45Z</time>
      </trkpt>
      <trkpt lat="43.22796" lon="5.76615">
        <ele>157.8</ele>
        <time>2024-06-12T10:02:46Z</time>
      </trkpt>
      <trkpt lat="43.22792" lon="5.76616">
        <ele>157.8</ele>
        <time>2024-06-12T10:02:47Z</time>
      </trkpt>
      <trkpt lat="43.22789" lon="5.76618">
        <ele>157.8</ele>
        <time>2024-06-12T10:02:48Z</time>
      </trkpt>
      <trkpt lat="43.22786" lon="5.76619">
        <ele>158.2</ele>
        <time>2024-06-12T10:02:49Z</time>
      </trkpt>
      <trkpt lat="43.22783" lon="5.76621">
        <ele>158.4</ele>
        <time>2024-06-12T10:02:50Z</time>
      </trkpt>
      <trkpt lat="43.2278" lon="5.76623">
        <ele>158.4</ele>
        <time>2024-06-12T10:02:51Z</time>
      </trkpt>
      <trkpt lat="43.22777" lon="5.76625">
        <ele>158.4</ele>
        <time>2024-06-12T10:02:52Z</time>
      </trkpt>
      <trkpt lat="43.22774" lon="5.76626">
        <ele>158.4</ele>
        <time>2024-06-12T10:02:53Z</time>
      </trkpt>
      <trkpt lat="43.22771" lon="5.76628">
        <ele>159.2</ele>
        <time>2024-06-12T10:02:54Z</time>
      </trkpt>
      <trkpt lat="43.22767" lon="5.7663">
        <ele>159.2</ele>
        <time>2024-06-12T10:02:55Z</time>
      </trkpt>
      <trkpt lat="43.22765" lon="5.76631">
        <ele>159.6</ele>
        <time>2024-06-12T10:02:56Z</time>
      </trkpt>
      <trkpt lat="43.22761" lon="5.76633">
        <ele>159.6</ele>
        <time>2024-06-12T10:02:57Z</time>
      </trkpt>
      <trkpt lat="43.2276" lon="5.76634">
        <ele>160</ele>
        <time>2024-06-12T10:02:58Z</time>
      </trkpt>
      <trkpt lat="43.22756" lon="5.76636">
        <ele>160.2</ele>
        <time>2024-06-12T10:02:59Z</time>
      </trkpt>
      <trkpt lat="43.22754" lon="5.76637">
        <ele>160.2</ele>
        <time>2024-06-12T10:03:00Z</time>
      </trkpt>
      <trkpt lat="43.2275" lon="5.76639">
        <ele>160.2</ele>
        <time>2024-06-12T10:03:01Z</time>
      </trkpt>
      <trkpt lat="43.22748" lon="5.7664">
        <ele>160.6</ele>
        <time>2024-06-12T10:03:02Z</time>
      </trkpt>
      <trkpt lat="43.22744" lon="5.76642">
        <ele>160.6</ele>
        <time>2024-06-12T10:03:03Z</time>
      </trkpt>
      <trkpt lat="43.22742" lon="5.76643">
        <ele>160.8</ele>
        <time>2024-06-12T10:03:04Z</time>
      </trkpt>
      <trkpt lat="43.22738" lon="5.76646">
        <ele>160.8</ele>
        <time>2024-06-12T10:03:05Z</time>
      </trkpt>
      <trkpt lat="43.22736" lon="5.76646">
        <ele>160.8</ele>
        <time>2024-06-12T10:03:06Z</time>
      </trkpt>
      <trkpt lat="43.22731" lon="5.76648">
        <ele>161.2</ele>
        <time>2024-06-12T10:03:07Z</time>
      </trkpt>
      <trkpt lat="43.2273" lon="5.76649">
        <ele>161.2</ele>
        <time>2024-06-12T10:03:08Z</time>
      </trkpt>
      <trkpt lat="43.22726" lon="5.76651">
        <ele>161.2</ele>
        <time>2024-06-12T10:03:09Z</time>
      </trkpt>
      <trkpt lat="43.22723" lon="5.76652">
        <ele>161.2</ele>
        <time>2024-06-12T10:03:10Z</time>
      </trkpt>
      <trkpt lat="43.22718" lon="5.76655">
        <ele>161.2</ele>
        <time>2024-06-12T10:03:11Z</time>
      </trkpt>
      <trkpt lat="43.22716" lon="5.76656">
        <ele>161.4</ele>
        <time>2024-06-12T10:03:12Z</time>
      </trkpt>
      <trkpt lat="43.22712" lon="5.76658">
        <ele>161.4</ele>
        <time>2024-06-12T10:03:13Z</time>
      </trkpt>
      <trkpt lat="43.22706" lon="5.76661">
        <ele>161.4</ele>
        <time>2024-06-12T10:03:14Z</time>
      </trkpt>
      <trkpt lat="43.22704" lon="5.76662">
        <ele>161.4</ele>
        <time>2024-06-12T10:03:15Z</time>
      </trkpt>
      <trkpt lat="43.22697" lon="5.76667">
        <ele>161.4</ele>
        <time>2024-06-12T10:03:16Z</time>
      </trkpt>
      <trkpt lat="43.22695" lon="5.76668">
        <ele>161.4</ele>
        <time>2024-06-12T10:03:17Z</time>
      </trkpt>
      <trkpt lat="43.22687" lon="5.76674">
        <ele>161.4</ele>
        <time>2024-06-12T10:03:18Z</time>
      </trkpt>
      <trkpt lat="43.22684" lon="5.76676">
        <ele>161.4</ele>
        <time>2024-06-12T10:03:19Z</time>
      </trkpt>
      <trkpt lat="43.22678" lon="5.76679">
        <ele>161.4</ele>
        <time>2024-06-12T10:03:20Z</time>
      </trkpt>
      <trkpt lat="43.22672" lon="5.76684">
        <ele>161</ele>
        <time>2024-06-12T10:03:21Z</time>
      </trkpt>
      <trkpt lat="43.22662" lon="5.76692">
        <ele>160.8</ele>
        <time>2024-06-12T10:03:22Z</time>
      </trkpt>
      <trkpt lat="43.22659" lon="5.76695">
        <ele>160.8</ele>
        <time>2024-06-12T10:03:23Z</time>
      </trkpt>
      <trkpt lat="43.22651" lon="5.76701">
        <ele>160.8</ele>
        <time>2024-06-12T10:03:24Z</time>
      </trkpt>
      <trkpt lat="43.2264" lon="5.7671">
        <ele>160.8</ele>
        <time>2024-06-12T10:03:25Z</time>
      </trkpt>
      <trkpt lat="43.22636" lon="5.76713">
        <ele>160.8</ele>
        <time>2024-06-12T10:03:26Z</time>
      </trkpt>
      <trkpt lat="43.22624" lon="5.76722">
        <ele>160.2</ele>
        <time>2024-06-12T10:03:27Z</time>
      </trkpt>
      <trkpt lat="43.2262" lon="5.76726">
        <ele>160.2</ele>
        <time>2024-06-12T10:03:28Z</time>
      </trkpt>
      <trkpt lat="43.22612" lon="5.76732">
        <ele>160.2</ele>
        <time>2024-06-12T10:03:29Z</time>
      </trkpt>
      <trkpt lat="43.22604" lon="5.76739">
        <ele>159.4</ele>
        <time>2024-06-12T10:03:30Z</time>
      </trkpt>
      <trkpt lat="43.22596" lon="5.76745">
        <ele>159.4</ele>
        <time>2024-06-12T10:03:31Z</time>
      </trkpt>
      <trkpt lat="43.22588" lon="5.76751">
        <ele>159.4</ele>
        <time>2024-06-12T10:03:32Z</time>
      </trkpt>
      <trkpt lat="43.2258" lon="5.76757">
        <ele>159.4</ele>
        <time>2024-06-12T10:03:33Z</time>
      </trkpt>
      <trkpt lat="43.22572" lon="5.76764">
        <ele>158.4</ele>
        <time>2024-06-12T10:03:34Z</time>
      </trkpt>
      <trkpt lat="43.22564" lon="5.7677">
        <ele>158.6</ele>
        <time>2024-06-12T10:03:35Z</time>
      </trkpt>
      <trkpt lat="43.22557" lon="5.76776">
        <ele>158.6</ele>
        <time>2024-06-12T10:03:36Z</time>
      </trkpt>
      <trkpt lat="43.22549" lon="5.76783">
        <ele>158.6</ele>
        <time>2024-06-12T10:03:37Z</time>
      </trkpt>
      <trkpt lat="43.22541" lon="5.76789">
        <ele>158.6</ele>
        <time>2024-06-12T10:03:38Z</time>
      </trkpt>
      <trkpt lat="43.22529" lon="5.76798">
        <ele>158.2</ele>
        <time>2024-06-12T10:03:39Z</time>
      </trkpt>
      <trkpt lat="43.22525" lon="5.76801">
        <ele>158</ele>
        <time>2024-06-12T10:03:40Z</time>
      </trkpt>
      <trkpt lat="43.22513" lon="5.76811">
        <ele>158</ele>
        <time>2024-06-12T10:03:41Z</time>
      </trkpt>
      <trkpt lat="43.22509" lon="5.76814">
        <ele>158</ele>
        <time>2024-06-12T10:03:42Z</time>
      </trkpt>
      <trkpt lat="43.22498" lon="5.76823">
        <ele>158</ele>
        <time>2024-06-12T10:03:43Z</time>
      </trkpt>
      <trkpt lat="43.22494" lon="5.76826">
        <ele>157</ele>
        <time>2024-06-12T10:03:44Z</time>
      </trkpt>
      <trkpt lat="43.22482" lon="5.76835">
        <ele>157</ele>
        <time>2024-06-12T10:03:45Z</time>
      </trkpt>
      <trkpt lat="43.22479" lon="5.76838">
        <ele>157</ele>
        <time>2024-06-12T10:03:46Z</time>
      </trkpt>
      <trkpt lat="43.22467" lon="5.76847">
        <ele>156.6</ele>
        <time>2024-06-12T10:03:47Z</time>
      </trkpt>
      <trkpt lat="43.22463" lon="5.7685">
        <ele>156.6</ele>
        <time>2024-06-12T10:03:48Z</time>
      </trkpt>
      <trkpt lat="43.22451" lon="5.76859">
        <ele>156.2</ele>
        <time>2024-06-12T10:03:49Z</time>
      </trkpt>
      <trkpt lat="43.22447" lon="5.76863">
        <ele>156.2</ele>
        <time>2024-06-12T10:03:50Z</time>
      </trkpt>
      <trkpt lat="43.22439" lon="5.76869">
        <ele>156.2</ele>
        <time>2024-06-12T10:03:51Z</time>
      </trkpt>
      <trkpt lat="43.22431" lon="5.76876">
        <ele>155.4</ele>
        <time>2024-06-12T10:03:52Z</time>
      </trkpt>
      <trkpt lat="43.22423" lon="5.76882">
        <ele>155.4</ele>
        <time>2024-06-12T10:03:53Z</time>
      </trkpt>
      <trkpt lat="43.22412" lon="5.76891">
        <ele>155.4</ele>
        <time>2024-06-12T10:03:54Z</time>
      </trkpt>
      <trkpt lat="43.22408" lon="5.76894">
        <ele>155.4</ele>
        <time>2024-06-12T10:03:55Z</time>
      </trkpt>
      <trkpt lat="43.22396" lon="5.76904">
        <ele>154.6</ele>
        <time>2024-06-12T10:03:56Z</time>
      </trkpt>
      <trkpt lat="43.22392" lon="5.76907">
        <ele>154.2</ele>
        <time>2024-06-12T10:03:57Z</time>
      </trkpt>
      <trkpt lat="43.2238" lon="5.76916">
        <ele>154.2</ele>
        <time>2024-06-12T10:03:58Z</time>
      </trkpt>
      <trkpt lat="43.22376" lon="5.76919">
        <ele>154.2</ele>
        <time>2024-06-12T10:03:59Z</time>
      </trkpt>
      <trkpt lat="43.22364" lon="5.76929">
        <ele>154.2</ele>
        <time>2024-06-12T10:04:00Z</time>
      </trkpt>
      <trkpt lat="43.2236" lon="5.76932">
        <ele>154.2</ele>
        <time>2024-06-12T10:04:01Z</time>
      </trkpt>
      <trkpt lat="43.22348" lon="5.76942">
        <ele>153.4</ele>
        <time>2024-06-12T10:04:02Z</time>
      </trkpt>
      <trkpt lat="43.22344" lon="5.76945">
        <ele>153.4</ele>
        <time>2024-06-12T10:04:03Z</time>
      </trkpt>
      <trkpt lat="43.22335" lon="5.76952">
        <ele>153.4</ele>
        <time>2024-06-12T10:04:04Z</time>
      </trkpt>
      <trkpt lat="43.22323" lon="5.76961">
        <ele>153.4</ele>
        <time>2024-06-12T10:04:05Z</time>
      </trkpt>
      <trkpt lat="43.22319" lon="5.76964">
        <ele>152.4</ele>
        <time>2024-06-12T10:04:06Z</time>
      </trkpt>
      <trkpt lat="43.22306" lon="5.76974">
        <ele>151.8</ele>
        <time>2024-06-12T10:04:07Z</time>
      </trkpt>
      <trkpt lat="43.22302" lon="5.76978">
        <ele>151.8</ele>
        <time>2024-06-12T10:04:08Z</time>
      </trkpt>
      <trkpt lat="43.22289" lon="5.76988">
        <ele>151.8</ele>
        <time>2024-06-12T10:04:09Z</time>
      </trkpt>
      <trkpt lat="43.22285" lon="5.76991">
        <ele>151</ele>
        <time>2024-06-12T10:04:10Z</time>
      </trkpt>
      <trkpt lat="43.22276" lon="5.76997">
        <ele>150.8</ele>
        <time>2024-06-12T10:04:11Z</time>
      </trkpt>
      <trkpt lat="43.22268" lon="5.77004">
        <ele>150.8</ele>
        <time>2024-06-12T10:04:12Z</time>
      </trkpt>
      <trkpt lat="43.22259" lon="5.77011">
        <ele>150.8</ele>
        <time>2024-06-12T10:04:13Z</time>
      </trkpt>
      <trkpt lat="43.2225" lon="5.77018">
        <ele>150.8</ele>
        <time>2024-06-12T10:04:14Z</time>
      </trkpt>
      <trkpt lat="43.22241" lon="5.77025">
        <ele>149.8</ele>
        <time>2024-06-12T10:04:15Z</time>
      </trkpt>
      <trkpt lat="43.22232" lon="5.77033">
        <ele>148</ele>
        <time>2024-06-12T10:04:16Z</time>
      </trkpt>
      <trkpt lat="43.22222" lon="5.77041">
        <ele>148</ele>
        <time>2024-06-12T10:04:17Z</time>
      </trkpt>
      <trkpt lat="43.22212" lon="5.77049">
        <ele>148</ele>
        <time>2024-06-12T10:04:18Z</time>
      </trkpt>
      <trkpt lat="43.22202" lon="5.77056">
        <ele>148</ele>
        <time>2024-06-12T10:04:19Z</time>
      </trkpt>
      <trkpt lat="43.22192" lon="5.77064">
        <ele>145.6</ele>
        <time>2024-06-12T10:04:20Z</time>
      </trkpt>
      <trkpt lat="43.22177" lon="5.77076">
        <ele>145.6</ele>
        <time>2024-06-12T10:04:21Z</time>
      </trkpt>
      <trkpt lat="43.22172" lon="5.7708">
        <ele>145.6</ele>
        <time>2024-06-12T10:04:22Z</time>
      </trkpt>
      <trkpt lat="43.22158" lon="5.77091">
        <ele>145.6</ele>
        <time>2024-06-12T10:04:23Z</time>
      </trkpt>
      <trkpt lat="43.22153" lon="5.77095">
        <ele>144.6</ele>
        <time>2024-06-12T10:04:24Z</time>
      </trkpt>
      <trkpt lat="43.22138" lon="5.77107">
        <ele>142.6</ele>
        <time>2024-06-12T10:04:25Z</time>
      </trkpt>
      <trkpt lat="43.22134" lon="5.77111">
        <ele>142.6</ele>
        <time>2024-06-12T10:04:26Z</time>
      </trkpt>
      <trkpt lat="43.22119" lon="5.77122">
        <ele>142.6</ele>
        <time>2024-06-12T10:04:27Z</time>
      </trkpt>
      <trkpt lat="43.22115" lon="5.77126">
        <ele>141.6</ele>
        <time>2024-06-12T10:04:28Z</time>
      </trkpt>
      <trkpt lat="43.22101" lon="5.77137">
        <ele>141</ele>
        <time>2024-06-12T10:04:29Z</time>
      </trkpt>
      <trkpt lat="43.22096" lon="5.7714">
        <ele>141</ele>
        <time>2024-06-12T10:04:30Z</time>
      </trkpt>
      <trkpt lat="43.22083" lon="5.77151">
        <ele>141</ele>
        <time>2024-06-12T10:04:31Z</time>
      </trkpt>
      <trkpt lat="43.22078" lon="5.77155">
        <ele>141</ele>
        <time>2024-06-12T10:04:32Z</time>
      </trkpt>
      <trkpt lat="43.22068" lon="5.77162">
        <ele>140</ele>
        <time>2024-06-12T10:04:33Z</time>
      </trkpt>
      <trkpt lat="43.22054" lon="5.77173">
        <ele>138.2</ele>
        <time>2024-06-12T10:04:34Z</time>
      </trkpt>
      <trkpt lat="43.22049" lon="5.77177">
        <ele>138.2</ele>
        <time>2024-06-12T10:04:35Z</time>
      </trkpt>
      <trkpt lat="43.22035" lon="5.77188">
        <ele>138.2</ele>
        <time>2024-06-12T10:04:36Z</time>
      </trkpt>
      <trkpt lat="43.2203" lon="5.77192">
        <ele>138.2</ele>
        <time>2024-06-12T10:04:37Z</time>
      </trkpt>
      <trkpt lat="43.22021" lon="5.772">
        <ele>136.8</ele>
        <time>2024-06-12T10:04:38Z</time>
      </trkpt>
      <trkpt lat="43.22012" lon="5.77207">
        <ele>136.8</ele>
        <time>2024-06-12T10:04:39Z</time>
      </trkpt>
      <trkpt lat="43.21998" lon="5.77218">
        <ele>136.8</ele>
        <time>2024-06-12T10:04:40Z</time>
      </trkpt>
      <trkpt lat="43.21993" lon="5.77222">
        <ele>135.8</ele>
        <time>2024-06-12T10:04:41Z</time>
      </trkpt>
      <trkpt lat="43.2198" lon="5.77233">
        <ele>135</ele>
        <time>2024-06-12T10:04:42Z</time>
      </trkpt>
      <trkpt lat="43.21975" lon="5.77236">
        <ele>135</ele>
        <time>2024-06-12T10:04:43Z</time>
      </trkpt>
      <trkpt lat="43.21962" lon="5.77247">
        <ele>135</ele>
        <time>2024-06-12T10:04:44Z</time>
      </trkpt>
      <trkpt lat="43.21957" lon="5.7725">
        <ele>135</ele>
        <time>2024-06-12T10:04:45Z</time>
      </trkpt>
      <trkpt lat="43.21948" lon="5.77257">
        <ele>135</ele>
        <time>2024-06-12T10:04:46Z</time>
      </trkpt>
      <trkpt lat="43.21935" lon="5.77267">
        <ele>134</ele>
        <time>2024-06-12T10:04:47Z</time>
      </trkpt>
      <trkpt lat="43.21931" lon="5.77271">
        <ele>132.8</ele>
        <time>2024-06-12T10:04:48Z</time>
      </trkpt>
      <trkpt lat="43.21918" lon="5.77281">
        <ele>132.8</ele>
        <time>2024-06-12T10:04:49Z</time>
      </trkpt>
      <trkpt lat="43.21914" lon="5.77284">
        <ele>132.8</ele>
        <time>2024-06-12T10:04:50Z</time>
      </trkpt>
      <trkpt lat="43.21901" lon="5.77294">
        <ele>131.8</ele>
        <time>2024-06-12T10:04:51Z</time>
      </trkpt>
      <trkpt lat="43.21897" lon="5.77298">
        <ele>131</ele>
        <time>2024-06-12T10:04:52Z</time>
      </trkpt>
      <trkpt lat="43.21884" lon="5.77308">
        <ele>131</ele>
        <time>2024-06-12T10:04:53Z</time>
      </trkpt>
      <trkpt lat="43.2188" lon="5.77311">
        <ele>131</ele>
        <time>2024-06-12T10:04:54Z</time>
      </trkpt>
      <trkpt lat="43.21871" lon="5.77318">
        <ele>130.6</ele>
        <time>2024-06-12T10:04:55Z</time>
      </trkpt>
      <trkpt lat="43.21862" lon="5.77325">
        <ele>130.2</ele>
        <time>2024-06-12T10:04:56Z</time>
      </trkpt>
      <trkpt lat="43.21854" lon="5.77332">
        <ele>130.2</ele>
        <time>2024-06-12T10:04:57Z</time>
      </trkpt>
      <trkpt lat="43.21846" lon="5.77338">
        <ele>130.2</ele>
        <time>2024-06-12T10:04:58Z</time>
      </trkpt>
      <trkpt lat="43.21837" lon="5.77344">
        <ele>130.2</ele>
        <time>2024-06-12T10:04:59Z</time>
      </trkpt>
      <trkpt lat="43.21829" lon="5.77351">
        <ele>129.2</ele>
        <time>2024-06-12T10:05:00Z</time>
      </trkpt>
      <trkpt lat="43.21821" lon="5.77357">
        <ele>128.6</ele>
        <time>2024-06-12T10:05:01Z</time>
      </trkpt>
      <trkpt lat="43.21813" lon="5.77364">
        <ele>128.6</ele>
        <time>2024-06-12T10:05:02Z</time>
      </trkpt>
      <trkpt lat="43.21805" lon="5.7737">
        <ele>128.6</ele>
        <time>2024-06-12T10:05:03Z</time>
      </trkpt>
      <trkpt lat="43.21796" lon="5.77377">
        <ele>128.6</ele>
        <time>2024-06-12T10:05:04Z</time>
      </trkpt>
      <trkpt lat="43.21784" lon="5.77387">
        <ele>128.6</ele>
        <time>2024-06-12T10:05:05Z</time>
      </trkpt>
      <trkpt lat="43.2178" lon="5.7739">
        <ele>127.6</ele>
        <time>2024-06-12T10:05:06Z</time>
      </trkpt>
      <trkpt lat="43.21768" lon="5.774">
        <ele>127.6</ele>
        <time>2024-06-12T10:05:07Z</time>
      </trkpt>
      <trkpt lat="43.21764" lon="5.77403">
        <ele>126.6</ele>
        <time>2024-06-12T10:05:08Z</time>
      </trkpt>
      <trkpt lat="43.21751" lon="5.77412">
        <ele>126.2</ele>
        <time>2024-06-12T10:05:09Z</time>
      </trkpt>
      <trkpt lat="43.21747" lon="5.77416">
        <ele>126.2</ele>
        <time>2024-06-12T10:05:10Z</time>
      </trkpt>
      <trkpt lat="43.21735" lon="5.77426">
        <ele>126.2</ele>
        <time>2024-06-12T10:05:11Z</time>
      </trkpt>
      <trkpt lat="43.21731" lon="5.77429">
        <ele>126.2</ele>
        <time>2024-06-12T10:05:12Z</time>
      </trkpt>
      <trkpt lat="43.21718" lon="5.77439">
        <ele>125.2</ele>
        <time>2024-06-12T10:05:13Z</time>
      </trkpt>
      <trkpt lat="43.21714" lon="5.77442">
        <ele>125.2</ele>
        <time>2024-06-12T10:05:14Z</time>
      </trkpt>
      <trkpt lat="43.21702" lon="5.77452">
        <ele>125.2</ele>
        <time>2024-06-12T10:05:15Z</time>
      </trkpt>
      <trkpt lat="43.21698" lon="5.77455">
        <ele>125.2</ele>
        <time>2024-06-12T10:05:16Z</time>
      </trkpt>
      <trkpt lat="43.21689" lon="5.77461">
        <ele>124.2</ele>
        <time>2024-06-12T10:05:17Z</time>
      </trkpt>
      <trkpt lat="43.21677" lon="5.77471">
        <ele>123.8</ele>
        <time>2024-06-12T10:05:18Z</time>
      </trkpt>
      <trkpt lat="43.21673" lon="5.77474">
        <ele>123.8</ele>
        <time>2024-06-12T10:05:19Z</time>
      </trkpt>
      <trkpt lat="43.21661" lon="5.77484">
        <ele>123.8</ele>
        <time>2024-06-12T10:05:20Z</time>
      </trkpt>
      <trkpt lat="43.21657" lon="5.77487">
        <ele>122.8</ele>
        <time>2024-06-12T10:05:21Z</time>
      </trkpt>
      <trkpt lat="43.21646" lon="5.77496">
        <ele>122.8</ele>
        <time>2024-06-12T10:05:22Z</time>
      </trkpt>
      <trkpt lat="43.21642" lon="5.77499">
        <ele>122.6</ele>
        <time>2024-06-12T10:05:23Z</time>
      </trkpt>
      <trkpt lat="43.2163" lon="5.77508">
        <ele>122.6</ele>
        <time>2024-06-12T10:05:24Z</time>
      </trkpt>
      <trkpt lat="43.21627" lon="5.77511">
        <ele>122.6</ele>
        <time>2024-06-12T10:05:25Z</time>
      </trkpt>
      <trkpt lat="43.21615" lon="5.7752">
        <ele>122.6</ele>
        <time>2024-06-12T10:05:26Z</time>
      </trkpt>
      <trkpt lat="43.21611" lon="5.77523">
        <ele>121.8</ele>
        <time>2024-06-12T10:05:27Z</time>
      </trkpt>
      <trkpt lat="43.21603" lon="5.77529">
        <ele>121.8</ele>
        <time>2024-06-12T10:05:28Z</time>
      </trkpt>
      <trkpt lat="43.21592" lon="5.77539">
        <ele>121.4</ele>
        <time>2024-06-12T10:05:29Z</time>
      </trkpt>
      <trkpt lat="43.21588" lon="5.77542">
        <ele>121.4</ele>
        <time>2024-06-12T10:05:30Z</time>
      </trkpt>
      <trkpt lat="43.2158" lon="5.77548">
        <ele>121.4</ele>
        <time>2024-06-12T10:05:31Z</time>
      </trkpt>
      <trkpt lat="43.21569" lon="5.77557">
        <ele>120.6</ele>
        <time>2024-06-12T10:05:32Z</time>
      </trkpt>
      <trkpt lat="43.21565" lon="5.7756">
        <ele>120.6</ele>
        <time>2024-06-12T10:05:33Z</time>
      </trkpt>
      <trkpt lat="43.21553" lon="5.77569">
        <ele>120.6</ele>
        <time>2024-06-12T10:05:34Z</time>
      </trkpt>
      <trkpt lat="43.2155" lon="5.77572">
        <ele>120.6</ele>
        <time>2024-06-12T10:05:35Z</time>
      </trkpt>
      <trkpt lat="43.21542" lon="5.77579">
        <ele>119.8</ele>
        <time>2024-06-12T10:05:36Z</time>
      </trkpt>
      <trkpt lat="43.21534" lon="5.77585">
        <ele>119.6</ele>
        <time>2024-06-12T10:05:37Z</time>
      </trkpt>
      <trkpt lat="43.21526" lon="5.7759">
        <ele>119.6</ele>
        <time>2024-06-12T10:05:38Z</time>
      </trkpt>
      <trkpt lat="43.21518" lon="5.77596">
        <ele>119.6</ele>
        <time>2024-06-12T10:05:39Z</time>
      </trkpt>
      <trkpt lat="43.2151" lon="5.77602">
        <ele>118.6</ele>
        <time>2024-06-12T10:05:40Z</time>
      </trkpt>
      <trkpt lat="43.21503" lon="5.77608">
        <ele>118</ele>
        <time>2024-06-12T10:05:41Z</time>
      </trkpt>
      <trkpt lat="43.21495" lon="5.77614">
        <ele>118</ele>
        <time>2024-06-12T10:05:42Z</time>
      </trkpt>
      <trkpt lat="43.21488" lon="5.7762">
        <ele>118</ele>
        <time>2024-06-12T10:05:43Z</time>
      </trkpt>
      <trkpt lat="43.21482" lon="5.77625">
        <ele>118</ele>
        <time>2024-06-12T10:05:44Z</time>
      </trkpt>
      <trkpt lat="43.21478" lon="5.77629">
        <ele>117</ele>
        <time>2024-06-12T10:05:45Z</time>
      </trkpt>
      <trkpt lat="43.21474" lon="5.77632">
        <ele>116.6</ele>
        <time>2024-06-12T10:05:46Z</time>
      </trkpt>
      <trkpt lat="43.21473" lon="5.77633">
        <ele>116.6</ele>
        <time>2024-06-12T10:05:47Z</time>
      </trkpt>
      <trkpt lat="43.2147" lon="5.77635">
        <ele>116.6</ele>
        <time>2024-06-12T10:05:48Z</time>
      </trkpt>
      <trkpt lat="43.21469" lon="5.77636">
        <ele>116</ele>
        <time>2024-06-12T10:05:49Z</time>
      </trkpt>
      <trkpt lat="43.21465" lon="5.77639">
        <ele>115.6</ele>
        <time>2024-06-12T10:05:50Z</time>
      </trkpt>
      <trkpt lat="43.21464" lon="5.7764">
        <ele>115.6</ele>
        <time>2024-06-12T10:05:51Z</time>
      </trkpt>
      <trkpt lat="43.21459" lon="5.77644">
        <ele>115.6</ele>
        <time>2024-06-12T10:05:52Z</time>
      </trkpt>
      <trkpt lat="43.21457" lon="5.77646">
        <ele>115.6</ele>
        <time>2024-06-12T10:05:53Z</time>
      </trkpt>
      <trkpt lat="43.21452" lon="5.7765">
        <ele>114.8</ele>
        <time>2024-06-12T10:05:54Z</time>
      </trkpt>
      <trkpt lat="43.2145" lon="5.77651">
        <ele>114.8</ele>
        <time>2024-06-12T10:05:55Z</time>
      </trkpt>
      <trkpt lat="43.21446" lon="5.77654">
        <ele>114.8</ele>
        <time>2024-06-12T10:05:56Z</time>
      </trkpt>
      <trkpt lat="43.21441" lon="5.77658">
        <ele>114.8</ele>
        <time>2024-06-12T10:05:57Z</time>
      </trkpt>
      <trkpt lat="43.21435" lon="5.77663">
        <ele>114.2</ele>
        <time>2024-06-12T10:05:58Z</time>
      </trkpt>
      <trkpt lat="43.21432" lon="5.77665">
        <ele>114</ele>
        <time>2024-06-12T10:05:59Z</time>
      </trkpt>
      <trkpt lat="43.21428" lon="5.77669">
        <ele>114</ele>
        <time>2024-06-12T10:06:00Z</time>
      </trkpt>
      <trkpt lat="43.21421" lon="5.77675">
        <ele>114</ele>
        <time>2024-06-12T10:06:01Z</time>
      </trkpt>
      <trkpt lat="43.21418" lon="5.77676">
        <ele>113.4</ele>
        <time>2024-06-12T10:06:02Z</time>
      </trkpt>
      <trkpt lat="43.21411" lon="5.77682">
        <ele>113.4</ele>
        <time>2024-06-12T10:06:03Z</time>
      </trkpt>
      <trkpt lat="43.21408" lon="5.77684">
        <ele>113.4</ele>
        <time>2024-06-12T10:06:04Z</time>
      </trkpt>
      <trkpt lat="43.214" lon="5.77691">
        <ele>113.4</ele>
        <time>2024-06-12T10:06:05Z</time>
      </trkpt>
      <trkpt lat="43.21397" lon="5.77693">
        <ele>112.8</ele>
        <time>2024-06-12T10:06:06Z</time>
      </trkpt>
      <trkpt lat="43.21389" lon="5.777">
        <ele>112.8</ele>
        <time>2024-06-12T10:06:07Z</time>
      </trkpt>
      <trkpt lat="43.21386" lon="5.77702">
        <ele>112.8</ele>
        <time>2024-06-12T10:06:08Z</time>
      </trkpt>
      <trkpt lat="43.21378" lon="5.77709">
        <ele>112.6</ele>
        <time>2024-06-12T10:06:09Z</time>
      </trkpt>
      <trkpt lat="43.21375" lon="5.77711">
        <ele>112.6</ele>
        <time>2024-06-12T10:06:10Z</time>
      </trkpt>
      <trkpt lat="43.2137" lon="5.77715">
        <ele>112.6</ele>
        <time>2024-06-12T10:06:11Z</time>
      </trkpt>
      <trkpt lat="43.21364" lon="5.7772">
        <ele>112.2</ele>
        <time>2024-06-12T10:06:12Z</time>
      </trkpt>
      <trkpt lat="43.21358" lon="5.77724">
        <ele>112</ele>
        <time>2024-06-12T10:06:13Z</time>
      </trkpt>
      <trkpt lat="43.21349" lon="5.77731">
        <ele>112</ele>
        <time>2024-06-12T10:06:14Z</time>
      </trkpt>
      <trkpt lat="43.21346" lon="5.77733">
        <ele>112</ele>
        <time>2024-06-12T10:06:15Z</time>
      </trkpt>
      <trkpt lat="43.21336" lon="5.7774">
        <ele>111.4</ele>
        <time>2024-06-12T10:06:16Z</time>
      </trkpt>
      <trkpt lat="43.21333" lon="5.77743">
        <ele>111.4</ele>
        <time>2024-06-12T10:06:17Z</time>
      </trkpt>
      <trkpt lat="43.21324" lon="5.7775">
        <ele>111.4</ele>
        <time>2024-06-12T10:06:18Z</time>
      </trkpt>
      <trkpt lat="43.21321" lon="5.77753">
        <ele>111.4</ele>
        <time>2024-06-12T10:06:19Z</time>
      </trkpt>
      <trkpt lat="43.21315" lon="5.77758">
        <ele>111.4</ele>
        <time>2024-06-12T10:06:20Z</time>
      </trkpt>
      <trkpt lat="43.21309" lon="5.77763">
        <ele>110.8</ele>
        <time>2024-06-12T10:06:21Z</time>
      </trkpt>
      <trkpt lat="43.21304" lon="5.77768">
        <ele>110.4</ele>
        <time>2024-06-12T10:06:22Z</time>
      </trkpt>
      <trkpt lat="43.21299" lon="5.77772">
        <ele>110.4</ele>
        <time>2024-06-12T10:06:23Z</time>
      </trkpt>
      <trkpt lat="43.21294" lon="5.77777">
        <ele>110.4</ele>
        <time>2024-06-12T10:06:24Z</time>
      </trkpt>
      <trkpt lat="43.21289" lon="5.7778">
        <ele>109.8</ele>
        <time>2024-06-12T10:06:25Z</time>
      </trkpt>
      <trkpt lat="43.21284" lon="5.77784">
        <ele>109.6</ele>
        <time>2024-06-12T10:06:26Z</time>
      </trkpt>
      <trkpt lat="43.21276" lon="5.7779">
        <ele>109.6</ele>
        <time>2024-06-12T10:06:27Z</time>
      </trkpt>
      <trkpt lat="43.21274" lon="5.77791">
        <ele>109.6</ele>
        <time>2024-06-12T10:06:28Z</time>
      </trkpt>
      <trkpt lat="43.21266" lon="5.77797">
        <ele>108.8</ele>
        <time>2024-06-12T10:06:29Z</time>
      </trkpt>
      <trkpt lat="43.21263" lon="5.77799">
        <ele>108.6</ele>
        <time>2024-06-12T10:06:30Z</time>
      </trkpt>
      <trkpt lat="43.21255" lon="5.77805">
        <ele>108.6</ele>
        <time>2024-06-12T10:06:31Z</time>
      </trkpt>
      <trkpt lat="43.21253" lon="5.77807">
        <ele>108.6</ele>
        <time>2024-06-12T10:06:32Z</time>
      </trkpt>
      <trkpt lat="43.21245" lon="5.77814">
        <ele>108.6</ele>
        <time>2024-06-12T10:06:33Z</time>
      </trkpt>
      <trkpt lat="43.21243" lon="5.77816">
        <ele>108.6</ele>
        <time>2024-06-12T10:06:34Z</time>
      </trkpt>
      <trkpt lat="43.21236" lon="5.77822">
        <ele>108.6</ele>
        <time>2024-06-12T10:06:35Z</time>
      </trkpt>
      <trkpt lat="43.21233" lon="5.77825">
        <ele>108.6</ele>
        <time>2024-06-12T10:06:36Z</time>
      </trkpt>
      <trkpt lat="43.21226" lon="5.77831">
        <ele>108.6</ele>
        <time>2024-06-12T10:06:37Z</time>
      </trkpt>
      <trkpt lat="43.21223" lon="5.77833">
        <ele>108.4</ele>
        <time>2024-06-12T10:06:38Z</time>
      </trkpt>
      <trkpt lat="43.21215" lon="5.77839">
        <ele>108.2</ele>
        <time>2024-06-12T10:06:39Z</time>
      </trkpt>
      <trkpt lat="43.21213" lon="5.77841">
        <ele>108.2</ele>
        <time>2024-06-12T10:06:40Z</time>
      </trkpt>
      <trkpt lat="43.21208" lon="5.77845">
        <ele>108.2</ele>
        <time>2024-06-12T10:06:41Z</time>
      </trkpt>
      <trkpt lat="43.21201" lon="5.7785">
        <ele>108.2</ele>
        <time>2024-06-12T10:06:42Z</time>
      </trkpt>
      <trkpt lat="43.21199" lon="5.77851">
        <ele>109</ele>
        <time>2024-06-12T10:06:43Z</time>
      </trkpt>
      <trkpt lat="43.21195" lon="5.77855">
        <ele>109</ele>
        <time>2024-06-12T10:06:44Z</time>
      </trkpt>
      <trkpt lat="43.21188" lon="5.7786">
        <ele>109</ele>
        <time>2024-06-12T10:06:45Z</time>
      </trkpt>
      <trkpt lat="43.21185" lon="5.77861">
        <ele>109</ele>
        <time>2024-06-12T10:06:46Z</time>
      </trkpt>
      <trkpt lat="43.21179" lon="5.77867">
        <ele>109.6</ele>
        <time>2024-06-12T10:06:47Z</time>
      </trkpt>
      <trkpt lat="43.21176" lon="5.77869">
        <ele>109.6</ele>
        <time>2024-06-12T10:06:48Z</time>
      </trkpt>
      <trkpt lat="43.2117" lon="5.77874">
        <ele>109.6</ele>
        <time>2024-06-12T10:06:49Z</time>
      </trkpt>
      <trkpt lat="43.21168" lon="5.77876">
        <ele>109.6</ele>
        <time>2024-06-12T10:06:50Z</time>
      </trkpt>
      <trkpt lat="43.21162" lon="5.77883">
        <ele>109.6</ele>
        <time>2024-06-12T10:06:51Z</time>
      </trkpt>
      <trkpt lat="43.2116" lon="5.77885">
        <ele>109.6</ele>
        <time>2024-06-12T10:06:52Z</time>
      </trkpt>
      <trkpt lat="43.21156" lon="5.77889">
        <ele>110.2</ele>
        <time>2024-06-12T10:06:53Z</time>
      </trkpt>
      <trkpt lat="43.21152" lon="5.77893">
        <ele>110.2</ele>
        <time>2024-06-12T10:06:54Z</time>
      </trkpt>
      <trkpt lat="43.21148" lon="5.77898">
        <ele>110.2</ele>
        <time>2024-06-12T10:06:55Z</time>
      </trkpt>
      <trkpt lat="43.21144" lon="5.77902">
        <ele>109.6</ele>
        <time>2024-06-12T10:06:56Z</time>
      </trkpt>
      <trkpt lat="43.21141" lon="5.77906">
        <ele>109.8</ele>
        <time>2024-06-12T10:06:57Z</time>
      </trkpt>
      <trkpt lat="43.21137" lon="5.7791">
        <ele>109.8</ele>
        <time>2024-06-12T10:06:58Z</time>
      </trkpt>
      <trkpt lat="43.21132" lon="5.77917">
        <ele>109.8</ele>
        <time>2024-06-12T10:06:59Z</time>
      </trkpt>
      <trkpt lat="43.21131" lon="5.77919">
        <ele>109.4</ele>
        <time>2024-06-12T10:07:00Z</time>
      </trkpt>
      <trkpt lat="43.21126" lon="5.77925">
        <ele>109.2</ele>
        <time>2024-06-12T10:07:01Z</time>
      </trkpt>
      <trkpt lat="43.21125" lon="5.77927">
        <ele>109.2</ele>
        <time>2024-06-12T10:07:02Z</time>
      </trkpt>
      <trkpt lat="43.21122" lon="5.77932">
        <ele>109.2</ele>
        <time>2024-06-12T10:07:03Z</time>
      </trkpt>
      <trkpt lat="43.21119" lon="5.77936">
        <ele>109.2</ele>
        <time>2024-06-12T10:07:04Z</time>
      </trkpt>
      <trkpt lat="43.21116" lon="5.7794">
        <ele>109.2</ele>
        <time>2024-06-12T10:07:05Z</time>
      </trkpt>
      <trkpt lat="43.21114" lon="5.77943">
        <ele>109.2</ele>
        <time>2024-06-12T10:07:06Z</time>
      </trkpt>
      <trkpt lat="43.21113" lon="5.77945">
        <ele>109.2</ele>
        <time>2024-06-12T10:07:07Z</time>
      </trkpt>
      <trkpt lat="43.21113" lon="5.77946">
        <ele>109.2</ele>
        <time>2024-06-12T10:07:08Z</time>
      </trkpt>
      <trkpt lat="43.21113" lon="5.77946">
        <ele>110</ele>
        <time>2024-06-12T10:07:09Z</time>
      </trkpt>
      <trkpt lat="43.21113" lon="5.77946">
        <ele>110</ele>
        <time>2024-06-12T10:07:10Z</time>
      </trkpt>
      <trkpt lat="43.21119" lon="5.77949">
        <ele>112.6</ele>
        <time>2024-06-12T10:08:01Z</time>
      </trkpt>
      <trkpt lat="43.21121" lon="5.77946">
        <ele>112.8</ele>
        <time>2024-06-12T10:08:02Z</time>
      </trkpt>
      <trkpt lat="43.21124" lon="5.77941">
        <ele>112.8</ele>
        <time>2024-06-12T10:08:03Z</time>
      </trkpt>
      <trkpt lat="43.21125" lon="5.77939">
        <ele>112.8</ele>
        <time>2024-06-12T10:08:04Z</time>
      </trkpt>
      <trkpt lat="43.21128" lon="5.77933">
        <ele>113.6</ele>
        <time>2024-06-12T10:08:05Z</time>
      </trkpt>
      <trkpt lat="43.2113" lon="5.77931">
        <ele>113.6</ele>
        <time>2024-06-12T10:08:06Z</time>
      </trkpt>
      <trkpt lat="43.21134" lon="5.77925">
        <ele>113.6</ele>
        <time>2024-06-12T10:08:07Z</time>
      </trkpt>
      <trkpt lat="43.21135" lon="5.77922">
        <ele>113.6</ele>
        <time>2024-06-12T10:08:08Z</time>
      </trkpt>
      <trkpt lat="43.21138" lon="5.77918">
        <ele>113.6</ele>
        <time>2024-06-12T10:08:09Z</time>
      </trkpt>
      <trkpt lat="43.21142" lon="5.77911">
        <ele>114.2</ele>
        <time>2024-06-12T10:08:10Z</time>
      </trkpt>
      <trkpt lat="43.21144" lon="5.77909">
        <ele>114.2</ele>
        <time>2024-06-12T10:08:11Z</time>
      </trkpt>
      <trkpt lat="43.21148" lon="5.77905">
        <ele>114.2</ele>
        <time>2024-06-12T10:08:12Z</time>
      </trkpt>
      <trkpt lat="43.21153" lon="5.77899">
        <ele>114.4</ele>
        <time>2024-06-12T10:08:13Z</time>
      </trkpt>
      <trkpt lat="43.21154" lon="5.77897">
        <ele>114.6</ele>
        <time>2024-06-12T10:08:14Z</time>
      </trkpt>
      <trkpt lat="43.21159" lon="5.77892">
        <ele>114.6</ele>
        <time>2024-06-12T10:08:15Z</time>
      </trkpt>
      <trkpt lat="43.21161" lon="5.7789">
        <ele>114.6</ele>
        <time>2024-06-12T10:08:16Z</time>
      </trkpt>
      <trkpt lat="43.21167" lon="5.77884">
        <ele>114.6</ele>
        <time>2024-06-12T10:08:17Z</time>
      </trkpt>
      <trkpt lat="43.21169" lon="5.77883">
        <ele>114.6</ele>
        <time>2024-06-12T10:08:18Z</time>
      </trkpt>
      <trkpt lat="43.21172" lon="5.77879">
        <ele>114.6</ele>
        <time>2024-06-12T10:08:19Z</time>
      </trkpt>
      <trkpt lat="43.21176" lon="5.77875">
        <ele>114.4</ele>
        <time>2024-06-12T10:08:20Z</time>
      </trkpt>
      <trkpt lat="43.2118" lon="5.77871">
        <ele>114.4</ele>
        <time>2024-06-12T10:08:21Z</time>
      </trkpt>
      <trkpt lat="43.21186" lon="5.77866">
        <ele>114.4</ele>
        <time>2024-06-12T10:08:22Z</time>
      </trkpt>
      <trkpt lat="43.21188" lon="5.77864">
        <ele>114.2</ele>
        <time>2024-06-12T10:08:23Z</time>
      </trkpt>
      <trkpt lat="43.21194" lon="5.77859">
        <ele>114.2</ele>
        <time>2024-06-12T10:08:24Z</time>
      </trkpt>
      <trkpt lat="43.21196" lon="5.77858">
        <ele>114.2</ele>
        <time>2024-06-12T10:08:25Z</time>
      </trkpt>
      <trkpt lat="43.21201" lon="5.77853">
        <ele>114.2</ele>
        <time>2024-06-12T10:08:26Z</time>
      </trkpt>
      <trkpt lat="43.21203" lon="5.77852">
        <ele>114.2</ele>
        <time>2024-06-12T10:08:27Z</time>
      </trkpt>
      <trkpt lat="43.21206" lon="5.7785">
        <ele>114</ele>
        <time>2024-06-12T10:08:28Z</time>
      </trkpt>
      <trkpt lat="43.21209" lon="5.77847">
        <ele>114</ele>
        <time>2024-06-12T10:08:29Z</time>
      </trkpt>
      <trkpt lat="43.21212" lon="5.77845">
        <ele>114</ele>
        <time>2024-06-12T10:08:30Z</time>
      </trkpt>
      <trkpt lat="43.21215" lon="5.77843">
        <ele>114</ele>
        <time>2024-06-12T10:08:31Z</time>
      </trkpt>
      <trkpt lat="43.21218" lon="5.7784">
        <ele>114</ele>
        <time>2024-06-12T10:08:32Z</time>
      </trkpt>
      <trkpt lat="43.21222" lon="5.77838">
        <ele>114</ele>
        <time>2024-06-12T10:08:33Z</time>
      </trkpt>
      <trkpt lat="43.21225" lon="5.77835">
        <ele>114</ele>
        <time>2024-06-12T10:08:34Z</time>
      </trkpt>
      <trkpt lat="43.21228" lon="5.77832">
        <ele>114</ele>
        <time>2024-06-12T10:08:35Z</time>
      </trkpt>
      <trkpt lat="43.21232" lon="5.77829">
        <ele>113.6</ele>
        <time>2024-06-12T10:08:36Z</time>
      </trkpt>
      <trkpt lat="43.21235" lon="5.77826">
        <ele>113.8</ele>
        <time>2024-06-12T10:08:37Z</time>
      </trkpt>
      <trkpt lat="43.21239" lon="5.77823">
        <ele>113.8</ele>
        <time>2024-06-12T10:08:38Z</time>
      </trkpt>
      <trkpt lat="43.21243" lon="5.77819">
        <ele>113.8</ele>
        <time>2024-06-12T10:08:39Z</time>
      </trkpt>
      <trkpt lat="43.21248" lon="5.77814">
        <ele>113.8</ele>
        <time>2024-06-12T10:08:40Z</time>
      </trkpt>
      <trkpt lat="43.2125" lon="5.77813">
        <ele>113.4</ele>
        <time>2024-06-12T10:08:41Z</time>
      </trkpt>
      <trkpt lat="43.21253" lon="5.7781">
        <ele>113.4</ele>
        <time>2024-06-12T10:08:42Z</time>
      </trkpt>
      <trkpt lat="43.21256" lon="5.77807">
        <ele>113.4</ele>
        <time>2024-06-12T10:08:43Z</time>
      </trkpt>
      <trkpt lat="43.2126" lon="5.77803">
        <ele>113.4</ele>
        <time>2024-06-12T10:08:44Z</time>
      </trkpt>
      <trkpt lat="43.21261" lon="5.77801">
        <ele>113.2</ele>
        <time>2024-06-12T10:08:45Z</time>
      </trkpt>
      <trkpt lat="43.21266" lon="5.77797">
        <ele>113.2</ele>
        <time>2024-06-12T10:08:46Z</time>
      </trkpt>
      <trkpt lat="43.21267" lon="5.77796">
        <ele>113.2</ele>
        <time>2024-06-12T10:08:47Z</time>
      </trkpt>
      <trkpt lat="43.21269" lon="5.77794">
        <ele>113.2</ele>
        <time>2024-06-12T10:08:48Z</time>
      </trkpt>
      <trkpt lat="43.2127" lon="5.77792">
        <ele>112.6</ele>
        <time>2024-06-12T10:08:49Z</time>
      </trkpt>
      <trkpt lat="43.2127" lon="5.77791">
        <ele>112.8</ele>
        <time>2024-06-12T10:08:50Z</time>
      </trkpt>
      <trkpt lat="43.2127" lon="5.7779">
        <ele>112.8</ele>
        <time>2024-06-12T10:08:51Z</time>
      </trkpt>
      <trkpt lat="43.21274" lon="5.77787">
        <ele>112.8</ele>
        <time>2024-06-12T10:08:58Z</time>
      </trkpt>
      <trkpt lat="43.21276" lon="5.77787">
        <ele>112.6</ele>
        <time>2024-06-12T10:08:59Z</time>
      </trkpt>
      <trkpt lat="43.21277" lon="5.77787">
        <ele>112.6</ele>
        <time>2024-06-12T10:09:00Z</time>
      </trkpt>
      <trkpt lat="43.21279" lon="5.77787">
        <ele>112.6</ele>
        <time>2024-06-12T10:09:01Z</time>
      </trkpt>
      <trkpt lat="43.2128" lon="5.77786">
        <ele>112.6</ele>
        <time>2024-06-12T10:09:02Z</time>
      </trkpt>
      <trkpt lat="43.21281" lon="5.77786">
        <ele>112.6</ele>
        <time>2024-06-12T10:09:03Z</time>
      </trkpt>
      <trkpt lat="43.21281" lon="5.77786">
        <ele>112.8</ele>
        <time>2024-06-12T10:09:04Z</time>
      </trkpt>
      <trkpt lat="43.21281" lon="5.77786">
        <ele>112.8</ele>
        <time>2024-06-12T10:09:05Z</time>
      </trkpt>
      <trkpt lat="43.21285" lon="5.77782">
        <ele>113</ele>
        <time>2024-06-12T10:09:18Z</time>
      </trkpt>
      <trkpt lat="43.21286" lon="5.77781">
        <ele>113</ele>
        <time>2024-06-12T10:09:19Z</time>
      </trkpt>
      <trkpt lat="43.21288" lon="5.77779">
        <ele>113</ele>
        <time>2024-06-12T10:09:20Z</time>
      </trkpt>
      <trkpt lat="43.21291" lon="5.77777">
        <ele>113.2</ele>
        <time>2024-06-12T10:09:21Z</time>
      </trkpt>
      <trkpt lat="43.21293" lon="5.77775">
        <ele>113.2</ele>
        <time>2024-06-12T10:09:22Z</time>
      </trkpt>
      <trkpt lat="43.21295" lon="5.77773">
        <ele>113.2</ele>
        <time>2024-06-12T10:09:23Z</time>
      </trkpt>
      <trkpt lat="43.21297" lon="5.77772">
        <ele>113.2</ele>
        <time>2024-06-12T10:09:24Z</time>
      </trkpt>
      <trkpt lat="43.21299" lon="5.7777">
        <ele>113.2</ele>
        <time>2024-06-12T10:09:25Z</time>
      </trkpt>
      <trkpt lat="43.21301" lon="5.77768">
        <ele>113.6</ele>
        <time>2024-06-12T10:09:26Z</time>
      </trkpt>
      <trkpt lat="43.21304" lon="5.77766">
        <ele>113.6</ele>
        <time>2024-06-12T10:09:27Z</time>
      </trkpt>
      <trkpt lat="43.21306" lon="5.77764">
        <ele>113.6</ele>
        <time>2024-06-12T10:09:28Z</time>
      </trkpt>
      <trkpt lat="43.21308" lon="5.77763">
        <ele>113.6</ele>
        <time>2024-06-12T10:09:29Z</time>
      </trkpt>
      <trkpt lat="43.2131" lon="5.77761">
        <ele>114</ele>
        <time>2024-06-12T10:09:30Z</time>
      </trkpt>
      <trkpt lat="43.21312" lon="5.7776">
        <ele>114</ele>
        <time>2024-06-12T10:09:31Z</time>
      </trkpt>
      <trkpt lat="43.21313" lon="5.77759">
        <ele>114</ele>
        <time>2024-06-12T10:09:32Z</time>
      </trkpt>
      <trkpt lat="43.21314" lon="5.77758">
        <ele>114</ele>
        <time>2024-06-12T10:09:33Z</time>
      </trkpt>
      <trkpt lat="43.21315" lon="5.77757">
        <ele>114</ele>
        <time>2024-06-12T10:09:34Z</time>
      </trkpt>
      <trkpt lat="43.21317" lon="5.77756">
        <ele>114</ele>
        <time>2024-06-12T10:09:35Z</time>
      </trkpt>
      <trkpt lat="43.21318" lon="5.77756">
        <ele>114</ele>
        <time>2024-06-12T10:09:36Z</time>
      </trkpt>
      <trkpt lat="43.21319" lon="5.77755">
        <ele>114</ele>
        <time>2024-06-12T10:09:37Z</time>
      </trkpt>
      <trkpt lat="43.21321" lon="5.77756">
        <ele>114</ele>
        <time>2024-06-12T10:09:38Z</time>
      </trkpt>
      <trkpt lat="43.21323" lon="5.77755">
        <ele>113.8</ele>
        <time>2024-06-12T10:09:39Z</time>
      </trkpt>
      <trkpt lat="43.21327" lon="5.77752">
        <ele>113.8</ele>
        <time>2024-06-12T10:09:40Z</time>
      </trkpt>
      <trkpt lat="43.21328" lon="5.77751">
        <ele>113.8</ele>
        <time>2024-06-12T10:09:41Z</time>
      </trkpt>
      <trkpt lat="43.21332" lon="5.77748">
        <ele>113.8</ele>
        <time>2024-06-12T10:09:42Z</time>
      </trkpt>
      <trkpt lat="43.21334" lon="5.77746">
        <ele>113.8</ele>
        <time>2024-06-12T10:09:43Z</time>
      </trkpt>
      <trkpt lat="43.21337" lon="5.77744">
        <ele>113.8</ele>
        <time>2024-06-12T10:09:44Z</time>
      </trkpt>
      <trkpt lat="43.21341" lon="5.7774">
        <ele>113.8</ele>
        <time>2024-06-12T10:09:45Z</time>
      </trkpt>
      <trkpt lat="43.21343" lon="5.77739">
        <ele>113.8</ele>
        <time>2024-06-12T10:09:46Z</time>
      </trkpt>
      <trkpt lat="43.21346" lon="5.77737">
        <ele>114.2</ele>
        <time>2024-06-12T10:09:47Z</time>
      </trkpt>
      <trkpt lat="43.21352" lon="5.77733">
        <ele>113.8</ele>
        <time>2024-06-12T10:09:48Z</time>
      </trkpt>
      <trkpt lat="43.21353" lon="5.77732">
        <ele>113.8</ele>
        <time>2024-06-12T10:09:49Z</time>
      </trkpt>
      <trkpt lat="43.21359" lon="5.77729">
        <ele>113.8</ele>
        <time>2024-06-12T10:09:50Z</time>
      </trkpt>
      <trkpt lat="43.21361" lon="5.77728">
        <ele>113.8</ele>
        <time>2024-06-12T10:09:51Z</time>
      </trkpt>
      <trkpt lat="43.21367" lon="5.77724">
        <ele>114.6</ele>
        <time>2024-06-12T10:09:52Z</time>
      </trkpt>
      <trkpt lat="43.21368" lon="5.77723">
        <ele>114.6</ele>
        <time>2024-06-12T10:09:53Z</time>
      </trkpt>
      <trkpt lat="43.21372" lon="5.7772">
        <ele>114.6</ele>
        <time>2024-06-12T10:09:54Z</time>
      </trkpt>
      <trkpt lat="43.21376" lon="5.77717">
        <ele>114.6</ele>
        <time>2024-06-12T10:09:55Z</time>
      </trkpt>
      <trkpt lat="43.21379" lon="5.77714">
        <ele>114.4</ele>
        <time>2024-06-12T10:09:56Z</time>
      </trkpt>
      <trkpt lat="43.21385" lon="5.7771">
        <ele>114.4</ele>
        <time>2024-06-12T10:09:57Z</time>
      </trkpt>
      <trkpt lat="43.21386" lon="5.77708">
        <ele>114.4</ele>
        <time>2024-06-12T10:09:58Z</time>
      </trkpt>
      <trkpt lat="43.2139" lon="5.77705">
        <ele>114.4</ele>
        <time>2024-06-12T10:09:59Z</time>
      </trkpt>
      <trkpt lat="43.21395" lon="5.77701">
        <ele>114.4</ele>
        <time>2024-06-12T10:10:00Z</time>
      </trkpt>
      <trkpt lat="43.21397" lon="5.777">
        <ele>114.6</ele>
        <time>2024-06-12T10:10:01Z</time>
      </trkpt>
      <trkpt lat="43.21402" lon="5.77695">
        <ele>114.6</ele>
        <time>2024-06-12T10:10:02Z</time>
      </trkpt>
      <trkpt lat="43.21404" lon="5.77694">
        <ele>114.6</ele>
        <time>2024-06-12T10:10:03Z</time>
      </trkpt>
      <trkpt lat="43.21407" lon="5.77691">
        <ele>114.6</ele>
        <time>2024-06-12T10:10:04Z</time>
      </trkpt>
      <trkpt lat="43.21411" lon="5.77688">
        <ele>114.6</ele>
        <time>2024-06-12T10:10:05Z</time>
      </trkpt>
      <trkpt lat="43.21414" lon="5.77685">
        <ele>114.8</ele>
        <time>2024-06-12T10:10:06Z</time>
      </trkpt>
      <trkpt lat="43.21418" lon="5.77683">
        <ele>114.8</ele>
        <time>2024-06-12T10:10:07Z</time>
      </trkpt>
      <trkpt lat="43.21421" lon="5.7768">
        <ele>114.8</ele>
        <time>2024-06-12T10:10:08Z</time>
      </trkpt>
      <trkpt lat="43.21426" lon="5.77676">
        <ele>114.8</ele>
        <time>2024-06-12T10:10:09Z</time>
      </trkpt>
      <trkpt lat="43.21428" lon="5.77675">
        <ele>114.8</ele>
        <time>2024-06-12T10:10:10Z</time>
      </trkpt>
      <trkpt lat="43.21431" lon="5.77672">
        <ele>115</ele>
        <time>2024-06-12T10:10:11Z</time>
      </trkpt>
      <trkpt lat="43.21434" lon="5.77669">
        <ele>115</ele>
        <time>2024-06-12T10:10:12Z</time>
      </trkpt>
      <trkpt lat="43.21437" lon="5.77667">
        <ele>115</ele>
        <time>2024-06-12T10:10:13Z</time>
      </trkpt>
      <trkpt lat="43.21442" lon="5.77663">
        <ele>115</ele>
        <time>2024-06-12T10:10:14Z</time>
      </trkpt>
      <trkpt lat="43.21443" lon="5.77662">
        <ele>115.2</ele>
        <time>2024-06-12T10:10:15Z</time>
      </trkpt>
      <trkpt lat="43.21448" lon="5.77658">
        <ele>115.2</ele>
        <time>2024-06-12T10:10:16Z</time>
      </trkpt>
      <trkpt lat="43.21449" lon="5.77656">
        <ele>115.2</ele>
        <time>2024-06-12T10:10:17Z</time>
      </trkpt>
      <trkpt lat="43.21453" lon="5.77652">
        <ele>115.6</ele>
        <time>2024-06-12T10:10:18Z</time>
      </trkpt>
      <trkpt lat="43.21455" lon="5.77651">
        <ele>115.4</ele>
        <time>2024-06-12T10:10:19Z</time>
      </trkpt>
      <trkpt lat="43.21458" lon="5.77646">
        <ele>115.4</ele>
        <time>2024-06-12T10:10:20Z</time>
      </trkpt>
      <trkpt lat="43.21458" lon="5.77644">
        <ele>115.4</ele>
        <time>2024-06-12T10:10:21Z</time>
      </trkpt>
      <trkpt lat="43.21457" lon="5.77639">
        <ele>115.6</ele>
        <time>2024-06-12T10:10:22Z</time>
      </trkpt>
      <trkpt lat="43.21456" lon="5.77637">
        <ele>115.4</ele>
        <time>2024-06-12T10:10:23Z</time>
      </trkpt>
      <trkpt lat="43.21451" lon="5.77635">
        <ele>115.4</ele>
        <time>2024-06-12T10:10:24Z</time>
      </trkpt>
      <trkpt lat="43.2145" lon="5.77634">
        <ele>115.4</ele>
        <time>2024-06-12T10:10:25Z</time>
      </trkpt>
      <trkpt lat="43.21446" lon="5.77634">
        <ele>115.4</ele>
        <time>2024-06-12T10:10:26Z</time>
      </trkpt>
      <trkpt lat="43.2144" lon="5.77635">
        <ele>114.8</ele>
        <time>2024-06-12T10:10:27Z</time>
      </trkpt>
      <trkpt lat="43.21438" lon="5.77635">
        <ele>114.8</ele>
        <time>2024-06-12T10:10:28Z</time>
      </trkpt>
      <trkpt lat="43.21433" lon="5.77636">
        <ele>114.8</ele>
        <time>2024-06-12T10:10:29Z</time>
      </trkpt>
      <trkpt lat="43.21427" lon="5.77637">
        <ele>114.8</ele>
        <time>2024-06-12T10:10:30Z</time>
      </trkpt>
      <trkpt lat="43.21425" lon="5.77638">
        <ele>114.8</ele>
        <time>2024-06-12T10:10:31Z</time>
      </trkpt>
      <trkpt lat="43.21418" lon="5.7764">
        <ele>113.8</ele>
        <time>2024-06-12T10:10:32Z</time>
      </trkpt>
      <trkpt lat="43.21416" lon="5.77641">
        <ele>113.8</ele>
        <time>2024-06-12T10:10:33Z</time>
      </trkpt>
      <trkpt lat="43.21409" lon="5.77644">
        <ele>113.8</ele>
        <time>2024-06-12T10:10:34Z</time>
      </trkpt>
      <trkpt lat="43.21407" lon="5.77645">
        <ele>112.8</ele>
        <time>2024-06-12T10:10:35Z</time>
      </trkpt>
      <trkpt lat="43.214" lon="5.77648">
        <ele>112.8</ele>
        <time>2024-06-12T10:10:36Z</time>
      </trkpt>
      <trkpt lat="43.21398" lon="5.7765">
        <ele>112.4</ele>
        <time>2024-06-12T10:10:37Z</time>
      </trkpt>
      <trkpt lat="43.21393" lon="5.77652">
        <ele>112.4</ele>
        <time>2024-06-12T10:10:38Z</time>
      </trkpt>
      <trkpt lat="43.21386" lon="5.77656">
        <ele>112.4</ele>
        <time>2024-06-12T10:10:39Z</time>
      </trkpt>
      <trkpt lat="43.21384" lon="5.77657">
        <ele>112.4</ele>
        <time>2024-06-12T10:10:40Z</time>
      </trkpt>
      <trkpt lat="43.21376" lon="5.77661">
        <ele>111.4</ele>
        <time>2024-06-12T10:10:41Z</time>
      </trkpt>
      <trkpt lat="43.21374" lon="5.77662">
        <ele>111.2</ele>
        <time>2024-06-12T10:10:42Z</time>
      </trkpt>
      <trkpt lat="43.21366" lon="5.77666">
        <ele>111.2</ele>
        <time>2024-06-12T10:10:43Z</time>
      </trkpt>
      <trkpt lat="43.21363" lon="5.77667">
        <ele>111.2</ele>
        <time>2024-06-12T10:10:44Z</time>
      </trkpt>
      <trkpt lat="43.21355" lon="5.7767">
        <ele>110.2</ele>
        <time>2024-06-12T10:10:45Z</time>
      </trkpt>
      <trkpt lat="43.21352" lon="5.77671">
        <ele>109.8</ele>
        <time>2024-06-12T10:10:46Z</time>
      </trkpt>
      <trkpt lat="43.21343" lon="5.77674">
        <ele>109.8</ele>
        <time>2024-06-12T10:10:47Z</time>
      </trkpt>
      <trkpt lat="43.21341" lon="5.77675">
        <ele>109.8</ele>
        <time>2024-06-12T10:10:48Z</time>
      </trkpt>
      <trkpt lat="43.21332" lon="5.77678">
        <ele>109</ele>
        <time>2024-06-12T10:10:49Z</time>
      </trkpt>
      <trkpt lat="43.21329" lon="5.77679">
        <ele>109</ele>
        <time>2024-06-12T10:10:50Z</time>
      </trkpt>
      <trkpt lat="43.21325" lon="5.77682">
        <ele>109.2</ele>
        <time>2024-06-12T10:10:51Z</time>
      </trkpt>
      <trkpt lat="43.21321" lon="5.77686">
        <ele>109.2</ele>
        <time>2024-06-12T10:10:52Z</time>
      </trkpt>
      <trkpt lat="43.21317" lon="5.77691">
        <ele>109.2</ele>
        <time>2024-06-12T10:10:53Z</time>
      </trkpt>
      <trkpt lat="43.21313" lon="5.77694">
        <ele>108.2</ele>
        <time>2024-06-12T10:10:54Z</time>
      </trkpt>
      <trkpt lat="43.21307" lon="5.77701">
        <ele>107.4</ele>
        <time>2024-06-12T10:10:55Z</time>
      </trkpt>
      <trkpt lat="43.21305" lon="5.77703">
        <ele>107.4</ele>
        <time>2024-06-12T10:10:56Z</time>
      </trkpt>
      <trkpt lat="43.21298" lon="5.7771">
        <ele>107.4</ele>
        <time>2024-06-12T10:10:57Z</time>
      </trkpt>
      <trkpt lat="43.21296" lon="5.77712">
        <ele>106.8</ele>
        <time>2024-06-12T10:10:58Z</time>
      </trkpt>
      <trkpt lat="43.2129" lon="5.77719">
        <ele>106.6</ele>
        <time>2024-06-12T10:10:59Z</time>
      </trkpt>
      <trkpt lat="43.21288" lon="5.77721">
        <ele>106.6</ele>
        <time>2024-06-12T10:11:00Z</time>
      </trkpt>
      <trkpt lat="43.21282" lon="5.77728">
        <ele>106.6</ele>
        <time>2024-06-12T10:11:01Z</time>
      </trkpt>
      <trkpt lat="43.2128" lon="5.7773">
        <ele>106.6</ele>
        <time>2024-06-12T10:11:02Z</time>
      </trkpt>
      <trkpt lat="43.21275" lon="5.77736">
        <ele>105.6</ele>
        <time>2024-06-12T10:11:03Z</time>
      </trkpt>
      <trkpt lat="43.21273" lon="5.77738">
        <ele>105</ele>
        <time>2024-06-12T10:11:04Z</time>
      </trkpt>
      <trkpt lat="43.2127" lon="5.77742">
        <ele>105</ele>
        <time>2024-06-12T10:11:05Z</time>
      </trkpt>
      <trkpt lat="43.21268" lon="5.77743">
        <ele>105</ele>
        <time>2024-06-12T10:11:06Z</time>
      </trkpt>
      <trkpt lat="43.21264" lon="5.77747">
        <ele>104</ele>
        <time>2024-06-12T10:11:07Z</time>
      </trkpt>
      <trkpt lat="43.21262" lon="5.77748">
        <ele>104.2</ele>
        <time>2024-06-12T10:11:08Z</time>
      </trkpt>
      <trkpt lat="43.21257" lon="5.77753">
        <ele>104.2</ele>
        <time>2024-06-12T10:11:09Z</time>
      </trkpt>
      <trkpt lat="43.21255" lon="5.77754">
        <ele>104.2</ele>
        <time>2024-06-12T10:11:10Z</time>
      </trkpt>
      <trkpt lat="43.21249" lon="5.77757">
        <ele>104.2</ele>
        <time>2024-06-12T10:11:11Z</time>
      </trkpt>
      <trkpt lat="43.21247" lon="5.77758">
        <ele>103.2</ele>
        <time>2024-06-12T10:11:12Z</time>
      </trkpt>
      <trkpt lat="43.2124" lon="5.7776">
        <ele>102.8</ele>
        <time>2024-06-12T10:11:13Z</time>
      </trkpt>
      <trkpt lat="43.21237" lon="5.77761">
        <ele>102.8</ele>
        <time>2024-06-12T10:11:14Z</time>
      </trkpt>
      <trkpt lat="43.21229" lon="5.77764">
        <ele>102.8</ele>
        <time>2024-06-12T10:11:15Z</time>
      </trkpt>
      <trkpt lat="43.21226" lon="5.77765">
        <ele>102.8</ele>
        <time>2024-06-12T10:11:16Z</time>
      </trkpt>
      <trkpt lat="43.21221" lon="5.77767">
        <ele>102</ele>
        <time>2024-06-12T10:11:17Z</time>
      </trkpt>
      <trkpt lat="43.21217" lon="5.77768">
        <ele>101.8</ele>
        <time>2024-06-12T10:11:18Z</time>
      </trkpt>
      <trkpt lat="43.21214" lon="5.77769">
        <ele>101.8</ele>
        <time>2024-06-12T10:11:19Z</time>
      </trkpt>
      <trkpt lat="43.21211" lon="5.77768">
        <ele>101.8</ele>
        <time>2024-06-12T10:11:20Z</time>
      </trkpt>
      <trkpt lat="43.21208" lon="5.77765">
        <ele>101.8</ele>
        <time>2024-06-12T10:11:21Z</time>
      </trkpt>
      <trkpt lat="43.21207" lon="5.77763">
        <ele>101.8</ele>
        <time>2024-06-12T10:11:22Z</time>
      </trkpt>
      <trkpt lat="43.21204" lon="5.77756">
        <ele>101.4</ele>
        <time>2024-06-12T10:11:23Z</time>
      </trkpt>
      <trkpt lat="43.21203" lon="5.77754">
        <ele>101.4</ele>
        <time>2024-06-12T10:11:24Z</time>
      </trkpt>
      <trkpt lat="43.21201" lon="5.77748">
        <ele>101.4</ele>
        <time>2024-06-12T10:11:25Z</time>
      </trkpt>
      <trkpt lat="43.212" lon="5.77747">
        <ele>101.2</ele>
        <time>2024-06-12T10:11:26Z</time>
      </trkpt>
      <trkpt lat="43.21198" lon="5.77742">
        <ele>101.4</ele>
        <time>2024-06-12T10:11:27Z</time>
      </trkpt>
      <trkpt lat="43.21196" lon="5.77739">
        <ele>101.4</ele>
        <time>2024-06-12T10:11:28Z</time>
      </trkpt>
      <trkpt lat="43.21194" lon="5.77735">
        <ele>101.4</ele>
        <time>2024-06-12T10:11:29Z</time>
      </trkpt>
      <trkpt lat="43.21192" lon="5.77732">
        <ele>101</ele>
        <time>2024-06-12T10:11:30Z</time>
      </trkpt>
      <trkpt lat="43.21189" lon="5.77729">
        <ele>100.8</ele>
        <time>2024-06-12T10:11:31Z</time>
      </trkpt>
      <trkpt lat="43.21187" lon="5.77727">
        <ele>100.8</ele>
        <time>2024-06-12T10:11:32Z</time>
      </trkpt>
      <trkpt lat="43.21184" lon="5.77725">
        <ele>100.8</ele>
        <time>2024-06-12T10:11:33Z</time>
      </trkpt>
      <trkpt lat="43.21181" lon="5.77723">
        <ele>100.8</ele>
        <time>2024-06-12T10:11:34Z</time>
      </trkpt>
      <trkpt lat="43.21178" lon="5.77721">
        <ele>100.8</ele>
        <time>2024-06-12T10:11:35Z</time>
      </trkpt>
      <trkpt lat="43.21176" lon="5.77719">
        <ele>101.2</ele>
        <time>2024-06-12T10:11:36Z</time>
      </trkpt>
      <trkpt lat="43.21174" lon="5.77717">
        <ele>101.2</ele>
        <time>2024-06-12T10:11:37Z</time>
      </trkpt>
      <trkpt lat="43.21171" lon="5.77713">
        <ele>101.2</ele>
        <time>2024-06-12T10:11:38Z</time>
      </trkpt>
      <trkpt lat="43.2117" lon="5.77712">
        <ele>101.4</ele>
        <time>2024-06-12T10:11:39Z</time>
      </trkpt>
      <trkpt lat="43.21166" lon="5.77707">
        <ele>101.4</ele>
        <time>2024-06-12T10:11:40Z</time>
      </trkpt>
      <trkpt lat="43.21165" lon="5.77706">
        <ele>101.4</ele>
        <time>2024-06-12T10:11:41Z</time>
      </trkpt>
      <trkpt lat="43.21161" lon="5.77702">
        <ele>101.4</ele>
        <time>2024-06-12T10:11:42Z</time>
      </trkpt>
      <trkpt lat="43.21159" lon="5.777">
        <ele>101.4</ele>
        <time>2024-06-12T10:11:43Z</time>
      </trkpt>
      <trkpt lat="43.21155" lon="5.77695">
        <ele>101.6</ele>
        <time>2024-06-12T10:11:44Z</time>
      </trkpt>
      <trkpt lat="43.21154" lon="5.77693">
        <ele>102</ele>
        <time>2024-06-12T10:11:45Z</time>
      </trkpt>
      <trkpt lat="43.2115" lon="5.77687">
        <ele>102</ele>
        <time>2024-06-12T10:11:46Z</time>
      </trkpt>
      <trkpt lat="43.21148" lon="5.77685">
        <ele>102</ele>
        <time>2024-06-12T10:11:47Z</time>
      </trkpt>
      <trkpt lat="43.21144" lon="5.7768">
        <ele>101.6</ele>
        <time>2024-06-12T10:11:48Z</time>
      </trkpt>
      <trkpt lat="43.21143" lon="5.77678">
        <ele>101.8</ele>
        <time>2024-06-12T10:11:49Z</time>
      </trkpt>
      <trkpt lat="43.21138" lon="5.77672">
        <ele>101.8</ele>
        <time>2024-06-12T10:11:50Z</time>
      </trkpt>
      <trkpt lat="43.21137" lon="5.7767">
        <ele>101.8</ele>
        <time>2024-06-12T10:11:51Z</time>
      </trkpt>
      <trkpt lat="43.21134" lon="5.77665">
        <ele>101.8</ele>
        <time>2024-06-12T10:11:52Z</time>
      </trkpt>
      <trkpt lat="43.21129" lon="5.77657">
        <ele>101.6</ele>
        <time>2024-06-12T10:11:53Z</time>
      </trkpt>
      <trkpt lat="43.21127" lon="5.77655">
        <ele>101.6</ele>
        <time>2024-06-12T10:11:54Z</time>
      </trkpt>
      <trkpt lat="43.21124" lon="5.77649">
        <ele>101.6</ele>
        <time>2024-06-12T10:11:55Z</time>
      </trkpt>
      <trkpt lat="43.2112" lon="5.7764">
        <ele>101.6</ele>
        <time>2024-06-12T10:11:56Z</time>
      </trkpt>
      <trkpt lat="43.21118" lon="5.77636">
        <ele>101.4</ele>
        <time>2024-06-12T10:11:57Z</time>
      </trkpt>
      <trkpt lat="43.21114" lon="5.77627">
        <ele>101.4</ele>
        <time>2024-06-12T10:11:58Z</time>
      </trkpt>
      <trkpt lat="43.21113" lon="5.77623">
        <ele>101.4</ele>
        <time>2024-06-12T10:11:59Z</time>
      </trkpt>
      <trkpt lat="43.21109" lon="5.77613">
        <ele>101.4</ele>
        <time>2024-06-12T10:12:00Z</time>
      </trkpt>
      <trkpt lat="43.21108" lon="5.77609">
        <ele>101.4</ele>
        <time>2024-06-12T10:12:01Z</time>
      </trkpt>
      <trkpt lat="43.21104" lon="5.77599">
        <ele>101.4</ele>
        <time>2024-06-12T10:12:02Z</time>
      </trkpt>
      <trkpt lat="43.21103" lon="5.77596">
        <ele>101.6</ele>
        <time>2024-06-12T10:12:03Z</time>
      </trkpt>
      <trkpt lat="43.211" lon="5.77589">
        <ele>101.6</ele>
        <time>2024-06-12T10:12:04Z</time>
      </trkpt>
      <trkpt lat="43.21096" lon="5.7758">
        <ele>101.6</ele>
        <time>2024-06-12T10:12:05Z</time>
      </trkpt>
      <trkpt lat="43.21095" lon="5.77577">
        <ele>101.6</ele>
        <time>2024-06-12T10:12:06Z</time>
      </trkpt>
      <trkpt lat="43.21091" lon="5.77567">
        <ele>101.4</ele>
        <time>2024-06-12T10:12:07Z</time>
      </trkpt>
      <trkpt lat="43.2109" lon="5.77564">
        <ele>101.4</ele>
        <time>2024-06-12T10:12:08Z</time>
      </trkpt>
      <trkpt lat="43.21086" lon="5.77556">
        <ele>101.4</ele>
        <time>2024-06-12T10:12:09Z</time>
      </trkpt>
      <trkpt lat="43.21084" lon="5.77553">
        <ele>101.4</ele>
        <time>2024-06-12T10:12:10Z</time>
      </trkpt>
      <trkpt lat="43.2108" lon="5.77545">
        <ele>101.4</ele>
        <time>2024-06-12T10:12:11Z</time>
      </trkpt>
      <trkpt lat="43.21078" lon="5.77542">
        <ele>101.4</ele>
        <time>2024-06-12T10:12:12Z</time>
      </trkpt>
      <trkpt lat="43.21075" lon="5.77537">
        <ele>101.4</ele>
        <time>2024-06-12T10:12:13Z</time>
      </trkpt>
      <trkpt lat="43.21073" lon="5.77533">
        <ele>101.4</ele>
        <time>2024-06-12T10:12:14Z</time>
      </trkpt>
      <trkpt lat="43.2107" lon="5.77528">
        <ele>101.4</ele>
        <time>2024-06-12T10:12:15Z</time>
      </trkpt>
      <trkpt lat="43.21067" lon="5.77523">
        <ele>101.6</ele>
        <time>2024-06-12T10:12:16Z</time>
      </trkpt>
      <trkpt lat="43.21065" lon="5.77519">
        <ele>101.6</ele>
        <time>2024-06-12T10:12:17Z</time>
      </trkpt>
      <trkpt lat="43.21062" lon="5.77514">
        <ele>101.6</ele>
        <time>2024-06-12T10:12:18Z</time>
      </trkpt>
      <trkpt lat="43.2106" lon="5.7751">
        <ele>101.6</ele>
        <time>2024-06-12T10:12:19Z</time>
      </trkpt>
      <trkpt lat="43.21057" lon="5.77506">
        <ele>101.6</ele>
        <time>2024-06-12T10:12:20Z</time>
      </trkpt>
      <trkpt lat="43.21054" lon="5.77502">
        <ele>102</ele>
        <time>2024-06-12T10:12:21Z</time>
      </trkpt>
      <trkpt lat="43.21052" lon="5.77498">
        <ele>102</ele>
        <time>2024-06-12T10:12:22Z</time>
      </trkpt>
      <trkpt lat="43.21047" lon="5.77492">
        <ele>102</ele>
        <time>2024-06-12T10:12:23Z</time>
      </trkpt>
      <trkpt lat="43.21046" lon="5.7749">
        <ele>102.8</ele>
        <time>2024-06-12T10:12:24Z</time>
      </trkpt>
      <trkpt lat="43.21041" lon="5.77485">
        <ele>103.2</ele>
        <time>2024-06-12T10:12:25Z</time>
      </trkpt>
      <trkpt lat="43.2104" lon="5.77483">
        <ele>103.2</ele>
        <time>2024-06-12T10:12:26Z</time>
      </trkpt>
      <trkpt lat="43.21034" lon="5.77478">
        <ele>103.2</ele>
        <time>2024-06-12T10:12:27Z</time>
      </trkpt>
      <trkpt lat="43.21032" lon="5.77477">
        <ele>103.2</ele>
        <time>2024-06-12T10:12:28Z</time>
      </trkpt>
      <trkpt lat="43.21026" lon="5.77474">
        <ele>103.4</ele>
        <time>2024-06-12T10:12:29Z</time>
      </trkpt>
      <trkpt lat="43.21024" lon="5.77473">
        <ele>103.4</ele>
        <time>2024-06-12T10:12:30Z</time>
      </trkpt>
      <trkpt lat="43.21019" lon="5.77469">
        <ele>103.4</ele>
        <time>2024-06-12T10:12:31Z</time>
      </trkpt>
      <trkpt lat="43.21017" lon="5.77468">
        <ele>103.4</ele>
        <time>2024-06-12T10:12:32Z</time>
      </trkpt>
      <trkpt lat="43.21011" lon="5.77464">
        <ele>103.4</ele>
        <time>2024-06-12T10:12:33Z</time>
      </trkpt>
      <trkpt lat="43.2101" lon="5.77463">
        <ele>103.6</ele>
        <time>2024-06-12T10:12:34Z</time>
      </trkpt>
      <trkpt lat="43.21006" lon="5.7746">
        <ele>103.6</ele>
        <time>2024-06-12T10:12:35Z</time>
      </trkpt>
      <trkpt lat="43.21001" lon="5.77457">
        <ele>103.6</ele>
        <time>2024-06-12T10:12:36Z</time>
      </trkpt>
      <trkpt lat="43.20999" lon="5.77455">
        <ele>103.6</ele>
        <time>2024-06-12T10:12:37Z</time>
      </trkpt>
      <trkpt lat="43.20996" lon="5.77453">
        <ele>103.6</ele>
        <time>2024-06-12T10:12:38Z</time>
      </trkpt>
      <trkpt lat="43.20991" lon="5.7745">
        <ele>103.6</ele>
        <time>2024-06-12T10:12:39Z</time>
      </trkpt>
      <trkpt lat="43.20989" lon="5.77449">
        <ele>103.6</ele>
        <time>2024-06-12T10:12:40Z</time>
      </trkpt>
      <trkpt lat="43.20984" lon="5.77446">
        <ele>103.6</ele>
        <time>2024-06-12T10:12:41Z</time>
      </trkpt>
      <trkpt lat="43.20982" lon="5.77445">
        <ele>103.6</ele>
        <time>2024-06-12T10:12:42Z</time>
      </trkpt>
      <trkpt lat="43.20977" lon="5.77443">
        <ele>103.6</ele>
        <time>2024-06-12T10:12:43Z</time>
      </trkpt>
      <trkpt lat="43.20975" lon="5.77443">
        <ele>103.6</ele>
        <time>2024-06-12T10:12:44Z</time>
      </trkpt>
      <trkpt lat="43.20969" lon="5.77441">
        <ele>103.6</ele>
        <time>2024-06-12T10:12:45Z</time>
      </trkpt>
      <trkpt lat="43.20967" lon="5.7744">
        <ele>103.6</ele>
        <time>2024-06-12T10:12:46Z</time>
      </trkpt>
      <trkpt lat="43.20963" lon="5.77439">
        <ele>104</ele>
        <time>2024-06-12T10:12:47Z</time>
      </trkpt>
      <trkpt lat="43.20957" lon="5.77437">
        <ele>104</ele>
        <time>2024-06-12T10:12:48Z</time>
      </trkpt>
      <trkpt lat="43.20955" lon="5.77437">
        <ele>104</ele>
        <time>2024-06-12T10:12:49Z</time>
      </trkpt>
      <trkpt lat="43.2095" lon="5.77435">
        <ele>104</ele>
        <time>2024-06-12T10:12:50Z</time>
      </trkpt>
      <trkpt lat="43.20943" lon="5.77432">
        <ele>104</ele>
        <time>2024-06-12T10:12:51Z</time>
      </trkpt>
      <trkpt lat="43.2094" lon="5.77431">
        <ele>103.8</ele>
        <time>2024-06-12T10:12:52Z</time>
      </trkpt>
      <trkpt lat="43.20932" lon="5.77426">
        <ele>103.8</ele>
        <time>2024-06-12T10:12:53Z</time>
      </trkpt>
      <trkpt lat="43.2093" lon="5.77424">
        <ele>103.8</ele>
        <time>2024-06-12T10:12:54Z</time>
      </trkpt>
      <trkpt lat="43.20924" lon="5.77418">
        <ele>103.4</ele>
        <time>2024-06-12T10:12:55Z</time>
      </trkpt>
      <trkpt lat="43.2092" lon="5.77411">
        <ele>103.4</ele>
        <time>2024-06-12T10:12:56Z</time>
      </trkpt>
      <trkpt lat="43.20917" lon="5.77402">
        <ele>103</ele>
        <time>2024-06-12T10:12:57Z</time>
      </trkpt>
      <trkpt lat="43.20915" lon="5.77392">
        <ele>103</ele>
        <time>2024-06-12T10:12:58Z</time>
      </trkpt>
      <trkpt lat="43.20913" lon="5.77383">
        <ele>103</ele>
        <time>2024-06-12T10:12:59Z</time>
      </trkpt>
      <trkpt lat="43.20913" lon="5.77368">
        <ele>103</ele>
        <time>2024-06-12T10:13:00Z</time>
      </trkpt>
      <trkpt lat="43.20913" lon="5.77363">
        <ele>102.4</ele>
        <time>2024-06-12T10:13:01Z</time>
      </trkpt>
      <trkpt lat="43.20912" lon="5.77348">
        <ele>102.4</ele>
        <time>2024-06-12T10:13:02Z</time>
      </trkpt>
      <trkpt lat="43.20912" lon="5.77343">
        <ele>102.4</ele>
        <time>2024-06-12T10:13:03Z</time>
      </trkpt>
      <trkpt lat="43.20912" lon="5.77334">
        <ele>102.4</ele>
        <time>2024-06-12T10:13:04Z</time>
      </trkpt>
      <trkpt lat="43.20912" lon="5.77319">
        <ele>101.8</ele>
        <time>2024-06-12T10:13:05Z</time>
      </trkpt>
      <trkpt lat="43.20912" lon="5.77314">
        <ele>101.8</ele>
        <time>2024-06-12T10:13:06Z</time>
      </trkpt>
      <trkpt lat="43.20912" lon="5.773">
        <ele>101.8</ele>
        <time>2024-06-12T10:13:07Z</time>
      </trkpt>
      <trkpt lat="43.20912" lon="5.77296">
        <ele>101.8</ele>
        <time>2024-06-12T10:13:08Z</time>
      </trkpt>
      <trkpt lat="43.20912" lon="5.77282">
        <ele>101.6</ele>
        <time>2024-06-12T10:13:09Z</time>
      </trkpt>
      <trkpt lat="43.20912" lon="5.77278">
        <ele>101.8</ele>
        <time>2024-06-12T10:13:10Z</time>
      </trkpt>
      <trkpt lat="43.2091" lon="5.77265">
        <ele>101.8</ele>
        <time>2024-06-12T10:13:11Z</time>
      </trkpt>
      <trkpt lat="43.20909" lon="5.77262">
        <ele>101.8</ele>
        <time>2024-06-12T10:13:12Z</time>
      </trkpt>
      <trkpt lat="43.20906" lon="5.77251">
        <ele>101.2</ele>
        <time>2024-06-12T10:13:13Z</time>
      </trkpt>
      <trkpt lat="43.20904" lon="5.77247">
        <ele>101.6</ele>
        <time>2024-06-12T10:13:14Z</time>
      </trkpt>
      <trkpt lat="43.20899" lon="5.77238">
        <ele>101.6</ele>
        <time>2024-06-12T10:13:15Z</time>
      </trkpt>
      <trkpt lat="43.20897" lon="5.77235">
        <ele>101.6</ele>
        <time>2024-06-12T10:13:16Z</time>
      </trkpt>
      <trkpt lat="43.20893" lon="5.77229">
        <ele>101.6</ele>
        <time>2024-06-12T10:13:17Z</time>
      </trkpt>
      <trkpt lat="43.20887" lon="5.77221">
        <ele>101.2</ele>
        <time>2024-06-12T10:13:18Z</time>
      </trkpt>
      <trkpt lat="43.20885" lon="5.77218">
        <ele>101.2</ele>
        <time>2024-06-12T10:13:19Z</time>
      </trkpt>
      <trkpt lat="43.20878" lon="5.77211">
        <ele>101.2</ele>
        <time>2024-06-12T10:13:20Z</time>
      </trkpt>
      <trkpt lat="43.20876" lon="5.77209">
        <ele>101.2</ele>
        <time>2024-06-12T10:13:21Z</time>
      </trkpt>
      <trkpt lat="43.20869" lon="5.77203">
        <ele>101.2</ele>
        <time>2024-06-12T10:13:22Z</time>
      </trkpt>
      <trkpt lat="43.20866" lon="5.77201">
        <ele>101.2</ele>
        <time>2024-06-12T10:13:23Z</time>
      </trkpt>
      <trkpt lat="43.20858" lon="5.77196">
        <ele>101.2</ele>
        <time>2024-06-12T10:13:24Z</time>
      </trkpt>
      <trkpt lat="43.20856" lon="5.77195">
        <ele>101.2</ele>
        <time>2024-06-12T10:13:25Z</time>
      </trkpt>
      <trkpt lat="43.20848" lon="5.77191">
        <ele>101.2</ele>
        <time>2024-06-12T10:13:26Z</time>
      </trkpt>
      <trkpt lat="43.20845" lon="5.77189">
        <ele>101.2</ele>
        <time>2024-06-12T10:13:27Z</time>
      </trkpt>
      <trkpt lat="43.20838" lon="5.77183">
        <ele>101.6</ele>
        <time>2024-06-12T10:13:28Z</time>
      </trkpt>
      <trkpt lat="43.20836" lon="5.77181">
        <ele>101.6</ele>
        <time>2024-06-12T10:13:29Z</time>
      </trkpt>
      <trkpt lat="43.20831" lon="5.77177">
        <ele>101.6</ele>
        <time>2024-06-12T10:13:30Z</time>
      </trkpt>
      <trkpt lat="43.20823" lon="5.7717">
        <ele>101</ele>
        <time>2024-06-12T10:13:31Z</time>
      </trkpt>
      <trkpt lat="43.2082" lon="5.77169">
        <ele>101</ele>
        <time>2024-06-12T10:13:32Z</time>
      </trkpt>
      <trkpt lat="43.20812" lon="5.77163">
        <ele>101.4</ele>
        <time>2024-06-12T10:13:33Z</time>
      </trkpt>
      <trkpt lat="43.20809" lon="5.77161">
        <ele>101.4</ele>
        <time>2024-06-12T10:13:34Z</time>
      </trkpt>
      <trkpt lat="43.208" lon="5.77155">
        <ele>101.4</ele>
        <time>2024-06-12T10:13:35Z</time>
      </trkpt>
      <trkpt lat="43.20796" lon="5.77154">
        <ele>101</ele>
        <time>2024-06-12T10:13:36Z</time>
      </trkpt>
      <trkpt lat="43.20787" lon="5.77148">
        <ele>101</ele>
        <time>2024-06-12T10:13:37Z</time>
      </trkpt>
      <trkpt lat="43.20783" lon="5.77146">
        <ele>101</ele>
        <time>2024-06-12T10:13:38Z</time>
      </trkpt>
      <trkpt lat="43.20776" lon="5.77142">
        <ele>101</ele>
        <time>2024-06-12T10:13:39Z</time>
      </trkpt>
      <trkpt lat="43.20769" lon="5.77139">
        <ele>100.6</ele>
        <time>2024-06-12T10:13:40Z</time>
      </trkpt>
      <trkpt lat="43.20763" lon="5.77135">
        <ele>100.4</ele>
        <time>2024-06-12T10:13:41Z</time>
      </trkpt>
      <trkpt lat="43.20755" lon="5.77132">
        <ele>100.4</ele>
        <time>2024-06-12T10:13:42Z</time>
      </trkpt>
      <trkpt lat="43.20748" lon="5.77128">
        <ele>100.4</ele>
        <time>2024-06-12T10:13:43Z</time>
      </trkpt>
      <trkpt lat="43.20741" lon="5.77124">
        <ele>100.4</ele>
        <time>2024-06-12T10:13:44Z</time>
      </trkpt>
      <trkpt lat="43.20734" lon="5.77121">
        <ele>100.4</ele>
        <time>2024-06-12T10:13:45Z</time>
      </trkpt>
      <trkpt lat="43.20727" lon="5.77117">
        <ele>99.8</ele>
        <time>2024-06-12T10:13:46Z</time>
      </trkpt>
      <trkpt lat="43.20719" lon="5.77113">
        <ele>99.8</ele>
        <time>2024-06-12T10:13:47Z</time>
      </trkpt>
      <trkpt lat="43.20712" lon="5.77109">
        <ele>99.8</ele>
        <time>2024-06-12T10:13:48Z</time>
      </trkpt>
      <trkpt lat="43.207" lon="5.77103">
        <ele>99.2</ele>
        <time>2024-06-12T10:13:49Z</time>
      </trkpt>
      <trkpt lat="43.20697" lon="5.771">
        <ele>98.4</ele>
        <time>2024-06-12T10:13:50Z</time>
      </trkpt>
      <trkpt lat="43.20685" lon="5.77094">
        <ele>98.4</ele>
        <time>2024-06-12T10:13:51Z</time>
      </trkpt>
      <trkpt lat="43.20681" lon="5.77091">
        <ele>98.4</ele>
        <time>2024-06-12T10:13:52Z</time>
      </trkpt>
      <trkpt lat="43.2067" lon="5.77084">
        <ele>97.6</ele>
        <time>2024-06-12T10:13:53Z</time>
      </trkpt>
      <trkpt lat="43.20666" lon="5.77081">
        <ele>97.4</ele>
        <time>2024-06-12T10:13:54Z</time>
      </trkpt>
      <trkpt lat="43.20659" lon="5.77076">
        <ele>97.4</ele>
        <time>2024-06-12T10:13:55Z</time>
      </trkpt>
      <trkpt lat="43.20648" lon="5.77068">
        <ele>97.4</ele>
        <time>2024-06-12T10:13:56Z</time>
      </trkpt>
      <trkpt lat="43.20645" lon="5.77065">
        <ele>96.4</ele>
        <time>2024-06-12T10:13:57Z</time>
      </trkpt>
      <trkpt lat="43.20638" lon="5.77058">
        <ele>96.4</ele>
        <time>2024-06-12T10:13:58Z</time>
      </trkpt>
      <trkpt lat="43.20629" lon="5.77048">
        <ele>96</ele>
        <time>2024-06-12T10:13:59Z</time>
      </trkpt>
      <trkpt lat="43.20626" lon="5.77044">
        <ele>96</ele>
        <time>2024-06-12T10:14:00Z</time>
      </trkpt>
      <trkpt lat="43.2062" lon="5.77037">
        <ele>96</ele>
        <time>2024-06-12T10:14:01Z</time>
      </trkpt>
      <trkpt lat="43.20613" lon="5.77026">
        <ele>96</ele>
        <time>2024-06-12T10:14:02Z</time>
      </trkpt>
      <trkpt lat="43.2061" lon="5.77022">
        <ele>95.2</ele>
        <time>2024-06-12T10:14:03Z</time>
      </trkpt>
      <trkpt lat="43.20603" lon="5.77012">
        <ele>95.2</ele>
        <time>2024-06-12T10:14:04Z</time>
      </trkpt>
      <trkpt lat="43.20601" lon="5.77008">
        <ele>95.2</ele>
        <time>2024-06-12T10:14:05Z</time>
      </trkpt>
      <trkpt lat="43.20594" lon="5.76997">
        <ele>95</ele>
        <time>2024-06-12T10:14:06Z</time>
      </trkpt>
      <trkpt lat="43.20592" lon="5.76994">
        <ele>94.2</ele>
        <time>2024-06-12T10:14:07Z</time>
      </trkpt>
      <trkpt lat="43.20585" lon="5.76984">
        <ele>94.2</ele>
        <time>2024-06-12T10:14:08Z</time>
      </trkpt>
      <trkpt lat="43.20583" lon="5.76981">
        <ele>94.2</ele>
        <time>2024-06-12T10:14:09Z</time>
      </trkpt>
      <trkpt lat="43.20576" lon="5.76971">
        <ele>94.2</ele>
        <time>2024-06-12T10:14:10Z</time>
      </trkpt>
      <trkpt lat="43.20574" lon="5.76969">
        <ele>94.2</ele>
        <time>2024-06-12T10:14:11Z</time>
      </trkpt>
      <trkpt lat="43.20569" lon="5.76963">
        <ele>94.2</ele>
        <time>2024-06-12T10:14:12Z</time>
      </trkpt>
      <trkpt lat="43.20561" lon="5.76957">
        <ele>94.2</ele>
        <time>2024-06-12T10:14:13Z</time>
      </trkpt>
      <trkpt lat="43.20559" lon="5.76955">
        <ele>94.2</ele>
        <time>2024-06-12T10:14:14Z</time>
      </trkpt>
      <trkpt lat="43.20553" lon="5.76953">
        <ele>94.2</ele>
        <time>2024-06-12T10:14:15Z</time>
      </trkpt>
      <trkpt lat="43.20543" lon="5.76951">
        <ele>94.2</ele>
        <time>2024-06-12T10:14:16Z</time>
      </trkpt>
      <trkpt lat="43.2054" lon="5.76951">
        <ele>94.2</ele>
        <time>2024-06-12T10:14:17Z</time>
      </trkpt>
      <trkpt lat="43.2053" lon="5.76951">
        <ele>94.2</ele>
        <time>2024-06-12T10:14:18Z</time>
      </trkpt>
      <trkpt lat="43.20527" lon="5.7695">
        <ele>94.2</ele>
        <time>2024-06-12T10:14:19Z</time>
      </trkpt>
      <trkpt lat="43.20517" lon="5.7695">
        <ele>93.6</ele>
        <time>2024-06-12T10:14:20Z</time>
      </trkpt>
      <trkpt lat="43.20514" lon="5.76949">
        <ele>93.6</ele>
        <time>2024-06-12T10:14:21Z</time>
      </trkpt>
      <trkpt lat="43.20507" lon="5.76949">
        <ele>92.8</ele>
        <time>2024-06-12T10:14:22Z</time>
      </trkpt>
      <trkpt lat="43.205" lon="5.76948">
        <ele>92.8</ele>
        <time>2024-06-12T10:14:23Z</time>
      </trkpt>
      <trkpt lat="43.20493" lon="5.76947">
        <ele>92.8</ele>
        <time>2024-06-12T10:14:24Z</time>
      </trkpt>
      <trkpt lat="43.20486" lon="5.76946">
        <ele>92.6</ele>
        <time>2024-06-12T10:14:25Z</time>
      </trkpt>
      <trkpt lat="43.20479" lon="5.76945">
        <ele>92.4</ele>
        <time>2024-06-12T10:14:26Z</time>
      </trkpt>
      <trkpt lat="43.20472" lon="5.76944">
        <ele>92.4</ele>
        <time>2024-06-12T10:14:27Z</time>
      </trkpt>
      <trkpt lat="43.20465" lon="5.76944">
        <ele>92.4</ele>
        <time>2024-06-12T10:14:28Z</time>
      </trkpt>
      <trkpt lat="43.20458" lon="5.76943">
        <ele>91.4</ele>
        <time>2024-06-12T10:14:29Z</time>
      </trkpt>
      <trkpt lat="43.20447" lon="5.76943">
        <ele>91.4</ele>
        <time>2024-06-12T10:14:30Z</time>
      </trkpt>
      <trkpt lat="43.20444" lon="5.76944">
        <ele>90.6</ele>
        <time>2024-06-12T10:14:31Z</time>
      </trkpt>
      <trkpt lat="43.20433" lon="5.76944">
        <ele>90.6</ele>
        <time>2024-06-12T10:14:32Z</time>
      </trkpt>
      <trkpt lat="43.20429" lon="5.76945">
        <ele>90.6</ele>
        <time>2024-06-12T10:14:33Z</time>
      </trkpt>
      <trkpt lat="43.20419" lon="5.76946">
        <ele>90.6</ele>
        <time>2024-06-12T10:14:34Z</time>
      </trkpt>
      <trkpt lat="43.20415" lon="5.76946">
        <ele>90.2</ele>
        <time>2024-06-12T10:14:35Z</time>
      </trkpt>
      <trkpt lat="43.20405" lon="5.76946">
        <ele>90.2</ele>
        <time>2024-06-12T10:14:36Z</time>
      </trkpt>
      <trkpt lat="43.20401" lon="5.76946">
        <ele>90.2</ele>
        <time>2024-06-12T10:14:37Z</time>
      </trkpt>
      <trkpt lat="43.2039" lon="5.76946">
        <ele>89.6</ele>
        <time>2024-06-12T10:14:38Z</time>
      </trkpt>
      <trkpt lat="43.20387" lon="5.76946">
        <ele>89.4</ele>
        <time>2024-06-12T10:14:39Z</time>
      </trkpt>
      <trkpt lat="43.20376" lon="5.76946">
        <ele>89.4</ele>
        <time>2024-06-12T10:14:40Z</time>
      </trkpt>
      <trkpt lat="43.20372" lon="5.76947">
        <ele>89.4</ele>
        <time>2024-06-12T10:14:41Z</time>
      </trkpt>
      <trkpt lat="43.20365" lon="5.76947">
        <ele>89.4</ele>
        <time>2024-06-12T10:14:42Z</time>
      </trkpt>
      <trkpt lat="43.20355" lon="5.76949">
        <ele>88.8</ele>
        <time>2024-06-12T10:14:43Z</time>
      </trkpt>
      <trkpt lat="43.20351" lon="5.7695">
        <ele>88.2</ele>
        <time>2024-06-12T10:14:44Z</time>
      </trkpt>
      <trkpt lat="43.20342" lon="5.76955">
        <ele>88.2</ele>
        <time>2024-06-12T10:14:45Z</time>
      </trkpt>
      <trkpt lat="43.20338" lon="5.76957">
        <ele>88.2</ele>
        <time>2024-06-12T10:14:46Z</time>
      </trkpt>
      <trkpt lat="43.20329" lon="5.76963">
        <ele>87.4</ele>
        <time>2024-06-12T10:14:47Z</time>
      </trkpt>
      <trkpt lat="43.20326" lon="5.76964">
        <ele>87.6</ele>
        <time>2024-06-12T10:14:48Z</time>
      </trkpt>
      <trkpt lat="43.20316" lon="5.76968">
        <ele>87.6</ele>
        <time>2024-06-12T10:14:49Z</time>
      </trkpt>
      <trkpt lat="43.20312" lon="5.76968">
        <ele>87.6</ele>
        <time>2024-06-12T10:14:50Z</time>
      </trkpt>
      <trkpt lat="43.20301" lon="5.76968">
        <ele>86.6</ele>
        <time>2024-06-12T10:14:51Z</time>
      </trkpt>
      <trkpt lat="43.20298" lon="5.76967">
        <ele>86.6</ele>
        <time>2024-06-12T10:14:52Z</time>
      </trkpt>
      <trkpt lat="43.20287" lon="5.76964">
        <ele>86.4</ele>
        <time>2024-06-12T10:14:53Z</time>
      </trkpt>
      <trkpt lat="43.20283" lon="5.76963">
        <ele>86.4</ele>
        <time>2024-06-12T10:14:54Z</time>
      </trkpt>
      <trkpt lat="43.20275" lon="5.76961">
        <ele>86.4</ele>
        <time>2024-06-12T10:14:55Z</time>
      </trkpt>
      <trkpt lat="43.20264" lon="5.76955">
        <ele>86.4</ele>
        <time>2024-06-12T10:14:56Z</time>
      </trkpt>
      <trkpt lat="43.20261" lon="5.76952">
        <ele>86.2</ele>
        <time>2024-06-12T10:14:57Z</time>
      </trkpt>
      <trkpt lat="43.20251" lon="5.76943">
        <ele>86</ele>
        <time>2024-06-12T10:14:58Z</time>
      </trkpt>
      <trkpt lat="43.20249" lon="5.76938">
        <ele>86</ele>
        <time>2024-06-12T10:14:59Z</time>
      </trkpt>
      <trkpt lat="43.20243" lon="5.76925">
        <ele>86</ele>
        <time>2024-06-12T10:15:00Z</time>
      </trkpt>
      <trkpt lat="43.20242" lon="5.7692">
        <ele>85.6</ele>
        <time>2024-06-12T10:15:01Z</time>
      </trkpt>
      <trkpt lat="43.20239" lon="5.76904">
        <ele>85</ele>
        <time>2024-06-12T10:15:02Z</time>
      </trkpt>
      <trkpt lat="43.20238" lon="5.76899">
        <ele>85</ele>
        <time>2024-06-12T10:15:03Z</time>
      </trkpt>
      <trkpt lat="43.20235" lon="5.76889">
        <ele>85</ele>
        <time>2024-06-12T10:15:04Z</time>
      </trkpt>
      <trkpt lat="43.20232" lon="5.7688">
        <ele>84.6</ele>
        <time>2024-06-12T10:15:05Z</time>
      </trkpt>
      <trkpt lat="43.20228" lon="5.76871">
        <ele>84.2</ele>
        <time>2024-06-12T10:15:06Z</time>
      </trkpt>
      <trkpt lat="43.20223" lon="5.76863">
        <ele>84.2</ele>
        <time>2024-06-12T10:15:07Z</time>
      </trkpt>
      <trkpt lat="43.20218" lon="5.76856">
        <ele>84.2</ele>
        <time>2024-06-12T10:15:08Z</time>
      </trkpt>
      <trkpt lat="43.20212" lon="5.76849">
        <ele>84.2</ele>
        <time>2024-06-12T10:15:09Z</time>
      </trkpt>
      <trkpt lat="43.20206" lon="5.76842">
        <ele>83.6</ele>
        <time>2024-06-12T10:15:10Z</time>
      </trkpt>
      <trkpt lat="43.202" lon="5.76835">
        <ele>83.2</ele>
        <time>2024-06-12T10:15:11Z</time>
      </trkpt>
      <trkpt lat="43.20194" lon="5.76827">
        <ele>83.2</ele>
        <time>2024-06-12T10:15:12Z</time>
      </trkpt>
      <trkpt lat="43.20188" lon="5.7682">
        <ele>83.2</ele>
        <time>2024-06-12T10:15:13Z</time>
      </trkpt>
      <trkpt lat="43.20179" lon="5.7681">
        <ele>83.2</ele>
        <time>2024-06-12T10:15:14Z</time>
      </trkpt>
      <trkpt lat="43.20176" lon="5.76807">
        <ele>82.2</ele>
        <time>2024-06-12T10:15:15Z</time>
      </trkpt>
      <trkpt lat="43.20167" lon="5.76797">
        <ele>82.2</ele>
        <time>2024-06-12T10:15:16Z</time>
      </trkpt>
      <trkpt lat="43.20163" lon="5.76795">
        <ele>82.2</ele>
        <time>2024-06-12T10:15:17Z</time>
      </trkpt>
      <trkpt lat="43.20153" lon="5.76788">
        <ele>82.2</ele>
        <time>2024-06-12T10:15:18Z</time>
      </trkpt>
      <trkpt lat="43.2015" lon="5.76787">
        <ele>82.2</ele>
        <time>2024-06-12T10:15:19Z</time>
      </trkpt>
      <trkpt lat="43.20139" lon="5.76783">
        <ele>81.8</ele>
        <time>2024-06-12T10:15:20Z</time>
      </trkpt>
      <trkpt lat="43.20136" lon="5.76782">
        <ele>81.8</ele>
        <time>2024-06-12T10:15:21Z</time>
      </trkpt>
      <trkpt lat="43.20126" lon="5.76779">
        <ele>81.8</ele>
        <time>2024-06-12T10:15:22Z</time>
      </trkpt>
      <trkpt lat="43.20123" lon="5.76778">
        <ele>82.2</ele>
        <time>2024-06-12T10:15:23Z</time>
      </trkpt>
      <trkpt lat="43.20115" lon="5.76774">
        <ele>82.4</ele>
        <time>2024-06-12T10:15:24Z</time>
      </trkpt>
      <trkpt lat="43.20112" lon="5.76772">
        <ele>82.4</ele>
        <time>2024-06-12T10:15:25Z</time>
      </trkpt>
      <trkpt lat="43.20107" lon="5.76769">
        <ele>82.4</ele>
        <time>2024-06-12T10:15:26Z</time>
      </trkpt>
      <trkpt lat="43.201" lon="5.76764">
        <ele>82.4</ele>
        <time>2024-06-12T10:15:27Z</time>
      </trkpt>
      <trkpt lat="43.20098" lon="5.76762">
        <ele>82.2</ele>
        <time>2024-06-12T10:15:28Z</time>
      </trkpt>
      <trkpt lat="43.20092" lon="5.76757">
        <ele>82.2</ele>
        <time>2024-06-12T10:15:29Z</time>
      </trkpt>
      <trkpt lat="43.2009" lon="5.76755">
        <ele>82.2</ele>
        <time>2024-06-12T10:15:30Z</time>
      </trkpt>
      <trkpt lat="43.20084" lon="5.7675">
        <ele>82.2</ele>
        <time>2024-06-12T10:15:31Z</time>
      </trkpt>
      <trkpt lat="43.20082" lon="5.76748">
        <ele>82.2</ele>
        <time>2024-06-12T10:15:32Z</time>
      </trkpt>
      <trkpt lat="43.20076" lon="5.76744">
        <ele>82.6</ele>
        <time>2024-06-12T10:15:33Z</time>
      </trkpt>
      <trkpt lat="43.20074" lon="5.76742">
        <ele>82.6</ele>
        <time>2024-06-12T10:15:34Z</time>
      </trkpt>
      <trkpt lat="43.20069" lon="5.76738">
        <ele>82.6</ele>
        <time>2024-06-12T10:15:35Z</time>
      </trkpt>
      <trkpt lat="43.20067" lon="5.76737">
        <ele>82.6</ele>
        <time>2024-06-12T10:15:36Z</time>
      </trkpt>
      <trkpt lat="43.20063" lon="5.76733">
        <ele>82.6</ele>
        <time>2024-06-12T10:15:37Z</time>
      </trkpt>
      <trkpt lat="43.20058" lon="5.76727">
        <ele>82.6</ele>
        <time>2024-06-12T10:15:38Z</time>
      </trkpt>
      <trkpt lat="43.20056" lon="5.76725">
        <ele>82.6</ele>
        <time>2024-06-12T10:15:39Z</time>
      </trkpt>
      <trkpt lat="43.20052" lon="5.76722">
        <ele>82.6</ele>
        <time>2024-06-12T10:15:40Z</time>
      </trkpt>
      <trkpt lat="43.20047" lon="5.76716">
        <ele>82.8</ele>
        <time>2024-06-12T10:15:41Z</time>
      </trkpt>
      <trkpt lat="43.20045" lon="5.76714">
        <ele>82.8</ele>
        <time>2024-06-12T10:15:42Z</time>
      </trkpt>
      <trkpt lat="43.20039" lon="5.76708">
        <ele>82.8</ele>
        <time>2024-06-12T10:15:43Z</time>
      </trkpt>
      <trkpt lat="43.20037" lon="5.76706">
        <ele>82.8</ele>
        <time>2024-06-12T10:15:44Z</time>
      </trkpt>
      <trkpt lat="43.20032" lon="5.76698">
        <ele>82.8</ele>
        <time>2024-06-12T10:15:45Z</time>
      </trkpt>
      <trkpt lat="43.20031" lon="5.76695">
        <ele>82.8</ele>
        <time>2024-06-12T10:15:46Z</time>
      </trkpt>
      <trkpt lat="43.20028" lon="5.76689">
        <ele>82.6</ele>
        <time>2024-06-12T10:15:47Z</time>
      </trkpt>
      <trkpt lat="43.20025" lon="5.76683">
        <ele>82.6</ele>
        <time>2024-06-12T10:15:48Z</time>
      </trkpt>
      <trkpt lat="43.20021" lon="5.76673">
        <ele>82.6</ele>
        <time>2024-06-12T10:15:49Z</time>
      </trkpt>
      <trkpt lat="43.20019" lon="5.76669">
        <ele>82.6</ele>
        <time>2024-06-12T10:15:50Z</time>
      </trkpt>
      <trkpt lat="43.20016" lon="5.76663">
        <ele>82.2</ele>
        <time>2024-06-12T10:15:51Z</time>
      </trkpt>
      <trkpt lat="43.20014" lon="5.76656">
        <ele>82.2</ele>
        <time>2024-06-12T10:15:52Z</time>
      </trkpt>
      <trkpt lat="43.20011" lon="5.76649">
        <ele>82.2</ele>
        <time>2024-06-12T10:15:53Z</time>
      </trkpt>
      <trkpt lat="43.20009" lon="5.76642">
        <ele>82.2</ele>
        <time>2024-06-12T10:15:54Z</time>
      </trkpt>
      <trkpt lat="43.20006" lon="5.76635">
        <ele>82.2</ele>
        <time>2024-06-12T10:15:55Z</time>
      </trkpt>
      <trkpt lat="43.20004" lon="5.76627">
        <ele>82.2</ele>
        <time>2024-06-12T10:15:56Z</time>
      </trkpt>
      <trkpt lat="43.20001" lon="5.76616">
        <ele>82.2</ele>
        <time>2024-06-12T10:15:57Z</time>
      </trkpt>
      <trkpt lat="43.19999" lon="5.76612">
        <ele>82.2</ele>
        <time>2024-06-12T10:15:58Z</time>
      </trkpt>
      <trkpt lat="43.19996" lon="5.76599">
        <ele>81.6</ele>
        <time>2024-06-12T10:15:59Z</time>
      </trkpt>
      <trkpt lat="43.19995" lon="5.76595">
        <ele>81.6</ele>
        <time>2024-06-12T10:16:00Z</time>
      </trkpt>
      <trkpt lat="43.19993" lon="5.76581">
        <ele>81.6</ele>
        <time>2024-06-12T10:16:01Z</time>
      </trkpt>
      <trkpt lat="43.19993" lon="5.76576">
        <ele>81.6</ele>
        <time>2024-06-12T10:16:02Z</time>
      </trkpt>
      <trkpt lat="43.19992" lon="5.76562">
        <ele>81.2</ele>
        <time>2024-06-12T10:16:03Z</time>
      </trkpt>
      <trkpt lat="43.19993" lon="5.76558">
        <ele>81.2</ele>
        <time>2024-06-12T10:16:04Z</time>
      </trkpt>
      <trkpt lat="43.19994" lon="5.76544">
        <ele>81.2</ele>
        <time>2024-06-12T10:16:05Z</time>
      </trkpt>
      <trkpt lat="43.19994" lon="5.76539">
        <ele>81.2</ele>
        <time>2024-06-12T10:16:06Z</time>
      </trkpt>
      <trkpt lat="43.19995" lon="5.76524">
        <ele>81.2</ele>
        <time>2024-06-12T10:16:07Z</time>
      </trkpt>
      <trkpt lat="43.19995" lon="5.7652">
        <ele>81.2</ele>
        <time>2024-06-12T10:16:08Z</time>
      </trkpt>
      <trkpt lat="43.19996" lon="5.76505">
        <ele>80.8</ele>
        <time>2024-06-12T10:16:09Z</time>
      </trkpt>
      <trkpt lat="43.19996" lon="5.765">
        <ele>80.8</ele>
        <time>2024-06-12T10:16:10Z</time>
      </trkpt>
      <trkpt lat="43.19997" lon="5.7649">
        <ele>80.8</ele>
        <time>2024-06-12T10:16:11Z</time>
      </trkpt>
      <trkpt lat="43.19998" lon="5.76481">
        <ele>80.6</ele>
        <time>2024-06-12T10:16:12Z</time>
      </trkpt>
      <trkpt lat="43.19998" lon="5.76465">
        <ele>80.2</ele>
        <time>2024-06-12T10:16:13Z</time>
      </trkpt>
      <trkpt lat="43.19999" lon="5.7646">
        <ele>80.2</ele>
        <time>2024-06-12T10:16:14Z</time>
      </trkpt>
      <trkpt lat="43.2" lon="5.7645">
        <ele>80.2</ele>
        <time>2024-06-12T10:16:15Z</time>
      </trkpt>
      <trkpt lat="43.2" lon="5.7644">
        <ele>80.2</ele>
        <time>2024-06-12T10:16:16Z</time>
      </trkpt>
      <trkpt lat="43.20001" lon="5.76425">
        <ele>80.2</ele>
        <time>2024-06-12T10:16:17Z</time>
      </trkpt>
      <trkpt lat="43.20002" lon="5.7642">
        <ele>80.2</ele>
        <time>2024-06-12T10:16:18Z</time>
      </trkpt>
      <trkpt lat="43.20003" lon="5.76405">
        <ele>80.2</ele>
        <time>2024-06-12T10:16:19Z</time>
      </trkpt>
      <trkpt lat="43.20003" lon="5.764">
        <ele>80.2</ele>
        <time>2024-06-12T10:16:20Z</time>
      </trkpt>
      <trkpt lat="43.20004" lon="5.76385">
        <ele>80.2</ele>
        <time>2024-06-12T10:16:21Z</time>
      </trkpt>
      <trkpt lat="43.20004" lon="5.7638">
        <ele>80.2</ele>
        <time>2024-06-12T10:16:22Z</time>
      </trkpt>
      <trkpt lat="43.20005" lon="5.76366">
        <ele>79.8</ele>
        <time>2024-06-12T10:16:23Z</time>
      </trkpt>
      <trkpt lat="43.20005" lon="5.76361">
        <ele>79.8</ele>
        <time>2024-06-12T10:16:24Z</time>
      </trkpt>
      <trkpt lat="43.20005" lon="5.76347">
        <ele>79.8</ele>
        <time>2024-06-12T10:16:25Z</time>
      </trkpt>
      <trkpt lat="43.20005" lon="5.76343">
        <ele>79.8</ele>
        <time>2024-06-12T10:16:26Z</time>
      </trkpt>
      <trkpt lat="43.20005" lon="5.76334">
        <ele>78.6</ele>
        <time>2024-06-12T10:16:27Z</time>
      </trkpt>
      <trkpt lat="43.20007" lon="5.76326">
        <ele>78.6</ele>
        <time>2024-06-12T10:16:28Z</time>
      </trkpt>
      <trkpt lat="43.20008" lon="5.76318">
        <ele>78.6</ele>
        <time>2024-06-12T10:16:29Z</time>
      </trkpt>
      <trkpt lat="43.20007" lon="5.7631">
        <ele>79</ele>
        <time>2024-06-12T10:16:30Z</time>
      </trkpt>
      <trkpt lat="43.20004" lon="5.76304">
        <ele>78.4</ele>
        <time>2024-06-12T10:16:31Z</time>
      </trkpt>
      <trkpt lat="43.2" lon="5.763">
        <ele>78.4</ele>
        <time>2024-06-12T10:16:32Z</time>
      </trkpt>
      <trkpt lat="43.19995" lon="5.76299">
        <ele>78.4</ele>
        <time>2024-06-12T10:16:33Z</time>
      </trkpt>
      <trkpt lat="43.19989" lon="5.76299">
        <ele>78.4</ele>
        <time>2024-06-12T10:16:34Z</time>
      </trkpt>
      <trkpt lat="43.19983" lon="5.76299">
        <ele>78.4</ele>
        <time>2024-06-12T10:16:35Z</time>
      </trkpt>
      <trkpt lat="43.19978" lon="5.763">
        <ele>78.2</ele>
        <time>2024-06-12T10:16:36Z</time>
      </trkpt>
      <trkpt lat="43.19972" lon="5.763">
        <ele>78.2</ele>
        <time>2024-06-12T10:16:37Z</time>
      </trkpt>
      <trkpt lat="43.19966" lon="5.763">
        <ele>78.2</ele>
        <time>2024-06-12T10:16:38Z</time>
      </trkpt>
      <trkpt lat="43.19958" lon="5.76301">
        <ele>78.2</ele>
        <time>2024-06-12T10:16:39Z</time>
      </trkpt>
      <trkpt lat="43.19955" lon="5.76302">
        <ele>77.6</ele>
        <time>2024-06-12T10:16:40Z</time>
      </trkpt>
      <trkpt lat="43.19946" lon="5.76304">
        <ele>77.6</ele>
        <time>2024-06-12T10:16:41Z</time>
      </trkpt>
      <trkpt lat="43.19943" lon="5.76305">
        <ele>77.6</ele>
        <time>2024-06-12T10:16:42Z</time>
      </trkpt>
      <trkpt lat="43.19934" lon="5.76307">
        <ele>77.6</ele>
        <time>2024-06-12T10:16:43Z</time>
      </trkpt>
      <trkpt lat="43.19931" lon="5.76308">
        <ele>77.6</ele>
        <time>2024-06-12T10:16:44Z</time>
      </trkpt>
      <trkpt lat="43.19923" lon="5.76311">
        <ele>77.2</ele>
        <time>2024-06-12T10:16:45Z</time>
      </trkpt>
      <trkpt lat="43.1992" lon="5.76312">
        <ele>77.2</ele>
        <time>2024-06-12T10:16:46Z</time>
      </trkpt>
      <trkpt lat="43.19912" lon="5.76315">
        <ele>77.2</ele>
        <time>2024-06-12T10:16:47Z</time>
      </trkpt>
      <trkpt lat="43.19909" lon="5.76316">
        <ele>77</ele>
        <time>2024-06-12T10:16:48Z</time>
      </trkpt>
      <trkpt lat="43.19901" lon="5.76319">
        <ele>76.8</ele>
        <time>2024-06-12T10:16:49Z</time>
      </trkpt>
      <trkpt lat="43.19899" lon="5.7632">
        <ele>76.8</ele>
        <time>2024-06-12T10:16:50Z</time>
      </trkpt>
      <trkpt lat="43.19891" lon="5.76323">
        <ele>76.8</ele>
        <time>2024-06-12T10:16:51Z</time>
      </trkpt>
      <trkpt lat="43.19889" lon="5.76324">
        <ele>76.4</ele>
        <time>2024-06-12T10:16:52Z</time>
      </trkpt>
      <trkpt lat="43.19886" lon="5.76324">
        <ele>76.2</ele>
        <time>2024-06-12T10:16:53Z</time>
      </trkpt>
      <trkpt lat="43.19884" lon="5.76324">
        <ele>76.2</ele>
        <time>2024-06-12T10:16:54Z</time>
      </trkpt>
      <trkpt lat="43.19883" lon="5.76324">
        <ele>76.2</ele>
        <time>2024-06-12T10:16:55Z</time>
      </trkpt>
      <trkpt lat="43.1988" lon="5.76326">
        <ele>76.2</ele>
        <time>2024-06-12T10:16:56Z</time>
      </trkpt>
      <trkpt lat="43.19877" lon="5.76327">
        <ele>75.8</ele>
        <time>2024-06-12T10:16:57Z</time>
      </trkpt>
      <trkpt lat="43.19875" lon="5.76328">
        <ele>75.4</ele>
        <time>2024-06-12T10:16:58Z</time>
      </trkpt>
      <trkpt lat="43.19872" lon="5.76329">
        <ele>77.8</ele>
        <time>2024-06-12T10:18:06Z</time>
      </trkpt>
      <trkpt lat="43.1987" lon="5.7633">
        <ele>77.6</ele>
        <time>2024-06-12T10:18:07Z</time>
      </trkpt>
      <trkpt lat="43.19867" lon="5.76331">
        <ele>77.6</ele>
        <time>2024-06-12T10:18:08Z</time>
      </trkpt>
      <trkpt lat="43.19862" lon="5.76333">
        <ele>77</ele>
        <time>2024-06-12T10:18:09Z</time>
      </trkpt>
      <trkpt lat="43.1986" lon="5.76334">
        <ele>77</ele>
        <time>2024-06-12T10:18:10Z</time>
      </trkpt>
      <trkpt lat="43.19854" lon="5.76336">
        <ele>76.6</ele>
        <time>2024-06-12T10:18:11Z</time>
      </trkpt>
      <trkpt lat="43.19851" lon="5.76337">
        <ele>76.6</ele>
        <time>2024-06-12T10:18:12Z</time>
      </trkpt>
      <trkpt lat="43.19845" lon="5.7634">
        <ele>76.6</ele>
        <time>2024-06-12T10:18:13Z</time>
      </trkpt>
      <trkpt lat="43.19842" lon="5.76341">
        <ele>76</ele>
        <time>2024-06-12T10:18:14Z</time>
      </trkpt>
      <trkpt lat="43.19837" lon="5.76343">
        <ele>75.8</ele>
        <time>2024-06-12T10:18:15Z</time>
      </trkpt>
      <trkpt lat="43.19832" lon="5.76345">
        <ele>75.8</ele>
        <time>2024-06-12T10:18:16Z</time>
      </trkpt>
      <trkpt lat="43.19826" lon="5.76346">
        <ele>75.8</ele>
        <time>2024-06-12T10:18:17Z</time>
      </trkpt>
      <trkpt lat="43.19821" lon="5.76348">
        <ele>75</ele>
        <time>2024-06-12T10:18:18Z</time>
      </trkpt>
      <trkpt lat="43.19815" lon="5.7635">
        <ele>75</ele>
        <time>2024-06-12T10:18:19Z</time>
      </trkpt>
      <trkpt lat="43.1981" lon="5.76352">
        <ele>74.6</ele>
        <time>2024-06-12T10:18:20Z</time>
      </trkpt>
      <trkpt lat="43.19804" lon="5.76353">
        <ele>74.6</ele>
        <time>2024-06-12T10:18:21Z</time>
      </trkpt>
      <trkpt lat="43.19798" lon="5.76353">
        <ele>74.6</ele>
        <time>2024-06-12T10:18:22Z</time>
      </trkpt>
      <trkpt lat="43.19788" lon="5.76352">
        <ele>73.6</ele>
        <time>2024-06-12T10:18:23Z</time>
      </trkpt>
      <trkpt lat="43.19784" lon="5.76352">
        <ele>73.4</ele>
        <time>2024-06-12T10:18:24Z</time>
      </trkpt>
      <trkpt lat="43.19775" lon="5.76349">
        <ele>73.4</ele>
        <time>2024-06-12T10:18:25Z</time>
      </trkpt>
      <trkpt lat="43.19771" lon="5.76348">
        <ele>73.4</ele>
        <time>2024-06-12T10:18:26Z</time>
      </trkpt>
      <trkpt lat="43.19761" lon="5.76345">
        <ele>72.4</ele>
        <time>2024-06-12T10:18:27Z</time>
      </trkpt>
      <trkpt lat="43.19758" lon="5.76344">
        <ele>72.6</ele>
        <time>2024-06-12T10:18:28Z</time>
      </trkpt>
      <trkpt lat="43.19748" lon="5.76339">
        <ele>72.6</ele>
        <time>2024-06-12T10:18:29Z</time>
      </trkpt>
      <trkpt lat="43.19744" lon="5.76338">
        <ele>72.6</ele>
        <time>2024-06-12T10:18:30Z</time>
      </trkpt>
      <trkpt lat="43.19734" lon="5.76332">
        <ele>72.6</ele>
        <time>2024-06-12T10:18:31Z</time>
      </trkpt>
      <trkpt lat="43.19731" lon="5.7633">
        <ele>72.6</ele>
        <time>2024-06-12T10:18:32Z</time>
      </trkpt>
      <trkpt lat="43.19722" lon="5.76322">
        <ele>72</ele>
        <time>2024-06-12T10:18:33Z</time>
      </trkpt>
      <trkpt lat="43.19719" lon="5.76319">
        <ele>72</ele>
        <time>2024-06-12T10:18:34Z</time>
      </trkpt>
      <trkpt lat="43.19713" lon="5.76313">
        <ele>72</ele>
        <time>2024-06-12T10:18:35Z</time>
      </trkpt>
      <trkpt lat="43.19707" lon="5.76306">
        <ele>71.8</ele>
        <time>2024-06-12T10:18:36Z</time>
      </trkpt>
      <trkpt lat="43.19702" lon="5.76299">
        <ele>71</ele>
        <time>2024-06-12T10:18:37Z</time>
      </trkpt>
      <trkpt lat="43.19694" lon="5.76288">
        <ele>71</ele>
        <time>2024-06-12T10:18:38Z</time>
      </trkpt>
      <trkpt lat="43.19691" lon="5.76284">
        <ele>71</ele>
        <time>2024-06-12T10:18:39Z</time>
      </trkpt>
      <trkpt lat="43.19686" lon="5.76277">
        <ele>70.4</ele>
        <time>2024-06-12T10:18:40Z</time>
      </trkpt>
      <trkpt lat="43.19681" lon="5.7627">
        <ele>70.2</ele>
        <time>2024-06-12T10:18:41Z</time>
      </trkpt>
      <trkpt lat="43.19676" lon="5.76263">
        <ele>70.2</ele>
        <time>2024-06-12T10:18:42Z</time>
      </trkpt>
      <trkpt lat="43.19671" lon="5.76258">
        <ele>70.2</ele>
        <time>2024-06-12T10:18:43Z</time>
      </trkpt>
      <trkpt lat="43.19665" lon="5.76254">
        <ele>70.2</ele>
        <time>2024-06-12T10:18:44Z</time>
      </trkpt>
      <trkpt lat="43.19655" lon="5.76249">
        <ele>69.6</ele>
        <time>2024-06-12T10:18:45Z</time>
      </trkpt>
      <trkpt lat="43.19652" lon="5.76248">
        <ele>70</ele>
        <time>2024-06-12T10:18:46Z</time>
      </trkpt>
      <trkpt lat="43.19646" lon="5.76246">
        <ele>70</ele>
        <time>2024-06-12T10:18:47Z</time>
      </trkpt>
      <trkpt lat="43.19637" lon="5.76243">
        <ele>70</ele>
        <time>2024-06-12T10:18:48Z</time>
      </trkpt>
      <trkpt lat="43.19634" lon="5.76243">
        <ele>70</ele>
        <time>2024-06-12T10:18:49Z</time>
      </trkpt>
      <trkpt lat="43.19626" lon="5.76242">
        <ele>70.8</ele>
        <time>2024-06-12T10:18:50Z</time>
      </trkpt>
      <trkpt lat="43.19623" lon="5.76242">
        <ele>70.8</ele>
        <time>2024-06-12T10:18:51Z</time>
      </trkpt>
      <trkpt lat="43.19616" lon="5.76242">
        <ele>70.8</ele>
        <time>2024-06-12T10:18:52Z</time>
      </trkpt>
      <trkpt lat="43.19614" lon="5.76242">
        <ele>70.8</ele>
        <time>2024-06-12T10:18:53Z</time>
      </trkpt>
      <trkpt lat="43.19608" lon="5.76243">
        <ele>71.8</ele>
        <time>2024-06-12T10:18:54Z</time>
      </trkpt>
      <trkpt lat="43.19606" lon="5.76244">
        <ele>72</ele>
        <time>2024-06-12T10:18:55Z</time>
      </trkpt>
      <trkpt lat="43.19603" lon="5.76245">
        <ele>72</ele>
        <time>2024-06-12T10:18:56Z</time>
      </trkpt>
      <trkpt lat="43.19599" lon="5.76246">
        <ele>72</ele>
        <time>2024-06-12T10:18:57Z</time>
      </trkpt>
      <trkpt lat="43.19596" lon="5.76247">
        <ele>72.8</ele>
        <time>2024-06-12T10:18:58Z</time>
      </trkpt>
      <trkpt lat="43.19593" lon="5.76248">
        <ele>73</ele>
        <time>2024-06-12T10:18:59Z</time>
      </trkpt>
      <trkpt lat="43.1959" lon="5.76249">
        <ele>73</ele>
        <time>2024-06-12T10:19:00Z</time>
      </trkpt>
      <trkpt lat="43.19587" lon="5.76251">
        <ele>73</ele>
        <time>2024-06-12T10:19:01Z</time>
      </trkpt>
      <trkpt lat="43.19583" lon="5.76253">
        <ele>73</ele>
        <time>2024-06-12T10:19:02Z</time>
      </trkpt>
      <trkpt lat="43.1958" lon="5.76254">
        <ele>74</ele>
        <time>2024-06-12T10:19:03Z</time>
      </trkpt>
      <trkpt lat="43.19577" lon="5.76256">
        <ele>73.8</ele>
        <time>2024-06-12T10:19:04Z</time>
      </trkpt>
      <trkpt lat="43.19574" lon="5.76257">
        <ele>73.8</ele>
        <time>2024-06-12T10:19:05Z</time>
      </trkpt>
      <trkpt lat="43.1957" lon="5.76259">
        <ele>73.8</ele>
        <time>2024-06-12T10:19:06Z</time>
      </trkpt>
      <trkpt lat="43.19568" lon="5.76259">
        <ele>74.2</ele>
        <time>2024-06-12T10:19:07Z</time>
      </trkpt>
      <trkpt lat="43.19563" lon="5.76261">
        <ele>74.4</ele>
        <time>2024-06-12T10:19:08Z</time>
      </trkpt>
      <trkpt lat="43.19562" lon="5.76262">
        <ele>74.4</ele>
        <time>2024-06-12T10:19:09Z</time>
      </trkpt>
      <trkpt lat="43.19559" lon="5.76263">
        <ele>74.4</ele>
        <time>2024-06-12T10:19:10Z</time>
      </trkpt>
      <trkpt lat="43.19556" lon="5.76264">
        <ele>75.2</ele>
        <time>2024-06-12T10:19:11Z</time>
      </trkpt>
      <trkpt lat="43.19552" lon="5.76265">
        <ele>75.2</ele>
        <time>2024-06-12T10:19:12Z</time>
      </trkpt>
      <trkpt lat="43.19549" lon="5.76267">
        <ele>75.2</ele>
        <time>2024-06-12T10:19:13Z</time>
      </trkpt>
      <trkpt lat="43.19543" lon="5.76268">
        <ele>75.2</ele>
        <time>2024-06-12T10:19:14Z</time>
      </trkpt>
      <trkpt lat="43.19541" lon="5.76269">
        <ele>75.2</ele>
        <time>2024-06-12T10:19:15Z</time>
      </trkpt>
      <trkpt lat="43.19536" lon="5.76271">
        <ele>75.2</ele>
        <time>2024-06-12T10:19:16Z</time>
      </trkpt>
      <trkpt lat="43.19534" lon="5.76272">
        <ele>75.6</ele>
        <time>2024-06-12T10:19:17Z</time>
      </trkpt>
      <trkpt lat="43.19531" lon="5.76273">
        <ele>75.6</ele>
        <time>2024-06-12T10:19:18Z</time>
      </trkpt>
      <trkpt lat="43.19524" lon="5.76276">
        <ele>75.6</ele>
        <time>2024-06-12T10:19:19Z</time>
      </trkpt>
      <trkpt lat="43.19522" lon="5.76277">
        <ele>75.6</ele>
        <time>2024-06-12T10:19:20Z</time>
      </trkpt>
      <trkpt lat="43.19515" lon="5.76279">
        <ele>75.8</ele>
        <time>2024-06-12T10:19:21Z</time>
      </trkpt>
      <trkpt lat="43.19513" lon="5.7628">
        <ele>75.8</ele>
        <time>2024-06-12T10:19:22Z</time>
      </trkpt>
      <trkpt lat="43.19505" lon="5.76283">
        <ele>75.8</ele>
        <time>2024-06-12T10:19:23Z</time>
      </trkpt>
      <trkpt lat="43.19503" lon="5.76283">
        <ele>75.8</ele>
        <time>2024-06-12T10:19:24Z</time>
      </trkpt>
      <trkpt lat="43.19494" lon="5.76286">
        <ele>75.8</ele>
        <time>2024-06-12T10:19:25Z</time>
      </trkpt>
      <trkpt lat="43.19491" lon="5.76287">
        <ele>75.8</ele>
        <time>2024-06-12T10:19:26Z</time>
      </trkpt>
      <trkpt lat="43.19481" lon="5.76291">
        <ele>75.4</ele>
        <time>2024-06-12T10:19:27Z</time>
      </trkpt>
      <trkpt lat="43.19478" lon="5.76292">
        <ele>75.4</ele>
        <time>2024-06-12T10:19:28Z</time>
      </trkpt>
      <trkpt lat="43.19471" lon="5.76295">
        <ele>75.4</ele>
        <time>2024-06-12T10:19:29Z</time>
      </trkpt>
      <trkpt lat="43.19459" lon="5.763">
        <ele>75.4</ele>
        <time>2024-06-12T10:19:30Z</time>
      </trkpt>
      <trkpt lat="43.19455" lon="5.76302">
        <ele>75.4</ele>
        <time>2024-06-12T10:19:31Z</time>
      </trkpt>
      <trkpt lat="43.19447" lon="5.76305">
        <ele>75.4</ele>
        <time>2024-06-12T10:19:32Z</time>
      </trkpt>
      <trkpt lat="43.19434" lon="5.7631">
        <ele>75.4</ele>
        <time>2024-06-12T10:19:33Z</time>
      </trkpt>
      <trkpt lat="43.1943" lon="5.76312">
        <ele>74.4</ele>
        <time>2024-06-12T10:19:34Z</time>
      </trkpt>
      <trkpt lat="43.19417" lon="5.76318">
        <ele>74.4</ele>
        <time>2024-06-12T10:19:35Z</time>
      </trkpt>
      <trkpt lat="43.19412" lon="5.7632">
        <ele>74.4</ele>
        <time>2024-06-12T10:19:36Z</time>
      </trkpt>
      <trkpt lat="43.194" lon="5.76326">
        <ele>74.4</ele>
        <time>2024-06-12T10:19:37Z</time>
      </trkpt>
      <trkpt lat="43.19396" lon="5.76329">
        <ele>73.4</ele>
        <time>2024-06-12T10:19:38Z</time>
      </trkpt>
      <trkpt lat="43.19383" lon="5.76336">
        <ele>73.4</ele>
        <time>2024-06-12T10:19:39Z</time>
      </trkpt>
      <trkpt lat="43.19379" lon="5.76339">
        <ele>73</ele>
        <time>2024-06-12T10:19:40Z</time>
      </trkpt>
      <trkpt lat="43.19371" lon="5.76344">
        <ele>73</ele>
        <time>2024-06-12T10:19:41Z</time>
      </trkpt>
      <trkpt lat="43.19364" lon="5.7635">
        <ele>73</ele>
        <time>2024-06-12T10:19:42Z</time>
      </trkpt>
      <trkpt lat="43.19357" lon="5.76356">
        <ele>72.4</ele>
        <time>2024-06-12T10:19:43Z</time>
      </trkpt>
      <trkpt lat="43.1935" lon="5.76362">
        <ele>72</ele>
        <time>2024-06-12T10:19:44Z</time>
      </trkpt>
      <trkpt lat="43.19343" lon="5.76369">
        <ele>72</ele>
        <time>2024-06-12T10:19:45Z</time>
      </trkpt>
      <trkpt lat="43.19338" lon="5.76377">
        <ele>72</ele>
        <time>2024-06-12T10:19:46Z</time>
      </trkpt>
      <trkpt lat="43.19331" lon="5.7639">
        <ele>72</ele>
        <time>2024-06-12T10:19:47Z</time>
      </trkpt>
      <trkpt lat="43.19329" lon="5.76395">
        <ele>70.6</ele>
        <time>2024-06-12T10:19:48Z</time>
      </trkpt>
      <trkpt lat="43.19322" lon="5.76408">
        <ele>70.6</ele>
        <time>2024-06-12T10:19:49Z</time>
      </trkpt>
      <trkpt lat="43.1932" lon="5.76413">
        <ele>70.6</ele>
        <time>2024-06-12T10:19:50Z</time>
      </trkpt>
      <trkpt lat="43.19312" lon="5.76424">
        <ele>70.6</ele>
        <time>2024-06-12T10:19:51Z</time>
      </trkpt>
      <trkpt lat="43.19308" lon="5.76426">
        <ele>70.4</ele>
        <time>2024-06-12T10:19:52Z</time>
      </trkpt>
      <trkpt lat="43.19298" lon="5.7643">
        <ele>70</ele>
        <time>2024-06-12T10:19:53Z</time>
      </trkpt>
      <trkpt lat="43.19295" lon="5.76429">
        <ele>70</ele>
        <time>2024-06-12T10:19:54Z</time>
      </trkpt>
      <trkpt lat="43.19285" lon="5.76427">
        <ele>70</ele>
        <time>2024-06-12T10:19:55Z</time>
      </trkpt>
      <trkpt lat="43.19282" lon="5.76426">
        <ele>69.6</ele>
        <time>2024-06-12T10:19:56Z</time>
      </trkpt>
      <trkpt lat="43.19272" lon="5.76425">
        <ele>69.6</ele>
        <time>2024-06-12T10:19:57Z</time>
      </trkpt>
      <trkpt lat="43.19269" lon="5.76425">
        <ele>69.6</ele>
        <time>2024-06-12T10:19:58Z</time>
      </trkpt>
      <trkpt lat="43.19263" lon="5.76428">
        <ele>69.6</ele>
        <time>2024-06-12T10:19:59Z</time>
      </trkpt>
      <trkpt lat="43.19256" lon="5.76435">
        <ele>69.6</ele>
        <time>2024-06-12T10:20:00Z</time>
      </trkpt>
      <trkpt lat="43.19253" lon="5.76438">
        <ele>68.8</ele>
        <time>2024-06-12T10:20:01Z</time>
      </trkpt>
      <trkpt lat="43.1925" lon="5.76445">
        <ele>68.4</ele>
        <time>2024-06-12T10:20:02Z</time>
      </trkpt>
      <trkpt lat="43.19244" lon="5.76457">
        <ele>68.4</ele>
        <time>2024-06-12T10:20:03Z</time>
      </trkpt>
      <trkpt lat="43.19242" lon="5.76461">
        <ele>68.4</ele>
        <time>2024-06-12T10:20:04Z</time>
      </trkpt>
      <trkpt lat="43.19234" lon="5.76471">
        <ele>68.4</ele>
        <time>2024-06-12T10:20:05Z</time>
      </trkpt>
      <trkpt lat="43.19231" lon="5.76473">
        <ele>68.2</ele>
        <time>2024-06-12T10:20:06Z</time>
      </trkpt>
      <trkpt lat="43.19221" lon="5.76479">
        <ele>68.2</ele>
        <time>2024-06-12T10:20:07Z</time>
      </trkpt>
      <trkpt lat="43.19217" lon="5.76481">
        <ele>68.2</ele>
        <time>2024-06-12T10:20:08Z</time>
      </trkpt>
      <trkpt lat="43.19206" lon="5.76485">
        <ele>68.2</ele>
        <time>2024-06-12T10:20:09Z</time>
      </trkpt>
      <trkpt lat="43.19202" lon="5.76486">
        <ele>68.2</ele>
        <time>2024-06-12T10:20:10Z</time>
      </trkpt>
      <trkpt lat="43.1919" lon="5.76489">
        <ele>66.8</ele>
        <time>2024-06-12T10:20:11Z</time>
      </trkpt>
      <trkpt lat="43.19186" lon="5.76491">
        <ele>66.8</ele>
        <time>2024-06-12T10:20:12Z</time>
      </trkpt>
      <trkpt lat="43.19178" lon="5.76493">
        <ele>66.8</ele>
        <time>2024-06-12T10:20:13Z</time>
      </trkpt>
      <trkpt lat="43.19165" lon="5.76498">
        <ele>66.8</ele>
        <time>2024-06-12T10:20:14Z</time>
      </trkpt>
      <trkpt lat="43.1916" lon="5.76499">
        <ele>65.8</ele>
        <time>2024-06-12T10:20:15Z</time>
      </trkpt>
      <trkpt lat="43.19147" lon="5.76505">
        <ele>65.4</ele>
        <time>2024-06-12T10:20:16Z</time>
      </trkpt>
      <trkpt lat="43.19142" lon="5.76507">
        <ele>65.4</ele>
        <time>2024-06-12T10:20:17Z</time>
      </trkpt>
      <trkpt lat="43.19129" lon="5.76514">
        <ele>65.4</ele>
        <time>2024-06-12T10:20:18Z</time>
      </trkpt>
      <trkpt lat="43.19124" lon="5.76516">
        <ele>64.6</ele>
        <time>2024-06-12T10:20:19Z</time>
      </trkpt>
      <trkpt lat="43.1911" lon="5.76523">
        <ele>64.2</ele>
        <time>2024-06-12T10:20:20Z</time>
      </trkpt>
      <trkpt lat="43.19106" lon="5.76526">
        <ele>64.2</ele>
        <time>2024-06-12T10:20:21Z</time>
      </trkpt>
      <trkpt lat="43.19097" lon="5.76531">
        <ele>64.2</ele>
        <time>2024-06-12T10:20:22Z</time>
      </trkpt>
      <trkpt lat="43.19088" lon="5.76536">
        <ele>63.6</ele>
        <time>2024-06-12T10:20:23Z</time>
      </trkpt>
      <trkpt lat="43.19079" lon="5.76541">
        <ele>63.6</ele>
        <time>2024-06-12T10:20:24Z</time>
      </trkpt>
      <trkpt lat="43.19071" lon="5.76547">
        <ele>63.4</ele>
        <time>2024-06-12T10:20:25Z</time>
      </trkpt>
      <trkpt lat="43.19063" lon="5.76553">
        <ele>63.4</ele>
        <time>2024-06-12T10:20:26Z</time>
      </trkpt>
      <trkpt lat="43.19055" lon="5.76559">
        <ele>63.4</ele>
        <time>2024-06-12T10:20:27Z</time>
      </trkpt>
      <trkpt lat="43.19047" lon="5.76566">
        <ele>63</ele>
        <time>2024-06-12T10:20:28Z</time>
      </trkpt>
      <trkpt lat="43.19039" lon="5.76572">
        <ele>62.2</ele>
        <time>2024-06-12T10:20:29Z</time>
      </trkpt>
      <trkpt lat="43.19027" lon="5.76582">
        <ele>62.2</ele>
        <time>2024-06-12T10:20:30Z</time>
      </trkpt>
      <trkpt lat="43.19023" lon="5.76586">
        <ele>62.2</ele>
        <time>2024-06-12T10:20:31Z</time>
      </trkpt>
      <trkpt lat="43.19011" lon="5.76596">
        <ele>62.2</ele>
        <time>2024-06-12T10:20:32Z</time>
      </trkpt>
      <trkpt lat="43.19007" lon="5.76599">
        <ele>62</ele>
        <time>2024-06-12T10:20:33Z</time>
      </trkpt>
      <trkpt lat="43.19" lon="5.76606">
        <ele>62</ele>
        <time>2024-06-12T10:20:34Z</time>
      </trkpt>
      <trkpt lat="43.18992" lon="5.76614">
        <ele>62</ele>
        <time>2024-06-12T10:20:35Z</time>
      </trkpt>
      <trkpt lat="43.18979" lon="5.76625">
        <ele>61.2</ele>
        <time>2024-06-12T10:20:36Z</time>
      </trkpt>
      <trkpt lat="43.18975" lon="5.76628">
        <ele>61.2</ele>
        <time>2024-06-12T10:20:37Z</time>
      </trkpt>
      <trkpt lat="43.18963" lon="5.76639">
        <ele>60.8</ele>
        <time>2024-06-12T10:20:38Z</time>
      </trkpt>
      <trkpt lat="43.18958" lon="5.76643">
        <ele>60.8</ele>
        <time>2024-06-12T10:20:39Z</time>
      </trkpt>
      <trkpt lat="43.18946" lon="5.76653">
        <ele>60.8</ele>
        <time>2024-06-12T10:20:40Z</time>
      </trkpt>
      <trkpt lat="43.18941" lon="5.76657">
        <ele>59.8</ele>
        <time>2024-06-12T10:20:41Z</time>
      </trkpt>
      <trkpt lat="43.18933" lon="5.76664">
        <ele>59.6</ele>
        <time>2024-06-12T10:20:42Z</time>
      </trkpt>
      <trkpt lat="43.1892" lon="5.76675">
        <ele>59.6</ele>
        <time>2024-06-12T10:20:43Z</time>
      </trkpt>
      <trkpt lat="43.18916" lon="5.76679">
        <ele>59.6</ele>
        <time>2024-06-12T10:20:44Z</time>
      </trkpt>
      <trkpt lat="43.18904" lon="5.7669">
        <ele>58.8</ele>
        <time>2024-06-12T10:20:45Z</time>
      </trkpt>
      <trkpt lat="43.18899" lon="5.76693">
        <ele>58.6</ele>
        <time>2024-06-12T10:20:46Z</time>
      </trkpt>
      <trkpt lat="43.18891" lon="5.767">
        <ele>58.6</ele>
        <time>2024-06-12T10:20:47Z</time>
      </trkpt>
      <trkpt lat="43.18879" lon="5.76711">
        <ele>58.6</ele>
        <time>2024-06-12T10:20:48Z</time>
      </trkpt>
      <trkpt lat="43.18875" lon="5.76715">
        <ele>57.8</ele>
        <time>2024-06-12T10:20:49Z</time>
      </trkpt>
      <trkpt lat="43.18863" lon="5.76725">
        <ele>57.8</ele>
        <time>2024-06-12T10:20:50Z</time>
      </trkpt>
      <trkpt lat="43.18859" lon="5.76728">
        <ele>57.8</ele>
        <time>2024-06-12T10:20:51Z</time>
      </trkpt>
      <trkpt lat="43.18848" lon="5.76738">
        <ele>57.6</ele>
        <time>2024-06-12T10:20:52Z</time>
      </trkpt>
      <trkpt lat="43.18844" lon="5.76742">
        <ele>57.6</ele>
        <time>2024-06-12T10:20:53Z</time>
      </trkpt>
      <trkpt lat="43.18836" lon="5.76748">
        <ele>57.6</ele>
        <time>2024-06-12T10:20:54Z</time>
      </trkpt>
      <trkpt lat="43.18826" lon="5.76758">
        <ele>57.4</ele>
        <time>2024-06-12T10:20:55Z</time>
      </trkpt>
      <trkpt lat="43.18822" lon="5.76761">
        <ele>57.2</ele>
        <time>2024-06-12T10:20:56Z</time>
      </trkpt>
      <trkpt lat="43.18815" lon="5.76767">
        <ele>57.2</ele>
        <time>2024-06-12T10:20:57Z</time>
      </trkpt>
      <trkpt lat="43.18805" lon="5.76776">
        <ele>57.2</ele>
        <time>2024-06-12T10:20:58Z</time>
      </trkpt>
      <trkpt lat="43.18802" lon="5.76779">
        <ele>56.8</ele>
        <time>2024-06-12T10:20:59Z</time>
      </trkpt>
      <trkpt lat="43.18796" lon="5.76785">
        <ele>57</ele>
        <time>2024-06-12T10:21:00Z</time>
      </trkpt>
      <trkpt lat="43.18786" lon="5.76793">
        <ele>57</ele>
        <time>2024-06-12T10:21:01Z</time>
      </trkpt>
      <trkpt lat="43.18783" lon="5.76795">
        <ele>57</ele>
        <time>2024-06-12T10:21:02Z</time>
      </trkpt>
      <trkpt lat="43.18774" lon="5.76803">
        <ele>57</ele>
        <time>2024-06-12T10:21:03Z</time>
      </trkpt>
      <trkpt lat="43.18771" lon="5.76806">
        <ele>56.6</ele>
        <time>2024-06-12T10:21:04Z</time>
      </trkpt>
      <trkpt lat="43.18762" lon="5.76813">
        <ele>56.6</ele>
        <time>2024-06-12T10:21:05Z</time>
      </trkpt>
      <trkpt lat="43.18759" lon="5.76816">
        <ele>56.6</ele>
        <time>2024-06-12T10:21:06Z</time>
      </trkpt>
      <trkpt lat="43.18754" lon="5.76821">
        <ele>56.6</ele>
        <time>2024-06-12T10:21:07Z</time>
      </trkpt>
      <trkpt lat="43.18748" lon="5.76825">
        <ele>56.8</ele>
        <time>2024-06-12T10:21:08Z</time>
      </trkpt>
      <trkpt lat="43.18742" lon="5.7683">
        <ele>57</ele>
        <time>2024-06-12T10:21:09Z</time>
      </trkpt>
      <trkpt lat="43.18737" lon="5.76835">
        <ele>57</ele>
        <time>2024-06-12T10:21:10Z</time>
      </trkpt>
      <trkpt lat="43.18731" lon="5.7684">
        <ele>57</ele>
        <time>2024-06-12T10:21:11Z</time>
      </trkpt>
      <trkpt lat="43.18726" lon="5.76845">
        <ele>57</ele>
        <time>2024-06-12T10:21:12Z</time>
      </trkpt>
      <trkpt lat="43.18717" lon="5.76852">
        <ele>56.8</ele>
        <time>2024-06-12T10:21:13Z</time>
      </trkpt>
      <trkpt lat="43.18714" lon="5.76855">
        <ele>57</ele>
        <time>2024-06-12T10:21:14Z</time>
      </trkpt>
      <trkpt lat="43.18705" lon="5.76862">
        <ele>57</ele>
        <time>2024-06-12T10:21:15Z</time>
      </trkpt>
      <trkpt lat="43.18702" lon="5.76864">
        <ele>57</ele>
        <time>2024-06-12T10:21:16Z</time>
      </trkpt>
      <trkpt lat="43.18694" lon="5.76871">
        <ele>56.6</ele>
        <time>2024-06-12T10:21:17Z</time>
      </trkpt>
      <trkpt lat="43.18691" lon="5.76874">
        <ele>56.6</ele>
        <time>2024-06-12T10:21:18Z</time>
      </trkpt>
      <trkpt lat="43.18682" lon="5.76882">
        <ele>56.6</ele>
        <time>2024-06-12T10:21:19Z</time>
      </trkpt>
      <trkpt lat="43.18679" lon="5.76884">
        <ele>56.6</ele>
        <time>2024-06-12T10:21:20Z</time>
      </trkpt>
      <trkpt lat="43.1867" lon="5.76891">
        <ele>56.6</ele>
        <time>2024-06-12T10:21:21Z</time>
      </trkpt>
      <trkpt lat="43.18666" lon="5.76893">
        <ele>56.4</ele>
        <time>2024-06-12T10:21:22Z</time>
      </trkpt>
      <trkpt lat="43.1866" lon="5.76898">
        <ele>56.4</ele>
        <time>2024-06-12T10:21:23Z</time>
      </trkpt>
      <trkpt lat="43.1865" lon="5.76905">
        <ele>56.4</ele>
        <time>2024-06-12T10:21:24Z</time>
      </trkpt>
      <trkpt lat="43.18647" lon="5.76908">
        <ele>56.4</ele>
        <time>2024-06-12T10:21:25Z</time>
      </trkpt>
      <trkpt lat="43.18641" lon="5.76912">
        <ele>56.2</ele>
        <time>2024-06-12T10:21:26Z</time>
      </trkpt>
      <trkpt lat="43.18631" lon="5.76919">
        <ele>56.2</ele>
        <time>2024-06-12T10:21:27Z</time>
      </trkpt>
      <trkpt lat="43.18627" lon="5.76921">
        <ele>56.2</ele>
        <time>2024-06-12T10:21:28Z</time>
      </trkpt>
      <trkpt lat="43.18617" lon="5.76927">
        <ele>56.2</ele>
        <time>2024-06-12T10:21:29Z</time>
      </trkpt>
      <trkpt lat="43.18613" lon="5.76929">
        <ele>55.6</ele>
        <time>2024-06-12T10:21:30Z</time>
      </trkpt>
      <trkpt lat="43.18603" lon="5.76935">
        <ele>55.4</ele>
        <time>2024-06-12T10:21:31Z</time>
      </trkpt>
      <trkpt lat="43.18599" lon="5.76937">
        <ele>55.4</ele>
        <time>2024-06-12T10:21:32Z</time>
      </trkpt>
      <trkpt lat="43.18588" lon="5.76943">
        <ele>55.4</ele>
        <time>2024-06-12T10:21:33Z</time>
      </trkpt>
      <trkpt lat="43.18585" lon="5.76945">
        <ele>55.4</ele>
        <time>2024-06-12T10:21:34Z</time>
      </trkpt>
      <trkpt lat="43.18574" lon="5.7695">
        <ele>55.4</ele>
        <time>2024-06-12T10:21:35Z</time>
      </trkpt>
      <trkpt lat="43.1857" lon="5.76951">
        <ele>55</ele>
        <time>2024-06-12T10:21:36Z</time>
      </trkpt>
      <trkpt lat="43.18562" lon="5.76955">
        <ele>55</ele>
        <time>2024-06-12T10:21:37Z</time>
      </trkpt>
      <trkpt lat="43.1855" lon="5.76959">
        <ele>55</ele>
        <time>2024-06-12T10:21:38Z</time>
      </trkpt>
      <trkpt lat="43.18546" lon="5.7696">
        <ele>55</ele>
        <time>2024-06-12T10:21:39Z</time>
      </trkpt>
      <trkpt lat="43.18534" lon="5.76964">
        <ele>54.8</ele>
        <time>2024-06-12T10:21:40Z</time>
      </trkpt>
      <trkpt lat="43.1853" lon="5.76965">
        <ele>54.8</ele>
        <time>2024-06-12T10:21:41Z</time>
      </trkpt>
      <trkpt lat="43.18518" lon="5.76968">
        <ele>54.8</ele>
        <time>2024-06-12T10:21:42Z</time>
      </trkpt>
      <trkpt lat="43.18515" lon="5.76969">
        <ele>54.8</ele>
        <time>2024-06-12T10:21:43Z</time>
      </trkpt>
      <trkpt lat="43.18503" lon="5.76971">
        <ele>54.4</ele>
        <time>2024-06-12T10:21:44Z</time>
      </trkpt>
      <trkpt lat="43.18499" lon="5.76972">
        <ele>54.4</ele>
        <time>2024-06-12T10:21:45Z</time>
      </trkpt>
      <trkpt lat="43.18487" lon="5.76975">
        <ele>54.4</ele>
        <time>2024-06-12T10:21:46Z</time>
      </trkpt>
      <trkpt lat="43.18483" lon="5.76975">
        <ele>54.4</ele>
        <time>2024-06-12T10:21:47Z</time>
      </trkpt>
      <trkpt lat="43.18475" lon="5.76976">
        <ele>54.4</ele>
        <time>2024-06-12T10:21:48Z</time>
      </trkpt>
      <trkpt lat="43.18467" lon="5.76977">
        <ele>53.6</ele>
        <time>2024-06-12T10:21:49Z</time>
      </trkpt>
      <trkpt lat="43.18458" lon="5.76978">
        <ele>53.8</ele>
        <time>2024-06-12T10:21:50Z</time>
      </trkpt>
      <trkpt lat="43.1845" lon="5.7698">
        <ele>53.8</ele>
        <time>2024-06-12T10:21:51Z</time>
      </trkpt>
      <trkpt lat="43.18442" lon="5.76982">
        <ele>53.8</ele>
        <time>2024-06-12T10:21:52Z</time>
      </trkpt>
      <trkpt lat="43.18434" lon="5.76983">
        <ele>53.8</ele>
        <time>2024-06-12T10:21:53Z</time>
      </trkpt>
      <trkpt lat="43.18426" lon="5.76985">
        <ele>53.8</ele>
        <time>2024-06-12T10:21:54Z</time>
      </trkpt>
      <trkpt lat="43.18417" lon="5.76987">
        <ele>53.4</ele>
        <time>2024-06-12T10:21:55Z</time>
      </trkpt>
      <trkpt lat="43.18405" lon="5.76992">
        <ele>53.4</ele>
        <time>2024-06-12T10:21:56Z</time>
      </trkpt>
      <trkpt lat="43.18401" lon="5.76993">
        <ele>53</ele>
        <time>2024-06-12T10:21:57Z</time>
      </trkpt>
      <trkpt lat="43.18388" lon="5.76997">
        <ele>53.2</ele>
        <time>2024-06-12T10:21:58Z</time>
      </trkpt>
      <trkpt lat="43.18383" lon="5.76998">
        <ele>53.2</ele>
        <time>2024-06-12T10:21:59Z</time>
      </trkpt>
      <trkpt lat="43.18371" lon="5.77002">
        <ele>53.2</ele>
        <time>2024-06-12T10:22:00Z</time>
      </trkpt>
      <trkpt lat="43.18366" lon="5.77003">
        <ele>53.2</ele>
        <time>2024-06-12T10:22:01Z</time>
      </trkpt>
      <trkpt lat="43.18354" lon="5.77007">
        <ele>53.2</ele>
        <time>2024-06-12T10:22:02Z</time>
      </trkpt>
      <trkpt lat="43.1835" lon="5.77008">
        <ele>52.6</ele>
        <time>2024-06-12T10:22:03Z</time>
      </trkpt>
      <trkpt lat="43.18337" lon="5.77012">
        <ele>52.6</ele>
        <time>2024-06-12T10:22:04Z</time>
      </trkpt>
      <trkpt lat="43.18333" lon="5.77013">
        <ele>52.6</ele>
        <time>2024-06-12T10:22:05Z</time>
      </trkpt>
      <trkpt lat="43.1832" lon="5.77017">
        <ele>52.4</ele>
        <time>2024-06-12T10:22:06Z</time>
      </trkpt>
      <trkpt lat="43.18316" lon="5.77018">
        <ele>52</ele>
        <time>2024-06-12T10:22:07Z</time>
      </trkpt>
      <trkpt lat="43.18308" lon="5.7702">
        <ele>52</ele>
        <time>2024-06-12T10:22:08Z</time>
      </trkpt>
      <trkpt lat="43.18296" lon="5.77024">
        <ele>52</ele>
        <time>2024-06-12T10:22:09Z</time>
      </trkpt>
      <trkpt lat="43.18292" lon="5.77026">
        <ele>52</ele>
        <time>2024-06-12T10:22:10Z</time>
      </trkpt>
      <trkpt lat="43.1828" lon="5.7703">
        <ele>52</ele>
        <time>2024-06-12T10:22:11Z</time>
      </trkpt>
      <trkpt lat="43.18276" lon="5.77032">
        <ele>51.8</ele>
        <time>2024-06-12T10:22:12Z</time>
      </trkpt>
      <trkpt lat="43.18264" lon="5.77037">
        <ele>51.8</ele>
        <time>2024-06-12T10:22:13Z</time>
      </trkpt>
      <trkpt lat="43.18261" lon="5.77038">
        <ele>51.8</ele>
        <time>2024-06-12T10:22:14Z</time>
      </trkpt>
      <trkpt lat="43.18249" lon="5.77043">
        <ele>51.2</ele>
        <time>2024-06-12T10:22:15Z</time>
      </trkpt>
      <trkpt lat="43.18245" lon="5.77045">
        <ele>51.2</ele>
        <time>2024-06-12T10:22:16Z</time>
      </trkpt>
      <trkpt lat="43.18234" lon="5.7705">
        <ele>51.2</ele>
        <time>2024-06-12T10:22:17Z</time>
      </trkpt>
      <trkpt lat="43.1823" lon="5.77052">
        <ele>51.2</ele>
        <time>2024-06-12T10:22:18Z</time>
      </trkpt>
      <trkpt lat="43.18219" lon="5.77057">
        <ele>51.2</ele>
        <time>2024-06-12T10:22:19Z</time>
      </trkpt>
      <trkpt lat="43.18215" lon="5.77059">
        <ele>50.8</ele>
        <time>2024-06-12T10:22:20Z</time>
      </trkpt>
      <trkpt lat="43.18207" lon="5.77063">
        <ele>50.8</ele>
        <time>2024-06-12T10:22:21Z</time>
      </trkpt>
      <trkpt lat="43.18196" lon="5.77068">
        <ele>50.6</ele>
        <time>2024-06-12T10:22:22Z</time>
      </trkpt>
      <trkpt lat="43.18192" lon="5.7707">
        <ele>50.6</ele>
        <time>2024-06-12T10:22:23Z</time>
      </trkpt>
      <trkpt lat="43.18181" lon="5.77075">
        <ele>50.6</ele>
        <time>2024-06-12T10:22:24Z</time>
      </trkpt>
      <trkpt lat="43.18177" lon="5.77077">
        <ele>50.6</ele>
        <time>2024-06-12T10:22:25Z</time>
      </trkpt>
      <trkpt lat="43.18166" lon="5.77082">
        <ele>49.8</ele>
        <time>2024-06-12T10:22:26Z</time>
      </trkpt>
      <trkpt lat="43.18162" lon="5.77084">
        <ele>49.8</ele>
        <time>2024-06-12T10:22:27Z</time>
      </trkpt>
      <trkpt lat="43.18151" lon="5.77089">
        <ele>49.8</ele>
        <time>2024-06-12T10:22:28Z</time>
      </trkpt>
      <trkpt lat="43.18147" lon="5.7709">
        <ele>49.8</ele>
        <time>2024-06-12T10:22:29Z</time>
      </trkpt>
      <trkpt lat="43.18136" lon="5.77093">
        <ele>50</ele>
        <time>2024-06-12T10:22:30Z</time>
      </trkpt>
      <trkpt lat="43.18132" lon="5.77094">
        <ele>50</ele>
        <time>2024-06-12T10:22:31Z</time>
      </trkpt>
      <trkpt lat="43.18125" lon="5.77095">
        <ele>50</ele>
        <time>2024-06-12T10:22:32Z</time>
      </trkpt>
      <trkpt lat="43.18117" lon="5.77096">
        <ele>50</ele>
        <time>2024-06-12T10:22:33Z</time>
      </trkpt>
      <trkpt lat="43.1811" lon="5.77096">
        <ele>50</ele>
        <time>2024-06-12T10:22:34Z</time>
      </trkpt>
      <trkpt lat="43.18102" lon="5.77097">
        <ele>49.4</ele>
        <time>2024-06-12T10:22:35Z</time>
      </trkpt>
      <trkpt lat="43.18095" lon="5.77097">
        <ele>49.4</ele>
        <time>2024-06-12T10:22:36Z</time>
      </trkpt>
      <trkpt lat="43.18088" lon="5.77097">
        <ele>49.4</ele>
        <time>2024-06-12T10:22:37Z</time>
      </trkpt>
      <trkpt lat="43.18081" lon="5.77097">
        <ele>49.4</ele>
        <time>2024-06-12T10:22:38Z</time>
      </trkpt>
      <trkpt lat="43.18074" lon="5.77098">
        <ele>48.8</ele>
        <time>2024-06-12T10:22:39Z</time>
      </trkpt>
      <trkpt lat="43.18067" lon="5.77098">
        <ele>48.8</ele>
        <time>2024-06-12T10:22:40Z</time>
      </trkpt>
      <trkpt lat="43.1806" lon="5.77099">
        <ele>48.8</ele>
        <time>2024-06-12T10:22:41Z</time>
      </trkpt>
      <trkpt lat="43.1805" lon="5.77101">
        <ele>48.8</ele>
        <time>2024-06-12T10:22:42Z</time>
      </trkpt>
      <trkpt lat="43.18046" lon="5.77102">
        <ele>48.6</ele>
        <time>2024-06-12T10:22:43Z</time>
      </trkpt>
      <trkpt lat="43.18037" lon="5.77107">
        <ele>48.6</ele>
        <time>2024-06-12T10:22:44Z</time>
      </trkpt>
      <trkpt lat="43.18034" lon="5.77109">
        <ele>48.6</ele>
        <time>2024-06-12T10:22:45Z</time>
      </trkpt>
      <trkpt lat="43.18026" lon="5.77118">
        <ele>48.6</ele>
        <time>2024-06-12T10:22:46Z</time>
      </trkpt>
      <trkpt lat="43.18024" lon="5.77121">
        <ele>48.4</ele>
        <time>2024-06-12T10:22:47Z</time>
      </trkpt>
      <trkpt lat="43.18019" lon="5.77133">
        <ele>48.4</ele>
        <time>2024-06-12T10:22:48Z</time>
      </trkpt>
      <trkpt lat="43.18017" lon="5.77137">
        <ele>48.4</ele>
        <time>2024-06-12T10:22:49Z</time>
      </trkpt>
      <trkpt lat="43.18015" lon="5.77146">
        <ele>48.4</ele>
        <time>2024-06-12T10:22:50Z</time>
      </trkpt>
      <trkpt lat="43.18013" lon="5.77159">
        <ele>48.8</ele>
        <time>2024-06-12T10:22:51Z</time>
      </trkpt>
      <trkpt lat="43.18013" lon="5.77164">
        <ele>48.8</ele>
        <time>2024-06-12T10:22:52Z</time>
      </trkpt>
      <trkpt lat="43.18012" lon="5.77173">
        <ele>48.8</ele>
        <time>2024-06-12T10:22:53Z</time>
      </trkpt>
      <trkpt lat="43.18011" lon="5.77185">
        <ele>48.8</ele>
        <time>2024-06-12T10:22:54Z</time>
      </trkpt>
      <trkpt lat="43.18011" lon="5.77189">
        <ele>49.2</ele>
        <time>2024-06-12T10:22:55Z</time>
      </trkpt>
      <trkpt lat="43.18011" lon="5.77201">
        <ele>49.2</ele>
        <time>2024-06-12T10:22:56Z</time>
      </trkpt>
      <trkpt lat="43.18011" lon="5.77205">
        <ele>49.2</ele>
        <time>2024-06-12T10:22:57Z</time>
      </trkpt>
      <trkpt lat="43.18013" lon="5.77217">
        <ele>49.2</ele>
        <time>2024-06-12T10:22:58Z</time>
      </trkpt>
      <trkpt lat="43.18014" lon="5.77221">
        <ele>49.2</ele>
        <time>2024-06-12T10:22:59Z</time>
      </trkpt>
      <trkpt lat="43.18017" lon="5.77232">
        <ele>49.2</ele>
        <time>2024-06-12T10:23:00Z</time>
      </trkpt>
      <trkpt lat="43.18017" lon="5.77235">
        <ele>49.2</ele>
        <time>2024-06-12T10:23:01Z</time>
      </trkpt>
      <trkpt lat="43.18019" lon="5.77242">
        <ele>49.2</ele>
        <time>2024-06-12T10:23:02Z</time>
      </trkpt>
      <trkpt lat="43.18018" lon="5.77253">
        <ele>49.2</ele>
        <time>2024-06-12T10:23:03Z</time>
      </trkpt>
      <trkpt lat="43.18017" lon="5.77256">
        <ele>49.2</ele>
        <time>2024-06-12T10:23:04Z</time>
      </trkpt>
      <trkpt lat="43.18014" lon="5.77265">
        <ele>49.2</ele>
        <time>2024-06-12T10:23:05Z</time>
      </trkpt>
      <trkpt lat="43.18012" lon="5.77268">
        <ele>49.6</ele>
        <time>2024-06-12T10:23:06Z</time>
      </trkpt>
      <trkpt lat="43.18006" lon="5.77273">
        <ele>49.6</ele>
        <time>2024-06-12T10:23:07Z</time>
      </trkpt>
      <trkpt lat="43.18004" lon="5.77275">
        <ele>49.6</ele>
        <time>2024-06-12T10:23:08Z</time>
      </trkpt>
      <trkpt lat="43.17998" lon="5.77281">
        <ele>49.6</ele>
        <time>2024-06-12T10:23:09Z</time>
      </trkpt>
      <trkpt lat="43.17997" lon="5.77284">
        <ele>49.6</ele>
        <time>2024-06-12T10:23:10Z</time>
      </trkpt>
      <trkpt lat="43.17992" lon="5.77292">
        <ele>49.6</ele>
        <time>2024-06-12T10:23:11Z</time>
      </trkpt>
      <trkpt lat="43.17991" lon="5.77295">
        <ele>49.6</ele>
        <time>2024-06-12T10:23:12Z</time>
      </trkpt>
      <trkpt lat="43.17988" lon="5.77301">
        <ele>49.6</ele>
        <time>2024-06-12T10:23:13Z</time>
      </trkpt>
      <trkpt lat="43.17984" lon="5.77305">
        <ele>49.8</ele>
        <time>2024-06-12T10:23:14Z</time>
      </trkpt>
      <trkpt lat="43.17979" lon="5.77308">
        <ele>49.8</ele>
        <time>2024-06-12T10:23:15Z</time>
      </trkpt>
      <trkpt lat="43.17975" lon="5.77311">
        <ele>49.8</ele>
        <time>2024-06-12T10:23:16Z</time>
      </trkpt>
      <trkpt lat="43.1797" lon="5.77313">
        <ele>49.8</ele>
        <time>2024-06-12T10:23:17Z</time>
      </trkpt>
      <trkpt lat="43.17965" lon="5.77314">
        <ele>50</ele>
        <time>2024-06-12T10:23:18Z</time>
      </trkpt>
      <trkpt lat="43.1796" lon="5.77315">
        <ele>50</ele>
        <time>2024-06-12T10:23:19Z</time>
      </trkpt>
      <trkpt lat="43.17955" lon="5.77316">
        <ele>50</ele>
        <time>2024-06-12T10:23:20Z</time>
      </trkpt>
      <trkpt lat="43.17948" lon="5.77317">
        <ele>50</ele>
        <time>2024-06-12T10:23:21Z</time>
      </trkpt>
      <trkpt lat="43.17946" lon="5.77317">
        <ele>50</ele>
        <time>2024-06-12T10:23:22Z</time>
      </trkpt>
      <trkpt lat="43.17939" lon="5.77318">
        <ele>50.6</ele>
        <time>2024-06-12T10:23:23Z</time>
      </trkpt>
      <trkpt lat="43.17936" lon="5.77318">
        <ele>50.6</ele>
        <time>2024-06-12T10:23:24Z</time>
      </trkpt>
      <trkpt lat="43.1793" lon="5.77319">
        <ele>50.6</ele>
        <time>2024-06-12T10:23:25Z</time>
      </trkpt>
      <trkpt lat="43.17928" lon="5.77319">
        <ele>50.8</ele>
        <time>2024-06-12T10:23:26Z</time>
      </trkpt>
      <trkpt lat="43.17921" lon="5.7732">
        <ele>50.8</ele>
        <time>2024-06-12T10:23:27Z</time>
      </trkpt>
      <trkpt lat="43.17919" lon="5.77321">
        <ele>50.8</ele>
        <time>2024-06-12T10:23:28Z</time>
      </trkpt>
      <trkpt lat="43.17912" lon="5.77322">
        <ele>50.8</ele>
        <time>2024-06-12T10:23:29Z</time>
      </trkpt>
      <trkpt lat="43.1791" lon="5.77322">
        <ele>50.8</ele>
        <time>2024-06-12T10:23:30Z</time>
      </trkpt>
      <trkpt lat="43.17904" lon="5.77323">
        <ele>51.2</ele>
        <time>2024-06-12T10:23:31Z</time>
      </trkpt>
      <trkpt lat="43.17902" lon="5.77324">
        <ele>51.2</ele>
        <time>2024-06-12T10:23:32Z</time>
      </trkpt>
      <trkpt lat="43.17897" lon="5.77325">
        <ele>51.2</ele>
        <time>2024-06-12T10:23:33Z</time>
      </trkpt>
      <trkpt lat="43.17891" lon="5.77326">
        <ele>51.2</ele>
        <time>2024-06-12T10:23:34Z</time>
      </trkpt>
      <trkpt lat="43.17889" lon="5.77326">
        <ele>51.2</ele>
        <time>2024-06-12T10:23:35Z</time>
      </trkpt>
      <trkpt lat="43.17883" lon="5.77327">
        <ele>51.6</ele>
        <time>2024-06-12T10:23:36Z</time>
      </trkpt>
      <trkpt lat="43.17881" lon="5.77327">
        <ele>51.6</ele>
        <time>2024-06-12T10:23:37Z</time>
      </trkpt>
      <trkpt lat="43.17875" lon="5.77328">
        <ele>51.6</ele>
        <time>2024-06-12T10:23:38Z</time>
      </trkpt>
      <trkpt lat="43.17873" lon="5.77328">
        <ele>52</ele>
        <time>2024-06-12T10:23:39Z</time>
      </trkpt>
      <trkpt lat="43.17868" lon="5.77329">
        <ele>52</ele>
        <time>2024-06-12T10:23:40Z</time>
      </trkpt>
      <trkpt lat="43.17866" lon="5.77329">
        <ele>52</ele>
        <time>2024-06-12T10:23:41Z</time>
      </trkpt>
      <trkpt lat="43.17862" lon="5.77329">
        <ele>52</ele>
        <time>2024-06-12T10:23:42Z</time>
      </trkpt>
      <trkpt lat="43.17856" lon="5.77328">
        <ele>52</ele>
        <time>2024-06-12T10:23:43Z</time>
      </trkpt>
      <trkpt lat="43.17854" lon="5.77328">
        <ele>52</ele>
        <time>2024-06-12T10:23:44Z</time>
      </trkpt>
      <trkpt lat="43.1785" lon="5.77328">
        <ele>52</ele>
        <time>2024-06-12T10:23:45Z</time>
      </trkpt>
      <trkpt lat="43.17844" lon="5.77328">
        <ele>52.4</ele>
        <time>2024-06-12T10:23:46Z</time>
      </trkpt>
      <trkpt lat="43.17842" lon="5.77327">
        <ele>52.4</ele>
        <time>2024-06-12T10:23:47Z</time>
      </trkpt>
      <trkpt lat="43.17836" lon="5.77326">
        <ele>52.4</ele>
        <time>2024-06-12T10:23:48Z</time>
      </trkpt>
      <trkpt lat="43.17834" lon="5.77326">
        <ele>52.4</ele>
        <time>2024-06-12T10:23:49Z</time>
      </trkpt>
      <trkpt lat="43.17828" lon="5.77324">
        <ele>52.4</ele>
        <time>2024-06-12T10:23:50Z</time>
      </trkpt>
      <trkpt lat="43.17826" lon="5.77324">
        <ele>52.4</ele>
        <time>2024-06-12T10:23:51Z</time>
      </trkpt>
      <trkpt lat="43.1782" lon="5.77322">
        <ele>52.4</ele>
        <time>2024-06-12T10:23:52Z</time>
      </trkpt>
      <trkpt lat="43.17818" lon="5.77322">
        <ele>52.4</ele>
        <time>2024-06-12T10:23:53Z</time>
      </trkpt>
      <trkpt lat="43.17811" lon="5.7732">
        <ele>52.6</ele>
        <time>2024-06-12T10:23:54Z</time>
      </trkpt>
      <trkpt lat="43.17808" lon="5.7732">
        <ele>52.4</ele>
        <time>2024-06-12T10:23:55Z</time>
      </trkpt>
      <trkpt lat="43.17803" lon="5.7732">
        <ele>52.4</ele>
        <time>2024-06-12T10:23:56Z</time>
      </trkpt>
      <trkpt lat="43.17798" lon="5.77319">
        <ele>52.4</ele>
        <time>2024-06-12T10:23:57Z</time>
      </trkpt>
      <trkpt lat="43.17793" lon="5.77319">
        <ele>52.4</ele>
        <time>2024-06-12T10:23:58Z</time>
      </trkpt>
      <trkpt lat="43.17788" lon="5.7732">
        <ele>52.4</ele>
        <time>2024-06-12T10:23:59Z</time>
      </trkpt>
      <trkpt lat="43.17782" lon="5.77321">
        <ele>52.4</ele>
        <time>2024-06-12T10:24:00Z</time>
      </trkpt>
      <trkpt lat="43.17777" lon="5.77322">
        <ele>52.4</ele>
        <time>2024-06-12T10:24:01Z</time>
      </trkpt>
      <trkpt lat="43.17771" lon="5.77323">
        <ele>52.4</ele>
        <time>2024-06-12T10:24:02Z</time>
      </trkpt>
      <trkpt lat="43.17762" lon="5.77323">
        <ele>52.4</ele>
        <time>2024-06-12T10:24:03Z</time>
      </trkpt>
      <trkpt lat="43.17759" lon="5.77323">
        <ele>52.2</ele>
        <time>2024-06-12T10:24:04Z</time>
      </trkpt>
      <trkpt lat="43.17749" lon="5.77321">
        <ele>52.2</ele>
        <time>2024-06-12T10:24:05Z</time>
      </trkpt>
      <trkpt lat="43.17745" lon="5.7732">
        <ele>52.2</ele>
        <time>2024-06-12T10:24:06Z</time>
      </trkpt>
      <trkpt lat="43.17735" lon="5.77315">
        <ele>51.4</ele>
        <time>2024-06-12T10:24:07Z</time>
      </trkpt>
      <trkpt lat="43.17732" lon="5.77313">
        <ele>51.2</ele>
        <time>2024-06-12T10:24:08Z</time>
      </trkpt>
      <trkpt lat="43.17722" lon="5.77307">
        <ele>51.2</ele>
        <time>2024-06-12T10:24:09Z</time>
      </trkpt>
      <trkpt lat="43.17719" lon="5.77305">
        <ele>51.2</ele>
        <time>2024-06-12T10:24:10Z</time>
      </trkpt>
      <trkpt lat="43.17711" lon="5.77299">
        <ele>51.2</ele>
        <time>2024-06-12T10:24:11Z</time>
      </trkpt>
      <trkpt lat="43.17709" lon="5.77298">
        <ele>49.8</ele>
        <time>2024-06-12T10:24:12Z</time>
      </trkpt>
      <trkpt lat="43.17704" lon="5.77295">
        <ele>49.8</ele>
        <time>2024-06-12T10:24:13Z</time>
      </trkpt>
      <trkpt lat="43.17702" lon="5.77294">
        <ele>49.8</ele>
        <time>2024-06-12T10:24:14Z</time>
      </trkpt>
      <trkpt lat="43.17701" lon="5.77293">
        <ele>49.8</ele>
        <time>2024-06-12T10:24:15Z</time>
      </trkpt>
      <trkpt lat="43.17699" lon="5.77292">
        <ele>49</ele>
        <time>2024-06-12T10:24:16Z</time>
      </trkpt>
      <trkpt lat="43.17698" lon="5.77291">
        <ele>48.6</ele>
        <time>2024-06-12T10:24:17Z</time>
      </trkpt>
      <trkpt lat="43.17696" lon="5.7729">
        <ele>48.6</ele>
        <time>2024-06-12T10:24:18Z</time>
      </trkpt>
      <trkpt lat="43.17692" lon="5.77289">
        <ele>48.6</ele>
        <time>2024-06-12T10:24:19Z</time>
      </trkpt>
      <trkpt lat="43.17691" lon="5.77288">
        <ele>47.6</ele>
        <time>2024-06-12T10:24:20Z</time>
      </trkpt>
      <trkpt lat="43.17684" lon="5.77285">
        <ele>47.4</ele>
        <time>2024-06-12T10:24:21Z</time>
      </trkpt>
      <trkpt lat="43.17682" lon="5.77284">
        <ele>47.4</ele>
        <time>2024-06-12T10:24:22Z</time>
      </trkpt>
      <trkpt lat="43.17674" lon="5.77282">
        <ele>47.4</ele>
        <time>2024-06-12T10:24:23Z</time>
      </trkpt>
      <trkpt lat="43.17672" lon="5.77281">
        <ele>47.4</ele>
        <time>2024-06-12T10:24:24Z</time>
      </trkpt>
      <trkpt lat="43.17664" lon="5.77278">
        <ele>46.8</ele>
        <time>2024-06-12T10:24:25Z</time>
      </trkpt>
      <trkpt lat="43.17661" lon="5.77277">
        <ele>46.8</ele>
        <time>2024-06-12T10:24:26Z</time>
      </trkpt>
      <trkpt lat="43.17654" lon="5.77272">
        <ele>46.4</ele>
        <time>2024-06-12T10:24:27Z</time>
      </trkpt>
      <trkpt lat="43.17651" lon="5.7727">
        <ele>46.4</ele>
        <time>2024-06-12T10:24:28Z</time>
      </trkpt>
      <trkpt lat="43.17647" lon="5.77266">
        <ele>46.4</ele>
        <time>2024-06-12T10:24:29Z</time>
      </trkpt>
      <trkpt lat="43.17639" lon="5.77259">
        <ele>45.4</ele>
        <time>2024-06-12T10:24:30Z</time>
      </trkpt>
      <trkpt lat="43.17637" lon="5.77257">
        <ele>45.4</ele>
        <time>2024-06-12T10:24:31Z</time>
      </trkpt>
      <trkpt lat="43.17631" lon="5.77252">
        <ele>45.4</ele>
        <time>2024-06-12T10:24:32Z</time>
      </trkpt>
      <trkpt lat="43.17623" lon="5.77245">
        <ele>45.4</ele>
        <time>2024-06-12T10:24:33Z</time>
      </trkpt>
      <trkpt lat="43.1762" lon="5.77243">
        <ele>45</ele>
        <time>2024-06-12T10:24:34Z</time>
      </trkpt>
      <trkpt lat="43.17611" lon="5.77238">
        <ele>44</ele>
        <time>2024-06-12T10:24:35Z</time>
      </trkpt>
      <trkpt lat="43.17608" lon="5.77238">
        <ele>44</ele>
        <time>2024-06-12T10:24:36Z</time>
      </trkpt>
      <trkpt lat="43.17598" lon="5.77236">
        <ele>44</ele>
        <time>2024-06-12T10:24:37Z</time>
      </trkpt>
      <trkpt lat="43.17594" lon="5.77235">
        <ele>43.6</ele>
        <time>2024-06-12T10:24:38Z</time>
      </trkpt>
      <trkpt lat="43.17588" lon="5.77235">
        <ele>43.6</ele>
        <time>2024-06-12T10:24:39Z</time>
      </trkpt>
      <trkpt lat="43.17582" lon="5.77234">
        <ele>43.8</ele>
        <time>2024-06-12T10:24:40Z</time>
      </trkpt>
      <trkpt lat="43.17576" lon="5.77233">
        <ele>43.8</ele>
        <time>2024-06-12T10:24:41Z</time>
      </trkpt>
      <trkpt lat="43.17571" lon="5.77232">
        <ele>43.8</ele>
        <time>2024-06-12T10:24:42Z</time>
      </trkpt>
      <trkpt lat="43.17565" lon="5.7723">
        <ele>43.8</ele>
        <time>2024-06-12T10:24:43Z</time>
      </trkpt>
      <trkpt lat="43.17559" lon="5.77228">
        <ele>42.6</ele>
        <time>2024-06-12T10:24:44Z</time>
      </trkpt>
      <trkpt lat="43.1755" lon="5.77222">
        <ele>42.6</ele>
        <time>2024-06-12T10:24:45Z</time>
      </trkpt>
      <trkpt lat="43.17547" lon="5.7722">
        <ele>42.6</ele>
        <time>2024-06-12T10:24:46Z</time>
      </trkpt>
      <trkpt lat="43.17539" lon="5.77214">
        <ele>42.2</ele>
        <time>2024-06-12T10:24:47Z</time>
      </trkpt>
      <trkpt lat="43.17537" lon="5.77211">
        <ele>42.2</ele>
        <time>2024-06-12T10:24:48Z</time>
      </trkpt>
      <trkpt lat="43.1753" lon="5.77203">
        <ele>42.2</ele>
        <time>2024-06-12T10:24:49Z</time>
      </trkpt>
      <trkpt lat="43.17528" lon="5.77201">
        <ele>42.2</ele>
        <time>2024-06-12T10:24:50Z</time>
      </trkpt>
      <trkpt lat="43.17521" lon="5.77192">
        <ele>42.2</ele>
        <time>2024-06-12T10:24:51Z</time>
      </trkpt>
      <trkpt lat="43.17519" lon="5.77189">
        <ele>42.2</ele>
        <time>2024-06-12T10:24:52Z</time>
      </trkpt>
      <trkpt lat="43.17513" lon="5.7718">
        <ele>41.8</ele>
        <time>2024-06-12T10:24:53Z</time>
      </trkpt>
      <trkpt lat="43.17511" lon="5.77177">
        <ele>41.8</ele>
        <time>2024-06-12T10:24:54Z</time>
      </trkpt>
      <trkpt lat="43.17504" lon="5.77168">
        <ele>41.8</ele>
        <time>2024-06-12T10:24:55Z</time>
      </trkpt>
      <trkpt lat="43.17503" lon="5.77165">
        <ele>41.2</ele>
        <time>2024-06-12T10:24:56Z</time>
      </trkpt>
      <trkpt lat="43.17499" lon="5.77159">
        <ele>41</ele>
        <time>2024-06-12T10:24:57Z</time>
      </trkpt>
      <trkpt lat="43.17495" lon="5.77153">
        <ele>41</ele>
        <time>2024-06-12T10:24:58Z</time>
      </trkpt>
      <trkpt lat="43.17488" lon="5.77144">
        <ele>41</ele>
        <time>2024-06-12T10:24:59Z</time>
      </trkpt>
      <trkpt lat="43.17486" lon="5.77141">
        <ele>41</ele>
        <time>2024-06-12T10:25:00Z</time>
      </trkpt>
      <trkpt lat="43.1748" lon="5.77131">
        <ele>40.6</ele>
        <time>2024-06-12T10:25:01Z</time>
      </trkpt>
      <trkpt lat="43.17478" lon="5.77128">
        <ele>40.8</ele>
        <time>2024-06-12T10:25:02Z</time>
      </trkpt>
      <trkpt lat="43.17472" lon="5.77119">
        <ele>40.8</ele>
        <time>2024-06-12T10:25:03Z</time>
      </trkpt>
      <trkpt lat="43.1747" lon="5.77116">
        <ele>40.8</ele>
        <time>2024-06-12T10:25:04Z</time>
      </trkpt>
      <trkpt lat="43.17464" lon="5.77107">
        <ele>40.8</ele>
        <time>2024-06-12T10:25:05Z</time>
      </trkpt>
      <trkpt lat="43.17462" lon="5.77104">
        <ele>40.4</ele>
        <time>2024-06-12T10:25:06Z</time>
      </trkpt>
      <trkpt lat="43.17456" lon="5.77096">
        <ele>40.4</ele>
        <time>2024-06-12T10:25:07Z</time>
      </trkpt>
      <trkpt lat="43.17453" lon="5.77093">
        <ele>40.4</ele>
        <time>2024-06-12T10:25:08Z</time>
      </trkpt>
      <trkpt lat="43.17449" lon="5.77089">
        <ele>40.4</ele>
        <time>2024-06-12T10:25:09Z</time>
      </trkpt>
      <trkpt lat="43.17442" lon="5.77083">
        <ele>40.4</ele>
        <time>2024-06-12T10:25:10Z</time>
      </trkpt>
      <trkpt lat="43.1744" lon="5.77081">
        <ele>40.4</ele>
        <time>2024-06-12T10:25:11Z</time>
      </trkpt>
      <trkpt lat="43.17435" lon="5.77077">
        <ele>40.6</ele>
        <time>2024-06-12T10:25:12Z</time>
      </trkpt>
      <trkpt lat="43.17428" lon="5.77074">
        <ele>40.6</ele>
        <time>2024-06-12T10:25:13Z</time>
      </trkpt>
      <trkpt lat="43.17426" lon="5.77074">
        <ele>40.6</ele>
        <time>2024-06-12T10:25:14Z</time>
      </trkpt>
      <trkpt lat="43.17418" lon="5.77072">
        <ele>40.6</ele>
        <time>2024-06-12T10:25:15Z</time>
      </trkpt>
      <trkpt lat="43.17416" lon="5.77072">
        <ele>40.8</ele>
        <time>2024-06-12T10:25:16Z</time>
      </trkpt>
      <trkpt lat="43.17412" lon="5.77073">
        <ele>40.8</ele>
        <time>2024-06-12T10:25:17Z</time>
      </trkpt>
      <trkpt lat="43.1741" lon="5.77074">
        <ele>40.8</ele>
        <time>2024-06-12T10:25:18Z</time>
      </trkpt>
      <trkpt lat="43.1741" lon="5.77077">
        <ele>40.6</ele>
        <time>2024-06-12T10:25:19Z</time>
      </trkpt>
      <trkpt lat="43.17411" lon="5.77078">
        <ele>40.4</ele>
        <time>2024-06-12T10:25:20Z</time>
      </trkpt>
      <trkpt lat="43.17412" lon="5.77079">
        <ele>40.4</ele>
        <time>2024-06-12T10:25:21Z</time>
      </trkpt>
      <trkpt lat="43.17412" lon="5.77079">
        <ele>40.4</ele>
        <time>2024-06-12T10:25:22Z</time>
      </trkpt>
      <trkpt lat="43.17412" lon="5.77079">
        <ele>40.4</ele>
        <time>2024-06-12T10:25:23Z</time>
      </trkpt>
      <trkpt lat="43.17412" lon="5.77079">
        <ele>40.4</ele>
        <time>2024-06-12T10:25:24Z</time>
      </trkpt>
      <trkpt lat="43.17409" lon="5.77079">
        <ele>40.2</ele>
        <time>2024-06-12T10:25:30Z</time>
      </trkpt>
      <trkpt lat="43.17407" lon="5.77079">
        <ele>40.2</ele>
        <time>2024-06-12T10:25:31Z</time>
      </trkpt>
      <trkpt lat="43.17407" lon="5.77079">
        <ele>39.8</ele>
        <time>2024-06-12T10:25:32Z</time>
      </trkpt>
      <trkpt lat="43.17406" lon="5.77079">
        <ele>40</ele>
        <time>2024-06-12T10:25:33Z</time>
      </trkpt>
      <trkpt lat="43.17406" lon="5.77079">
        <ele>40</ele>
        <time>2024-06-12T10:25:34Z</time>
      </trkpt>
      <trkpt lat="43.174" lon="5.77065">
        <ele>45.6</ele>
        <time>2024-06-12T10:27:21Z</time>
      </trkpt>
      <trkpt lat="43.17399" lon="5.77065">
        <ele>45.6</ele>
        <time>2024-06-12T10:27:22Z</time>
      </trkpt>
      <trkpt lat="43.17397" lon="5.77066">
        <ele>45.4</ele>
        <time>2024-06-12T10:27:23Z</time>
      </trkpt>
      <trkpt lat="43.17396" lon="5.77067">
        <ele>45.2</ele>
        <time>2024-06-12T10:27:24Z</time>
      </trkpt>
      <trkpt lat="43.17395" lon="5.77068">
        <ele>45.2</ele>
        <time>2024-06-12T10:27:25Z</time>
      </trkpt>
      <trkpt lat="43.17394" lon="5.77068">
        <ele>45.2</ele>
        <time>2024-06-12T10:27:26Z</time>
      </trkpt>
      <trkpt lat="43.17393" lon="5.77069">
        <ele>44.4</ele>
        <time>2024-06-12T10:27:27Z</time>
      </trkpt>
      <trkpt lat="43.17392" lon="5.77069">
        <ele>44.4</ele>
        <time>2024-06-12T10:27:28Z</time>
      </trkpt>
      <trkpt lat="43.17391" lon="5.77069">
        <ele>44.4</ele>
        <time>2024-06-12T10:27:29Z</time>
      </trkpt>
      <trkpt lat="43.17389" lon="5.77069">
        <ele>44.4</ele>
        <time>2024-06-12T10:27:30Z</time>
      </trkpt>
      <trkpt lat="43.17389" lon="5.77069">
        <ele>43.6</ele>
        <time>2024-06-12T10:27:31Z</time>
      </trkpt>
      <trkpt lat="43.17388" lon="5.7707">
        <ele>43.6</ele>
        <time>2024-06-12T10:27:32Z</time>
      </trkpt>
      <trkpt lat="43.17387" lon="5.7707">
        <ele>43.4</ele>
        <time>2024-06-12T10:27:33Z</time>
      </trkpt>
      <trkpt lat="43.17386" lon="5.77071">
        <ele>43.4</ele>
        <time>2024-06-12T10:27:34Z</time>
      </trkpt>
      <trkpt lat="43.17385" lon="5.77073">
        <ele>43.4</ele>
        <time>2024-06-12T10:27:35Z</time>
      </trkpt>
      <trkpt lat="43.17385" lon="5.77074">
        <ele>43.4</ele>
        <time>2024-06-12T10:27:36Z</time>
      </trkpt>
      <trkpt lat="43.17384" lon="5.77074">
        <ele>43.4</ele>
        <time>2024-06-12T10:27:37Z</time>
      </trkpt>
      <trkpt lat="43.17384" lon="5.77076">
        <ele>42.4</ele>
        <time>2024-06-12T10:27:38Z</time>
      </trkpt>
      <trkpt lat="43.17383" lon="5.77076">
        <ele>42.4</ele>
        <time>2024-06-12T10:27:39Z</time>
      </trkpt>
      <trkpt lat="43.17383" lon="5.77077">
        <ele>42.4</ele>
        <time>2024-06-12T10:27:40Z</time>
      </trkpt>
      <trkpt lat="43.17384" lon="5.77077">
        <ele>42</ele>
        <time>2024-06-12T10:27:41Z</time>
      </trkpt>
      <trkpt lat="43.17384" lon="5.77077">
        <ele>42.2</ele>
        <time>2024-06-12T10:27:42Z</time>
      </trkpt>
      <trkpt lat="43.17384" lon="5.77077">
        <ele>42.2</ele>
        <time>2024-06-12T10:27:43Z</time>
      </trkpt>
      <trkpt lat="43.17392" lon="5.77078">
        <ele>43.2</ele>
        <time>2024-06-12T10:36:57Z</time>
      </trkpt>
      <trkpt lat="43.17392" lon="5.77078">
        <ele>43.4</ele>
        <time>2024-06-12T10:36:58Z</time>
      </trkpt>
      <trkpt lat="43.17392" lon="5.77078">
        <ele>43.4</ele>
        <time>2024-06-12T10:36:59Z</time>
      </trkpt>
      <trkpt lat="43.17392" lon="5.77076">
        <ele>43.4</ele>
        <time>2024-06-12T10:37:00Z</time>
      </trkpt>
      <trkpt lat="43.17391" lon="5.77074">
        <ele>43.4</ele>
        <time>2024-06-12T10:37:01Z</time>
      </trkpt>
      <trkpt lat="43.1739" lon="5.77073">
        <ele>43.4</ele>
        <time>2024-06-12T10:37:02Z</time>
      </trkpt>
      <trkpt lat="43.17387" lon="5.77072">
        <ele>42.8</ele>
        <time>2024-06-12T10:37:03Z</time>
      </trkpt>
      <trkpt lat="43.17385" lon="5.77072">
        <ele>42.8</ele>
        <time>2024-06-12T10:37:04Z</time>
      </trkpt>
      <trkpt lat="43.17382" lon="5.77071">
        <ele>42.8</ele>
        <time>2024-06-12T10:37:05Z</time>
      </trkpt>
      <trkpt lat="43.1738" lon="5.77071">
        <ele>40.8</ele>
        <time>2024-06-12T10:37:16Z</time>
      </trkpt>
      <trkpt lat="43.17378" lon="5.7707">
        <ele>40.4</ele>
        <time>2024-06-12T10:37:17Z</time>
      </trkpt>
      <trkpt lat="43.17373" lon="5.7707">
        <ele>40.4</ele>
        <time>2024-06-12T10:37:18Z</time>
      </trkpt>
      <trkpt lat="43.17372" lon="5.7707">
        <ele>40.4</ele>
        <time>2024-06-12T10:37:19Z</time>
      </trkpt>
      <trkpt lat="43.17366" lon="5.77069">
        <ele>40.4</ele>
        <time>2024-06-12T10:37:20Z</time>
      </trkpt>
      <trkpt lat="43.17365" lon="5.77069">
        <ele>40.4</ele>
        <time>2024-06-12T10:37:21Z</time>
      </trkpt>
      <trkpt lat="43.17359" lon="5.77069">
        <ele>39.8</ele>
        <time>2024-06-12T10:37:22Z</time>
      </trkpt>
      <trkpt lat="43.17357" lon="5.77069">
        <ele>39.8</ele>
        <time>2024-06-12T10:37:23Z</time>
      </trkpt>
      <trkpt lat="43.17351" lon="5.77069">
        <ele>39.8</ele>
        <time>2024-06-12T10:37:24Z</time>
      </trkpt>
      <trkpt lat="43.17349" lon="5.77068">
        <ele>39</ele>
        <time>2024-06-12T10:37:25Z</time>
      </trkpt>
      <trkpt lat="43.17342" lon="5.77068">
        <ele>38.8</ele>
        <time>2024-06-12T10:37:26Z</time>
      </trkpt>
      <trkpt lat="43.1734" lon="5.77068">
        <ele>38.8</ele>
        <time>2024-06-12T10:37:27Z</time>
      </trkpt>
      <trkpt lat="43.17333" lon="5.77068">
        <ele>38.8</ele>
        <time>2024-06-12T10:37:28Z</time>
      </trkpt>
      <trkpt lat="43.17331" lon="5.77069">
        <ele>38.4</ele>
        <time>2024-06-12T10:37:29Z</time>
      </trkpt>
      <trkpt lat="43.17327" lon="5.77069">
        <ele>38.4</ele>
        <time>2024-06-12T10:37:30Z</time>
      </trkpt>
      <trkpt lat="43.1732" lon="5.77068">
        <ele>38.4</ele>
        <time>2024-06-12T10:37:31Z</time>
      </trkpt>
      <trkpt lat="43.17318" lon="5.77068">
        <ele>38.4</ele>
        <time>2024-06-12T10:37:32Z</time>
      </trkpt>
      <trkpt lat="43.17313" lon="5.77068">
        <ele>38.4</ele>
        <time>2024-06-12T10:37:33Z</time>
      </trkpt>
      <trkpt lat="43.17309" lon="5.77068">
        <ele>38</ele>
        <time>2024-06-12T10:37:34Z</time>
      </trkpt>
      <trkpt lat="43.17304" lon="5.77068">
        <ele>37.8</ele>
        <time>2024-06-12T10:37:35Z</time>
      </trkpt>
      <trkpt lat="43.17299" lon="5.77068">
        <ele>37.8</ele>
        <time>2024-06-12T10:37:36Z</time>
      </trkpt>
      <trkpt lat="43.17295" lon="5.77068">
        <ele>37.8</ele>
        <time>2024-06-12T10:37:37Z</time>
      </trkpt>
      <trkpt lat="43.1729" lon="5.77068">
        <ele>37.4</ele>
        <time>2024-06-12T10:37:38Z</time>
      </trkpt>
      <trkpt lat="43.17285" lon="5.77068">
        <ele>37.4</ele>
        <time>2024-06-12T10:37:39Z</time>
      </trkpt>
      <trkpt lat="43.1728" lon="5.77068">
        <ele>37.2</ele>
        <time>2024-06-12T10:37:40Z</time>
      </trkpt>
      <trkpt lat="43.17273" lon="5.77068">
        <ele>37.2</ele>
        <time>2024-06-12T10:37:41Z</time>
      </trkpt>
      <trkpt lat="43.1727" lon="5.77068">
        <ele>37.2</ele>
        <time>2024-06-12T10:37:42Z</time>
      </trkpt>
      <trkpt lat="43.17263" lon="5.77068">
        <ele>37</ele>
        <time>2024-06-12T10:37:43Z</time>
      </trkpt>
      <trkpt lat="43.17261" lon="5.77068">
        <ele>36.8</ele>
        <time>2024-06-12T10:37:44Z</time>
      </trkpt>
      <trkpt lat="43.17256" lon="5.77067">
        <ele>36.8</ele>
        <time>2024-06-12T10:37:45Z</time>
      </trkpt>
      <trkpt lat="43.17251" lon="5.77067">
        <ele>36.8</ele>
        <time>2024-06-12T10:37:46Z</time>
      </trkpt>
      <trkpt lat="43.17243" lon="5.77067">
        <ele>36.8</ele>
        <time>2024-06-12T10:37:47Z</time>
      </trkpt>
      <trkpt lat="43.17241" lon="5.77067">
        <ele>36.6</ele>
        <time>2024-06-12T10:37:48Z</time>
      </trkpt>
      <trkpt lat="43.17233" lon="5.77066">
        <ele>36.6</ele>
        <time>2024-06-12T10:37:49Z</time>
      </trkpt>
      <trkpt lat="43.17231" lon="5.77066">
        <ele>36.6</ele>
        <time>2024-06-12T10:37:50Z</time>
      </trkpt>
      <trkpt lat="43.17223" lon="5.77066">
        <ele>36.6</ele>
        <time>2024-06-12T10:37:51Z</time>
      </trkpt>
      <trkpt lat="43.17221" lon="5.77066">
        <ele>36.6</ele>
        <time>2024-06-12T10:37:52Z</time>
      </trkpt>
      <trkpt lat="43.17213" lon="5.77066">
        <ele>36.6</ele>
        <time>2024-06-12T10:37:53Z</time>
      </trkpt>
      <trkpt lat="43.17211" lon="5.77066">
        <ele>36.6</ele>
        <time>2024-06-12T10:37:54Z</time>
      </trkpt>
      <trkpt lat="43.17204" lon="5.77067">
        <ele>36.6</ele>
        <time>2024-06-12T10:37:55Z</time>
      </trkpt>
      <trkpt lat="43.17201" lon="5.77067">
        <ele>36.6</ele>
        <time>2024-06-12T10:37:56Z</time>
      </trkpt>
      <trkpt lat="43.17194" lon="5.77069">
        <ele>36.4</ele>
        <time>2024-06-12T10:37:57Z</time>
      </trkpt>
      <trkpt lat="43.17191" lon="5.7707">
        <ele>36.4</ele>
        <time>2024-06-12T10:37:58Z</time>
      </trkpt>
      <trkpt lat="43.17186" lon="5.77072">
        <ele>36.4</ele>
        <time>2024-06-12T10:37:59Z</time>
      </trkpt>
      <trkpt lat="43.17182" lon="5.77076">
        <ele>36.4</ele>
        <time>2024-06-12T10:38:00Z</time>
      </trkpt>
      <trkpt lat="43.17174" lon="5.77082">
        <ele>36.4</ele>
        <time>2024-06-12T10:38:01Z</time>
      </trkpt>
      <trkpt lat="43.17171" lon="5.77084">
        <ele>36.4</ele>
        <time>2024-06-12T10:38:02Z</time>
      </trkpt>
      <trkpt lat="43.17163" lon="5.77092">
        <ele>36.4</ele>
        <time>2024-06-12T10:38:03Z</time>
      </trkpt>
      <trkpt lat="43.1716" lon="5.77095">
        <ele>36.4</ele>
        <time>2024-06-12T10:38:04Z</time>
      </trkpt>
      <trkpt lat="43.17152" lon="5.77103">
        <ele>36</ele>
        <time>2024-06-12T10:38:05Z</time>
      </trkpt>
      <trkpt lat="43.17148" lon="5.77105">
        <ele>36</ele>
        <time>2024-06-12T10:38:06Z</time>
      </trkpt>
      <trkpt lat="43.17138" lon="5.77113">
        <ele>36</ele>
        <time>2024-06-12T10:38:07Z</time>
      </trkpt>
      <trkpt lat="43.17135" lon="5.77115">
        <ele>36</ele>
        <time>2024-06-12T10:38:08Z</time>
      </trkpt>
      <trkpt lat="43.17124" lon="5.77122">
        <ele>36</ele>
        <time>2024-06-12T10:38:09Z</time>
      </trkpt>
      <trkpt lat="43.1712" lon="5.77124">
        <ele>36</ele>
        <time>2024-06-12T10:38:10Z</time>
      </trkpt>
      <trkpt lat="43.17109" lon="5.77131">
        <ele>36</ele>
        <time>2024-06-12T10:38:11Z</time>
      </trkpt>
      <trkpt lat="43.17105" lon="5.77133">
        <ele>36</ele>
        <time>2024-06-12T10:38:12Z</time>
      </trkpt>
      <trkpt lat="43.17097" lon="5.77137">
        <ele>36</ele>
        <time>2024-06-12T10:38:13Z</time>
      </trkpt>
      <trkpt lat="43.17086" lon="5.77141">
        <ele>35.4</ele>
        <time>2024-06-12T10:38:14Z</time>
      </trkpt>
      <trkpt lat="43.17082" lon="5.77143">
        <ele>35.6</ele>
        <time>2024-06-12T10:38:15Z</time>
      </trkpt>
      <trkpt lat="43.17074" lon="5.77146">
        <ele>35.6</ele>
        <time>2024-06-12T10:38:16Z</time>
      </trkpt>
      <trkpt lat="43.17066" lon="5.77149">
        <ele>35.6</ele>
        <time>2024-06-12T10:38:17Z</time>
      </trkpt>
      <trkpt lat="43.17059" lon="5.77152">
        <ele>35</ele>
        <time>2024-06-12T10:38:18Z</time>
      </trkpt>
      <trkpt lat="43.17051" lon="5.77154">
        <ele>35</ele>
        <time>2024-06-12T10:38:19Z</time>
      </trkpt>
      <trkpt lat="43.17043" lon="5.77156">
        <ele>35</ele>
        <time>2024-06-12T10:38:20Z</time>
      </trkpt>
      <trkpt lat="43.17035" lon="5.77158">
        <ele>35</ele>
        <time>2024-06-12T10:38:21Z</time>
      </trkpt>
      <trkpt lat="43.17027" lon="5.7716">
        <ele>35</ele>
        <time>2024-06-12T10:38:22Z</time>
      </trkpt>
      <trkpt lat="43.1702" lon="5.77161">
        <ele>35.2</ele>
        <time>2024-06-12T10:38:23Z</time>
      </trkpt>
      <trkpt lat="43.17009" lon="5.77163">
        <ele>35.2</ele>
        <time>2024-06-12T10:38:24Z</time>
      </trkpt>
      <trkpt lat="43.17005" lon="5.77163">
        <ele>35.2</ele>
        <time>2024-06-12T10:38:25Z</time>
      </trkpt>
      <trkpt lat="43.16994" lon="5.77164">
        <ele>35.2</ele>
        <time>2024-06-12T10:38:26Z</time>
      </trkpt>
      <trkpt lat="43.16991" lon="5.77165">
        <ele>35.2</ele>
        <time>2024-06-12T10:38:27Z</time>
      </trkpt>
      <trkpt lat="43.1698" lon="5.77165">
        <ele>35</ele>
        <time>2024-06-12T10:38:28Z</time>
      </trkpt>
      <trkpt lat="43.16977" lon="5.77166">
        <ele>35</ele>
        <time>2024-06-12T10:38:29Z</time>
      </trkpt>
      <trkpt lat="43.16967" lon="5.77166">
        <ele>35</ele>
        <time>2024-06-12T10:38:30Z</time>
      </trkpt>
      <trkpt lat="43.16964" lon="5.77166">
        <ele>35</ele>
        <time>2024-06-12T10:38:31Z</time>
      </trkpt>
      <trkpt lat="43.16954" lon="5.77165">
        <ele>35.4</ele>
        <time>2024-06-12T10:38:32Z</time>
      </trkpt>
      <trkpt lat="43.16951" lon="5.77165">
        <ele>35.2</ele>
        <time>2024-06-12T10:38:33Z</time>
      </trkpt>
      <trkpt lat="43.16941" lon="5.77164">
        <ele>35.2</ele>
        <time>2024-06-12T10:38:34Z</time>
      </trkpt>
      <trkpt lat="43.16938" lon="5.77164">
        <ele>35.2</ele>
        <time>2024-06-12T10:38:35Z</time>
      </trkpt>
      <trkpt lat="43.1693" lon="5.77163">
        <ele>35.2</ele>
        <time>2024-06-12T10:38:36Z</time>
      </trkpt>
      <trkpt lat="43.16927" lon="5.77162">
        <ele>35.4</ele>
        <time>2024-06-12T10:38:37Z</time>
      </trkpt>
      <trkpt lat="43.16918" lon="5.7716">
        <ele>35.4</ele>
        <time>2024-06-12T10:38:38Z</time>
      </trkpt>
      <trkpt lat="43.16916" lon="5.7716">
        <ele>35.4</ele>
        <time>2024-06-12T10:38:39Z</time>
      </trkpt>
      <trkpt lat="43.1691" lon="5.77158">
        <ele>35.4</ele>
        <time>2024-06-12T10:38:40Z</time>
      </trkpt>
      <trkpt lat="43.16902" lon="5.77155">
        <ele>35.4</ele>
        <time>2024-06-12T10:38:41Z</time>
      </trkpt>
      <trkpt lat="43.16899" lon="5.77154">
        <ele>35.4</ele>
        <time>2024-06-12T10:38:42Z</time>
      </trkpt>
      <trkpt lat="43.16891" lon="5.77149">
        <ele>35.4</ele>
        <time>2024-06-12T10:38:43Z</time>
      </trkpt>
      <trkpt lat="43.16889" lon="5.77146">
        <ele>35.4</ele>
        <time>2024-06-12T10:38:44Z</time>
      </trkpt>
      <trkpt lat="43.16884" lon="5.77141">
        <ele>35.4</ele>
        <time>2024-06-12T10:38:45Z</time>
      </trkpt>
      <trkpt lat="43.16879" lon="5.77135">
        <ele>34.6</ele>
        <time>2024-06-12T10:38:46Z</time>
      </trkpt>
      <trkpt lat="43.16874" lon="5.77123">
        <ele>34.4</ele>
        <time>2024-06-12T10:38:47Z</time>
      </trkpt>
      <trkpt lat="43.16872" lon="5.77118">
        <ele>34.4</ele>
        <time>2024-06-12T10:38:48Z</time>
      </trkpt>
      <trkpt lat="43.16867" lon="5.77105">
        <ele>34.4</ele>
        <time>2024-06-12T10:38:49Z</time>
      </trkpt>
      <trkpt lat="43.16866" lon="5.771">
        <ele>33.4</ele>
        <time>2024-06-12T10:38:50Z</time>
      </trkpt>
      <trkpt lat="43.16863" lon="5.77085">
        <ele>33.4</ele>
        <time>2024-06-12T10:38:51Z</time>
      </trkpt>
      <trkpt lat="43.16862" lon="5.77081">
        <ele>33.4</ele>
        <time>2024-06-12T10:38:52Z</time>
      </trkpt>
      <trkpt lat="43.1686" lon="5.77066">
        <ele>33.4</ele>
        <time>2024-06-12T10:38:53Z</time>
      </trkpt>
      <trkpt lat="43.16859" lon="5.77061">
        <ele>32.8</ele>
        <time>2024-06-12T10:38:54Z</time>
      </trkpt>
      <trkpt lat="43.16857" lon="5.77046">
        <ele>32.6</ele>
        <time>2024-06-12T10:38:55Z</time>
      </trkpt>
      <trkpt lat="43.16856" lon="5.77041">
        <ele>32.6</ele>
        <time>2024-06-12T10:38:56Z</time>
      </trkpt>
      <trkpt lat="43.16854" lon="5.77031">
        <ele>32.6</ele>
        <time>2024-06-12T10:38:57Z</time>
      </trkpt>
      <trkpt lat="43.16851" lon="5.77022">
        <ele>32.6</ele>
        <time>2024-06-12T10:38:58Z</time>
      </trkpt>
      <trkpt lat="43.16848" lon="5.77013">
        <ele>32.6</ele>
        <time>2024-06-12T10:38:59Z</time>
      </trkpt>
      <trkpt lat="43.16844" lon="5.77005">
        <ele>32.2</ele>
        <time>2024-06-12T10:39:00Z</time>
      </trkpt>
      <trkpt lat="43.1684" lon="5.76996">
        <ele>32.2</ele>
        <time>2024-06-12T10:39:01Z</time>
      </trkpt>
      <trkpt lat="43.16835" lon="5.76989">
        <ele>32.2</ele>
        <time>2024-06-12T10:39:02Z</time>
      </trkpt>
      <trkpt lat="43.16828" lon="5.76978">
        <ele>32.2</ele>
        <time>2024-06-12T10:39:03Z</time>
      </trkpt>
      <trkpt lat="43.16825" lon="5.76975">
        <ele>31.8</ele>
        <time>2024-06-12T10:39:04Z</time>
      </trkpt>
      <trkpt lat="43.16816" lon="5.76966">
        <ele>31.8</ele>
        <time>2024-06-12T10:39:05Z</time>
      </trkpt>
      <trkpt lat="43.16813" lon="5.76963">
        <ele>31.8</ele>
        <time>2024-06-12T10:39:06Z</time>
      </trkpt>
      <trkpt lat="43.16804" lon="5.76955">
        <ele>31.2</ele>
        <time>2024-06-12T10:39:07Z</time>
      </trkpt>
      <trkpt lat="43.168" lon="5.76952">
        <ele>31.2</ele>
        <time>2024-06-12T10:39:08Z</time>
      </trkpt>
      <trkpt lat="43.16794" lon="5.76947">
        <ele>31</ele>
        <time>2024-06-12T10:39:09Z</time>
      </trkpt>
      <trkpt lat="43.16787" lon="5.76942">
        <ele>31</ele>
        <time>2024-06-12T10:39:10Z</time>
      </trkpt>
      <trkpt lat="43.16777" lon="5.76934">
        <ele>31</ele>
        <time>2024-06-12T10:39:11Z</time>
      </trkpt>
      <trkpt lat="43.16773" lon="5.76932">
        <ele>30.6</ele>
        <time>2024-06-12T10:39:12Z</time>
      </trkpt>
      <trkpt lat="43.16763" lon="5.76925">
        <ele>30.8</ele>
        <time>2024-06-12T10:39:13Z</time>
      </trkpt>
      <trkpt lat="43.1676" lon="5.76922">
        <ele>30.8</ele>
        <time>2024-06-12T10:39:14Z</time>
      </trkpt>
      <trkpt lat="43.16753" lon="5.76917">
        <ele>30.8</ele>
        <time>2024-06-12T10:39:15Z</time>
      </trkpt>
      <trkpt lat="43.16747" lon="5.76912">
        <ele>30.2</ele>
        <time>2024-06-12T10:39:16Z</time>
      </trkpt>
      <trkpt lat="43.1674" lon="5.76907">
        <ele>30.2</ele>
        <time>2024-06-12T10:39:17Z</time>
      </trkpt>
      <trkpt lat="43.16734" lon="5.76903">
        <ele>30.2</ele>
        <time>2024-06-12T10:39:18Z</time>
      </trkpt>
      <trkpt lat="43.16724" lon="5.76896">
        <ele>30.2</ele>
        <time>2024-06-12T10:39:19Z</time>
      </trkpt>
      <trkpt lat="43.16721" lon="5.76894">
        <ele>30.2</ele>
        <time>2024-06-12T10:39:20Z</time>
      </trkpt>
      <trkpt lat="43.16711" lon="5.76887">
        <ele>29.6</ele>
        <time>2024-06-12T10:39:21Z</time>
      </trkpt>
      <trkpt lat="43.16707" lon="5.76884">
        <ele>29.6</ele>
        <time>2024-06-12T10:39:22Z</time>
      </trkpt>
      <trkpt lat="43.16701" lon="5.76879">
        <ele>29.6</ele>
        <time>2024-06-12T10:39:23Z</time>
      </trkpt>
      <trkpt lat="43.16694" lon="5.76875">
        <ele>29.6</ele>
        <time>2024-06-12T10:39:24Z</time>
      </trkpt>
      <trkpt lat="43.16684" lon="5.76868">
        <ele>29.6</ele>
        <time>2024-06-12T10:39:25Z</time>
      </trkpt>
      <trkpt lat="43.16681" lon="5.76866">
        <ele>28.6</ele>
        <time>2024-06-12T10:39:26Z</time>
      </trkpt>
      <trkpt lat="43.16671" lon="5.76859">
        <ele>28.8</ele>
        <time>2024-06-12T10:39:27Z</time>
      </trkpt>
      <trkpt lat="43.16668" lon="5.76857">
        <ele>28.8</ele>
        <time>2024-06-12T10:39:28Z</time>
      </trkpt>
      <trkpt lat="43.16658" lon="5.76851">
        <ele>28.8</ele>
        <time>2024-06-12T10:39:29Z</time>
      </trkpt>
      <trkpt lat="43.16654" lon="5.76849">
        <ele>28.8</ele>
        <time>2024-06-12T10:39:30Z</time>
      </trkpt>
      <trkpt lat="43.16644" lon="5.76845">
        <ele>28.6</ele>
        <time>2024-06-12T10:39:31Z</time>
      </trkpt>
      <trkpt lat="43.16641" lon="5.76843">
        <ele>27.6</ele>
        <time>2024-06-12T10:39:32Z</time>
      </trkpt>
      <trkpt lat="43.1663" lon="5.7684">
        <ele>27.6</ele>
        <time>2024-06-12T10:39:33Z</time>
      </trkpt>
      <trkpt lat="43.16626" lon="5.7684">
        <ele>27.6</ele>
        <time>2024-06-12T10:39:34Z</time>
      </trkpt>
      <trkpt lat="43.16619" lon="5.76839">
        <ele>27.6</ele>
        <time>2024-06-12T10:39:35Z</time>
      </trkpt>
      <trkpt lat="43.16607" lon="5.76837">
        <ele>27</ele>
        <time>2024-06-12T10:39:36Z</time>
      </trkpt>
      <trkpt lat="43.16603" lon="5.76837">
        <ele>27</ele>
        <time>2024-06-12T10:39:37Z</time>
      </trkpt>
      <trkpt lat="43.16592" lon="5.76835">
        <ele>27</ele>
        <time>2024-06-12T10:39:38Z</time>
      </trkpt>
      <trkpt lat="43.16588" lon="5.76834">
        <ele>27</ele>
        <time>2024-06-12T10:39:39Z</time>
      </trkpt>
      <trkpt lat="43.16581" lon="5.76832">
        <ele>27</ele>
        <time>2024-06-12T10:39:40Z</time>
      </trkpt>
      <trkpt lat="43.16574" lon="5.7683">
        <ele>26.2</ele>
        <time>2024-06-12T10:39:41Z</time>
      </trkpt>
      <trkpt lat="43.16567" lon="5.76827">
        <ele>26.2</ele>
        <time>2024-06-12T10:39:42Z</time>
      </trkpt>
      <trkpt lat="43.1656" lon="5.76823">
        <ele>26.2</ele>
        <time>2024-06-12T10:39:43Z</time>
      </trkpt>
      <trkpt lat="43.16554" lon="5.76819">
        <ele>25.6</ele>
        <time>2024-06-12T10:39:44Z</time>
      </trkpt>
      <trkpt lat="43.16548" lon="5.76814">
        <ele>25.4</ele>
        <time>2024-06-12T10:39:45Z</time>
      </trkpt>
      <trkpt lat="43.16543" lon="5.76809">
        <ele>25.4</ele>
        <time>2024-06-12T10:39:46Z</time>
      </trkpt>
      <trkpt lat="43.16537" lon="5.76803">
        <ele>25.4</ele>
        <time>2024-06-12T10:39:47Z</time>
      </trkpt>
      <trkpt lat="43.16531" lon="5.76794">
        <ele>25.4</ele>
        <time>2024-06-12T10:39:48Z</time>
      </trkpt>
      <trkpt lat="43.16529" lon="5.7679">
        <ele>25.4</ele>
        <time>2024-06-12T10:39:49Z</time>
      </trkpt>
      <trkpt lat="43.16523" lon="5.7678">
        <ele>25.4</ele>
        <time>2024-06-12T10:39:50Z</time>
      </trkpt>
      <trkpt lat="43.16521" lon="5.76777">
        <ele>25.4</ele>
        <time>2024-06-12T10:39:51Z</time>
      </trkpt>
      <trkpt lat="43.16516" lon="5.76767">
        <ele>25.4</ele>
        <time>2024-06-12T10:39:52Z</time>
      </trkpt>
      <trkpt lat="43.16515" lon="5.76763">
        <ele>25.4</ele>
        <time>2024-06-12T10:39:53Z</time>
      </trkpt>
      <trkpt lat="43.16511" lon="5.76757">
        <ele>25</ele>
        <time>2024-06-12T10:39:54Z</time>
      </trkpt>
      <trkpt lat="43.16509" lon="5.76751">
        <ele>25</ele>
        <time>2024-06-12T10:39:55Z</time>
      </trkpt>
      <trkpt lat="43.16507" lon="5.76744">
        <ele>25</ele>
        <time>2024-06-12T10:39:56Z</time>
      </trkpt>
      <trkpt lat="43.16503" lon="5.76735">
        <ele>25</ele>
        <time>2024-06-12T10:39:57Z</time>
      </trkpt>
      <trkpt lat="43.16502" lon="5.76732">
        <ele>25</ele>
        <time>2024-06-12T10:39:58Z</time>
      </trkpt>
      <trkpt lat="43.165" lon="5.76728">
        <ele>25</ele>
        <time>2024-06-12T10:39:59Z</time>
      </trkpt>
      <trkpt lat="43.16498" lon="5.76723">
        <ele>25</ele>
        <time>2024-06-12T10:40:00Z</time>
      </trkpt>
      <trkpt lat="43.16494" lon="5.76714">
        <ele>25</ele>
        <time>2024-06-12T10:40:01Z</time>
      </trkpt>
      <trkpt lat="43.16493" lon="5.7671">
        <ele>25.2</ele>
        <time>2024-06-12T10:40:02Z</time>
      </trkpt>
      <trkpt lat="43.1649" lon="5.76697">
        <ele>25.2</ele>
        <time>2024-06-12T10:40:03Z</time>
      </trkpt>
      <trkpt lat="43.1649" lon="5.76693">
        <ele>25.2</ele>
        <time>2024-06-12T10:40:04Z</time>
      </trkpt>
      <trkpt lat="43.16491" lon="5.76679">
        <ele>25.2</ele>
        <time>2024-06-12T10:40:05Z</time>
      </trkpt>
      <trkpt lat="43.16491" lon="5.76675">
        <ele>25.2</ele>
        <time>2024-06-12T10:40:06Z</time>
      </trkpt>
      <trkpt lat="43.1649" lon="5.76662">
        <ele>25.2</ele>
        <time>2024-06-12T10:40:07Z</time>
      </trkpt>
      <trkpt lat="43.16489" lon="5.76658">
        <ele>25.2</ele>
        <time>2024-06-12T10:40:08Z</time>
      </trkpt>
      <trkpt lat="43.16487" lon="5.76646">
        <ele>25.2</ele>
        <time>2024-06-12T10:40:09Z</time>
      </trkpt>
      <trkpt lat="43.16486" lon="5.76641">
        <ele>25.8</ele>
        <time>2024-06-12T10:40:10Z</time>
      </trkpt>
      <trkpt lat="43.16484" lon="5.76633">
        <ele>25.8</ele>
        <time>2024-06-12T10:40:11Z</time>
      </trkpt>
      <trkpt lat="43.1648" lon="5.76623">
        <ele>25.8</ele>
        <time>2024-06-12T10:40:12Z</time>
      </trkpt>
      <trkpt lat="43.16479" lon="5.7662">
        <ele>25.8</ele>
        <time>2024-06-12T10:40:13Z</time>
      </trkpt>
      <trkpt lat="43.16475" lon="5.7661">
        <ele>25.8</ele>
        <time>2024-06-12T10:40:14Z</time>
      </trkpt>
      <trkpt lat="43.16473" lon="5.76607">
        <ele>26.4</ele>
        <time>2024-06-12T10:40:15Z</time>
      </trkpt>
      <trkpt lat="43.16469" lon="5.76597">
        <ele>26.6</ele>
        <time>2024-06-12T10:40:16Z</time>
      </trkpt>
      <trkpt lat="43.16467" lon="5.76594">
        <ele>26.6</ele>
        <time>2024-06-12T10:40:17Z</time>
      </trkpt>
      <trkpt lat="43.16462" lon="5.76584">
        <ele>26.6</ele>
        <time>2024-06-12T10:40:18Z</time>
      </trkpt>
      <trkpt lat="43.1646" lon="5.76581">
        <ele>26.6</ele>
        <time>2024-06-12T10:40:19Z</time>
      </trkpt>
      <trkpt lat="43.16457" lon="5.76574">
        <ele>26.8</ele>
        <time>2024-06-12T10:40:20Z</time>
      </trkpt>
      <trkpt lat="43.16451" lon="5.76564">
        <ele>26.8</ele>
        <time>2024-06-12T10:40:21Z</time>
      </trkpt>
      <trkpt lat="43.16449" lon="5.7656">
        <ele>26.8</ele>
        <time>2024-06-12T10:40:22Z</time>
      </trkpt>
      <trkpt lat="43.16445" lon="5.76553">
        <ele>26.8</ele>
        <time>2024-06-12T10:40:23Z</time>
      </trkpt>
      <trkpt lat="43.16441" lon="5.76547">
        <ele>26.4</ele>
        <time>2024-06-12T10:40:24Z</time>
      </trkpt>
      <trkpt lat="43.16436" lon="5.76541">
        <ele>26.6</ele>
        <time>2024-06-12T10:40:25Z</time>
      </trkpt>
      <trkpt lat="43.16431" lon="5.76534">
        <ele>26.6</ele>
        <time>2024-06-12T10:40:26Z</time>
      </trkpt>
      <trkpt lat="43.16426" lon="5.76528">
        <ele>26.6</ele>
        <time>2024-06-12T10:40:27Z</time>
      </trkpt>
      <trkpt lat="43.16421" lon="5.76521">
        <ele>25.6</ele>
        <time>2024-06-12T10:40:28Z</time>
      </trkpt>
      <trkpt lat="43.16412" lon="5.76511">
        <ele>25.6</ele>
        <time>2024-06-12T10:40:29Z</time>
      </trkpt>
      <trkpt lat="43.16409" lon="5.76509">
        <ele>26.2</ele>
        <time>2024-06-12T10:40:30Z</time>
      </trkpt>
      <trkpt lat="43.164" lon="5.765">
        <ele>26.2</ele>
        <time>2024-06-12T10:40:31Z</time>
      </trkpt>
      <trkpt lat="43.16396" lon="5.76497">
        <ele>25.2</ele>
        <time>2024-06-12T10:40:32Z</time>
      </trkpt>
      <trkpt lat="43.1639" lon="5.76491">
        <ele>24.8</ele>
        <time>2024-06-12T10:40:33Z</time>
      </trkpt>
      <trkpt lat="43.16383" lon="5.76485">
        <ele>24.8</ele>
        <time>2024-06-12T10:40:34Z</time>
      </trkpt>
      <trkpt lat="43.16372" lon="5.76474">
        <ele>24.8</ele>
        <time>2024-06-12T10:40:35Z</time>
      </trkpt>
      <trkpt lat="43.16368" lon="5.76471">
        <ele>24.8</ele>
        <time>2024-06-12T10:40:36Z</time>
      </trkpt>
      <trkpt lat="43.16361" lon="5.76464">
        <ele>23.8</ele>
        <time>2024-06-12T10:40:37Z</time>
      </trkpt>
      <trkpt lat="43.16353" lon="5.76458">
        <ele>23.6</ele>
        <time>2024-06-12T10:40:38Z</time>
      </trkpt>
      <trkpt lat="43.16341" lon="5.76449">
        <ele>23.6</ele>
        <time>2024-06-12T10:40:39Z</time>
      </trkpt>
      <trkpt lat="43.16337" lon="5.76447">
        <ele>23.6</ele>
        <time>2024-06-12T10:40:40Z</time>
      </trkpt>
      <trkpt lat="43.16325" lon="5.76442">
        <ele>23</ele>
        <time>2024-06-12T10:40:41Z</time>
      </trkpt>
      <trkpt lat="43.16321" lon="5.76441">
        <ele>22.8</ele>
        <time>2024-06-12T10:40:42Z</time>
      </trkpt>
      <trkpt lat="43.16309" lon="5.76438">
        <ele>22.8</ele>
        <time>2024-06-12T10:40:43Z</time>
      </trkpt>
      <trkpt lat="43.16305" lon="5.76437">
        <ele>22.8</ele>
        <time>2024-06-12T10:40:44Z</time>
      </trkpt>
      <trkpt lat="43.16293" lon="5.76434">
        <ele>21.8</ele>
        <time>2024-06-12T10:40:45Z</time>
      </trkpt>
      <trkpt lat="43.16288" lon="5.76434">
        <ele>21.8</ele>
        <time>2024-06-12T10:40:46Z</time>
      </trkpt>
      <trkpt lat="43.16276" lon="5.76432">
        <ele>22</ele>
        <time>2024-06-12T10:40:47Z</time>
      </trkpt>
      <trkpt lat="43.16272" lon="5.76431">
        <ele>22</ele>
        <time>2024-06-12T10:40:48Z</time>
      </trkpt>
      <trkpt lat="43.1626" lon="5.76429">
        <ele>22</ele>
        <time>2024-06-12T10:40:49Z</time>
      </trkpt>
      <trkpt lat="43.16256" lon="5.76429">
        <ele>22</ele>
        <time>2024-06-12T10:40:50Z</time>
      </trkpt>
      <trkpt lat="43.16245" lon="5.76426">
        <ele>21</ele>
        <time>2024-06-12T10:40:51Z</time>
      </trkpt>
      <trkpt lat="43.16241" lon="5.76426">
        <ele>20.8</ele>
        <time>2024-06-12T10:40:52Z</time>
      </trkpt>
      <trkpt lat="43.1623" lon="5.76423">
        <ele>20.8</ele>
        <time>2024-06-12T10:40:53Z</time>
      </trkpt>
      <trkpt lat="43.16226" lon="5.76422">
        <ele>20.8</ele>
        <time>2024-06-12T10:40:54Z</time>
      </trkpt>
      <trkpt lat="43.16215" lon="5.7642">
        <ele>20</ele>
        <time>2024-06-12T10:40:55Z</time>
      </trkpt>
      <trkpt lat="43.16211" lon="5.76419">
        <ele>19.6</ele>
        <time>2024-06-12T10:40:56Z</time>
      </trkpt>
      <trkpt lat="43.162" lon="5.76416">
        <ele>19.6</ele>
        <time>2024-06-12T10:40:57Z</time>
      </trkpt>
      <trkpt lat="43.16196" lon="5.76415">
        <ele>19.6</ele>
        <time>2024-06-12T10:40:58Z</time>
      </trkpt>
      <trkpt lat="43.16185" lon="5.76412">
        <ele>19.6</ele>
        <time>2024-06-12T10:40:59Z</time>
      </trkpt>
      <trkpt lat="43.16181" lon="5.76411">
        <ele>19.6</ele>
        <time>2024-06-12T10:41:00Z</time>
      </trkpt>
      <trkpt lat="43.1617" lon="5.76407">
        <ele>19.4</ele>
        <time>2024-06-12T10:41:01Z</time>
      </trkpt>
      <trkpt lat="43.16166" lon="5.76406">
        <ele>19.4</ele>
        <time>2024-06-12T10:41:02Z</time>
      </trkpt>
      <trkpt lat="43.16155" lon="5.76402">
        <ele>19.4</ele>
        <time>2024-06-12T10:41:03Z</time>
      </trkpt>
      <trkpt lat="43.16151" lon="5.76401">
        <ele>18.6</ele>
        <time>2024-06-12T10:41:04Z</time>
      </trkpt>
      <trkpt lat="43.16144" lon="5.76398">
        <ele>19.4</ele>
        <time>2024-06-12T10:41:05Z</time>
      </trkpt>
      <trkpt lat="43.16136" lon="5.76395">
        <ele>19.4</ele>
        <time>2024-06-12T10:41:06Z</time>
      </trkpt>
      <trkpt lat="43.16129" lon="5.76392">
        <ele>19.4</ele>
        <time>2024-06-12T10:41:07Z</time>
      </trkpt>
      <trkpt lat="43.16121" lon="5.76389">
        <ele>18.8</ele>
        <time>2024-06-12T10:41:08Z</time>
      </trkpt>
      <trkpt lat="43.16114" lon="5.76386">
        <ele>18.8</ele>
        <time>2024-06-12T10:41:09Z</time>
      </trkpt>
      <trkpt lat="43.16106" lon="5.76383">
        <ele>19</ele>
        <time>2024-06-12T10:41:10Z</time>
      </trkpt>
      <trkpt lat="43.16095" lon="5.76378">
        <ele>19</ele>
        <time>2024-06-12T10:41:11Z</time>
      </trkpt>
      <trkpt lat="43.16091" lon="5.76376">
        <ele>19</ele>
        <time>2024-06-12T10:41:12Z</time>
      </trkpt>
      <trkpt lat="43.1608" lon="5.76371">
        <ele>18.8</ele>
        <time>2024-06-12T10:41:13Z</time>
      </trkpt>
      <trkpt lat="43.16076" lon="5.7637">
        <ele>18.2</ele>
        <time>2024-06-12T10:41:14Z</time>
      </trkpt>
      <trkpt lat="43.16065" lon="5.76366">
        <ele>18.2</ele>
        <time>2024-06-12T10:41:15Z</time>
      </trkpt>
      <trkpt lat="43.16061" lon="5.76365">
        <ele>18.2</ele>
        <time>2024-06-12T10:41:16Z</time>
      </trkpt>
      <trkpt lat="43.16049" lon="5.76363">
        <ele>18.4</ele>
        <time>2024-06-12T10:41:17Z</time>
      </trkpt>
      <trkpt lat="43.16046" lon="5.76363">
        <ele>18</ele>
        <time>2024-06-12T10:41:18Z</time>
      </trkpt>
      <trkpt lat="43.16034" lon="5.76362">
        <ele>18</ele>
        <time>2024-06-12T10:41:19Z</time>
      </trkpt>
      <trkpt lat="43.16031" lon="5.76362">
        <ele>18</ele>
        <time>2024-06-12T10:41:20Z</time>
      </trkpt>
      <trkpt lat="43.16019" lon="5.76364">
        <ele>18.4</ele>
        <time>2024-06-12T10:41:21Z</time>
      </trkpt>
      <trkpt lat="43.16016" lon="5.76365">
        <ele>17.8</ele>
        <time>2024-06-12T10:41:22Z</time>
      </trkpt>
      <trkpt lat="43.16005" lon="5.76368">
        <ele>17.8</ele>
        <time>2024-06-12T10:41:23Z</time>
      </trkpt>
      <trkpt lat="43.16001" lon="5.76369">
        <ele>17.8</ele>
        <time>2024-06-12T10:41:24Z</time>
      </trkpt>
      <trkpt lat="43.1599" lon="5.76373">
        <ele>17.8</ele>
        <time>2024-06-12T10:41:25Z</time>
      </trkpt>
      <trkpt lat="43.15987" lon="5.76375">
        <ele>18.4</ele>
        <time>2024-06-12T10:41:26Z</time>
      </trkpt>
      <trkpt lat="43.15976" lon="5.76381">
        <ele>18.4</ele>
        <time>2024-06-12T10:41:27Z</time>
      </trkpt>
      <trkpt lat="43.15973" lon="5.76383">
        <ele>18.4</ele>
        <time>2024-06-12T10:41:28Z</time>
      </trkpt>
      <trkpt lat="43.15966" lon="5.76388">
        <ele>18.4</ele>
        <time>2024-06-12T10:41:29Z</time>
      </trkpt>
      <trkpt lat="43.1596" lon="5.76394">
        <ele>18.4</ele>
        <time>2024-06-12T10:41:30Z</time>
      </trkpt>
      <trkpt lat="43.15952" lon="5.76403">
        <ele>18.4</ele>
        <time>2024-06-12T10:41:31Z</time>
      </trkpt>
      <trkpt lat="43.15949" lon="5.76406">
        <ele>18.6</ele>
        <time>2024-06-12T10:41:32Z</time>
      </trkpt>
      <trkpt lat="43.15942" lon="5.76416">
        <ele>18.6</ele>
        <time>2024-06-12T10:41:33Z</time>
      </trkpt>
      <trkpt lat="43.15941" lon="5.76419">
        <ele>18.6</ele>
        <time>2024-06-12T10:41:34Z</time>
      </trkpt>
      <trkpt lat="43.15935" lon="5.7643">
        <ele>18.6</ele>
        <time>2024-06-12T10:41:35Z</time>
      </trkpt>
      <trkpt lat="43.15933" lon="5.76434">
        <ele>19</ele>
        <time>2024-06-12T10:41:36Z</time>
      </trkpt>
      <trkpt lat="43.15928" lon="5.76444">
        <ele>19.2</ele>
        <time>2024-06-12T10:41:37Z</time>
      </trkpt>
      <trkpt lat="43.15926" lon="5.76447">
        <ele>19.2</ele>
        <time>2024-06-12T10:41:38Z</time>
      </trkpt>
      <trkpt lat="43.15922" lon="5.76456">
        <ele>19.2</ele>
        <time>2024-06-12T10:41:39Z</time>
      </trkpt>
      <trkpt lat="43.1592" lon="5.76459">
        <ele>19.2</ele>
        <time>2024-06-12T10:41:40Z</time>
      </trkpt>
      <trkpt lat="43.15916" lon="5.76468">
        <ele>19.8</ele>
        <time>2024-06-12T10:41:41Z</time>
      </trkpt>
      <trkpt lat="43.15915" lon="5.76471">
        <ele>19.8</ele>
        <time>2024-06-12T10:41:42Z</time>
      </trkpt>
      <trkpt lat="43.15912" lon="5.76477">
        <ele>19.8</ele>
        <time>2024-06-12T10:41:43Z</time>
      </trkpt>
      <trkpt lat="43.15906" lon="5.76486">
        <ele>20.2</ele>
        <time>2024-06-12T10:41:44Z</time>
      </trkpt>
      <trkpt lat="43.15904" lon="5.7649">
        <ele>20.2</ele>
        <time>2024-06-12T10:41:45Z</time>
      </trkpt>
      <trkpt lat="43.159" lon="5.76496">
        <ele>20.2</ele>
        <time>2024-06-12T10:41:46Z</time>
      </trkpt>
      <trkpt lat="43.15895" lon="5.76501">
        <ele>20.2</ele>
        <time>2024-06-12T10:41:47Z</time>
      </trkpt>
      <trkpt lat="43.15888" lon="5.76506">
        <ele>20.2</ele>
        <time>2024-06-12T10:41:48Z</time>
      </trkpt>
      <trkpt lat="43.1588" lon="5.76508">
        <ele>20</ele>
        <time>2024-06-12T10:41:49Z</time>
      </trkpt>
      <trkpt lat="43.15872" lon="5.76509">
        <ele>20</ele>
        <time>2024-06-12T10:41:50Z</time>
      </trkpt>
      <trkpt lat="43.15863" lon="5.7651">
        <ele>19.8</ele>
        <time>2024-06-12T10:41:51Z</time>
      </trkpt>
      <trkpt lat="43.1585" lon="5.7651">
        <ele>19.8</ele>
        <time>2024-06-12T10:41:52Z</time>
      </trkpt>
      <trkpt lat="43.15846" lon="5.7651">
        <ele>19.6</ele>
        <time>2024-06-12T10:41:53Z</time>
      </trkpt>
      <trkpt lat="43.15832" lon="5.76509">
        <ele>18.8</ele>
        <time>2024-06-12T10:41:54Z</time>
      </trkpt>
      <trkpt lat="43.15827" lon="5.76509">
        <ele>18.8</ele>
        <time>2024-06-12T10:41:55Z</time>
      </trkpt>
      <trkpt lat="43.15813" lon="5.76506">
        <ele>18.8</ele>
        <time>2024-06-12T10:41:56Z</time>
      </trkpt>
      <trkpt lat="43.15808" lon="5.76505">
        <ele>18.8</ele>
        <time>2024-06-12T10:41:57Z</time>
      </trkpt>
      <trkpt lat="43.158" lon="5.765">
        <ele>18.4</ele>
        <time>2024-06-12T10:41:58Z</time>
      </trkpt>
      <trkpt lat="43.15791" lon="5.76496">
        <ele>18.2</ele>
        <time>2024-06-12T10:41:59Z</time>
      </trkpt>
      <trkpt lat="43.15778" lon="5.76488">
        <ele>18.2</ele>
        <time>2024-06-12T10:42:00Z</time>
      </trkpt>
      <trkpt lat="43.15774" lon="5.76485">
        <ele>18.2</ele>
        <time>2024-06-12T10:42:01Z</time>
      </trkpt>
      <trkpt lat="43.15761" lon="5.76476">
        <ele>17.4</ele>
        <time>2024-06-12T10:42:02Z</time>
      </trkpt>
      <trkpt lat="43.15757" lon="5.76473">
        <ele>16.8</ele>
        <time>2024-06-12T10:42:03Z</time>
      </trkpt>
      <trkpt lat="43.15749" lon="5.76466">
        <ele>16.8</ele>
        <time>2024-06-12T10:42:04Z</time>
      </trkpt>
      <trkpt lat="43.1574" lon="5.7646">
        <ele>16.8</ele>
        <time>2024-06-12T10:42:05Z</time>
      </trkpt>
      <trkpt lat="43.15732" lon="5.76453">
        <ele>16.4</ele>
        <time>2024-06-12T10:42:06Z</time>
      </trkpt>
      <trkpt lat="43.15721" lon="5.76443">
        <ele>16.4</ele>
        <time>2024-06-12T10:42:07Z</time>
      </trkpt>
      <trkpt lat="43.15717" lon="5.76439">
        <ele>15.6</ele>
        <time>2024-06-12T10:42:08Z</time>
      </trkpt>
      <trkpt lat="43.15705" lon="5.7643">
        <ele>15.6</ele>
        <time>2024-06-12T10:42:09Z</time>
      </trkpt>
      <trkpt lat="43.15701" lon="5.76427">
        <ele>15.6</ele>
        <time>2024-06-12T10:42:10Z</time>
      </trkpt>
      <trkpt lat="43.15688" lon="5.7642">
        <ele>15.6</ele>
        <time>2024-06-12T10:42:11Z</time>
      </trkpt>
      <trkpt lat="43.15684" lon="5.76419">
        <ele>15.2</ele>
        <time>2024-06-12T10:42:12Z</time>
      </trkpt>
      <trkpt lat="43.15675" lon="5.76418">
        <ele>15</ele>
        <time>2024-06-12T10:42:13Z</time>
      </trkpt>
      <trkpt lat="43.15663" lon="5.76417">
        <ele>15</ele>
        <time>2024-06-12T10:42:14Z</time>
      </trkpt>
      <trkpt lat="43.15659" lon="5.76417">
        <ele>15</ele>
        <time>2024-06-12T10:42:15Z</time>
      </trkpt>
      <trkpt lat="43.15647" lon="5.76417">
        <ele>14.6</ele>
        <time>2024-06-12T10:42:16Z</time>
      </trkpt>
      <trkpt lat="43.15643" lon="5.76417">
        <ele>15.4</ele>
        <time>2024-06-12T10:42:17Z</time>
      </trkpt>
      <trkpt lat="43.15632" lon="5.76416">
        <ele>15.4</ele>
        <time>2024-06-12T10:42:18Z</time>
      </trkpt>
      <trkpt lat="43.15629" lon="5.76416">
        <ele>15.4</ele>
        <time>2024-06-12T10:42:19Z</time>
      </trkpt>
      <trkpt lat="43.15618" lon="5.76415">
        <ele>15.4</ele>
        <time>2024-06-12T10:42:20Z</time>
      </trkpt>
      <trkpt lat="43.15614" lon="5.76414">
        <ele>14.4</ele>
        <time>2024-06-12T10:42:21Z</time>
      </trkpt>
      <trkpt lat="43.15603" lon="5.76412">
        <ele>13.8</ele>
        <time>2024-06-12T10:42:22Z</time>
      </trkpt>
      <trkpt lat="43.156" lon="5.76411">
        <ele>13.8</ele>
        <time>2024-06-12T10:42:23Z</time>
      </trkpt>
      <trkpt lat="43.15593" lon="5.76408">
        <ele>13.8</ele>
        <time>2024-06-12T10:42:24Z</time>
      </trkpt>
      <trkpt lat="43.15583" lon="5.76406">
        <ele>14.2</ele>
        <time>2024-06-12T10:42:25Z</time>
      </trkpt>
      <trkpt lat="43.15579" lon="5.76405">
        <ele>13.8</ele>
        <time>2024-06-12T10:42:26Z</time>
      </trkpt>
      <trkpt lat="43.15569" lon="5.76403">
        <ele>13.8</ele>
        <time>2024-06-12T10:42:27Z</time>
      </trkpt>
      <trkpt lat="43.15566" lon="5.76402">
        <ele>13.8</ele>
        <time>2024-06-12T10:42:28Z</time>
      </trkpt>
      <trkpt lat="43.15559" lon="5.76401">
        <ele>14.2</ele>
        <time>2024-06-12T10:42:29Z</time>
      </trkpt>
      <trkpt lat="43.15553" lon="5.764">
        <ele>14</ele>
        <time>2024-06-12T10:42:30Z</time>
      </trkpt>
      <trkpt lat="43.15547" lon="5.76398">
        <ele>14</ele>
        <time>2024-06-12T10:42:31Z</time>
      </trkpt>
      <trkpt lat="43.1554" lon="5.76397">
        <ele>14</ele>
        <time>2024-06-12T10:42:32Z</time>
      </trkpt>
      <trkpt lat="43.15534" lon="5.76396">
        <ele>14</ele>
        <time>2024-06-12T10:42:33Z</time>
      </trkpt>
      <trkpt lat="43.15528" lon="5.76395">
        <ele>14.4</ele>
        <time>2024-06-12T10:42:34Z</time>
      </trkpt>
      <trkpt lat="43.15518" lon="5.76393">
        <ele>14.2</ele>
        <time>2024-06-12T10:42:35Z</time>
      </trkpt>
      <trkpt lat="43.15515" lon="5.76392">
        <ele>14.2</ele>
        <time>2024-06-12T10:42:36Z</time>
      </trkpt>
      <trkpt lat="43.15505" lon="5.7639">
        <ele>14.2</ele>
        <time>2024-06-12T10:42:37Z</time>
      </trkpt>
      <trkpt lat="43.15502" lon="5.7639">
        <ele>14</ele>
        <time>2024-06-12T10:42:38Z</time>
      </trkpt>
      <trkpt lat="43.15496" lon="5.76388">
        <ele>13.8</ele>
        <time>2024-06-12T10:42:39Z</time>
      </trkpt>
      <trkpt lat="43.15489" lon="5.76387">
        <ele>13.8</ele>
        <time>2024-06-12T10:42:40Z</time>
      </trkpt>
      <trkpt lat="43.15479" lon="5.76385">
        <ele>13.8</ele>
        <time>2024-06-12T10:42:41Z</time>
      </trkpt>
      <trkpt lat="43.15476" lon="5.76384">
        <ele>13.8</ele>
        <time>2024-06-12T10:42:42Z</time>
      </trkpt>
      <trkpt lat="43.15466" lon="5.76382">
        <ele>13.6</ele>
        <time>2024-06-12T10:42:43Z</time>
      </trkpt>
      <trkpt lat="43.15463" lon="5.76382">
        <ele>13.6</ele>
        <time>2024-06-12T10:42:44Z</time>
      </trkpt>
      <trkpt lat="43.15456" lon="5.7638">
        <ele>13.6</ele>
        <time>2024-06-12T10:42:45Z</time>
      </trkpt>
      <trkpt lat="43.15449" lon="5.76379">
        <ele>13.6</ele>
        <time>2024-06-12T10:42:46Z</time>
      </trkpt>
      <trkpt lat="43.15443" lon="5.76377">
        <ele>13.4</ele>
        <time>2024-06-12T10:42:47Z</time>
      </trkpt>
      <trkpt lat="43.15436" lon="5.76376">
        <ele>12.8</ele>
        <time>2024-06-12T10:42:48Z</time>
      </trkpt>
      <trkpt lat="43.15426" lon="5.76374">
        <ele>12.8</ele>
        <time>2024-06-12T10:42:49Z</time>
      </trkpt>
      <trkpt lat="43.15422" lon="5.76373">
        <ele>12.8</ele>
        <time>2024-06-12T10:42:50Z</time>
      </trkpt>
      <trkpt lat="43.15412" lon="5.76371">
        <ele>12.8</ele>
        <time>2024-06-12T10:42:51Z</time>
      </trkpt>
      <trkpt lat="43.15408" lon="5.7637">
        <ele>12.8</ele>
        <time>2024-06-12T10:42:52Z</time>
      </trkpt>
      <trkpt lat="43.15397" lon="5.76367">
        <ele>12.4</ele>
        <time>2024-06-12T10:42:53Z</time>
      </trkpt>
      <trkpt lat="43.15393" lon="5.76366">
        <ele>12.4</ele>
        <time>2024-06-12T10:42:54Z</time>
      </trkpt>
      <trkpt lat="43.15383" lon="5.76365">
        <ele>12.4</ele>
        <time>2024-06-12T10:42:55Z</time>
      </trkpt>
      <trkpt lat="43.15379" lon="5.76364">
        <ele>12.4</ele>
        <time>2024-06-12T10:42:56Z</time>
      </trkpt>
      <trkpt lat="43.15369" lon="5.76364">
        <ele>12.4</ele>
        <time>2024-06-12T10:42:57Z</time>
      </trkpt>
      <trkpt lat="43.15366" lon="5.76364">
        <ele>12</ele>
        <time>2024-06-12T10:42:58Z</time>
      </trkpt>
      <trkpt lat="43.15357" lon="5.76363">
        <ele>12</ele>
        <time>2024-06-12T10:42:59Z</time>
      </trkpt>
      <trkpt lat="43.15354" lon="5.76363">
        <ele>12</ele>
        <time>2024-06-12T10:43:00Z</time>
      </trkpt>
      <trkpt lat="43.15345" lon="5.76361">
        <ele>12.2</ele>
        <time>2024-06-12T10:43:01Z</time>
      </trkpt>
      <trkpt lat="43.15343" lon="5.7636">
        <ele>12.4</ele>
        <time>2024-06-12T10:43:02Z</time>
      </trkpt>
      <trkpt lat="43.15335" lon="5.76357">
        <ele>12.4</ele>
        <time>2024-06-12T10:43:03Z</time>
      </trkpt>
      <trkpt lat="43.15333" lon="5.76356">
        <ele>12.4</ele>
        <time>2024-06-12T10:43:04Z</time>
      </trkpt>
      <trkpt lat="43.15326" lon="5.76353">
        <ele>12.4</ele>
        <time>2024-06-12T10:43:05Z</time>
      </trkpt>
      <trkpt lat="43.15323" lon="5.76352">
        <ele>12.2</ele>
        <time>2024-06-12T10:43:06Z</time>
      </trkpt>
      <trkpt lat="43.15319" lon="5.76351">
        <ele>12.4</ele>
        <time>2024-06-12T10:43:07Z</time>
      </trkpt>
      <trkpt lat="43.15311" lon="5.76349">
        <ele>12.4</ele>
        <time>2024-06-12T10:43:08Z</time>
      </trkpt>
      <trkpt lat="43.15309" lon="5.76348">
        <ele>12.4</ele>
        <time>2024-06-12T10:43:09Z</time>
      </trkpt>
      <trkpt lat="43.15303" lon="5.76348">
        <ele>12.8</ele>
        <time>2024-06-12T10:43:10Z</time>
      </trkpt>
      <trkpt lat="43.15298" lon="5.76348">
        <ele>12.8</ele>
        <time>2024-06-12T10:43:11Z</time>
      </trkpt>
      <trkpt lat="43.15292" lon="5.76349">
        <ele>12.8</ele>
        <time>2024-06-12T10:43:12Z</time>
      </trkpt>
      <trkpt lat="43.15286" lon="5.7635">
        <ele>12.8</ele>
        <time>2024-06-12T10:43:13Z</time>
      </trkpt>
      <trkpt lat="43.1528" lon="5.76352">
        <ele>12.8</ele>
        <time>2024-06-12T10:43:14Z</time>
      </trkpt>
      <trkpt lat="43.15274" lon="5.76354">
        <ele>13</ele>
        <time>2024-06-12T10:43:15Z</time>
      </trkpt>
      <trkpt lat="43.15268" lon="5.76356">
        <ele>13</ele>
        <time>2024-06-12T10:43:16Z</time>
      </trkpt>
      <trkpt lat="43.15262" lon="5.76358">
        <ele>13</ele>
        <time>2024-06-12T10:43:17Z</time>
      </trkpt>
      <trkpt lat="43.15253" lon="5.76362">
        <ele>13</ele>
        <time>2024-06-12T10:43:18Z</time>
      </trkpt>
      <trkpt lat="43.1525" lon="5.76363">
        <ele>12.8</ele>
        <time>2024-06-12T10:43:19Z</time>
      </trkpt>
      <trkpt lat="43.1524" lon="5.76367">
        <ele>12.6</ele>
        <time>2024-06-12T10:43:20Z</time>
      </trkpt>
      <trkpt lat="43.15237" lon="5.76368">
        <ele>12.6</ele>
        <time>2024-06-12T10:43:21Z</time>
      </trkpt>
      <trkpt lat="43.15227" lon="5.76373">
        <ele>12.6</ele>
        <time>2024-06-12T10:43:22Z</time>
      </trkpt>
      <trkpt lat="43.15224" lon="5.76375">
        <ele>12.6</ele>
        <time>2024-06-12T10:43:23Z</time>
      </trkpt>
      <trkpt lat="43.15217" lon="5.7638">
        <ele>12.6</ele>
        <time>2024-06-12T10:43:24Z</time>
      </trkpt>
      <trkpt lat="43.15208" lon="5.76388">
        <ele>12.2</ele>
        <time>2024-06-12T10:43:25Z</time>
      </trkpt>
      <trkpt lat="43.15204" lon="5.76391">
        <ele>12.2</ele>
        <time>2024-06-12T10:43:26Z</time>
      </trkpt>
      <trkpt lat="43.15198" lon="5.76397">
        <ele>11.6</ele>
        <time>2024-06-12T10:43:27Z</time>
      </trkpt>
      <trkpt lat="43.15191" lon="5.76402">
        <ele>11.2</ele>
        <time>2024-06-12T10:43:28Z</time>
      </trkpt>
      <trkpt lat="43.15185" lon="5.76408">
        <ele>11.2</ele>
        <time>2024-06-12T10:43:29Z</time>
      </trkpt>
      <trkpt lat="43.15179" lon="5.76414">
        <ele>11.2</ele>
        <time>2024-06-12T10:43:30Z</time>
      </trkpt>
      <trkpt lat="43.1517" lon="5.76423">
        <ele>11.2</ele>
        <time>2024-06-12T10:43:31Z</time>
      </trkpt>
      <trkpt lat="43.15167" lon="5.76425">
        <ele>11.2</ele>
        <time>2024-06-12T10:43:32Z</time>
      </trkpt>
      <trkpt lat="43.15158" lon="5.76433">
        <ele>11.2</ele>
        <time>2024-06-12T10:43:33Z</time>
      </trkpt>
      <trkpt lat="43.15155" lon="5.76436">
        <ele>11.2</ele>
        <time>2024-06-12T10:43:34Z</time>
      </trkpt>
      <trkpt lat="43.15146" lon="5.76444">
        <ele>11.2</ele>
        <time>2024-06-12T10:43:35Z</time>
      </trkpt>
      <trkpt lat="43.15143" lon="5.76446">
        <ele>11.2</ele>
        <time>2024-06-12T10:43:36Z</time>
      </trkpt>
      <trkpt lat="43.15133" lon="5.76453">
        <ele>11.2</ele>
        <time>2024-06-12T10:43:37Z</time>
      </trkpt>
      <trkpt lat="43.1513" lon="5.76455">
        <ele>10.6</ele>
        <time>2024-06-12T10:43:38Z</time>
      </trkpt>
      <trkpt lat="43.1512" lon="5.76461">
        <ele>10.6</ele>
        <time>2024-06-12T10:43:39Z</time>
      </trkpt>
      <trkpt lat="43.15116" lon="5.76463">
        <ele>10.6</ele>
        <time>2024-06-12T10:43:40Z</time>
      </trkpt>
      <trkpt lat="43.15105" lon="5.76468">
        <ele>10.6</ele>
        <time>2024-06-12T10:43:41Z</time>
      </trkpt>
      <trkpt lat="43.15101" lon="5.76469">
        <ele>10.6</ele>
        <time>2024-06-12T10:43:42Z</time>
      </trkpt>
      <trkpt lat="43.1509" lon="5.76473">
        <ele>10.2</ele>
        <time>2024-06-12T10:43:43Z</time>
      </trkpt>
      <trkpt lat="43.15087" lon="5.76475">
        <ele>10.2</ele>
        <time>2024-06-12T10:43:44Z</time>
      </trkpt>
      <trkpt lat="43.15075" lon="5.76478">
        <ele>10.2</ele>
        <time>2024-06-12T10:43:45Z</time>
      </trkpt>
      <trkpt lat="43.15072" lon="5.76479">
        <ele>9.8</ele>
        <time>2024-06-12T10:43:46Z</time>
      </trkpt>
      <trkpt lat="43.15064" lon="5.76482">
        <ele>9.8</ele>
        <time>2024-06-12T10:43:47Z</time>
      </trkpt>
      <trkpt lat="43.15054" lon="5.76484">
        <ele>9.8</ele>
        <time>2024-06-12T10:43:48Z</time>
      </trkpt>
      <trkpt lat="43.1505" lon="5.76484">
        <ele>9.8</ele>
        <time>2024-06-12T10:43:49Z</time>
      </trkpt>
      <trkpt lat="43.1504" lon="5.76485">
        <ele>9.2</ele>
        <time>2024-06-12T10:43:50Z</time>
      </trkpt>
      <trkpt lat="43.15036" lon="5.76484">
        <ele>9.2</ele>
        <time>2024-06-12T10:43:51Z</time>
      </trkpt>
      <trkpt lat="43.1503" lon="5.76483">
        <ele>9.2</ele>
        <time>2024-06-12T10:43:52Z</time>
      </trkpt>
      <trkpt lat="43.1502" lon="5.7648">
        <ele>9.2</ele>
        <time>2024-06-12T10:43:53Z</time>
      </trkpt>
      <trkpt lat="43.15017" lon="5.76479">
        <ele>9.2</ele>
        <time>2024-06-12T10:43:54Z</time>
      </trkpt>
      <trkpt lat="43.15011" lon="5.76477">
        <ele>9.2</ele>
        <time>2024-06-12T10:43:55Z</time>
      </trkpt>
      <trkpt lat="43.15005" lon="5.76475">
        <ele>9</ele>
        <time>2024-06-12T10:43:56Z</time>
      </trkpt>
      <trkpt lat="43.14999" lon="5.76474">
        <ele>9</ele>
        <time>2024-06-12T10:43:57Z</time>
      </trkpt>
      <trkpt lat="43.14993" lon="5.76473">
        <ele>9</ele>
        <time>2024-06-12T10:43:58Z</time>
      </trkpt>
      <trkpt lat="43.14985" lon="5.76471">
        <ele>9</ele>
        <time>2024-06-12T10:43:59Z</time>
      </trkpt>
      <trkpt lat="43.14983" lon="5.7647">
        <ele>9.2</ele>
        <time>2024-06-12T10:44:00Z</time>
      </trkpt>
      <trkpt lat="43.14975" lon="5.76467">
        <ele>9.2</ele>
        <time>2024-06-12T10:44:01Z</time>
      </trkpt>
      <trkpt lat="43.14973" lon="5.76466">
        <ele>9.2</ele>
        <time>2024-06-12T10:44:02Z</time>
      </trkpt>
      <trkpt lat="43.14968" lon="5.76464">
        <ele>8.6</ele>
        <time>2024-06-12T10:44:03Z</time>
      </trkpt>
      <trkpt lat="43.14964" lon="5.76461">
        <ele>8.4</ele>
        <time>2024-06-12T10:44:04Z</time>
      </trkpt>
      <trkpt lat="43.14958" lon="5.76453">
        <ele>8.4</ele>
        <time>2024-06-12T10:44:05Z</time>
      </trkpt>
      <trkpt lat="43.14956" lon="5.76451">
        <ele>8.4</ele>
        <time>2024-06-12T10:44:06Z</time>
      </trkpt>
      <trkpt lat="43.14954" lon="5.76446">
        <ele>8.4</ele>
        <time>2024-06-12T10:44:07Z</time>
      </trkpt>
      <trkpt lat="43.14953" lon="5.76441">
        <ele>8.4</ele>
        <time>2024-06-12T10:44:08Z</time>
      </trkpt>
      <trkpt lat="43.14952" lon="5.76438">
        <ele>7.8</ele>
        <time>2024-06-12T10:44:09Z</time>
      </trkpt>
      <trkpt lat="43.14952" lon="5.76435">
        <ele>7.8</ele>
        <time>2024-06-12T10:44:10Z</time>
      </trkpt>
      <trkpt lat="43.14952" lon="5.76432">
        <ele>7.8</ele>
        <time>2024-06-12T10:44:11Z</time>
      </trkpt>
      <trkpt lat="43.14953" lon="5.76431">
        <ele>7.8</ele>
        <time>2024-06-12T10:44:12Z</time>
      </trkpt>
      <trkpt lat="43.14953" lon="5.7643">
        <ele>7.8</ele>
        <time>2024-06-12T10:44:13Z</time>
      </trkpt>
      <trkpt lat="43.14953" lon="5.76429">
        <ele>7.8</ele>
        <time>2024-06-12T10:44:14Z</time>
      </trkpt>
      <trkpt lat="43.14953" lon="5.76427">
        <ele>7.8</ele>
        <time>2024-06-12T10:44:15Z</time>
      </trkpt>
      <trkpt lat="43.14954" lon="5.76424">
        <ele>7.8</ele>
        <time>2024-06-12T10:44:16Z</time>
      </trkpt>
      <trkpt lat="43.14954" lon="5.76422">
        <ele>7.8</ele>
        <time>2024-06-12T10:44:17Z</time>
      </trkpt>
      <trkpt lat="43.14955" lon="5.76419">
        <ele>7.8</ele>
        <time>2024-06-12T10:44:18Z</time>
      </trkpt>
      <trkpt lat="43.14957" lon="5.76414">
        <ele>8.2</ele>
        <time>2024-06-12T10:44:19Z</time>
      </trkpt>
      <trkpt lat="43.14957" lon="5.76412">
        <ele>8.2</ele>
        <time>2024-06-12T10:44:20Z</time>
      </trkpt>
      <trkpt lat="43.14958" lon="5.76406">
        <ele>8.2</ele>
        <time>2024-06-12T10:44:21Z</time>
      </trkpt>
      <trkpt lat="43.14959" lon="5.76404">
        <ele>8.6</ele>
        <time>2024-06-12T10:44:22Z</time>
      </trkpt>
      <trkpt lat="43.14959" lon="5.76398">
        <ele>9</ele>
        <time>2024-06-12T10:44:23Z</time>
      </trkpt>
      <trkpt lat="43.14959" lon="5.76396">
        <ele>9</ele>
        <time>2024-06-12T10:44:24Z</time>
      </trkpt>
      <trkpt lat="43.14959" lon="5.76389">
        <ele>9</ele>
        <time>2024-06-12T10:44:25Z</time>
      </trkpt>
      <trkpt lat="43.14958" lon="5.76386">
        <ele>9.6</ele>
        <time>2024-06-12T10:44:26Z</time>
      </trkpt>
      <trkpt lat="43.14956" lon="5.7638">
        <ele>9.4</ele>
        <time>2024-06-12T10:44:27Z</time>
      </trkpt>
      <trkpt lat="43.14955" lon="5.76378">
        <ele>9.4</ele>
        <time>2024-06-12T10:44:28Z</time>
      </trkpt>
      <trkpt lat="43.14952" lon="5.76374">
        <ele>9.4</ele>
        <time>2024-06-12T10:44:29Z</time>
      </trkpt>
      <trkpt lat="43.14946" lon="5.7637">
        <ele>10</ele>
        <time>2024-06-12T10:44:30Z</time>
      </trkpt>
      <trkpt lat="43.14944" lon="5.76369">
        <ele>10.2</ele>
        <time>2024-06-12T10:44:31Z</time>
      </trkpt>
      <trkpt lat="43.14938" lon="5.76366">
        <ele>10.2</ele>
        <time>2024-06-12T10:44:32Z</time>
      </trkpt>
      <trkpt lat="43.14936" lon="5.76365">
        <ele>10.2</ele>
        <time>2024-06-12T10:44:33Z</time>
      </trkpt>
      <trkpt lat="43.14931" lon="5.76363">
        <ele>10.2</ele>
        <time>2024-06-12T10:44:34Z</time>
      </trkpt>
      <trkpt lat="43.14926" lon="5.76362">
        <ele>10.6</ele>
        <time>2024-06-12T10:44:35Z</time>
      </trkpt>
      <trkpt lat="43.14922" lon="5.76362">
        <ele>10.6</ele>
        <time>2024-06-12T10:44:36Z</time>
      </trkpt>
      <trkpt lat="43.14917" lon="5.76362">
        <ele>10.6</ele>
        <time>2024-06-12T10:44:37Z</time>
      </trkpt>
      <trkpt lat="43.14912" lon="5.76364">
        <ele>10.6</ele>
        <time>2024-06-12T10:44:38Z</time>
      </trkpt>
      <trkpt lat="43.14908" lon="5.76367">
        <ele>10.6</ele>
        <time>2024-06-12T10:44:39Z</time>
      </trkpt>
      <trkpt lat="43.14904" lon="5.76372">
        <ele>10.6</ele>
        <time>2024-06-12T10:44:40Z</time>
      </trkpt>
      <trkpt lat="43.149" lon="5.76377">
        <ele>10.6</ele>
        <time>2024-06-12T10:44:41Z</time>
      </trkpt>
      <trkpt lat="43.14897" lon="5.76384">
        <ele>10.6</ele>
        <time>2024-06-12T10:44:42Z</time>
      </trkpt>
      <trkpt lat="43.14895" lon="5.76396">
        <ele>9.6</ele>
        <time>2024-06-12T10:44:43Z</time>
      </trkpt>
      <trkpt lat="43.14894" lon="5.764">
        <ele>9.6</ele>
        <time>2024-06-12T10:44:44Z</time>
      </trkpt>
      <trkpt lat="43.14893" lon="5.76408">
        <ele>9.6</ele>
        <time>2024-06-12T10:44:45Z</time>
      </trkpt>
      <trkpt lat="43.14891" lon="5.76417">
        <ele>9.6</ele>
        <time>2024-06-12T10:44:46Z</time>
      </trkpt>
      <trkpt lat="43.14886" lon="5.76429">
        <ele>8.6</ele>
        <time>2024-06-12T10:44:47Z</time>
      </trkpt>
      <trkpt lat="43.14883" lon="5.76432">
        <ele>8</ele>
        <time>2024-06-12T10:44:48Z</time>
      </trkpt>
      <trkpt lat="43.14874" lon="5.76441">
        <ele>8</ele>
        <time>2024-06-12T10:44:49Z</time>
      </trkpt>
      <trkpt lat="43.14871" lon="5.76443">
        <ele>8</ele>
        <time>2024-06-12T10:44:50Z</time>
      </trkpt>
      <trkpt lat="43.1486" lon="5.76447">
        <ele>8</ele>
        <time>2024-06-12T10:44:51Z</time>
      </trkpt>
      <trkpt lat="43.14857" lon="5.76448">
        <ele>8</ele>
        <time>2024-06-12T10:44:52Z</time>
      </trkpt>
      <trkpt lat="43.14849" lon="5.76449">
        <ele>7.2</ele>
        <time>2024-06-12T10:44:53Z</time>
      </trkpt>
      <trkpt lat="43.14838" lon="5.7645">
        <ele>7.2</ele>
        <time>2024-06-12T10:44:54Z</time>
      </trkpt>
      <trkpt lat="43.14835" lon="5.7645">
        <ele>7.2</ele>
        <time>2024-06-12T10:44:55Z</time>
      </trkpt>
      <trkpt lat="43.14823" lon="5.76451">
        <ele>7.2</ele>
        <time>2024-06-12T10:44:56Z</time>
      </trkpt>
      <trkpt lat="43.14819" lon="5.76451">
        <ele>7.2</ele>
        <time>2024-06-12T10:44:57Z</time>
      </trkpt>
      <trkpt lat="43.14808" lon="5.76453">
        <ele>6.6</ele>
        <time>2024-06-12T10:44:58Z</time>
      </trkpt>
      <trkpt lat="43.14804" lon="5.76454">
        <ele>6.6</ele>
        <time>2024-06-12T10:44:59Z</time>
      </trkpt>
      <trkpt lat="43.14792" lon="5.76457">
        <ele>6.6</ele>
        <time>2024-06-12T10:45:00Z</time>
      </trkpt>
      <trkpt lat="43.14788" lon="5.76458">
        <ele>6.6</ele>
        <time>2024-06-12T10:45:01Z</time>
      </trkpt>
      <trkpt lat="43.1478" lon="5.7646">
        <ele>6.2</ele>
        <time>2024-06-12T10:45:02Z</time>
      </trkpt>
      <trkpt lat="43.14773" lon="5.76464">
        <ele>6.2</ele>
        <time>2024-06-12T10:45:03Z</time>
      </trkpt>
      <trkpt lat="43.14762" lon="5.76469">
        <ele>6.2</ele>
        <time>2024-06-12T10:45:04Z</time>
      </trkpt>
      <trkpt lat="43.14758" lon="5.76471">
        <ele>6.2</ele>
        <time>2024-06-12T10:45:05Z</time>
      </trkpt>
      <trkpt lat="43.14747" lon="5.76478">
        <ele>5.8</ele>
        <time>2024-06-12T10:45:06Z</time>
      </trkpt>
      <trkpt lat="43.14743" lon="5.7648">
        <ele>5.6</ele>
        <time>2024-06-12T10:45:07Z</time>
      </trkpt>
      <trkpt lat="43.14732" lon="5.76487">
        <ele>5.6</ele>
        <time>2024-06-12T10:45:08Z</time>
      </trkpt>
      <trkpt lat="43.14729" lon="5.76489">
        <ele>5.6</ele>
        <time>2024-06-12T10:45:09Z</time>
      </trkpt>
      <trkpt lat="43.14718" lon="5.76497">
        <ele>5.6</ele>
        <time>2024-06-12T10:45:10Z</time>
      </trkpt>
      <trkpt lat="43.14714" lon="5.76499">
        <ele>5.2</ele>
        <time>2024-06-12T10:45:11Z</time>
      </trkpt>
      <trkpt lat="43.14706" lon="5.76504">
        <ele>5.2</ele>
        <time>2024-06-12T10:45:12Z</time>
      </trkpt>
      <trkpt lat="43.14695" lon="5.76511">
        <ele>5.2</ele>
        <time>2024-06-12T10:45:13Z</time>
      </trkpt>
      <trkpt lat="43.14691" lon="5.76513">
        <ele>5.2</ele>
        <time>2024-06-12T10:45:14Z</time>
      </trkpt>
      <trkpt lat="43.1468" lon="5.7652">
        <ele>5.2</ele>
        <time>2024-06-12T10:45:15Z</time>
      </trkpt>
      <trkpt lat="43.14676" lon="5.76523">
        <ele>5.2</ele>
        <time>2024-06-12T10:45:16Z</time>
      </trkpt>
      <trkpt lat="43.14669" lon="5.76528">
        <ele>5.2</ele>
        <time>2024-06-12T10:45:17Z</time>
      </trkpt>
      <trkpt lat="43.14663" lon="5.76534">
        <ele>5.2</ele>
        <time>2024-06-12T10:45:18Z</time>
      </trkpt>
      <trkpt lat="43.14656" lon="5.76539">
        <ele>5.2</ele>
        <time>2024-06-12T10:45:19Z</time>
      </trkpt>
      <trkpt lat="43.14649" lon="5.76545">
        <ele>5</ele>
        <time>2024-06-12T10:45:20Z</time>
      </trkpt>
      <trkpt lat="43.14643" lon="5.76551">
        <ele>5</ele>
        <time>2024-06-12T10:45:21Z</time>
      </trkpt>
      <trkpt lat="43.14637" lon="5.76557">
        <ele>5</ele>
        <time>2024-06-12T10:45:22Z</time>
      </trkpt>
      <trkpt lat="43.14629" lon="5.76568">
        <ele>5</ele>
        <time>2024-06-12T10:45:23Z</time>
      </trkpt>
      <trkpt lat="43.14627" lon="5.76571">
        <ele>5</ele>
        <time>2024-06-12T10:45:24Z</time>
      </trkpt>
      <trkpt lat="43.14619" lon="5.76582">
        <ele>5.4</ele>
        <time>2024-06-12T10:45:25Z</time>
      </trkpt>
      <trkpt lat="43.14616" lon="5.76586">
        <ele>5.4</ele>
        <time>2024-06-12T10:45:26Z</time>
      </trkpt>
      <trkpt lat="43.14611" lon="5.76594">
        <ele>5.4</ele>
        <time>2024-06-12T10:45:27Z</time>
      </trkpt>
      <trkpt lat="43.14608" lon="5.76602">
        <ele>5</ele>
        <time>2024-06-12T10:45:28Z</time>
      </trkpt>
      <trkpt lat="43.14603" lon="5.76616">
        <ele>4.8</ele>
        <time>2024-06-12T10:45:29Z</time>
      </trkpt>
      <trkpt lat="43.14602" lon="5.76621">
        <ele>4.8</ele>
        <time>2024-06-12T10:45:30Z</time>
      </trkpt>
      <trkpt lat="43.14598" lon="5.76635">
        <ele>4.8</ele>
        <time>2024-06-12T10:45:31Z</time>
      </trkpt>
      <trkpt lat="43.14597" lon="5.7664">
        <ele>4.8</ele>
        <time>2024-06-12T10:45:32Z</time>
      </trkpt>
      <trkpt lat="43.14594" lon="5.76649">
        <ele>4.8</ele>
        <time>2024-06-12T10:45:33Z</time>
      </trkpt>
      <trkpt lat="43.14592" lon="5.7666">
        <ele>4.2</ele>
        <time>2024-06-12T10:45:34Z</time>
      </trkpt>
      <trkpt lat="43.1459" lon="5.76669">
        <ele>4.2</ele>
        <time>2024-06-12T10:45:35Z</time>
      </trkpt>
      <trkpt lat="43.14587" lon="5.7668">
        <ele>4.2</ele>
        <time>2024-06-12T10:45:36Z</time>
      </trkpt>
      <trkpt lat="43.14585" lon="5.7669">
        <ele>4.6</ele>
        <time>2024-06-12T10:45:37Z</time>
      </trkpt>
      <trkpt lat="43.14582" lon="5.767">
        <ele>5</ele>
        <time>2024-06-12T10:45:38Z</time>
      </trkpt>
      <trkpt lat="43.14577" lon="5.76715">
        <ele>5</ele>
        <time>2024-06-12T10:45:39Z</time>
      </trkpt>
      <trkpt lat="43.14575" lon="5.7672">
        <ele>5</ele>
        <time>2024-06-12T10:45:40Z</time>
      </trkpt>
      <trkpt lat="43.14568" lon="5.76734">
        <ele>5</ele>
        <time>2024-06-12T10:45:41Z</time>
      </trkpt>
      <trkpt lat="43.14566" lon="5.76738">
        <ele>4.4</ele>
        <time>2024-06-12T10:45:42Z</time>
      </trkpt>
      <trkpt lat="43.14557" lon="5.76751">
        <ele>4.2</ele>
        <time>2024-06-12T10:45:43Z</time>
      </trkpt>
      <trkpt lat="43.14554" lon="5.76755">
        <ele>4.2</ele>
        <time>2024-06-12T10:45:44Z</time>
      </trkpt>
      <trkpt lat="43.14544" lon="5.76766">
        <ele>4.2</ele>
        <time>2024-06-12T10:45:45Z</time>
      </trkpt>
      <trkpt lat="43.14541" lon="5.76769">
        <ele>4.2</ele>
        <time>2024-06-12T10:45:46Z</time>
      </trkpt>
      <trkpt lat="43.14529" lon="5.76776">
        <ele>4.2</ele>
        <time>2024-06-12T10:45:47Z</time>
      </trkpt>
      <trkpt lat="43.14525" lon="5.76778">
        <ele>4.2</ele>
        <time>2024-06-12T10:45:48Z</time>
      </trkpt>
      <trkpt lat="43.14518" lon="5.7678">
        <ele>4.2</ele>
        <time>2024-06-12T10:45:49Z</time>
      </trkpt>
      <trkpt lat="43.1451" lon="5.76783">
        <ele>4.2</ele>
        <time>2024-06-12T10:45:50Z</time>
      </trkpt>
      <trkpt lat="43.14498" lon="5.76785">
        <ele>3.6</ele>
        <time>2024-06-12T10:45:51Z</time>
      </trkpt>
      <trkpt lat="43.14494" lon="5.76785">
        <ele>3.4</ele>
        <time>2024-06-12T10:45:52Z</time>
      </trkpt>
      <trkpt lat="43.14482" lon="5.76783">
        <ele>3.4</ele>
        <time>2024-06-12T10:45:53Z</time>
      </trkpt>
      <trkpt lat="43.14478" lon="5.76782">
        <ele>3.4</ele>
        <time>2024-06-12T10:45:54Z</time>
      </trkpt>
      <trkpt lat="43.14466" lon="5.7678">
        <ele>2.4</ele>
        <time>2024-06-12T10:45:55Z</time>
      </trkpt>
      <trkpt lat="43.14462" lon="5.76779">
        <ele>2.4</ele>
        <time>2024-06-12T10:45:56Z</time>
      </trkpt>
      <trkpt lat="43.14454" lon="5.76778">
        <ele>2.8</ele>
        <time>2024-06-12T10:45:57Z</time>
      </trkpt>
      <trkpt lat="43.14446" lon="5.76776">
        <ele>2.8</ele>
        <time>2024-06-12T10:45:58Z</time>
      </trkpt>
      <trkpt lat="43.14437" lon="5.76775">
        <ele>2.8</ele>
        <time>2024-06-12T10:45:59Z</time>
      </trkpt>
      <trkpt lat="43.14425" lon="5.76773">
        <ele>2.8</ele>
        <time>2024-06-12T10:46:00Z</time>
      </trkpt>
      <trkpt lat="43.14421" lon="5.76773">
        <ele>2.4</ele>
        <time>2024-06-12T10:46:01Z</time>
      </trkpt>
      <trkpt lat="43.14414" lon="5.76772">
        <ele>2.4</ele>
        <time>2024-06-12T10:46:02Z</time>
      </trkpt>
      <trkpt lat="43.14405" lon="5.76771">
        <ele>2.4</ele>
        <time>2024-06-12T10:46:03Z</time>
      </trkpt>
      <trkpt lat="43.14394" lon="5.76771">
        <ele>2.4</ele>
        <time>2024-06-12T10:46:04Z</time>
      </trkpt>
      <trkpt lat="43.1439" lon="5.7677">
        <ele>2.2</ele>
        <time>2024-06-12T10:46:05Z</time>
      </trkpt>
      <trkpt lat="43.14378" lon="5.7677">
        <ele>2.2</ele>
        <time>2024-06-12T10:46:06Z</time>
      </trkpt>
      <trkpt lat="43.14374" lon="5.7677">
        <ele>2.2</ele>
        <time>2024-06-12T10:46:07Z</time>
      </trkpt>
      <trkpt lat="43.14363" lon="5.7677">
        <ele>2.2</ele>
        <time>2024-06-12T10:46:08Z</time>
      </trkpt>
      <trkpt lat="43.14359" lon="5.7677">
        <ele>2.2</ele>
        <time>2024-06-12T10:46:09Z</time>
      </trkpt>
      <trkpt lat="43.14347" lon="5.7677">
        <ele>1.8</ele>
        <time>2024-06-12T10:46:10Z</time>
      </trkpt>
      <trkpt lat="43.14343" lon="5.7677">
        <ele>1.8</ele>
        <time>2024-06-12T10:46:11Z</time>
      </trkpt>
      <trkpt lat="43.14331" lon="5.76771">
        <ele>1.8</ele>
        <time>2024-06-12T10:46:12Z</time>
      </trkpt>
      <trkpt lat="43.14327" lon="5.76772">
        <ele>1.4</ele>
        <time>2024-06-12T10:46:13Z</time>
      </trkpt>
      <trkpt lat="43.14319" lon="5.76773">
        <ele>1.4</ele>
        <time>2024-06-12T10:46:14Z</time>
      </trkpt>
      <trkpt lat="43.14311" lon="5.76774">
        <ele>1.4</ele>
        <time>2024-06-12T10:46:15Z</time>
      </trkpt>
      <trkpt lat="43.14304" lon="5.76776">
        <ele>1.4</ele>
        <time>2024-06-12T10:46:16Z</time>
      </trkpt>
      <trkpt lat="43.14296" lon="5.76778">
        <ele>1.4</ele>
        <time>2024-06-12T10:46:17Z</time>
      </trkpt>
      <trkpt lat="43.14285" lon="5.76783">
        <ele>1.2</ele>
        <time>2024-06-12T10:46:18Z</time>
      </trkpt>
      <trkpt lat="43.14281" lon="5.76786">
        <ele>1</ele>
        <time>2024-06-12T10:46:19Z</time>
      </trkpt>
      <trkpt lat="43.14271" lon="5.76792">
        <ele>1</ele>
        <time>2024-06-12T10:46:20Z</time>
      </trkpt>
      <trkpt lat="43.14268" lon="5.76794">
        <ele>1</ele>
        <time>2024-06-12T10:46:21Z</time>
      </trkpt>
      <trkpt lat="43.14262" lon="5.76799">
        <ele>1</ele>
        <time>2024-06-12T10:46:22Z</time>
      </trkpt>
      <trkpt lat="43.14256" lon="5.76802">
        <ele>1</ele>
        <time>2024-06-12T10:46:23Z</time>
      </trkpt>
      <trkpt lat="43.14249" lon="5.76804">
        <ele>0.8</ele>
        <time>2024-06-12T10:46:24Z</time>
      </trkpt>
      <trkpt lat="43.1424" lon="5.76804">
        <ele>0.8</ele>
        <time>2024-06-12T10:46:25Z</time>
      </trkpt>
      <trkpt lat="43.14237" lon="5.76805">
        <ele>0.8</ele>
        <time>2024-06-12T10:46:26Z</time>
      </trkpt>
      <trkpt lat="43.14228" lon="5.76807">
        <ele>0.6</ele>
        <time>2024-06-12T10:46:27Z</time>
      </trkpt>
      <trkpt lat="43.14225" lon="5.76809">
        <ele>0.6</ele>
        <time>2024-06-12T10:46:28Z</time>
      </trkpt>
      <trkpt lat="43.14217" lon="5.76816">
        <ele>0.8</ele>
        <time>2024-06-12T10:46:29Z</time>
      </trkpt>
      <trkpt lat="43.14215" lon="5.76819">
        <ele>0.8</ele>
        <time>2024-06-12T10:46:30Z</time>
      </trkpt>
      <trkpt lat="43.1421" lon="5.76829">
        <ele>0.8</ele>
        <time>2024-06-12T10:46:31Z</time>
      </trkpt>
      <trkpt lat="43.1421" lon="5.76833">
        <ele>0.8</ele>
        <time>2024-06-12T10:46:32Z</time>
      </trkpt>
      <trkpt lat="43.14208" lon="5.76847">
        <ele>0.6</ele>
        <time>2024-06-12T10:46:33Z</time>
      </trkpt>
      <trkpt lat="43.14209" lon="5.76851">
        <ele>0.6</ele>
        <time>2024-06-12T10:46:34Z</time>
      </trkpt>
      <trkpt lat="43.1421" lon="5.76865">
        <ele>0.6</ele>
        <time>2024-06-12T10:46:35Z</time>
      </trkpt>
      <trkpt lat="43.1421" lon="5.7687">
        <ele>0.6</ele>
        <time>2024-06-12T10:46:36Z</time>
      </trkpt>
      <trkpt lat="43.14208" lon="5.76884">
        <ele>0.6</ele>
        <time>2024-06-12T10:46:37Z</time>
      </trkpt>
      <trkpt lat="43.14206" lon="5.76888">
        <ele>-0.4</ele>
        <time>2024-06-12T10:46:38Z</time>
      </trkpt>
      <trkpt lat="43.14203" lon="5.76897">
        <ele>-0.4</ele>
        <time>2024-06-12T10:46:39Z</time>
      </trkpt>
      <trkpt lat="43.142" lon="5.76905">
        <ele>-0.4</ele>
        <time>2024-06-12T10:46:40Z</time>
      </trkpt>
      <trkpt lat="43.14197" lon="5.76914">
        <ele>-0.2</ele>
        <time>2024-06-12T10:46:41Z</time>
      </trkpt>
      <trkpt lat="43.14194" lon="5.76923">
        <ele>-0.2</ele>
        <time>2024-06-12T10:46:42Z</time>
      </trkpt>
      <trkpt lat="43.14191" lon="5.76932">
        <ele>-0.2</ele>
        <time>2024-06-12T10:46:43Z</time>
      </trkpt>
      <trkpt lat="43.14187" lon="5.76941">
        <ele>-0.2</ele>
        <time>2024-06-12T10:46:44Z</time>
      </trkpt>
      <trkpt lat="43.14184" lon="5.7695">
        <ele>-0.2</ele>
        <time>2024-06-12T10:46:45Z</time>
      </trkpt>
      <trkpt lat="43.14181" lon="5.76959">
        <ele>-0.6</ele>
        <time>2024-06-12T10:46:46Z</time>
      </trkpt>
      <trkpt lat="43.14177" lon="5.76973">
        <ele>-0.6</ele>
        <time>2024-06-12T10:46:47Z</time>
      </trkpt>
      <trkpt lat="43.14176" lon="5.76978">
        <ele>-0.6</ele>
        <time>2024-06-12T10:46:48Z</time>
      </trkpt>
      <trkpt lat="43.14172" lon="5.76992">
        <ele>-0.6</ele>
        <time>2024-06-12T10:46:49Z</time>
      </trkpt>
      <trkpt lat="43.14171" lon="5.76996">
        <ele>-0.6</ele>
        <time>2024-06-12T10:46:50Z</time>
      </trkpt>
      <trkpt lat="43.14168" lon="5.77005">
        <ele>-0.6</ele>
        <time>2024-06-12T10:46:51Z</time>
      </trkpt>
      <trkpt lat="43.14165" lon="5.77013">
        <ele>-0.6</ele>
        <time>2024-06-12T10:46:52Z</time>
      </trkpt>
      <trkpt lat="43.14161" lon="5.77026">
        <ele>-0.6</ele>
        <time>2024-06-12T10:46:53Z</time>
      </trkpt>
      <trkpt lat="43.14159" lon="5.7703">
        <ele>-0.4</ele>
        <time>2024-06-12T10:46:54Z</time>
      </trkpt>
      <trkpt lat="43.14155" lon="5.77042">
        <ele>-0.4</ele>
        <time>2024-06-12T10:46:55Z</time>
      </trkpt>
      <trkpt lat="43.14153" lon="5.77045">
        <ele>-0.4</ele>
        <time>2024-06-12T10:46:56Z</time>
      </trkpt>
      <trkpt lat="43.1415" lon="5.77053">
        <ele>-0.4</ele>
        <time>2024-06-12T10:46:57Z</time>
      </trkpt>
      <trkpt lat="43.14147" lon="5.7706">
        <ele>-0.2</ele>
        <time>2024-06-12T10:46:58Z</time>
      </trkpt>
      <trkpt lat="43.14144" lon="5.77068">
        <ele>-0.2</ele>
        <time>2024-06-12T10:46:59Z</time>
      </trkpt>
      <trkpt lat="43.14141" lon="5.77075">
        <ele>-0.2</ele>
        <time>2024-06-12T10:47:00Z</time>
      </trkpt>
      <trkpt lat="43.14137" lon="5.77086">
        <ele>-0.2</ele>
        <time>2024-06-12T10:47:01Z</time>
      </trkpt>
      <trkpt lat="43.14135" lon="5.77089">
        <ele>-0.2</ele>
        <time>2024-06-12T10:47:02Z</time>
      </trkpt>
      <trkpt lat="43.1413" lon="5.771">
        <ele>-0.2</ele>
        <time>2024-06-12T10:47:03Z</time>
      </trkpt>
      <trkpt lat="43.14128" lon="5.77104">
        <ele>-0.2</ele>
        <time>2024-06-12T10:47:04Z</time>
      </trkpt>
      <trkpt lat="43.14122" lon="5.77114">
        <ele>-0.4</ele>
        <time>2024-06-12T10:47:05Z</time>
      </trkpt>
      <trkpt lat="43.14119" lon="5.77118">
        <ele>-0.4</ele>
        <time>2024-06-12T10:47:06Z</time>
      </trkpt>
      <trkpt lat="43.14112" lon="5.77127">
        <ele>-0.4</ele>
        <time>2024-06-12T10:47:07Z</time>
      </trkpt>
      <trkpt lat="43.14109" lon="5.7713">
        <ele>-0.4</ele>
        <time>2024-06-12T10:47:08Z</time>
      </trkpt>
      <trkpt lat="43.141" lon="5.77138">
        <ele>-0.6</ele>
        <time>2024-06-12T10:47:09Z</time>
      </trkpt>
      <trkpt lat="43.14097" lon="5.7714">
        <ele>-0.6</ele>
        <time>2024-06-12T10:47:10Z</time>
      </trkpt>
      <trkpt lat="43.1409" lon="5.77144">
        <ele>-0.6</ele>
        <time>2024-06-12T10:47:11Z</time>
      </trkpt>
      <trkpt lat="43.14083" lon="5.77147">
        <ele>-0.6</ele>
        <time>2024-06-12T10:47:12Z</time>
      </trkpt>
      <trkpt lat="43.14075" lon="5.77148">
        <ele>-0.6</ele>
        <time>2024-06-12T10:47:13Z</time>
      </trkpt>
      <trkpt lat="43.14068" lon="5.77149">
        <ele>-1</ele>
        <time>2024-06-12T10:47:14Z</time>
      </trkpt>
      <trkpt lat="43.14056" lon="5.77146">
        <ele>-1</ele>
        <time>2024-06-12T10:47:15Z</time>
      </trkpt>
      <trkpt lat="43.14053" lon="5.77145">
        <ele>-1</ele>
        <time>2024-06-12T10:47:16Z</time>
      </trkpt>
      <trkpt lat="43.14042" lon="5.7714">
        <ele>-1</ele>
        <time>2024-06-12T10:47:17Z</time>
      </trkpt>
      <trkpt lat="43.14039" lon="5.77138">
        <ele>-0.8</ele>
        <time>2024-06-12T10:47:18Z</time>
      </trkpt>
      <trkpt lat="43.14031" lon="5.7713">
        <ele>-0.8</ele>
        <time>2024-06-12T10:47:19Z</time>
      </trkpt>
      <trkpt lat="43.14028" lon="5.77127">
        <ele>-0.8</ele>
        <time>2024-06-12T10:47:20Z</time>
      </trkpt>
      <trkpt lat="43.14023" lon="5.77121">
        <ele>-1.2</ele>
        <time>2024-06-12T10:47:21Z</time>
      </trkpt>
      <trkpt lat="43.14019" lon="5.77116">
        <ele>-1.4</ele>
        <time>2024-06-12T10:47:22Z</time>
      </trkpt>
      <trkpt lat="43.14015" lon="5.7711">
        <ele>-1.4</ele>
        <time>2024-06-12T10:47:23Z</time>
      </trkpt>
      <trkpt lat="43.14012" lon="5.77105">
        <ele>-1.4</ele>
        <time>2024-06-12T10:47:24Z</time>
      </trkpt>
      <trkpt lat="43.1401" lon="5.77101">
        <ele>-1.4</ele>
        <time>2024-06-12T10:47:25Z</time>
      </trkpt>
      <trkpt lat="43.14007" lon="5.77098">
        <ele>-1.8</ele>
        <time>2024-06-12T10:47:26Z</time>
      </trkpt>
      <trkpt lat="43.14006" lon="5.77096">
        <ele>-2</ele>
        <time>2024-06-12T10:47:27Z</time>
      </trkpt>
      <trkpt lat="43.14005" lon="5.77095">
        <ele>-2</ele>
        <time>2024-06-12T10:47:28Z</time>
      </trkpt>
      <trkpt lat="43.14004" lon="5.77091">
        <ele>-2</ele>
        <time>2024-06-12T10:47:29Z</time>
      </trkpt>
      <trkpt lat="43.14004" lon="5.77088">
        <ele>-2.2</ele>
        <time>2024-06-12T10:47:30Z</time>
      </trkpt>
      <trkpt lat="43.14004" lon="5.77085">
        <ele>-2.4</ele>
        <time>2024-06-12T10:47:31Z</time>
      </trkpt>
      <trkpt lat="43.14003" lon="5.77082">
        <ele>-3.8</ele>
        <time>2024-06-12T10:47:45Z</time>
      </trkpt>
      <trkpt lat="43.14003" lon="5.77079">
        <ele>-3.8</ele>
        <time>2024-06-12T10:47:46Z</time>
      </trkpt>
      <trkpt lat="43.14002" lon="5.77074">
        <ele>-4.2</ele>
        <time>2024-06-12T10:47:47Z</time>
      </trkpt>
      <trkpt lat="43.14001" lon="5.7707">
        <ele>-4.2</ele>
        <time>2024-06-12T10:47:48Z</time>
      </trkpt>
      <trkpt lat="43.14" lon="5.77066">
        <ele>-4.4</ele>
        <time>2024-06-12T10:47:49Z</time>
      </trkpt>
      <trkpt lat="43.13998" lon="5.77062">
        <ele>-4.4</ele>
        <time>2024-06-12T10:47:50Z</time>
      </trkpt>
      <trkpt lat="43.13996" lon="5.77057">
        <ele>-4.4</ele>
        <time>2024-06-12T10:47:51Z</time>
      </trkpt>
      <trkpt lat="43.13995" lon="5.77055">
        <ele>-5</ele>
        <time>2024-06-12T10:47:52Z</time>
      </trkpt>
      <trkpt lat="43.13992" lon="5.77048">
        <ele>-5.4</ele>
        <time>2024-06-12T10:47:53Z</time>
      </trkpt>
      <trkpt lat="43.13992" lon="5.77046">
        <ele>-5.4</ele>
        <time>2024-06-12T10:47:54Z</time>
      </trkpt>
      <trkpt lat="43.1399" lon="5.77041">
        <ele>-5.4</ele>
        <time>2024-06-12T10:47:55Z</time>
      </trkpt>
      <trkpt lat="43.13988" lon="5.77037">
        <ele>-5.4</ele>
        <time>2024-06-12T10:47:56Z</time>
      </trkpt>
      <trkpt lat="43.13987" lon="5.77032">
        <ele>-5.8</ele>
        <time>2024-06-12T10:47:57Z</time>
      </trkpt>
      <trkpt lat="43.13985" lon="5.77026">
        <ele>-6.2</ele>
        <time>2024-06-12T10:47:58Z</time>
      </trkpt>
      <trkpt lat="43.13982" lon="5.77019">
        <ele>-6.2</ele>
        <time>2024-06-12T10:47:59Z</time>
      </trkpt>
      <trkpt lat="43.13982" lon="5.77017">
        <ele>-6.2</ele>
        <time>2024-06-12T10:48:00Z</time>
      </trkpt>
      <trkpt lat="43.13979" lon="5.77009">
        <ele>-6.2</ele>
        <time>2024-06-12T10:48:01Z</time>
      </trkpt>
      <trkpt lat="43.13978" lon="5.77006">
        <ele>-6.6</ele>
        <time>2024-06-12T10:48:02Z</time>
      </trkpt>
      <trkpt lat="43.13975" lon="5.76999">
        <ele>-6.6</ele>
        <time>2024-06-12T10:48:03Z</time>
      </trkpt>
      <trkpt lat="43.13974" lon="5.76996">
        <ele>-6.6</ele>
        <time>2024-06-12T10:48:04Z</time>
      </trkpt>
      <trkpt lat="43.13972" lon="5.76991">
        <ele>-6.6</ele>
        <time>2024-06-12T10:48:05Z</time>
      </trkpt>
      <trkpt lat="43.1397" lon="5.76985">
        <ele>-6.6</ele>
        <time>2024-06-12T10:48:06Z</time>
      </trkpt>
      <trkpt lat="43.13967" lon="5.7698">
        <ele>-7.2</ele>
        <time>2024-06-12T10:48:07Z</time>
      </trkpt>
      <trkpt lat="43.13965" lon="5.76975">
        <ele>-7.2</ele>
        <time>2024-06-12T10:48:08Z</time>
      </trkpt>
      <trkpt lat="43.1396" lon="5.76968">
        <ele>-7.2</ele>
        <time>2024-06-12T10:48:09Z</time>
      </trkpt>
      <trkpt lat="43.13959" lon="5.76966">
        <ele>-7.2</ele>
        <time>2024-06-12T10:48:10Z</time>
      </trkpt>
      <trkpt lat="43.13956" lon="5.76963">
        <ele>-7</ele>
        <time>2024-06-12T10:48:11Z</time>
      </trkpt>
      <trkpt lat="43.13953" lon="5.76962">
        <ele>-7</ele>
        <time>2024-06-12T10:48:12Z</time>
      </trkpt>
      <trkpt lat="43.13952" lon="5.76961">
        <ele>-7</ele>
        <time>2024-06-12T10:48:13Z</time>
      </trkpt>
      <trkpt lat="43.13951" lon="5.76961">
        <ele>-7</ele>
        <time>2024-06-12T10:48:14Z</time>
      </trkpt>
      <trkpt lat="43.13951" lon="5.76961">
        <ele>-6.6</ele>
        <time>2024-06-12T10:48:15Z</time>
      </trkpt>
      <trkpt lat="43.13951" lon="5.76961">
        <ele>-6.2</ele>
        <time>2024-06-12T10:48:16Z</time>
      </trkpt>
      <trkpt lat="43.13951" lon="5.76961">
        <ele>-6.2</ele>
        <time>2024-06-12T10:48:17Z</time>
      </trkpt>
      <trkpt lat="43.13947" lon="5.7696">
        <ele>-5</ele>
        <time>2024-06-12T10:48:25Z</time>
      </trkpt>
      <trkpt lat="43.13946" lon="5.7696">
        <ele>-5</ele>
        <time>2024-06-12T10:48:26Z</time>
      </trkpt>
      <trkpt lat="43.13946" lon="5.7696">
        <ele>-5</ele>
        <time>2024-06-12T10:48:27Z</time>
      </trkpt>
      <trkpt lat="43.13942" lon="5.76967">
        <ele>-2.6</ele>
        <time>2024-06-12T10:48:37Z</time>
      </trkpt>
      <trkpt lat="43.1394" lon="5.7697">
        <ele>-2.6</ele>
        <time>2024-06-12T10:48:38Z</time>
      </trkpt>
      <trkpt lat="43.13939" lon="5.76973">
        <ele>-2.6</ele>
        <time>2024-06-12T10:48:39Z</time>
      </trkpt>
      <trkpt lat="43.13938" lon="5.7698">
        <ele>-2.6</ele>
        <time>2024-06-12T10:48:40Z</time>
      </trkpt>
      <trkpt lat="43.13938" lon="5.76982">
        <ele>-2.6</ele>
        <time>2024-06-12T10:48:41Z</time>
      </trkpt>
      <trkpt lat="43.13936" lon="5.76989">
        <ele>-2.6</ele>
        <time>2024-06-12T10:48:42Z</time>
      </trkpt>
      <trkpt lat="43.13936" lon="5.76991">
        <ele>-2.6</ele>
        <time>2024-06-12T10:48:43Z</time>
      </trkpt>
      <trkpt lat="43.13934" lon="5.76996">
        <ele>-2.6</ele>
        <time>2024-06-12T10:48:44Z</time>
      </trkpt>
      <trkpt lat="43.13933" lon="5.77">
        <ele>-2.6</ele>
        <time>2024-06-12T10:48:45Z</time>
      </trkpt>
      <trkpt lat="43.13932" lon="5.77004">
        <ele>-2.6</ele>
        <time>2024-06-12T10:48:46Z</time>
      </trkpt>
      <trkpt lat="43.13931" lon="5.77008">
        <ele>-2.8</ele>
        <time>2024-06-12T10:48:47Z</time>
      </trkpt>
      <trkpt lat="43.13929" lon="5.77012">
        <ele>-3</ele>
        <time>2024-06-12T10:48:48Z</time>
      </trkpt>
      <trkpt lat="43.13928" lon="5.77016">
        <ele>-3</ele>
        <time>2024-06-12T10:48:49Z</time>
      </trkpt>
      <trkpt lat="43.13926" lon="5.77023">
        <ele>-3</ele>
        <time>2024-06-12T10:48:50Z</time>
      </trkpt>
      <trkpt lat="43.13925" lon="5.77025">
        <ele>-3</ele>
        <time>2024-06-12T10:48:51Z</time>
      </trkpt>
      <trkpt lat="43.13924" lon="5.77031">
        <ele>-2.2</ele>
        <time>2024-06-12T10:48:52Z</time>
      </trkpt>
      <trkpt lat="43.13923" lon="5.77033">
        <ele>-2.2</ele>
        <time>2024-06-12T10:48:53Z</time>
      </trkpt>
      <trkpt lat="43.13922" lon="5.77037">
        <ele>-2.2</ele>
        <time>2024-06-12T10:48:54Z</time>
      </trkpt>
      <trkpt lat="43.13921" lon="5.77041">
        <ele>-2.2</ele>
        <time>2024-06-12T10:48:55Z</time>
      </trkpt>
      <trkpt lat="43.1392" lon="5.77044">
        <ele>-2.4</ele>
        <time>2024-06-12T10:48:56Z</time>
      </trkpt>
      <trkpt lat="43.13918" lon="5.77045">
        <ele>-2.4</ele>
        <time>2024-06-12T10:48:57Z</time>
      </trkpt>
      <trkpt lat="43.13916" lon="5.77045">
        <ele>-2.4</ele>
        <time>2024-06-12T10:48:58Z</time>
      </trkpt>
      <trkpt lat="43.13915" lon="5.77045">
        <ele>-2.4</ele>
        <time>2024-06-12T10:48:59Z</time>
      </trkpt>
      <trkpt lat="43.13914" lon="5.77045">
        <ele>-2.4</ele>
        <time>2024-06-12T10:49:00Z</time>
      </trkpt>
      <trkpt lat="43.13914" lon="5.77044">
        <ele>-2.4</ele>
        <time>2024-06-12T10:49:01Z</time>
      </trkpt>
      <trkpt lat="43.13914" lon="5.77044">
        <ele>-2.4</ele>
        <time>2024-06-12T10:49:02Z</time>
      </trkpt>
      <trkpt lat="43.13909" lon="5.7705">
        <ele>-1.6</ele>
        <time>2024-06-12T10:51:41Z</time>
      </trkpt>
      <trkpt lat="43.13909" lon="5.77051">
        <ele>-2.2</ele>
        <time>2024-06-12T10:51:42Z</time>
      </trkpt>
      <trkpt lat="43.13909" lon="5.77051">
        <ele>-2.4</ele>
        <time>2024-06-12T10:51:43Z</time>
      </trkpt>
      <trkpt lat="43.13909" lon="5.77051">
        <ele>-2.4</ele>
        <time>2024-06-12T10:51:44Z</time>
      </trkpt>
      <trkpt lat="43.1391" lon="5.77056">
        <ele>-3.4</ele>
        <time>2024-06-12T10:51:48Z</time>
      </trkpt>
      <trkpt lat="43.1391" lon="5.77057">
        <ele>-3.4</ele>
        <time>2024-06-12T10:51:49Z</time>
      </trkpt>
      <trkpt lat="43.1391" lon="5.7706">
        <ele>-3.4</ele>
        <time>2024-06-12T10:51:50Z</time>
      </trkpt>
      <trkpt lat="43.1391" lon="5.77062">
        <ele>-4.4</ele>
        <time>2024-06-12T10:51:51Z</time>
      </trkpt>
      <trkpt lat="43.13909" lon="5.77065">
        <ele>-4.6</ele>
        <time>2024-06-12T10:51:52Z</time>
      </trkpt>
      <trkpt lat="43.13908" lon="5.77069">
        <ele>-4.6</ele>
        <time>2024-06-12T10:51:53Z</time>
      </trkpt>
      <trkpt lat="43.13908" lon="5.77072">
        <ele>-4.6</ele>
        <time>2024-06-12T10:51:54Z</time>
      </trkpt>
      <trkpt lat="43.13907" lon="5.77076">
        <ele>-4.6</ele>
        <time>2024-06-12T10:51:55Z</time>
      </trkpt>
      <trkpt lat="43.13906" lon="5.77082">
        <ele>-5.6</ele>
        <time>2024-06-12T10:51:56Z</time>
      </trkpt>
      <trkpt lat="43.13906" lon="5.77084">
        <ele>-5.6</ele>
        <time>2024-06-12T10:51:57Z</time>
      </trkpt>
      <trkpt lat="43.13906" lon="5.77087">
        <ele>-5.6</ele>
        <time>2024-06-12T10:51:58Z</time>
      </trkpt>
      <trkpt lat="43.13906" lon="5.7709">
        <ele>-5.6</ele>
        <time>2024-06-12T10:51:59Z</time>
      </trkpt>
      <trkpt lat="43.13905" lon="5.77093">
        <ele>-5.6</ele>
        <time>2024-06-12T10:52:00Z</time>
      </trkpt>
      <trkpt lat="43.13905" lon="5.77096">
        <ele>-6</ele>
        <time>2024-06-12T10:52:01Z</time>
      </trkpt>
      <trkpt lat="43.13904" lon="5.77098">
        <ele>-6.2</ele>
        <time>2024-06-12T10:52:02Z</time>
      </trkpt>
      <trkpt lat="43.13903" lon="5.771">
        <ele>-6.2</ele>
        <time>2024-06-12T10:52:03Z</time>
      </trkpt>
      <trkpt lat="43.13903" lon="5.77102">
        <ele>-6.2</ele>
        <time>2024-06-12T10:52:04Z</time>
      </trkpt>
      <trkpt lat="43.13902" lon="5.77103">
        <ele>-1.2</ele>
        <time>2024-06-12T11:08:00Z</time>
      </trkpt>
      <trkpt lat="43.13902" lon="5.77105">
        <ele>-1.8</ele>
        <time>2024-06-12T11:08:01Z</time>
      </trkpt>
      <trkpt lat="43.13901" lon="5.77107">
        <ele>-2</ele>
        <time>2024-06-12T11:08:02Z</time>
      </trkpt>
      <trkpt lat="43.139" lon="5.77109">
        <ele>-2</ele>
        <time>2024-06-12T11:08:03Z</time>
      </trkpt>
      <trkpt lat="43.139" lon="5.7711">
        <ele>-2</ele>
        <time>2024-06-12T11:08:04Z</time>
      </trkpt>
      <trkpt lat="43.13899" lon="5.77112">
        <ele>-3.6</ele>
        <time>2024-06-12T11:08:13Z</time>
      </trkpt>
      <trkpt lat="43.13899" lon="5.77114">
        <ele>-4</ele>
        <time>2024-06-12T11:08:14Z</time>
      </trkpt>
      <trkpt lat="43.13898" lon="5.77116">
        <ele>-4</ele>
        <time>2024-06-12T11:08:15Z</time>
      </trkpt>
      <trkpt lat="43.13897" lon="5.7712">
        <ele>-4</ele>
        <time>2024-06-12T11:08:16Z</time>
      </trkpt>
      <trkpt lat="43.13896" lon="5.77124">
        <ele>-4</ele>
        <time>2024-06-12T11:08:17Z</time>
      </trkpt>
      <trkpt lat="43.13895" lon="5.77129">
        <ele>-4.6</ele>
        <time>2024-06-12T11:08:18Z</time>
      </trkpt>
      <trkpt lat="43.13893" lon="5.77133">
        <ele>-5</ele>
        <time>2024-06-12T11:08:19Z</time>
      </trkpt>
      <trkpt lat="43.13892" lon="5.77138">
        <ele>-5</ele>
        <time>2024-06-12T11:08:20Z</time>
      </trkpt>
      <trkpt lat="43.13891" lon="5.77142">
        <ele>-5</ele>
        <time>2024-06-12T11:08:21Z</time>
      </trkpt>
      <trkpt lat="43.13889" lon="5.77149">
        <ele>-6</ele>
        <time>2024-06-12T11:08:22Z</time>
      </trkpt>
      <trkpt lat="43.13889" lon="5.77151">
        <ele>-6.2</ele>
        <time>2024-06-12T11:08:23Z</time>
      </trkpt>
      <trkpt lat="43.13887" lon="5.77155">
        <ele>-6.2</ele>
        <time>2024-06-12T11:08:24Z</time>
      </trkpt>
      <trkpt lat="43.13886" lon="5.77159">
        <ele>-6.2</ele>
        <time>2024-06-12T11:08:25Z</time>
      </trkpt>
      <trkpt lat="43.13885" lon="5.77163">
        <ele>-6.2</ele>
        <time>2024-06-12T11:08:26Z</time>
      </trkpt>
      <trkpt lat="43.13884" lon="5.77168">
        <ele>-6.2</ele>
        <time>2024-06-12T11:08:27Z</time>
      </trkpt>
      <trkpt lat="43.13883" lon="5.77172">
        <ele>-6.2</ele>
        <time>2024-06-12T11:08:28Z</time>
      </trkpt>
      <trkpt lat="43.13882" lon="5.77176">
        <ele>-7</ele>
        <time>2024-06-12T11:08:29Z</time>
      </trkpt>
      <trkpt lat="43.13881" lon="5.77181">
        <ele>-7</ele>
        <time>2024-06-12T11:08:30Z</time>
      </trkpt>
      <trkpt lat="43.1388" lon="5.77185">
        <ele>-7</ele>
        <time>2024-06-12T11:08:31Z</time>
      </trkpt>
      <trkpt lat="43.13879" lon="5.77189">
        <ele>-7</ele>
        <time>2024-06-12T11:08:32Z</time>
      </trkpt>
      <trkpt lat="43.13878" lon="5.77193">
        <ele>-7</ele>
        <time>2024-06-12T11:08:33Z</time>
      </trkpt>
      <trkpt lat="43.13877" lon="5.77197">
        <ele>-7.4</ele>
        <time>2024-06-12T11:08:34Z</time>
      </trkpt>
      <trkpt lat="43.13876" lon="5.77201">
        <ele>-7.4</ele>
        <time>2024-06-12T11:08:35Z</time>
      </trkpt>
      <trkpt lat="43.13874" lon="5.77204">
        <ele>-7.4</ele>
        <time>2024-06-12T11:08:36Z</time>
      </trkpt>
      <trkpt lat="43.13873" lon="5.77208">
        <ele>-7.4</ele>
        <time>2024-06-12T11:08:37Z</time>
      </trkpt>
      <trkpt lat="43.13871" lon="5.77213">
        <ele>-8</ele>
        <time>2024-06-12T11:08:38Z</time>
      </trkpt>
      <trkpt lat="43.13871" lon="5.77215">
        <ele>-8</ele>
        <time>2024-06-12T11:08:39Z</time>
      </trkpt>
      <trkpt lat="43.13869" lon="5.77221">
        <ele>-8</ele>
        <time>2024-06-12T11:08:40Z</time>
      </trkpt>
      <trkpt lat="43.13869" lon="5.77223">
        <ele>-8</ele>
        <time>2024-06-12T11:08:41Z</time>
      </trkpt>
      <trkpt lat="43.13868" lon="5.77227">
        <ele>-8.2</ele>
        <time>2024-06-12T11:08:42Z</time>
      </trkpt>
      <trkpt lat="43.13867" lon="5.7723">
        <ele>-8.2</ele>
        <time>2024-06-12T11:08:43Z</time>
      </trkpt>
      <trkpt lat="43.13867" lon="5.77234">
        <ele>-8.2</ele>
        <time>2024-06-12T11:08:44Z</time>
      </trkpt>
      <trkpt lat="43.13866" lon="5.77238">
        <ele>-8.6</ele>
        <time>2024-06-12T11:08:45Z</time>
      </trkpt>
      <trkpt lat="43.13865" lon="5.7724">
        <ele>-8.6</ele>
        <time>2024-06-12T11:08:46Z</time>
      </trkpt>
      <trkpt lat="43.13864" lon="5.77242">
        <ele>-8.8</ele>
        <time>2024-06-12T11:08:47Z</time>
      </trkpt>
      <trkpt lat="43.13864" lon="5.77243">
        <ele>-8.8</ele>
        <time>2024-06-12T11:08:48Z</time>
      </trkpt>
      <trkpt lat="43.13864" lon="5.77243">
        <ele>-8.8</ele>
        <time>2024-06-12T11:08:49Z</time>
      </trkpt>
      <trkpt lat="43.13862" lon="5.7725">
        <ele>-5.8</ele>
        <time>2024-06-12T11:09:04Z</time>
      </trkpt>
      <trkpt lat="43.13861" lon="5.77253">
        <ele>-5.8</ele>
        <time>2024-06-12T11:09:05Z</time>
      </trkpt>
      <trkpt lat="43.1386" lon="5.77256">
        <ele>-5.8</ele>
        <time>2024-06-12T11:09:06Z</time>
      </trkpt>
      <trkpt lat="43.13859" lon="5.77262">
        <ele>-5.6</ele>
        <time>2024-06-12T11:09:07Z</time>
      </trkpt>
      <trkpt lat="43.13859" lon="5.77264">
        <ele>-5.6</ele>
        <time>2024-06-12T11:09:08Z</time>
      </trkpt>
      <trkpt lat="43.13858" lon="5.77268">
        <ele>-5.6</ele>
        <time>2024-06-12T11:09:09Z</time>
      </trkpt>
      <trkpt lat="43.13857" lon="5.77272">
        <ele>-5.6</ele>
        <time>2024-06-12T11:09:10Z</time>
      </trkpt>
      <trkpt lat="43.13856" lon="5.77275">
        <ele>-5.4</ele>
        <time>2024-06-12T11:09:11Z</time>
      </trkpt>
      <trkpt lat="43.13856" lon="5.77278">
        <ele>-5.4</ele>
        <time>2024-06-12T11:09:12Z</time>
      </trkpt>
      <trkpt lat="43.13855" lon="5.7728">
        <ele>-5.4</ele>
        <time>2024-06-12T11:09:13Z</time>
      </trkpt>
      <trkpt lat="43.13854" lon="5.77282">
        <ele>-5.4</ele>
        <time>2024-06-12T11:09:14Z</time>
      </trkpt>
      <trkpt lat="43.13853" lon="5.77285">
        <ele>-5.4</ele>
        <time>2024-06-12T11:09:15Z</time>
      </trkpt>
      <trkpt lat="43.13853" lon="5.77286">
        <ele>-5.4</ele>
        <time>2024-06-12T11:09:16Z</time>
      </trkpt>
      <trkpt lat="43.13852" lon="5.77289">
        <ele>-5.4</ele>
        <time>2024-06-12T11:09:17Z</time>
      </trkpt>
      <trkpt lat="43.13851" lon="5.77292">
        <ele>-5.4</ele>
        <time>2024-06-12T11:09:18Z</time>
      </trkpt>
      <trkpt lat="43.1385" lon="5.77295">
        <ele>-5.4</ele>
        <time>2024-06-12T11:09:19Z</time>
      </trkpt>
      <trkpt lat="43.13849" lon="5.77298">
        <ele>-5.4</ele>
        <time>2024-06-12T11:09:20Z</time>
      </trkpt>
      <trkpt lat="43.13848" lon="5.77302">
        <ele>-5.8</ele>
        <time>2024-06-12T11:09:21Z</time>
      </trkpt>
      <trkpt lat="43.13846" lon="5.77306">
        <ele>-5.8</ele>
        <time>2024-06-12T11:09:22Z</time>
      </trkpt>
      <trkpt lat="43.13845" lon="5.7731">
        <ele>-5.8</ele>
        <time>2024-06-12T11:09:23Z</time>
      </trkpt>
      <trkpt lat="43.13843" lon="5.77314">
        <ele>-5.8</ele>
        <time>2024-06-12T11:09:24Z</time>
      </trkpt>
      <trkpt lat="43.13841" lon="5.77321">
        <ele>-5.8</ele>
        <time>2024-06-12T11:09:25Z</time>
      </trkpt>
      <trkpt lat="43.13841" lon="5.77323">
        <ele>-5.8</ele>
        <time>2024-06-12T11:09:26Z</time>
      </trkpt>
      <trkpt lat="43.13838" lon="5.7733">
        <ele>-5.8</ele>
        <time>2024-06-12T11:09:27Z</time>
      </trkpt>
      <trkpt lat="43.13838" lon="5.77332">
        <ele>-5.8</ele>
        <time>2024-06-12T11:09:28Z</time>
      </trkpt>
      <trkpt lat="43.13836" lon="5.77337">
        <ele>-5.8</ele>
        <time>2024-06-12T11:09:29Z</time>
      </trkpt>
      <trkpt lat="43.13835" lon="5.77341">
        <ele>-6</ele>
        <time>2024-06-12T11:09:30Z</time>
      </trkpt>
      <trkpt lat="43.13832" lon="5.77348">
        <ele>-6.4</ele>
        <time>2024-06-12T11:09:31Z</time>
      </trkpt>
      <trkpt lat="43.13831" lon="5.7735">
        <ele>-6.4</ele>
        <time>2024-06-12T11:09:32Z</time>
      </trkpt>
      <trkpt lat="43.1383" lon="5.77354">
        <ele>-6.4</ele>
        <time>2024-06-12T11:09:33Z</time>
      </trkpt>
      <trkpt lat="43.13828" lon="5.77358">
        <ele>-6</ele>
        <time>2024-06-12T11:09:34Z</time>
      </trkpt>
      <trkpt lat="43.13827" lon="5.77362">
        <ele>-6</ele>
        <time>2024-06-12T11:09:35Z</time>
      </trkpt>
      <trkpt lat="43.13826" lon="5.77367">
        <ele>-6</ele>
        <time>2024-06-12T11:09:36Z</time>
      </trkpt>
      <trkpt lat="43.13824" lon="5.77371">
        <ele>-6</ele>
        <time>2024-06-12T11:09:37Z</time>
      </trkpt>
      <trkpt lat="43.13823" lon="5.77375">
        <ele>-6</ele>
        <time>2024-06-12T11:09:38Z</time>
      </trkpt>
      <trkpt lat="43.13821" lon="5.7738">
        <ele>-6.4</ele>
        <time>2024-06-12T11:09:39Z</time>
      </trkpt>
      <trkpt lat="43.1382" lon="5.77384">
        <ele>-6.4</ele>
        <time>2024-06-12T11:09:40Z</time>
      </trkpt>
      <trkpt lat="43.13818" lon="5.77388">
        <ele>-6.4</ele>
        <time>2024-06-12T11:09:41Z</time>
      </trkpt>
      <trkpt lat="43.13816" lon="5.77393">
        <ele>-6.4</ele>
        <time>2024-06-12T11:09:42Z</time>
      </trkpt>
      <trkpt lat="43.13813" lon="5.774">
        <ele>-6.6</ele>
        <time>2024-06-12T11:09:43Z</time>
      </trkpt>
      <trkpt lat="43.13812" lon="5.77402">
        <ele>-6.6</ele>
        <time>2024-06-12T11:09:44Z</time>
      </trkpt>
      <trkpt lat="43.1381" lon="5.77409">
        <ele>-6.6</ele>
        <time>2024-06-12T11:09:45Z</time>
      </trkpt>
      <trkpt lat="43.13809" lon="5.77411">
        <ele>-6.6</ele>
        <time>2024-06-12T11:09:46Z</time>
      </trkpt>
      <trkpt lat="43.13807" lon="5.77415">
        <ele>-6.6</ele>
        <time>2024-06-12T11:09:47Z</time>
      </trkpt>
      <trkpt lat="43.13805" lon="5.7742">
        <ele>-6.8</ele>
        <time>2024-06-12T11:09:48Z</time>
      </trkpt>
      <trkpt lat="43.13803" lon="5.77424">
        <ele>-6.8</ele>
        <time>2024-06-12T11:09:49Z</time>
      </trkpt>
      <trkpt lat="43.13802" lon="5.77428">
        <ele>-6.8</ele>
        <time>2024-06-12T11:09:50Z</time>
      </trkpt>
      <trkpt lat="43.138" lon="5.77431">
        <ele>-6.8</ele>
        <time>2024-06-12T11:09:51Z</time>
      </trkpt>
      <trkpt lat="43.13799" lon="5.77435">
        <ele>-7.2</ele>
        <time>2024-06-12T11:09:52Z</time>
      </trkpt>
      <trkpt lat="43.13797" lon="5.77439">
        <ele>-7.2</ele>
        <time>2024-06-12T11:09:53Z</time>
      </trkpt>
      <trkpt lat="43.13796" lon="5.77443">
        <ele>-7.2</ele>
        <time>2024-06-12T11:09:54Z</time>
      </trkpt>
      <trkpt lat="43.13793" lon="5.77449">
        <ele>-7.2</ele>
        <time>2024-06-12T11:09:55Z</time>
      </trkpt>
      <trkpt lat="43.13792" lon="5.77451">
        <ele>-7.2</ele>
        <time>2024-06-12T11:09:56Z</time>
      </trkpt>
      <trkpt lat="43.1379" lon="5.77457">
        <ele>-7.2</ele>
        <time>2024-06-12T11:09:57Z</time>
      </trkpt>
      <trkpt lat="43.13789" lon="5.77459">
        <ele>-7.2</ele>
        <time>2024-06-12T11:09:58Z</time>
      </trkpt>
      <trkpt lat="43.13787" lon="5.77463">
        <ele>-7.2</ele>
        <time>2024-06-12T11:09:59Z</time>
      </trkpt>
      <trkpt lat="43.13786" lon="5.77467">
        <ele>-7.2</ele>
        <time>2024-06-12T11:10:00Z</time>
      </trkpt>
      <trkpt lat="43.13784" lon="5.77471">
        <ele>-7.2</ele>
        <time>2024-06-12T11:10:01Z</time>
      </trkpt>
      <trkpt lat="43.13782" lon="5.77475">
        <ele>-7.6</ele>
        <time>2024-06-12T11:10:02Z</time>
      </trkpt>
      <trkpt lat="43.1378" lon="5.77479">
        <ele>-7.4</ele>
        <time>2024-06-12T11:10:03Z</time>
      </trkpt>
      <trkpt lat="43.13779" lon="5.77483">
        <ele>-7.4</ele>
        <time>2024-06-12T11:10:04Z</time>
      </trkpt>
      <trkpt lat="43.13777" lon="5.77487">
        <ele>-7.4</ele>
        <time>2024-06-12T11:10:05Z</time>
      </trkpt>
      <trkpt lat="43.13775" lon="5.7749">
        <ele>-7.4</ele>
        <time>2024-06-12T11:10:06Z</time>
      </trkpt>
      <trkpt lat="43.13774" lon="5.77493">
        <ele>-7.2</ele>
        <time>2024-06-12T11:10:07Z</time>
      </trkpt>
      <trkpt lat="43.13772" lon="5.77496">
        <ele>-7.2</ele>
        <time>2024-06-12T11:10:08Z</time>
      </trkpt>
      <trkpt lat="43.13771" lon="5.77498">
        <ele>-7.2</ele>
        <time>2024-06-12T11:10:09Z</time>
      </trkpt>
      <trkpt lat="43.1377" lon="5.775">
        <ele>-7.2</ele>
        <time>2024-06-12T11:10:10Z</time>
      </trkpt>
      <trkpt lat="43.13769" lon="5.77502">
        <ele>-6.6</ele>
        <time>2024-06-12T11:10:11Z</time>
      </trkpt>
      <trkpt lat="43.13768" lon="5.77504">
        <ele>-6.6</ele>
        <time>2024-06-12T11:10:12Z</time>
      </trkpt>
      <trkpt lat="43.13767" lon="5.77505">
        <ele>-6.6</ele>
        <time>2024-06-12T11:10:13Z</time>
      </trkpt>
      <trkpt lat="43.13767" lon="5.77507">
        <ele>-6.6</ele>
        <time>2024-06-12T11:10:14Z</time>
      </trkpt>
      <trkpt lat="43.13766" lon="5.77508">
        <ele>-6.2</ele>
        <time>2024-06-12T11:10:15Z</time>
      </trkpt>
      <trkpt lat="43.13765" lon="5.7751">
        <ele>-6.2</ele>
        <time>2024-06-12T11:10:16Z</time>
      </trkpt>
      <trkpt lat="43.13764" lon="5.77512">
        <ele>-6.2</ele>
        <time>2024-06-12T11:10:17Z</time>
      </trkpt>
      <trkpt lat="43.13764" lon="5.77514">
        <ele>-6.2</ele>
        <time>2024-06-12T11:10:18Z</time>
      </trkpt>
      <trkpt lat="43.13763" lon="5.77516">
        <ele>-6</ele>
        <time>2024-06-12T11:10:19Z</time>
      </trkpt>
      <trkpt lat="43.13763" lon="5.77518">
        <ele>-6</ele>
        <time>2024-06-12T11:10:20Z</time>
      </trkpt>
      <trkpt lat="43.13763" lon="5.7752">
        <ele>-6</ele>
        <time>2024-06-12T11:10:21Z</time>
      </trkpt>
      <trkpt lat="43.13763" lon="5.77523">
        <ele>-6</ele>
        <time>2024-06-12T11:10:22Z</time>
      </trkpt>
      <trkpt lat="43.13762" lon="5.77525">
        <ele>-6</ele>
        <time>2024-06-12T11:10:23Z</time>
      </trkpt>
      <trkpt lat="43.13762" lon="5.77527">
        <ele>-6</ele>
        <time>2024-06-12T11:10:24Z</time>
      </trkpt>
      <trkpt lat="43.1376" lon="5.7753">
        <ele>-6</ele>
        <time>2024-06-12T11:10:25Z</time>
      </trkpt>
      <trkpt lat="43.1376" lon="5.77531">
        <ele>-6</ele>
        <time>2024-06-12T11:10:26Z</time>
      </trkpt>
      <trkpt lat="43.13758" lon="5.77536">
        <ele>-6</ele>
        <time>2024-06-12T11:10:27Z</time>
      </trkpt>
      <trkpt lat="43.13757" lon="5.77538">
        <ele>-6</ele>
        <time>2024-06-12T11:10:28Z</time>
      </trkpt>
      <trkpt lat="43.13755" lon="5.77542">
        <ele>-6</ele>
        <time>2024-06-12T11:10:29Z</time>
      </trkpt>
      <trkpt lat="43.13753" lon="5.77545">
        <ele>-6</ele>
        <time>2024-06-12T11:10:30Z</time>
      </trkpt>
      <trkpt lat="43.13752" lon="5.77549">
        <ele>-6</ele>
        <time>2024-06-12T11:10:31Z</time>
      </trkpt>
      <trkpt lat="43.1375" lon="5.77553">
        <ele>-6</ele>
        <time>2024-06-12T11:10:32Z</time>
      </trkpt>
      <trkpt lat="43.13748" lon="5.77557">
        <ele>-5.8</ele>
        <time>2024-06-12T11:10:33Z</time>
      </trkpt>
      <trkpt lat="43.13746" lon="5.77561">
        <ele>-5.8</ele>
        <time>2024-06-12T11:10:34Z</time>
      </trkpt>
      <trkpt lat="43.13744" lon="5.77565">
        <ele>-5.8</ele>
        <time>2024-06-12T11:10:35Z</time>
      </trkpt>
      <trkpt lat="43.13742" lon="5.77569">
        <ele>-5.8</ele>
        <time>2024-06-12T11:10:36Z</time>
      </trkpt>
      <trkpt lat="43.13739" lon="5.77573">
        <ele>-5.8</ele>
        <time>2024-06-12T11:10:37Z</time>
      </trkpt>
      <trkpt lat="43.13736" lon="5.77579">
        <ele>-5.8</ele>
        <time>2024-06-12T11:10:38Z</time>
      </trkpt>
      <trkpt lat="43.13735" lon="5.77581">
        <ele>-5.8</ele>
        <time>2024-06-12T11:10:39Z</time>
      </trkpt>
      <trkpt lat="43.13732" lon="5.77587">
        <ele>-5.8</ele>
        <time>2024-06-12T11:10:40Z</time>
      </trkpt>
      <trkpt lat="43.13731" lon="5.77589">
        <ele>-5.6</ele>
        <time>2024-06-12T11:10:41Z</time>
      </trkpt>
      <trkpt lat="43.13729" lon="5.77592">
        <ele>-5.6</ele>
        <time>2024-06-12T11:10:42Z</time>
      </trkpt>
      <trkpt lat="43.13726" lon="5.77596">
        <ele>-5.6</ele>
        <time>2024-06-12T11:10:43Z</time>
      </trkpt>
      <trkpt lat="43.13724" lon="5.77599">
        <ele>-5.6</ele>
        <time>2024-06-12T11:10:44Z</time>
      </trkpt>
      <trkpt lat="43.13722" lon="5.77603">
        <ele>-5.6</ele>
        <time>2024-06-12T11:10:45Z</time>
      </trkpt>
      <trkpt lat="43.1372" lon="5.77607">
        <ele>-5.6</ele>
        <time>2024-06-12T11:10:46Z</time>
      </trkpt>
      <trkpt lat="43.13718" lon="5.7761">
        <ele>-5.8</ele>
        <time>2024-06-12T11:10:47Z</time>
      </trkpt>
      <trkpt lat="43.13715" lon="5.77614">
        <ele>-5.8</ele>
        <time>2024-06-12T11:10:48Z</time>
      </trkpt>
      <trkpt lat="43.13713" lon="5.77618">
        <ele>-5.8</ele>
        <time>2024-06-12T11:10:49Z</time>
      </trkpt>
      <trkpt lat="43.13711" lon="5.77621">
        <ele>-5.8</ele>
        <time>2024-06-12T11:10:50Z</time>
      </trkpt>
      <trkpt lat="43.13708" lon="5.77625">
        <ele>-5.2</ele>
        <time>2024-06-12T11:10:51Z</time>
      </trkpt>
      <trkpt lat="43.13706" lon="5.77628">
        <ele>-5.6</ele>
        <time>2024-06-12T11:10:52Z</time>
      </trkpt>
      <trkpt lat="43.13704" lon="5.77632">
        <ele>-5.6</ele>
        <time>2024-06-12T11:10:53Z</time>
      </trkpt>
      <trkpt lat="43.13702" lon="5.77636">
        <ele>-5.6</ele>
        <time>2024-06-12T11:10:54Z</time>
      </trkpt>
      <trkpt lat="43.13699" lon="5.77639">
        <ele>-5.2</ele>
        <time>2024-06-12T11:10:55Z</time>
      </trkpt>
      <trkpt lat="43.13696" lon="5.77644">
        <ele>-5</ele>
        <time>2024-06-12T11:10:56Z</time>
      </trkpt>
      <trkpt lat="43.13695" lon="5.77646">
        <ele>-5</ele>
        <time>2024-06-12T11:10:57Z</time>
      </trkpt>
      <trkpt lat="43.13692" lon="5.77649">
        <ele>-5</ele>
        <time>2024-06-12T11:10:58Z</time>
      </trkpt>
      <trkpt lat="43.1369" lon="5.77652">
        <ele>-5</ele>
        <time>2024-06-12T11:10:59Z</time>
      </trkpt>
      <trkpt lat="43.13688" lon="5.77656">
        <ele>-5</ele>
        <time>2024-06-12T11:11:00Z</time>
      </trkpt>
      <trkpt lat="43.13686" lon="5.77659">
        <ele>-4.8</ele>
        <time>2024-06-12T11:11:01Z</time>
      </trkpt>
      <trkpt lat="43.13683" lon="5.77663">
        <ele>-4.8</ele>
        <time>2024-06-12T11:11:02Z</time>
      </trkpt>
      <trkpt lat="43.13681" lon="5.77666">
        <ele>-4.8</ele>
        <time>2024-06-12T11:11:03Z</time>
      </trkpt>
      <trkpt lat="43.13678" lon="5.7767">
        <ele>-4.8</ele>
        <time>2024-06-12T11:11:04Z</time>
      </trkpt>
      <trkpt lat="43.13676" lon="5.77674">
        <ele>-4.8</ele>
        <time>2024-06-12T11:11:05Z</time>
      </trkpt>
      <trkpt lat="43.13673" lon="5.77678">
        <ele>-4.8</ele>
        <time>2024-06-12T11:11:06Z</time>
      </trkpt>
      <trkpt lat="43.13671" lon="5.77681">
        <ele>-4.8</ele>
        <time>2024-06-12T11:11:07Z</time>
      </trkpt>
      <trkpt lat="43.13667" lon="5.77686">
        <ele>-4.6</ele>
        <time>2024-06-12T11:11:08Z</time>
      </trkpt>
      <trkpt lat="43.13666" lon="5.77688">
        <ele>-4.6</ele>
        <time>2024-06-12T11:11:09Z</time>
      </trkpt>
      <trkpt lat="43.13662" lon="5.77693">
        <ele>-4.2</ele>
        <time>2024-06-12T11:11:10Z</time>
      </trkpt>
      <trkpt lat="43.13661" lon="5.77695">
        <ele>-4.2</ele>
        <time>2024-06-12T11:11:11Z</time>
      </trkpt>
      <trkpt lat="43.13657" lon="5.777">
        <ele>-4.2</ele>
        <time>2024-06-12T11:11:12Z</time>
      </trkpt>
      <trkpt lat="43.13656" lon="5.77702">
        <ele>-4.2</ele>
        <time>2024-06-12T11:11:13Z</time>
      </trkpt>
      <trkpt lat="43.13652" lon="5.77707">
        <ele>-4</ele>
        <time>2024-06-12T11:11:14Z</time>
      </trkpt>
      <trkpt lat="43.13651" lon="5.77709">
        <ele>-4</ele>
        <time>2024-06-12T11:11:15Z</time>
      </trkpt>
      <trkpt lat="43.13648" lon="5.77713">
        <ele>-4</ele>
        <time>2024-06-12T11:11:16Z</time>
      </trkpt>
      <trkpt lat="43.13646" lon="5.77716">
        <ele>-3.8</ele>
        <time>2024-06-12T11:11:17Z</time>
      </trkpt>
      <trkpt lat="43.13643" lon="5.77719">
        <ele>-3.8</ele>
        <time>2024-06-12T11:11:18Z</time>
      </trkpt>
      <trkpt lat="43.13641" lon="5.77723">
        <ele>-3.8</ele>
        <time>2024-06-12T11:11:19Z</time>
      </trkpt>
      <trkpt lat="43.13637" lon="5.77728">
        <ele>-3.8</ele>
        <time>2024-06-12T11:11:20Z</time>
      </trkpt>
      <trkpt lat="43.13636" lon="5.7773">
        <ele>-3.8</ele>
        <time>2024-06-12T11:11:21Z</time>
      </trkpt>
      <trkpt lat="43.13632" lon="5.77735">
        <ele>-3.6</ele>
        <time>2024-06-12T11:11:22Z</time>
      </trkpt>
      <trkpt lat="43.13631" lon="5.77736">
        <ele>-3.8</ele>
        <time>2024-06-12T11:11:23Z</time>
      </trkpt>
      <trkpt lat="43.13627" lon="5.77741">
        <ele>-3.8</ele>
        <time>2024-06-12T11:11:24Z</time>
      </trkpt>
      <trkpt lat="43.13625" lon="5.77743">
        <ele>-3.8</ele>
        <time>2024-06-12T11:11:25Z</time>
      </trkpt>
      <trkpt lat="43.13623" lon="5.77747">
        <ele>-3.8</ele>
        <time>2024-06-12T11:11:26Z</time>
      </trkpt>
      <trkpt lat="43.1362" lon="5.7775">
        <ele>-3.2</ele>
        <time>2024-06-12T11:11:27Z</time>
      </trkpt>
      <trkpt lat="43.13617" lon="5.77753">
        <ele>-3</ele>
        <time>2024-06-12T11:11:28Z</time>
      </trkpt>
      <trkpt lat="43.13614" lon="5.77757">
        <ele>-3</ele>
        <time>2024-06-12T11:11:29Z</time>
      </trkpt>
      <trkpt lat="43.13611" lon="5.7776">
        <ele>-3</ele>
        <time>2024-06-12T11:11:30Z</time>
      </trkpt>
      <trkpt lat="43.13609" lon="5.77763">
        <ele>-2.4</ele>
        <time>2024-06-12T11:11:31Z</time>
      </trkpt>
      <trkpt lat="43.13606" lon="5.77767">
        <ele>-2.4</ele>
        <time>2024-06-12T11:11:32Z</time>
      </trkpt>
      <trkpt lat="43.13603" lon="5.7777">
        <ele>-2.2</ele>
        <time>2024-06-12T11:11:33Z</time>
      </trkpt>
      <trkpt lat="43.136" lon="5.77773">
        <ele>-2.2</ele>
        <time>2024-06-12T11:11:34Z</time>
      </trkpt>
      <trkpt lat="43.13597" lon="5.77777">
        <ele>-2.2</ele>
        <time>2024-06-12T11:11:35Z</time>
      </trkpt>
      <trkpt lat="43.13594" lon="5.7778">
        <ele>-1.8</ele>
        <time>2024-06-12T11:11:36Z</time>
      </trkpt>
      <trkpt lat="43.13592" lon="5.77783">
        <ele>-1.4</ele>
        <time>2024-06-12T11:11:37Z</time>
      </trkpt>
      <trkpt lat="43.13587" lon="5.77788">
        <ele>-1.4</ele>
        <time>2024-06-12T11:11:38Z</time>
      </trkpt>
      <trkpt lat="43.13586" lon="5.7779">
        <ele>-1.4</ele>
        <time>2024-06-12T11:11:39Z</time>
      </trkpt>
      <trkpt lat="43.13583" lon="5.77793">
        <ele>-1</ele>
        <time>2024-06-12T11:11:40Z</time>
      </trkpt>
      <trkpt lat="43.1358" lon="5.77796">
        <ele>-1</ele>
        <time>2024-06-12T11:11:41Z</time>
      </trkpt>
      <trkpt lat="43.13578" lon="5.77799">
        <ele>-1</ele>
        <time>2024-06-12T11:11:42Z</time>
      </trkpt>
      <trkpt lat="43.13575" lon="5.77802">
        <ele>-1</ele>
        <time>2024-06-12T11:11:43Z</time>
      </trkpt>
      <trkpt lat="43.13573" lon="5.77806">
        <ele>-1</ele>
        <time>2024-06-12T11:11:44Z</time>
      </trkpt>
      <trkpt lat="43.1357" lon="5.77809">
        <ele>-0.8</ele>
        <time>2024-06-12T11:11:45Z</time>
      </trkpt>
      <trkpt lat="43.13567" lon="5.77813">
        <ele>-0.8</ele>
        <time>2024-06-12T11:11:46Z</time>
      </trkpt>
      <trkpt lat="43.13565" lon="5.77816">
        <ele>-0.6</ele>
        <time>2024-06-12T11:11:47Z</time>
      </trkpt>
      <trkpt lat="43.13561" lon="5.77822">
        <ele>-0.6</ele>
        <time>2024-06-12T11:11:48Z</time>
      </trkpt>
      <trkpt lat="43.1356" lon="5.77824">
        <ele>-0.2</ele>
        <time>2024-06-12T11:11:49Z</time>
      </trkpt>
      <trkpt lat="43.13557" lon="5.7783">
        <ele>-0.4</ele>
        <time>2024-06-12T11:11:50Z</time>
      </trkpt>
      <trkpt lat="43.13556" lon="5.77832">
        <ele>-0.4</ele>
        <time>2024-06-12T11:11:51Z</time>
      </trkpt>
      <trkpt lat="43.13552" lon="5.77838">
        <ele>-0.4</ele>
        <time>2024-06-12T11:11:52Z</time>
      </trkpt>
      <trkpt lat="43.13551" lon="5.7784">
        <ele>-0.4</ele>
        <time>2024-06-12T11:11:53Z</time>
      </trkpt>
      <trkpt lat="43.13549" lon="5.77844">
        <ele>-0.4</ele>
        <time>2024-06-12T11:11:54Z</time>
      </trkpt>
      <trkpt lat="43.13546" lon="5.77848">
        <ele>-0.4</ele>
        <time>2024-06-12T11:11:55Z</time>
      </trkpt>
      <trkpt lat="43.13542" lon="5.77855">
        <ele>-0.4</ele>
        <time>2024-06-12T11:11:56Z</time>
      </trkpt>
      <trkpt lat="43.13541" lon="5.77857">
        <ele>-0.4</ele>
        <time>2024-06-12T11:11:57Z</time>
      </trkpt>
      <trkpt lat="43.13538" lon="5.77861">
        <ele>-0.2</ele>
        <time>2024-06-12T11:11:58Z</time>
      </trkpt>
      <trkpt lat="43.13535" lon="5.77865">
        <ele>11.8</ele>
        <time>2024-06-12T11:11:59Z</time>
      </trkpt>
      <trkpt lat="43.13532" lon="5.77868">
        <ele>11.4</ele>
        <time>2024-06-12T11:12:00Z</time>
      </trkpt>
      <trkpt lat="43.13529" lon="5.77872">
        <ele>10.9</ele>
        <time>2024-06-12T11:12:01Z</time>
      </trkpt>
      <trkpt lat="43.13525" lon="5.77877">
        <ele>0.6</ele>
        <time>2024-06-12T11:12:02Z</time>
      </trkpt>
      <trkpt lat="43.13523" lon="5.77879">
        <ele>0.6</ele>
        <time>2024-06-12T11:12:03Z</time>
      </trkpt>
      <trkpt lat="43.13519" lon="5.77884">
        <ele>0.4</ele>
        <time>2024-06-12T11:12:04Z</time>
      </trkpt>
      <trkpt lat="43.13517" lon="5.77886">
        <ele>0.4</ele>
        <time>2024-06-12T11:12:05Z</time>
      </trkpt>
      <trkpt lat="43.13514" lon="5.77889">
        <ele>0.4</ele>
        <time>2024-06-12T11:12:06Z</time>
      </trkpt>
      <trkpt lat="43.13511" lon="5.77892">
        <ele>12.2</ele>
        <time>2024-06-12T11:12:07Z</time>
      </trkpt>
      <trkpt lat="43.13507" lon="5.77895">
        <ele>0.2</ele>
        <time>2024-06-12T11:12:08Z</time>
      </trkpt>
      <trkpt lat="43.13504" lon="5.77898">
        <ele>0.2</ele>
        <time>2024-06-12T11:12:09Z</time>
      </trkpt>
      <trkpt lat="43.13501" lon="5.77901">
        <ele>0.2</ele>
        <time>2024-06-12T11:12:10Z</time>
      </trkpt>
      <trkpt lat="43.13496" lon="5.77905">
        <ele>0.2</ele>
        <time>2024-06-12T11:12:11Z</time>
      </trkpt>
      <trkpt lat="43.13494" lon="5.77906">
        <ele>14</ele>
        <time>2024-06-12T11:12:12Z</time>
      </trkpt>
      <trkpt lat="43.13491" lon="5.77909">
        <ele>14.3</ele>
        <time>2024-06-12T11:12:13Z</time>
      </trkpt>
      <trkpt lat="43.13486" lon="5.77912">
        <ele>14.7</ele>
        <time>2024-06-12T11:12:14Z</time>
      </trkpt>
      <trkpt lat="43.13484" lon="5.77914">
        <ele>14.8</ele>
        <time>2024-06-12T11:12:15Z</time>
      </trkpt>
      <trkpt lat="43.13481" lon="5.77916">
        <ele>15.4</ele>
        <time>2024-06-12T11:12:16Z</time>
      </trkpt>
      <trkpt lat="43.13478" lon="5.77919">
        <ele>0.6</ele>
        <time>2024-06-12T11:12:17Z</time>
      </trkpt>
      <trkpt lat="43.13475" lon="5.77922">
        <ele>0.6</ele>
        <time>2024-06-12T11:12:18Z</time>
      </trkpt>
      <trkpt lat="43.13471" lon="5.77925">
        <ele>0.6</ele>
        <time>2024-06-12T11:12:19Z</time>
      </trkpt>
      <trkpt lat="43.13468" lon="5.77927">
        <ele>1</ele>
        <time>2024-06-12T11:12:20Z</time>
      </trkpt>
      <trkpt lat="43.13463" lon="5.77931">
        <ele>1</ele>
        <time>2024-06-12T11:12:21Z</time>
      </trkpt>
      <trkpt lat="43.13462" lon="5.77933">
        <ele>1</ele>
        <time>2024-06-12T11:12:22Z</time>
      </trkpt>
      <trkpt lat="43.13457" lon="5.77937">
        <ele>1</ele>
        <time>2024-06-12T11:12:23Z</time>
      </trkpt>
      <trkpt lat="43.13456" lon="5.77938">
        <ele>1</ele>
        <time>2024-06-12T11:12:24Z</time>
      </trkpt>
      <trkpt lat="43.13452" lon="5.7794">
        <ele>2</ele>
        <time>2024-06-12T11:12:25Z</time>
      </trkpt>
      <trkpt lat="43.13449" lon="5.77943">
        <ele>2.4</ele>
        <time>2024-06-12T11:12:26Z</time>
      </trkpt>
      <trkpt lat="43.13446" lon="5.77946">
        <ele>2.4</ele>
        <time>2024-06-12T11:12:27Z</time>
      </trkpt>
      <trkpt lat="43.13443" lon="5.77948">
        <ele>2.4</ele>
        <time>2024-06-12T11:12:28Z</time>
      </trkpt>
      <trkpt lat="43.1344" lon="5.77951">
        <ele>2.4</ele>
        <time>2024-06-12T11:12:29Z</time>
      </trkpt>
      <trkpt lat="43.13436" lon="5.77953">
        <ele>3.6</ele>
        <time>2024-06-12T11:12:30Z</time>
      </trkpt>
      <trkpt lat="43.13433" lon="5.77955">
        <ele>3.6</ele>
        <time>2024-06-12T11:12:31Z</time>
      </trkpt>
      <trkpt lat="43.1343" lon="5.77958">
        <ele>3.6</ele>
        <time>2024-06-12T11:12:32Z</time>
      </trkpt>
      <trkpt lat="43.13425" lon="5.77962">
        <ele>3.6</ele>
        <time>2024-06-12T11:12:33Z</time>
      </trkpt>
      <trkpt lat="43.13424" lon="5.77963">
        <ele>4</ele>
        <time>2024-06-12T11:12:34Z</time>
      </trkpt>
      <trkpt lat="43.13419" lon="5.77967">
        <ele>4.2</ele>
        <time>2024-06-12T11:12:35Z</time>
      </trkpt>
      <trkpt lat="43.13418" lon="5.77968">
        <ele>4.2</ele>
        <time>2024-06-12T11:12:36Z</time>
      </trkpt>
      <trkpt lat="43.13414" lon="5.77971">
        <ele>4.2</ele>
        <time>2024-06-12T11:12:37Z</time>
      </trkpt>
      <trkpt lat="43.13411" lon="5.77973">
        <ele>4.6</ele>
        <time>2024-06-12T11:12:38Z</time>
      </trkpt>
      <trkpt lat="43.13408" lon="5.77976">
        <ele>5</ele>
        <time>2024-06-12T11:12:39Z</time>
      </trkpt>
      <trkpt lat="43.13405" lon="5.77979">
        <ele>5</ele>
        <time>2024-06-12T11:12:40Z</time>
      </trkpt>
      <trkpt lat="43.13402" lon="5.77981">
        <ele>5</ele>
        <time>2024-06-12T11:12:41Z</time>
      </trkpt>
      <trkpt lat="43.13399" lon="5.77984">
        <ele>5.4</ele>
        <time>2024-06-12T11:12:42Z</time>
      </trkpt>
      <trkpt lat="43.13396" lon="5.77986">
        <ele>5.4</ele>
        <time>2024-06-12T11:12:43Z</time>
      </trkpt>
      <trkpt lat="43.13393" lon="5.77989">
        <ele>5.6</ele>
        <time>2024-06-12T11:12:44Z</time>
      </trkpt>
      <trkpt lat="43.13389" lon="5.77992">
        <ele>5.6</ele>
        <time>2024-06-12T11:12:45Z</time>
      </trkpt>
      <trkpt lat="43.13387" lon="5.77993">
        <ele>5.6</ele>
        <time>2024-06-12T11:12:46Z</time>
      </trkpt>
      <trkpt lat="43.13384" lon="5.77996">
        <ele>6</ele>
        <time>2024-06-12T11:12:47Z</time>
      </trkpt>
      <trkpt lat="43.13381" lon="5.77998">
        <ele>6</ele>
        <time>2024-06-12T11:12:48Z</time>
      </trkpt>
      <trkpt lat="43.13378" lon="5.78">
        <ele>6.2</ele>
        <time>2024-06-12T11:12:49Z</time>
      </trkpt>
      <trkpt lat="43.13375" lon="5.78002">
        <ele>6.2</ele>
        <time>2024-06-12T11:12:50Z</time>
      </trkpt>
      <trkpt lat="43.1337" lon="5.78004">
        <ele>6.2</ele>
        <time>2024-06-12T11:12:51Z</time>
      </trkpt>
      <trkpt lat="43.13369" lon="5.78005">
        <ele>6.8</ele>
        <time>2024-06-12T11:12:52Z</time>
      </trkpt>
      <trkpt lat="43.13365" lon="5.78007">
        <ele>6.8</ele>
        <time>2024-06-12T11:12:53Z</time>
      </trkpt>
      <trkpt lat="43.13362" lon="5.78008">
        <ele>6.8</ele>
        <time>2024-06-12T11:12:54Z</time>
      </trkpt>
      <trkpt lat="43.13359" lon="5.7801">
        <ele>6.8</ele>
        <time>2024-06-12T11:12:55Z</time>
      </trkpt>
      <trkpt lat="43.13355" lon="5.78011">
        <ele>6.8</ele>
        <time>2024-06-12T11:12:56Z</time>
      </trkpt>
      <trkpt lat="43.13352" lon="5.78013">
        <ele>7.8</ele>
        <time>2024-06-12T11:12:57Z</time>
      </trkpt>
      <trkpt lat="43.13349" lon="5.78014">
        <ele>8</ele>
        <time>2024-06-12T11:12:58Z</time>
      </trkpt>
      <trkpt lat="43.13345" lon="5.78015">
        <ele>8</ele>
        <time>2024-06-12T11:12:59Z</time>
      </trkpt>
      <trkpt lat="43.13342" lon="5.78016">
        <ele>8</ele>
        <time>2024-06-12T11:13:00Z</time>
      </trkpt>
      <trkpt lat="43.13339" lon="5.78018">
        <ele>9</ele>
        <time>2024-06-12T11:13:01Z</time>
      </trkpt>
      <trkpt lat="43.13335" lon="5.7802">
        <ele>9</ele>
        <time>2024-06-12T11:13:02Z</time>
      </trkpt>
      <trkpt lat="43.1333" lon="5.78022">
        <ele>9</ele>
        <time>2024-06-12T11:13:03Z</time>
      </trkpt>
      <trkpt lat="43.13328" lon="5.78023">
        <ele>9</ele>
        <time>2024-06-12T11:13:04Z</time>
      </trkpt>
      <trkpt lat="43.13323" lon="5.78025">
        <ele>9</ele>
        <time>2024-06-12T11:13:05Z</time>
      </trkpt>
      <trkpt lat="43.13321" lon="5.78026">
        <ele>9.8</ele>
        <time>2024-06-12T11:13:06Z</time>
      </trkpt>
      <trkpt lat="43.13316" lon="5.78028">
        <ele>10</ele>
        <time>2024-06-12T11:13:07Z</time>
      </trkpt>
      <trkpt lat="43.13314" lon="5.78029">
        <ele>10</ele>
        <time>2024-06-12T11:13:08Z</time>
      </trkpt>
      <trkpt lat="43.1331" lon="5.7803">
        <ele>10</ele>
        <time>2024-06-12T11:13:09Z</time>
      </trkpt>
      <trkpt lat="43.13307" lon="5.78031">
        <ele>10.4</ele>
        <time>2024-06-12T11:13:10Z</time>
      </trkpt>
      <trkpt lat="43.13303" lon="5.78032">
        <ele>10.4</ele>
        <time>2024-06-12T11:13:11Z</time>
      </trkpt>
      <trkpt lat="43.133" lon="5.78034">
        <ele>10.4</ele>
        <time>2024-06-12T11:13:12Z</time>
      </trkpt>
      <trkpt lat="43.13294" lon="5.78036">
        <ele>10.4</ele>
        <time>2024-06-12T11:13:13Z</time>
      </trkpt>
      <trkpt lat="43.13292" lon="5.78037">
        <ele>10.8</ele>
        <time>2024-06-12T11:13:14Z</time>
      </trkpt>
      <trkpt lat="43.13289" lon="5.78039">
        <ele>10.8</ele>
        <time>2024-06-12T11:13:15Z</time>
      </trkpt>
      <trkpt lat="43.13285" lon="5.7804">
        <ele>10.8</ele>
        <time>2024-06-12T11:13:16Z</time>
      </trkpt>
      <trkpt lat="43.13281" lon="5.78041">
        <ele>10.8</ele>
        <time>2024-06-12T11:13:17Z</time>
      </trkpt>
      <trkpt lat="43.13278" lon="5.78043">
        <ele>11.2</ele>
        <time>2024-06-12T11:13:18Z</time>
      </trkpt>
      <trkpt lat="43.13275" lon="5.78045">
        <ele>11.4</ele>
        <time>2024-06-12T11:13:19Z</time>
      </trkpt>
      <trkpt lat="43.13269" lon="5.78047">
        <ele>11.4</ele>
        <time>2024-06-12T11:13:20Z</time>
      </trkpt>
      <trkpt lat="43.13267" lon="5.78048">
        <ele>11.4</ele>
        <time>2024-06-12T11:13:21Z</time>
      </trkpt>
      <trkpt lat="43.13262" lon="5.78051">
        <ele>11.8</ele>
        <time>2024-06-12T11:13:22Z</time>
      </trkpt>
      <trkpt lat="43.1326" lon="5.78052">
        <ele>12.2</ele>
        <time>2024-06-12T11:13:23Z</time>
      </trkpt>
      <trkpt lat="43.13257" lon="5.78054">
        <ele>12.2</ele>
        <time>2024-06-12T11:13:24Z</time>
      </trkpt>
      <trkpt lat="43.13252" lon="5.78057">
        <ele>12.2</ele>
        <time>2024-06-12T11:13:25Z</time>
      </trkpt>
      <trkpt lat="43.1325" lon="5.78059">
        <ele>12.2</ele>
        <time>2024-06-12T11:13:26Z</time>
      </trkpt>
      <trkpt lat="43.13244" lon="5.78062">
        <ele>13</ele>
        <time>2024-06-12T11:13:27Z</time>
      </trkpt>
      <trkpt lat="43.13242" lon="5.78063">
        <ele>13.4</ele>
        <time>2024-06-12T11:13:28Z</time>
      </trkpt>
      <trkpt lat="43.13237" lon="5.78066">
        <ele>13.4</ele>
        <time>2024-06-12T11:13:29Z</time>
      </trkpt>
      <trkpt lat="43.13235" lon="5.78067">
        <ele>13.4</ele>
        <time>2024-06-12T11:13:30Z</time>
      </trkpt>
      <trkpt lat="43.13231" lon="5.78069">
        <ele>13.4</ele>
        <time>2024-06-12T11:13:31Z</time>
      </trkpt>
      <trkpt lat="43.13227" lon="5.78072">
        <ele>14.2</ele>
        <time>2024-06-12T11:13:32Z</time>
      </trkpt>
      <trkpt lat="43.13224" lon="5.78074">
        <ele>14.4</ele>
        <time>2024-06-12T11:13:33Z</time>
      </trkpt>
      <trkpt lat="43.1322" lon="5.78076">
        <ele>14.4</ele>
        <time>2024-06-12T11:13:34Z</time>
      </trkpt>
      <trkpt lat="43.13217" lon="5.78078">
        <ele>14.4</ele>
        <time>2024-06-12T11:13:35Z</time>
      </trkpt>
      <trkpt lat="43.13213" lon="5.7808">
        <ele>14.4</ele>
        <time>2024-06-12T11:13:36Z</time>
      </trkpt>
      <trkpt lat="43.1321" lon="5.78082">
        <ele>14.8</ele>
        <time>2024-06-12T11:13:37Z</time>
      </trkpt>
      <trkpt lat="43.13206" lon="5.78084">
        <ele>15.2</ele>
        <time>2024-06-12T11:13:38Z</time>
      </trkpt>
      <trkpt lat="43.13203" lon="5.78087">
        <ele>15.2</ele>
        <time>2024-06-12T11:13:39Z</time>
      </trkpt>
      <trkpt lat="43.13199" lon="5.78089">
        <ele>15.2</ele>
        <time>2024-06-12T11:13:40Z</time>
      </trkpt>
      <trkpt lat="43.13196" lon="5.78091">
        <ele>16</ele>
        <time>2024-06-12T11:13:41Z</time>
      </trkpt>
      <trkpt lat="43.13192" lon="5.78093">
        <ele>16</ele>
        <time>2024-06-12T11:13:42Z</time>
      </trkpt>
      <trkpt lat="43.13188" lon="5.78095">
        <ele>16.2</ele>
        <time>2024-06-12T11:13:43Z</time>
      </trkpt>
      <trkpt lat="43.13185" lon="5.78097">
        <ele>16.2</ele>
        <time>2024-06-12T11:13:44Z</time>
      </trkpt>
      <trkpt lat="43.13179" lon="5.78101">
        <ele>16.6</ele>
        <time>2024-06-12T11:13:45Z</time>
      </trkpt>
      <trkpt lat="43.13177" lon="5.78102">
        <ele>16.8</ele>
        <time>2024-06-12T11:13:46Z</time>
      </trkpt>
      <trkpt lat="43.1317" lon="5.78106">
        <ele>16.8</ele>
        <time>2024-06-12T11:13:47Z</time>
      </trkpt>
      <trkpt lat="43.13168" lon="5.78107">
        <ele>16.8</ele>
        <time>2024-06-12T11:13:48Z</time>
      </trkpt>
      <trkpt lat="43.13164" lon="5.78109">
        <ele>16.8</ele>
        <time>2024-06-12T11:13:49Z</time>
      </trkpt>
      <trkpt lat="43.13159" lon="5.78112">
        <ele>17</ele>
        <time>2024-06-12T11:13:50Z</time>
      </trkpt>
      <trkpt lat="43.13155" lon="5.78115">
        <ele>17.2</ele>
        <time>2024-06-12T11:13:51Z</time>
      </trkpt>
      <trkpt lat="43.13148" lon="5.78119">
        <ele>17.2</ele>
        <time>2024-06-12T11:13:52Z</time>
      </trkpt>
      <trkpt lat="43.13145" lon="5.78121">
        <ele>17.2</ele>
        <time>2024-06-12T11:13:53Z</time>
      </trkpt>
      <trkpt lat="43.13138" lon="5.78126">
        <ele>18</ele>
        <time>2024-06-12T11:13:54Z</time>
      </trkpt>
      <trkpt lat="43.13136" lon="5.78128">
        <ele>18</ele>
        <time>2024-06-12T11:13:55Z</time>
      </trkpt>
      <trkpt lat="43.13128" lon="5.78133">
        <ele>18</ele>
        <time>2024-06-12T11:13:56Z</time>
      </trkpt>
      <trkpt lat="43.13126" lon="5.78135">
        <ele>18</ele>
        <time>2024-06-12T11:13:57Z</time>
      </trkpt>
      <trkpt lat="43.13118" lon="5.78142">
        <ele>18</ele>
        <time>2024-06-12T11:13:58Z</time>
      </trkpt>
      <trkpt lat="43.13116" lon="5.78144">
        <ele>18.2</ele>
        <time>2024-06-12T11:13:59Z</time>
      </trkpt>
      <trkpt lat="43.13108" lon="5.78151">
        <ele>18.2</ele>
        <time>2024-06-12T11:14:00Z</time>
      </trkpt>
      <trkpt lat="43.13106" lon="5.78153">
        <ele>18.2</ele>
        <time>2024-06-12T11:14:01Z</time>
      </trkpt>
      <trkpt lat="43.13098" lon="5.7816">
        <ele>18.2</ele>
        <time>2024-06-12T11:14:02Z</time>
      </trkpt>
      <trkpt lat="43.13095" lon="5.78163">
        <ele>18.2</ele>
        <time>2024-06-12T11:14:03Z</time>
      </trkpt>
      <trkpt lat="43.1309" lon="5.78168">
        <ele>18.4</ele>
        <time>2024-06-12T11:14:04Z</time>
      </trkpt>
      <trkpt lat="43.13083" lon="5.78175">
        <ele>18.4</ele>
        <time>2024-06-12T11:14:05Z</time>
      </trkpt>
      <trkpt lat="43.1308" lon="5.78177">
        <ele>18.4</ele>
        <time>2024-06-12T11:14:06Z</time>
      </trkpt>
      <trkpt lat="43.13075" lon="5.78182">
        <ele>18.4</ele>
        <time>2024-06-12T11:14:07Z</time>
      </trkpt>
      <trkpt lat="43.1307" lon="5.78187">
        <ele>18.4</ele>
        <time>2024-06-12T11:14:08Z</time>
      </trkpt>
      <trkpt lat="43.13062" lon="5.78194">
        <ele>18.4</ele>
        <time>2024-06-12T11:14:09Z</time>
      </trkpt>
      <trkpt lat="43.13059" lon="5.78196">
        <ele>18.4</ele>
        <time>2024-06-12T11:14:10Z</time>
      </trkpt>
      <trkpt lat="43.13051" lon="5.78204">
        <ele>18.4</ele>
        <time>2024-06-12T11:14:11Z</time>
      </trkpt>
      <trkpt lat="43.13048" lon="5.78207">
        <ele>17.6</ele>
        <time>2024-06-12T11:14:12Z</time>
      </trkpt>
      <trkpt lat="43.1304" lon="5.78215">
        <ele>17.6</ele>
        <time>2024-06-12T11:14:13Z</time>
      </trkpt>
      <trkpt lat="43.13037" lon="5.78217">
        <ele>17.2</ele>
        <time>2024-06-12T11:14:14Z</time>
      </trkpt>
      <trkpt lat="43.13031" lon="5.78223">
        <ele>17.2</ele>
        <time>2024-06-12T11:14:15Z</time>
      </trkpt>
      <trkpt lat="43.13023" lon="5.7823">
        <ele>17.2</ele>
        <time>2024-06-12T11:14:16Z</time>
      </trkpt>
      <trkpt lat="43.13021" lon="5.78233">
        <ele>17.6</ele>
        <time>2024-06-12T11:14:17Z</time>
      </trkpt>
      <trkpt lat="43.13015" lon="5.78238">
        <ele>17.8</ele>
        <time>2024-06-12T11:14:18Z</time>
      </trkpt>
      <trkpt lat="43.1301" lon="5.78243">
        <ele>17.8</ele>
        <time>2024-06-12T11:14:19Z</time>
      </trkpt>
      <trkpt lat="43.13005" lon="5.78248">
        <ele>17.8</ele>
        <time>2024-06-12T11:14:20Z</time>
      </trkpt>
      <trkpt lat="43.12999" lon="5.78253">
        <ele>17.8</ele>
        <time>2024-06-12T11:14:21Z</time>
      </trkpt>
      <trkpt lat="43.12994" lon="5.78258">
        <ele>17.4</ele>
        <time>2024-06-12T11:14:22Z</time>
      </trkpt>
      <trkpt lat="43.12989" lon="5.78263">
        <ele>17.4</ele>
        <time>2024-06-12T11:14:23Z</time>
      </trkpt>
      <trkpt lat="43.12984" lon="5.78268">
        <ele>17.4</ele>
        <time>2024-06-12T11:14:24Z</time>
      </trkpt>
      <trkpt lat="43.12979" lon="5.78272">
        <ele>17.4</ele>
        <time>2024-06-12T11:14:25Z</time>
      </trkpt>
      <trkpt lat="43.12974" lon="5.78277">
        <ele>17.4</ele>
        <time>2024-06-12T11:14:26Z</time>
      </trkpt>
      <trkpt lat="43.1297" lon="5.78282">
        <ele>17.2</ele>
        <time>2024-06-12T11:14:27Z</time>
      </trkpt>
      <trkpt lat="43.12962" lon="5.78289">
        <ele>17.2</ele>
        <time>2024-06-12T11:14:28Z</time>
      </trkpt>
      <trkpt lat="43.1296" lon="5.78291">
        <ele>17.2</ele>
        <time>2024-06-12T11:14:29Z</time>
      </trkpt>
      <trkpt lat="43.12953" lon="5.78298">
        <ele>17.2</ele>
        <time>2024-06-12T11:14:30Z</time>
      </trkpt>
      <trkpt lat="43.12951" lon="5.78301">
        <ele>17.2</ele>
        <time>2024-06-12T11:14:31Z</time>
      </trkpt>
      <trkpt lat="43.12946" lon="5.78306">
        <ele>17.2</ele>
        <time>2024-06-12T11:14:32Z</time>
      </trkpt>
      <trkpt lat="43.12942" lon="5.7831">
        <ele>17.2</ele>
        <time>2024-06-12T11:14:33Z</time>
      </trkpt>
      <trkpt lat="43.12937" lon="5.78313">
        <ele>17.2</ele>
        <time>2024-06-12T11:14:34Z</time>
      </trkpt>
      <trkpt lat="43.12932" lon="5.78316">
        <ele>17.2</ele>
        <time>2024-06-12T11:14:35Z</time>
      </trkpt>
      <trkpt lat="43.12925" lon="5.78321">
        <ele>16.8</ele>
        <time>2024-06-12T11:14:36Z</time>
      </trkpt>
      <trkpt lat="43.12923" lon="5.78323">
        <ele>16.8</ele>
        <time>2024-06-12T11:14:37Z</time>
      </trkpt>
      <trkpt lat="43.12918" lon="5.7833">
        <ele>16.8</ele>
        <time>2024-06-12T11:14:38Z</time>
      </trkpt>
      <trkpt lat="43.12916" lon="5.78332">
        <ele>16.6</ele>
        <time>2024-06-12T11:14:39Z</time>
      </trkpt>
      <trkpt lat="43.12914" lon="5.78336">
        <ele>16.8</ele>
        <time>2024-06-12T11:14:40Z</time>
      </trkpt>
      <trkpt lat="43.12912" lon="5.78338">
        <ele>16.8</ele>
        <time>2024-06-12T11:14:41Z</time>
      </trkpt>
      <trkpt lat="43.12912" lon="5.78336">
        <ele>16.8</ele>
        <time>2024-06-12T11:14:42Z</time>
      </trkpt>
      <trkpt lat="43.12913" lon="5.78334">
        <ele>16.8</ele>
        <time>2024-06-12T11:14:43Z</time>
      </trkpt>
      <trkpt lat="43.12914" lon="5.78332">
        <ele>17.2</ele>
        <time>2024-06-12T11:14:44Z</time>
      </trkpt>
      <trkpt lat="43.12915" lon="5.7833">
        <ele>19.6</ele>
        <time>2024-06-12T11:18:05Z</time>
      </trkpt>
      <trkpt lat="43.12916" lon="5.78328">
        <ele>19.4</ele>
        <time>2024-06-12T11:18:06Z</time>
      </trkpt>
      <trkpt lat="43.12917" lon="5.78326">
        <ele>19.4</ele>
        <time>2024-06-12T11:18:07Z</time>
      </trkpt>
      <trkpt lat="43.12918" lon="5.78323">
        <ele>19.4</ele>
        <time>2024-06-12T11:18:08Z</time>
      </trkpt>
      <trkpt lat="43.12918" lon="5.7832">
        <ele>19.4</ele>
        <time>2024-06-12T11:18:09Z</time>
      </trkpt>
      <trkpt lat="43.12918" lon="5.78318">
        <ele>18.8</ele>
        <time>2024-06-12T11:18:10Z</time>
      </trkpt>
      <trkpt lat="43.12918" lon="5.78314">
        <ele>18.6</ele>
        <time>2024-06-12T11:18:11Z</time>
      </trkpt>
      <trkpt lat="43.12917" lon="5.78312">
        <ele>18.6</ele>
        <time>2024-06-12T11:18:12Z</time>
      </trkpt>
      <trkpt lat="43.12913" lon="5.78307">
        <ele>18.6</ele>
        <time>2024-06-12T11:18:13Z</time>
      </trkpt>
      <trkpt lat="43.12912" lon="5.78306">
        <ele>18.6</ele>
        <time>2024-06-12T11:18:14Z</time>
      </trkpt>
      <trkpt lat="43.12907" lon="5.78304">
        <ele>17.6</ele>
        <time>2024-06-12T11:18:15Z</time>
      </trkpt>
      <trkpt lat="43.12903" lon="5.78302">
        <ele>17.2</ele>
        <time>2024-06-12T11:18:16Z</time>
      </trkpt>
      <trkpt lat="43.12898" lon="5.78299">
        <ele>17.2</ele>
        <time>2024-06-12T11:18:17Z</time>
      </trkpt>
      <trkpt lat="43.12894" lon="5.78296">
        <ele>17.2</ele>
        <time>2024-06-12T11:18:18Z</time>
      </trkpt>
      <trkpt lat="43.12888" lon="5.7829">
        <ele>16.4</ele>
        <time>2024-06-12T11:18:19Z</time>
      </trkpt>
      <trkpt lat="43.12887" lon="5.78288">
        <ele>15.8</ele>
        <time>2024-06-12T11:18:20Z</time>
      </trkpt>
      <trkpt lat="43.12883" lon="5.78282">
        <ele>15.8</ele>
        <time>2024-06-12T11:18:21Z</time>
      </trkpt>
      <trkpt lat="43.12881" lon="5.78279">
        <ele>15.8</ele>
        <time>2024-06-12T11:18:22Z</time>
      </trkpt>
      <trkpt lat="43.12879" lon="5.78275">
        <ele>15.4</ele>
        <time>2024-06-12T11:18:23Z</time>
      </trkpt>
      <trkpt lat="43.12877" lon="5.78272">
        <ele>15.2</ele>
        <time>2024-06-12T11:18:24Z</time>
      </trkpt>
      <trkpt lat="43.12875" lon="5.78268">
        <ele>15.2</ele>
        <time>2024-06-12T11:18:25Z</time>
      </trkpt>
      <trkpt lat="43.12874" lon="5.78264">
        <ele>15.2</ele>
        <time>2024-06-12T11:18:26Z</time>
      </trkpt>
      <trkpt lat="43.12872" lon="5.78261">
        <ele>15.2</ele>
        <time>2024-06-12T11:18:27Z</time>
      </trkpt>
      <trkpt lat="43.12871" lon="5.78258">
        <ele>15.2</ele>
        <time>2024-06-12T11:18:28Z</time>
      </trkpt>
      <trkpt lat="43.12868" lon="5.78252">
        <ele>15</ele>
        <time>2024-06-12T11:18:29Z</time>
      </trkpt>
      <trkpt lat="43.12868" lon="5.78251">
        <ele>15</ele>
        <time>2024-06-12T11:18:30Z</time>
      </trkpt>
      <trkpt lat="43.12867" lon="5.78245">
        <ele>15</ele>
        <time>2024-06-12T11:18:31Z</time>
      </trkpt>
      <trkpt lat="43.12866" lon="5.78244">
        <ele>15</ele>
        <time>2024-06-12T11:18:32Z</time>
      </trkpt>
      <trkpt lat="43.12865" lon="5.78238">
        <ele>15.2</ele>
        <time>2024-06-12T11:18:33Z</time>
      </trkpt>
      <trkpt lat="43.12865" lon="5.78236">
        <ele>15.2</ele>
        <time>2024-06-12T11:18:34Z</time>
      </trkpt>
      <trkpt lat="43.12864" lon="5.78232">
        <ele>15.2</ele>
        <time>2024-06-12T11:18:35Z</time>
      </trkpt>
      <trkpt lat="43.12863" lon="5.78228">
        <ele>15.4</ele>
        <time>2024-06-12T11:18:36Z</time>
      </trkpt>
      <trkpt lat="43.12862" lon="5.78224">
        <ele>15.6</ele>
        <time>2024-06-12T11:18:37Z</time>
      </trkpt>
      <trkpt lat="43.12861" lon="5.7822">
        <ele>15.6</ele>
        <time>2024-06-12T11:18:38Z</time>
      </trkpt>
      <trkpt lat="43.1286" lon="5.78216">
        <ele>15.6</ele>
        <time>2024-06-12T11:18:39Z</time>
      </trkpt>
      <trkpt lat="43.1286" lon="5.78212">
        <ele>15.6</ele>
        <time>2024-06-12T11:18:40Z</time>
      </trkpt>
      <trkpt lat="43.12859" lon="5.78207">
        <ele>15</ele>
        <time>2024-06-12T11:18:41Z</time>
      </trkpt>
      <trkpt lat="43.12858" lon="5.78202">
        <ele>15.4</ele>
        <time>2024-06-12T11:18:42Z</time>
      </trkpt>
      <trkpt lat="43.12858" lon="5.78196">
        <ele>15.4</ele>
        <time>2024-06-12T11:18:43Z</time>
      </trkpt>
      <trkpt lat="43.12857" lon="5.78187">
        <ele>15.4</ele>
        <time>2024-06-12T11:18:44Z</time>
      </trkpt>
      <trkpt lat="43.12857" lon="5.78184">
        <ele>15</ele>
        <time>2024-06-12T11:18:45Z</time>
      </trkpt>
      <trkpt lat="43.12857" lon="5.78175">
        <ele>14.8</ele>
        <time>2024-06-12T11:18:46Z</time>
      </trkpt>
      <trkpt lat="43.12857" lon="5.78173">
        <ele>14.8</ele>
        <time>2024-06-12T11:18:47Z</time>
      </trkpt>
      <trkpt lat="43.12856" lon="5.78167">
        <ele>14.8</ele>
        <time>2024-06-12T11:18:48Z</time>
      </trkpt>
      <trkpt lat="43.12856" lon="5.78161">
        <ele>14.8</ele>
        <time>2024-06-12T11:18:49Z</time>
      </trkpt>
      <trkpt lat="43.12856" lon="5.78155">
        <ele>15.4</ele>
        <time>2024-06-12T11:18:50Z</time>
      </trkpt>
      <trkpt lat="43.12856" lon="5.78149">
        <ele>15.4</ele>
        <time>2024-06-12T11:18:51Z</time>
      </trkpt>
      <trkpt lat="43.12856" lon="5.78143">
        <ele>15</ele>
        <time>2024-06-12T11:18:52Z</time>
      </trkpt>
      <trkpt lat="43.12856" lon="5.78137">
        <ele>15</ele>
        <time>2024-06-12T11:18:53Z</time>
      </trkpt>
      <trkpt lat="43.12855" lon="5.78131">
        <ele>15</ele>
        <time>2024-06-12T11:18:54Z</time>
      </trkpt>
      <trkpt lat="43.12854" lon="5.78125">
        <ele>15</ele>
        <time>2024-06-12T11:18:55Z</time>
      </trkpt>
      <trkpt lat="43.12854" lon="5.78118">
        <ele>15.4</ele>
        <time>2024-06-12T11:18:56Z</time>
      </trkpt>
      <trkpt lat="43.12854" lon="5.78112">
        <ele>15.4</ele>
        <time>2024-06-12T11:18:57Z</time>
      </trkpt>
      <trkpt lat="43.12854" lon="5.78105">
        <ele>15.4</ele>
        <time>2024-06-12T11:18:58Z</time>
      </trkpt>
      <trkpt lat="43.12854" lon="5.78099">
        <ele>15.4</ele>
        <time>2024-06-12T11:18:59Z</time>
      </trkpt>
      <trkpt lat="43.12853" lon="5.78092">
        <ele>15.4</ele>
        <time>2024-06-12T11:19:00Z</time>
      </trkpt>
      <trkpt lat="43.12853" lon="5.78086">
        <ele>15.4</ele>
        <time>2024-06-12T11:19:01Z</time>
      </trkpt>
      <trkpt lat="43.12852" lon="5.78076">
        <ele>15.4</ele>
        <time>2024-06-12T11:19:02Z</time>
      </trkpt>
      <trkpt lat="43.12852" lon="5.78072">
        <ele>15.4</ele>
        <time>2024-06-12T11:19:03Z</time>
      </trkpt>
      <trkpt lat="43.12852" lon="5.78062">
        <ele>14.8</ele>
        <time>2024-06-12T11:19:04Z</time>
      </trkpt>
      <trkpt lat="43.12852" lon="5.78059">
        <ele>14.8</ele>
        <time>2024-06-12T11:19:05Z</time>
      </trkpt>
      <trkpt lat="43.12851" lon="5.78049">
        <ele>14.8</ele>
        <time>2024-06-12T11:19:06Z</time>
      </trkpt>
      <trkpt lat="43.12851" lon="5.78046">
        <ele>14.8</ele>
        <time>2024-06-12T11:19:07Z</time>
      </trkpt>
      <trkpt lat="43.12851" lon="5.78036">
        <ele>14</ele>
        <time>2024-06-12T11:19:08Z</time>
      </trkpt>
      <trkpt lat="43.1285" lon="5.78033">
        <ele>14.6</ele>
        <time>2024-06-12T11:19:09Z</time>
      </trkpt>
      <trkpt lat="43.1285" lon="5.78027">
        <ele>14.6</ele>
        <time>2024-06-12T11:19:10Z</time>
      </trkpt>
      <trkpt lat="43.12851" lon="5.78021">
        <ele>14.6</ele>
        <time>2024-06-12T11:19:11Z</time>
      </trkpt>
      <trkpt lat="43.12851" lon="5.78014">
        <ele>14.6</ele>
        <time>2024-06-12T11:19:12Z</time>
      </trkpt>
      <trkpt lat="43.12851" lon="5.7801">
        <ele>14.2</ele>
        <time>2024-06-12T11:19:13Z</time>
      </trkpt>
      <trkpt lat="43.12851" lon="5.78006">
        <ele>14.6</ele>
        <time>2024-06-12T11:19:14Z</time>
      </trkpt>
      <trkpt lat="43.1285" lon="5.78003">
        <ele>15.8</ele>
        <time>2024-06-12T11:19:28Z</time>
      </trkpt>
      <trkpt lat="43.1285" lon="5.77999">
        <ele>15.8</ele>
        <time>2024-06-12T11:19:29Z</time>
      </trkpt>
      <trkpt lat="43.1285" lon="5.77991">
        <ele>15.8</ele>
        <time>2024-06-12T11:19:30Z</time>
      </trkpt>
      <trkpt lat="43.1285" lon="5.77988">
        <ele>16</ele>
        <time>2024-06-12T11:19:31Z</time>
      </trkpt>
      <trkpt lat="43.12851" lon="5.77981">
        <ele>16</ele>
        <time>2024-06-12T11:19:32Z</time>
      </trkpt>
      <trkpt lat="43.12851" lon="5.77974">
        <ele>16</ele>
        <time>2024-06-12T11:19:33Z</time>
      </trkpt>
      <trkpt lat="43.12852" lon="5.77966">
        <ele>15.6</ele>
        <time>2024-06-12T11:19:34Z</time>
      </trkpt>
      <trkpt lat="43.12852" lon="5.77958">
        <ele>15.6</ele>
        <time>2024-06-12T11:19:35Z</time>
      </trkpt>
      <trkpt lat="43.12852" lon="5.77946">
        <ele>15.6</ele>
        <time>2024-06-12T11:19:36Z</time>
      </trkpt>
      <trkpt lat="43.12852" lon="5.77942">
        <ele>15.6</ele>
        <time>2024-06-12T11:19:37Z</time>
      </trkpt>
      <trkpt lat="43.12851" lon="5.7793">
        <ele>15.6</ele>
        <time>2024-06-12T11:19:38Z</time>
      </trkpt>
      <trkpt lat="43.12851" lon="5.77926">
        <ele>15.6</ele>
        <time>2024-06-12T11:19:39Z</time>
      </trkpt>
      <trkpt lat="43.12849" lon="5.77918">
        <ele>14.6</ele>
        <time>2024-06-12T11:19:40Z</time>
      </trkpt>
      <trkpt lat="43.12847" lon="5.77911">
        <ele>14</ele>
        <time>2024-06-12T11:19:41Z</time>
      </trkpt>
      <trkpt lat="43.12843" lon="5.77904">
        <ele>14</ele>
        <time>2024-06-12T11:19:42Z</time>
      </trkpt>
      <trkpt lat="43.1284" lon="5.77895">
        <ele>14</ele>
        <time>2024-06-12T11:19:43Z</time>
      </trkpt>
      <trkpt lat="43.12835" lon="5.77887">
        <ele>13</ele>
        <time>2024-06-12T11:19:44Z</time>
      </trkpt>
      <trkpt lat="43.12831" lon="5.77879">
        <ele>12.2</ele>
        <time>2024-06-12T11:19:45Z</time>
      </trkpt>
      <trkpt lat="43.12825" lon="5.77865">
        <ele>12.2</ele>
        <time>2024-06-12T11:19:46Z</time>
      </trkpt>
      <trkpt lat="43.12823" lon="5.7786">
        <ele>12.2</ele>
        <time>2024-06-12T11:19:47Z</time>
      </trkpt>
      <trkpt lat="43.12819" lon="5.77851">
        <ele>11.2</ele>
        <time>2024-06-12T11:19:48Z</time>
      </trkpt>
      <trkpt lat="43.12815" lon="5.77841">
        <ele>10</ele>
        <time>2024-06-12T11:19:49Z</time>
      </trkpt>
      <trkpt lat="43.12811" lon="5.77833">
        <ele>10</ele>
        <time>2024-06-12T11:19:50Z</time>
      </trkpt>
      <trkpt lat="43.12806" lon="5.77821">
        <ele>10</ele>
        <time>2024-06-12T11:19:51Z</time>
      </trkpt>
      <trkpt lat="43.12804" lon="5.77818">
        <ele>10</ele>
        <time>2024-06-12T11:19:52Z</time>
      </trkpt>
      <trkpt lat="43.12802" lon="5.77813">
        <ele>9</ele>
        <time>2024-06-12T11:19:53Z</time>
      </trkpt>
      <trkpt lat="43.12799" lon="5.77807">
        <ele>9</ele>
        <time>2024-06-12T11:19:54Z</time>
      </trkpt>
      <trkpt lat="43.12799" lon="5.77805">
        <ele>9</ele>
        <time>2024-06-12T11:19:55Z</time>
      </trkpt>
      <trkpt lat="43.12797" lon="5.778">
        <ele>9</ele>
        <time>2024-06-12T11:19:56Z</time>
      </trkpt>
      <trkpt lat="43.12796" lon="5.77798">
        <ele>8.2</ele>
        <time>2024-06-12T11:19:57Z</time>
      </trkpt>
      <trkpt lat="43.12794" lon="5.77794">
        <ele>7.8</ele>
        <time>2024-06-12T11:19:58Z</time>
      </trkpt>
      <trkpt lat="43.12794" lon="5.77793">
        <ele>7.8</ele>
        <time>2024-06-12T11:19:59Z</time>
      </trkpt>
      <trkpt lat="43.12792" lon="5.77788">
        <ele>7.8</ele>
        <time>2024-06-12T11:20:00Z</time>
      </trkpt>
      <trkpt lat="43.12792" lon="5.77787">
        <ele>7</ele>
        <time>2024-06-12T11:20:01Z</time>
      </trkpt>
      <trkpt lat="43.1279" lon="5.77782">
        <ele>7</ele>
        <time>2024-06-12T11:20:02Z</time>
      </trkpt>
      <trkpt lat="43.1279" lon="5.77781">
        <ele>6.8</ele>
        <time>2024-06-12T11:20:03Z</time>
      </trkpt>
      <trkpt lat="43.12789" lon="5.77778">
        <ele>6.8</ele>
        <time>2024-06-12T11:20:04Z</time>
      </trkpt>
      <trkpt lat="43.12788" lon="5.77775">
        <ele>6.8</ele>
        <time>2024-06-12T11:20:05Z</time>
      </trkpt>
      <trkpt lat="43.12787" lon="5.77774">
        <ele>6.4</ele>
        <time>2024-06-12T11:20:06Z</time>
      </trkpt>
      <trkpt lat="43.12787" lon="5.77769">
        <ele>6.4</ele>
        <time>2024-06-12T11:20:07Z</time>
      </trkpt>
      <trkpt lat="43.12786" lon="5.77768">
        <ele>6.4</ele>
        <time>2024-06-12T11:20:08Z</time>
      </trkpt>
      <trkpt lat="43.12785" lon="5.77764">
        <ele>6.4</ele>
        <time>2024-06-12T11:20:09Z</time>
      </trkpt>
      <trkpt lat="43.12784" lon="5.77763">
        <ele>6.4</ele>
        <time>2024-06-12T11:20:10Z</time>
      </trkpt>
      <trkpt lat="43.12783" lon="5.77761">
        <ele>5.8</ele>
        <time>2024-06-12T11:20:11Z</time>
      </trkpt>
      <trkpt lat="43.12783" lon="5.77758">
        <ele>5.8</ele>
        <time>2024-06-12T11:20:12Z</time>
      </trkpt>
      <trkpt lat="43.12782" lon="5.77756">
        <ele>5.8</ele>
        <time>2024-06-12T11:20:13Z</time>
      </trkpt>
      <trkpt lat="43.12781" lon="5.77753">
        <ele>6</ele>
        <time>2024-06-12T11:20:14Z</time>
      </trkpt>
      <trkpt lat="43.12781" lon="5.77751">
        <ele>6</ele>
        <time>2024-06-12T11:20:15Z</time>
      </trkpt>
      <trkpt lat="43.1278" lon="5.77749">
        <ele>6</ele>
        <time>2024-06-12T11:20:16Z</time>
      </trkpt>
      <trkpt lat="43.12778" lon="5.77745">
        <ele>6</ele>
        <time>2024-06-12T11:20:17Z</time>
      </trkpt>
      <trkpt lat="43.12778" lon="5.77744">
        <ele>6</ele>
        <time>2024-06-12T11:20:18Z</time>
      </trkpt>
      <trkpt lat="43.12777" lon="5.77742">
        <ele>5.6</ele>
        <time>2024-06-12T11:20:19Z</time>
      </trkpt>
      <trkpt lat="43.12776" lon="5.7774">
        <ele>5.6</ele>
        <time>2024-06-12T11:20:20Z</time>
      </trkpt>
      <trkpt lat="43.12775" lon="5.77738">
        <ele>5.6</ele>
        <time>2024-06-12T11:20:21Z</time>
      </trkpt>
      <trkpt lat="43.12774" lon="5.77735">
        <ele>5.6</ele>
        <time>2024-06-12T11:20:22Z</time>
      </trkpt>
      <trkpt lat="43.12774" lon="5.77733">
        <ele>5.6</ele>
        <time>2024-06-12T11:20:23Z</time>
      </trkpt>
      <trkpt lat="43.12774" lon="5.77731">
        <ele>5.6</ele>
        <time>2024-06-12T11:20:24Z</time>
      </trkpt>
      <trkpt lat="43.12774" lon="5.77728">
        <ele>5.6</ele>
        <time>2024-06-12T11:20:25Z</time>
      </trkpt>
      <trkpt lat="43.12773" lon="5.77726">
        <ele>5.6</ele>
        <time>2024-06-12T11:20:26Z</time>
      </trkpt>
      <trkpt lat="43.12772" lon="5.77724">
        <ele>5.6</ele>
        <time>2024-06-12T11:20:27Z</time>
      </trkpt>
      <trkpt lat="43.12771" lon="5.77722">
        <ele>5.6</ele>
        <time>2024-06-12T11:20:28Z</time>
      </trkpt>
      <trkpt lat="43.1277" lon="5.77719">
        <ele>5.6</ele>
        <time>2024-06-12T11:20:29Z</time>
      </trkpt>
      <trkpt lat="43.12769" lon="5.77717">
        <ele>5.6</ele>
        <time>2024-06-12T11:20:30Z</time>
      </trkpt>
      <trkpt lat="43.12768" lon="5.77715">
        <ele>5.6</ele>
        <time>2024-06-12T11:20:31Z</time>
      </trkpt>
      <trkpt lat="43.12766" lon="5.77713">
        <ele>5.6</ele>
        <time>2024-06-12T11:20:32Z</time>
      </trkpt>
      <trkpt lat="43.12765" lon="5.77711">
        <ele>5.4</ele>
        <time>2024-06-12T11:20:33Z</time>
      </trkpt>
      <trkpt lat="43.12763" lon="5.77709">
        <ele>5.6</ele>
        <time>2024-06-12T11:20:34Z</time>
      </trkpt>
      <trkpt lat="43.12762" lon="5.77708">
        <ele>5.6</ele>
        <time>2024-06-12T11:20:35Z</time>
      </trkpt>
      <trkpt lat="43.12761" lon="5.77707">
        <ele>5.6</ele>
        <time>2024-06-12T11:20:36Z</time>
      </trkpt>
      <trkpt lat="43.12759" lon="5.77704">
        <ele>5.6</ele>
        <time>2024-06-12T11:20:37Z</time>
      </trkpt>
      <trkpt lat="43.12758" lon="5.77703">
        <ele>6</ele>
        <time>2024-06-12T11:20:38Z</time>
      </trkpt>
      <trkpt lat="43.12757" lon="5.77701">
        <ele>6.2</ele>
        <time>2024-06-12T11:20:39Z</time>
      </trkpt>
      <trkpt lat="43.12755" lon="5.77699">
        <ele>6.2</ele>
        <time>2024-06-12T11:20:40Z</time>
      </trkpt>
      <trkpt lat="43.12753" lon="5.77696">
        <ele>6.2</ele>
        <time>2024-06-12T11:20:41Z</time>
      </trkpt>
      <trkpt lat="43.12751" lon="5.77694">
        <ele>6.8</ele>
        <time>2024-06-12T11:20:42Z</time>
      </trkpt>
      <trkpt lat="43.1275" lon="5.77691">
        <ele>7</ele>
        <time>2024-06-12T11:20:43Z</time>
      </trkpt>
      <trkpt lat="43.12748" lon="5.77688">
        <ele>7</ele>
        <time>2024-06-12T11:20:44Z</time>
      </trkpt>
      <trkpt lat="43.12746" lon="5.77685">
        <ele>7</ele>
        <time>2024-06-12T11:20:45Z</time>
      </trkpt>
      <trkpt lat="43.12743" lon="5.7768">
        <ele>7.8</ele>
        <time>2024-06-12T11:20:46Z</time>
      </trkpt>
      <trkpt lat="43.12742" lon="5.77679">
        <ele>8</ele>
        <time>2024-06-12T11:20:47Z</time>
      </trkpt>
      <trkpt lat="43.12738" lon="5.77675">
        <ele>8</ele>
        <time>2024-06-12T11:20:48Z</time>
      </trkpt>
      <trkpt lat="43.12737" lon="5.77674">
        <ele>8</ele>
        <time>2024-06-12T11:20:49Z</time>
      </trkpt>
      <trkpt lat="43.12733" lon="5.7767">
        <ele>8</ele>
        <time>2024-06-12T11:20:50Z</time>
      </trkpt>
      <trkpt lat="43.12732" lon="5.77668">
        <ele>8.4</ele>
        <time>2024-06-12T11:20:51Z</time>
      </trkpt>
      <trkpt lat="43.12728" lon="5.77664">
        <ele>8.6</ele>
        <time>2024-06-12T11:20:52Z</time>
      </trkpt>
      <trkpt lat="43.12727" lon="5.77662">
        <ele>8.6</ele>
        <time>2024-06-12T11:20:53Z</time>
      </trkpt>
      <trkpt lat="43.12722" lon="5.77656">
        <ele>8.6</ele>
        <time>2024-06-12T11:20:54Z</time>
      </trkpt>
      <trkpt lat="43.12721" lon="5.77654">
        <ele>8.6</ele>
        <time>2024-06-12T11:20:55Z</time>
      </trkpt>
      <trkpt lat="43.12718" lon="5.7765">
        <ele>9.4</ele>
        <time>2024-06-12T11:20:56Z</time>
      </trkpt>
      <trkpt lat="43.12715" lon="5.77647">
        <ele>9.4</ele>
        <time>2024-06-12T11:20:57Z</time>
      </trkpt>
      <trkpt lat="43.12712" lon="5.77643">
        <ele>9.4</ele>
        <time>2024-06-12T11:20:58Z</time>
      </trkpt>
      <trkpt lat="43.12709" lon="5.77638">
        <ele>9.4</ele>
        <time>2024-06-12T11:20:59Z</time>
      </trkpt>
      <trkpt lat="43.12705" lon="5.77634">
        <ele>8.8</ele>
        <time>2024-06-12T11:21:00Z</time>
      </trkpt>
      <trkpt lat="43.12702" lon="5.77629">
        <ele>8.8</ele>
        <time>2024-06-12T11:21:01Z</time>
      </trkpt>
      <trkpt lat="43.12696" lon="5.77621">
        <ele>8.8</ele>
        <time>2024-06-12T11:21:02Z</time>
      </trkpt>
      <trkpt lat="43.12695" lon="5.77619">
        <ele>8.8</ele>
        <time>2024-06-12T11:21:03Z</time>
      </trkpt>
      <trkpt lat="43.12691" lon="5.77614">
        <ele>8.8</ele>
        <time>2024-06-12T11:21:04Z</time>
      </trkpt>
      <trkpt lat="43.12688" lon="5.77609">
        <ele>9.2</ele>
        <time>2024-06-12T11:21:05Z</time>
      </trkpt>
      <trkpt lat="43.12685" lon="5.77604">
        <ele>9.2</ele>
        <time>2024-06-12T11:21:06Z</time>
      </trkpt>
      <trkpt lat="43.12681" lon="5.77599">
        <ele>9.2</ele>
        <time>2024-06-12T11:21:07Z</time>
      </trkpt>
      <trkpt lat="43.12678" lon="5.77594">
        <ele>9.2</ele>
        <time>2024-06-12T11:21:08Z</time>
      </trkpt>
      <trkpt lat="43.12674" lon="5.77589">
        <ele>8.6</ele>
        <time>2024-06-12T11:21:09Z</time>
      </trkpt>
      <trkpt lat="43.1267" lon="5.77584">
        <ele>8.6</ele>
        <time>2024-06-12T11:21:10Z</time>
      </trkpt>
      <trkpt lat="43.12666" lon="5.77578">
        <ele>8.6</ele>
        <time>2024-06-12T11:21:11Z</time>
      </trkpt>
      <trkpt lat="43.12662" lon="5.77573">
        <ele>8.6</ele>
        <time>2024-06-12T11:21:12Z</time>
      </trkpt>
      <trkpt lat="43.12658" lon="5.77567">
        <ele>8.6</ele>
        <time>2024-06-12T11:21:13Z</time>
      </trkpt>
      <trkpt lat="43.12655" lon="5.77562">
        <ele>8.2</ele>
        <time>2024-06-12T11:21:14Z</time>
      </trkpt>
      <trkpt lat="43.12651" lon="5.77557">
        <ele>8.2</ele>
        <time>2024-06-12T11:21:15Z</time>
      </trkpt>
      <trkpt lat="43.12646" lon="5.7755">
        <ele>8.2</ele>
        <time>2024-06-12T11:21:16Z</time>
      </trkpt>
      <trkpt lat="43.12644" lon="5.77548">
        <ele>8.2</ele>
        <time>2024-06-12T11:21:17Z</time>
      </trkpt>
      <trkpt lat="43.12641" lon="5.77544">
        <ele>8.6</ele>
        <time>2024-06-12T11:21:18Z</time>
      </trkpt>
      <trkpt lat="43.12639" lon="5.77542">
        <ele>8.6</ele>
        <time>2024-06-12T11:21:19Z</time>
      </trkpt>
      <trkpt lat="43.12638" lon="5.77539">
        <ele>8.6</ele>
        <time>2024-06-12T11:21:20Z</time>
      </trkpt>
      <trkpt lat="43.12637" lon="5.77538">
        <ele>8.6</ele>
        <time>2024-06-12T11:21:21Z</time>
      </trkpt>
      <trkpt lat="43.12636" lon="5.77536">
        <ele>9.2</ele>
        <time>2024-06-12T11:21:22Z</time>
      </trkpt>
      <trkpt lat="43.12634" lon="5.77534">
        <ele>9.2</ele>
        <time>2024-06-12T11:21:23Z</time>
      </trkpt>
      <trkpt lat="43.12633" lon="5.77532">
        <ele>9.2</ele>
        <time>2024-06-12T11:21:24Z</time>
      </trkpt>
      <trkpt lat="43.12631" lon="5.7753">
        <ele>9.2</ele>
        <time>2024-06-12T11:21:25Z</time>
      </trkpt>
      <trkpt lat="43.12628" lon="5.77527">
        <ele>9.2</ele>
        <time>2024-06-12T11:21:26Z</time>
      </trkpt>
      <trkpt lat="43.12627" lon="5.77526">
        <ele>9.4</ele>
        <time>2024-06-12T11:21:27Z</time>
      </trkpt>
      <trkpt lat="43.12624" lon="5.77524">
        <ele>9.6</ele>
        <time>2024-06-12T11:21:28Z</time>
      </trkpt>
      <trkpt lat="43.12623" lon="5.77523">
        <ele>9.6</ele>
        <time>2024-06-12T11:21:29Z</time>
      </trkpt>
      <trkpt lat="43.12621" lon="5.7752">
        <ele>9.6</ele>
        <time>2024-06-12T11:21:30Z</time>
      </trkpt>
      <trkpt lat="43.1262" lon="5.77519">
        <ele>10</ele>
        <time>2024-06-12T11:21:31Z</time>
      </trkpt>
      <trkpt lat="43.12618" lon="5.77515">
        <ele>10.2</ele>
        <time>2024-06-12T11:21:32Z</time>
      </trkpt>
      <trkpt lat="43.12617" lon="5.77514">
        <ele>10.2</ele>
        <time>2024-06-12T11:21:33Z</time>
      </trkpt>
      <trkpt lat="43.12615" lon="5.77512">
        <ele>10.2</ele>
        <time>2024-06-12T11:21:34Z</time>
      </trkpt>
      <trkpt lat="43.12613" lon="5.77509">
        <ele>11.2</ele>
        <time>2024-06-12T11:21:35Z</time>
      </trkpt>
      <trkpt lat="43.12611" lon="5.77507">
        <ele>11.6</ele>
        <time>2024-06-12T11:21:36Z</time>
      </trkpt>
      <trkpt lat="43.12609" lon="5.77503">
        <ele>11.6</ele>
        <time>2024-06-12T11:21:37Z</time>
      </trkpt>
      <trkpt lat="43.12606" lon="5.775">
        <ele>11.6</ele>
        <time>2024-06-12T11:21:38Z</time>
      </trkpt>
      <trkpt lat="43.12604" lon="5.77497">
        <ele>11.6</ele>
        <time>2024-06-12T11:21:39Z</time>
      </trkpt>
      <trkpt lat="43.126" lon="5.77493">
        <ele>12</ele>
        <time>2024-06-12T11:21:40Z</time>
      </trkpt>
      <trkpt lat="43.12599" lon="5.77492">
        <ele>12</ele>
        <time>2024-06-12T11:21:41Z</time>
      </trkpt>
      <trkpt lat="43.12595" lon="5.77488">
        <ele>12</ele>
        <time>2024-06-12T11:21:42Z</time>
      </trkpt>
      <trkpt lat="43.12594" lon="5.77487">
        <ele>12</ele>
        <time>2024-06-12T11:21:43Z</time>
      </trkpt>
      <trkpt lat="43.12591" lon="5.77485">
        <ele>12.4</ele>
        <time>2024-06-12T11:21:44Z</time>
      </trkpt>
      <trkpt lat="43.12588" lon="5.77484">
        <ele>12.4</ele>
        <time>2024-06-12T11:21:45Z</time>
      </trkpt>
      <trkpt lat="43.12586" lon="5.77484">
        <ele>12.6</ele>
        <time>2024-06-12T11:21:46Z</time>
      </trkpt>
      <trkpt lat="43.12583" lon="5.77483">
        <ele>12.6</ele>
        <time>2024-06-12T11:21:47Z</time>
      </trkpt>
      <trkpt lat="43.1258" lon="5.77483">
        <ele>12.6</ele>
        <time>2024-06-12T11:21:48Z</time>
      </trkpt>
      <trkpt lat="43.12577" lon="5.77483">
        <ele>12.6</ele>
        <time>2024-06-12T11:21:49Z</time>
      </trkpt>
      <trkpt lat="43.12575" lon="5.77482">
        <ele>12.6</ele>
        <time>2024-06-12T11:21:50Z</time>
      </trkpt>
      <trkpt lat="43.12572" lon="5.77482">
        <ele>12.6</ele>
        <time>2024-06-12T11:21:51Z</time>
      </trkpt>
      <trkpt lat="43.1257" lon="5.77482">
        <ele>12.6</ele>
        <time>2024-06-12T11:21:52Z</time>
      </trkpt>
      <trkpt lat="43.12567" lon="5.77482">
        <ele>12.6</ele>
        <time>2024-06-12T11:21:53Z</time>
      </trkpt>
      <trkpt lat="43.12564" lon="5.77482">
        <ele>12.6</ele>
        <time>2024-06-12T11:21:54Z</time>
      </trkpt>
      <trkpt lat="43.12561" lon="5.77482">
        <ele>12.6</ele>
        <time>2024-06-12T11:21:55Z</time>
      </trkpt>
      <trkpt lat="43.12558" lon="5.77482">
        <ele>12.6</ele>
        <time>2024-06-12T11:21:56Z</time>
      </trkpt>
      <trkpt lat="43.12555" lon="5.77482">
        <ele>12.6</ele>
        <time>2024-06-12T11:21:57Z</time>
      </trkpt>
      <trkpt lat="43.12551" lon="5.77483">
        <ele>12</ele>
        <time>2024-06-12T11:21:58Z</time>
      </trkpt>
      <trkpt lat="43.12547" lon="5.77483">
        <ele>11.8</ele>
        <time>2024-06-12T11:21:59Z</time>
      </trkpt>
      <trkpt lat="43.1254" lon="5.77482">
        <ele>11.8</ele>
        <time>2024-06-12T11:22:00Z</time>
      </trkpt>
      <trkpt lat="43.12537" lon="5.77482">
        <ele>11.8</ele>
        <time>2024-06-12T11:22:01Z</time>
      </trkpt>
      <trkpt lat="43.1253" lon="5.77482">
        <ele>11.8</ele>
        <time>2024-06-12T11:22:02Z</time>
      </trkpt>
      <trkpt lat="43.12528" lon="5.77482">
        <ele>12</ele>
        <time>2024-06-12T11:22:03Z</time>
      </trkpt>
      <trkpt lat="43.12523" lon="5.77482">
        <ele>11.8</ele>
        <time>2024-06-12T11:22:04Z</time>
      </trkpt>
      <trkpt lat="43.12516" lon="5.77482">
        <ele>11.8</ele>
        <time>2024-06-12T11:22:05Z</time>
      </trkpt>
      <trkpt lat="43.12514" lon="5.77482">
        <ele>11.8</ele>
        <time>2024-06-12T11:22:06Z</time>
      </trkpt>
      <trkpt lat="43.12507" lon="5.77481">
        <ele>11.8</ele>
        <time>2024-06-12T11:22:07Z</time>
      </trkpt>
      <trkpt lat="43.12505" lon="5.77481">
        <ele>12.2</ele>
        <time>2024-06-12T11:22:08Z</time>
      </trkpt>
      <trkpt lat="43.12498" lon="5.77481">
        <ele>12.2</ele>
        <time>2024-06-12T11:22:09Z</time>
      </trkpt>
      <trkpt lat="43.12496" lon="5.77481">
        <ele>12.2</ele>
        <time>2024-06-12T11:22:10Z</time>
      </trkpt>
      <trkpt lat="43.12492" lon="5.77486">
        <ele>12.2</ele>
        <time>2024-06-12T11:22:11Z</time>
      </trkpt>
      <trkpt lat="43.12491" lon="5.77488">
        <ele>12.2</ele>
        <time>2024-06-12T11:22:12Z</time>
      </trkpt>
      <trkpt lat="43.1249" lon="5.77495">
        <ele>12.2</ele>
        <time>2024-06-12T11:22:13Z</time>
      </trkpt>
      <trkpt lat="43.1249" lon="5.77498">
        <ele>12.2</ele>
        <time>2024-06-12T11:22:14Z</time>
      </trkpt>
      <trkpt lat="43.1249" lon="5.77503">
        <ele>12.2</ele>
        <time>2024-06-12T11:22:15Z</time>
      </trkpt>
      <trkpt lat="43.1249" lon="5.77507">
        <ele>12.4</ele>
        <time>2024-06-12T11:22:16Z</time>
      </trkpt>
      <trkpt lat="43.1249" lon="5.77511">
        <ele>12.4</ele>
        <time>2024-06-12T11:22:17Z</time>
      </trkpt>
      <trkpt lat="43.1249" lon="5.77514">
        <ele>12.4</ele>
        <time>2024-06-12T11:22:18Z</time>
      </trkpt>
      <trkpt lat="43.1249" lon="5.77518">
        <ele>12.4</ele>
        <time>2024-06-12T11:22:19Z</time>
      </trkpt>
      <trkpt lat="43.12489" lon="5.77521">
        <ele>12.4</ele>
        <time>2024-06-12T11:22:20Z</time>
      </trkpt>
      <trkpt lat="43.1249" lon="5.77525">
        <ele>12.8</ele>
        <time>2024-06-12T11:22:21Z</time>
      </trkpt>
      <trkpt lat="43.1249" lon="5.77528">
        <ele>12.8</ele>
        <time>2024-06-12T11:22:22Z</time>
      </trkpt>
      <trkpt lat="43.1249" lon="5.77531">
        <ele>12.8</ele>
        <time>2024-06-12T11:22:23Z</time>
      </trkpt>
      <trkpt lat="43.12489" lon="5.77536">
        <ele>12.8</ele>
        <time>2024-06-12T11:22:24Z</time>
      </trkpt>
      <trkpt lat="43.12489" lon="5.77538">
        <ele>12.8</ele>
        <time>2024-06-12T11:22:25Z</time>
      </trkpt>
      <trkpt lat="43.12489" lon="5.77541">
        <ele>12.6</ele>
        <time>2024-06-12T11:22:26Z</time>
      </trkpt>
      <trkpt lat="43.12489" lon="5.77545">
        <ele>12.6</ele>
        <time>2024-06-12T11:22:27Z</time>
      </trkpt>
      <trkpt lat="43.12489" lon="5.77548">
        <ele>12.6</ele>
        <time>2024-06-12T11:22:28Z</time>
      </trkpt>
      <trkpt lat="43.1249" lon="5.77552">
        <ele>12.6</ele>
        <time>2024-06-12T11:22:29Z</time>
      </trkpt>
      <trkpt lat="43.1249" lon="5.77555">
        <ele>12.4</ele>
        <time>2024-06-12T11:22:30Z</time>
      </trkpt>
      <trkpt lat="43.1249" lon="5.77558">
        <ele>12.2</ele>
        <time>2024-06-12T11:22:31Z</time>
      </trkpt>
      <trkpt lat="43.1249" lon="5.77562">
        <ele>12.2</ele>
        <time>2024-06-12T11:22:32Z</time>
      </trkpt>
      <trkpt lat="43.1249" lon="5.77565">
        <ele>12.2</ele>
        <time>2024-06-12T11:22:33Z</time>
      </trkpt>
      <trkpt lat="43.12489" lon="5.77568">
        <ele>12.2</ele>
        <time>2024-06-12T11:22:34Z</time>
      </trkpt>
      <trkpt lat="43.12489" lon="5.77571">
        <ele>12.2</ele>
        <time>2024-06-12T11:22:35Z</time>
      </trkpt>
      <trkpt lat="43.12488" lon="5.77574">
        <ele>12.2</ele>
        <time>2024-06-12T11:22:36Z</time>
      </trkpt>
      <trkpt lat="43.12487" lon="5.77577">
        <ele>12.2</ele>
        <time>2024-06-12T11:22:37Z</time>
      </trkpt>
      <trkpt lat="43.12486" lon="5.77578">
        <ele>12.2</ele>
        <time>2024-06-12T11:22:38Z</time>
      </trkpt>
      <trkpt lat="43.12486" lon="5.7758">
        <ele>12</ele>
        <time>2024-06-12T11:22:39Z</time>
      </trkpt>
      <trkpt lat="43.12485" lon="5.7758">
        <ele>12</ele>
        <time>2024-06-12T11:22:40Z</time>
      </trkpt>
      <trkpt lat="43.12485" lon="5.7758">
        <ele>12</ele>
        <time>2024-06-12T11:22:41Z</time>
      </trkpt>
      <trkpt lat="43.1248" lon="5.77583">
        <ele>12.8</ele>
        <time>2024-06-12T11:23:24Z</time>
      </trkpt>
      <trkpt lat="43.12477" lon="5.77584">
        <ele>12.8</ele>
        <time>2024-06-12T11:23:25Z</time>
      </trkpt>
      <trkpt lat="43.12472" lon="5.77586">
        <ele>12.4</ele>
        <time>2024-06-12T11:23:26Z</time>
      </trkpt>
      <trkpt lat="43.12471" lon="5.77587">
        <ele>12.4</ele>
        <time>2024-06-12T11:23:27Z</time>
      </trkpt>
      <trkpt lat="43.12465" lon="5.77589">
        <ele>12.4</ele>
        <time>2024-06-12T11:23:28Z</time>
      </trkpt>
      <trkpt lat="43.12463" lon="5.7759">
        <ele>12.4</ele>
        <time>2024-06-12T11:23:29Z</time>
      </trkpt>
      <trkpt lat="43.12457" lon="5.77593">
        <ele>12.4</ele>
        <time>2024-06-12T11:23:30Z</time>
      </trkpt>
      <trkpt lat="43.12455" lon="5.77594">
        <ele>11.8</ele>
        <time>2024-06-12T11:23:31Z</time>
      </trkpt>
      <trkpt lat="43.12449" lon="5.77598">
        <ele>11.8</ele>
        <time>2024-06-12T11:23:32Z</time>
      </trkpt>
      <trkpt lat="43.12447" lon="5.77599">
        <ele>11.8</ele>
        <time>2024-06-12T11:23:33Z</time>
      </trkpt>
      <trkpt lat="43.1244" lon="5.77603">
        <ele>11.8</ele>
        <time>2024-06-12T11:23:34Z</time>
      </trkpt>
      <trkpt lat="43.12438" lon="5.77604">
        <ele>11.8</ele>
        <time>2024-06-12T11:23:35Z</time>
      </trkpt>
      <trkpt lat="43.12434" lon="5.77607">
        <ele>11.8</ele>
        <time>2024-06-12T11:23:36Z</time>
      </trkpt>
      <trkpt lat="43.12427" lon="5.77612">
        <ele>11.8</ele>
        <time>2024-06-12T11:23:37Z</time>
      </trkpt>
      <trkpt lat="43.12425" lon="5.77613">
        <ele>11.8</ele>
        <time>2024-06-12T11:23:38Z</time>
      </trkpt>
      <trkpt lat="43.1242" lon="5.77617">
        <ele>11.8</ele>
        <time>2024-06-12T11:23:39Z</time>
      </trkpt>
      <trkpt lat="43.12416" lon="5.7762">
        <ele>12</ele>
        <time>2024-06-12T11:23:40Z</time>
      </trkpt>
      <trkpt lat="43.12411" lon="5.77623">
        <ele>12</ele>
        <time>2024-06-12T11:23:41Z</time>
      </trkpt>
      <trkpt lat="43.12406" lon="5.77626">
        <ele>12</ele>
        <time>2024-06-12T11:23:42Z</time>
      </trkpt>
      <trkpt lat="43.12398" lon="5.77631">
        <ele>11.6</ele>
        <time>2024-06-12T11:23:43Z</time>
      </trkpt>
      <trkpt lat="43.12395" lon="5.77633">
        <ele>11.6</ele>
        <time>2024-06-12T11:23:44Z</time>
      </trkpt>
      <trkpt lat="43.12386" lon="5.77638">
        <ele>11.6</ele>
        <time>2024-06-12T11:23:45Z</time>
      </trkpt>
      <trkpt lat="43.12383" lon="5.7764">
        <ele>11.6</ele>
        <time>2024-06-12T11:23:46Z</time>
      </trkpt>
      <trkpt lat="43.12377" lon="5.77644">
        <ele>11.6</ele>
        <time>2024-06-12T11:23:47Z</time>
      </trkpt>
      <trkpt lat="43.12371" lon="5.77648">
        <ele>11.6</ele>
        <time>2024-06-12T11:23:48Z</time>
      </trkpt>
      <trkpt lat="43.12366" lon="5.77653">
        <ele>11.6</ele>
        <time>2024-06-12T11:23:49Z</time>
      </trkpt>
      <trkpt lat="43.1236" lon="5.77658">
        <ele>11</ele>
        <time>2024-06-12T11:23:50Z</time>
      </trkpt>
      <trkpt lat="43.12355" lon="5.77663">
        <ele>11</ele>
        <time>2024-06-12T11:23:51Z</time>
      </trkpt>
      <trkpt lat="43.12349" lon="5.77667">
        <ele>11</ele>
        <time>2024-06-12T11:23:52Z</time>
      </trkpt>
      <trkpt lat="43.1234" lon="5.77674">
        <ele>11.6</ele>
        <time>2024-06-12T11:23:53Z</time>
      </trkpt>
      <trkpt lat="43.12336" lon="5.77676">
        <ele>11.6</ele>
        <time>2024-06-12T11:23:54Z</time>
      </trkpt>
      <trkpt lat="43.1233" lon="5.7768">
        <ele>11.4</ele>
        <time>2024-06-12T11:23:55Z</time>
      </trkpt>
      <trkpt lat="43.12325" lon="5.77684">
        <ele>11.4</ele>
        <time>2024-06-12T11:23:56Z</time>
      </trkpt>
      <trkpt lat="43.12318" lon="5.77687">
        <ele>10.4</ele>
        <time>2024-06-12T11:23:57Z</time>
      </trkpt>
      <trkpt lat="43.12312" lon="5.77692">
        <ele>10.4</ele>
        <time>2024-06-12T11:23:58Z</time>
      </trkpt>
      <trkpt lat="43.12304" lon="5.77699">
        <ele>10</ele>
        <time>2024-06-12T11:23:59Z</time>
      </trkpt>
      <trkpt lat="43.12301" lon="5.77702">
        <ele>10</ele>
        <time>2024-06-12T11:24:00Z</time>
      </trkpt>
      <trkpt lat="43.12293" lon="5.77711">
        <ele>10</ele>
        <time>2024-06-12T11:24:01Z</time>
      </trkpt>
      <trkpt lat="43.12291" lon="5.77714">
        <ele>9</ele>
        <time>2024-06-12T11:24:02Z</time>
      </trkpt>
      <trkpt lat="43.12283" lon="5.77721">
        <ele>7.4</ele>
        <time>2024-06-12T11:24:03Z</time>
      </trkpt>
      <trkpt lat="43.1228" lon="5.77722">
        <ele>7.4</ele>
        <time>2024-06-12T11:24:04Z</time>
      </trkpt>
      <trkpt lat="43.12275" lon="5.77725">
        <ele>7.4</ele>
        <time>2024-06-12T11:24:05Z</time>
      </trkpt>
      <trkpt lat="43.12269" lon="5.77727">
        <ele>6.4</ele>
        <time>2024-06-12T11:24:06Z</time>
      </trkpt>
      <trkpt lat="43.1226" lon="5.77729">
        <ele>6.6</ele>
        <time>2024-06-12T11:24:07Z</time>
      </trkpt>
      <trkpt lat="43.12257" lon="5.7773">
        <ele>6.6</ele>
        <time>2024-06-12T11:24:08Z</time>
      </trkpt>
      <trkpt lat="43.1225" lon="5.77732">
        <ele>6.6</ele>
        <time>2024-06-12T11:24:09Z</time>
      </trkpt>
      <trkpt lat="43.12248" lon="5.77732">
        <ele>6.6</ele>
        <time>2024-06-12T11:24:10Z</time>
      </trkpt>
      <trkpt lat="43.12241" lon="5.77733">
        <ele>5.6</ele>
        <time>2024-06-12T11:24:11Z</time>
      </trkpt>
      <trkpt lat="43.12239" lon="5.77734">
        <ele>4.2</ele>
        <time>2024-06-12T11:24:12Z</time>
      </trkpt>
      <trkpt lat="43.12233" lon="5.77736">
        <ele>4.2</ele>
        <time>2024-06-12T11:24:13Z</time>
      </trkpt>
      <trkpt lat="43.12232" lon="5.77736">
        <ele>4.2</ele>
        <time>2024-06-12T11:24:14Z</time>
      </trkpt>
      <trkpt lat="43.12229" lon="5.77737">
        <ele>4.2</ele>
        <time>2024-06-12T11:24:15Z</time>
      </trkpt>
      <trkpt lat="43.12226" lon="5.77739">
        <ele>4</ele>
        <time>2024-06-12T11:24:16Z</time>
      </trkpt>
      <trkpt lat="43.12224" lon="5.77739">
        <ele>4</ele>
        <time>2024-06-12T11:24:17Z</time>
      </trkpt>
      <trkpt lat="43.12222" lon="5.77739">
        <ele>4</ele>
        <time>2024-06-12T11:24:18Z</time>
      </trkpt>
      <trkpt lat="43.12221" lon="5.77739">
        <ele>3.6</ele>
        <time>2024-06-12T11:24:19Z</time>
      </trkpt>
      <trkpt lat="43.12219" lon="5.77739">
        <ele>3.4</ele>
        <time>2024-06-12T11:24:20Z</time>
      </trkpt>
      <trkpt lat="43.12217" lon="5.7774">
        <ele>3.4</ele>
        <time>2024-06-12T11:24:21Z</time>
      </trkpt>
      <trkpt lat="43.12216" lon="5.7774">
        <ele>3.4</ele>
        <time>2024-06-12T11:24:22Z</time>
      </trkpt>
      <trkpt lat="43.12214" lon="5.77741">
        <ele>3.4</ele>
        <time>2024-06-12T11:24:23Z</time>
      </trkpt>
      <trkpt lat="43.12213" lon="5.77742">
        <ele>3.2</ele>
        <time>2024-06-12T11:24:24Z</time>
      </trkpt>
      <trkpt lat="43.12212" lon="5.77742">
        <ele>3</ele>
        <time>2024-06-12T11:24:25Z</time>
      </trkpt>
      <trkpt lat="43.1221" lon="5.77742">
        <ele>3</ele>
        <time>2024-06-12T11:24:26Z</time>
      </trkpt>
      <trkpt lat="43.12209" lon="5.77743">
        <ele>3</ele>
        <time>2024-06-12T11:24:27Z</time>
      </trkpt>
      <trkpt lat="43.12208" lon="5.77743">
        <ele>3</ele>
        <time>2024-06-12T11:24:28Z</time>
      </trkpt>
      <trkpt lat="43.12208" lon="5.77743">
        <ele>3</ele>
        <time>2024-06-12T11:24:29Z</time>
      </trkpt>
      <trkpt lat="43.12208" lon="5.77743">
        <ele>2.8</ele>
        <time>2024-06-12T11:24:30Z</time>
      </trkpt>
      <trkpt lat="43.12205" lon="5.77745">
        <ele>1.6</ele>
        <time>2024-06-12T11:24:47Z</time>
      </trkpt>
      <trkpt lat="43.12204" lon="5.77745">
        <ele>1.6</ele>
        <time>2024-06-12T11:24:48Z</time>
      </trkpt>
      <trkpt lat="43.12203" lon="5.77745">
        <ele>1.6</ele>
        <time>2024-06-12T11:24:49Z</time>
      </trkpt>
      <trkpt lat="43.12203" lon="5.77745">
        <ele>1.6</ele>
        <time>2024-06-12T11:24:50Z</time>
      </trkpt>
      <trkpt lat="43.12202" lon="5.77746">
        <ele>1.6</ele>
        <time>2024-06-12T11:24:51Z</time>
      </trkpt>
      <trkpt lat="43.12201" lon="5.77746">
        <ele>1.6</ele>
        <time>2024-06-12T11:24:52Z</time>
      </trkpt>
      <trkpt lat="43.122" lon="5.77746">
        <ele>1.6</ele>
        <time>2024-06-12T11:24:53Z</time>
      </trkpt>
      <trkpt lat="43.12199" lon="5.77746">
        <ele>1.6</ele>
        <time>2024-06-12T11:24:54Z</time>
      </trkpt>
      <trkpt lat="43.12198" lon="5.77744">
        <ele>1.6</ele>
        <time>2024-06-12T11:24:55Z</time>
      </trkpt>
      <trkpt lat="43.12197" lon="5.77743">
        <ele>1.6</ele>
        <time>2024-06-12T11:24:56Z</time>
      </trkpt>
      <trkpt lat="43.12196" lon="5.77742">
        <ele>2.2</ele>
        <time>2024-06-12T11:24:57Z</time>
      </trkpt>
      <trkpt lat="43.12195" lon="5.77741">
        <ele>2.2</ele>
        <time>2024-06-12T11:24:58Z</time>
      </trkpt>
      <trkpt lat="43.12193" lon="5.7774">
        <ele>2.2</ele>
        <time>2024-06-12T11:24:59Z</time>
      </trkpt>
      <trkpt lat="43.12192" lon="5.77739">
        <ele>2.6</ele>
        <time>2024-06-12T11:25:00Z</time>
      </trkpt>
      <trkpt lat="43.12191" lon="5.77738">
        <ele>2.6</ele>
        <time>2024-06-12T11:25:01Z</time>
      </trkpt>
      <trkpt lat="43.12189" lon="5.77736">
        <ele>2.8</ele>
        <time>2024-06-12T11:25:02Z</time>
      </trkpt>
      <trkpt lat="43.12188" lon="5.77735">
        <ele>2.8</ele>
        <time>2024-06-12T11:25:03Z</time>
      </trkpt>
      <trkpt lat="43.12187" lon="5.77734">
        <ele>3.2</ele>
        <time>2024-06-12T11:25:04Z</time>
      </trkpt>
      <trkpt lat="43.12186" lon="5.77733">
        <ele>3.4</ele>
        <time>2024-06-12T11:25:05Z</time>
      </trkpt>
      <trkpt lat="43.12186" lon="5.77731">
        <ele>3.4</ele>
        <time>2024-06-12T11:25:06Z</time>
      </trkpt>
      <trkpt lat="43.12185" lon="5.7773">
        <ele>3.4</ele>
        <time>2024-06-12T11:25:07Z</time>
      </trkpt>
      <trkpt lat="43.12184" lon="5.77728">
        <ele>3.4</ele>
        <time>2024-06-12T11:25:08Z</time>
      </trkpt>
      <trkpt lat="43.12183" lon="5.77726">
        <ele>3.4</ele>
        <time>2024-06-12T11:25:09Z</time>
      </trkpt>
      <trkpt lat="43.12182" lon="5.77725">
        <ele>3.6</ele>
        <time>2024-06-12T11:25:10Z</time>
      </trkpt>
      <trkpt lat="43.12181" lon="5.77723">
        <ele>3.6</ele>
        <time>2024-06-12T11:25:11Z</time>
      </trkpt>
      <trkpt lat="43.1218" lon="5.77721">
        <ele>3.6</ele>
        <time>2024-06-12T11:25:12Z</time>
      </trkpt>
      <trkpt lat="43.12179" lon="5.77719">
        <ele>4</ele>
        <time>2024-06-12T11:25:13Z</time>
      </trkpt>
      <trkpt lat="43.12178" lon="5.77718">
        <ele>4</ele>
        <time>2024-06-12T11:25:14Z</time>
      </trkpt>
      <trkpt lat="43.12178" lon="5.77716">
        <ele>4</ele>
        <time>2024-06-12T11:25:15Z</time>
      </trkpt>
      <trkpt lat="43.12177" lon="5.77714">
        <ele>4</ele>
        <time>2024-06-12T11:25:16Z</time>
      </trkpt>
      <trkpt lat="43.12176" lon="5.77712">
        <ele>4</ele>
        <time>2024-06-12T11:25:17Z</time>
      </trkpt>
      <trkpt lat="43.12175" lon="5.77711">
        <ele>4.2</ele>
        <time>2024-06-12T11:25:18Z</time>
      </trkpt>
      <trkpt lat="43.12174" lon="5.77709">
        <ele>4.2</ele>
        <time>2024-06-12T11:25:19Z</time>
      </trkpt>
      <trkpt lat="43.12173" lon="5.77708">
        <ele>4.2</ele>
        <time>2024-06-12T11:25:20Z</time>
      </trkpt>
      <trkpt lat="43.12173" lon="5.77706">
        <ele>4.2</ele>
        <time>2024-06-12T11:25:21Z</time>
      </trkpt>
      <trkpt lat="43.12172" lon="5.77704">
        <ele>4.2</ele>
        <time>2024-06-12T11:25:22Z</time>
      </trkpt>
      <trkpt lat="43.12171" lon="5.77703">
        <ele>4.6</ele>
        <time>2024-06-12T11:25:23Z</time>
      </trkpt>
      <trkpt lat="43.1217" lon="5.77701">
        <ele>4.8</ele>
        <time>2024-06-12T11:25:24Z</time>
      </trkpt>
      <trkpt lat="43.12169" lon="5.777">
        <ele>4.8</ele>
        <time>2024-06-12T11:25:25Z</time>
      </trkpt>
      <trkpt lat="43.12169" lon="5.77698">
        <ele>4.8</ele>
        <time>2024-06-12T11:25:26Z</time>
      </trkpt>
      <trkpt lat="43.12168" lon="5.77697">
        <ele>5.4</ele>
        <time>2024-06-12T11:25:27Z</time>
      </trkpt>
      <trkpt lat="43.12167" lon="5.77696">
        <ele>6</ele>
        <time>2024-06-12T11:25:28Z</time>
      </trkpt>
      <trkpt lat="43.12166" lon="5.77694">
        <ele>6</ele>
        <time>2024-06-12T11:25:29Z</time>
      </trkpt>
      <trkpt lat="43.12166" lon="5.77693">
        <ele>6</ele>
        <time>2024-06-12T11:25:30Z</time>
      </trkpt>
      <trkpt lat="43.12165" lon="5.77691">
        <ele>6</ele>
        <time>2024-06-12T11:25:31Z</time>
      </trkpt>
      <trkpt lat="43.12164" lon="5.7769">
        <ele>6.8</ele>
        <time>2024-06-12T11:25:32Z</time>
      </trkpt>
      <trkpt lat="43.12163" lon="5.77689">
        <ele>7.2</ele>
        <time>2024-06-12T11:25:33Z</time>
      </trkpt>
      <trkpt lat="43.12163" lon="5.77688">
        <ele>7.2</ele>
        <time>2024-06-12T11:25:34Z</time>
      </trkpt>
      <trkpt lat="43.12162" lon="5.77687">
        <ele>7.2</ele>
        <time>2024-06-12T11:25:35Z</time>
      </trkpt>
      <trkpt lat="43.12162" lon="5.77686">
        <ele>8.2</ele>
        <time>2024-06-12T11:25:36Z</time>
      </trkpt>
      <trkpt lat="43.12161" lon="5.77684">
        <ele>8.6</ele>
        <time>2024-06-12T11:25:37Z</time>
      </trkpt>
      <trkpt lat="43.1216" lon="5.77683">
        <ele>8.6</ele>
        <time>2024-06-12T11:25:38Z</time>
      </trkpt>
      <trkpt lat="43.12159" lon="5.77682">
        <ele>8.6</ele>
        <time>2024-06-12T11:25:39Z</time>
      </trkpt>
      <trkpt lat="43.12159" lon="5.77681">
        <ele>9.6</ele>
        <time>2024-06-12T11:25:40Z</time>
      </trkpt>
      <trkpt lat="43.12157" lon="5.7768">
        <ele>10</ele>
        <time>2024-06-12T11:25:41Z</time>
      </trkpt>
      <trkpt lat="43.12156" lon="5.77679">
        <ele>10</ele>
        <time>2024-06-12T11:25:42Z</time>
      </trkpt>
      <trkpt lat="43.12155" lon="5.77678">
        <ele>10</ele>
        <time>2024-06-12T11:25:43Z</time>
      </trkpt>
      <trkpt lat="43.12154" lon="5.77677">
        <ele>10</ele>
        <time>2024-06-12T11:25:44Z</time>
      </trkpt>
      <trkpt lat="43.12153" lon="5.77675">
        <ele>11</ele>
        <time>2024-06-12T11:25:45Z</time>
      </trkpt>
      <trkpt lat="43.12151" lon="5.77674">
        <ele>11.4</ele>
        <time>2024-06-12T11:25:46Z</time>
      </trkpt>
      <trkpt lat="43.1215" lon="5.77673">
        <ele>11.4</ele>
        <time>2024-06-12T11:25:47Z</time>
      </trkpt>
      <trkpt lat="43.12149" lon="5.77671">
        <ele>11.4</ele>
        <time>2024-06-12T11:25:48Z</time>
      </trkpt>
      <trkpt lat="43.12148" lon="5.7767">
        <ele>11.8</ele>
        <time>2024-06-12T11:25:49Z</time>
      </trkpt>
      <trkpt lat="43.12147" lon="5.77669">
        <ele>12.2</ele>
        <time>2024-06-12T11:25:50Z</time>
      </trkpt>
      <trkpt lat="43.12145" lon="5.77668">
        <ele>12.2</ele>
        <time>2024-06-12T11:25:51Z</time>
      </trkpt>
      <trkpt lat="43.12144" lon="5.77667">
        <ele>12.2</ele>
        <time>2024-06-12T11:25:52Z</time>
      </trkpt>
      <trkpt lat="43.12142" lon="5.77666">
        <ele>12.6</ele>
        <time>2024-06-12T11:25:53Z</time>
      </trkpt>
      <trkpt lat="43.12141" lon="5.77665">
        <ele>12.6</ele>
        <time>2024-06-12T11:25:54Z</time>
      </trkpt>
      <trkpt lat="43.12139" lon="5.77664">
        <ele>13</ele>
        <time>2024-06-12T11:25:55Z</time>
      </trkpt>
      <trkpt lat="43.12137" lon="5.77663">
        <ele>13</ele>
        <time>2024-06-12T11:25:56Z</time>
      </trkpt>
      <trkpt lat="43.12136" lon="5.77662">
        <ele>13</ele>
        <time>2024-06-12T11:25:57Z</time>
      </trkpt>
      <trkpt lat="43.12134" lon="5.77661">
        <ele>13</ele>
        <time>2024-06-12T11:25:58Z</time>
      </trkpt>
      <trkpt lat="43.12133" lon="5.7766">
        <ele>13.4</ele>
        <time>2024-06-12T11:25:59Z</time>
      </trkpt>
      <trkpt lat="43.12131" lon="5.7766">
        <ele>13.4</ele>
        <time>2024-06-12T11:26:00Z</time>
      </trkpt>
      <trkpt lat="43.12129" lon="5.77659">
        <ele>13.4</ele>
        <time>2024-06-12T11:26:01Z</time>
      </trkpt>
      <trkpt lat="43.12127" lon="5.77659">
        <ele>13.8</ele>
        <time>2024-06-12T11:26:02Z</time>
      </trkpt>
      <trkpt lat="43.12126" lon="5.77659">
        <ele>13.8</ele>
        <time>2024-06-12T11:26:03Z</time>
      </trkpt>
      <trkpt lat="43.12124" lon="5.77658">
        <ele>13.8</ele>
        <time>2024-06-12T11:26:04Z</time>
      </trkpt>
      <trkpt lat="43.12123" lon="5.77658">
        <ele>13.8</ele>
        <time>2024-06-12T11:26:05Z</time>
      </trkpt>
      <trkpt lat="43.12121" lon="5.77658">
        <ele>13.8</ele>
        <time>2024-06-12T11:26:06Z</time>
      </trkpt>
      <trkpt lat="43.1212" lon="5.77658">
        <ele>13.8</ele>
        <time>2024-06-12T11:26:07Z</time>
      </trkpt>
      <trkpt lat="43.12118" lon="5.77658">
        <ele>13.8</ele>
        <time>2024-06-12T11:26:08Z</time>
      </trkpt>
      <trkpt lat="43.12116" lon="5.77659">
        <ele>14</ele>
        <time>2024-06-12T11:26:09Z</time>
      </trkpt>
      <trkpt lat="43.12114" lon="5.77659">
        <ele>14</ele>
        <time>2024-06-12T11:26:10Z</time>
      </trkpt>
      <trkpt lat="43.12113" lon="5.77659">
        <ele>14</ele>
        <time>2024-06-12T11:26:11Z</time>
      </trkpt>
      <trkpt lat="43.12111" lon="5.77659">
        <ele>14</ele>
        <time>2024-06-12T11:26:12Z</time>
      </trkpt>
      <trkpt lat="43.12109" lon="5.7766">
        <ele>14</ele>
        <time>2024-06-12T11:26:13Z</time>
      </trkpt>
      <trkpt lat="43.12107" lon="5.7766">
        <ele>14</ele>
        <time>2024-06-12T11:26:14Z</time>
      </trkpt>
      <trkpt lat="43.12105" lon="5.7766">
        <ele>14</ele>
        <time>2024-06-12T11:26:15Z</time>
      </trkpt>
      <trkpt lat="43.12103" lon="5.77661">
        <ele>14</ele>
        <time>2024-06-12T11:26:16Z</time>
      </trkpt>
      <trkpt lat="43.121" lon="5.77661">
        <ele>14</ele>
        <time>2024-06-12T11:26:17Z</time>
      </trkpt>
      <trkpt lat="43.12098" lon="5.77662">
        <ele>14.2</ele>
        <time>2024-06-12T11:26:18Z</time>
      </trkpt>
      <trkpt lat="43.12095" lon="5.77663">
        <ele>14.2</ele>
        <time>2024-06-12T11:26:19Z</time>
      </trkpt>
      <trkpt lat="43.12093" lon="5.77664">
        <ele>14.2</ele>
        <time>2024-06-12T11:26:20Z</time>
      </trkpt>
      <trkpt lat="43.12091" lon="5.77666">
        <ele>14.4</ele>
        <time>2024-06-12T11:26:21Z</time>
      </trkpt>
      <trkpt lat="43.1209" lon="5.77668">
        <ele>14.4</ele>
        <time>2024-06-12T11:26:22Z</time>
      </trkpt>
      <trkpt lat="43.12088" lon="5.77671">
        <ele>14.4</ele>
        <time>2024-06-12T11:26:23Z</time>
      </trkpt>
      <trkpt lat="43.12088" lon="5.77673">
        <ele>14.4</ele>
        <time>2024-06-12T11:26:24Z</time>
      </trkpt>
      <trkpt lat="43.12086" lon="5.77678">
        <ele>14.4</ele>
        <time>2024-06-12T11:26:25Z</time>
      </trkpt>
      <trkpt lat="43.12086" lon="5.77679">
        <ele>14.6</ele>
        <time>2024-06-12T11:26:26Z</time>
      </trkpt>
      <trkpt lat="43.12085" lon="5.77683">
        <ele>14.6</ele>
        <time>2024-06-12T11:26:27Z</time>
      </trkpt>
      <trkpt lat="43.12084" lon="5.77684">
        <ele>14.6</ele>
        <time>2024-06-12T11:26:28Z</time>
      </trkpt>
      <trkpt lat="43.12083" lon="5.77688">
        <ele>14.6</ele>
        <time>2024-06-12T11:26:29Z</time>
      </trkpt>
      <trkpt lat="43.12083" lon="5.7769">
        <ele>14.8</ele>
        <time>2024-06-12T11:26:30Z</time>
      </trkpt>
      <trkpt lat="43.12082" lon="5.77694">
        <ele>14.8</ele>
        <time>2024-06-12T11:26:31Z</time>
      </trkpt>
      <trkpt lat="43.12081" lon="5.77695">
        <ele>14.8</ele>
        <time>2024-06-12T11:26:32Z</time>
      </trkpt>
      <trkpt lat="43.1208" lon="5.77699">
        <ele>14.8</ele>
        <time>2024-06-12T11:26:33Z</time>
      </trkpt>
      <trkpt lat="43.12079" lon="5.777">
        <ele>14.8</ele>
        <time>2024-06-12T11:26:34Z</time>
      </trkpt>
      <trkpt lat="43.12078" lon="5.77702">
        <ele>14.6</ele>
        <time>2024-06-12T11:26:35Z</time>
      </trkpt>
      <trkpt lat="43.12077" lon="5.77704">
        <ele>14.6</ele>
        <time>2024-06-12T11:26:36Z</time>
      </trkpt>
      <trkpt lat="43.12076" lon="5.77706">
        <ele>14.6</ele>
        <time>2024-06-12T11:26:37Z</time>
      </trkpt>
      <trkpt lat="43.12075" lon="5.77708">
        <ele>15.2</ele>
        <time>2024-06-12T11:26:38Z</time>
      </trkpt>
      <trkpt lat="43.12074" lon="5.7771">
        <ele>15.4</ele>
        <time>2024-06-12T11:26:39Z</time>
      </trkpt>
      <trkpt lat="43.12073" lon="5.77711">
        <ele>15.4</ele>
        <time>2024-06-12T11:26:40Z</time>
      </trkpt>
      <trkpt lat="43.12072" lon="5.77713">
        <ele>15.4</ele>
        <time>2024-06-12T11:26:41Z</time>
      </trkpt>
      <trkpt lat="43.12071" lon="5.77715">
        <ele>15.4</ele>
        <time>2024-06-12T11:26:42Z</time>
      </trkpt>
      <trkpt lat="43.12071" lon="5.77717">
        <ele>15.2</ele>
        <time>2024-06-12T11:26:43Z</time>
      </trkpt>
      <trkpt lat="43.1207" lon="5.7772">
        <ele>15.2</ele>
        <time>2024-06-12T11:26:44Z</time>
      </trkpt>
      <trkpt lat="43.1207" lon="5.77721">
        <ele>15.2</ele>
        <time>2024-06-12T11:26:45Z</time>
      </trkpt>
      <trkpt lat="43.1207" lon="5.77724">
        <ele>15.2</ele>
        <time>2024-06-12T11:26:46Z</time>
      </trkpt>
      <trkpt lat="43.12069" lon="5.77727">
        <ele>15.2</ele>
        <time>2024-06-12T11:26:47Z</time>
      </trkpt>
      <trkpt lat="43.12068" lon="5.77729">
        <ele>16</ele>
        <time>2024-06-12T11:26:48Z</time>
      </trkpt>
      <trkpt lat="43.12067" lon="5.77731">
        <ele>16.4</ele>
        <time>2024-06-12T11:26:49Z</time>
      </trkpt>
      <trkpt lat="43.12066" lon="5.77733">
        <ele>16.4</ele>
        <time>2024-06-12T11:26:50Z</time>
      </trkpt>
      <trkpt lat="43.12066" lon="5.77735">
        <ele>16.4</ele>
        <time>2024-06-12T11:26:51Z</time>
      </trkpt>
      <trkpt lat="43.12066" lon="5.77737">
        <ele>16.4</ele>
        <time>2024-06-12T11:26:52Z</time>
      </trkpt>
      <trkpt lat="43.12066" lon="5.77739">
        <ele>15.8</ele>
        <time>2024-06-12T11:26:53Z</time>
      </trkpt>
      <trkpt lat="43.12065" lon="5.77742">
        <ele>16.2</ele>
        <time>2024-06-12T11:26:54Z</time>
      </trkpt>
      <trkpt lat="43.12065" lon="5.77744">
        <ele>16.2</ele>
        <time>2024-06-12T11:26:55Z</time>
      </trkpt>
      <trkpt lat="43.12064" lon="5.77746">
        <ele>16.2</ele>
        <time>2024-06-12T11:26:56Z</time>
      </trkpt>
      <trkpt lat="43.12064" lon="5.77749">
        <ele>16.2</ele>
        <time>2024-06-12T11:26:57Z</time>
      </trkpt>
      <trkpt lat="43.12064" lon="5.77751">
        <ele>16.2</ele>
        <time>2024-06-12T11:26:58Z</time>
      </trkpt>
      <trkpt lat="43.12063" lon="5.77754">
        <ele>16.4</ele>
        <time>2024-06-12T11:26:59Z</time>
      </trkpt>
      <trkpt lat="43.12062" lon="5.77756">
        <ele>16.4</ele>
        <time>2024-06-12T11:27:00Z</time>
      </trkpt>
      <trkpt lat="43.12062" lon="5.77758">
        <ele>17.4</ele>
        <time>2024-06-12T11:27:01Z</time>
      </trkpt>
      <trkpt lat="43.12061" lon="5.77761">
        <ele>17.4</ele>
        <time>2024-06-12T11:27:02Z</time>
      </trkpt>
      <trkpt lat="43.1206" lon="5.77763">
        <ele>16.8</ele>
        <time>2024-06-12T11:27:03Z</time>
      </trkpt>
      <trkpt lat="43.12059" lon="5.77764">
        <ele>16.8</ele>
        <time>2024-06-12T11:27:04Z</time>
      </trkpt>
      <trkpt lat="43.12057" lon="5.77767">
        <ele>16.8</ele>
        <time>2024-06-12T11:27:05Z</time>
      </trkpt>
      <trkpt lat="43.12056" lon="5.77768">
        <ele>17.6</ele>
        <time>2024-06-12T11:27:06Z</time>
      </trkpt>
      <trkpt lat="43.12054" lon="5.77771">
        <ele>17.8</ele>
        <time>2024-06-12T11:27:07Z</time>
      </trkpt>
      <trkpt lat="43.12053" lon="5.77772">
        <ele>17.8</ele>
        <time>2024-06-12T11:27:08Z</time>
      </trkpt>
      <trkpt lat="43.12052" lon="5.77775">
        <ele>17.8</ele>
        <time>2024-06-12T11:27:09Z</time>
      </trkpt>
      <trkpt lat="43.12051" lon="5.77777">
        <ele>18.2</ele>
        <time>2024-06-12T11:27:10Z</time>
      </trkpt>
      <trkpt lat="43.1205" lon="5.7778">
        <ele>18.2</ele>
        <time>2024-06-12T11:27:11Z</time>
      </trkpt>
      <trkpt lat="43.12049" lon="5.77782">
        <ele>18.2</ele>
        <time>2024-06-12T11:27:12Z</time>
      </trkpt>
      <trkpt lat="43.12048" lon="5.77784">
        <ele>18.2</ele>
        <time>2024-06-12T11:27:13Z</time>
      </trkpt>
      <trkpt lat="43.12047" lon="5.77786">
        <ele>18.6</ele>
        <time>2024-06-12T11:27:14Z</time>
      </trkpt>
      <trkpt lat="43.12047" lon="5.77788">
        <ele>18.2</ele>
        <time>2024-06-12T11:27:15Z</time>
      </trkpt>
      <trkpt lat="43.12046" lon="5.77791">
        <ele>18.2</ele>
        <time>2024-06-12T11:27:16Z</time>
      </trkpt>
      <trkpt lat="43.12046" lon="5.77793">
        <ele>18.2</ele>
        <time>2024-06-12T11:27:17Z</time>
      </trkpt>
      <trkpt lat="43.12046" lon="5.77795">
        <ele>18.2</ele>
        <time>2024-06-12T11:27:18Z</time>
      </trkpt>
      <trkpt lat="43.12046" lon="5.77797">
        <ele>18.8</ele>
        <time>2024-06-12T11:27:19Z</time>
      </trkpt>
      <trkpt lat="43.12046" lon="5.77798">
        <ele>18.8</ele>
        <time>2024-06-12T11:27:20Z</time>
      </trkpt>
      <trkpt lat="43.12047" lon="5.778">
        <ele>18.8</ele>
        <time>2024-06-12T11:27:21Z</time>
      </trkpt>
      <trkpt lat="43.12048" lon="5.77801">
        <ele>18.8</ele>
        <time>2024-06-12T11:27:22Z</time>
      </trkpt>
      <trkpt lat="43.12049" lon="5.77803">
        <ele>19.6</ele>
        <time>2024-06-12T11:27:23Z</time>
      </trkpt>
      <trkpt lat="43.1205" lon="5.77805">
        <ele>20</ele>
        <time>2024-06-12T11:27:24Z</time>
      </trkpt>
      <trkpt lat="43.12051" lon="5.77807">
        <ele>20</ele>
        <time>2024-06-12T11:27:25Z</time>
      </trkpt>
      <trkpt lat="43.12051" lon="5.77808">
        <ele>20</ele>
        <time>2024-06-12T11:27:26Z</time>
      </trkpt>
      <trkpt lat="43.12053" lon="5.77809">
        <ele>21</ele>
        <time>2024-06-12T11:27:27Z</time>
      </trkpt>
      <trkpt lat="43.12054" lon="5.7781">
        <ele>21.6</ele>
        <time>2024-06-12T11:27:28Z</time>
      </trkpt>
      <trkpt lat="43.12055" lon="5.77811">
        <ele>21.6</ele>
        <time>2024-06-12T11:27:29Z</time>
      </trkpt>
      <trkpt lat="43.12056" lon="5.77812">
        <ele>21.6</ele>
        <time>2024-06-12T11:27:30Z</time>
      </trkpt>
      <trkpt lat="43.12057" lon="5.77813">
        <ele>21.6</ele>
        <time>2024-06-12T11:27:31Z</time>
      </trkpt>
      <trkpt lat="43.12058" lon="5.77815">
        <ele>22.6</ele>
        <time>2024-06-12T11:27:32Z</time>
      </trkpt>
      <trkpt lat="43.12059" lon="5.77817">
        <ele>23.2</ele>
        <time>2024-06-12T11:27:33Z</time>
      </trkpt>
      <trkpt lat="43.12059" lon="5.77819">
        <ele>23.2</ele>
        <time>2024-06-12T11:27:34Z</time>
      </trkpt>
      <trkpt lat="43.12059" lon="5.77821">
        <ele>23.2</ele>
        <time>2024-06-12T11:27:35Z</time>
      </trkpt>
      <trkpt lat="43.12059" lon="5.77823">
        <ele>23.2</ele>
        <time>2024-06-12T11:27:36Z</time>
      </trkpt>
      <trkpt lat="43.12059" lon="5.77825">
        <ele>24.2</ele>
        <time>2024-06-12T11:27:37Z</time>
      </trkpt>
      <trkpt lat="43.12059" lon="5.77828">
        <ele>24.8</ele>
        <time>2024-06-12T11:27:38Z</time>
      </trkpt>
      <trkpt lat="43.1206" lon="5.7783">
        <ele>24.8</ele>
        <time>2024-06-12T11:27:39Z</time>
      </trkpt>
      <trkpt lat="43.12059" lon="5.77832">
        <ele>24.8</ele>
        <time>2024-06-12T11:27:40Z</time>
      </trkpt>
      <trkpt lat="43.1206" lon="5.77834">
        <ele>24.8</ele>
        <time>2024-06-12T11:27:41Z</time>
      </trkpt>
      <trkpt lat="43.1206" lon="5.77836">
        <ele>26.4</ele>
        <time>2024-06-12T11:27:42Z</time>
      </trkpt>
      <trkpt lat="43.1206" lon="5.77838">
        <ele>26.4</ele>
        <time>2024-06-12T11:27:43Z</time>
      </trkpt>
      <trkpt lat="43.12061" lon="5.7784">
        <ele>26.4</ele>
        <time>2024-06-12T11:27:44Z</time>
      </trkpt>
      <trkpt lat="43.12061" lon="5.77842">
        <ele>27.4</ele>
        <time>2024-06-12T11:27:45Z</time>
      </trkpt>
      <trkpt lat="43.12061" lon="5.77844">
        <ele>27.4</ele>
        <time>2024-06-12T11:27:46Z</time>
      </trkpt>
      <trkpt lat="43.12061" lon="5.77846">
        <ele>28.2</ele>
        <time>2024-06-12T11:27:47Z</time>
      </trkpt>
      <trkpt lat="43.12062" lon="5.77848">
        <ele>28.2</ele>
        <time>2024-06-12T11:27:48Z</time>
      </trkpt>
      <trkpt lat="43.12063" lon="5.7785">
        <ele>28.2</ele>
        <time>2024-06-12T11:27:49Z</time>
      </trkpt>
      <trkpt lat="43.12063" lon="5.77852">
        <ele>29.2</ele>
        <time>2024-06-12T11:27:50Z</time>
      </trkpt>
      <trkpt lat="43.12063" lon="5.77854">
        <ele>29.6</ele>
        <time>2024-06-12T11:27:51Z</time>
      </trkpt>
      <trkpt lat="43.12063" lon="5.77856">
        <ele>29.6</ele>
        <time>2024-06-12T11:27:52Z</time>
      </trkpt>
      <trkpt lat="43.12064" lon="5.77858">
        <ele>29.6</ele>
        <time>2024-06-12T11:27:53Z</time>
      </trkpt>
      <trkpt lat="43.12064" lon="5.7786">
        <ele>30.4</ele>
        <time>2024-06-12T11:27:54Z</time>
      </trkpt>
      <trkpt lat="43.12064" lon="5.77864">
        <ele>30.6</ele>
        <time>2024-06-12T11:27:55Z</time>
      </trkpt>
      <trkpt lat="43.12064" lon="5.77865">
        <ele>30.6</ele>
        <time>2024-06-12T11:27:56Z</time>
      </trkpt>
      <trkpt lat="43.12065" lon="5.7787">
        <ele>30.6</ele>
        <time>2024-06-12T11:27:57Z</time>
      </trkpt>
      <trkpt lat="43.12066" lon="5.77872">
        <ele>30.6</ele>
        <time>2024-06-12T11:27:58Z</time>
      </trkpt>
      <trkpt lat="43.12066" lon="5.77877">
        <ele>30.8</ele>
        <time>2024-06-12T11:27:59Z</time>
      </trkpt>
      <trkpt lat="43.12066" lon="5.77878">
        <ele>31</ele>
        <time>2024-06-12T11:28:00Z</time>
      </trkpt>
      <trkpt lat="43.12067" lon="5.77882">
        <ele>31</ele>
        <time>2024-06-12T11:28:01Z</time>
      </trkpt>
      <trkpt lat="43.12067" lon="5.77888">
        <ele>31</ele>
        <time>2024-06-12T11:28:02Z</time>
      </trkpt>
      <trkpt lat="43.12068" lon="5.77889">
        <ele>31</ele>
        <time>2024-06-12T11:28:03Z</time>
      </trkpt>
      <trkpt lat="43.12068" lon="5.77893">
        <ele>31.6</ele>
        <time>2024-06-12T11:28:04Z</time>
      </trkpt>
      <trkpt lat="43.12069" lon="5.77897">
        <ele>31.6</ele>
        <time>2024-06-12T11:28:05Z</time>
      </trkpt>
      <trkpt lat="43.12069" lon="5.77901">
        <ele>31.6</ele>
        <time>2024-06-12T11:28:06Z</time>
      </trkpt>
      <trkpt lat="43.1207" lon="5.77906">
        <ele>31</ele>
        <time>2024-06-12T11:28:07Z</time>
      </trkpt>
      <trkpt lat="43.12071" lon="5.77913">
        <ele>30.8</ele>
        <time>2024-06-12T11:28:08Z</time>
      </trkpt>
      <trkpt lat="43.12071" lon="5.77916">
        <ele>30.8</ele>
        <time>2024-06-12T11:28:09Z</time>
      </trkpt>
      <trkpt lat="43.12072" lon="5.77924">
        <ele>30.8</ele>
        <time>2024-06-12T11:28:10Z</time>
      </trkpt>
      <trkpt lat="43.12072" lon="5.77927">
        <ele>30.8</ele>
        <time>2024-06-12T11:28:11Z</time>
      </trkpt>
      <trkpt lat="43.12074" lon="5.77936">
        <ele>30.8</ele>
        <time>2024-06-12T11:28:12Z</time>
      </trkpt>
      <trkpt lat="43.12074" lon="5.77939">
        <ele>30.8</ele>
        <time>2024-06-12T11:28:13Z</time>
      </trkpt>
      <trkpt lat="43.12076" lon="5.77949">
        <ele>31</ele>
        <time>2024-06-12T11:28:14Z</time>
      </trkpt>
      <trkpt lat="43.12076" lon="5.77952">
        <ele>31</ele>
        <time>2024-06-12T11:28:15Z</time>
      </trkpt>
      <trkpt lat="43.12077" lon="5.77959">
        <ele>31</ele>
        <time>2024-06-12T11:28:16Z</time>
      </trkpt>
      <trkpt lat="43.12078" lon="5.77967">
        <ele>30.8</ele>
        <time>2024-06-12T11:28:17Z</time>
      </trkpt>
      <trkpt lat="43.1208" lon="5.77974">
        <ele>30.8</ele>
        <time>2024-06-12T11:28:18Z</time>
      </trkpt>
      <trkpt lat="43.12081" lon="5.77982">
        <ele>30</ele>
        <time>2024-06-12T11:28:19Z</time>
      </trkpt>
      <trkpt lat="43.12082" lon="5.77993">
        <ele>30</ele>
        <time>2024-06-12T11:28:20Z</time>
      </trkpt>
      <trkpt lat="43.12083" lon="5.77996">
        <ele>30</ele>
        <time>2024-06-12T11:28:21Z</time>
      </trkpt>
      <trkpt lat="43.12083" lon="5.78002">
        <ele>30.8</ele>
        <time>2024-06-12T11:28:22Z</time>
      </trkpt>
      <trkpt lat="43.12084" lon="5.78006">
        <ele>30.8</ele>
        <time>2024-06-12T11:28:23Z</time>
      </trkpt>
      <trkpt lat="43.12084" lon="5.78009">
        <ele>30.8</ele>
        <time>2024-06-12T11:28:24Z</time>
      </trkpt>
      <trkpt lat="43.12085" lon="5.78012">
        <ele>30.8</ele>
        <time>2024-06-12T11:28:25Z</time>
      </trkpt>
      <trkpt lat="43.12085" lon="5.78014">
        <ele>30.6</ele>
        <time>2024-06-12T11:28:26Z</time>
      </trkpt>
      <trkpt lat="43.12085" lon="5.78016">
        <ele>31</ele>
        <time>2024-06-12T11:28:27Z</time>
      </trkpt>
      <trkpt lat="43.12086" lon="5.78018">
        <ele>31</ele>
        <time>2024-06-12T11:28:28Z</time>
      </trkpt>
      <trkpt lat="43.12086" lon="5.7802">
        <ele>31</ele>
        <time>2024-06-12T11:28:29Z</time>
      </trkpt>
      <trkpt lat="43.12086" lon="5.78022">
        <ele>31.2</ele>
        <time>2024-06-12T11:28:30Z</time>
      </trkpt>
      <trkpt lat="43.12086" lon="5.78024">
        <ele>31.6</ele>
        <time>2024-06-12T11:28:31Z</time>
      </trkpt>
      <trkpt lat="43.12086" lon="5.78026">
        <ele>31.6</ele>
        <time>2024-06-12T11:28:32Z</time>
      </trkpt>
      <trkpt lat="43.12086" lon="5.78028">
        <ele>31.6</ele>
        <time>2024-06-12T11:28:33Z</time>
      </trkpt>
      <trkpt lat="43.12086" lon="5.78031">
        <ele>31.6</ele>
        <time>2024-06-12T11:28:34Z</time>
      </trkpt>
      <trkpt lat="43.12086" lon="5.78033">
        <ele>32</ele>
        <time>2024-06-12T11:28:35Z</time>
      </trkpt>
      <trkpt lat="43.12087" lon="5.78035">
        <ele>32.2</ele>
        <time>2024-06-12T11:28:36Z</time>
      </trkpt>
      <trkpt lat="43.12087" lon="5.78038">
        <ele>32.2</ele>
        <time>2024-06-12T11:28:37Z</time>
      </trkpt>
      <trkpt lat="43.12087" lon="5.7804">
        <ele>32.2</ele>
        <time>2024-06-12T11:28:38Z</time>
      </trkpt>
      <trkpt lat="43.12088" lon="5.78042">
        <ele>32.8</ele>
        <time>2024-06-12T11:28:39Z</time>
      </trkpt>
      <trkpt lat="43.12088" lon="5.78045">
        <ele>32.8</ele>
        <time>2024-06-12T11:28:40Z</time>
      </trkpt>
      <trkpt lat="43.12088" lon="5.78047">
        <ele>32.8</ele>
        <time>2024-06-12T11:28:41Z</time>
      </trkpt>
      <trkpt lat="43.12088" lon="5.78049">
        <ele>32.8</ele>
        <time>2024-06-12T11:28:42Z</time>
      </trkpt>
      <trkpt lat="43.12087" lon="5.78051">
        <ele>33</ele>
        <time>2024-06-12T11:28:43Z</time>
      </trkpt>
      <trkpt lat="43.12087" lon="5.78053">
        <ele>33.2</ele>
        <time>2024-06-12T11:28:44Z</time>
      </trkpt>
      <trkpt lat="43.12087" lon="5.78056">
        <ele>33.2</ele>
        <time>2024-06-12T11:28:45Z</time>
      </trkpt>
      <trkpt lat="43.12087" lon="5.78058">
        <ele>33.2</ele>
        <time>2024-06-12T11:28:46Z</time>
      </trkpt>
      <trkpt lat="43.12087" lon="5.7806">
        <ele>33.2</ele>
        <time>2024-06-12T11:28:47Z</time>
      </trkpt>
      <trkpt lat="43.12088" lon="5.78062">
        <ele>33.4</ele>
        <time>2024-06-12T11:28:48Z</time>
      </trkpt>
      <trkpt lat="43.12088" lon="5.78064">
        <ele>33.4</ele>
        <time>2024-06-12T11:28:49Z</time>
      </trkpt>
      <trkpt lat="43.12088" lon="5.78067">
        <ele>33.4</ele>
        <time>2024-06-12T11:28:50Z</time>
      </trkpt>
      <trkpt lat="43.12088" lon="5.78069">
        <ele>33.4</ele>
        <time>2024-06-12T11:28:51Z</time>
      </trkpt>
      <trkpt lat="43.12088" lon="5.78071">
        <ele>33.4</ele>
        <time>2024-06-12T11:28:52Z</time>
      </trkpt>
      <trkpt lat="43.12088" lon="5.78073">
        <ele>33.4</ele>
        <time>2024-06-12T11:28:53Z</time>
      </trkpt>
      <trkpt lat="43.12088" lon="5.78076">
        <ele>33.4</ele>
        <time>2024-06-12T11:28:54Z</time>
      </trkpt>
      <trkpt lat="43.12089" lon="5.78078">
        <ele>33.4</ele>
        <time>2024-06-12T11:28:55Z</time>
      </trkpt>
      <trkpt lat="43.12089" lon="5.7808">
        <ele>33.4</ele>
        <time>2024-06-12T11:28:56Z</time>
      </trkpt>
      <trkpt lat="43.12089" lon="5.78082">
        <ele>33.6</ele>
        <time>2024-06-12T11:28:57Z</time>
      </trkpt>
      <trkpt lat="43.12089" lon="5.78084">
        <ele>33.6</ele>
        <time>2024-06-12T11:28:58Z</time>
      </trkpt>
      <trkpt lat="43.1209" lon="5.78086">
        <ele>33.6</ele>
        <time>2024-06-12T11:28:59Z</time>
      </trkpt>
      <trkpt lat="43.1209" lon="5.78088">
        <ele>33.6</ele>
        <time>2024-06-12T11:29:00Z</time>
      </trkpt>
      <trkpt lat="43.1209" lon="5.7809">
        <ele>33.6</ele>
        <time>2024-06-12T11:29:01Z</time>
      </trkpt>
      <trkpt lat="43.12091" lon="5.78092">
        <ele>33.6</ele>
        <time>2024-06-12T11:29:02Z</time>
      </trkpt>
      <trkpt lat="43.12092" lon="5.78095">
        <ele>33.8</ele>
        <time>2024-06-12T11:29:03Z</time>
      </trkpt>
      <trkpt lat="43.12092" lon="5.78097">
        <ele>33.8</ele>
        <time>2024-06-12T11:29:04Z</time>
      </trkpt>
      <trkpt lat="43.12093" lon="5.78099">
        <ele>33.8</ele>
        <time>2024-06-12T11:29:05Z</time>
      </trkpt>
      <trkpt lat="43.12094" lon="5.78102">
        <ele>33.8</ele>
        <time>2024-06-12T11:29:06Z</time>
      </trkpt>
      <trkpt lat="43.12094" lon="5.78104">
        <ele>33.8</ele>
        <time>2024-06-12T11:29:07Z</time>
      </trkpt>
      <trkpt lat="43.12095" lon="5.78107">
        <ele>33.8</ele>
        <time>2024-06-12T11:29:08Z</time>
      </trkpt>
      <trkpt lat="43.12096" lon="5.7811">
        <ele>33.8</ele>
        <time>2024-06-12T11:29:09Z</time>
      </trkpt>
      <trkpt lat="43.12097" lon="5.78112">
        <ele>34.4</ele>
        <time>2024-06-12T11:29:10Z</time>
      </trkpt>
      <trkpt lat="43.12097" lon="5.78116">
        <ele>34.2</ele>
        <time>2024-06-12T11:29:11Z</time>
      </trkpt>
      <trkpt lat="43.12098" lon="5.78117">
        <ele>34.2</ele>
        <time>2024-06-12T11:29:12Z</time>
      </trkpt>
      <trkpt lat="43.12098" lon="5.78122">
        <ele>34.2</ele>
        <time>2024-06-12T11:29:13Z</time>
      </trkpt>
      <trkpt lat="43.12098" lon="5.78124">
        <ele>34.2</ele>
        <time>2024-06-12T11:29:14Z</time>
      </trkpt>
      <trkpt lat="43.12095" lon="5.78129">
        <ele>34.8</ele>
        <time>2024-06-12T11:29:15Z</time>
      </trkpt>
      <trkpt lat="43.12094" lon="5.78131">
        <ele>35</ele>
        <time>2024-06-12T11:29:16Z</time>
      </trkpt>
      <trkpt lat="43.12089" lon="5.78132">
        <ele>35</ele>
        <time>2024-06-12T11:29:17Z</time>
      </trkpt>
      <trkpt lat="43.12087" lon="5.78131">
        <ele>35</ele>
        <time>2024-06-12T11:29:18Z</time>
      </trkpt>
      <trkpt lat="43.12083" lon="5.78127">
        <ele>35</ele>
        <time>2024-06-12T11:29:19Z</time>
      </trkpt>
      <trkpt lat="43.12081" lon="5.78125">
        <ele>35.4</ele>
        <time>2024-06-12T11:29:20Z</time>
      </trkpt>
      <trkpt lat="43.12076" lon="5.78121">
        <ele>35.4</ele>
        <time>2024-06-12T11:29:21Z</time>
      </trkpt>
      <trkpt lat="43.12075" lon="5.7812">
        <ele>35.4</ele>
        <time>2024-06-12T11:29:22Z</time>
      </trkpt>
      <trkpt lat="43.12069" lon="5.78117">
        <ele>35.4</ele>
        <time>2024-06-12T11:29:23Z</time>
      </trkpt>
      <trkpt lat="43.12067" lon="5.78116">
        <ele>35.4</ele>
        <time>2024-06-12T11:29:24Z</time>
      </trkpt>
      <trkpt lat="43.12063" lon="5.78114">
        <ele>35.4</ele>
        <time>2024-06-12T11:29:25Z</time>
      </trkpt>
      <trkpt lat="43.12061" lon="5.78113">
        <ele>35.4</ele>
        <time>2024-06-12T11:29:26Z</time>
      </trkpt>
      <trkpt lat="43.12059" lon="5.78112">
        <ele>35.4</ele>
        <time>2024-06-12T11:29:27Z</time>
      </trkpt>
      <trkpt lat="43.12057" lon="5.7811">
        <ele>35.4</ele>
        <time>2024-06-12T11:29:28Z</time>
      </trkpt>
      <trkpt lat="43.12054" lon="5.78108">
        <ele>35.4</ele>
        <time>2024-06-12T11:29:29Z</time>
      </trkpt>
      <trkpt lat="43.12052" lon="5.78106">
        <ele>35.4</ele>
        <time>2024-06-12T11:29:30Z</time>
      </trkpt>
      <trkpt lat="43.12048" lon="5.78104">
        <ele>35.4</ele>
        <time>2024-06-12T11:29:31Z</time>
      </trkpt>
      <trkpt lat="43.12044" lon="5.78103">
        <ele>35.4</ele>
        <time>2024-06-12T11:29:32Z</time>
      </trkpt>
      <trkpt lat="43.1204" lon="5.78102">
        <ele>34.6</ele>
        <time>2024-06-12T11:29:33Z</time>
      </trkpt>
      <trkpt lat="43.12035" lon="5.78101">
        <ele>34.6</ele>
        <time>2024-06-12T11:29:34Z</time>
      </trkpt>
      <trkpt lat="43.12026" lon="5.781">
        <ele>34.6</ele>
        <time>2024-06-12T11:29:35Z</time>
      </trkpt>
      <trkpt lat="43.12023" lon="5.78099">
        <ele>34.6</ele>
        <time>2024-06-12T11:29:36Z</time>
      </trkpt>
      <trkpt lat="43.12014" lon="5.78097">
        <ele>34.6</ele>
        <time>2024-06-12T11:29:37Z</time>
      </trkpt>
      <trkpt lat="43.12011" lon="5.78096">
        <ele>34.6</ele>
        <time>2024-06-12T11:29:38Z</time>
      </trkpt>
      <trkpt lat="43.12004" lon="5.78095">
        <ele>34.4</ele>
        <time>2024-06-12T11:29:39Z</time>
      </trkpt>
      <trkpt lat="43.11998" lon="5.78094">
        <ele>34.4</ele>
        <time>2024-06-12T11:29:40Z</time>
      </trkpt>
      <trkpt lat="43.11992" lon="5.78093">
        <ele>34.4</ele>
        <time>2024-06-12T11:29:41Z</time>
      </trkpt>
      <trkpt lat="43.11987" lon="5.78092">
        <ele>34</ele>
        <time>2024-06-12T11:29:42Z</time>
      </trkpt>
      <trkpt lat="43.11981" lon="5.78091">
        <ele>33.6</ele>
        <time>2024-06-12T11:29:43Z</time>
      </trkpt>
      <trkpt lat="43.11977" lon="5.7809">
        <ele>33.6</ele>
        <time>2024-06-12T11:29:44Z</time>
      </trkpt>
      <trkpt lat="43.11973" lon="5.78089">
        <ele>33.6</ele>
        <time>2024-06-12T11:29:45Z</time>
      </trkpt>
      <trkpt lat="43.11969" lon="5.78089">
        <ele>33.6</ele>
        <time>2024-06-12T11:29:46Z</time>
      </trkpt>
      <trkpt lat="43.11966" lon="5.78088">
        <ele>33.8</ele>
        <time>2024-06-12T11:29:47Z</time>
      </trkpt>
      <trkpt lat="43.11964" lon="5.78087">
        <ele>33.8</ele>
        <time>2024-06-12T11:29:48Z</time>
      </trkpt>
      <trkpt lat="43.11962" lon="5.78087">
        <ele>33.8</ele>
        <time>2024-06-12T11:29:49Z</time>
      </trkpt>
      <trkpt lat="43.1196" lon="5.78086">
        <ele>33.8</ele>
        <time>2024-06-12T11:29:50Z</time>
      </trkpt>
      <trkpt lat="43.11957" lon="5.78086">
        <ele>33.8</ele>
        <time>2024-06-12T11:29:51Z</time>
      </trkpt>
      <trkpt lat="43.11956" lon="5.78086">
        <ele>34</ele>
        <time>2024-06-12T11:29:52Z</time>
      </trkpt>
      <trkpt lat="43.11953" lon="5.78087">
        <ele>34</ele>
        <time>2024-06-12T11:29:53Z</time>
      </trkpt>
      <trkpt lat="43.11952" lon="5.78087">
        <ele>34</ele>
        <time>2024-06-12T11:29:54Z</time>
      </trkpt>
      <trkpt lat="43.11948" lon="5.78087">
        <ele>35</ele>
        <time>2024-06-12T11:29:55Z</time>
      </trkpt>
      <trkpt lat="43.11947" lon="5.78087">
        <ele>35.2</ele>
        <time>2024-06-12T11:29:56Z</time>
      </trkpt>
      <trkpt lat="43.11945" lon="5.78088">
        <ele>35.2</ele>
        <time>2024-06-12T11:29:57Z</time>
      </trkpt>
      <trkpt lat="43.11943" lon="5.7809">
        <ele>35.2</ele>
        <time>2024-06-12T11:29:58Z</time>
      </trkpt>
      <trkpt lat="43.11941" lon="5.78091">
        <ele>35.2</ele>
        <time>2024-06-12T11:29:59Z</time>
      </trkpt>
      <trkpt lat="43.11939" lon="5.78092">
        <ele>36</ele>
        <time>2024-06-12T11:30:00Z</time>
      </trkpt>
      <trkpt lat="43.11936" lon="5.78094">
        <ele>36.2</ele>
        <time>2024-06-12T11:30:01Z</time>
      </trkpt>
      <trkpt lat="43.11935" lon="5.78094">
        <ele>36.2</ele>
        <time>2024-06-12T11:30:02Z</time>
      </trkpt>
      <trkpt lat="43.11932" lon="5.78097">
        <ele>36.2</ele>
        <time>2024-06-12T11:30:03Z</time>
      </trkpt>
      <trkpt lat="43.11931" lon="5.78098">
        <ele>37.2</ele>
        <time>2024-06-12T11:30:04Z</time>
      </trkpt>
      <trkpt lat="43.11928" lon="5.78101">
        <ele>37.6</ele>
        <time>2024-06-12T11:30:05Z</time>
      </trkpt>
      <trkpt lat="43.11927" lon="5.78102">
        <ele>37.6</ele>
        <time>2024-06-12T11:30:06Z</time>
      </trkpt>
      <trkpt lat="43.11925" lon="5.78104">
        <ele>37.6</ele>
        <time>2024-06-12T11:30:07Z</time>
      </trkpt>
      <trkpt lat="43.11924" lon="5.78105">
        <ele>38.2</ele>
        <time>2024-06-12T11:30:08Z</time>
      </trkpt>
      <trkpt lat="43.11923" lon="5.78107">
        <ele>38.6</ele>
        <time>2024-06-12T11:30:09Z</time>
      </trkpt>
      <trkpt lat="43.11921" lon="5.78108">
        <ele>38.6</ele>
        <time>2024-06-12T11:30:10Z</time>
      </trkpt>
      <trkpt lat="43.1192" lon="5.7811">
        <ele>38.6</ele>
        <time>2024-06-12T11:30:11Z</time>
      </trkpt>
      <trkpt lat="43.11919" lon="5.78111">
        <ele>38.6</ele>
        <time>2024-06-12T11:30:12Z</time>
      </trkpt>
      <trkpt lat="43.11917" lon="5.78113">
        <ele>39.6</ele>
        <time>2024-06-12T11:30:13Z</time>
      </trkpt>
      <trkpt lat="43.11916" lon="5.78114">
        <ele>39.8</ele>
        <time>2024-06-12T11:30:14Z</time>
      </trkpt>
      <trkpt lat="43.11915" lon="5.78116">
        <ele>39.8</ele>
        <time>2024-06-12T11:30:15Z</time>
      </trkpt>
      <trkpt lat="43.11914" lon="5.78118">
        <ele>39.8</ele>
        <time>2024-06-12T11:30:16Z</time>
      </trkpt>
      <trkpt lat="43.11911" lon="5.7812">
        <ele>39.8</ele>
        <time>2024-06-12T11:30:17Z</time>
      </trkpt>
      <trkpt lat="43.11911" lon="5.78121">
        <ele>40</ele>
        <time>2024-06-12T11:30:18Z</time>
      </trkpt>
      <trkpt lat="43.11909" lon="5.78123">
        <ele>40</ele>
        <time>2024-06-12T11:30:19Z</time>
      </trkpt>
      <trkpt lat="43.11907" lon="5.78125">
        <ele>40</ele>
        <time>2024-06-12T11:30:20Z</time>
      </trkpt>
      <trkpt lat="43.11906" lon="5.78126">
        <ele>40</ele>
        <time>2024-06-12T11:30:21Z</time>
      </trkpt>
      <trkpt lat="43.11904" lon="5.78129">
        <ele>40</ele>
        <time>2024-06-12T11:30:22Z</time>
      </trkpt>
      <trkpt lat="43.11902" lon="5.78131">
        <ele>40</ele>
        <time>2024-06-12T11:30:23Z</time>
      </trkpt>
      <trkpt lat="43.119" lon="5.78133">
        <ele>40</ele>
        <time>2024-06-12T11:30:24Z</time>
      </trkpt>
      <trkpt lat="43.11898" lon="5.78135">
        <ele>40</ele>
        <time>2024-06-12T11:30:25Z</time>
      </trkpt>
      <trkpt lat="43.11897" lon="5.78137">
        <ele>40</ele>
        <time>2024-06-12T11:30:26Z</time>
      </trkpt>
      <trkpt lat="43.11895" lon="5.78139">
        <ele>40.4</ele>
        <time>2024-06-12T11:30:27Z</time>
      </trkpt>
      <trkpt lat="43.11893" lon="5.78141">
        <ele>40.4</ele>
        <time>2024-06-12T11:30:28Z</time>
      </trkpt>
      <trkpt lat="43.11891" lon="5.78143">
        <ele>40.6</ele>
        <time>2024-06-12T11:30:29Z</time>
      </trkpt>
      <trkpt lat="43.11889" lon="5.78145">
        <ele>40.6</ele>
        <time>2024-06-12T11:30:30Z</time>
      </trkpt>
      <trkpt lat="43.11887" lon="5.78147">
        <ele>41.2</ele>
        <time>2024-06-12T11:30:31Z</time>
      </trkpt>
      <trkpt lat="43.11885" lon="5.78149">
        <ele>41.2</ele>
        <time>2024-06-12T11:30:32Z</time>
      </trkpt>
      <trkpt lat="43.11882" lon="5.78153">
        <ele>41.2</ele>
        <time>2024-06-12T11:30:33Z</time>
      </trkpt>
      <trkpt lat="43.11882" lon="5.78154">
        <ele>41.2</ele>
        <time>2024-06-12T11:30:34Z</time>
      </trkpt>
      <trkpt lat="43.1188" lon="5.78157">
        <ele>41.2</ele>
        <time>2024-06-12T11:30:35Z</time>
      </trkpt>
      <trkpt lat="43.11879" lon="5.7816">
        <ele>41.2</ele>
        <time>2024-06-12T11:30:36Z</time>
      </trkpt>
      <trkpt lat="43.11878" lon="5.78164">
        <ele>41</ele>
        <time>2024-06-12T11:30:37Z</time>
      </trkpt>
      <trkpt lat="43.11878" lon="5.78169">
        <ele>41</ele>
        <time>2024-06-12T11:30:38Z</time>
      </trkpt>
      <trkpt lat="43.11879" lon="5.78176">
        <ele>41</ele>
        <time>2024-06-12T11:30:39Z</time>
      </trkpt>
      <trkpt lat="43.11879" lon="5.78179">
        <ele>41.4</ele>
        <time>2024-06-12T11:30:40Z</time>
      </trkpt>
      <trkpt lat="43.1188" lon="5.78187">
        <ele>41.4</ele>
        <time>2024-06-12T11:30:41Z</time>
      </trkpt>
      <trkpt lat="43.1188" lon="5.7819">
        <ele>41.4</ele>
        <time>2024-06-12T11:30:42Z</time>
      </trkpt>
      <trkpt lat="43.11881" lon="5.78199">
        <ele>41.4</ele>
        <time>2024-06-12T11:30:43Z</time>
      </trkpt>
      <trkpt lat="43.11882" lon="5.78203">
        <ele>40.6</ele>
        <time>2024-06-12T11:30:44Z</time>
      </trkpt>
      <trkpt lat="43.11883" lon="5.7821">
        <ele>40.8</ele>
        <time>2024-06-12T11:30:45Z</time>
      </trkpt>
      <trkpt lat="43.11884" lon="5.78217">
        <ele>40.8</ele>
        <time>2024-06-12T11:30:46Z</time>
      </trkpt>
      <trkpt lat="43.11885" lon="5.7823">
        <ele>40.8</ele>
        <time>2024-06-12T11:30:47Z</time>
      </trkpt>
      <trkpt lat="43.11885" lon="5.78234">
        <ele>40.8</ele>
        <time>2024-06-12T11:30:48Z</time>
      </trkpt>
      <trkpt lat="43.11887" lon="5.78248">
        <ele>40.8</ele>
        <time>2024-06-12T11:30:49Z</time>
      </trkpt>
      <trkpt lat="43.11888" lon="5.78252">
        <ele>40</ele>
        <time>2024-06-12T11:30:50Z</time>
      </trkpt>
      <trkpt lat="43.11889" lon="5.78262">
        <ele>40</ele>
        <time>2024-06-12T11:30:51Z</time>
      </trkpt>
      <trkpt lat="43.11892" lon="5.78277">
        <ele>40</ele>
        <time>2024-06-12T11:30:52Z</time>
      </trkpt>
      <trkpt lat="43.11892" lon="5.78283">
        <ele>40</ele>
        <time>2024-06-12T11:30:53Z</time>
      </trkpt>
      <trkpt lat="43.11893" lon="5.78294">
        <ele>39.4</ele>
        <time>2024-06-12T11:30:54Z</time>
      </trkpt>
      <trkpt lat="43.11894" lon="5.78305">
        <ele>39.4</ele>
        <time>2024-06-12T11:30:55Z</time>
      </trkpt>
      <trkpt lat="43.11897" lon="5.78322">
        <ele>39.4</ele>
        <time>2024-06-12T11:30:56Z</time>
      </trkpt>
      <trkpt lat="43.11897" lon="5.78328">
        <ele>39.4</ele>
        <time>2024-06-12T11:30:57Z</time>
      </trkpt>
      <trkpt lat="43.11899" lon="5.7834">
        <ele>38</ele>
        <time>2024-06-12T11:30:58Z</time>
      </trkpt>
      <trkpt lat="43.11901" lon="5.78355">
        <ele>38</ele>
        <time>2024-06-12T11:30:59Z</time>
      </trkpt>
      <trkpt lat="43.11901" lon="5.7836">
        <ele>38</ele>
        <time>2024-06-12T11:31:00Z</time>
      </trkpt>
      <trkpt lat="43.11902" lon="5.78369">
        <ele>38</ele>
        <time>2024-06-12T11:31:01Z</time>
      </trkpt>
      <trkpt lat="43.119" lon="5.78378">
        <ele>38</ele>
        <time>2024-06-12T11:31:02Z</time>
      </trkpt>
      <trkpt lat="43.11899" lon="5.78381">
        <ele>37.6</ele>
        <time>2024-06-12T11:31:03Z</time>
      </trkpt>
      <trkpt lat="43.11899" lon="5.78386">
        <ele>37.2</ele>
        <time>2024-06-12T11:31:04Z</time>
      </trkpt>
      <trkpt lat="43.119" lon="5.78391">
        <ele>37.2</ele>
        <time>2024-06-12T11:31:05Z</time>
      </trkpt>
      <trkpt lat="43.11901" lon="5.78394">
        <ele>37.2</ele>
        <time>2024-06-12T11:31:06Z</time>
      </trkpt>
      <trkpt lat="43.11905" lon="5.78396">
        <ele>36.2</ele>
        <time>2024-06-12T11:31:07Z</time>
      </trkpt>
      <trkpt lat="43.11906" lon="5.78396">
        <ele>36.2</ele>
        <time>2024-06-12T11:31:08Z</time>
      </trkpt>
      <trkpt lat="43.11912" lon="5.78396">
        <ele>36.2</ele>
        <time>2024-06-12T11:31:09Z</time>
      </trkpt>
      <trkpt lat="43.11914" lon="5.78396">
        <ele>36.2</ele>
        <time>2024-06-12T11:31:10Z</time>
      </trkpt>
      <trkpt lat="43.11917" lon="5.78395">
        <ele>36</ele>
        <time>2024-06-12T11:31:11Z</time>
      </trkpt>
      <trkpt lat="43.11923" lon="5.78394">
        <ele>35.4</ele>
        <time>2024-06-12T11:31:12Z</time>
      </trkpt>
      <trkpt lat="43.11925" lon="5.78394">
        <ele>35.4</ele>
        <time>2024-06-12T11:31:13Z</time>
      </trkpt>
      <trkpt lat="43.11929" lon="5.78395">
        <ele>35.4</ele>
        <time>2024-06-12T11:31:14Z</time>
      </trkpt>
      <trkpt lat="43.11934" lon="5.78394">
        <ele>35.4</ele>
        <time>2024-06-12T11:31:15Z</time>
      </trkpt>
      <trkpt lat="43.11939" lon="5.78394">
        <ele>35.4</ele>
        <time>2024-06-12T11:31:16Z</time>
      </trkpt>
      <trkpt lat="43.11945" lon="5.78393">
        <ele>35.4</ele>
        <time>2024-06-12T11:31:17Z</time>
      </trkpt>
      <trkpt lat="43.11948" lon="5.78393">
        <ele>35.4</ele>
        <time>2024-06-12T11:31:18Z</time>
      </trkpt>
      <trkpt lat="43.11954" lon="5.78392">
        <ele>35.4</ele>
        <time>2024-06-12T11:31:19Z</time>
      </trkpt>
      <trkpt lat="43.11956" lon="5.78392">
        <ele>35</ele>
        <time>2024-06-12T11:31:20Z</time>
      </trkpt>
      <trkpt lat="43.11961" lon="5.78392">
        <ele>34.8</ele>
        <time>2024-06-12T11:31:21Z</time>
      </trkpt>
      <trkpt lat="43.11966" lon="5.78392">
        <ele>34.8</ele>
        <time>2024-06-12T11:31:22Z</time>
      </trkpt>
      <trkpt lat="43.11972" lon="5.78392">
        <ele>34.8</ele>
        <time>2024-06-12T11:31:23Z</time>
      </trkpt>
      <trkpt lat="43.11977" lon="5.78391">
        <ele>35.4</ele>
        <time>2024-06-12T11:31:24Z</time>
      </trkpt>
      <trkpt lat="43.11985" lon="5.7839">
        <ele>35.4</ele>
        <time>2024-06-12T11:31:25Z</time>
      </trkpt>
      <trkpt lat="43.11988" lon="5.7839">
        <ele>35.6</ele>
        <time>2024-06-12T11:31:26Z</time>
      </trkpt>
      <trkpt lat="43.11996" lon="5.78389">
        <ele>35.6</ele>
        <time>2024-06-12T11:31:27Z</time>
      </trkpt>
      <trkpt lat="43.11998" lon="5.78388">
        <ele>35.6</ele>
        <time>2024-06-12T11:31:28Z</time>
      </trkpt>
      <trkpt lat="43.12005" lon="5.78387">
        <ele>36.2</ele>
        <time>2024-06-12T11:31:29Z</time>
      </trkpt>
      <trkpt lat="43.12008" lon="5.78387">
        <ele>35.6</ele>
        <time>2024-06-12T11:31:30Z</time>
      </trkpt>
      <trkpt lat="43.12014" lon="5.78388">
        <ele>35.6</ele>
        <time>2024-06-12T11:31:31Z</time>
      </trkpt>
      <trkpt lat="43.12016" lon="5.78389">
        <ele>35.6</ele>
        <time>2024-06-12T11:31:32Z</time>
      </trkpt>
      <trkpt lat="43.1202" lon="5.78392">
        <ele>35.6</ele>
        <time>2024-06-12T11:31:33Z</time>
      </trkpt>
      <trkpt lat="43.12022" lon="5.78394">
        <ele>34.2</ele>
        <time>2024-06-12T11:31:34Z</time>
      </trkpt>
      <trkpt lat="43.12024" lon="5.78396">
        <ele>34.2</ele>
        <time>2024-06-12T11:31:35Z</time>
      </trkpt>
      <trkpt lat="43.12026" lon="5.78399">
        <ele>34.2</ele>
        <time>2024-06-12T11:31:36Z</time>
      </trkpt>
      <trkpt lat="43.12026" lon="5.78402">
        <ele>34.2</ele>
        <time>2024-06-12T11:31:37Z</time>
      </trkpt>
      <trkpt lat="43.12027" lon="5.78405">
        <ele>33.2</ele>
        <time>2024-06-12T11:31:38Z</time>
      </trkpt>
      <trkpt lat="43.12027" lon="5.78408">
        <ele>33</ele>
        <time>2024-06-12T11:31:39Z</time>
      </trkpt>
      <trkpt lat="43.12027" lon="5.78412">
        <ele>33</ele>
        <time>2024-06-12T11:31:40Z</time>
      </trkpt>
      <trkpt lat="43.12027" lon="5.78419">
        <ele>33</ele>
        <time>2024-06-12T11:31:41Z</time>
      </trkpt>
      <trkpt lat="43.12028" lon="5.78421">
        <ele>32</ele>
        <time>2024-06-12T11:31:42Z</time>
      </trkpt>
      <trkpt lat="43.12028" lon="5.78428">
        <ele>31.2</ele>
        <time>2024-06-12T11:31:43Z</time>
      </trkpt>
      <trkpt lat="43.12028" lon="5.7843">
        <ele>31.2</ele>
        <time>2024-06-12T11:31:44Z</time>
      </trkpt>
      <trkpt lat="43.12028" lon="5.78432">
        <ele>31.2</ele>
        <time>2024-06-12T11:31:45Z</time>
      </trkpt>
      <trkpt lat="43.12028" lon="5.78433">
        <ele>30.2</ele>
        <time>2024-06-12T11:31:46Z</time>
      </trkpt>
      <trkpt lat="43.12028" lon="5.78433">
        <ele>30.2</ele>
        <time>2024-06-12T11:31:47Z</time>
      </trkpt>
      <trkpt lat="43.12029" lon="5.78439">
        <ele>24.4</ele>
        <time>2024-06-12T11:32:11Z</time>
      </trkpt>
      <trkpt lat="43.12029" lon="5.78443">
        <ele>24.4</ele>
        <time>2024-06-12T11:32:12Z</time>
      </trkpt>
      <trkpt lat="43.12029" lon="5.78447">
        <ele>24.4</ele>
        <time>2024-06-12T11:32:13Z</time>
      </trkpt>
      <trkpt lat="43.12029" lon="5.78451">
        <ele>24.6</ele>
        <time>2024-06-12T11:32:14Z</time>
      </trkpt>
      <trkpt lat="43.12029" lon="5.78456">
        <ele>24.6</ele>
        <time>2024-06-12T11:32:15Z</time>
      </trkpt>
      <trkpt lat="43.1203" lon="5.78464">
        <ele>24.6</ele>
        <time>2024-06-12T11:32:16Z</time>
      </trkpt>
      <trkpt lat="43.1203" lon="5.78467">
        <ele>23.6</ele>
        <time>2024-06-12T11:32:17Z</time>
      </trkpt>
      <trkpt lat="43.1203" lon="5.78476">
        <ele>23</ele>
        <time>2024-06-12T11:32:18Z</time>
      </trkpt>
      <trkpt lat="43.1203" lon="5.78479">
        <ele>23</ele>
        <time>2024-06-12T11:32:19Z</time>
      </trkpt>
      <trkpt lat="43.1203" lon="5.78488">
        <ele>23</ele>
        <time>2024-06-12T11:32:20Z</time>
      </trkpt>
      <trkpt lat="43.1203" lon="5.78491">
        <ele>23</ele>
        <time>2024-06-12T11:32:21Z</time>
      </trkpt>
      <trkpt lat="43.12031" lon="5.78501">
        <ele>22.6</ele>
        <time>2024-06-12T11:32:22Z</time>
      </trkpt>
      <trkpt lat="43.12031" lon="5.78504">
        <ele>22.6</ele>
        <time>2024-06-12T11:32:23Z</time>
      </trkpt>
      <trkpt lat="43.12031" lon="5.7851">
        <ele>23.2</ele>
        <time>2024-06-12T11:32:24Z</time>
      </trkpt>
      <trkpt lat="43.12031" lon="5.78519">
        <ele>23.2</ele>
        <time>2024-06-12T11:32:25Z</time>
      </trkpt>
      <trkpt lat="43.12032" lon="5.78522">
        <ele>22.8</ele>
        <time>2024-06-12T11:32:26Z</time>
      </trkpt>
      <trkpt lat="43.12033" lon="5.78531">
        <ele>22.8</ele>
        <time>2024-06-12T11:32:27Z</time>
      </trkpt>
      <trkpt lat="43.12033" lon="5.78534">
        <ele>22.8</ele>
        <time>2024-06-12T11:32:28Z</time>
      </trkpt>
      <trkpt lat="43.12034" lon="5.78542">
        <ele>22.8</ele>
        <time>2024-06-12T11:32:29Z</time>
      </trkpt>
      <trkpt lat="43.12035" lon="5.78545">
        <ele>22.8</ele>
        <time>2024-06-12T11:32:30Z</time>
      </trkpt>
      <trkpt lat="43.12038" lon="5.7855">
        <ele>23.2</ele>
        <time>2024-06-12T11:32:31Z</time>
      </trkpt>
      <trkpt lat="43.12039" lon="5.78552">
        <ele>23.2</ele>
        <time>2024-06-12T11:32:32Z</time>
      </trkpt>
      <trkpt lat="43.12043" lon="5.78556">
        <ele>23.2</ele>
        <time>2024-06-12T11:32:33Z</time>
      </trkpt>
      <trkpt lat="43.12044" lon="5.78557">
        <ele>23.2</ele>
        <time>2024-06-12T11:32:34Z</time>
      </trkpt>
      <trkpt lat="43.12047" lon="5.78558">
        <ele>22.8</ele>
        <time>2024-06-12T11:32:35Z</time>
      </trkpt>
      <trkpt lat="43.12051" lon="5.78559">
        <ele>23.6</ele>
        <time>2024-06-12T11:32:36Z</time>
      </trkpt>
      <trkpt lat="43.12054" lon="5.7856">
        <ele>23.6</ele>
        <time>2024-06-12T11:32:37Z</time>
      </trkpt>
      <trkpt lat="43.12057" lon="5.7856">
        <ele>23.6</ele>
        <time>2024-06-12T11:32:38Z</time>
      </trkpt>
      <trkpt lat="43.1206" lon="5.7856">
        <ele>23.6</ele>
        <time>2024-06-12T11:32:39Z</time>
      </trkpt>
      <trkpt lat="43.12061" lon="5.7856">
        <ele>24.6</ele>
        <time>2024-06-12T11:32:40Z</time>
      </trkpt>
      <trkpt lat="43.12063" lon="5.78561">
        <ele>24.6</ele>
        <time>2024-06-12T11:32:41Z</time>
      </trkpt>
      <trkpt lat="43.12064" lon="5.78561">
        <ele>24.6</ele>
        <time>2024-06-12T11:32:42Z</time>
      </trkpt>
      <trkpt lat="43.12064" lon="5.78561">
        <ele>24.6</ele>
        <time>2024-06-12T11:32:43Z</time>
      </trkpt>
      <trkpt lat="43.12064" lon="5.78561">
        <ele>25.6</ele>
        <time>2024-06-12T11:32:44Z</time>
      </trkpt>
      <trkpt lat="43.12069" lon="5.78561">
        <ele>26.2</ele>
        <time>2024-06-12T11:32:53Z</time>
      </trkpt>
      <trkpt lat="43.12071" lon="5.78561">
        <ele>26.6</ele>
        <time>2024-06-12T11:32:54Z</time>
      </trkpt>
      <trkpt lat="43.12073" lon="5.78561">
        <ele>26.6</ele>
        <time>2024-06-12T11:32:55Z</time>
      </trkpt>
      <trkpt lat="43.12075" lon="5.78562">
        <ele>26.6</ele>
        <time>2024-06-12T11:32:56Z</time>
      </trkpt>
      <trkpt lat="43.12077" lon="5.78563">
        <ele>26.6</ele>
        <time>2024-06-12T11:32:57Z</time>
      </trkpt>
      <trkpt lat="43.1208" lon="5.78565">
        <ele>27</ele>
        <time>2024-06-12T11:32:58Z</time>
      </trkpt>
      <trkpt lat="43.12082" lon="5.78567">
        <ele>27</ele>
        <time>2024-06-12T11:32:59Z</time>
      </trkpt>
      <trkpt lat="43.12083" lon="5.78569">
        <ele>27.2</ele>
        <time>2024-06-12T11:33:00Z</time>
      </trkpt>
      <trkpt lat="43.12084" lon="5.78571">
        <ele>27.2</ele>
        <time>2024-06-12T11:33:01Z</time>
      </trkpt>
      <trkpt lat="43.12085" lon="5.78572">
        <ele>28.2</ele>
        <time>2024-06-12T11:33:02Z</time>
      </trkpt>
      <trkpt lat="43.12085" lon="5.78575">
        <ele>28.2</ele>
        <time>2024-06-12T11:33:03Z</time>
      </trkpt>
      <trkpt lat="43.12085" lon="5.78577">
        <ele>28.4</ele>
        <time>2024-06-12T11:33:04Z</time>
      </trkpt>
      <trkpt lat="43.12085" lon="5.78578">
        <ele>28.4</ele>
        <time>2024-06-12T11:33:05Z</time>
      </trkpt>
      <trkpt lat="43.12085" lon="5.78581">
        <ele>28.4</ele>
        <time>2024-06-12T11:33:06Z</time>
      </trkpt>
      <trkpt lat="43.12085" lon="5.78583">
        <ele>29.2</ele>
        <time>2024-06-12T11:33:07Z</time>
      </trkpt>
      <trkpt lat="43.12085" lon="5.78585">
        <ele>29.2</ele>
        <time>2024-06-12T11:33:08Z</time>
      </trkpt>
      <trkpt lat="43.12085" lon="5.78588">
        <ele>29.2</ele>
        <time>2024-06-12T11:33:09Z</time>
      </trkpt>
      <trkpt lat="43.12084" lon="5.7859">
        <ele>29.2</ele>
        <time>2024-06-12T11:33:10Z</time>
      </trkpt>
      <trkpt lat="43.12083" lon="5.78592">
        <ele>29.6</ele>
        <time>2024-06-12T11:33:11Z</time>
      </trkpt>
      <trkpt lat="43.12083" lon="5.78593">
        <ele>30</ele>
        <time>2024-06-12T11:33:12Z</time>
      </trkpt>
      <trkpt lat="43.12083" lon="5.78595">
        <ele>30</ele>
        <time>2024-06-12T11:33:13Z</time>
      </trkpt>
      <trkpt lat="43.12083" lon="5.78597">
        <ele>30</ele>
        <time>2024-06-12T11:33:14Z</time>
      </trkpt>
      <trkpt lat="43.12082" lon="5.78601">
        <ele>30.6</ele>
        <time>2024-06-12T11:33:15Z</time>
      </trkpt>
      <trkpt lat="43.12082" lon="5.78602">
        <ele>30.6</ele>
        <time>2024-06-12T11:33:16Z</time>
      </trkpt>
      <trkpt lat="43.12082" lon="5.78604">
        <ele>30.6</ele>
        <time>2024-06-12T11:33:17Z</time>
      </trkpt>
      <trkpt lat="43.12082" lon="5.78606">
        <ele>30.6</ele>
        <time>2024-06-12T11:33:18Z</time>
      </trkpt>
      <trkpt lat="43.12082" lon="5.78608">
        <ele>30.6</ele>
        <time>2024-06-12T11:33:19Z</time>
      </trkpt>
      <trkpt lat="43.12082" lon="5.7861">
        <ele>31.4</ele>
        <time>2024-06-12T11:33:20Z</time>
      </trkpt>
      <trkpt lat="43.12083" lon="5.78613">
        <ele>31.4</ele>
        <time>2024-06-12T11:33:21Z</time>
      </trkpt>
      <trkpt lat="43.12084" lon="5.78616">
        <ele>31.4</ele>
        <time>2024-06-12T11:33:22Z</time>
      </trkpt>
      <trkpt lat="43.12085" lon="5.78619">
        <ele>31.4</ele>
        <time>2024-06-12T11:33:23Z</time>
      </trkpt>
      <trkpt lat="43.12085" lon="5.78621">
        <ele>31.6</ele>
        <time>2024-06-12T11:33:24Z</time>
      </trkpt>
      <trkpt lat="43.12085" lon="5.78624">
        <ele>31.6</ele>
        <time>2024-06-12T11:33:25Z</time>
      </trkpt>
      <trkpt lat="43.12085" lon="5.78627">
        <ele>31.6</ele>
        <time>2024-06-12T11:33:26Z</time>
      </trkpt>
      <trkpt lat="43.12085" lon="5.78627">
        <ele>31.6</ele>
        <time>2024-06-12T11:33:27Z</time>
      </trkpt>
      <trkpt lat="43.12084" lon="5.78628">
        <ele>31.6</ele>
        <time>2024-06-12T11:33:28Z</time>
      </trkpt>
      <trkpt lat="43.12084" lon="5.78628">
        <ele>31.4</ele>
        <time>2024-06-12T11:33:29Z</time>
      </trkpt>
      <trkpt lat="43.12083" lon="5.78628">
        <ele>31.4</ele>
        <time>2024-06-12T11:33:30Z</time>
      </trkpt>
      <trkpt lat="43.12082" lon="5.78627">
        <ele>31.4</ele>
        <time>2024-06-12T11:33:31Z</time>
      </trkpt>
      <trkpt lat="43.1208" lon="5.78626">
        <ele>31.4</ele>
        <time>2024-06-12T11:33:32Z</time>
      </trkpt>
      <trkpt lat="43.12079" lon="5.78625">
        <ele>31.4</ele>
        <time>2024-06-12T11:33:33Z</time>
      </trkpt>
      <trkpt lat="43.12077" lon="5.78626">
        <ele>31.8</ele>
        <time>2024-06-12T11:33:34Z</time>
      </trkpt>
      <trkpt lat="43.12076" lon="5.78627">
        <ele>32</ele>
        <time>2024-06-12T11:33:35Z</time>
      </trkpt>
      <trkpt lat="43.12075" lon="5.78629">
        <ele>32</ele>
        <time>2024-06-12T11:33:36Z</time>
      </trkpt>
      <trkpt lat="43.12074" lon="5.7863">
        <ele>32</ele>
        <time>2024-06-12T11:33:37Z</time>
      </trkpt>
      <trkpt lat="43.12073" lon="5.78631">
        <ele>32.4</ele>
        <time>2024-06-12T11:33:38Z</time>
      </trkpt>
      <trkpt lat="43.12072" lon="5.78631">
        <ele>32.2</ele>
        <time>2024-06-12T11:33:39Z</time>
      </trkpt>
      <trkpt lat="43.1207" lon="5.78632">
        <ele>32.2</ele>
        <time>2024-06-12T11:33:40Z</time>
      </trkpt>
      <trkpt lat="43.1207" lon="5.78632">
        <ele>32.2</ele>
        <time>2024-06-12T11:33:41Z</time>
      </trkpt>
      <trkpt lat="43.12069" lon="5.78633">
        <ele>32.2</ele>
        <time>2024-06-12T11:33:42Z</time>
      </trkpt>
      <trkpt lat="43.12069" lon="5.78633">
        <ele>32.6</ele>
        <time>2024-06-12T11:33:43Z</time>
      </trkpt>
      <trkpt lat="43.12069" lon="5.78633">
        <ele>32.6</ele>
        <time>2024-06-12T11:33:44Z</time>
      </trkpt>
      <trkpt lat="43.12065" lon="5.78637">
        <ele>35.8</ele>
        <time>2024-06-12T11:34:36Z</time>
      </trkpt>
      <trkpt lat="43.12064" lon="5.78638">
        <ele>35.8</ele>
        <time>2024-06-12T11:34:37Z</time>
      </trkpt>
      <trkpt lat="43.12064" lon="5.78639">
        <ele>35</ele>
        <time>2024-06-12T11:34:38Z</time>
      </trkpt>
      <trkpt lat="43.12064" lon="5.7864">
        <ele>35</ele>
        <time>2024-06-12T11:34:39Z</time>
      </trkpt>
      <trkpt lat="43.12064" lon="5.78641">
        <ele>35</ele>
        <time>2024-06-12T11:34:40Z</time>
      </trkpt>
      <trkpt lat="43.12064" lon="5.78642">
        <ele>34.6</ele>
        <time>2024-06-12T11:34:41Z</time>
      </trkpt>
      <trkpt lat="43.12064" lon="5.78644">
        <ele>34.6</ele>
        <time>2024-06-12T11:34:42Z</time>
      </trkpt>
      <trkpt lat="43.12064" lon="5.78645">
        <ele>34.8</ele>
        <time>2024-06-12T11:34:43Z</time>
      </trkpt>
      <trkpt lat="43.12064" lon="5.78647">
        <ele>34.8</ele>
        <time>2024-06-12T11:34:44Z</time>
      </trkpt>
      <trkpt lat="43.12064" lon="5.78648">
        <ele>34.6</ele>
        <time>2024-06-12T11:34:45Z</time>
      </trkpt>
      <trkpt lat="43.12065" lon="5.7865">
        <ele>34.6</ele>
        <time>2024-06-12T11:34:46Z</time>
      </trkpt>
      <trkpt lat="43.12065" lon="5.78651">
        <ele>34.6</ele>
        <time>2024-06-12T11:34:47Z</time>
      </trkpt>
      <trkpt lat="43.12064" lon="5.78653">
        <ele>34.6</ele>
        <time>2024-06-12T11:34:48Z</time>
      </trkpt>
      <trkpt lat="43.12064" lon="5.78654">
        <ele>34.6</ele>
        <time>2024-06-12T11:34:49Z</time>
      </trkpt>
      <trkpt lat="43.12064" lon="5.78654">
        <ele>34.4</ele>
        <time>2024-06-12T11:34:50Z</time>
      </trkpt>
      <trkpt lat="43.12064" lon="5.78654">
        <ele>34.4</ele>
        <time>2024-06-12T11:34:51Z</time>
      </trkpt>
      <trkpt lat="43.12065" lon="5.78656">
        <ele>34.2</ele>
        <time>2024-06-12T11:34:55Z</time>
      </trkpt>
      <trkpt lat="43.12066" lon="5.78655">
        <ele>34.2</ele>
        <time>2024-06-12T11:34:56Z</time>
      </trkpt>
      <trkpt lat="43.12066" lon="5.78653">
        <ele>34.2</ele>
        <time>2024-06-12T11:34:57Z</time>
      </trkpt>
      <trkpt lat="43.12066" lon="5.78652">
        <ele>34.4</ele>
        <time>2024-06-12T11:34:58Z</time>
      </trkpt>
      <trkpt lat="43.12066" lon="5.7865">
        <ele>34.6</ele>
        <time>2024-06-12T11:34:59Z</time>
      </trkpt>
      <trkpt lat="43.12066" lon="5.78649">
        <ele>34.6</ele>
        <time>2024-06-12T11:35:00Z</time>
      </trkpt>
      <trkpt lat="43.12066" lon="5.78647">
        <ele>34.6</ele>
        <time>2024-06-12T11:35:01Z</time>
      </trkpt>
      <trkpt lat="43.12066" lon="5.78646">
        <ele>34.6</ele>
        <time>2024-06-12T11:35:02Z</time>
      </trkpt>
      <trkpt lat="43.12067" lon="5.78644">
        <ele>34.8</ele>
        <time>2024-06-12T11:35:03Z</time>
      </trkpt>
      <trkpt lat="43.12067" lon="5.78643">
        <ele>34.8</ele>
        <time>2024-06-12T11:35:04Z</time>
      </trkpt>
      <trkpt lat="43.12067" lon="5.78642">
        <ele>34.8</ele>
        <time>2024-06-12T11:35:05Z</time>
      </trkpt>
      <trkpt lat="43.12067" lon="5.7864">
        <ele>34.8</ele>
        <time>2024-06-12T11:35:06Z</time>
      </trkpt>
      <trkpt lat="43.12068" lon="5.78639">
        <ele>34.8</ele>
        <time>2024-06-12T11:35:07Z</time>
      </trkpt>
      <trkpt lat="43.12068" lon="5.78637">
        <ele>35.2</ele>
        <time>2024-06-12T11:35:08Z</time>
      </trkpt>
      <trkpt lat="43.12068" lon="5.78636">
        <ele>35.4</ele>
        <time>2024-06-12T11:35:09Z</time>
      </trkpt>
      <trkpt lat="43.12068" lon="5.78635">
        <ele>35.4</ele>
        <time>2024-06-12T11:35:10Z</time>
      </trkpt>
      <trkpt lat="43.12068" lon="5.78634">
        <ele>35.4</ele>
        <time>2024-06-12T11:35:11Z</time>
      </trkpt>
      <trkpt lat="43.12068" lon="5.78632">
        <ele>35.4</ele>
        <time>2024-06-12T11:35:12Z</time>
      </trkpt>
      <trkpt lat="43.12068" lon="5.78631">
        <ele>35.4</ele>
        <time>2024-06-12T11:35:13Z</time>
      </trkpt>
      <trkpt lat="43.12068" lon="5.7863">
        <ele>35.4</ele>
        <time>2024-06-12T11:35:14Z</time>
      </trkpt>
      <trkpt lat="43.12067" lon="5.78629">
        <ele>35.4</ele>
        <time>2024-06-12T11:35:15Z</time>
      </trkpt>
      <trkpt lat="43.12068" lon="5.78628">
        <ele>35.4</ele>
        <time>2024-06-12T11:35:16Z</time>
      </trkpt>
      <trkpt lat="43.12068" lon="5.78627">
        <ele>35.8</ele>
        <time>2024-06-12T11:35:17Z</time>
      </trkpt>
      <trkpt lat="43.12068" lon="5.78627">
        <ele>35.6</ele>
        <time>2024-06-12T11:35:18Z</time>
      </trkpt>
      <trkpt lat="43.12068" lon="5.78627">
        <ele>35.6</ele>
        <time>2024-06-12T11:35:19Z</time>
      </trkpt>
      <trkpt lat="43.12067" lon="5.78621">
        <ele>35.2</ele>
        <time>2024-06-12T11:35:23Z</time>
      </trkpt>
      <trkpt lat="43.12066" lon="5.78621">
        <ele>35.2</ele>
        <time>2024-06-12T11:35:24Z</time>
      </trkpt>
      <trkpt lat="43.12066" lon="5.78621">
        <ele>34.8</ele>
        <time>2024-06-12T11:35:25Z</time>
      </trkpt>
      <trkpt lat="43.12065" lon="5.78621">
        <ele>34.8</ele>
        <time>2024-06-12T11:35:26Z</time>
      </trkpt>
      <trkpt lat="43.12064" lon="5.78622">
        <ele>34.8</ele>
        <time>2024-06-12T11:35:27Z</time>
      </trkpt>
      <trkpt lat="43.12063" lon="5.78622">
        <ele>34.8</ele>
        <time>2024-06-12T11:35:28Z</time>
      </trkpt>
      <trkpt lat="43.12063" lon="5.78623">
        <ele>34.8</ele>
        <time>2024-06-12T11:35:29Z</time>
      </trkpt>
      <trkpt lat="43.12062" lon="5.78624">
        <ele>34.8</ele>
        <time>2024-06-12T11:35:30Z</time>
      </trkpt>
      <trkpt lat="43.12062" lon="5.78624">
        <ele>34</ele>
        <time>2024-06-12T11:35:31Z</time>
      </trkpt>
      <trkpt lat="43.12062" lon="5.78625">
        <ele>34</ele>
        <time>2024-06-12T11:35:32Z</time>
      </trkpt>
      <trkpt lat="43.12061" lon="5.78625">
        <ele>34</ele>
        <time>2024-06-12T11:35:33Z</time>
      </trkpt>
      <trkpt lat="43.1206" lon="5.78625">
        <ele>33.4</ele>
        <time>2024-06-12T11:35:34Z</time>
      </trkpt>
      <trkpt lat="43.12059" lon="5.78624">
        <ele>33.2</ele>
        <time>2024-06-12T11:35:35Z</time>
      </trkpt>
      <trkpt lat="43.12058" lon="5.78624">
        <ele>33.2</ele>
        <time>2024-06-12T11:35:36Z</time>
      </trkpt>
      <trkpt lat="43.12057" lon="5.78623">
        <ele>33.2</ele>
        <time>2024-06-12T11:35:37Z</time>
      </trkpt>
      <trkpt lat="43.12057" lon="5.78622">
        <ele>33.2</ele>
        <time>2024-06-12T11:35:38Z</time>
      </trkpt>
      <trkpt lat="43.12057" lon="5.78621">
        <ele>32.2</ele>
        <time>2024-06-12T11:35:39Z</time>
      </trkpt>
      <trkpt lat="43.12057" lon="5.7862">
        <ele>32</ele>
        <time>2024-06-12T11:35:40Z</time>
      </trkpt>
      <trkpt lat="43.12057" lon="5.78619">
        <ele>32</ele>
        <time>2024-06-12T11:35:41Z</time>
      </trkpt>
      <trkpt lat="43.12057" lon="5.78618">
        <ele>32</ele>
        <time>2024-06-12T11:35:42Z</time>
      </trkpt>
      <trkpt lat="43.12058" lon="5.78618">
        <ele>32</ele>
        <time>2024-06-12T11:35:43Z</time>
      </trkpt>
      <trkpt lat="43.12058" lon="5.78618">
        <ele>31.8</ele>
        <time>2024-06-12T11:35:44Z</time>
      </trkpt>
    </trkseg>
  </trk>
</gpx>